<?xml version="1.0" encoding="UTF-8" standalone="no" ?>
<gpx xmlns="http://www.topografix.com/GPX/1/1" xmlns:xsi="http://www.w3.org/2001/XMLSchema-instance" xsi:schemaLocation="http://www.topografix.com/GPX/1/1 http://www.topografix.com/GPX/1/1/gpx.xsd" version="1.1" creator="VisuGPX - https://www.visugpx.com">
  <metadata>
    <name>trace1</name>
    <desc><![CDATA[
]]></desc>
  </metadata>
  <trk>
    <name><![CDATA[trace1_1]]></name>
    <trkseg>
      <trkpt lat="45.83704" lon="3.09489">
        <ele>362.9</ele>
        <time>2019-12-25T12:33:46.000Z</time>
      </trkpt>
      <trkpt lat="45.83719" lon="3.09487">
        <ele>363.4</ele>
        <time>2019-12-25T12:33:48.000Z</time>
      </trkpt>
      <trkpt lat="45.83727" lon="3.09485">
        <ele>363.7</ele>
        <time>2019-12-25T12:33:49.000Z</time>
      </trkpt>
      <trkpt lat="45.83741" lon="3.09479">
        <ele>364.3</ele>
        <time>2019-12-25T12:33:51.000Z</time>
      </trkpt>
      <trkpt lat="45.83748" lon="3.09475">
        <ele>364.7</ele>
        <time>2019-12-25T12:33:52.000Z</time>
      </trkpt>
      <trkpt lat="45.83761" lon="3.09465">
        <ele>365.2</ele>
        <time>2019-12-25T12:33:54.000Z</time>
      </trkpt>
      <trkpt lat="45.83767" lon="3.09459">
        <ele>365.4</ele>
        <time>2019-12-25T12:33:55.000Z</time>
      </trkpt>
      <trkpt lat="45.83778" lon="3.09446">
        <ele>365.9</ele>
        <time>2019-12-25T12:33:57.000Z</time>
      </trkpt>
      <trkpt lat="45.83783" lon="3.09439">
        <ele>366.1</ele>
        <time>2019-12-25T12:33:58.000Z</time>
      </trkpt>
      <trkpt lat="45.83792" lon="3.09424">
        <ele>366.9</ele>
        <time>2019-12-25T12:34:00.000Z</time>
      </trkpt>
      <trkpt lat="45.83797" lon="3.09417">
        <ele>367.2</ele>
        <time>2019-12-25T12:34:01.000Z</time>
      </trkpt>
      <trkpt lat="45.83805" lon="3.09403">
        <ele>368.4</ele>
        <time>2019-12-25T12:34:03.000Z</time>
      </trkpt>
      <trkpt lat="45.83813" lon="3.09389">
        <ele>369.2</ele>
        <time>2019-12-25T12:34:05.000Z</time>
      </trkpt>
      <trkpt lat="45.83817" lon="3.09382">
        <ele>369.5</ele>
        <time>2019-12-25T12:34:06.000Z</time>
      </trkpt>
      <trkpt lat="45.83821" lon="3.09376">
        <ele>369.9</ele>
        <time>2019-12-25T12:34:07.000Z</time>
      </trkpt>
      <trkpt lat="45.83828" lon="3.09363">
        <ele>370.5</ele>
        <time>2019-12-25T12:34:09.000Z</time>
      </trkpt>
      <trkpt lat="45.83836" lon="3.09351">
        <ele>371.1</ele>
        <time>2019-12-25T12:34:11.000Z</time>
      </trkpt>
      <trkpt lat="45.83843" lon="3.09338">
        <ele>371.7</ele>
        <time>2019-12-25T12:34:13.000Z</time>
      </trkpt>
      <trkpt lat="45.83846" lon="3.09333">
        <ele>372</ele>
        <time>2019-12-25T12:34:14.000Z</time>
      </trkpt>
      <trkpt lat="45.83853" lon="3.09321">
        <ele>372.4</ele>
        <time>2019-12-25T12:34:16.000Z</time>
      </trkpt>
      <trkpt lat="45.8386" lon="3.09309">
        <ele>372.9</ele>
        <time>2019-12-25T12:34:18.000Z</time>
      </trkpt>
      <trkpt lat="45.83863" lon="3.09304">
        <ele>373.1</ele>
        <time>2019-12-25T12:34:19.000Z</time>
      </trkpt>
      <trkpt lat="45.83867" lon="3.09299">
        <ele>373.4</ele>
        <time>2019-12-25T12:34:20.000Z</time>
      </trkpt>
      <trkpt lat="45.83873" lon="3.09288">
        <ele>373.8</ele>
        <time>2019-12-25T12:34:22.000Z</time>
      </trkpt>
      <trkpt lat="45.83876" lon="3.09282">
        <ele>374</ele>
        <time>2019-12-25T12:34:23.000Z</time>
      </trkpt>
      <trkpt lat="45.83882" lon="3.09271">
        <ele>374.3</ele>
        <time>2019-12-25T12:34:25.000Z</time>
      </trkpt>
      <trkpt lat="45.83886" lon="3.09266">
        <ele>374.4</ele>
        <time>2019-12-25T12:34:26.000Z</time>
      </trkpt>
      <trkpt lat="45.83889" lon="3.0926">
        <ele>374.6</ele>
        <time>2019-12-25T12:34:27.000Z</time>
      </trkpt>
      <trkpt lat="45.83897" lon="3.09251">
        <ele>374.9</ele>
        <time>2019-12-25T12:34:29.000Z</time>
      </trkpt>
      <trkpt lat="45.839" lon="3.09246">
        <ele>375.1</ele>
        <time>2019-12-25T12:34:30.000Z</time>
      </trkpt>
      <trkpt lat="45.83905" lon="3.09243">
        <ele>375.3</ele>
        <time>2019-12-25T12:34:31.000Z</time>
      </trkpt>
      <trkpt lat="45.83914" lon="3.09238">
        <ele>375.8</ele>
        <time>2019-12-25T12:34:33.000Z</time>
      </trkpt>
      <trkpt lat="45.83925" lon="3.09236">
        <ele>376.3</ele>
        <time>2019-12-25T12:34:35.000Z</time>
      </trkpt>
      <trkpt lat="45.83935" lon="3.09234">
        <ele>376.8</ele>
        <time>2019-12-25T12:34:37.000Z</time>
      </trkpt>
      <trkpt lat="45.83941" lon="3.09233">
        <ele>377</ele>
        <time>2019-12-25T12:34:38.000Z</time>
      </trkpt>
      <trkpt lat="45.83952" lon="3.09232">
        <ele>377.5</ele>
        <time>2019-12-25T12:34:40.000Z</time>
      </trkpt>
      <trkpt lat="45.83964" lon="3.09232">
        <ele>378.1</ele>
        <time>2019-12-25T12:34:42.000Z</time>
      </trkpt>
      <trkpt lat="45.83969" lon="3.09231">
        <ele>378.4</ele>
        <time>2019-12-25T12:34:43.000Z</time>
      </trkpt>
      <trkpt lat="45.8398" lon="3.09231">
        <ele>379.3</ele>
        <time>2019-12-25T12:34:45.000Z</time>
      </trkpt>
      <trkpt lat="45.83991" lon="3.09231">
        <ele>380.3</ele>
        <time>2019-12-25T12:34:47.000Z</time>
      </trkpt>
      <trkpt lat="45.84003" lon="3.09231">
        <ele>381.2</ele>
        <time>2019-12-25T12:34:49.000Z</time>
      </trkpt>
      <trkpt lat="45.84014" lon="3.0923">
        <ele>382</ele>
        <time>2019-12-25T12:34:51.000Z</time>
      </trkpt>
      <trkpt lat="45.84026" lon="3.09229">
        <ele>382.7</ele>
        <time>2019-12-25T12:34:53.000Z</time>
      </trkpt>
      <trkpt lat="45.84037" lon="3.09228">
        <ele>383.3</ele>
        <time>2019-12-25T12:34:55.000Z</time>
      </trkpt>
      <trkpt lat="45.84048" lon="3.09227">
        <ele>384</ele>
        <time>2019-12-25T12:34:57.000Z</time>
      </trkpt>
      <trkpt lat="45.84059" lon="3.09224">
        <ele>384.5</ele>
        <time>2019-12-25T12:34:59.000Z</time>
      </trkpt>
      <trkpt lat="45.8407" lon="3.09223">
        <ele>385.1</ele>
        <time>2019-12-25T12:35:01.000Z</time>
      </trkpt>
      <trkpt lat="45.84076" lon="3.09222">
        <ele>385.3</ele>
        <time>2019-12-25T12:35:02.000Z</time>
      </trkpt>
      <trkpt lat="45.84087" lon="3.0922">
        <ele>385.8</ele>
        <time>2019-12-25T12:35:04.000Z</time>
      </trkpt>
      <trkpt lat="45.84093" lon="3.09219">
        <ele>386.1</ele>
        <time>2019-12-25T12:35:05.000Z</time>
      </trkpt>
      <trkpt lat="45.84105" lon="3.09217">
        <ele>386.7</ele>
        <time>2019-12-25T12:35:07.000Z</time>
      </trkpt>
      <trkpt lat="45.8411" lon="3.09216">
        <ele>386.9</ele>
        <time>2019-12-25T12:35:08.000Z</time>
      </trkpt>
      <trkpt lat="45.84116" lon="3.09214">
        <ele>387.2</ele>
        <time>2019-12-25T12:35:09.000Z</time>
      </trkpt>
      <trkpt lat="45.84127" lon="3.09212">
        <ele>387.8</ele>
        <time>2019-12-25T12:35:11.000Z</time>
      </trkpt>
      <trkpt lat="45.84133" lon="3.09212">
        <ele>388</ele>
        <time>2019-12-25T12:35:12.000Z</time>
      </trkpt>
      <trkpt lat="45.84143" lon="3.0921">
        <ele>388.6</ele>
        <time>2019-12-25T12:35:14.000Z</time>
      </trkpt>
      <trkpt lat="45.84154" lon="3.09209">
        <ele>389</ele>
        <time>2019-12-25T12:35:16.000Z</time>
      </trkpt>
      <trkpt lat="45.84165" lon="3.09208">
        <ele>389.4</ele>
        <time>2019-12-25T12:35:18.000Z</time>
      </trkpt>
      <trkpt lat="45.84176" lon="3.09209">
        <ele>389.8</ele>
        <time>2019-12-25T12:35:20.000Z</time>
      </trkpt>
      <trkpt lat="45.84186" lon="3.0921">
        <ele>390.2</ele>
        <time>2019-12-25T12:35:22.000Z</time>
      </trkpt>
      <trkpt lat="45.84197" lon="3.09212">
        <ele>390.8</ele>
        <time>2019-12-25T12:35:24.000Z</time>
      </trkpt>
      <trkpt lat="45.84208" lon="3.09214">
        <ele>391.2</ele>
        <time>2019-12-25T12:35:26.000Z</time>
      </trkpt>
      <trkpt lat="45.84213" lon="3.09215">
        <ele>391.4</ele>
        <time>2019-12-25T12:35:27.000Z</time>
      </trkpt>
      <trkpt lat="45.84223" lon="3.09217">
        <ele>391.9</ele>
        <time>2019-12-25T12:35:29.000Z</time>
      </trkpt>
      <trkpt lat="45.84233" lon="3.09219">
        <ele>392.3</ele>
        <time>2019-12-25T12:35:31.000Z</time>
      </trkpt>
      <trkpt lat="45.84243" lon="3.09221">
        <ele>392.9</ele>
        <time>2019-12-25T12:35:33.000Z</time>
      </trkpt>
      <trkpt lat="45.84252" lon="3.09223">
        <ele>393.4</ele>
        <time>2019-12-25T12:35:35.000Z</time>
      </trkpt>
      <trkpt lat="45.84257" lon="3.09224">
        <ele>393.6</ele>
        <time>2019-12-25T12:35:36.000Z</time>
      </trkpt>
      <trkpt lat="45.84262" lon="3.09225">
        <ele>393.9</ele>
        <time>2019-12-25T12:35:37.000Z</time>
      </trkpt>
      <trkpt lat="45.84272" lon="3.09226">
        <ele>394.5</ele>
        <time>2019-12-25T12:35:39.000Z</time>
      </trkpt>
      <trkpt lat="45.84276" lon="3.09227">
        <ele>394.7</ele>
        <time>2019-12-25T12:35:40.000Z</time>
      </trkpt>
      <trkpt lat="45.84281" lon="3.09229">
        <ele>395.1</ele>
        <time>2019-12-25T12:35:41.000Z</time>
      </trkpt>
      <trkpt lat="45.8429" lon="3.09231">
        <ele>395.8</ele>
        <time>2019-12-25T12:35:43.000Z</time>
      </trkpt>
      <trkpt lat="45.84295" lon="3.09232">
        <ele>396.1</ele>
        <time>2019-12-25T12:35:44.000Z</time>
      </trkpt>
      <trkpt lat="45.84304" lon="3.09233">
        <ele>396.6</ele>
        <time>2019-12-25T12:35:46.000Z</time>
      </trkpt>
      <trkpt lat="45.84308" lon="3.09234">
        <ele>397</ele>
        <time>2019-12-25T12:35:47.000Z</time>
      </trkpt>
      <trkpt lat="45.84317" lon="3.09236">
        <ele>397.7</ele>
        <time>2019-12-25T12:35:49.000Z</time>
      </trkpt>
      <trkpt lat="45.84322" lon="3.09237">
        <ele>398.2</ele>
        <time>2019-12-25T12:35:51.000Z</time>
      </trkpt>
      <trkpt lat="45.84326" lon="3.09237">
        <ele>398.5</ele>
        <time>2019-12-25T12:35:52.000Z</time>
      </trkpt>
      <trkpt lat="45.84331" lon="3.09237">
        <ele>398.8</ele>
        <time>2019-12-25T12:35:53.000Z</time>
      </trkpt>
      <trkpt lat="45.84335" lon="3.09238">
        <ele>399.2</ele>
        <time>2019-12-25T12:35:54.000Z</time>
      </trkpt>
      <trkpt lat="45.84342" lon="3.09238">
        <ele>399.8</ele>
        <time>2019-12-25T12:35:56.000Z</time>
      </trkpt>
      <trkpt lat="45.84347" lon="3.09238">
        <ele>400.3</ele>
        <time>2019-12-25T12:35:57.000Z</time>
      </trkpt>
      <trkpt lat="45.84354" lon="3.09238">
        <ele>400.8</ele>
        <time>2019-12-25T12:35:58.000Z</time>
      </trkpt>
      <trkpt lat="45.84363" lon="3.09238">
        <ele>401.4</ele>
        <time>2019-12-25T12:36:01.000Z</time>
      </trkpt>
      <trkpt lat="45.84368" lon="3.09239">
        <ele>401.6</ele>
        <time>2019-12-25T12:36:02.000Z</time>
      </trkpt>
      <trkpt lat="45.84372" lon="3.09239">
        <ele>401.9</ele>
        <time>2019-12-25T12:36:03.000Z</time>
      </trkpt>
      <trkpt lat="45.84379" lon="3.09238">
        <ele>402.3</ele>
        <time>2019-12-25T12:36:04.000Z</time>
      </trkpt>
      <trkpt lat="45.84384" lon="3.09238">
        <ele>402.7</ele>
        <time>2019-12-25T12:36:06.000Z</time>
      </trkpt>
      <trkpt lat="45.8439" lon="3.09237">
        <ele>403</ele>
        <time>2019-12-25T12:36:07.000Z</time>
      </trkpt>
      <trkpt lat="45.84395" lon="3.09236">
        <ele>403.3</ele>
        <time>2019-12-25T12:36:08.000Z</time>
      </trkpt>
      <trkpt lat="45.844" lon="3.09235">
        <ele>403.6</ele>
        <time>2019-12-25T12:36:09.000Z</time>
      </trkpt>
      <trkpt lat="45.84405" lon="3.09234">
        <ele>403.9</ele>
        <time>2019-12-25T12:36:11.000Z</time>
      </trkpt>
      <trkpt lat="45.84412" lon="3.09233">
        <ele>404.1</ele>
        <time>2019-12-25T12:36:12.000Z</time>
      </trkpt>
      <trkpt lat="45.84416" lon="3.09231">
        <ele>404.3</ele>
        <time>2019-12-25T12:36:13.000Z</time>
      </trkpt>
      <trkpt lat="45.84427" lon="3.0923">
        <ele>404.9</ele>
        <time>2019-12-25T12:36:15.000Z</time>
      </trkpt>
      <trkpt lat="45.84431" lon="3.09229">
        <ele>405.2</ele>
        <time>2019-12-25T12:36:16.000Z</time>
      </trkpt>
      <trkpt lat="45.84441" lon="3.09227">
        <ele>405.9</ele>
        <time>2019-12-25T12:36:19.000Z</time>
      </trkpt>
      <trkpt lat="45.84446" lon="3.09226">
        <ele>406.2</ele>
        <time>2019-12-25T12:36:20.000Z</time>
      </trkpt>
      <trkpt lat="45.84457" lon="3.09224">
        <ele>406.9</ele>
        <time>2019-12-25T12:36:22.000Z</time>
      </trkpt>
      <trkpt lat="45.84462" lon="3.09222">
        <ele>407.1</ele>
        <time>2019-12-25T12:36:23.000Z</time>
      </trkpt>
      <trkpt lat="45.84467" lon="3.09221">
        <ele>407.4</ele>
        <time>2019-12-25T12:36:25.000Z</time>
      </trkpt>
      <trkpt lat="45.84473" lon="3.0922">
        <ele>407.7</ele>
        <time>2019-12-25T12:36:26.000Z</time>
      </trkpt>
      <trkpt lat="45.84478" lon="3.09219">
        <ele>407.9</ele>
        <time>2019-12-25T12:36:27.000Z</time>
      </trkpt>
      <trkpt lat="45.84485" lon="3.09217">
        <ele>408.2</ele>
        <time>2019-12-25T12:36:29.000Z</time>
      </trkpt>
      <trkpt lat="45.8449" lon="3.09216">
        <ele>408.4</ele>
        <time>2019-12-25T12:36:30.000Z</time>
      </trkpt>
      <trkpt lat="45.84495" lon="3.09215">
        <ele>408.6</ele>
        <time>2019-12-25T12:36:31.000Z</time>
      </trkpt>
      <trkpt lat="45.84501" lon="3.09214">
        <ele>410.1</ele>
        <time>2019-12-25T12:36:33.000Z</time>
      </trkpt>
      <trkpt lat="45.84507" lon="3.09213">
        <ele>410.8</ele>
        <time>2019-12-25T12:36:34.000Z</time>
      </trkpt>
      <trkpt lat="45.84514" lon="3.09212">
        <ele>411.5</ele>
        <time>2019-12-25T12:36:36.000Z</time>
      </trkpt>
      <trkpt lat="45.84518" lon="3.09211">
        <ele>411.8</ele>
        <time>2019-12-25T12:36:37.000Z</time>
      </trkpt>
      <trkpt lat="45.84523" lon="3.09209">
        <ele>412.2</ele>
        <time>2019-12-25T12:36:38.000Z</time>
      </trkpt>
      <trkpt lat="45.84528" lon="3.09208">
        <ele>412.5</ele>
        <time>2019-12-25T12:36:39.000Z</time>
      </trkpt>
      <trkpt lat="45.84535" lon="3.09206">
        <ele>412.8</ele>
        <time>2019-12-25T12:36:40.000Z</time>
      </trkpt>
      <trkpt lat="45.8454" lon="3.09205">
        <ele>413</ele>
        <time>2019-12-25T12:36:42.000Z</time>
      </trkpt>
      <trkpt lat="45.84547" lon="3.09204">
        <ele>413.4</ele>
        <time>2019-12-25T12:36:43.000Z</time>
      </trkpt>
      <trkpt lat="45.84552" lon="3.09203">
        <ele>413.6</ele>
        <time>2019-12-25T12:36:44.000Z</time>
      </trkpt>
      <trkpt lat="45.84557" lon="3.09202">
        <ele>413.9</ele>
        <time>2019-12-25T12:36:45.000Z</time>
      </trkpt>
      <trkpt lat="45.84566" lon="3.092">
        <ele>414.2</ele>
        <time>2019-12-25T12:36:47.000Z</time>
      </trkpt>
      <trkpt lat="45.84571" lon="3.09199">
        <ele>414.4</ele>
        <time>2019-12-25T12:36:48.000Z</time>
      </trkpt>
      <trkpt lat="45.84581" lon="3.09197">
        <ele>414.8</ele>
        <time>2019-12-25T12:36:50.000Z</time>
      </trkpt>
      <trkpt lat="45.84591" lon="3.09195">
        <ele>415.1</ele>
        <time>2019-12-25T12:36:52.000Z</time>
      </trkpt>
      <trkpt lat="45.84601" lon="3.09193">
        <ele>415.5</ele>
        <time>2019-12-25T12:36:54.000Z</time>
      </trkpt>
      <trkpt lat="45.84611" lon="3.09191">
        <ele>416</ele>
        <time>2019-12-25T12:36:56.000Z</time>
      </trkpt>
      <trkpt lat="45.84616" lon="3.0919">
        <ele>416.2</ele>
        <time>2019-12-25T12:36:57.000Z</time>
      </trkpt>
      <trkpt lat="45.84621" lon="3.09189">
        <ele>416.3</ele>
        <time>2019-12-25T12:36:58.000Z</time>
      </trkpt>
      <trkpt lat="45.84631" lon="3.09186">
        <ele>416.6</ele>
        <time>2019-12-25T12:37:00.000Z</time>
      </trkpt>
      <trkpt lat="45.84636" lon="3.09185">
        <ele>416.8</ele>
        <time>2019-12-25T12:37:01.000Z</time>
      </trkpt>
      <trkpt lat="45.84646" lon="3.09182">
        <ele>417.1</ele>
        <time>2019-12-25T12:37:03.000Z</time>
      </trkpt>
      <trkpt lat="45.84656" lon="3.0918">
        <ele>417.4</ele>
        <time>2019-12-25T12:37:05.000Z</time>
      </trkpt>
      <trkpt lat="45.84666" lon="3.09179">
        <ele>417.7</ele>
        <time>2019-12-25T12:37:07.000Z</time>
      </trkpt>
      <trkpt lat="45.84676" lon="3.09177">
        <ele>418</ele>
        <time>2019-12-25T12:37:09.000Z</time>
      </trkpt>
      <trkpt lat="45.84685" lon="3.09174">
        <ele>418.4</ele>
        <time>2019-12-25T12:37:11.000Z</time>
      </trkpt>
      <trkpt lat="45.84695" lon="3.09172">
        <ele>419.1</ele>
        <time>2019-12-25T12:37:13.000Z</time>
      </trkpt>
      <trkpt lat="45.84705" lon="3.09171">
        <ele>420.1</ele>
        <time>2019-12-25T12:37:15.000Z</time>
      </trkpt>
      <trkpt lat="45.84709" lon="3.0917">
        <ele>420.5</ele>
        <time>2019-12-25T12:37:16.000Z</time>
      </trkpt>
      <trkpt lat="45.84718" lon="3.09171">
        <ele>421.3</ele>
        <time>2019-12-25T12:37:18.000Z</time>
      </trkpt>
      <trkpt lat="45.84722" lon="3.09173">
        <ele>421.6</ele>
        <time>2019-12-25T12:37:19.000Z</time>
      </trkpt>
      <trkpt lat="45.8473" lon="3.09179">
        <ele>422.4</ele>
        <time>2019-12-25T12:37:21.000Z</time>
      </trkpt>
      <trkpt lat="45.84736" lon="3.09184">
        <ele>423.1</ele>
        <time>2019-12-25T12:37:23.000Z</time>
      </trkpt>
      <trkpt lat="45.84742" lon="3.09187">
        <ele>423.7</ele>
        <time>2019-12-25T12:37:25.000Z</time>
      </trkpt>
      <trkpt lat="45.84744" lon="3.0919">
        <ele>423.9</ele>
        <time>2019-12-25T12:37:26.000Z</time>
      </trkpt>
      <trkpt lat="45.84748" lon="3.09194">
        <ele>424.2</ele>
        <time>2019-12-25T12:37:27.000Z</time>
      </trkpt>
      <trkpt lat="45.84756" lon="3.09201">
        <ele>423.8</ele>
        <time>2019-12-25T12:37:29.000Z</time>
      </trkpt>
      <trkpt lat="45.84765" lon="3.09208">
        <ele>423.7</ele>
        <time>2019-12-25T12:37:31.000Z</time>
      </trkpt>
      <trkpt lat="45.8477" lon="3.09212">
        <ele>423.7</ele>
        <time>2019-12-25T12:37:32.000Z</time>
      </trkpt>
      <trkpt lat="45.84778" lon="3.09219">
        <ele>423.7</ele>
        <time>2019-12-25T12:37:34.000Z</time>
      </trkpt>
      <trkpt lat="45.8478" lon="3.09226">
        <ele>423.8</ele>
        <time>2019-12-25T12:37:36.000Z</time>
      </trkpt>
      <trkpt lat="45.84784" lon="3.09228">
        <ele>423.8</ele>
        <time>2019-12-25T12:37:37.000Z</time>
      </trkpt>
      <trkpt lat="45.84788" lon="3.09231">
        <ele>423.9</ele>
        <time>2019-12-25T12:37:38.000Z</time>
      </trkpt>
      <trkpt lat="45.84794" lon="3.09236">
        <ele>424</ele>
        <time>2019-12-25T12:37:40.000Z</time>
      </trkpt>
      <trkpt lat="45.84797" lon="3.09241">
        <ele>424</ele>
        <time>2019-12-25T12:37:41.000Z</time>
      </trkpt>
      <trkpt lat="45.84801" lon="3.09244">
        <ele>424.1</ele>
        <time>2019-12-25T12:37:42.000Z</time>
      </trkpt>
      <trkpt lat="45.84804" lon="3.09247">
        <ele>424.2</ele>
        <time>2019-12-25T12:37:43.000Z</time>
      </trkpt>
      <trkpt lat="45.84807" lon="3.09251">
        <ele>424.4</ele>
        <time>2019-12-25T12:37:44.000Z</time>
      </trkpt>
      <trkpt lat="45.84811" lon="3.09255">
        <ele>424.6</ele>
        <time>2019-12-25T12:37:45.000Z</time>
      </trkpt>
      <trkpt lat="45.84815" lon="3.0926">
        <ele>424.9</ele>
        <time>2019-12-25T12:37:47.000Z</time>
      </trkpt>
      <trkpt lat="45.8482" lon="3.09265">
        <ele>425.3</ele>
        <time>2019-12-25T12:37:48.000Z</time>
      </trkpt>
      <trkpt lat="45.84824" lon="3.09268">
        <ele>426</ele>
        <time>2019-12-25T12:37:49.000Z</time>
      </trkpt>
      <trkpt lat="45.84829" lon="3.09273">
        <ele>427.1</ele>
        <time>2019-12-25T12:37:51.000Z</time>
      </trkpt>
      <trkpt lat="45.84835" lon="3.09278">
        <ele>427.9</ele>
        <time>2019-12-25T12:37:53.000Z</time>
      </trkpt>
      <trkpt lat="45.84839" lon="3.09281">
        <ele>428.5</ele>
        <time>2019-12-25T12:37:54.000Z</time>
      </trkpt>
      <trkpt lat="45.84845" lon="3.09283">
        <ele>429.2</ele>
        <time>2019-12-25T12:37:55.000Z</time>
      </trkpt>
      <trkpt lat="45.84848" lon="3.09282">
        <ele>429.7</ele>
        <time>2019-12-25T12:37:56.000Z</time>
      </trkpt>
      <trkpt lat="45.84852" lon="3.09281">
        <ele>430.2</ele>
        <time>2019-12-25T12:37:57.000Z</time>
      </trkpt>
      <trkpt lat="45.84856" lon="3.09279">
        <ele>430.8</ele>
        <time>2019-12-25T12:37:58.000Z</time>
      </trkpt>
      <trkpt lat="45.8486" lon="3.09275">
        <ele>431.2</ele>
        <time>2019-12-25T12:37:59.000Z</time>
      </trkpt>
      <trkpt lat="45.84864" lon="3.09269">
        <ele>431.6</ele>
        <time>2019-12-25T12:38:01.000Z</time>
      </trkpt>
      <trkpt lat="45.84866" lon="3.09264">
        <ele>431.9</ele>
        <time>2019-12-25T12:38:02.000Z</time>
      </trkpt>
      <trkpt lat="45.8487" lon="3.09256">
        <ele>432.5</ele>
        <time>2019-12-25T12:38:04.000Z</time>
      </trkpt>
      <trkpt lat="45.84871" lon="3.09247">
        <ele>433.3</ele>
        <time>2019-12-25T12:38:06.000Z</time>
      </trkpt>
      <trkpt lat="45.84871" lon="3.09238">
        <ele>433.9</ele>
        <time>2019-12-25T12:38:07.000Z</time>
      </trkpt>
      <trkpt lat="45.84872" lon="3.09232">
        <ele>434.4</ele>
        <time>2019-12-25T12:38:09.000Z</time>
      </trkpt>
      <trkpt lat="45.84872" lon="3.09225">
        <ele>434.7</ele>
        <time>2019-12-25T12:38:10.000Z</time>
      </trkpt>
      <trkpt lat="45.84873" lon="3.09216">
        <ele>435</ele>
        <time>2019-12-25T12:38:11.000Z</time>
      </trkpt>
      <trkpt lat="45.84873" lon="3.09209">
        <ele>435.3</ele>
        <time>2019-12-25T12:38:12.000Z</time>
      </trkpt>
      <trkpt lat="45.84873" lon="3.09201">
        <ele>435.5</ele>
        <time>2019-12-25T12:38:13.000Z</time>
      </trkpt>
      <trkpt lat="45.84874" lon="3.09194">
        <ele>435.7</ele>
        <time>2019-12-25T12:38:15.000Z</time>
      </trkpt>
      <trkpt lat="45.84874" lon="3.09183">
        <ele>436</ele>
        <time>2019-12-25T12:38:16.000Z</time>
      </trkpt>
      <trkpt lat="45.84875" lon="3.09177">
        <ele>436.2</ele>
        <time>2019-12-25T12:38:17.000Z</time>
      </trkpt>
      <trkpt lat="45.84876" lon="3.09166">
        <ele>436.6</ele>
        <time>2019-12-25T12:38:19.000Z</time>
      </trkpt>
      <trkpt lat="45.84877" lon="3.0916">
        <ele>436.8</ele>
        <time>2019-12-25T12:38:20.000Z</time>
      </trkpt>
      <trkpt lat="45.84877" lon="3.09153">
        <ele>437</ele>
        <time>2019-12-25T12:38:21.000Z</time>
      </trkpt>
      <trkpt lat="45.84877" lon="3.09143">
        <ele>437.5</ele>
        <time>2019-12-25T12:38:23.000Z</time>
      </trkpt>
      <trkpt lat="45.84878" lon="3.09132">
        <ele>438</ele>
        <time>2019-12-25T12:38:25.000Z</time>
      </trkpt>
      <trkpt lat="45.84878" lon="3.09125">
        <ele>438.3</ele>
        <time>2019-12-25T12:38:26.000Z</time>
      </trkpt>
      <trkpt lat="45.84879" lon="3.09115">
        <ele>438.8</ele>
        <time>2019-12-25T12:38:27.000Z</time>
      </trkpt>
      <trkpt lat="45.8488" lon="3.09106">
        <ele>439.2</ele>
        <time>2019-12-25T12:38:28.000Z</time>
      </trkpt>
      <trkpt lat="45.84881" lon="3.09092">
        <ele>439.9</ele>
        <time>2019-12-25T12:38:30.000Z</time>
      </trkpt>
      <trkpt lat="45.84881" lon="3.09086">
        <ele>440.2</ele>
        <time>2019-12-25T12:38:31.000Z</time>
      </trkpt>
      <trkpt lat="45.84883" lon="3.09074">
        <ele>440.8</ele>
        <time>2019-12-25T12:38:33.000Z</time>
      </trkpt>
      <trkpt lat="45.84883" lon="3.09067">
        <ele>441.1</ele>
        <time>2019-12-25T12:38:34.000Z</time>
      </trkpt>
      <trkpt lat="45.84883" lon="3.09061">
        <ele>441.4</ele>
        <time>2019-12-25T12:38:35.000Z</time>
      </trkpt>
      <trkpt lat="45.84883" lon="3.09054">
        <ele>441.8</ele>
        <time>2019-12-25T12:38:36.000Z</time>
      </trkpt>
      <trkpt lat="45.84884" lon="3.09041">
        <ele>442.5</ele>
        <time>2019-12-25T12:38:38.000Z</time>
      </trkpt>
      <trkpt lat="45.84884" lon="3.09027">
        <ele>443.2</ele>
        <time>2019-12-25T12:38:40.000Z</time>
      </trkpt>
      <trkpt lat="45.84884" lon="3.09021">
        <ele>443.6</ele>
        <time>2019-12-25T12:38:41.000Z</time>
      </trkpt>
      <trkpt lat="45.84883" lon="3.09015">
        <ele>444.5</ele>
        <time>2019-12-25T12:38:43.000Z</time>
      </trkpt>
      <trkpt lat="45.84884" lon="3.09005">
        <ele>445.1</ele>
        <time>2019-12-25T12:38:44.000Z</time>
      </trkpt>
      <trkpt lat="45.84884" lon="3.08998">
        <ele>445.6</ele>
        <time>2019-12-25T12:38:45.000Z</time>
      </trkpt>
      <trkpt lat="45.84885" lon="3.08992">
        <ele>446</ele>
        <time>2019-12-25T12:38:46.000Z</time>
      </trkpt>
      <trkpt lat="45.84886" lon="3.08984">
        <ele>446.5</ele>
        <time>2019-12-25T12:38:48.000Z</time>
      </trkpt>
      <trkpt lat="45.84887" lon="3.08975">
        <ele>447</ele>
        <time>2019-12-25T12:38:49.000Z</time>
      </trkpt>
      <trkpt lat="45.84888" lon="3.08969">
        <ele>447.2</ele>
        <time>2019-12-25T12:38:50.000Z</time>
      </trkpt>
      <trkpt lat="45.8489" lon="3.0896">
        <ele>447.4</ele>
        <time>2019-12-25T12:38:52.000Z</time>
      </trkpt>
      <trkpt lat="45.84892" lon="3.08955">
        <ele>447.5</ele>
        <time>2019-12-25T12:38:53.000Z</time>
      </trkpt>
      <trkpt lat="45.84896" lon="3.08949">
        <ele>447.6</ele>
        <time>2019-12-25T12:38:54.000Z</time>
      </trkpt>
      <trkpt lat="45.84901" lon="3.08943">
        <ele>447.7</ele>
        <time>2019-12-25T12:38:56.000Z</time>
      </trkpt>
      <trkpt lat="45.84905" lon="3.08941">
        <ele>447.8</ele>
        <time>2019-12-25T12:38:57.000Z</time>
      </trkpt>
      <trkpt lat="45.84913" lon="3.0894">
        <ele>448</ele>
        <time>2019-12-25T12:38:59.000Z</time>
      </trkpt>
      <trkpt lat="45.84918" lon="3.08939">
        <ele>448.3</ele>
        <time>2019-12-25T12:39:00.000Z</time>
      </trkpt>
      <trkpt lat="45.84929" lon="3.08939">
        <ele>449.2</ele>
        <time>2019-12-25T12:39:01.000Z</time>
      </trkpt>
      <trkpt lat="45.84939" lon="3.0894">
        <ele>450.3</ele>
        <time>2019-12-25T12:39:03.000Z</time>
      </trkpt>
      <trkpt lat="45.84944" lon="3.0894">
        <ele>450.7</ele>
        <time>2019-12-25T12:39:04.000Z</time>
      </trkpt>
      <trkpt lat="45.84954" lon="3.08939">
        <ele>451.3</ele>
        <time>2019-12-25T12:39:06.000Z</time>
      </trkpt>
      <trkpt lat="45.84957" lon="3.08936">
        <ele>451.5</ele>
        <time>2019-12-25T12:39:07.000Z</time>
      </trkpt>
      <trkpt lat="45.84962" lon="3.08932">
        <ele>451.7</ele>
        <time>2019-12-25T12:39:09.000Z</time>
      </trkpt>
      <trkpt lat="45.84966" lon="3.08928">
        <ele>451.9</ele>
        <time>2019-12-25T12:39:10.000Z</time>
      </trkpt>
      <trkpt lat="45.84971" lon="3.08921">
        <ele>452.2</ele>
        <time>2019-12-25T12:39:11.000Z</time>
      </trkpt>
      <trkpt lat="45.84979" lon="3.08912">
        <ele>453.3</ele>
        <time>2019-12-25T12:39:13.000Z</time>
      </trkpt>
      <trkpt lat="45.84984" lon="3.0891">
        <ele>453.8</ele>
        <time>2019-12-25T12:39:14.000Z</time>
      </trkpt>
      <trkpt lat="45.84994" lon="3.08911">
        <ele>454.7</ele>
        <time>2019-12-25T12:39:16.000Z</time>
      </trkpt>
      <trkpt lat="45.85" lon="3.08912">
        <ele>455.1</ele>
        <time>2019-12-25T12:39:17.000Z</time>
      </trkpt>
      <trkpt lat="45.85009" lon="3.08911">
        <ele>455.8</ele>
        <time>2019-12-25T12:39:19.000Z</time>
      </trkpt>
      <trkpt lat="45.85019" lon="3.08908">
        <ele>456.6</ele>
        <time>2019-12-25T12:39:21.000Z</time>
      </trkpt>
      <trkpt lat="45.85026" lon="3.08902">
        <ele>457.2</ele>
        <time>2019-12-25T12:39:23.000Z</time>
      </trkpt>
      <trkpt lat="45.85032" lon="3.08896">
        <ele>457.6</ele>
        <time>2019-12-25T12:39:26.000Z</time>
      </trkpt>
      <trkpt lat="45.85036" lon="3.08892">
        <ele>457.9</ele>
        <time>2019-12-25T12:39:27.000Z</time>
      </trkpt>
      <trkpt lat="45.85039" lon="3.08887">
        <ele>458.2</ele>
        <time>2019-12-25T12:39:28.000Z</time>
      </trkpt>
      <trkpt lat="45.85045" lon="3.08878">
        <ele>459.1</ele>
        <time>2019-12-25T12:39:29.000Z</time>
      </trkpt>
      <trkpt lat="45.8505" lon="3.08871">
        <ele>459.8</ele>
        <time>2019-12-25T12:39:31.000Z</time>
      </trkpt>
      <trkpt lat="45.85057" lon="3.08858">
        <ele>460.6</ele>
        <time>2019-12-25T12:39:33.000Z</time>
      </trkpt>
      <trkpt lat="45.85059" lon="3.08852">
        <ele>460.9</ele>
        <time>2019-12-25T12:39:34.000Z</time>
      </trkpt>
      <trkpt lat="45.8506" lon="3.08847">
        <ele>461.2</ele>
        <time>2019-12-25T12:39:36.000Z</time>
      </trkpt>
      <trkpt lat="45.85068" lon="3.08838">
        <ele>462.1</ele>
        <time>2019-12-25T12:39:37.000Z</time>
      </trkpt>
      <trkpt lat="45.85071" lon="3.08833">
        <ele>462.6</ele>
        <time>2019-12-25T12:39:38.000Z</time>
      </trkpt>
      <trkpt lat="45.85074" lon="3.08831">
        <ele>462.9</ele>
        <time>2019-12-25T12:39:39.000Z</time>
      </trkpt>
      <trkpt lat="45.85077" lon="3.08825">
        <ele>463.5</ele>
        <time>2019-12-25T12:39:41.000Z</time>
      </trkpt>
      <trkpt lat="45.8508" lon="3.08819">
        <ele>464</ele>
        <time>2019-12-25T12:39:42.000Z</time>
      </trkpt>
      <trkpt lat="45.85084" lon="3.0881">
        <ele>464.5</ele>
        <time>2019-12-25T12:39:43.000Z</time>
      </trkpt>
      <trkpt lat="45.85088" lon="3.08804">
        <ele>465</ele>
        <time>2019-12-25T12:39:45.000Z</time>
      </trkpt>
      <trkpt lat="45.85092" lon="3.08796">
        <ele>465.5</ele>
        <time>2019-12-25T12:39:46.000Z</time>
      </trkpt>
      <trkpt lat="45.85095" lon="3.08791">
        <ele>466</ele>
        <time>2019-12-25T12:39:47.000Z</time>
      </trkpt>
      <trkpt lat="45.85102" lon="3.0878">
        <ele>466.9</ele>
        <time>2019-12-25T12:39:49.000Z</time>
      </trkpt>
      <trkpt lat="45.85108" lon="3.08776">
        <ele>467.5</ele>
        <time>2019-12-25T12:39:52.000Z</time>
      </trkpt>
      <trkpt lat="45.85119" lon="3.08773">
        <ele>468.5</ele>
        <time>2019-12-25T12:39:53.000Z</time>
      </trkpt>
      <trkpt lat="45.85126" lon="3.08774">
        <ele>469.1</ele>
        <time>2019-12-25T12:39:55.000Z</time>
      </trkpt>
      <trkpt lat="45.85132" lon="3.08778">
        <ele>469.8</ele>
        <time>2019-12-25T12:39:57.000Z</time>
      </trkpt>
      <trkpt lat="45.85137" lon="3.08783">
        <ele>470.4</ele>
        <time>2019-12-25T12:39:58.000Z</time>
      </trkpt>
      <trkpt lat="45.8514" lon="3.08788">
        <ele>470.8</ele>
        <time>2019-12-25T12:39:59.000Z</time>
      </trkpt>
      <trkpt lat="45.85144" lon="3.08794">
        <ele>471.3</ele>
        <time>2019-12-25T12:40:00.000Z</time>
      </trkpt>
      <trkpt lat="45.85147" lon="3.088">
        <ele>471.7</ele>
        <time>2019-12-25T12:40:02.000Z</time>
      </trkpt>
      <trkpt lat="45.85154" lon="3.08812">
        <ele>472.6</ele>
        <time>2019-12-25T12:40:03.000Z</time>
      </trkpt>
      <trkpt lat="45.85157" lon="3.08817">
        <ele>473</ele>
        <time>2019-12-25T12:40:04.000Z</time>
      </trkpt>
      <trkpt lat="45.85162" lon="3.08828">
        <ele>473.8</ele>
        <time>2019-12-25T12:40:06.000Z</time>
      </trkpt>
      <trkpt lat="45.85167" lon="3.08835">
        <ele>474.4</ele>
        <time>2019-12-25T12:40:08.000Z</time>
      </trkpt>
      <trkpt lat="45.85172" lon="3.08848">
        <ele>475.4</ele>
        <time>2019-12-25T12:40:10.000Z</time>
      </trkpt>
      <trkpt lat="45.85172" lon="3.08859">
        <ele>476</ele>
        <time>2019-12-25T12:40:12.000Z</time>
      </trkpt>
      <trkpt lat="45.85181" lon="3.08872">
        <ele>477.2</ele>
        <time>2019-12-25T12:40:14.000Z</time>
      </trkpt>
      <trkpt lat="45.85186" lon="3.0888">
        <ele>477.8</ele>
        <time>2019-12-25T12:40:16.000Z</time>
      </trkpt>
      <trkpt lat="45.85189" lon="3.08887">
        <ele>478.4</ele>
        <time>2019-12-25T12:40:18.000Z</time>
      </trkpt>
      <trkpt lat="45.85192" lon="3.08892">
        <ele>478.8</ele>
        <time>2019-12-25T12:40:19.000Z</time>
      </trkpt>
      <trkpt lat="45.85197" lon="3.08899">
        <ele>479.5</ele>
        <time>2019-12-25T12:40:20.000Z</time>
      </trkpt>
      <trkpt lat="45.85201" lon="3.08904">
        <ele>480</ele>
        <time>2019-12-25T12:40:21.000Z</time>
      </trkpt>
      <trkpt lat="45.85204" lon="3.08908">
        <ele>480.4</ele>
        <time>2019-12-25T12:40:22.000Z</time>
      </trkpt>
      <trkpt lat="45.85212" lon="3.08916">
        <ele>481.2</ele>
        <time>2019-12-25T12:40:25.000Z</time>
      </trkpt>
      <trkpt lat="45.85216" lon="3.0892">
        <ele>481.6</ele>
        <time>2019-12-25T12:40:26.000Z</time>
      </trkpt>
      <trkpt lat="45.8522" lon="3.08923">
        <ele>482</ele>
        <time>2019-12-25T12:40:27.000Z</time>
      </trkpt>
      <trkpt lat="45.85224" lon="3.08926">
        <ele>482.3</ele>
        <time>2019-12-25T12:40:28.000Z</time>
      </trkpt>
      <trkpt lat="45.85228" lon="3.08928">
        <ele>482.7</ele>
        <time>2019-12-25T12:40:29.000Z</time>
      </trkpt>
      <trkpt lat="45.85234" lon="3.08933">
        <ele>483.3</ele>
        <time>2019-12-25T12:40:31.000Z</time>
      </trkpt>
      <trkpt lat="45.85239" lon="3.08935">
        <ele>483.9</ele>
        <time>2019-12-25T12:40:32.000Z</time>
      </trkpt>
      <trkpt lat="45.85246" lon="3.0894">
        <ele>484.6</ele>
        <time>2019-12-25T12:40:34.000Z</time>
      </trkpt>
      <trkpt lat="45.85254" lon="3.08945">
        <ele>485.4</ele>
        <time>2019-12-25T12:40:35.000Z</time>
      </trkpt>
      <trkpt lat="45.85263" lon="3.08952">
        <ele>486.1</ele>
        <time>2019-12-25T12:40:37.000Z</time>
      </trkpt>
      <trkpt lat="45.85274" lon="3.08962">
        <ele>486.1</ele>
        <time>2019-12-25T12:40:40.000Z</time>
      </trkpt>
      <trkpt lat="45.85281" lon="3.08974">
        <ele>485.8</ele>
        <time>2019-12-25T12:40:42.000Z</time>
      </trkpt>
      <trkpt lat="45.85286" lon="3.08987">
        <ele>485.5</ele>
        <time>2019-12-25T12:40:44.000Z</time>
      </trkpt>
      <trkpt lat="45.8529" lon="3.09">
        <ele>485.1</ele>
        <time>2019-12-25T12:40:46.000Z</time>
      </trkpt>
      <trkpt lat="45.85296" lon="3.09014">
        <ele>484.7</ele>
        <time>2019-12-25T12:40:48.000Z</time>
      </trkpt>
      <trkpt lat="45.85302" lon="3.09027">
        <ele>484.3</ele>
        <time>2019-12-25T12:40:50.000Z</time>
      </trkpt>
      <trkpt lat="45.85307" lon="3.09031">
        <ele>484</ele>
        <time>2019-12-25T12:40:51.000Z</time>
      </trkpt>
      <trkpt lat="45.85317" lon="3.09032">
        <ele>485</ele>
        <time>2019-12-25T12:40:53.000Z</time>
      </trkpt>
      <trkpt lat="45.85326" lon="3.09027">
        <ele>486.4</ele>
        <time>2019-12-25T12:40:55.000Z</time>
      </trkpt>
      <trkpt lat="45.85332" lon="3.09023">
        <ele>487.3</ele>
        <time>2019-12-25T12:40:57.000Z</time>
      </trkpt>
      <trkpt lat="45.85339" lon="3.09022">
        <ele>488.3</ele>
        <time>2019-12-25T12:40:59.000Z</time>
      </trkpt>
      <trkpt lat="45.85347" lon="3.09024">
        <ele>489.3</ele>
        <time>2019-12-25T12:41:03.000Z</time>
      </trkpt>
      <trkpt lat="45.85352" lon="3.09024">
        <ele>490</ele>
        <time>2019-12-25T12:41:04.000Z</time>
      </trkpt>
      <trkpt lat="45.85356" lon="3.09025">
        <ele>490.6</ele>
        <time>2019-12-25T12:41:05.000Z</time>
      </trkpt>
      <trkpt lat="45.85363" lon="3.09026">
        <ele>491.3</ele>
        <time>2019-12-25T12:41:07.000Z</time>
      </trkpt>
      <trkpt lat="45.85367" lon="3.09027">
        <ele>491.5</ele>
        <time>2019-12-25T12:41:08.000Z</time>
      </trkpt>
      <trkpt lat="45.8537" lon="3.09029">
        <ele>491.6</ele>
        <time>2019-12-25T12:41:09.000Z</time>
      </trkpt>
      <trkpt lat="45.85374" lon="3.0903">
        <ele>491.7</ele>
        <time>2019-12-25T12:41:10.000Z</time>
      </trkpt>
      <trkpt lat="45.85378" lon="3.09032">
        <ele>491.8</ele>
        <time>2019-12-25T12:41:11.000Z</time>
      </trkpt>
      <trkpt lat="45.85383" lon="3.09034">
        <ele>492</ele>
        <time>2019-12-25T12:41:13.000Z</time>
      </trkpt>
      <trkpt lat="45.85387" lon="3.09035">
        <ele>492.2</ele>
        <time>2019-12-25T12:41:14.000Z</time>
      </trkpt>
      <trkpt lat="45.85391" lon="3.09036">
        <ele>492.3</ele>
        <time>2019-12-25T12:41:15.000Z</time>
      </trkpt>
      <trkpt lat="45.85395" lon="3.09038">
        <ele>492.4</ele>
        <time>2019-12-25T12:41:16.000Z</time>
      </trkpt>
      <trkpt lat="45.85399" lon="3.09037">
        <ele>492.6</ele>
        <time>2019-12-25T12:41:18.000Z</time>
      </trkpt>
      <trkpt lat="45.85399" lon="3.09033">
        <ele>492.7</ele>
        <time>2019-12-25T12:41:19.000Z</time>
      </trkpt>
      <trkpt lat="45.85397" lon="3.09027">
        <ele>492.8</ele>
        <time>2019-12-25T12:41:20.000Z</time>
      </trkpt>
      <trkpt lat="45.85393" lon="3.0902">
        <ele>493.8</ele>
        <time>2019-12-25T12:41:21.000Z</time>
      </trkpt>
      <trkpt lat="45.85389" lon="3.09014">
        <ele>494</ele>
        <time>2019-12-25T12:41:23.000Z</time>
      </trkpt>
      <trkpt lat="45.85387" lon="3.09009">
        <ele>494.2</ele>
        <time>2019-12-25T12:41:24.000Z</time>
      </trkpt>
      <trkpt lat="45.85384" lon="3.09001">
        <ele>494.4</ele>
        <time>2019-12-25T12:41:25.000Z</time>
      </trkpt>
      <trkpt lat="45.85382" lon="3.08991">
        <ele>494.9</ele>
        <time>2019-12-25T12:41:27.000Z</time>
      </trkpt>
      <trkpt lat="45.85381" lon="3.08984">
        <ele>495.4</ele>
        <time>2019-12-25T12:41:28.000Z</time>
      </trkpt>
      <trkpt lat="45.85381" lon="3.08978">
        <ele>495.9</ele>
        <time>2019-12-25T12:41:29.000Z</time>
      </trkpt>
      <trkpt lat="45.85381" lon="3.08969">
        <ele>496.5</ele>
        <time>2019-12-25T12:41:31.000Z</time>
      </trkpt>
      <trkpt lat="45.85381" lon="3.08962">
        <ele>496.9</ele>
        <time>2019-12-25T12:41:32.000Z</time>
      </trkpt>
      <trkpt lat="45.85381" lon="3.08956">
        <ele>497.4</ele>
        <time>2019-12-25T12:41:33.000Z</time>
      </trkpt>
      <trkpt lat="45.85381" lon="3.08947">
        <ele>498</ele>
        <time>2019-12-25T12:41:35.000Z</time>
      </trkpt>
      <trkpt lat="45.85381" lon="3.08942">
        <ele>498.4</ele>
        <time>2019-12-25T12:41:36.000Z</time>
      </trkpt>
      <trkpt lat="45.8538" lon="3.08936">
        <ele>498.5</ele>
        <time>2019-12-25T12:41:37.000Z</time>
      </trkpt>
      <trkpt lat="45.8538" lon="3.08928">
        <ele>498.6</ele>
        <time>2019-12-25T12:41:39.000Z</time>
      </trkpt>
      <trkpt lat="45.85379" lon="3.08923">
        <ele>498.7</ele>
        <time>2019-12-25T12:41:40.000Z</time>
      </trkpt>
      <trkpt lat="45.85379" lon="3.08916">
        <ele>498.7</ele>
        <time>2019-12-25T12:41:41.000Z</time>
      </trkpt>
      <trkpt lat="45.85379" lon="3.08911">
        <ele>498.8</ele>
        <time>2019-12-25T12:41:42.000Z</time>
      </trkpt>
      <trkpt lat="45.85379" lon="3.08904">
        <ele>498.9</ele>
        <time>2019-12-25T12:41:43.000Z</time>
      </trkpt>
      <trkpt lat="45.8538" lon="3.08898">
        <ele>499</ele>
        <time>2019-12-25T12:41:45.000Z</time>
      </trkpt>
      <trkpt lat="45.85381" lon="3.08891">
        <ele>499</ele>
        <time>2019-12-25T12:41:46.000Z</time>
      </trkpt>
      <trkpt lat="45.85379" lon="3.08886">
        <ele>499.1</ele>
        <time>2019-12-25T12:41:48.000Z</time>
      </trkpt>
      <trkpt lat="45.85375" lon="3.08884">
        <ele>499.2</ele>
        <time>2019-12-25T12:41:49.000Z</time>
      </trkpt>
      <trkpt lat="45.85371" lon="3.08882">
        <ele>499.3</ele>
        <time>2019-12-25T12:41:51.000Z</time>
      </trkpt>
      <trkpt lat="45.85362" lon="3.0888">
        <ele>499.4</ele>
        <time>2019-12-25T12:41:53.000Z</time>
      </trkpt>
      <trkpt lat="45.85352" lon="3.08877">
        <ele>499.5</ele>
        <time>2019-12-25T12:41:54.000Z</time>
      </trkpt>
      <trkpt lat="45.8534" lon="3.08871">
        <ele>499.5</ele>
        <time>2019-12-25T12:41:56.000Z</time>
      </trkpt>
      <trkpt lat="45.85334" lon="3.08867">
        <ele>499.4</ele>
        <time>2019-12-25T12:41:57.000Z</time>
      </trkpt>
      <trkpt lat="45.85324" lon="3.08858">
        <ele>498.8</ele>
        <time>2019-12-25T12:41:59.000Z</time>
      </trkpt>
      <trkpt lat="45.85318" lon="3.08853">
        <ele>498.7</ele>
        <time>2019-12-25T12:42:00.000Z</time>
      </trkpt>
      <trkpt lat="45.85306" lon="3.08845">
        <ele>498.3</ele>
        <time>2019-12-25T12:42:02.000Z</time>
      </trkpt>
      <trkpt lat="45.85301" lon="3.0884">
        <ele>498.1</ele>
        <time>2019-12-25T12:42:03.000Z</time>
      </trkpt>
      <trkpt lat="45.85293" lon="3.08826">
        <ele>497.9</ele>
        <time>2019-12-25T12:42:05.000Z</time>
      </trkpt>
      <trkpt lat="45.8529" lon="3.08817">
        <ele>497.9</ele>
        <time>2019-12-25T12:42:06.000Z</time>
      </trkpt>
      <trkpt lat="45.85286" lon="3.08799">
        <ele>497</ele>
        <time>2019-12-25T12:42:08.000Z</time>
      </trkpt>
      <trkpt lat="45.85285" lon="3.08788">
        <ele>497</ele>
        <time>2019-12-25T12:42:09.000Z</time>
      </trkpt>
      <trkpt lat="45.85285" lon="3.08762">
        <ele>496.9</ele>
        <time>2019-12-25T12:42:11.000Z</time>
      </trkpt>
      <trkpt lat="45.85284" lon="3.08749">
        <ele>496.9</ele>
        <time>2019-12-25T12:42:12.000Z</time>
      </trkpt>
      <trkpt lat="45.85281" lon="3.08725">
        <ele>497</ele>
        <time>2019-12-25T12:42:14.000Z</time>
      </trkpt>
      <trkpt lat="45.85277" lon="3.08715">
        <ele>497.1</ele>
        <time>2019-12-25T12:42:15.000Z</time>
      </trkpt>
      <trkpt lat="45.85272" lon="3.08704">
        <ele>496.6</ele>
        <time>2019-12-25T12:42:16.000Z</time>
      </trkpt>
      <trkpt lat="45.85261" lon="3.08684">
        <ele>496.3</ele>
        <time>2019-12-25T12:42:18.000Z</time>
      </trkpt>
      <trkpt lat="45.85256" lon="3.08673">
        <ele>496.3</ele>
        <time>2019-12-25T12:42:19.000Z</time>
      </trkpt>
      <trkpt lat="45.85248" lon="3.0865">
        <ele>496.4</ele>
        <time>2019-12-25T12:42:21.000Z</time>
      </trkpt>
      <trkpt lat="45.85244" lon="3.08638">
        <ele>496.4</ele>
        <time>2019-12-25T12:42:22.000Z</time>
      </trkpt>
      <trkpt lat="45.85239" lon="3.08627">
        <ele>496.4</ele>
        <time>2019-12-25T12:42:23.000Z</time>
      </trkpt>
      <trkpt lat="45.8523" lon="3.08605">
        <ele>496</ele>
        <time>2019-12-25T12:42:25.000Z</time>
      </trkpt>
      <trkpt lat="45.85225" lon="3.08595">
        <ele>495.7</ele>
        <time>2019-12-25T12:42:26.000Z</time>
      </trkpt>
      <trkpt lat="45.8522" lon="3.08585">
        <ele>495.4</ele>
        <time>2019-12-25T12:42:27.000Z</time>
      </trkpt>
      <trkpt lat="45.85209" lon="3.08567">
        <ele>495.1</ele>
        <time>2019-12-25T12:42:29.000Z</time>
      </trkpt>
      <trkpt lat="45.85198" lon="3.08549">
        <ele>494.9</ele>
        <time>2019-12-25T12:42:31.000Z</time>
      </trkpt>
      <trkpt lat="45.85188" lon="3.08533">
        <ele>494.9</ele>
        <time>2019-12-25T12:42:33.000Z</time>
      </trkpt>
      <trkpt lat="45.85182" lon="3.08529">
        <ele>495</ele>
        <time>2019-12-25T12:42:34.000Z</time>
      </trkpt>
      <trkpt lat="45.85176" lon="3.08529">
        <ele>495</ele>
        <time>2019-12-25T12:42:35.000Z</time>
      </trkpt>
      <trkpt lat="45.85165" lon="3.08533">
        <ele>494.7</ele>
        <time>2019-12-25T12:42:37.000Z</time>
      </trkpt>
      <trkpt lat="45.85155" lon="3.08537">
        <ele>494.4</ele>
        <time>2019-12-25T12:42:39.000Z</time>
      </trkpt>
      <trkpt lat="45.85149" lon="3.08539">
        <ele>494.2</ele>
        <time>2019-12-25T12:42:40.000Z</time>
      </trkpt>
      <trkpt lat="45.85138" lon="3.08543">
        <ele>493.9</ele>
        <time>2019-12-25T12:42:42.000Z</time>
      </trkpt>
      <trkpt lat="45.85133" lon="3.08544">
        <ele>493.9</ele>
        <time>2019-12-25T12:42:43.000Z</time>
      </trkpt>
      <trkpt lat="45.85121" lon="3.08547">
        <ele>494</ele>
        <time>2019-12-25T12:42:45.000Z</time>
      </trkpt>
      <trkpt lat="45.85115" lon="3.08546">
        <ele>494</ele>
        <time>2019-12-25T12:42:46.000Z</time>
      </trkpt>
      <trkpt lat="45.85103" lon="3.08541">
        <ele>494.6</ele>
        <time>2019-12-25T12:42:48.000Z</time>
      </trkpt>
      <trkpt lat="45.85097" lon="3.08538">
        <ele>495</ele>
        <time>2019-12-25T12:42:49.000Z</time>
      </trkpt>
      <trkpt lat="45.8509" lon="3.08536">
        <ele>495.2</ele>
        <time>2019-12-25T12:42:50.000Z</time>
      </trkpt>
      <trkpt lat="45.85077" lon="3.08536">
        <ele>495.6</ele>
        <time>2019-12-25T12:42:52.000Z</time>
      </trkpt>
      <trkpt lat="45.85071" lon="3.08536">
        <ele>495.8</ele>
        <time>2019-12-25T12:42:53.000Z</time>
      </trkpt>
      <trkpt lat="45.85058" lon="3.08536">
        <ele>496.2</ele>
        <time>2019-12-25T12:42:55.000Z</time>
      </trkpt>
      <trkpt lat="45.85044" lon="3.08535">
        <ele>496.6</ele>
        <time>2019-12-25T12:42:57.000Z</time>
      </trkpt>
      <trkpt lat="45.8503" lon="3.08534">
        <ele>497</ele>
        <time>2019-12-25T12:42:59.000Z</time>
      </trkpt>
      <trkpt lat="45.85017" lon="3.0853">
        <ele>497.4</ele>
        <time>2019-12-25T12:43:01.000Z</time>
      </trkpt>
      <trkpt lat="45.8501" lon="3.08514">
        <ele>498</ele>
        <time>2019-12-25T12:43:03.000Z</time>
      </trkpt>
      <trkpt lat="45.85009" lon="3.08504">
        <ele>498</ele>
        <time>2019-12-25T12:43:04.000Z</time>
      </trkpt>
      <trkpt lat="45.85005" lon="3.08485">
        <ele>497.9</ele>
        <time>2019-12-25T12:43:06.000Z</time>
      </trkpt>
      <trkpt lat="45.85002" lon="3.08476">
        <ele>497.9</ele>
        <time>2019-12-25T12:43:07.000Z</time>
      </trkpt>
      <trkpt lat="45.85" lon="3.08467">
        <ele>497.9</ele>
        <time>2019-12-25T12:43:08.000Z</time>
      </trkpt>
      <trkpt lat="45.84994" lon="3.0845">
        <ele>497.8</ele>
        <time>2019-12-25T12:43:10.000Z</time>
      </trkpt>
      <trkpt lat="45.84991" lon="3.08431">
        <ele>497.7</ele>
        <time>2019-12-25T12:43:12.000Z</time>
      </trkpt>
      <trkpt lat="45.8499" lon="3.08412">
        <ele>497.8</ele>
        <time>2019-12-25T12:43:14.000Z</time>
      </trkpt>
      <trkpt lat="45.8499" lon="3.08402">
        <ele>497.9</ele>
        <time>2019-12-25T12:43:15.000Z</time>
      </trkpt>
      <trkpt lat="45.8499" lon="3.08393">
        <ele>498.1</ele>
        <time>2019-12-25T12:43:16.000Z</time>
      </trkpt>
      <trkpt lat="45.8499" lon="3.08374">
        <ele>498.4</ele>
        <time>2019-12-25T12:43:18.000Z</time>
      </trkpt>
      <trkpt lat="45.84989" lon="3.08354">
        <ele>498.9</ele>
        <time>2019-12-25T12:43:20.000Z</time>
      </trkpt>
      <trkpt lat="45.84989" lon="3.08336">
        <ele>499.3</ele>
        <time>2019-12-25T12:43:22.000Z</time>
      </trkpt>
      <trkpt lat="45.84989" lon="3.08328">
        <ele>499.6</ele>
        <time>2019-12-25T12:43:23.000Z</time>
      </trkpt>
      <trkpt lat="45.84989" lon="3.08319">
        <ele>499.8</ele>
        <time>2019-12-25T12:43:24.000Z</time>
      </trkpt>
      <trkpt lat="45.84987" lon="3.08302">
        <ele>500.5</ele>
        <time>2019-12-25T12:43:26.000Z</time>
      </trkpt>
      <trkpt lat="45.84987" lon="3.08294">
        <ele>500.8</ele>
        <time>2019-12-25T12:43:27.000Z</time>
      </trkpt>
      <trkpt lat="45.84987" lon="3.08287">
        <ele>501.2</ele>
        <time>2019-12-25T12:43:28.000Z</time>
      </trkpt>
      <trkpt lat="45.84987" lon="3.08272">
        <ele>501.9</ele>
        <time>2019-12-25T12:43:30.000Z</time>
      </trkpt>
      <trkpt lat="45.84987" lon="3.08264">
        <ele>502.2</ele>
        <time>2019-12-25T12:43:31.000Z</time>
      </trkpt>
      <trkpt lat="45.84986" lon="3.08257">
        <ele>502.5</ele>
        <time>2019-12-25T12:43:32.000Z</time>
      </trkpt>
      <trkpt lat="45.84986" lon="3.08241">
        <ele>503.3</ele>
        <time>2019-12-25T12:43:34.000Z</time>
      </trkpt>
      <trkpt lat="45.84985" lon="3.08226">
        <ele>504</ele>
        <time>2019-12-25T12:43:36.000Z</time>
      </trkpt>
      <trkpt lat="45.84985" lon="3.0821">
        <ele>505.1</ele>
        <time>2019-12-25T12:43:38.000Z</time>
      </trkpt>
      <trkpt lat="45.84984" lon="3.08196">
        <ele>506.2</ele>
        <time>2019-12-25T12:43:40.000Z</time>
      </trkpt>
      <trkpt lat="45.84983" lon="3.08189">
        <ele>506.6</ele>
        <time>2019-12-25T12:43:41.000Z</time>
      </trkpt>
      <trkpt lat="45.84981" lon="3.08176">
        <ele>507.3</ele>
        <time>2019-12-25T12:43:43.000Z</time>
      </trkpt>
      <trkpt lat="45.84978" lon="3.08163">
        <ele>508.1</ele>
        <time>2019-12-25T12:43:45.000Z</time>
      </trkpt>
      <trkpt lat="45.84977" lon="3.08157">
        <ele>508.6</ele>
        <time>2019-12-25T12:43:46.000Z</time>
      </trkpt>
      <trkpt lat="45.84974" lon="3.08146">
        <ele>509.8</ele>
        <time>2019-12-25T12:43:48.000Z</time>
      </trkpt>
      <trkpt lat="45.84971" lon="3.08135">
        <ele>510.6</ele>
        <time>2019-12-25T12:43:50.000Z</time>
      </trkpt>
      <trkpt lat="45.8497" lon="3.0813">
        <ele>510.9</ele>
        <time>2019-12-25T12:43:51.000Z</time>
      </trkpt>
      <trkpt lat="45.8497" lon="3.08122">
        <ele>511.4</ele>
        <time>2019-12-25T12:43:54.000Z</time>
      </trkpt>
      <trkpt lat="45.84969" lon="3.08119">
        <ele>511.7</ele>
        <time>2019-12-25T12:43:55.000Z</time>
      </trkpt>
      <trkpt lat="45.84967" lon="3.08112">
        <ele>512.1</ele>
        <time>2019-12-25T12:43:56.000Z</time>
      </trkpt>
      <trkpt lat="45.84964" lon="3.08104">
        <ele>512.6</ele>
        <time>2019-12-25T12:43:57.000Z</time>
      </trkpt>
      <trkpt lat="45.84961" lon="3.08096">
        <ele>513.1</ele>
        <time>2019-12-25T12:43:59.000Z</time>
      </trkpt>
      <trkpt lat="45.84959" lon="3.08088">
        <ele>513.6</ele>
        <time>2019-12-25T12:44:00.000Z</time>
      </trkpt>
      <trkpt lat="45.84958" lon="3.08082">
        <ele>514</ele>
        <time>2019-12-25T12:44:01.000Z</time>
      </trkpt>
      <trkpt lat="45.84957" lon="3.08075">
        <ele>514.3</ele>
        <time>2019-12-25T12:44:02.000Z</time>
      </trkpt>
      <trkpt lat="45.84956" lon="3.08069">
        <ele>514.7</ele>
        <time>2019-12-25T12:44:04.000Z</time>
      </trkpt>
      <trkpt lat="45.84955" lon="3.08061">
        <ele>515.1</ele>
        <time>2019-12-25T12:44:05.000Z</time>
      </trkpt>
      <trkpt lat="45.84954" lon="3.08056">
        <ele>515.4</ele>
        <time>2019-12-25T12:44:06.000Z</time>
      </trkpt>
      <trkpt lat="45.84952" lon="3.08048">
        <ele>515.8</ele>
        <time>2019-12-25T12:44:08.000Z</time>
      </trkpt>
      <trkpt lat="45.8495" lon="3.08037">
        <ele>516.2</ele>
        <time>2019-12-25T12:44:10.000Z</time>
      </trkpt>
      <trkpt lat="45.84949" lon="3.08031">
        <ele>516.4</ele>
        <time>2019-12-25T12:44:11.000Z</time>
      </trkpt>
      <trkpt lat="45.84948" lon="3.08022">
        <ele>516.7</ele>
        <time>2019-12-25T12:44:13.000Z</time>
      </trkpt>
      <trkpt lat="45.84947" lon="3.08015">
        <ele>516.9</ele>
        <time>2019-12-25T12:44:15.000Z</time>
      </trkpt>
      <trkpt lat="45.84946" lon="3.08007">
        <ele>517.2</ele>
        <time>2019-12-25T12:44:16.000Z</time>
      </trkpt>
      <trkpt lat="45.84945" lon="3.08001">
        <ele>517.4</ele>
        <time>2019-12-25T12:44:17.000Z</time>
      </trkpt>
      <trkpt lat="45.84944" lon="3.07996">
        <ele>517.6</ele>
        <time>2019-12-25T12:44:18.000Z</time>
      </trkpt>
      <trkpt lat="45.84943" lon="3.0799">
        <ele>517.6</ele>
        <time>2019-12-25T12:44:20.000Z</time>
      </trkpt>
      <trkpt lat="45.84942" lon="3.07985">
        <ele>517.7</ele>
        <time>2019-12-25T12:44:21.000Z</time>
      </trkpt>
      <trkpt lat="45.84941" lon="3.07978">
        <ele>517.8</ele>
        <time>2019-12-25T12:44:22.000Z</time>
      </trkpt>
      <trkpt lat="45.84939" lon="3.07969">
        <ele>518</ele>
        <time>2019-12-25T12:44:24.000Z</time>
      </trkpt>
      <trkpt lat="45.84937" lon="3.07964">
        <ele>518.1</ele>
        <time>2019-12-25T12:44:25.000Z</time>
      </trkpt>
      <trkpt lat="45.84936" lon="3.07959">
        <ele>518.1</ele>
        <time>2019-12-25T12:44:26.000Z</time>
      </trkpt>
      <trkpt lat="45.84933" lon="3.0795">
        <ele>518.3</ele>
        <time>2019-12-25T12:44:28.000Z</time>
      </trkpt>
      <trkpt lat="45.84931" lon="3.07945">
        <ele>518.4</ele>
        <time>2019-12-25T12:44:29.000Z</time>
      </trkpt>
      <trkpt lat="45.84929" lon="3.07936">
        <ele>518.6</ele>
        <time>2019-12-25T12:44:31.000Z</time>
      </trkpt>
      <trkpt lat="45.84927" lon="3.0793">
        <ele>518.7</ele>
        <time>2019-12-25T12:44:32.000Z</time>
      </trkpt>
      <trkpt lat="45.84925" lon="3.07924">
        <ele>518.9</ele>
        <time>2019-12-25T12:44:33.000Z</time>
      </trkpt>
      <trkpt lat="45.84922" lon="3.07914">
        <ele>519</ele>
        <time>2019-12-25T12:44:34.000Z</time>
      </trkpt>
      <trkpt lat="45.8492" lon="3.07907">
        <ele>519.1</ele>
        <time>2019-12-25T12:44:36.000Z</time>
      </trkpt>
      <trkpt lat="45.84918" lon="3.07902">
        <ele>519.2</ele>
        <time>2019-12-25T12:44:37.000Z</time>
      </trkpt>
      <trkpt lat="45.84914" lon="3.07891">
        <ele>519.4</ele>
        <time>2019-12-25T12:44:38.000Z</time>
      </trkpt>
      <trkpt lat="45.84912" lon="3.07885">
        <ele>519.5</ele>
        <time>2019-12-25T12:44:39.000Z</time>
      </trkpt>
      <trkpt lat="45.84912" lon="3.07878">
        <ele>519.7</ele>
        <time>2019-12-25T12:44:41.000Z</time>
      </trkpt>
      <trkpt lat="45.84907" lon="3.0786">
        <ele>520.1</ele>
        <time>2019-12-25T12:44:43.000Z</time>
      </trkpt>
      <trkpt lat="45.84905" lon="3.07853">
        <ele>520.2</ele>
        <time>2019-12-25T12:44:44.000Z</time>
      </trkpt>
      <trkpt lat="45.84903" lon="3.07846">
        <ele>520.2</ele>
        <time>2019-12-25T12:44:45.000Z</time>
      </trkpt>
      <trkpt lat="45.84901" lon="3.07832">
        <ele>520.4</ele>
        <time>2019-12-25T12:44:47.000Z</time>
      </trkpt>
      <trkpt lat="45.84898" lon="3.07815">
        <ele>520.5</ele>
        <time>2019-12-25T12:44:49.000Z</time>
      </trkpt>
      <trkpt lat="45.84896" lon="3.07798">
        <ele>520.6</ele>
        <time>2019-12-25T12:44:51.000Z</time>
      </trkpt>
      <trkpt lat="45.84896" lon="3.0779">
        <ele>520.7</ele>
        <time>2019-12-25T12:44:52.000Z</time>
      </trkpt>
      <trkpt lat="45.84896" lon="3.0778">
        <ele>520.7</ele>
        <time>2019-12-25T12:44:53.000Z</time>
      </trkpt>
      <trkpt lat="45.84895" lon="3.07761">
        <ele>520.7</ele>
        <time>2019-12-25T12:44:55.000Z</time>
      </trkpt>
      <trkpt lat="45.84895" lon="3.07742">
        <ele>520.6</ele>
        <time>2019-12-25T12:44:57.000Z</time>
      </trkpt>
      <trkpt lat="45.84894" lon="3.07722">
        <ele>520.4</ele>
        <time>2019-12-25T12:44:59.000Z</time>
      </trkpt>
      <trkpt lat="45.84893" lon="3.07701">
        <ele>520.2</ele>
        <time>2019-12-25T12:45:01.000Z</time>
      </trkpt>
      <trkpt lat="45.84892" lon="3.07679">
        <ele>519.9</ele>
        <time>2019-12-25T12:45:03.000Z</time>
      </trkpt>
      <trkpt lat="45.84889" lon="3.07657">
        <ele>519.7</ele>
        <time>2019-12-25T12:45:05.000Z</time>
      </trkpt>
      <trkpt lat="45.84887" lon="3.07645">
        <ele>519.7</ele>
        <time>2019-12-25T12:45:06.000Z</time>
      </trkpt>
      <trkpt lat="45.84885" lon="3.07634">
        <ele>519.7</ele>
        <time>2019-12-25T12:45:07.000Z</time>
      </trkpt>
      <trkpt lat="45.84882" lon="3.07611">
        <ele>519.6</ele>
        <time>2019-12-25T12:45:09.000Z</time>
      </trkpt>
      <trkpt lat="45.84879" lon="3.07587">
        <ele>519.3</ele>
        <time>2019-12-25T12:45:11.000Z</time>
      </trkpt>
      <trkpt lat="45.84877" lon="3.07576">
        <ele>519.2</ele>
        <time>2019-12-25T12:45:12.000Z</time>
      </trkpt>
      <trkpt lat="45.84874" lon="3.07553">
        <ele>519.2</ele>
        <time>2019-12-25T12:45:14.000Z</time>
      </trkpt>
      <trkpt lat="45.8487" lon="3.07528">
        <ele>519.1</ele>
        <time>2019-12-25T12:45:16.000Z</time>
      </trkpt>
      <trkpt lat="45.84867" lon="3.07516">
        <ele>518.9</ele>
        <time>2019-12-25T12:45:17.000Z</time>
      </trkpt>
      <trkpt lat="45.84863" lon="3.07491">
        <ele>518.4</ele>
        <time>2019-12-25T12:45:19.000Z</time>
      </trkpt>
      <trkpt lat="45.8486" lon="3.07479">
        <ele>518.1</ele>
        <time>2019-12-25T12:45:20.000Z</time>
      </trkpt>
      <trkpt lat="45.84858" lon="3.07467">
        <ele>517.9</ele>
        <time>2019-12-25T12:45:21.000Z</time>
      </trkpt>
      <trkpt lat="45.84853" lon="3.07443">
        <ele>517.7</ele>
        <time>2019-12-25T12:45:23.000Z</time>
      </trkpt>
      <trkpt lat="45.84851" lon="3.0743">
        <ele>517.6</ele>
        <time>2019-12-25T12:45:24.000Z</time>
      </trkpt>
      <trkpt lat="45.84847" lon="3.07405">
        <ele>517.6</ele>
        <time>2019-12-25T12:45:26.000Z</time>
      </trkpt>
      <trkpt lat="45.84843" lon="3.07379">
        <ele>517.5</ele>
        <time>2019-12-25T12:45:28.000Z</time>
      </trkpt>
      <trkpt lat="45.84841" lon="3.07365">
        <ele>517.4</ele>
        <time>2019-12-25T12:45:29.000Z</time>
      </trkpt>
      <trkpt lat="45.84837" lon="3.07338">
        <ele>516.9</ele>
        <time>2019-12-25T12:45:31.000Z</time>
      </trkpt>
      <trkpt lat="45.84835" lon="3.07325">
        <ele>516.7</ele>
        <time>2019-12-25T12:45:32.000Z</time>
      </trkpt>
      <trkpt lat="45.84832" lon="3.07298">
        <ele>516.6</ele>
        <time>2019-12-25T12:45:34.000Z</time>
      </trkpt>
      <trkpt lat="45.84831" lon="3.07284">
        <ele>516.6</ele>
        <time>2019-12-25T12:45:35.000Z</time>
      </trkpt>
      <trkpt lat="45.84829" lon="3.07257">
        <ele>516.5</ele>
        <time>2019-12-25T12:45:37.000Z</time>
      </trkpt>
      <trkpt lat="45.84828" lon="3.07244">
        <ele>516.5</ele>
        <time>2019-12-25T12:45:38.000Z</time>
      </trkpt>
      <trkpt lat="45.84827" lon="3.07216">
        <ele>516.3</ele>
        <time>2019-12-25T12:45:40.000Z</time>
      </trkpt>
      <trkpt lat="45.84827" lon="3.07202">
        <ele>516.1</ele>
        <time>2019-12-25T12:45:41.000Z</time>
      </trkpt>
      <trkpt lat="45.84826" lon="3.07176">
        <ele>515.7</ele>
        <time>2019-12-25T12:45:43.000Z</time>
      </trkpt>
      <trkpt lat="45.84826" lon="3.07162">
        <ele>515.5</ele>
        <time>2019-12-25T12:45:44.000Z</time>
      </trkpt>
      <trkpt lat="45.84825" lon="3.07135">
        <ele>515.5</ele>
        <time>2019-12-25T12:45:46.000Z</time>
      </trkpt>
      <trkpt lat="45.84823" lon="3.07107">
        <ele>515.5</ele>
        <time>2019-12-25T12:45:48.000Z</time>
      </trkpt>
      <trkpt lat="45.84822" lon="3.0708">
        <ele>515.4</ele>
        <time>2019-12-25T12:45:50.000Z</time>
      </trkpt>
      <trkpt lat="45.84822" lon="3.07066">
        <ele>515.4</ele>
        <time>2019-12-25T12:45:51.000Z</time>
      </trkpt>
      <trkpt lat="45.8482" lon="3.07038">
        <ele>515.4</ele>
        <time>2019-12-25T12:45:53.000Z</time>
      </trkpt>
      <trkpt lat="45.84819" lon="3.07009">
        <ele>515.2</ele>
        <time>2019-12-25T12:45:55.000Z</time>
      </trkpt>
      <trkpt lat="45.84818" lon="3.0698">
        <ele>514.7</ele>
        <time>2019-12-25T12:45:57.000Z</time>
      </trkpt>
      <trkpt lat="45.84817" lon="3.06965">
        <ele>514.5</ele>
        <time>2019-12-25T12:45:58.000Z</time>
      </trkpt>
      <trkpt lat="45.84816" lon="3.06934">
        <ele>514.2</ele>
        <time>2019-12-25T12:46:00.000Z</time>
      </trkpt>
      <trkpt lat="45.84814" lon="3.06903">
        <ele>513.6</ele>
        <time>2019-12-25T12:46:02.000Z</time>
      </trkpt>
      <trkpt lat="45.8481" lon="3.06872">
        <ele>512.9</ele>
        <time>2019-12-25T12:46:04.000Z</time>
      </trkpt>
      <trkpt lat="45.84805" lon="3.0684">
        <ele>512.1</ele>
        <time>2019-12-25T12:46:06.000Z</time>
      </trkpt>
      <trkpt lat="45.84803" lon="3.06825">
        <ele>511.6</ele>
        <time>2019-12-25T12:46:07.000Z</time>
      </trkpt>
      <trkpt lat="45.848" lon="3.06809">
        <ele>511</ele>
        <time>2019-12-25T12:46:08.000Z</time>
      </trkpt>
      <trkpt lat="45.84794" lon="3.06777">
        <ele>510.4</ele>
        <time>2019-12-25T12:46:10.000Z</time>
      </trkpt>
      <trkpt lat="45.84791" lon="3.06761">
        <ele>510.3</ele>
        <time>2019-12-25T12:46:11.000Z</time>
      </trkpt>
      <trkpt lat="45.84786" lon="3.06728">
        <ele>510.3</ele>
        <time>2019-12-25T12:46:13.000Z</time>
      </trkpt>
      <trkpt lat="45.84784" lon="3.06712">
        <ele>509.9</ele>
        <time>2019-12-25T12:46:14.000Z</time>
      </trkpt>
      <trkpt lat="45.84782" lon="3.06696">
        <ele>509.6</ele>
        <time>2019-12-25T12:46:15.000Z</time>
      </trkpt>
      <trkpt lat="45.84774" lon="3.06665">
        <ele>509</ele>
        <time>2019-12-25T12:46:17.000Z</time>
      </trkpt>
      <trkpt lat="45.84768" lon="3.0665">
        <ele>508.8</ele>
        <time>2019-12-25T12:46:18.000Z</time>
      </trkpt>
      <trkpt lat="45.84756" lon="3.06622">
        <ele>508.3</ele>
        <time>2019-12-25T12:46:20.000Z</time>
      </trkpt>
      <trkpt lat="45.84744" lon="3.06594">
        <ele>507.8</ele>
        <time>2019-12-25T12:46:22.000Z</time>
      </trkpt>
      <trkpt lat="45.84738" lon="3.0658">
        <ele>507.6</ele>
        <time>2019-12-25T12:46:23.000Z</time>
      </trkpt>
      <trkpt lat="45.84732" lon="3.06567">
        <ele>507.4</ele>
        <time>2019-12-25T12:46:24.000Z</time>
      </trkpt>
      <trkpt lat="45.84719" lon="3.0654">
        <ele>507.1</ele>
        <time>2019-12-25T12:46:26.000Z</time>
      </trkpt>
      <trkpt lat="45.84707" lon="3.06514">
        <ele>506.7</ele>
        <time>2019-12-25T12:46:28.000Z</time>
      </trkpt>
      <trkpt lat="45.847" lon="3.06501">
        <ele>506.5</ele>
        <time>2019-12-25T12:46:29.000Z</time>
      </trkpt>
      <trkpt lat="45.84687" lon="3.06475">
        <ele>506</ele>
        <time>2019-12-25T12:46:31.000Z</time>
      </trkpt>
      <trkpt lat="45.84674" lon="3.06448">
        <ele>505.4</ele>
        <time>2019-12-25T12:46:33.000Z</time>
      </trkpt>
      <trkpt lat="45.84667" lon="3.06435">
        <ele>505.2</ele>
        <time>2019-12-25T12:46:34.000Z</time>
      </trkpt>
      <trkpt lat="45.84661" lon="3.0642">
        <ele>504.9</ele>
        <time>2019-12-25T12:46:35.000Z</time>
      </trkpt>
      <trkpt lat="45.84648" lon="3.06393">
        <ele>504.5</ele>
        <time>2019-12-25T12:46:37.000Z</time>
      </trkpt>
      <trkpt lat="45.84636" lon="3.06365">
        <ele>503.9</ele>
        <time>2019-12-25T12:46:39.000Z</time>
      </trkpt>
      <trkpt lat="45.84624" lon="3.06336">
        <ele>503.3</ele>
        <time>2019-12-25T12:46:41.000Z</time>
      </trkpt>
      <trkpt lat="45.84612" lon="3.06308">
        <ele>502.8</ele>
        <time>2019-12-25T12:46:43.000Z</time>
      </trkpt>
      <trkpt lat="45.846" lon="3.06281">
        <ele>502.3</ele>
        <time>2019-12-25T12:46:45.000Z</time>
      </trkpt>
      <trkpt lat="45.84588" lon="3.06256">
        <ele>502</ele>
        <time>2019-12-25T12:46:47.000Z</time>
      </trkpt>
      <trkpt lat="45.84577" lon="3.06232">
        <ele>501.9</ele>
        <time>2019-12-25T12:46:49.000Z</time>
      </trkpt>
      <trkpt lat="45.84566" lon="3.06208">
        <ele>501.8</ele>
        <time>2019-12-25T12:46:51.000Z</time>
      </trkpt>
      <trkpt lat="45.84559" lon="3.06197">
        <ele>501.6</ele>
        <time>2019-12-25T12:46:52.000Z</time>
      </trkpt>
      <trkpt lat="45.84547" lon="3.06177">
        <ele>501.3</ele>
        <time>2019-12-25T12:46:54.000Z</time>
      </trkpt>
      <trkpt lat="45.84538" lon="3.06157">
        <ele>501.1</ele>
        <time>2019-12-25T12:46:56.000Z</time>
      </trkpt>
      <trkpt lat="45.8454" lon="3.06137">
        <ele>501.3</ele>
        <time>2019-12-25T12:46:58.000Z</time>
      </trkpt>
      <trkpt lat="45.8455" lon="3.0612">
        <ele>501.5</ele>
        <time>2019-12-25T12:47:00.000Z</time>
      </trkpt>
      <trkpt lat="45.8456" lon="3.06101">
        <ele>501.6</ele>
        <time>2019-12-25T12:47:02.000Z</time>
      </trkpt>
      <trkpt lat="45.84566" lon="3.06077">
        <ele>502</ele>
        <time>2019-12-25T12:47:04.000Z</time>
      </trkpt>
      <trkpt lat="45.84572" lon="3.06054">
        <ele>502.3</ele>
        <time>2019-12-25T12:47:06.000Z</time>
      </trkpt>
      <trkpt lat="45.84574" lon="3.06042">
        <ele>502.4</ele>
        <time>2019-12-25T12:47:07.000Z</time>
      </trkpt>
      <trkpt lat="45.84578" lon="3.06018">
        <ele>502.8</ele>
        <time>2019-12-25T12:47:09.000Z</time>
      </trkpt>
      <trkpt lat="45.84581" lon="3.06006">
        <ele>503.1</ele>
        <time>2019-12-25T12:47:10.000Z</time>
      </trkpt>
      <trkpt lat="45.84589" lon="3.05984">
        <ele>503.3</ele>
        <time>2019-12-25T12:47:12.000Z</time>
      </trkpt>
      <trkpt lat="45.84594" lon="3.05974">
        <ele>503.3</ele>
        <time>2019-12-25T12:47:13.000Z</time>
      </trkpt>
      <trkpt lat="45.84605" lon="3.05955">
        <ele>503.2</ele>
        <time>2019-12-25T12:47:15.000Z</time>
      </trkpt>
      <trkpt lat="45.84615" lon="3.05936">
        <ele>503.2</ele>
        <time>2019-12-25T12:47:17.000Z</time>
      </trkpt>
      <trkpt lat="45.84625" lon="3.05917">
        <ele>503.4</ele>
        <time>2019-12-25T12:47:19.000Z</time>
      </trkpt>
      <trkpt lat="45.84634" lon="3.05899">
        <ele>503.7</ele>
        <time>2019-12-25T12:47:21.000Z</time>
      </trkpt>
      <trkpt lat="45.84643" lon="3.05881">
        <ele>504.1</ele>
        <time>2019-12-25T12:47:23.000Z</time>
      </trkpt>
      <trkpt lat="45.84647" lon="3.05873">
        <ele>504.2</ele>
        <time>2019-12-25T12:47:24.000Z</time>
      </trkpt>
      <trkpt lat="45.84656" lon="3.05856">
        <ele>504.4</ele>
        <time>2019-12-25T12:47:26.000Z</time>
      </trkpt>
      <trkpt lat="45.84659" lon="3.05847">
        <ele>504.6</ele>
        <time>2019-12-25T12:47:27.000Z</time>
      </trkpt>
      <trkpt lat="45.84667" lon="3.05829">
        <ele>505</ele>
        <time>2019-12-25T12:47:29.000Z</time>
      </trkpt>
      <trkpt lat="45.8467" lon="3.0582">
        <ele>505.3</ele>
        <time>2019-12-25T12:47:30.000Z</time>
      </trkpt>
      <trkpt lat="45.84675" lon="3.05804">
        <ele>505.9</ele>
        <time>2019-12-25T12:47:32.000Z</time>
      </trkpt>
      <trkpt lat="45.84681" lon="3.05787">
        <ele>506.5</ele>
        <time>2019-12-25T12:47:34.000Z</time>
      </trkpt>
      <trkpt lat="45.84683" lon="3.05779">
        <ele>506.8</ele>
        <time>2019-12-25T12:47:35.000Z</time>
      </trkpt>
      <trkpt lat="45.84686" lon="3.0577">
        <ele>507</ele>
        <time>2019-12-25T12:47:36.000Z</time>
      </trkpt>
      <trkpt lat="45.84688" lon="3.05761">
        <ele>507.3</ele>
        <time>2019-12-25T12:47:37.000Z</time>
      </trkpt>
      <trkpt lat="45.84691" lon="3.05743">
        <ele>507.8</ele>
        <time>2019-12-25T12:47:39.000Z</time>
      </trkpt>
      <trkpt lat="45.84692" lon="3.05734">
        <ele>508.2</ele>
        <time>2019-12-25T12:47:40.000Z</time>
      </trkpt>
      <trkpt lat="45.84694" lon="3.05715">
        <ele>508.9</ele>
        <time>2019-12-25T12:47:42.000Z</time>
      </trkpt>
      <trkpt lat="45.84694" lon="3.05706">
        <ele>509.3</ele>
        <time>2019-12-25T12:47:43.000Z</time>
      </trkpt>
      <trkpt lat="45.84691" lon="3.05689">
        <ele>510</ele>
        <time>2019-12-25T12:47:45.000Z</time>
      </trkpt>
      <trkpt lat="45.84686" lon="3.05674">
        <ele>510.8</ele>
        <time>2019-12-25T12:47:47.000Z</time>
      </trkpt>
      <trkpt lat="45.84681" lon="3.05659">
        <ele>511.5</ele>
        <time>2019-12-25T12:47:49.000Z</time>
      </trkpt>
      <trkpt lat="45.84677" lon="3.05644">
        <ele>511.9</ele>
        <time>2019-12-25T12:47:51.000Z</time>
      </trkpt>
      <trkpt lat="45.84673" lon="3.05628">
        <ele>512.1</ele>
        <time>2019-12-25T12:47:53.000Z</time>
      </trkpt>
      <trkpt lat="45.84668" lon="3.05611">
        <ele>512.5</ele>
        <time>2019-12-25T12:47:55.000Z</time>
      </trkpt>
      <trkpt lat="45.84663" lon="3.05592">
        <ele>512.8</ele>
        <time>2019-12-25T12:47:57.000Z</time>
      </trkpt>
      <trkpt lat="45.84658" lon="3.05574">
        <ele>512.9</ele>
        <time>2019-12-25T12:47:59.000Z</time>
      </trkpt>
      <trkpt lat="45.84653" lon="3.05555">
        <ele>512.9</ele>
        <time>2019-12-25T12:48:01.000Z</time>
      </trkpt>
      <trkpt lat="45.84648" lon="3.05536">
        <ele>513</ele>
        <time>2019-12-25T12:48:03.000Z</time>
      </trkpt>
      <trkpt lat="45.84643" lon="3.05518">
        <ele>513.1</ele>
        <time>2019-12-25T12:48:05.000Z</time>
      </trkpt>
      <trkpt lat="45.8464" lon="3.05508">
        <ele>513.2</ele>
        <time>2019-12-25T12:48:06.000Z</time>
      </trkpt>
      <trkpt lat="45.84638" lon="3.05499">
        <ele>513.2</ele>
        <time>2019-12-25T12:48:07.000Z</time>
      </trkpt>
      <trkpt lat="45.84633" lon="3.0548">
        <ele>513.3</ele>
        <time>2019-12-25T12:48:09.000Z</time>
      </trkpt>
      <trkpt lat="45.84631" lon="3.05471">
        <ele>513.4</ele>
        <time>2019-12-25T12:48:10.000Z</time>
      </trkpt>
      <trkpt lat="45.84625" lon="3.05453">
        <ele>513.4</ele>
        <time>2019-12-25T12:48:12.000Z</time>
      </trkpt>
      <trkpt lat="45.8462" lon="3.05434">
        <ele>513.4</ele>
        <time>2019-12-25T12:48:14.000Z</time>
      </trkpt>
      <trkpt lat="45.84615" lon="3.05416">
        <ele>513.5</ele>
        <time>2019-12-25T12:48:16.000Z</time>
      </trkpt>
      <trkpt lat="45.84613" lon="3.05408">
        <ele>513.7</ele>
        <time>2019-12-25T12:48:17.000Z</time>
      </trkpt>
      <trkpt lat="45.8461" lon="3.05391">
        <ele>513.9</ele>
        <time>2019-12-25T12:48:19.000Z</time>
      </trkpt>
      <trkpt lat="45.84608" lon="3.05374">
        <ele>514.2</ele>
        <time>2019-12-25T12:48:21.000Z</time>
      </trkpt>
      <trkpt lat="45.84607" lon="3.05366">
        <ele>514.3</ele>
        <time>2019-12-25T12:48:22.000Z</time>
      </trkpt>
      <trkpt lat="45.84606" lon="3.05351">
        <ele>514.5</ele>
        <time>2019-12-25T12:48:24.000Z</time>
      </trkpt>
      <trkpt lat="45.84609" lon="3.05337">
        <ele>514.6</ele>
        <time>2019-12-25T12:48:26.000Z</time>
      </trkpt>
      <trkpt lat="45.84613" lon="3.0533">
        <ele>514.7</ele>
        <time>2019-12-25T12:48:27.000Z</time>
      </trkpt>
      <trkpt lat="45.84619" lon="3.05325">
        <ele>514.6</ele>
        <time>2019-12-25T12:48:28.000Z</time>
      </trkpt>
      <trkpt lat="45.84631" lon="3.05314">
        <ele>514.2</ele>
        <time>2019-12-25T12:48:30.000Z</time>
      </trkpt>
      <trkpt lat="45.84637" lon="3.05309">
        <ele>514.1</ele>
        <time>2019-12-25T12:48:31.000Z</time>
      </trkpt>
      <trkpt lat="45.84643" lon="3.05302">
        <ele>513.9</ele>
        <time>2019-12-25T12:48:32.000Z</time>
      </trkpt>
      <trkpt lat="45.84655" lon="3.05289">
        <ele>513.6</ele>
        <time>2019-12-25T12:48:34.000Z</time>
      </trkpt>
      <trkpt lat="45.84667" lon="3.05275">
        <ele>513</ele>
        <time>2019-12-25T12:48:36.000Z</time>
      </trkpt>
      <trkpt lat="45.84681" lon="3.05265">
        <ele>512.4</ele>
        <time>2019-12-25T12:48:38.000Z</time>
      </trkpt>
      <trkpt lat="45.84689" lon="3.05261">
        <ele>512</ele>
        <time>2019-12-25T12:48:39.000Z</time>
      </trkpt>
      <trkpt lat="45.84697" lon="3.05259">
        <ele>511.5</ele>
        <time>2019-12-25T12:48:40.000Z</time>
      </trkpt>
      <trkpt lat="45.84713" lon="3.0526">
        <ele>510.4</ele>
        <time>2019-12-25T12:48:42.000Z</time>
      </trkpt>
      <trkpt lat="45.84723" lon="3.05263">
        <ele>509.8</ele>
        <time>2019-12-25T12:48:43.000Z</time>
      </trkpt>
      <trkpt lat="45.84743" lon="3.05272">
        <ele>508.1</ele>
        <time>2019-12-25T12:48:45.000Z</time>
      </trkpt>
      <trkpt lat="45.84754" lon="3.05272">
        <ele>507.1</ele>
        <time>2019-12-25T12:48:46.000Z</time>
      </trkpt>
      <trkpt lat="45.84772" lon="3.05262">
        <ele>505</ele>
        <time>2019-12-25T12:48:48.000Z</time>
      </trkpt>
      <trkpt lat="45.84784" lon="3.05247">
        <ele>502.9</ele>
        <time>2019-12-25T12:48:50.000Z</time>
      </trkpt>
      <trkpt lat="45.84788" lon="3.05236">
        <ele>502.4</ele>
        <time>2019-12-25T12:48:51.000Z</time>
      </trkpt>
      <trkpt lat="45.84788" lon="3.0521">
        <ele>501.3</ele>
        <time>2019-12-25T12:48:53.000Z</time>
      </trkpt>
      <trkpt lat="45.84777" lon="3.05186">
        <ele>500</ele>
        <time>2019-12-25T12:48:55.000Z</time>
      </trkpt>
      <trkpt lat="45.8477" lon="3.05175">
        <ele>499.4</ele>
        <time>2019-12-25T12:48:56.000Z</time>
      </trkpt>
      <trkpt lat="45.84762" lon="3.05165">
        <ele>498.7</ele>
        <time>2019-12-25T12:48:57.000Z</time>
      </trkpt>
      <trkpt lat="45.84747" lon="3.05144">
        <ele>497.8</ele>
        <time>2019-12-25T12:48:59.000Z</time>
      </trkpt>
      <trkpt lat="45.84739" lon="3.05132">
        <ele>497.4</ele>
        <time>2019-12-25T12:49:00.000Z</time>
      </trkpt>
      <trkpt lat="45.84731" lon="3.05101">
        <ele>496.9</ele>
        <time>2019-12-25T12:49:02.000Z</time>
      </trkpt>
      <trkpt lat="45.84735" lon="3.05064">
        <ele>496.8</ele>
        <time>2019-12-25T12:49:04.000Z</time>
      </trkpt>
      <trkpt lat="45.84749" lon="3.05034">
        <ele>496.8</ele>
        <time>2019-12-25T12:49:06.000Z</time>
      </trkpt>
      <trkpt lat="45.84756" lon="3.0502">
        <ele>496.8</ele>
        <time>2019-12-25T12:49:07.000Z</time>
      </trkpt>
      <trkpt lat="45.84764" lon="3.05007">
        <ele>496.8</ele>
        <time>2019-12-25T12:49:08.000Z</time>
      </trkpt>
      <trkpt lat="45.84781" lon="3.04981">
        <ele>496.8</ele>
        <time>2019-12-25T12:49:10.000Z</time>
      </trkpt>
      <trkpt lat="45.84789" lon="3.04969">
        <ele>496.8</ele>
        <time>2019-12-25T12:49:11.000Z</time>
      </trkpt>
      <trkpt lat="45.84807" lon="3.04947">
        <ele>496.7</ele>
        <time>2019-12-25T12:49:13.000Z</time>
      </trkpt>
      <trkpt lat="45.84824" lon="3.04927">
        <ele>496.7</ele>
        <time>2019-12-25T12:49:15.000Z</time>
      </trkpt>
      <trkpt lat="45.8484" lon="3.04909">
        <ele>496.7</ele>
        <time>2019-12-25T12:49:17.000Z</time>
      </trkpt>
      <trkpt lat="45.84848" lon="3.049">
        <ele>496.7</ele>
        <time>2019-12-25T12:49:18.000Z</time>
      </trkpt>
      <trkpt lat="45.84856" lon="3.04891">
        <ele>496.5</ele>
        <time>2019-12-25T12:49:19.000Z</time>
      </trkpt>
      <trkpt lat="45.84869" lon="3.04875">
        <ele>495.8</ele>
        <time>2019-12-25T12:49:21.000Z</time>
      </trkpt>
      <trkpt lat="45.84883" lon="3.04857">
        <ele>495</ele>
        <time>2019-12-25T12:49:23.000Z</time>
      </trkpt>
      <trkpt lat="45.84889" lon="3.04847">
        <ele>494.5</ele>
        <time>2019-12-25T12:49:24.000Z</time>
      </trkpt>
      <trkpt lat="45.84902" lon="3.04825">
        <ele>493.3</ele>
        <time>2019-12-25T12:49:26.000Z</time>
      </trkpt>
      <trkpt lat="45.84909" lon="3.04813">
        <ele>492.7</ele>
        <time>2019-12-25T12:49:27.000Z</time>
      </trkpt>
      <trkpt lat="45.84923" lon="3.0479">
        <ele>491.5</ele>
        <time>2019-12-25T12:49:29.000Z</time>
      </trkpt>
      <trkpt lat="45.84939" lon="3.04767">
        <ele>490.8</ele>
        <time>2019-12-25T12:49:31.000Z</time>
      </trkpt>
      <trkpt lat="45.84946" lon="3.04755">
        <ele>490.7</ele>
        <time>2019-12-25T12:49:32.000Z</time>
      </trkpt>
      <trkpt lat="45.84961" lon="3.04732">
        <ele>490.3</ele>
        <time>2019-12-25T12:49:34.000Z</time>
      </trkpt>
      <trkpt lat="45.84969" lon="3.04719">
        <ele>489.9</ele>
        <time>2019-12-25T12:49:35.000Z</time>
      </trkpt>
      <trkpt lat="45.84984" lon="3.04697">
        <ele>489.4</ele>
        <time>2019-12-25T12:49:37.000Z</time>
      </trkpt>
      <trkpt lat="45.84999" lon="3.0468">
        <ele>489.6</ele>
        <time>2019-12-25T12:49:39.000Z</time>
      </trkpt>
      <trkpt lat="45.85004" lon="3.04672">
        <ele>489.8</ele>
        <time>2019-12-25T12:49:40.000Z</time>
      </trkpt>
      <trkpt lat="45.85008" lon="3.04665">
        <ele>489.9</ele>
        <time>2019-12-25T12:49:41.000Z</time>
      </trkpt>
      <trkpt lat="45.85011" lon="3.04651">
        <ele>490.1</ele>
        <time>2019-12-25T12:49:43.000Z</time>
      </trkpt>
      <trkpt lat="45.85004" lon="3.04643">
        <ele>490.3</ele>
        <time>2019-12-25T12:49:45.000Z</time>
      </trkpt>
      <trkpt lat="45.84998" lon="3.04644">
        <ele>490.8</ele>
        <time>2019-12-25T12:49:46.000Z</time>
      </trkpt>
      <trkpt lat="45.84986" lon="3.04648">
        <ele>491.1</ele>
        <time>2019-12-25T12:49:48.000Z</time>
      </trkpt>
      <trkpt lat="45.8498" lon="3.04649">
        <ele>491.3</ele>
        <time>2019-12-25T12:49:49.000Z</time>
      </trkpt>
      <trkpt lat="45.84969" lon="3.04651">
        <ele>491.7</ele>
        <time>2019-12-25T12:49:51.000Z</time>
      </trkpt>
      <trkpt lat="45.84963" lon="3.04652">
        <ele>492</ele>
        <time>2019-12-25T12:49:52.000Z</time>
      </trkpt>
      <trkpt lat="45.84952" lon="3.04654">
        <ele>492.7</ele>
        <time>2019-12-25T12:49:54.000Z</time>
      </trkpt>
      <trkpt lat="45.84942" lon="3.04657">
        <ele>493.8</ele>
        <time>2019-12-25T12:49:56.000Z</time>
      </trkpt>
      <trkpt lat="45.84932" lon="3.04659">
        <ele>494.9</ele>
        <time>2019-12-25T12:49:58.000Z</time>
      </trkpt>
      <trkpt lat="45.84921" lon="3.04663">
        <ele>495.7</ele>
        <time>2019-12-25T12:50:00.000Z</time>
      </trkpt>
      <trkpt lat="45.84916" lon="3.04664">
        <ele>495.9</ele>
        <time>2019-12-25T12:50:01.000Z</time>
      </trkpt>
      <trkpt lat="45.84906" lon="3.04667">
        <ele>496.4</ele>
        <time>2019-12-25T12:50:03.000Z</time>
      </trkpt>
      <trkpt lat="45.84897" lon="3.0467">
        <ele>497.1</ele>
        <time>2019-12-25T12:50:05.000Z</time>
      </trkpt>
      <trkpt lat="45.84892" lon="3.04672">
        <ele>497.6</ele>
        <time>2019-12-25T12:50:06.000Z</time>
      </trkpt>
      <trkpt lat="45.84888" lon="3.04673">
        <ele>498.1</ele>
        <time>2019-12-25T12:50:07.000Z</time>
      </trkpt>
      <trkpt lat="45.84878" lon="3.04676">
        <ele>498.9</ele>
        <time>2019-12-25T12:50:09.000Z</time>
      </trkpt>
      <trkpt lat="45.84869" lon="3.04678">
        <ele>499.7</ele>
        <time>2019-12-25T12:50:11.000Z</time>
      </trkpt>
      <trkpt lat="45.8486" lon="3.0468">
        <ele>500.6</ele>
        <time>2019-12-25T12:50:13.000Z</time>
      </trkpt>
      <trkpt lat="45.84852" lon="3.04682">
        <ele>501.6</ele>
        <time>2019-12-25T12:50:15.000Z</time>
      </trkpt>
      <trkpt lat="45.84843" lon="3.04685">
        <ele>502.4</ele>
        <time>2019-12-25T12:50:17.000Z</time>
      </trkpt>
      <trkpt lat="45.84839" lon="3.04686">
        <ele>502.7</ele>
        <time>2019-12-25T12:50:18.000Z</time>
      </trkpt>
      <trkpt lat="45.84835" lon="3.04687">
        <ele>503</ele>
        <time>2019-12-25T12:50:19.000Z</time>
      </trkpt>
      <trkpt lat="45.84826" lon="3.04689">
        <ele>503.8</ele>
        <time>2019-12-25T12:50:21.000Z</time>
      </trkpt>
      <trkpt lat="45.84816" lon="3.04691">
        <ele>504.8</ele>
        <time>2019-12-25T12:50:23.000Z</time>
      </trkpt>
      <trkpt lat="45.84811" lon="3.04691">
        <ele>505.2</ele>
        <time>2019-12-25T12:50:24.000Z</time>
      </trkpt>
      <trkpt lat="45.84802" lon="3.04693">
        <ele>505.7</ele>
        <time>2019-12-25T12:50:26.000Z</time>
      </trkpt>
      <trkpt lat="45.84798" lon="3.04693">
        <ele>505.9</ele>
        <time>2019-12-25T12:50:27.000Z</time>
      </trkpt>
      <trkpt lat="45.84788" lon="3.04693">
        <ele>506.6</ele>
        <time>2019-12-25T12:50:29.000Z</time>
      </trkpt>
      <trkpt lat="45.84773" lon="3.0469">
        <ele>507.6</ele>
        <time>2019-12-25T12:50:33.000Z</time>
      </trkpt>
      <trkpt lat="45.84769" lon="3.04686">
        <ele>507.9</ele>
        <time>2019-12-25T12:50:34.000Z</time>
      </trkpt>
      <trkpt lat="45.84762" lon="3.04684">
        <ele>508.2</ele>
        <time>2019-12-25T12:50:36.000Z</time>
      </trkpt>
      <trkpt lat="45.84757" lon="3.04684">
        <ele>508.5</ele>
        <time>2019-12-25T12:50:37.000Z</time>
      </trkpt>
      <trkpt lat="45.8475" lon="3.04682">
        <ele>508.8</ele>
        <time>2019-12-25T12:50:39.000Z</time>
      </trkpt>
      <trkpt lat="45.84742" lon="3.04677">
        <ele>509.2</ele>
        <time>2019-12-25T12:50:40.000Z</time>
      </trkpt>
      <trkpt lat="45.84739" lon="3.0467">
        <ele>509.3</ele>
        <time>2019-12-25T12:50:42.000Z</time>
      </trkpt>
      <trkpt lat="45.84733" lon="3.04668">
        <ele>509.5</ele>
        <time>2019-12-25T12:50:43.000Z</time>
      </trkpt>
      <trkpt lat="45.84726" lon="3.04664">
        <ele>509.9</ele>
        <time>2019-12-25T12:50:45.000Z</time>
      </trkpt>
      <trkpt lat="45.8472" lon="3.04659">
        <ele>510.2</ele>
        <time>2019-12-25T12:50:46.000Z</time>
      </trkpt>
      <trkpt lat="45.84715" lon="3.04655">
        <ele>510.5</ele>
        <time>2019-12-25T12:50:48.000Z</time>
      </trkpt>
      <trkpt lat="45.84711" lon="3.04651">
        <ele>510.8</ele>
        <time>2019-12-25T12:50:49.000Z</time>
      </trkpt>
      <trkpt lat="45.84705" lon="3.04646">
        <ele>511.2</ele>
        <time>2019-12-25T12:50:50.000Z</time>
      </trkpt>
      <trkpt lat="45.84701" lon="3.04643">
        <ele>511.5</ele>
        <time>2019-12-25T12:50:51.000Z</time>
      </trkpt>
      <trkpt lat="45.84696" lon="3.04638">
        <ele>512</ele>
        <time>2019-12-25T12:50:52.000Z</time>
      </trkpt>
      <trkpt lat="45.84688" lon="3.0463">
        <ele>512.7</ele>
        <time>2019-12-25T12:50:54.000Z</time>
      </trkpt>
      <trkpt lat="45.84681" lon="3.04622">
        <ele>513.3</ele>
        <time>2019-12-25T12:50:56.000Z</time>
      </trkpt>
      <trkpt lat="45.84673" lon="3.04615">
        <ele>514</ele>
        <time>2019-12-25T12:50:58.000Z</time>
      </trkpt>
      <trkpt lat="45.84663" lon="3.04605">
        <ele>515.4</ele>
        <time>2019-12-25T12:51:01.000Z</time>
      </trkpt>
      <trkpt lat="45.84659" lon="3.046">
        <ele>516.1</ele>
        <time>2019-12-25T12:51:02.000Z</time>
      </trkpt>
      <trkpt lat="45.84654" lon="3.04596">
        <ele>516.4</ele>
        <time>2019-12-25T12:51:03.000Z</time>
      </trkpt>
      <trkpt lat="45.84647" lon="3.04589">
        <ele>517</ele>
        <time>2019-12-25T12:51:05.000Z</time>
      </trkpt>
      <trkpt lat="45.84639" lon="3.04581">
        <ele>517.5</ele>
        <time>2019-12-25T12:51:07.000Z</time>
      </trkpt>
      <trkpt lat="45.84636" lon="3.04577">
        <ele>517.8</ele>
        <time>2019-12-25T12:51:08.000Z</time>
      </trkpt>
      <trkpt lat="45.8463" lon="3.04573">
        <ele>518.6</ele>
        <time>2019-12-25T12:51:10.000Z</time>
      </trkpt>
      <trkpt lat="45.84624" lon="3.04568">
        <ele>519.4</ele>
        <time>2019-12-25T12:51:11.000Z</time>
      </trkpt>
      <trkpt lat="45.84621" lon="3.04565">
        <ele>519.9</ele>
        <time>2019-12-25T12:51:12.000Z</time>
      </trkpt>
      <trkpt lat="45.84617" lon="3.0456">
        <ele>520.5</ele>
        <time>2019-12-25T12:51:13.000Z</time>
      </trkpt>
      <trkpt lat="45.84612" lon="3.04555">
        <ele>520.9</ele>
        <time>2019-12-25T12:51:15.000Z</time>
      </trkpt>
      <trkpt lat="45.84609" lon="3.04551">
        <ele>521.2</ele>
        <time>2019-12-25T12:51:16.000Z</time>
      </trkpt>
      <trkpt lat="45.84603" lon="3.04546">
        <ele>521.8</ele>
        <time>2019-12-25T12:51:18.000Z</time>
      </trkpt>
      <trkpt lat="45.84599" lon="3.04542">
        <ele>522.3</ele>
        <time>2019-12-25T12:51:19.000Z</time>
      </trkpt>
      <trkpt lat="45.84592" lon="3.04536">
        <ele>522.9</ele>
        <time>2019-12-25T12:51:21.000Z</time>
      </trkpt>
      <trkpt lat="45.84587" lon="3.0453">
        <ele>523.4</ele>
        <time>2019-12-25T12:51:22.000Z</time>
      </trkpt>
      <trkpt lat="45.84583" lon="3.04527">
        <ele>523.7</ele>
        <time>2019-12-25T12:51:23.000Z</time>
      </trkpt>
      <trkpt lat="45.84579" lon="3.04523">
        <ele>524.1</ele>
        <time>2019-12-25T12:51:25.000Z</time>
      </trkpt>
      <trkpt lat="45.84575" lon="3.04519">
        <ele>524.6</ele>
        <time>2019-12-25T12:51:26.000Z</time>
      </trkpt>
      <trkpt lat="45.84571" lon="3.04515">
        <ele>525</ele>
        <time>2019-12-25T12:51:27.000Z</time>
      </trkpt>
      <trkpt lat="45.84564" lon="3.0451">
        <ele>525.8</ele>
        <time>2019-12-25T12:51:28.000Z</time>
      </trkpt>
      <trkpt lat="45.8456" lon="3.04507">
        <ele>526.2</ele>
        <time>2019-12-25T12:51:30.000Z</time>
      </trkpt>
      <trkpt lat="45.84556" lon="3.04504">
        <ele>526.6</ele>
        <time>2019-12-25T12:51:31.000Z</time>
      </trkpt>
      <trkpt lat="45.84549" lon="3.04501">
        <ele>527.1</ele>
        <time>2019-12-25T12:51:32.000Z</time>
      </trkpt>
      <trkpt lat="45.84543" lon="3.04499">
        <ele>527.8</ele>
        <time>2019-12-25T12:51:34.000Z</time>
      </trkpt>
      <trkpt lat="45.84538" lon="3.04497">
        <ele>528.3</ele>
        <time>2019-12-25T12:51:35.000Z</time>
      </trkpt>
      <trkpt lat="45.84533" lon="3.04496">
        <ele>528.6</ele>
        <time>2019-12-25T12:51:36.000Z</time>
      </trkpt>
      <trkpt lat="45.84527" lon="3.04494">
        <ele>529.2</ele>
        <time>2019-12-25T12:51:38.000Z</time>
      </trkpt>
      <trkpt lat="45.84523" lon="3.04493">
        <ele>529.5</ele>
        <time>2019-12-25T12:51:39.000Z</time>
      </trkpt>
      <trkpt lat="45.84519" lon="3.04493">
        <ele>529.8</ele>
        <time>2019-12-25T12:51:40.000Z</time>
      </trkpt>
      <trkpt lat="45.84513" lon="3.04492">
        <ele>530.1</ele>
        <time>2019-12-25T12:51:41.000Z</time>
      </trkpt>
      <trkpt lat="45.84506" lon="3.04492">
        <ele>530.6</ele>
        <time>2019-12-25T12:51:43.000Z</time>
      </trkpt>
      <trkpt lat="45.84499" lon="3.04492">
        <ele>530.9</ele>
        <time>2019-12-25T12:51:44.000Z</time>
      </trkpt>
      <trkpt lat="45.84494" lon="3.04492">
        <ele>531.3</ele>
        <time>2019-12-25T12:51:45.000Z</time>
      </trkpt>
      <trkpt lat="45.84488" lon="3.04493">
        <ele>531.5</ele>
        <time>2019-12-25T12:51:47.000Z</time>
      </trkpt>
      <trkpt lat="45.84484" lon="3.04493">
        <ele>531.7</ele>
        <time>2019-12-25T12:51:48.000Z</time>
      </trkpt>
      <trkpt lat="45.84479" lon="3.04495">
        <ele>531.9</ele>
        <time>2019-12-25T12:51:49.000Z</time>
      </trkpt>
      <trkpt lat="45.84475" lon="3.04497">
        <ele>532</ele>
        <time>2019-12-25T12:51:50.000Z</time>
      </trkpt>
      <trkpt lat="45.8447" lon="3.04499">
        <ele>532.2</ele>
        <time>2019-12-25T12:51:51.000Z</time>
      </trkpt>
      <trkpt lat="45.84463" lon="3.04502">
        <ele>532.4</ele>
        <time>2019-12-25T12:51:53.000Z</time>
      </trkpt>
      <trkpt lat="45.84456" lon="3.04504">
        <ele>532.7</ele>
        <time>2019-12-25T12:51:54.000Z</time>
      </trkpt>
      <trkpt lat="45.84451" lon="3.04506">
        <ele>532.8</ele>
        <time>2019-12-25T12:51:55.000Z</time>
      </trkpt>
      <trkpt lat="45.84445" lon="3.04509">
        <ele>533</ele>
        <time>2019-12-25T12:51:57.000Z</time>
      </trkpt>
      <trkpt lat="45.84438" lon="3.04514">
        <ele>533.3</ele>
        <time>2019-12-25T12:51:59.000Z</time>
      </trkpt>
      <trkpt lat="45.84429" lon="3.0452">
        <ele>533.6</ele>
        <time>2019-12-25T12:52:00.000Z</time>
      </trkpt>
      <trkpt lat="45.84425" lon="3.04524">
        <ele>533.8</ele>
        <time>2019-12-25T12:52:01.000Z</time>
      </trkpt>
      <trkpt lat="45.84418" lon="3.04532">
        <ele>534.1</ele>
        <time>2019-12-25T12:52:03.000Z</time>
      </trkpt>
      <trkpt lat="45.84414" lon="3.04536">
        <ele>534.2</ele>
        <time>2019-12-25T12:52:04.000Z</time>
      </trkpt>
      <trkpt lat="45.84406" lon="3.04545">
        <ele>534.6</ele>
        <time>2019-12-25T12:52:06.000Z</time>
      </trkpt>
      <trkpt lat="45.84402" lon="3.0455">
        <ele>534.8</ele>
        <time>2019-12-25T12:52:07.000Z</time>
      </trkpt>
      <trkpt lat="45.84394" lon="3.04559">
        <ele>535.1</ele>
        <time>2019-12-25T12:52:09.000Z</time>
      </trkpt>
      <trkpt lat="45.84389" lon="3.04564">
        <ele>535.3</ele>
        <time>2019-12-25T12:52:10.000Z</time>
      </trkpt>
      <trkpt lat="45.8438" lon="3.04573">
        <ele>535.6</ele>
        <time>2019-12-25T12:52:12.000Z</time>
      </trkpt>
      <trkpt lat="45.84372" lon="3.04582">
        <ele>535.8</ele>
        <time>2019-12-25T12:52:14.000Z</time>
      </trkpt>
      <trkpt lat="45.84364" lon="3.0459">
        <ele>536</ele>
        <time>2019-12-25T12:52:16.000Z</time>
      </trkpt>
      <trkpt lat="45.8436" lon="3.04594">
        <ele>536.1</ele>
        <time>2019-12-25T12:52:17.000Z</time>
      </trkpt>
      <trkpt lat="45.84351" lon="3.04603">
        <ele>536.2</ele>
        <time>2019-12-25T12:52:19.000Z</time>
      </trkpt>
      <trkpt lat="45.84347" lon="3.04607">
        <ele>536.3</ele>
        <time>2019-12-25T12:52:20.000Z</time>
      </trkpt>
      <trkpt lat="45.84338" lon="3.04616">
        <ele>536.5</ele>
        <time>2019-12-25T12:52:22.000Z</time>
      </trkpt>
      <trkpt lat="45.84334" lon="3.0462">
        <ele>536.6</ele>
        <time>2019-12-25T12:52:23.000Z</time>
      </trkpt>
      <trkpt lat="45.84325" lon="3.04629">
        <ele>537</ele>
        <time>2019-12-25T12:52:25.000Z</time>
      </trkpt>
      <trkpt lat="45.84317" lon="3.04638">
        <ele>537.1</ele>
        <time>2019-12-25T12:52:27.000Z</time>
      </trkpt>
      <trkpt lat="45.84312" lon="3.04642">
        <ele>537.2</ele>
        <time>2019-12-25T12:52:28.000Z</time>
      </trkpt>
      <trkpt lat="45.84308" lon="3.04646">
        <ele>537.2</ele>
        <time>2019-12-25T12:52:29.000Z</time>
      </trkpt>
      <trkpt lat="45.84299" lon="3.04654">
        <ele>537.2</ele>
        <time>2019-12-25T12:52:31.000Z</time>
      </trkpt>
      <trkpt lat="45.84295" lon="3.04657">
        <ele>537.2</ele>
        <time>2019-12-25T12:52:32.000Z</time>
      </trkpt>
      <trkpt lat="45.84285" lon="3.04663">
        <ele>537.2</ele>
        <time>2019-12-25T12:52:34.000Z</time>
      </trkpt>
      <trkpt lat="45.84281" lon="3.04666">
        <ele>537.2</ele>
        <time>2019-12-25T12:52:35.000Z</time>
      </trkpt>
      <trkpt lat="45.84271" lon="3.04672">
        <ele>537.2</ele>
        <time>2019-12-25T12:52:37.000Z</time>
      </trkpt>
      <trkpt lat="45.84267" lon="3.04674">
        <ele>537.2</ele>
        <time>2019-12-25T12:52:38.000Z</time>
      </trkpt>
      <trkpt lat="45.84257" lon="3.04678">
        <ele>537.2</ele>
        <time>2019-12-25T12:52:40.000Z</time>
      </trkpt>
      <trkpt lat="45.84252" lon="3.0468">
        <ele>537.2</ele>
        <time>2019-12-25T12:52:41.000Z</time>
      </trkpt>
      <trkpt lat="45.84243" lon="3.04683">
        <ele>537.2</ele>
        <time>2019-12-25T12:52:43.000Z</time>
      </trkpt>
      <trkpt lat="45.84233" lon="3.04686">
        <ele>537.1</ele>
        <time>2019-12-25T12:52:45.000Z</time>
      </trkpt>
      <trkpt lat="45.84229" lon="3.04687">
        <ele>537.1</ele>
        <time>2019-12-25T12:52:46.000Z</time>
      </trkpt>
      <trkpt lat="45.84219" lon="3.04689">
        <ele>536.9</ele>
        <time>2019-12-25T12:52:48.000Z</time>
      </trkpt>
      <trkpt lat="45.8421" lon="3.04688">
        <ele>536.6</ele>
        <time>2019-12-25T12:52:50.000Z</time>
      </trkpt>
      <trkpt lat="45.84205" lon="3.04686">
        <ele>536.4</ele>
        <time>2019-12-25T12:52:51.000Z</time>
      </trkpt>
      <trkpt lat="45.84197" lon="3.04677">
        <ele>536.7</ele>
        <time>2019-12-25T12:52:53.000Z</time>
      </trkpt>
      <trkpt lat="45.84193" lon="3.04674">
        <ele>536.9</ele>
        <time>2019-12-25T12:52:54.000Z</time>
      </trkpt>
      <trkpt lat="45.84185" lon="3.04667">
        <ele>537.2</ele>
        <time>2019-12-25T12:52:56.000Z</time>
      </trkpt>
      <trkpt lat="45.8418" lon="3.04663">
        <ele>537.3</ele>
        <time>2019-12-25T12:52:57.000Z</time>
      </trkpt>
      <trkpt lat="45.84175" lon="3.04659">
        <ele>537.5</ele>
        <time>2019-12-25T12:52:58.000Z</time>
      </trkpt>
      <trkpt lat="45.84171" lon="3.04654">
        <ele>537.7</ele>
        <time>2019-12-25T12:52:59.000Z</time>
      </trkpt>
      <trkpt lat="45.84164" lon="3.0464">
        <ele>539</ele>
        <time>2019-12-25T12:53:01.000Z</time>
      </trkpt>
      <trkpt lat="45.84159" lon="3.04624">
        <ele>539.7</ele>
        <time>2019-12-25T12:53:03.000Z</time>
      </trkpt>
      <trkpt lat="45.84157" lon="3.04615">
        <ele>539.9</ele>
        <time>2019-12-25T12:53:04.000Z</time>
      </trkpt>
      <trkpt lat="45.84154" lon="3.04607">
        <ele>540.3</ele>
        <time>2019-12-25T12:53:05.000Z</time>
      </trkpt>
      <trkpt lat="45.8415" lon="3.04593">
        <ele>540.9</ele>
        <time>2019-12-25T12:53:07.000Z</time>
      </trkpt>
      <trkpt lat="45.84148" lon="3.04586">
        <ele>541.1</ele>
        <time>2019-12-25T12:53:08.000Z</time>
      </trkpt>
      <trkpt lat="45.84145" lon="3.04573">
        <ele>541.5</ele>
        <time>2019-12-25T12:53:10.000Z</time>
      </trkpt>
      <trkpt lat="45.84145" lon="3.04567">
        <ele>541.8</ele>
        <time>2019-12-25T12:53:11.000Z</time>
      </trkpt>
      <trkpt lat="45.84145" lon="3.04553">
        <ele>542.3</ele>
        <time>2019-12-25T12:53:13.000Z</time>
      </trkpt>
      <trkpt lat="45.84147" lon="3.04541">
        <ele>542.9</ele>
        <time>2019-12-25T12:53:15.000Z</time>
      </trkpt>
      <trkpt lat="45.8415" lon="3.04527">
        <ele>543.3</ele>
        <time>2019-12-25T12:53:17.000Z</time>
      </trkpt>
      <trkpt lat="45.84153" lon="3.04514">
        <ele>543.8</ele>
        <time>2019-12-25T12:53:19.000Z</time>
      </trkpt>
      <trkpt lat="45.84155" lon="3.04508">
        <ele>544</ele>
        <time>2019-12-25T12:53:20.000Z</time>
      </trkpt>
      <trkpt lat="45.84157" lon="3.04501">
        <ele>544.3</ele>
        <time>2019-12-25T12:53:21.000Z</time>
      </trkpt>
      <trkpt lat="45.84162" lon="3.04489">
        <ele>544.8</ele>
        <time>2019-12-25T12:53:23.000Z</time>
      </trkpt>
      <trkpt lat="45.84164" lon="3.04482">
        <ele>545</ele>
        <time>2019-12-25T12:53:24.000Z</time>
      </trkpt>
      <trkpt lat="45.84168" lon="3.04468">
        <ele>545.7</ele>
        <time>2019-12-25T12:53:26.000Z</time>
      </trkpt>
      <trkpt lat="45.84171" lon="3.04453">
        <ele>546.3</ele>
        <time>2019-12-25T12:53:28.000Z</time>
      </trkpt>
      <trkpt lat="45.84174" lon="3.04438">
        <ele>547.1</ele>
        <time>2019-12-25T12:53:30.000Z</time>
      </trkpt>
      <trkpt lat="45.84175" lon="3.04423">
        <ele>548</ele>
        <time>2019-12-25T12:53:32.000Z</time>
      </trkpt>
      <trkpt lat="45.84176" lon="3.04415">
        <ele>548.5</ele>
        <time>2019-12-25T12:53:33.000Z</time>
      </trkpt>
      <trkpt lat="45.84175" lon="3.044">
        <ele>549.4</ele>
        <time>2019-12-25T12:53:35.000Z</time>
      </trkpt>
      <trkpt lat="45.84175" lon="3.04386">
        <ele>550.2</ele>
        <time>2019-12-25T12:53:37.000Z</time>
      </trkpt>
      <trkpt lat="45.84175" lon="3.0438">
        <ele>550.7</ele>
        <time>2019-12-25T12:53:38.000Z</time>
      </trkpt>
      <trkpt lat="45.84174" lon="3.04368">
        <ele>551.5</ele>
        <time>2019-12-25T12:53:40.000Z</time>
      </trkpt>
      <trkpt lat="45.84173" lon="3.04362">
        <ele>551.8</ele>
        <time>2019-12-25T12:53:41.000Z</time>
      </trkpt>
      <trkpt lat="45.8417" lon="3.0435">
        <ele>552.6</ele>
        <time>2019-12-25T12:53:43.000Z</time>
      </trkpt>
      <trkpt lat="45.84168" lon="3.0434">
        <ele>553.5</ele>
        <time>2019-12-25T12:53:45.000Z</time>
      </trkpt>
      <trkpt lat="45.84167" lon="3.04335">
        <ele>553.9</ele>
        <time>2019-12-25T12:53:46.000Z</time>
      </trkpt>
      <trkpt lat="45.84167" lon="3.04331">
        <ele>554.2</ele>
        <time>2019-12-25T12:53:48.000Z</time>
      </trkpt>
      <trkpt lat="45.84165" lon="3.04327">
        <ele>554.6</ele>
        <time>2019-12-25T12:53:49.000Z</time>
      </trkpt>
      <trkpt lat="45.84162" lon="3.04321">
        <ele>555.1</ele>
        <time>2019-12-25T12:53:50.000Z</time>
      </trkpt>
      <trkpt lat="45.84159" lon="3.04316">
        <ele>555.7</ele>
        <time>2019-12-25T12:53:52.000Z</time>
      </trkpt>
      <trkpt lat="45.84157" lon="3.04312">
        <ele>556.1</ele>
        <time>2019-12-25T12:53:53.000Z</time>
      </trkpt>
      <trkpt lat="45.84153" lon="3.04307">
        <ele>556.7</ele>
        <time>2019-12-25T12:53:55.000Z</time>
      </trkpt>
      <trkpt lat="45.8415" lon="3.04303">
        <ele>556.9</ele>
        <time>2019-12-25T12:53:56.000Z</time>
      </trkpt>
      <trkpt lat="45.84147" lon="3.043">
        <ele>557.2</ele>
        <time>2019-12-25T12:53:57.000Z</time>
      </trkpt>
      <trkpt lat="45.84144" lon="3.04297">
        <ele>557.5</ele>
        <time>2019-12-25T12:53:58.000Z</time>
      </trkpt>
      <trkpt lat="45.84138" lon="3.04292">
        <ele>558</ele>
        <time>2019-12-25T12:54:00.000Z</time>
      </trkpt>
      <trkpt lat="45.84134" lon="3.04289">
        <ele>558.4</ele>
        <time>2019-12-25T12:54:01.000Z</time>
      </trkpt>
      <trkpt lat="45.84129" lon="3.04287">
        <ele>558.9</ele>
        <time>2019-12-25T12:54:02.000Z</time>
      </trkpt>
      <trkpt lat="45.84126" lon="3.04285">
        <ele>559.2</ele>
        <time>2019-12-25T12:54:03.000Z</time>
      </trkpt>
      <trkpt lat="45.84122" lon="3.04284">
        <ele>559.5</ele>
        <time>2019-12-25T12:54:05.000Z</time>
      </trkpt>
      <trkpt lat="45.84118" lon="3.04282">
        <ele>559.8</ele>
        <time>2019-12-25T12:54:06.000Z</time>
      </trkpt>
      <trkpt lat="45.84113" lon="3.0428">
        <ele>560.2</ele>
        <time>2019-12-25T12:54:07.000Z</time>
      </trkpt>
      <trkpt lat="45.84109" lon="3.04279">
        <ele>560.5</ele>
        <time>2019-12-25T12:54:08.000Z</time>
      </trkpt>
      <trkpt lat="45.84106" lon="3.04277">
        <ele>560.7</ele>
        <time>2019-12-25T12:54:10.000Z</time>
      </trkpt>
      <trkpt lat="45.84101" lon="3.04276">
        <ele>561</ele>
        <time>2019-12-25T12:54:11.000Z</time>
      </trkpt>
      <trkpt lat="45.84096" lon="3.04275">
        <ele>561.3</ele>
        <time>2019-12-25T12:54:12.000Z</time>
      </trkpt>
      <trkpt lat="45.84092" lon="3.04274">
        <ele>561.6</ele>
        <time>2019-12-25T12:54:13.000Z</time>
      </trkpt>
      <trkpt lat="45.84086" lon="3.04273">
        <ele>562</ele>
        <time>2019-12-25T12:54:15.000Z</time>
      </trkpt>
      <trkpt lat="45.84082" lon="3.04273">
        <ele>562.2</ele>
        <time>2019-12-25T12:54:16.000Z</time>
      </trkpt>
      <trkpt lat="45.84078" lon="3.04273">
        <ele>562.4</ele>
        <time>2019-12-25T12:54:17.000Z</time>
      </trkpt>
      <trkpt lat="45.84074" lon="3.04275">
        <ele>562.6</ele>
        <time>2019-12-25T12:54:18.000Z</time>
      </trkpt>
      <trkpt lat="45.84068" lon="3.04276">
        <ele>563</ele>
        <time>2019-12-25T12:54:20.000Z</time>
      </trkpt>
      <trkpt lat="45.84062" lon="3.04277">
        <ele>563.3</ele>
        <time>2019-12-25T12:54:21.000Z</time>
      </trkpt>
      <trkpt lat="45.84059" lon="3.04277">
        <ele>563.5</ele>
        <time>2019-12-25T12:54:22.000Z</time>
      </trkpt>
      <trkpt lat="45.84055" lon="3.04277">
        <ele>563.7</ele>
        <time>2019-12-25T12:54:24.000Z</time>
      </trkpt>
      <trkpt lat="45.84052" lon="3.04272">
        <ele>564.4</ele>
        <time>2019-12-25T12:54:25.000Z</time>
      </trkpt>
      <trkpt lat="45.84051" lon="3.04265">
        <ele>564.9</ele>
        <time>2019-12-25T12:54:27.000Z</time>
      </trkpt>
      <trkpt lat="45.84053" lon="3.0426">
        <ele>565.3</ele>
        <time>2019-12-25T12:54:28.000Z</time>
      </trkpt>
      <trkpt lat="45.84056" lon="3.04256">
        <ele>565.7</ele>
        <time>2019-12-25T12:54:29.000Z</time>
      </trkpt>
      <trkpt lat="45.84059" lon="3.04253">
        <ele>566.1</ele>
        <time>2019-12-25T12:54:30.000Z</time>
      </trkpt>
      <trkpt lat="45.84063" lon="3.04247">
        <ele>566.7</ele>
        <time>2019-12-25T12:54:32.000Z</time>
      </trkpt>
      <trkpt lat="45.84065" lon="3.04243">
        <ele>567</ele>
        <time>2019-12-25T12:54:33.000Z</time>
      </trkpt>
      <trkpt lat="45.84067" lon="3.04238">
        <ele>567.5</ele>
        <time>2019-12-25T12:54:34.000Z</time>
      </trkpt>
      <trkpt lat="45.84071" lon="3.04229">
        <ele>568.3</ele>
        <time>2019-12-25T12:54:36.000Z</time>
      </trkpt>
      <trkpt lat="45.84073" lon="3.04225">
        <ele>568.7</ele>
        <time>2019-12-25T12:54:37.000Z</time>
      </trkpt>
      <trkpt lat="45.84076" lon="3.04219">
        <ele>569.2</ele>
        <time>2019-12-25T12:54:39.000Z</time>
      </trkpt>
      <trkpt lat="45.84079" lon="3.04212">
        <ele>569.9</ele>
        <time>2019-12-25T12:54:40.000Z</time>
      </trkpt>
      <trkpt lat="45.84081" lon="3.04203">
        <ele>570.5</ele>
        <time>2019-12-25T12:54:42.000Z</time>
      </trkpt>
      <trkpt lat="45.84082" lon="3.04197">
        <ele>570.9</ele>
        <time>2019-12-25T12:54:43.000Z</time>
      </trkpt>
      <trkpt lat="45.84085" lon="3.04188">
        <ele>571.7</ele>
        <time>2019-12-25T12:54:45.000Z</time>
      </trkpt>
      <trkpt lat="45.84087" lon="3.04183">
        <ele>572.2</ele>
        <time>2019-12-25T12:54:46.000Z</time>
      </trkpt>
      <trkpt lat="45.84088" lon="3.04178">
        <ele>572.4</ele>
        <time>2019-12-25T12:54:47.000Z</time>
      </trkpt>
      <trkpt lat="45.84091" lon="3.0417">
        <ele>572.9</ele>
        <time>2019-12-25T12:54:48.000Z</time>
      </trkpt>
      <trkpt lat="45.84093" lon="3.04164">
        <ele>573.2</ele>
        <time>2019-12-25T12:54:49.000Z</time>
      </trkpt>
      <trkpt lat="45.84096" lon="3.04157">
        <ele>573.6</ele>
        <time>2019-12-25T12:54:51.000Z</time>
      </trkpt>
      <trkpt lat="45.84098" lon="3.04154">
        <ele>573.8</ele>
        <time>2019-12-25T12:54:52.000Z</time>
      </trkpt>
      <trkpt lat="45.84101" lon="3.04149">
        <ele>574.1</ele>
        <time>2019-12-25T12:54:53.000Z</time>
      </trkpt>
      <trkpt lat="45.84104" lon="3.04144">
        <ele>574.3</ele>
        <time>2019-12-25T12:54:55.000Z</time>
      </trkpt>
      <trkpt lat="45.84108" lon="3.04138">
        <ele>574.6</ele>
        <time>2019-12-25T12:54:56.000Z</time>
      </trkpt>
      <trkpt lat="45.84111" lon="3.04135">
        <ele>574.8</ele>
        <time>2019-12-25T12:54:57.000Z</time>
      </trkpt>
      <trkpt lat="45.84116" lon="3.04129">
        <ele>575</ele>
        <time>2019-12-25T12:54:59.000Z</time>
      </trkpt>
      <trkpt lat="45.84119" lon="3.04125">
        <ele>575.2</ele>
        <time>2019-12-25T12:55:00.000Z</time>
      </trkpt>
      <trkpt lat="45.84123" lon="3.04117">
        <ele>575.6</ele>
        <time>2019-12-25T12:55:02.000Z</time>
      </trkpt>
      <trkpt lat="45.84127" lon="3.0411">
        <ele>576</ele>
        <time>2019-12-25T12:55:03.000Z</time>
      </trkpt>
      <trkpt lat="45.8413" lon="3.04104">
        <ele>576.4</ele>
        <time>2019-12-25T12:55:05.000Z</time>
      </trkpt>
      <trkpt lat="45.84133" lon="3.04099">
        <ele>576.7</ele>
        <time>2019-12-25T12:55:06.000Z</time>
      </trkpt>
      <trkpt lat="45.84137" lon="3.04092">
        <ele>577.1</ele>
        <time>2019-12-25T12:55:07.000Z</time>
      </trkpt>
      <trkpt lat="45.8414" lon="3.04087">
        <ele>577.4</ele>
        <time>2019-12-25T12:55:08.000Z</time>
      </trkpt>
      <trkpt lat="45.84144" lon="3.04076">
        <ele>578</ele>
        <time>2019-12-25T12:55:11.000Z</time>
      </trkpt>
      <trkpt lat="45.84147" lon="3.04072">
        <ele>578.3</ele>
        <time>2019-12-25T12:55:12.000Z</time>
      </trkpt>
      <trkpt lat="45.8415" lon="3.04069">
        <ele>578.6</ele>
        <time>2019-12-25T12:55:13.000Z</time>
      </trkpt>
      <trkpt lat="45.84153" lon="3.04066">
        <ele>579</ele>
        <time>2019-12-25T12:55:14.000Z</time>
      </trkpt>
      <trkpt lat="45.84159" lon="3.0406">
        <ele>579.5</ele>
        <time>2019-12-25T12:55:16.000Z</time>
      </trkpt>
      <trkpt lat="45.84163" lon="3.04055">
        <ele>579.9</ele>
        <time>2019-12-25T12:55:17.000Z</time>
      </trkpt>
      <trkpt lat="45.84166" lon="3.04052">
        <ele>580.2</ele>
        <time>2019-12-25T12:55:18.000Z</time>
      </trkpt>
      <trkpt lat="45.8417" lon="3.04049">
        <ele>580.4</ele>
        <time>2019-12-25T12:55:19.000Z</time>
      </trkpt>
      <trkpt lat="45.84173" lon="3.04045">
        <ele>580.8</ele>
        <time>2019-12-25T12:55:21.000Z</time>
      </trkpt>
      <trkpt lat="45.84177" lon="3.04041">
        <ele>581.1</ele>
        <time>2019-12-25T12:55:22.000Z</time>
      </trkpt>
      <trkpt lat="45.8418" lon="3.04038">
        <ele>581.3</ele>
        <time>2019-12-25T12:55:23.000Z</time>
      </trkpt>
      <trkpt lat="45.84183" lon="3.04034">
        <ele>581.6</ele>
        <time>2019-12-25T12:55:24.000Z</time>
      </trkpt>
      <trkpt lat="45.84187" lon="3.0403">
        <ele>581.9</ele>
        <time>2019-12-25T12:55:26.000Z</time>
      </trkpt>
      <trkpt lat="45.84192" lon="3.04025">
        <ele>582.2</ele>
        <time>2019-12-25T12:55:27.000Z</time>
      </trkpt>
      <trkpt lat="45.84199" lon="3.04021">
        <ele>582.7</ele>
        <time>2019-12-25T12:55:29.000Z</time>
      </trkpt>
      <trkpt lat="45.842" lon="3.04016">
        <ele>582.9</ele>
        <time>2019-12-25T12:55:30.000Z</time>
      </trkpt>
      <trkpt lat="45.84203" lon="3.04011">
        <ele>583.2</ele>
        <time>2019-12-25T12:55:31.000Z</time>
      </trkpt>
      <trkpt lat="45.84208" lon="3.04001">
        <ele>583.8</ele>
        <time>2019-12-25T12:55:33.000Z</time>
      </trkpt>
      <trkpt lat="45.84212" lon="3.03994">
        <ele>584.3</ele>
        <time>2019-12-25T12:55:34.000Z</time>
      </trkpt>
      <trkpt lat="45.84215" lon="3.0399">
        <ele>584.5</ele>
        <time>2019-12-25T12:55:35.000Z</time>
      </trkpt>
      <trkpt lat="45.84219" lon="3.03983">
        <ele>584.9</ele>
        <time>2019-12-25T12:55:37.000Z</time>
      </trkpt>
      <trkpt lat="45.84222" lon="3.03976">
        <ele>585.1</ele>
        <time>2019-12-25T12:55:39.000Z</time>
      </trkpt>
      <trkpt lat="45.84225" lon="3.03972">
        <ele>585.3</ele>
        <time>2019-12-25T12:55:40.000Z</time>
      </trkpt>
      <trkpt lat="45.84227" lon="3.03967">
        <ele>585.5</ele>
        <time>2019-12-25T12:55:41.000Z</time>
      </trkpt>
      <trkpt lat="45.84233" lon="3.0396">
        <ele>585.8</ele>
        <time>2019-12-25T12:55:43.000Z</time>
      </trkpt>
      <trkpt lat="45.84237" lon="3.03952">
        <ele>586.2</ele>
        <time>2019-12-25T12:55:44.000Z</time>
      </trkpt>
      <trkpt lat="45.8424" lon="3.03947">
        <ele>586.4</ele>
        <time>2019-12-25T12:55:45.000Z</time>
      </trkpt>
      <trkpt lat="45.84241" lon="3.03942">
        <ele>586.7</ele>
        <time>2019-12-25T12:55:46.000Z</time>
      </trkpt>
      <trkpt lat="45.84243" lon="3.03935">
        <ele>587.1</ele>
        <time>2019-12-25T12:55:48.000Z</time>
      </trkpt>
      <trkpt lat="45.84246" lon="3.03925">
        <ele>587.5</ele>
        <time>2019-12-25T12:55:49.000Z</time>
      </trkpt>
      <trkpt lat="45.84248" lon="3.0392">
        <ele>587.8</ele>
        <time>2019-12-25T12:55:50.000Z</time>
      </trkpt>
      <trkpt lat="45.8425" lon="3.03909">
        <ele>588.2</ele>
        <time>2019-12-25T12:55:52.000Z</time>
      </trkpt>
      <trkpt lat="45.84251" lon="3.03903">
        <ele>588.5</ele>
        <time>2019-12-25T12:55:53.000Z</time>
      </trkpt>
      <trkpt lat="45.84251" lon="3.03897">
        <ele>588.7</ele>
        <time>2019-12-25T12:55:54.000Z</time>
      </trkpt>
      <trkpt lat="45.84252" lon="3.03891">
        <ele>588.9</ele>
        <time>2019-12-25T12:55:55.000Z</time>
      </trkpt>
      <trkpt lat="45.84254" lon="3.03884">
        <ele>589.1</ele>
        <time>2019-12-25T12:55:56.000Z</time>
      </trkpt>
      <trkpt lat="45.84255" lon="3.03876">
        <ele>589.3</ele>
        <time>2019-12-25T12:55:57.000Z</time>
      </trkpt>
      <trkpt lat="45.84256" lon="3.0387">
        <ele>589.5</ele>
        <time>2019-12-25T12:55:59.000Z</time>
      </trkpt>
      <trkpt lat="45.84257" lon="3.03863">
        <ele>589.7</ele>
        <time>2019-12-25T12:56:00.000Z</time>
      </trkpt>
      <trkpt lat="45.84259" lon="3.03853">
        <ele>590</ele>
        <time>2019-12-25T12:56:02.000Z</time>
      </trkpt>
      <trkpt lat="45.8426" lon="3.03843">
        <ele>590.4</ele>
        <time>2019-12-25T12:56:03.000Z</time>
      </trkpt>
      <trkpt lat="45.84262" lon="3.03837">
        <ele>590.6</ele>
        <time>2019-12-25T12:56:04.000Z</time>
      </trkpt>
      <trkpt lat="45.84262" lon="3.0383">
        <ele>590.9</ele>
        <time>2019-12-25T12:56:05.000Z</time>
      </trkpt>
      <trkpt lat="45.84264" lon="3.03819">
        <ele>591.3</ele>
        <time>2019-12-25T12:56:07.000Z</time>
      </trkpt>
      <trkpt lat="45.84267" lon="3.03807">
        <ele>591.7</ele>
        <time>2019-12-25T12:56:09.000Z</time>
      </trkpt>
      <trkpt lat="45.84268" lon="3.03797">
        <ele>592</ele>
        <time>2019-12-25T12:56:10.000Z</time>
      </trkpt>
      <trkpt lat="45.84269" lon="3.03788">
        <ele>592.3</ele>
        <time>2019-12-25T12:56:12.000Z</time>
      </trkpt>
      <trkpt lat="45.84271" lon="3.03782">
        <ele>592.6</ele>
        <time>2019-12-25T12:56:13.000Z</time>
      </trkpt>
      <trkpt lat="45.84273" lon="3.03773">
        <ele>593</ele>
        <time>2019-12-25T12:56:15.000Z</time>
      </trkpt>
      <trkpt lat="45.84275" lon="3.03765">
        <ele>593.3</ele>
        <time>2019-12-25T12:56:16.000Z</time>
      </trkpt>
      <trkpt lat="45.84277" lon="3.03758">
        <ele>593.6</ele>
        <time>2019-12-25T12:56:18.000Z</time>
      </trkpt>
      <trkpt lat="45.8428" lon="3.03749">
        <ele>593.9</ele>
        <time>2019-12-25T12:56:19.000Z</time>
      </trkpt>
      <trkpt lat="45.84282" lon="3.03743">
        <ele>594.1</ele>
        <time>2019-12-25T12:56:20.000Z</time>
      </trkpt>
      <trkpt lat="45.84285" lon="3.03734">
        <ele>594.4</ele>
        <time>2019-12-25T12:56:22.000Z</time>
      </trkpt>
      <trkpt lat="45.84288" lon="3.03725">
        <ele>594.8</ele>
        <time>2019-12-25T12:56:23.000Z</time>
      </trkpt>
      <trkpt lat="45.84291" lon="3.03718">
        <ele>595.1</ele>
        <time>2019-12-25T12:56:25.000Z</time>
      </trkpt>
      <trkpt lat="45.84293" lon="3.03712">
        <ele>595.4</ele>
        <time>2019-12-25T12:56:26.000Z</time>
      </trkpt>
      <trkpt lat="45.84295" lon="3.03707">
        <ele>595.6</ele>
        <time>2019-12-25T12:56:27.000Z</time>
      </trkpt>
      <trkpt lat="45.84298" lon="3.037">
        <ele>595.9</ele>
        <time>2019-12-25T12:56:29.000Z</time>
      </trkpt>
      <trkpt lat="45.84301" lon="3.03692">
        <ele>596.3</ele>
        <time>2019-12-25T12:56:30.000Z</time>
      </trkpt>
      <trkpt lat="45.84303" lon="3.03687">
        <ele>596.5</ele>
        <time>2019-12-25T12:56:31.000Z</time>
      </trkpt>
      <trkpt lat="45.84306" lon="3.03677">
        <ele>596.9</ele>
        <time>2019-12-25T12:56:33.000Z</time>
      </trkpt>
      <trkpt lat="45.84309" lon="3.03668">
        <ele>597.3</ele>
        <time>2019-12-25T12:56:34.000Z</time>
      </trkpt>
      <trkpt lat="45.84312" lon="3.03661">
        <ele>597.7</ele>
        <time>2019-12-25T12:56:36.000Z</time>
      </trkpt>
      <trkpt lat="45.84314" lon="3.03655">
        <ele>597.9</ele>
        <time>2019-12-25T12:56:37.000Z</time>
      </trkpt>
      <trkpt lat="45.84317" lon="3.03647">
        <ele>598.3</ele>
        <time>2019-12-25T12:56:38.000Z</time>
      </trkpt>
      <trkpt lat="45.8432" lon="3.0364">
        <ele>598.6</ele>
        <time>2019-12-25T12:56:40.000Z</time>
      </trkpt>
      <trkpt lat="45.84322" lon="3.03634">
        <ele>598.9</ele>
        <time>2019-12-25T12:56:41.000Z</time>
      </trkpt>
      <trkpt lat="45.84324" lon="3.03625">
        <ele>599.3</ele>
        <time>2019-12-25T12:56:42.000Z</time>
      </trkpt>
      <trkpt lat="45.84327" lon="3.03616">
        <ele>599.7</ele>
        <time>2019-12-25T12:56:44.000Z</time>
      </trkpt>
      <trkpt lat="45.84329" lon="3.03606">
        <ele>600.2</ele>
        <time>2019-12-25T12:56:46.000Z</time>
      </trkpt>
      <trkpt lat="45.84329" lon="3.03596">
        <ele>600.7</ele>
        <time>2019-12-25T12:56:47.000Z</time>
      </trkpt>
      <trkpt lat="45.84331" lon="3.03587">
        <ele>601.2</ele>
        <time>2019-12-25T12:56:49.000Z</time>
      </trkpt>
      <trkpt lat="45.84332" lon="3.03581">
        <ele>601.6</ele>
        <time>2019-12-25T12:56:50.000Z</time>
      </trkpt>
      <trkpt lat="45.84332" lon="3.03574">
        <ele>601.9</ele>
        <time>2019-12-25T12:56:51.000Z</time>
      </trkpt>
      <trkpt lat="45.84334" lon="3.03565">
        <ele>602.3</ele>
        <time>2019-12-25T12:56:53.000Z</time>
      </trkpt>
      <trkpt lat="45.84335" lon="3.03559">
        <ele>602.6</ele>
        <time>2019-12-25T12:56:54.000Z</time>
      </trkpt>
      <trkpt lat="45.84336" lon="3.03551">
        <ele>602.9</ele>
        <time>2019-12-25T12:56:56.000Z</time>
      </trkpt>
      <trkpt lat="45.84336" lon="3.03546">
        <ele>603.1</ele>
        <time>2019-12-25T12:56:57.000Z</time>
      </trkpt>
      <trkpt lat="45.84337" lon="3.0354">
        <ele>603.3</ele>
        <time>2019-12-25T12:56:58.000Z</time>
      </trkpt>
      <trkpt lat="45.84338" lon="3.03534">
        <ele>603.5</ele>
        <time>2019-12-25T12:56:59.000Z</time>
      </trkpt>
      <trkpt lat="45.84338" lon="3.03528">
        <ele>603.8</ele>
        <time>2019-12-25T12:57:00.000Z</time>
      </trkpt>
      <trkpt lat="45.84339" lon="3.03522">
        <ele>604</ele>
        <time>2019-12-25T12:57:01.000Z</time>
      </trkpt>
      <trkpt lat="45.84339" lon="3.03516">
        <ele>604.3</ele>
        <time>2019-12-25T12:57:02.000Z</time>
      </trkpt>
      <trkpt lat="45.84339" lon="3.03508">
        <ele>604.7</ele>
        <time>2019-12-25T12:57:04.000Z</time>
      </trkpt>
      <trkpt lat="45.8434" lon="3.03502">
        <ele>605.1</ele>
        <time>2019-12-25T12:57:05.000Z</time>
      </trkpt>
      <trkpt lat="45.84341" lon="3.03496">
        <ele>605.4</ele>
        <time>2019-12-25T12:57:06.000Z</time>
      </trkpt>
      <trkpt lat="45.84343" lon="3.03488">
        <ele>605.9</ele>
        <time>2019-12-25T12:57:08.000Z</time>
      </trkpt>
      <trkpt lat="45.84345" lon="3.03482">
        <ele>606.3</ele>
        <time>2019-12-25T12:57:09.000Z</time>
      </trkpt>
      <trkpt lat="45.84348" lon="3.03473">
        <ele>606.9</ele>
        <time>2019-12-25T12:57:10.000Z</time>
      </trkpt>
      <trkpt lat="45.8435" lon="3.03468">
        <ele>607.2</ele>
        <time>2019-12-25T12:57:11.000Z</time>
      </trkpt>
      <trkpt lat="45.84352" lon="3.03463">
        <ele>607.5</ele>
        <time>2019-12-25T12:57:13.000Z</time>
      </trkpt>
      <trkpt lat="45.84356" lon="3.0346">
        <ele>607.9</ele>
        <time>2019-12-25T12:57:14.000Z</time>
      </trkpt>
      <trkpt lat="45.84361" lon="3.03455">
        <ele>608.4</ele>
        <time>2019-12-25T12:57:15.000Z</time>
      </trkpt>
      <trkpt lat="45.84365" lon="3.03453">
        <ele>608.8</ele>
        <time>2019-12-25T12:57:16.000Z</time>
      </trkpt>
      <trkpt lat="45.84369" lon="3.03451">
        <ele>609.1</ele>
        <time>2019-12-25T12:57:18.000Z</time>
      </trkpt>
      <trkpt lat="45.84375" lon="3.03452">
        <ele>609.7</ele>
        <time>2019-12-25T12:57:19.000Z</time>
      </trkpt>
      <trkpt lat="45.84379" lon="3.03454">
        <ele>610</ele>
        <time>2019-12-25T12:57:20.000Z</time>
      </trkpt>
      <trkpt lat="45.84386" lon="3.03455">
        <ele>610.5</ele>
        <time>2019-12-25T12:57:22.000Z</time>
      </trkpt>
      <trkpt lat="45.8439" lon="3.03456">
        <ele>610.8</ele>
        <time>2019-12-25T12:57:23.000Z</time>
      </trkpt>
      <trkpt lat="45.84396" lon="3.03458">
        <ele>611.3</ele>
        <time>2019-12-25T12:57:25.000Z</time>
      </trkpt>
      <trkpt lat="45.844" lon="3.03459">
        <ele>611.7</ele>
        <time>2019-12-25T12:57:26.000Z</time>
      </trkpt>
      <trkpt lat="45.84406" lon="3.03461">
        <ele>612.2</ele>
        <time>2019-12-25T12:57:27.000Z</time>
      </trkpt>
      <trkpt lat="45.84411" lon="3.03462">
        <ele>612.6</ele>
        <time>2019-12-25T12:57:29.000Z</time>
      </trkpt>
      <trkpt lat="45.84415" lon="3.03464">
        <ele>612.9</ele>
        <time>2019-12-25T12:57:30.000Z</time>
      </trkpt>
      <trkpt lat="45.84421" lon="3.03465">
        <ele>613.4</ele>
        <time>2019-12-25T12:57:31.000Z</time>
      </trkpt>
      <trkpt lat="45.84428" lon="3.03466">
        <ele>613.6</ele>
        <time>2019-12-25T12:57:33.000Z</time>
      </trkpt>
      <trkpt lat="45.84435" lon="3.03466">
        <ele>613.7</ele>
        <time>2019-12-25T12:57:35.000Z</time>
      </trkpt>
      <trkpt lat="45.8444" lon="3.03465">
        <ele>613.8</ele>
        <time>2019-12-25T12:57:36.000Z</time>
      </trkpt>
      <trkpt lat="45.84446" lon="3.03464">
        <ele>614</ele>
        <time>2019-12-25T12:57:37.000Z</time>
      </trkpt>
      <trkpt lat="45.8445" lon="3.03462">
        <ele>614.3</ele>
        <time>2019-12-25T12:57:38.000Z</time>
      </trkpt>
      <trkpt lat="45.84454" lon="3.0346">
        <ele>614.5</ele>
        <time>2019-12-25T12:57:40.000Z</time>
      </trkpt>
      <trkpt lat="45.84458" lon="3.03458">
        <ele>614.7</ele>
        <time>2019-12-25T12:57:41.000Z</time>
      </trkpt>
      <trkpt lat="45.84462" lon="3.03456">
        <ele>614.9</ele>
        <time>2019-12-25T12:57:42.000Z</time>
      </trkpt>
      <trkpt lat="45.84467" lon="3.03452">
        <ele>615.2</ele>
        <time>2019-12-25T12:57:43.000Z</time>
      </trkpt>
      <trkpt lat="45.84472" lon="3.03448">
        <ele>615.5</ele>
        <time>2019-12-25T12:57:45.000Z</time>
      </trkpt>
      <trkpt lat="45.84476" lon="3.03444">
        <ele>615.7</ele>
        <time>2019-12-25T12:57:46.000Z</time>
      </trkpt>
      <trkpt lat="45.8448" lon="3.03441">
        <ele>615.9</ele>
        <time>2019-12-25T12:57:47.000Z</time>
      </trkpt>
      <trkpt lat="45.84485" lon="3.03437">
        <ele>616.1</ele>
        <time>2019-12-25T12:57:48.000Z</time>
      </trkpt>
      <trkpt lat="45.84488" lon="3.03433">
        <ele>616.3</ele>
        <time>2019-12-25T12:57:49.000Z</time>
      </trkpt>
      <trkpt lat="45.84492" lon="3.0343">
        <ele>616.5</ele>
        <time>2019-12-25T12:57:51.000Z</time>
      </trkpt>
      <trkpt lat="45.84498" lon="3.03424">
        <ele>616.9</ele>
        <time>2019-12-25T12:57:52.000Z</time>
      </trkpt>
      <trkpt lat="45.84505" lon="3.03419">
        <ele>617.2</ele>
        <time>2019-12-25T12:57:54.000Z</time>
      </trkpt>
      <trkpt lat="45.84511" lon="3.03414">
        <ele>617.5</ele>
        <time>2019-12-25T12:57:56.000Z</time>
      </trkpt>
      <trkpt lat="45.84516" lon="3.03409">
        <ele>617.9</ele>
        <time>2019-12-25T12:57:57.000Z</time>
      </trkpt>
      <trkpt lat="45.84519" lon="3.03404">
        <ele>618.1</ele>
        <time>2019-12-25T12:57:58.000Z</time>
      </trkpt>
      <trkpt lat="45.84524" lon="3.03397">
        <ele>618.4</ele>
        <time>2019-12-25T12:58:00.000Z</time>
      </trkpt>
      <trkpt lat="45.84528" lon="3.03387">
        <ele>618.9</ele>
        <time>2019-12-25T12:58:02.000Z</time>
      </trkpt>
      <trkpt lat="45.8453" lon="3.03381">
        <ele>619.1</ele>
        <time>2019-12-25T12:58:03.000Z</time>
      </trkpt>
      <trkpt lat="45.8453" lon="3.03375">
        <ele>619.4</ele>
        <time>2019-12-25T12:58:05.000Z</time>
      </trkpt>
      <trkpt lat="45.84531" lon="3.03369">
        <ele>619.6</ele>
        <time>2019-12-25T12:58:06.000Z</time>
      </trkpt>
      <trkpt lat="45.8453" lon="3.03363">
        <ele>619.9</ele>
        <time>2019-12-25T12:58:07.000Z</time>
      </trkpt>
      <trkpt lat="45.84529" lon="3.03358">
        <ele>620.1</ele>
        <time>2019-12-25T12:58:08.000Z</time>
      </trkpt>
      <trkpt lat="45.84527" lon="3.03351">
        <ele>620.4</ele>
        <time>2019-12-25T12:58:09.000Z</time>
      </trkpt>
      <trkpt lat="45.84525" lon="3.03347">
        <ele>620.6</ele>
        <time>2019-12-25T12:58:10.000Z</time>
      </trkpt>
      <trkpt lat="45.84522" lon="3.03344">
        <ele>620.9</ele>
        <time>2019-12-25T12:58:11.000Z</time>
      </trkpt>
      <trkpt lat="45.84518" lon="3.03341">
        <ele>621.1</ele>
        <time>2019-12-25T12:58:12.000Z</time>
      </trkpt>
      <trkpt lat="45.84512" lon="3.03336">
        <ele>621.6</ele>
        <time>2019-12-25T12:58:14.000Z</time>
      </trkpt>
      <trkpt lat="45.84506" lon="3.03333">
        <ele>622</ele>
        <time>2019-12-25T12:58:16.000Z</time>
      </trkpt>
      <trkpt lat="45.845" lon="3.03332">
        <ele>622.3</ele>
        <time>2019-12-25T12:58:17.000Z</time>
      </trkpt>
      <trkpt lat="45.84496" lon="3.03333">
        <ele>622.6</ele>
        <time>2019-12-25T12:58:18.000Z</time>
      </trkpt>
      <trkpt lat="45.84491" lon="3.03333">
        <ele>622.9</ele>
        <time>2019-12-25T12:58:20.000Z</time>
      </trkpt>
      <trkpt lat="45.84486" lon="3.03334">
        <ele>623.1</ele>
        <time>2019-12-25T12:58:21.000Z</time>
      </trkpt>
      <trkpt lat="45.8448" lon="3.03336">
        <ele>623.4</ele>
        <time>2019-12-25T12:58:22.000Z</time>
      </trkpt>
      <trkpt lat="45.84476" lon="3.03336">
        <ele>623.7</ele>
        <time>2019-12-25T12:58:23.000Z</time>
      </trkpt>
      <trkpt lat="45.84472" lon="3.03337">
        <ele>623.9</ele>
        <time>2019-12-25T12:58:24.000Z</time>
      </trkpt>
      <trkpt lat="45.84466" lon="3.03337">
        <ele>624.1</ele>
        <time>2019-12-25T12:58:26.000Z</time>
      </trkpt>
      <trkpt lat="45.8446" lon="3.03338">
        <ele>624.4</ele>
        <time>2019-12-25T12:58:27.000Z</time>
      </trkpt>
      <trkpt lat="45.84456" lon="3.03339">
        <ele>624.6</ele>
        <time>2019-12-25T12:58:28.000Z</time>
      </trkpt>
      <trkpt lat="45.84452" lon="3.03339">
        <ele>624.8</ele>
        <time>2019-12-25T12:58:29.000Z</time>
      </trkpt>
      <trkpt lat="45.84447" lon="3.03338">
        <ele>624.9</ele>
        <time>2019-12-25T12:58:30.000Z</time>
      </trkpt>
      <trkpt lat="45.84443" lon="3.03337">
        <ele>625.1</ele>
        <time>2019-12-25T12:58:31.000Z</time>
      </trkpt>
      <trkpt lat="45.8444" lon="3.03335">
        <ele>625.3</ele>
        <time>2019-12-25T12:58:33.000Z</time>
      </trkpt>
      <trkpt lat="45.84435" lon="3.03331">
        <ele>625.6</ele>
        <time>2019-12-25T12:58:34.000Z</time>
      </trkpt>
      <trkpt lat="45.84432" lon="3.03327">
        <ele>625.8</ele>
        <time>2019-12-25T12:58:35.000Z</time>
      </trkpt>
      <trkpt lat="45.84429" lon="3.03322">
        <ele>626</ele>
        <time>2019-12-25T12:58:36.000Z</time>
      </trkpt>
      <trkpt lat="45.84427" lon="3.03315">
        <ele>626.4</ele>
        <time>2019-12-25T12:58:38.000Z</time>
      </trkpt>
      <trkpt lat="45.84425" lon="3.03306">
        <ele>627.1</ele>
        <time>2019-12-25T12:58:40.000Z</time>
      </trkpt>
      <trkpt lat="45.84425" lon="3.03302">
        <ele>627.3</ele>
        <time>2019-12-25T12:58:41.000Z</time>
      </trkpt>
      <trkpt lat="45.84426" lon="3.03296">
        <ele>627.6</ele>
        <time>2019-12-25T12:58:42.000Z</time>
      </trkpt>
      <trkpt lat="45.84427" lon="3.03289">
        <ele>627.9</ele>
        <time>2019-12-25T12:58:43.000Z</time>
      </trkpt>
      <trkpt lat="45.84429" lon="3.0328">
        <ele>628.4</ele>
        <time>2019-12-25T12:58:45.000Z</time>
      </trkpt>
      <trkpt lat="45.84433" lon="3.03273">
        <ele>628.8</ele>
        <time>2019-12-25T12:58:46.000Z</time>
      </trkpt>
      <trkpt lat="45.84436" lon="3.03265">
        <ele>629.2</ele>
        <time>2019-12-25T12:58:48.000Z</time>
      </trkpt>
      <trkpt lat="45.84438" lon="3.03259">
        <ele>629.6</ele>
        <time>2019-12-25T12:58:49.000Z</time>
      </trkpt>
      <trkpt lat="45.84442" lon="3.03249">
        <ele>630</ele>
        <time>2019-12-25T12:58:51.000Z</time>
      </trkpt>
      <trkpt lat="45.84443" lon="3.03241">
        <ele>630.1</ele>
        <time>2019-12-25T12:58:53.000Z</time>
      </trkpt>
      <trkpt lat="45.84445" lon="3.03235">
        <ele>630.3</ele>
        <time>2019-12-25T12:58:54.000Z</time>
      </trkpt>
      <trkpt lat="45.84449" lon="3.03224">
        <ele>630.6</ele>
        <time>2019-12-25T12:58:55.000Z</time>
      </trkpt>
      <trkpt lat="45.84454" lon="3.03212">
        <ele>631.6</ele>
        <time>2019-12-25T12:58:57.000Z</time>
      </trkpt>
      <trkpt lat="45.84456" lon="3.03205">
        <ele>631.9</ele>
        <time>2019-12-25T12:58:58.000Z</time>
      </trkpt>
      <trkpt lat="45.84458" lon="3.03199">
        <ele>632.2</ele>
        <time>2019-12-25T12:58:59.000Z</time>
      </trkpt>
      <trkpt lat="45.84463" lon="3.03187">
        <ele>632.7</ele>
        <time>2019-12-25T12:59:01.000Z</time>
      </trkpt>
      <trkpt lat="45.84466" lon="3.03181">
        <ele>633</ele>
        <time>2019-12-25T12:59:02.000Z</time>
      </trkpt>
      <trkpt lat="45.84472" lon="3.03168">
        <ele>633.6</ele>
        <time>2019-12-25T12:59:04.000Z</time>
      </trkpt>
      <trkpt lat="45.84475" lon="3.03162">
        <ele>633.9</ele>
        <time>2019-12-25T12:59:05.000Z</time>
      </trkpt>
      <trkpt lat="45.84481" lon="3.0315">
        <ele>634.4</ele>
        <time>2019-12-25T12:59:07.000Z</time>
      </trkpt>
      <trkpt lat="45.84484" lon="3.03143">
        <ele>634.7</ele>
        <time>2019-12-25T12:59:08.000Z</time>
      </trkpt>
      <trkpt lat="45.8449" lon="3.03129">
        <ele>635.2</ele>
        <time>2019-12-25T12:59:10.000Z</time>
      </trkpt>
      <trkpt lat="45.84492" lon="3.03121">
        <ele>635.4</ele>
        <time>2019-12-25T12:59:11.000Z</time>
      </trkpt>
      <trkpt lat="45.84493" lon="3.03114">
        <ele>635.6</ele>
        <time>2019-12-25T12:59:12.000Z</time>
      </trkpt>
      <trkpt lat="45.84495" lon="3.03107">
        <ele>635.9</ele>
        <time>2019-12-25T12:59:13.000Z</time>
      </trkpt>
      <trkpt lat="45.84497" lon="3.03091">
        <ele>636.2</ele>
        <time>2019-12-25T12:59:15.000Z</time>
      </trkpt>
      <trkpt lat="45.845" lon="3.03076">
        <ele>636.6</ele>
        <time>2019-12-25T12:59:17.000Z</time>
      </trkpt>
      <trkpt lat="45.84504" lon="3.0306">
        <ele>637.1</ele>
        <time>2019-12-25T12:59:19.000Z</time>
      </trkpt>
      <trkpt lat="45.84505" lon="3.03052">
        <ele>637.7</ele>
        <time>2019-12-25T12:59:20.000Z</time>
      </trkpt>
      <trkpt lat="45.84507" lon="3.03043">
        <ele>638</ele>
        <time>2019-12-25T12:59:21.000Z</time>
      </trkpt>
      <trkpt lat="45.8451" lon="3.03026">
        <ele>638.8</ele>
        <time>2019-12-25T12:59:23.000Z</time>
      </trkpt>
      <trkpt lat="45.84514" lon="3.03009">
        <ele>639.6</ele>
        <time>2019-12-25T12:59:25.000Z</time>
      </trkpt>
      <trkpt lat="45.84515" lon="3.03">
        <ele>640</ele>
        <time>2019-12-25T12:59:26.000Z</time>
      </trkpt>
      <trkpt lat="45.84519" lon="3.02983">
        <ele>640.6</ele>
        <time>2019-12-25T12:59:28.000Z</time>
      </trkpt>
      <trkpt lat="45.84521" lon="3.02967">
        <ele>641.1</ele>
        <time>2019-12-25T12:59:30.000Z</time>
      </trkpt>
      <trkpt lat="45.84521" lon="3.02958">
        <ele>641.4</ele>
        <time>2019-12-25T12:59:31.000Z</time>
      </trkpt>
      <trkpt lat="45.8452" lon="3.02939">
        <ele>642</ele>
        <time>2019-12-25T12:59:33.000Z</time>
      </trkpt>
      <trkpt lat="45.8452" lon="3.0293">
        <ele>642.3</ele>
        <time>2019-12-25T12:59:34.000Z</time>
      </trkpt>
      <trkpt lat="45.84519" lon="3.02912">
        <ele>642.9</ele>
        <time>2019-12-25T12:59:36.000Z</time>
      </trkpt>
      <trkpt lat="45.84518" lon="3.02894">
        <ele>643.5</ele>
        <time>2019-12-25T12:59:38.000Z</time>
      </trkpt>
      <trkpt lat="45.84518" lon="3.02886">
        <ele>643.8</ele>
        <time>2019-12-25T12:59:39.000Z</time>
      </trkpt>
      <trkpt lat="45.84516" lon="3.02868">
        <ele>644.4</ele>
        <time>2019-12-25T12:59:41.000Z</time>
      </trkpt>
      <trkpt lat="45.84516" lon="3.02859">
        <ele>644.7</ele>
        <time>2019-12-25T12:59:42.000Z</time>
      </trkpt>
      <trkpt lat="45.84514" lon="3.0285">
        <ele>644.9</ele>
        <time>2019-12-25T12:59:43.000Z</time>
      </trkpt>
      <trkpt lat="45.84513" lon="3.02841">
        <ele>645.1</ele>
        <time>2019-12-25T12:59:44.000Z</time>
      </trkpt>
      <trkpt lat="45.84511" lon="3.02823">
        <ele>645.6</ele>
        <time>2019-12-25T12:59:46.000Z</time>
      </trkpt>
      <trkpt lat="45.84508" lon="3.02805">
        <ele>645.9</ele>
        <time>2019-12-25T12:59:48.000Z</time>
      </trkpt>
      <trkpt lat="45.84505" lon="3.02787">
        <ele>646.2</ele>
        <time>2019-12-25T12:59:50.000Z</time>
      </trkpt>
      <trkpt lat="45.84504" lon="3.02778">
        <ele>646.4</ele>
        <time>2019-12-25T12:59:51.000Z</time>
      </trkpt>
      <trkpt lat="45.84501" lon="3.0276">
        <ele>646.7</ele>
        <time>2019-12-25T12:59:53.000Z</time>
      </trkpt>
      <trkpt lat="45.845" lon="3.02751">
        <ele>646.9</ele>
        <time>2019-12-25T12:59:54.000Z</time>
      </trkpt>
      <trkpt lat="45.84497" lon="3.02733">
        <ele>647.1</ele>
        <time>2019-12-25T12:59:56.000Z</time>
      </trkpt>
      <trkpt lat="45.84495" lon="3.02725">
        <ele>647.2</ele>
        <time>2019-12-25T12:59:57.000Z</time>
      </trkpt>
      <trkpt lat="45.84493" lon="3.02716">
        <ele>647.3</ele>
        <time>2019-12-25T12:59:58.000Z</time>
      </trkpt>
      <trkpt lat="45.84488" lon="3.02698">
        <ele>647.5</ele>
        <time>2019-12-25T13:00:00.000Z</time>
      </trkpt>
      <trkpt lat="45.84482" lon="3.02683">
        <ele>647.8</ele>
        <time>2019-12-25T13:00:02.000Z</time>
      </trkpt>
      <trkpt lat="45.84479" lon="3.02675">
        <ele>647.9</ele>
        <time>2019-12-25T13:00:03.000Z</time>
      </trkpt>
      <trkpt lat="45.84476" lon="3.02669">
        <ele>647.5</ele>
        <time>2019-12-25T13:00:04.000Z</time>
      </trkpt>
      <trkpt lat="45.8447" lon="3.02655">
        <ele>646.6</ele>
        <time>2019-12-25T13:00:06.000Z</time>
      </trkpt>
      <trkpt lat="45.84463" lon="3.0264">
        <ele>646.5</ele>
        <time>2019-12-25T13:00:08.000Z</time>
      </trkpt>
      <trkpt lat="45.84456" lon="3.02626">
        <ele>646.4</ele>
        <time>2019-12-25T13:00:10.000Z</time>
      </trkpt>
      <trkpt lat="45.84448" lon="3.02612">
        <ele>646.7</ele>
        <time>2019-12-25T13:00:12.000Z</time>
      </trkpt>
      <trkpt lat="45.84441" lon="3.02598">
        <ele>647.2</ele>
        <time>2019-12-25T13:00:14.000Z</time>
      </trkpt>
      <trkpt lat="45.84433" lon="3.02584">
        <ele>647.2</ele>
        <time>2019-12-25T13:00:16.000Z</time>
      </trkpt>
      <trkpt lat="45.84425" lon="3.02571">
        <ele>647.4</ele>
        <time>2019-12-25T13:00:18.000Z</time>
      </trkpt>
      <trkpt lat="45.84422" lon="3.02564">
        <ele>647.5</ele>
        <time>2019-12-25T13:00:19.000Z</time>
      </trkpt>
      <trkpt lat="45.84418" lon="3.02558">
        <ele>647.6</ele>
        <time>2019-12-25T13:00:20.000Z</time>
      </trkpt>
      <trkpt lat="45.84413" lon="3.02545">
        <ele>648.3</ele>
        <time>2019-12-25T13:00:22.000Z</time>
      </trkpt>
      <trkpt lat="45.84412" lon="3.0253">
        <ele>648.6</ele>
        <time>2019-12-25T13:00:24.000Z</time>
      </trkpt>
      <trkpt lat="45.84413" lon="3.02516">
        <ele>649.3</ele>
        <time>2019-12-25T13:00:26.000Z</time>
      </trkpt>
      <trkpt lat="45.84417" lon="3.02502">
        <ele>650.5</ele>
        <time>2019-12-25T13:00:28.000Z</time>
      </trkpt>
      <trkpt lat="45.84421" lon="3.0249">
        <ele>651.4</ele>
        <time>2019-12-25T13:00:30.000Z</time>
      </trkpt>
      <trkpt lat="45.84425" lon="3.02477">
        <ele>652.2</ele>
        <time>2019-12-25T13:00:32.000Z</time>
      </trkpt>
      <trkpt lat="45.84428" lon="3.02464">
        <ele>653.4</ele>
        <time>2019-12-25T13:00:34.000Z</time>
      </trkpt>
      <trkpt lat="45.84431" lon="3.02451">
        <ele>654.4</ele>
        <time>2019-12-25T13:00:36.000Z</time>
      </trkpt>
      <trkpt lat="45.84432" lon="3.02437">
        <ele>655.2</ele>
        <time>2019-12-25T13:00:38.000Z</time>
      </trkpt>
      <trkpt lat="45.84433" lon="3.02423">
        <ele>656.3</ele>
        <time>2019-12-25T13:00:40.000Z</time>
      </trkpt>
      <trkpt lat="45.84432" lon="3.02416">
        <ele>656.8</ele>
        <time>2019-12-25T13:00:41.000Z</time>
      </trkpt>
      <trkpt lat="45.84432" lon="3.02409">
        <ele>657.2</ele>
        <time>2019-12-25T13:00:42.000Z</time>
      </trkpt>
      <trkpt lat="45.84429" lon="3.02395">
        <ele>657.9</ele>
        <time>2019-12-25T13:00:44.000Z</time>
      </trkpt>
      <trkpt lat="45.84428" lon="3.02381">
        <ele>658.9</ele>
        <time>2019-12-25T13:00:46.000Z</time>
      </trkpt>
      <trkpt lat="45.84428" lon="3.02374">
        <ele>659.3</ele>
        <time>2019-12-25T13:00:47.000Z</time>
      </trkpt>
      <trkpt lat="45.84427" lon="3.0236">
        <ele>660.2</ele>
        <time>2019-12-25T13:00:49.000Z</time>
      </trkpt>
      <trkpt lat="45.84426" lon="3.02353">
        <ele>660.8</ele>
        <time>2019-12-25T13:00:50.000Z</time>
      </trkpt>
      <trkpt lat="45.84424" lon="3.02339">
        <ele>661.9</ele>
        <time>2019-12-25T13:00:52.000Z</time>
      </trkpt>
      <trkpt lat="45.84422" lon="3.02324">
        <ele>663</ele>
        <time>2019-12-25T13:00:54.000Z</time>
      </trkpt>
      <trkpt lat="45.84421" lon="3.02309">
        <ele>664.3</ele>
        <time>2019-12-25T13:00:56.000Z</time>
      </trkpt>
      <trkpt lat="45.84419" lon="3.02294">
        <ele>665.6</ele>
        <time>2019-12-25T13:00:58.000Z</time>
      </trkpt>
      <trkpt lat="45.84418" lon="3.0228">
        <ele>666.7</ele>
        <time>2019-12-25T13:01:00.000Z</time>
      </trkpt>
      <trkpt lat="45.84418" lon="3.02266">
        <ele>667.7</ele>
        <time>2019-12-25T13:01:02.000Z</time>
      </trkpt>
      <trkpt lat="45.84419" lon="3.02253">
        <ele>668.6</ele>
        <time>2019-12-25T13:01:04.000Z</time>
      </trkpt>
      <trkpt lat="45.84419" lon="3.02247">
        <ele>669</ele>
        <time>2019-12-25T13:01:05.000Z</time>
      </trkpt>
      <trkpt lat="45.84413" lon="3.0224">
        <ele>669.6</ele>
        <time>2019-12-25T13:01:07.000Z</time>
      </trkpt>
      <trkpt lat="45.84404" lon="3.02242">
        <ele>669.1</ele>
        <time>2019-12-25T13:01:09.000Z</time>
      </trkpt>
      <trkpt lat="45.844" lon="3.02247">
        <ele>668.8</ele>
        <time>2019-12-25T13:01:10.000Z</time>
      </trkpt>
      <trkpt lat="45.8439" lon="3.02255">
        <ele>668.2</ele>
        <time>2019-12-25T13:01:12.000Z</time>
      </trkpt>
      <trkpt lat="45.84379" lon="3.02265">
        <ele>667.5</ele>
        <time>2019-12-25T13:01:14.000Z</time>
      </trkpt>
      <trkpt lat="45.84373" lon="3.02272">
        <ele>667.1</ele>
        <time>2019-12-25T13:01:15.000Z</time>
      </trkpt>
      <trkpt lat="45.84362" lon="3.02286">
        <ele>666.2</ele>
        <time>2019-12-25T13:01:17.000Z</time>
      </trkpt>
      <trkpt lat="45.84356" lon="3.02294">
        <ele>665.8</ele>
        <time>2019-12-25T13:01:18.000Z</time>
      </trkpt>
      <trkpt lat="45.84349" lon="3.02303">
        <ele>665.3</ele>
        <time>2019-12-25T13:01:19.000Z</time>
      </trkpt>
      <trkpt lat="45.84335" lon="3.02319">
        <ele>664.3</ele>
        <time>2019-12-25T13:01:21.000Z</time>
      </trkpt>
      <trkpt lat="45.84318" lon="3.02332">
        <ele>663.3</ele>
        <time>2019-12-25T13:01:23.000Z</time>
      </trkpt>
      <trkpt lat="45.843" lon="3.02338">
        <ele>662.2</ele>
        <time>2019-12-25T13:01:25.000Z</time>
      </trkpt>
      <trkpt lat="45.84289" lon="3.02337">
        <ele>661.6</ele>
        <time>2019-12-25T13:01:26.000Z</time>
      </trkpt>
      <trkpt lat="45.8427" lon="3.02328">
        <ele>660.6</ele>
        <time>2019-12-25T13:01:28.000Z</time>
      </trkpt>
      <trkpt lat="45.84253" lon="3.02309">
        <ele>659.5</ele>
        <time>2019-12-25T13:01:30.000Z</time>
      </trkpt>
      <trkpt lat="45.84236" lon="3.0229">
        <ele>658.6</ele>
        <time>2019-12-25T13:01:32.000Z</time>
      </trkpt>
      <trkpt lat="45.84227" lon="3.0228">
        <ele>658.2</ele>
        <time>2019-12-25T13:01:33.000Z</time>
      </trkpt>
      <trkpt lat="45.84209" lon="3.0226">
        <ele>657.2</ele>
        <time>2019-12-25T13:01:35.000Z</time>
      </trkpt>
      <trkpt lat="45.84189" lon="3.02246">
        <ele>656.1</ele>
        <time>2019-12-25T13:01:37.000Z</time>
      </trkpt>
      <trkpt lat="45.84167" lon="3.02238">
        <ele>654.9</ele>
        <time>2019-12-25T13:01:39.000Z</time>
      </trkpt>
      <trkpt lat="45.84155" lon="3.02236">
        <ele>654.3</ele>
        <time>2019-12-25T13:01:40.000Z</time>
      </trkpt>
      <trkpt lat="45.84132" lon="3.02233">
        <ele>653.4</ele>
        <time>2019-12-25T13:01:42.000Z</time>
      </trkpt>
      <trkpt lat="45.84109" lon="3.02239">
        <ele>652.4</ele>
        <time>2019-12-25T13:01:44.000Z</time>
      </trkpt>
      <trkpt lat="45.84099" lon="3.02246">
        <ele>651.8</ele>
        <time>2019-12-25T13:01:45.000Z</time>
      </trkpt>
      <trkpt lat="45.84081" lon="3.02266">
        <ele>650.8</ele>
        <time>2019-12-25T13:01:47.000Z</time>
      </trkpt>
      <trkpt lat="45.84065" lon="3.02286">
        <ele>650</ele>
        <time>2019-12-25T13:01:49.000Z</time>
      </trkpt>
      <trkpt lat="45.84045" lon="3.0229">
        <ele>649.2</ele>
        <time>2019-12-25T13:01:51.000Z</time>
      </trkpt>
      <trkpt lat="45.84027" lon="3.02282">
        <ele>649.4</ele>
        <time>2019-12-25T13:01:53.000Z</time>
      </trkpt>
      <trkpt lat="45.84014" lon="3.02273">
        <ele>649.8</ele>
        <time>2019-12-25T13:01:55.000Z</time>
      </trkpt>
      <trkpt lat="45.84002" lon="3.02267">
        <ele>650.3</ele>
        <time>2019-12-25T13:01:57.000Z</time>
      </trkpt>
      <trkpt lat="45.8399" lon="3.02262">
        <ele>651</ele>
        <time>2019-12-25T13:01:59.000Z</time>
      </trkpt>
      <trkpt lat="45.83985" lon="3.0226">
        <ele>651.6</ele>
        <time>2019-12-25T13:02:00.000Z</time>
      </trkpt>
      <trkpt lat="45.83975" lon="3.02257">
        <ele>652.5</ele>
        <time>2019-12-25T13:02:02.000Z</time>
      </trkpt>
      <trkpt lat="45.83966" lon="3.02258">
        <ele>653.3</ele>
        <time>2019-12-25T13:02:04.000Z</time>
      </trkpt>
      <trkpt lat="45.83958" lon="3.02262">
        <ele>654.1</ele>
        <time>2019-12-25T13:02:06.000Z</time>
      </trkpt>
      <trkpt lat="45.83954" lon="3.02264">
        <ele>654.5</ele>
        <time>2019-12-25T13:02:07.000Z</time>
      </trkpt>
      <trkpt lat="45.83946" lon="3.02267">
        <ele>655.2</ele>
        <time>2019-12-25T13:02:09.000Z</time>
      </trkpt>
      <trkpt lat="45.83941" lon="3.0227">
        <ele>655.6</ele>
        <time>2019-12-25T13:02:11.000Z</time>
      </trkpt>
      <trkpt lat="45.83938" lon="3.02271">
        <ele>656</ele>
        <time>2019-12-25T13:02:12.000Z</time>
      </trkpt>
      <trkpt lat="45.83933" lon="3.02274">
        <ele>656.6</ele>
        <time>2019-12-25T13:02:13.000Z</time>
      </trkpt>
      <trkpt lat="45.83928" lon="3.02277">
        <ele>657</ele>
        <time>2019-12-25T13:02:14.000Z</time>
      </trkpt>
      <trkpt lat="45.83921" lon="3.02283">
        <ele>657.7</ele>
        <time>2019-12-25T13:02:17.000Z</time>
      </trkpt>
      <trkpt lat="45.83918" lon="3.02285">
        <ele>658</ele>
        <time>2019-12-25T13:02:18.000Z</time>
      </trkpt>
      <trkpt lat="45.83913" lon="3.02289">
        <ele>658.5</ele>
        <time>2019-12-25T13:02:19.000Z</time>
      </trkpt>
      <trkpt lat="45.83909" lon="3.02291">
        <ele>658.9</ele>
        <time>2019-12-25T13:02:20.000Z</time>
      </trkpt>
      <trkpt lat="45.83905" lon="3.02294">
        <ele>659.1</ele>
        <time>2019-12-25T13:02:21.000Z</time>
      </trkpt>
      <trkpt lat="45.83902" lon="3.02296">
        <ele>659.4</ele>
        <time>2019-12-25T13:02:23.000Z</time>
      </trkpt>
      <trkpt lat="45.83898" lon="3.02298">
        <ele>659.6</ele>
        <time>2019-12-25T13:02:24.000Z</time>
      </trkpt>
      <trkpt lat="45.83895" lon="3.023">
        <ele>659.9</ele>
        <time>2019-12-25T13:02:25.000Z</time>
      </trkpt>
      <trkpt lat="45.8389" lon="3.02304">
        <ele>660.3</ele>
        <time>2019-12-25T13:02:27.000Z</time>
      </trkpt>
      <trkpt lat="45.83886" lon="3.02309">
        <ele>660.7</ele>
        <time>2019-12-25T13:02:28.000Z</time>
      </trkpt>
      <trkpt lat="45.83884" lon="3.02315">
        <ele>661.3</ele>
        <time>2019-12-25T13:02:30.000Z</time>
      </trkpt>
      <trkpt lat="45.83883" lon="3.02319">
        <ele>661.5</ele>
        <time>2019-12-25T13:02:31.000Z</time>
      </trkpt>
      <trkpt lat="45.8388" lon="3.02326">
        <ele>662</ele>
        <time>2019-12-25T13:02:33.000Z</time>
      </trkpt>
      <trkpt lat="45.8388" lon="3.02333">
        <ele>662.4</ele>
        <time>2019-12-25T13:02:34.000Z</time>
      </trkpt>
      <trkpt lat="45.8388" lon="3.02338">
        <ele>662.7</ele>
        <time>2019-12-25T13:02:35.000Z</time>
      </trkpt>
      <trkpt lat="45.83881" lon="3.02344">
        <ele>663</ele>
        <time>2019-12-25T13:02:36.000Z</time>
      </trkpt>
      <trkpt lat="45.83884" lon="3.02354">
        <ele>663.5</ele>
        <time>2019-12-25T13:02:38.000Z</time>
      </trkpt>
      <trkpt lat="45.83886" lon="3.0236">
        <ele>663.9</ele>
        <time>2019-12-25T13:02:39.000Z</time>
      </trkpt>
      <trkpt lat="45.83889" lon="3.02366">
        <ele>664.2</ele>
        <time>2019-12-25T13:02:40.000Z</time>
      </trkpt>
      <trkpt lat="45.83894" lon="3.02375">
        <ele>664.7</ele>
        <time>2019-12-25T13:02:42.000Z</time>
      </trkpt>
      <trkpt lat="45.83897" lon="3.0238">
        <ele>665.1</ele>
        <time>2019-12-25T13:02:43.000Z</time>
      </trkpt>
      <trkpt lat="45.83899" lon="3.02386">
        <ele>665.4</ele>
        <time>2019-12-25T13:02:44.000Z</time>
      </trkpt>
      <trkpt lat="45.83901" lon="3.0239">
        <ele>665.6</ele>
        <time>2019-12-25T13:02:45.000Z</time>
      </trkpt>
      <trkpt lat="45.83906" lon="3.02397">
        <ele>665.9</ele>
        <time>2019-12-25T13:02:47.000Z</time>
      </trkpt>
      <trkpt lat="45.8391" lon="3.02403">
        <ele>666.1</ele>
        <time>2019-12-25T13:02:48.000Z</time>
      </trkpt>
      <trkpt lat="45.83914" lon="3.02411">
        <ele>666.4</ele>
        <time>2019-12-25T13:02:50.000Z</time>
      </trkpt>
      <trkpt lat="45.83916" lon="3.02415">
        <ele>666.5</ele>
        <time>2019-12-25T13:02:51.000Z</time>
      </trkpt>
      <trkpt lat="45.83918" lon="3.02424">
        <ele>666.8</ele>
        <time>2019-12-25T13:02:52.000Z</time>
      </trkpt>
      <trkpt lat="45.83917" lon="3.02434">
        <ele>667.1</ele>
        <time>2019-12-25T13:02:54.000Z</time>
      </trkpt>
      <trkpt lat="45.83916" lon="3.02442">
        <ele>667.4</ele>
        <time>2019-12-25T13:02:56.000Z</time>
      </trkpt>
      <trkpt lat="45.83914" lon="3.02449">
        <ele>667.7</ele>
        <time>2019-12-25T13:02:57.000Z</time>
      </trkpt>
      <trkpt lat="45.83911" lon="3.02454">
        <ele>668.1</ele>
        <time>2019-12-25T13:02:59.000Z</time>
      </trkpt>
      <trkpt lat="45.83907" lon="3.02458">
        <ele>668.4</ele>
        <time>2019-12-25T13:03:00.000Z</time>
      </trkpt>
      <trkpt lat="45.83903" lon="3.02462">
        <ele>668.7</ele>
        <time>2019-12-25T13:03:01.000Z</time>
      </trkpt>
      <trkpt lat="45.839" lon="3.02464">
        <ele>668.9</ele>
        <time>2019-12-25T13:03:02.000Z</time>
      </trkpt>
      <trkpt lat="45.83896" lon="3.02466">
        <ele>669.2</ele>
        <time>2019-12-25T13:03:03.000Z</time>
      </trkpt>
      <trkpt lat="45.83889" lon="3.02468">
        <ele>669.6</ele>
        <time>2019-12-25T13:03:05.000Z</time>
      </trkpt>
      <trkpt lat="45.83883" lon="3.02469">
        <ele>669.9</ele>
        <time>2019-12-25T13:03:06.000Z</time>
      </trkpt>
      <trkpt lat="45.83878" lon="3.02469">
        <ele>670.2</ele>
        <time>2019-12-25T13:03:07.000Z</time>
      </trkpt>
      <trkpt lat="45.83873" lon="3.02468">
        <ele>670.5</ele>
        <time>2019-12-25T13:03:09.000Z</time>
      </trkpt>
      <trkpt lat="45.83867" lon="3.02468">
        <ele>670.9</ele>
        <time>2019-12-25T13:03:10.000Z</time>
      </trkpt>
      <trkpt lat="45.83863" lon="3.02468">
        <ele>671.1</ele>
        <time>2019-12-25T13:03:11.000Z</time>
      </trkpt>
      <trkpt lat="45.83857" lon="3.02469">
        <ele>671.5</ele>
        <time>2019-12-25T13:03:13.000Z</time>
      </trkpt>
      <trkpt lat="45.83852" lon="3.02469">
        <ele>671.8</ele>
        <time>2019-12-25T13:03:14.000Z</time>
      </trkpt>
      <trkpt lat="45.83845" lon="3.0247">
        <ele>672.3</ele>
        <time>2019-12-25T13:03:16.000Z</time>
      </trkpt>
      <trkpt lat="45.83841" lon="3.02471">
        <ele>672.5</ele>
        <time>2019-12-25T13:03:17.000Z</time>
      </trkpt>
      <trkpt lat="45.83835" lon="3.02473">
        <ele>672.8</ele>
        <time>2019-12-25T13:03:18.000Z</time>
      </trkpt>
      <trkpt lat="45.83831" lon="3.02476">
        <ele>673.1</ele>
        <time>2019-12-25T13:03:20.000Z</time>
      </trkpt>
      <trkpt lat="45.83827" lon="3.02478">
        <ele>673.3</ele>
        <time>2019-12-25T13:03:21.000Z</time>
      </trkpt>
      <trkpt lat="45.83824" lon="3.02481">
        <ele>673.5</ele>
        <time>2019-12-25T13:03:22.000Z</time>
      </trkpt>
      <trkpt lat="45.8382" lon="3.02484">
        <ele>673.8</ele>
        <time>2019-12-25T13:03:23.000Z</time>
      </trkpt>
      <trkpt lat="45.83816" lon="3.02487">
        <ele>674</ele>
        <time>2019-12-25T13:03:24.000Z</time>
      </trkpt>
      <trkpt lat="45.83813" lon="3.0249">
        <ele>674.3</ele>
        <time>2019-12-25T13:03:25.000Z</time>
      </trkpt>
      <trkpt lat="45.83808" lon="3.02495">
        <ele>674.7</ele>
        <time>2019-12-25T13:03:27.000Z</time>
      </trkpt>
      <trkpt lat="45.83805" lon="3.02498">
        <ele>675</ele>
        <time>2019-12-25T13:03:28.000Z</time>
      </trkpt>
      <trkpt lat="45.83799" lon="3.02503">
        <ele>675.4</ele>
        <time>2019-12-25T13:03:30.000Z</time>
      </trkpt>
      <trkpt lat="45.83796" lon="3.02506">
        <ele>675.6</ele>
        <time>2019-12-25T13:03:31.000Z</time>
      </trkpt>
      <trkpt lat="45.83791" lon="3.02511">
        <ele>676</ele>
        <time>2019-12-25T13:03:32.000Z</time>
      </trkpt>
      <trkpt lat="45.83786" lon="3.02516">
        <ele>676.4</ele>
        <time>2019-12-25T13:03:34.000Z</time>
      </trkpt>
      <trkpt lat="45.83783" lon="3.02519">
        <ele>676.7</ele>
        <time>2019-12-25T13:03:35.000Z</time>
      </trkpt>
      <trkpt lat="45.83779" lon="3.02523">
        <ele>677</ele>
        <time>2019-12-25T13:03:37.000Z</time>
      </trkpt>
      <trkpt lat="45.83775" lon="3.02525">
        <ele>677.3</ele>
        <time>2019-12-25T13:03:38.000Z</time>
      </trkpt>
      <trkpt lat="45.8377" lon="3.02529">
        <ele>677.7</ele>
        <time>2019-12-25T13:03:39.000Z</time>
      </trkpt>
      <trkpt lat="45.83766" lon="3.02531">
        <ele>678</ele>
        <time>2019-12-25T13:03:41.000Z</time>
      </trkpt>
      <trkpt lat="45.83761" lon="3.02533">
        <ele>678.5</ele>
        <time>2019-12-25T13:03:42.000Z</time>
      </trkpt>
      <trkpt lat="45.83757" lon="3.02533">
        <ele>678.8</ele>
        <time>2019-12-25T13:03:43.000Z</time>
      </trkpt>
      <trkpt lat="45.83753" lon="3.02533">
        <ele>679</ele>
        <time>2019-12-25T13:03:45.000Z</time>
      </trkpt>
      <trkpt lat="45.83749" lon="3.02533">
        <ele>679.3</ele>
        <time>2019-12-25T13:03:46.000Z</time>
      </trkpt>
      <trkpt lat="45.83745" lon="3.02533">
        <ele>679.6</ele>
        <time>2019-12-25T13:03:47.000Z</time>
      </trkpt>
      <trkpt lat="45.8374" lon="3.02532">
        <ele>679.9</ele>
        <time>2019-12-25T13:03:48.000Z</time>
      </trkpt>
      <trkpt lat="45.83737" lon="3.02532">
        <ele>680.1</ele>
        <time>2019-12-25T13:03:49.000Z</time>
      </trkpt>
      <trkpt lat="45.83733" lon="3.02532">
        <ele>680.4</ele>
        <time>2019-12-25T13:03:51.000Z</time>
      </trkpt>
      <trkpt lat="45.83729" lon="3.02531">
        <ele>680.7</ele>
        <time>2019-12-25T13:03:52.000Z</time>
      </trkpt>
      <trkpt lat="45.83726" lon="3.02529">
        <ele>680.9</ele>
        <time>2019-12-25T13:03:53.000Z</time>
      </trkpt>
      <trkpt lat="45.83723" lon="3.02528">
        <ele>681.1</ele>
        <time>2019-12-25T13:03:54.000Z</time>
      </trkpt>
      <trkpt lat="45.8372" lon="3.02526">
        <ele>681.4</ele>
        <time>2019-12-25T13:03:55.000Z</time>
      </trkpt>
      <trkpt lat="45.83717" lon="3.02523">
        <ele>681.7</ele>
        <time>2019-12-25T13:03:57.000Z</time>
      </trkpt>
      <trkpt lat="45.83713" lon="3.02519">
        <ele>682</ele>
        <time>2019-12-25T13:03:58.000Z</time>
      </trkpt>
      <trkpt lat="45.83709" lon="3.02514">
        <ele>682.3</ele>
        <time>2019-12-25T13:04:00.000Z</time>
      </trkpt>
      <trkpt lat="45.83707" lon="3.0251">
        <ele>682.5</ele>
        <time>2019-12-25T13:04:01.000Z</time>
      </trkpt>
      <trkpt lat="45.83705" lon="3.02505">
        <ele>682.8</ele>
        <time>2019-12-25T13:04:02.000Z</time>
      </trkpt>
      <trkpt lat="45.83702" lon="3.025">
        <ele>683.1</ele>
        <time>2019-12-25T13:04:03.000Z</time>
      </trkpt>
      <trkpt lat="45.837" lon="3.02495">
        <ele>683.5</ele>
        <time>2019-12-25T13:04:04.000Z</time>
      </trkpt>
      <trkpt lat="45.83698" lon="3.0249">
        <ele>683.7</ele>
        <time>2019-12-25T13:04:05.000Z</time>
      </trkpt>
      <trkpt lat="45.83696" lon="3.02483">
        <ele>684</ele>
        <time>2019-12-25T13:04:07.000Z</time>
      </trkpt>
      <trkpt lat="45.83694" lon="3.02474">
        <ele>684.3</ele>
        <time>2019-12-25T13:04:08.000Z</time>
      </trkpt>
      <trkpt lat="45.83693" lon="3.02469">
        <ele>684.6</ele>
        <time>2019-12-25T13:04:09.000Z</time>
      </trkpt>
      <trkpt lat="45.83691" lon="3.0246">
        <ele>685</ele>
        <time>2019-12-25T13:04:11.000Z</time>
      </trkpt>
      <trkpt lat="45.83691" lon="3.02454">
        <ele>685.3</ele>
        <time>2019-12-25T13:04:12.000Z</time>
      </trkpt>
      <trkpt lat="45.8369" lon="3.02444">
        <ele>685.7</ele>
        <time>2019-12-25T13:04:14.000Z</time>
      </trkpt>
      <trkpt lat="45.83688" lon="3.02435">
        <ele>686.1</ele>
        <time>2019-12-25T13:04:15.000Z</time>
      </trkpt>
      <trkpt lat="45.83688" lon="3.02428">
        <ele>686.4</ele>
        <time>2019-12-25T13:04:17.000Z</time>
      </trkpt>
      <trkpt lat="45.83687" lon="3.02422">
        <ele>686.6</ele>
        <time>2019-12-25T13:04:18.000Z</time>
      </trkpt>
      <trkpt lat="45.83686" lon="3.02414">
        <ele>687</ele>
        <time>2019-12-25T13:04:19.000Z</time>
      </trkpt>
      <trkpt lat="45.83685" lon="3.02408">
        <ele>687.3</ele>
        <time>2019-12-25T13:04:20.000Z</time>
      </trkpt>
      <trkpt lat="45.83683" lon="3.02399">
        <ele>687.7</ele>
        <time>2019-12-25T13:04:22.000Z</time>
      </trkpt>
      <trkpt lat="45.83683" lon="3.02393">
        <ele>688</ele>
        <time>2019-12-25T13:04:23.000Z</time>
      </trkpt>
      <trkpt lat="45.83681" lon="3.02387">
        <ele>688.3</ele>
        <time>2019-12-25T13:04:24.000Z</time>
      </trkpt>
      <trkpt lat="45.8368" lon="3.02381">
        <ele>688.6</ele>
        <time>2019-12-25T13:04:25.000Z</time>
      </trkpt>
      <trkpt lat="45.8368" lon="3.02375">
        <ele>689</ele>
        <time>2019-12-25T13:04:27.000Z</time>
      </trkpt>
      <trkpt lat="45.83679" lon="3.02368">
        <ele>689.2</ele>
        <time>2019-12-25T13:04:28.000Z</time>
      </trkpt>
      <trkpt lat="45.83678" lon="3.02359">
        <ele>689.6</ele>
        <time>2019-12-25T13:04:29.000Z</time>
      </trkpt>
      <trkpt lat="45.83676" lon="3.02351">
        <ele>690</ele>
        <time>2019-12-25T13:04:31.000Z</time>
      </trkpt>
      <trkpt lat="45.83675" lon="3.02341">
        <ele>690.5</ele>
        <time>2019-12-25T13:04:33.000Z</time>
      </trkpt>
      <trkpt lat="45.83675" lon="3.02335">
        <ele>690.7</ele>
        <time>2019-12-25T13:04:34.000Z</time>
      </trkpt>
      <trkpt lat="45.83675" lon="3.02329">
        <ele>691</ele>
        <time>2019-12-25T13:04:35.000Z</time>
      </trkpt>
      <trkpt lat="45.83674" lon="3.0232">
        <ele>691.3</ele>
        <time>2019-12-25T13:04:36.000Z</time>
      </trkpt>
      <trkpt lat="45.83675" lon="3.02313">
        <ele>691.6</ele>
        <time>2019-12-25T13:04:38.000Z</time>
      </trkpt>
      <trkpt lat="45.83676" lon="3.02307">
        <ele>691.8</ele>
        <time>2019-12-25T13:04:39.000Z</time>
      </trkpt>
      <trkpt lat="45.83678" lon="3.02302">
        <ele>692.1</ele>
        <time>2019-12-25T13:04:40.000Z</time>
      </trkpt>
      <trkpt lat="45.83679" lon="3.02296">
        <ele>692.3</ele>
        <time>2019-12-25T13:04:41.000Z</time>
      </trkpt>
      <trkpt lat="45.83681" lon="3.02289">
        <ele>692.6</ele>
        <time>2019-12-25T13:04:42.000Z</time>
      </trkpt>
      <trkpt lat="45.83684" lon="3.02281">
        <ele>693.1</ele>
        <time>2019-12-25T13:04:44.000Z</time>
      </trkpt>
      <trkpt lat="45.83686" lon="3.02276">
        <ele>693.3</ele>
        <time>2019-12-25T13:04:45.000Z</time>
      </trkpt>
      <trkpt lat="45.83689" lon="3.02269">
        <ele>693.6</ele>
        <time>2019-12-25T13:04:46.000Z</time>
      </trkpt>
      <trkpt lat="45.83692" lon="3.02264">
        <ele>693.8</ele>
        <time>2019-12-25T13:04:47.000Z</time>
      </trkpt>
      <trkpt lat="45.83695" lon="3.02258">
        <ele>694</ele>
        <time>2019-12-25T13:04:49.000Z</time>
      </trkpt>
      <trkpt lat="45.83699" lon="3.02251">
        <ele>694.3</ele>
        <time>2019-12-25T13:04:50.000Z</time>
      </trkpt>
      <trkpt lat="45.83702" lon="3.02247">
        <ele>694.5</ele>
        <time>2019-12-25T13:04:51.000Z</time>
      </trkpt>
      <trkpt lat="45.83707" lon="3.02238">
        <ele>694.7</ele>
        <time>2019-12-25T13:04:53.000Z</time>
      </trkpt>
      <trkpt lat="45.83713" lon="3.02229">
        <ele>695.1</ele>
        <time>2019-12-25T13:04:54.000Z</time>
      </trkpt>
      <trkpt lat="45.83716" lon="3.02223">
        <ele>695.3</ele>
        <time>2019-12-25T13:04:55.000Z</time>
      </trkpt>
      <trkpt lat="45.83719" lon="3.02218">
        <ele>695.4</ele>
        <time>2019-12-25T13:04:56.000Z</time>
      </trkpt>
      <trkpt lat="45.83725" lon="3.02207">
        <ele>695.8</ele>
        <time>2019-12-25T13:04:58.000Z</time>
      </trkpt>
      <trkpt lat="45.8373" lon="3.02195">
        <ele>696.1</ele>
        <time>2019-12-25T13:05:00.000Z</time>
      </trkpt>
      <trkpt lat="45.83732" lon="3.02189">
        <ele>696.4</ele>
        <time>2019-12-25T13:05:01.000Z</time>
      </trkpt>
      <trkpt lat="45.83733" lon="3.02183">
        <ele>696.7</ele>
        <time>2019-12-25T13:05:02.000Z</time>
      </trkpt>
      <trkpt lat="45.83732" lon="3.0217">
        <ele>697.1</ele>
        <time>2019-12-25T13:05:04.000Z</time>
      </trkpt>
      <trkpt lat="45.8373" lon="3.02165">
        <ele>697.2</ele>
        <time>2019-12-25T13:05:06.000Z</time>
      </trkpt>
      <trkpt lat="45.83726" lon="3.02158">
        <ele>697.5</ele>
        <time>2019-12-25T13:05:07.000Z</time>
      </trkpt>
      <trkpt lat="45.83722" lon="3.02156">
        <ele>697.7</ele>
        <time>2019-12-25T13:05:08.000Z</time>
      </trkpt>
      <trkpt lat="45.83717" lon="3.02153">
        <ele>698</ele>
        <time>2019-12-25T13:05:09.000Z</time>
      </trkpt>
      <trkpt lat="45.83712" lon="3.02153">
        <ele>698.3</ele>
        <time>2019-12-25T13:05:11.000Z</time>
      </trkpt>
      <trkpt lat="45.83709" lon="3.02154">
        <ele>698.5</ele>
        <time>2019-12-25T13:05:12.000Z</time>
      </trkpt>
      <trkpt lat="45.83703" lon="3.02158">
        <ele>698.9</ele>
        <time>2019-12-25T13:05:13.000Z</time>
      </trkpt>
      <trkpt lat="45.83699" lon="3.02163">
        <ele>699.2</ele>
        <time>2019-12-25T13:05:14.000Z</time>
      </trkpt>
      <trkpt lat="45.83692" lon="3.02174">
        <ele>699.8</ele>
        <time>2019-12-25T13:05:16.000Z</time>
      </trkpt>
      <trkpt lat="45.83689" lon="3.0218">
        <ele>700.1</ele>
        <time>2019-12-25T13:05:17.000Z</time>
      </trkpt>
      <trkpt lat="45.83685" lon="3.02193">
        <ele>700.7</ele>
        <time>2019-12-25T13:05:19.000Z</time>
      </trkpt>
      <trkpt lat="45.83681" lon="3.02208">
        <ele>701.3</ele>
        <time>2019-12-25T13:05:21.000Z</time>
      </trkpt>
      <trkpt lat="45.8368" lon="3.02215">
        <ele>701.5</ele>
        <time>2019-12-25T13:05:22.000Z</time>
      </trkpt>
      <trkpt lat="45.83675" lon="3.02228">
        <ele>701.9</ele>
        <time>2019-12-25T13:05:24.000Z</time>
      </trkpt>
      <trkpt lat="45.8367" lon="3.02243">
        <ele>702.3</ele>
        <time>2019-12-25T13:05:26.000Z</time>
      </trkpt>
      <trkpt lat="45.83662" lon="3.02254">
        <ele>702.7</ele>
        <time>2019-12-25T13:05:28.000Z</time>
      </trkpt>
      <trkpt lat="45.83652" lon="3.02259">
        <ele>703.2</ele>
        <time>2019-12-25T13:05:30.000Z</time>
      </trkpt>
      <trkpt lat="45.83647" lon="3.0226">
        <ele>703.3</ele>
        <time>2019-12-25T13:05:31.000Z</time>
      </trkpt>
      <trkpt lat="45.83637" lon="3.02257">
        <ele>703.6</ele>
        <time>2019-12-25T13:05:33.000Z</time>
      </trkpt>
      <trkpt lat="45.83633" lon="3.02253">
        <ele>703.8</ele>
        <time>2019-12-25T13:05:34.000Z</time>
      </trkpt>
      <trkpt lat="45.83629" lon="3.02249">
        <ele>703.9</ele>
        <time>2019-12-25T13:05:35.000Z</time>
      </trkpt>
      <trkpt lat="45.83624" lon="3.02239">
        <ele>704.2</ele>
        <time>2019-12-25T13:05:37.000Z</time>
      </trkpt>
      <trkpt lat="45.83619" lon="3.02226">
        <ele>706.4</ele>
        <time>2019-12-25T13:05:39.000Z</time>
      </trkpt>
      <trkpt lat="45.83617" lon="3.02219">
        <ele>706.9</ele>
        <time>2019-12-25T13:05:40.000Z</time>
      </trkpt>
      <trkpt lat="45.83616" lon="3.02205">
        <ele>708.2</ele>
        <time>2019-12-25T13:05:42.000Z</time>
      </trkpt>
      <trkpt lat="45.83618" lon="3.02192">
        <ele>708.7</ele>
        <time>2019-12-25T13:05:44.000Z</time>
      </trkpt>
      <trkpt lat="45.83621" lon="3.02186">
        <ele>708.8</ele>
        <time>2019-12-25T13:05:45.000Z</time>
      </trkpt>
      <trkpt lat="45.83627" lon="3.02176">
        <ele>709.3</ele>
        <time>2019-12-25T13:05:47.000Z</time>
      </trkpt>
      <trkpt lat="45.83635" lon="3.02169">
        <ele>709.6</ele>
        <time>2019-12-25T13:05:49.000Z</time>
      </trkpt>
      <trkpt lat="45.83639" lon="3.02166">
        <ele>709.8</ele>
        <time>2019-12-25T13:05:50.000Z</time>
      </trkpt>
      <trkpt lat="45.83648" lon="3.02159">
        <ele>710.2</ele>
        <time>2019-12-25T13:05:52.000Z</time>
      </trkpt>
      <trkpt lat="45.83654" lon="3.0215">
        <ele>710.8</ele>
        <time>2019-12-25T13:05:54.000Z</time>
      </trkpt>
      <trkpt lat="45.83657" lon="3.02144">
        <ele>711.1</ele>
        <time>2019-12-25T13:05:55.000Z</time>
      </trkpt>
      <trkpt lat="45.83661" lon="3.02131">
        <ele>711.8</ele>
        <time>2019-12-25T13:05:57.000Z</time>
      </trkpt>
      <trkpt lat="45.83661" lon="3.02124">
        <ele>712.2</ele>
        <time>2019-12-25T13:05:58.000Z</time>
      </trkpt>
      <trkpt lat="45.8366" lon="3.0211">
        <ele>712.9</ele>
        <time>2019-12-25T13:06:00.000Z</time>
      </trkpt>
      <trkpt lat="45.83658" lon="3.02104">
        <ele>713.3</ele>
        <time>2019-12-25T13:06:01.000Z</time>
      </trkpt>
      <trkpt lat="45.83656" lon="3.021">
        <ele>713.5</ele>
        <time>2019-12-25T13:06:02.000Z</time>
      </trkpt>
      <trkpt lat="45.8365" lon="3.02091">
        <ele>714.1</ele>
        <time>2019-12-25T13:06:04.000Z</time>
      </trkpt>
      <trkpt lat="45.83644" lon="3.02085">
        <ele>714.7</ele>
        <time>2019-12-25T13:06:06.000Z</time>
      </trkpt>
      <trkpt lat="45.8364" lon="3.02083">
        <ele>715</ele>
        <time>2019-12-25T13:06:07.000Z</time>
      </trkpt>
      <trkpt lat="45.83637" lon="3.02084">
        <ele>715.2</ele>
        <time>2019-12-25T13:06:08.000Z</time>
      </trkpt>
      <trkpt lat="45.83634" lon="3.02084">
        <ele>715.5</ele>
        <time>2019-12-25T13:06:10.000Z</time>
      </trkpt>
      <trkpt lat="45.83628" lon="3.02084">
        <ele>715.8</ele>
        <time>2019-12-25T13:06:11.000Z</time>
      </trkpt>
      <trkpt lat="45.83623" lon="3.02087">
        <ele>716.2</ele>
        <time>2019-12-25T13:06:13.000Z</time>
      </trkpt>
      <trkpt lat="45.8362" lon="3.02091">
        <ele>716.6</ele>
        <time>2019-12-25T13:06:14.000Z</time>
      </trkpt>
      <trkpt lat="45.83615" lon="3.02097">
        <ele>717.1</ele>
        <time>2019-12-25T13:06:16.000Z</time>
      </trkpt>
      <trkpt lat="45.8361" lon="3.02102">
        <ele>717.6</ele>
        <time>2019-12-25T13:06:17.000Z</time>
      </trkpt>
      <trkpt lat="45.83607" lon="3.02107">
        <ele>717.9</ele>
        <time>2019-12-25T13:06:18.000Z</time>
      </trkpt>
      <trkpt lat="45.83604" lon="3.02111">
        <ele>718.1</ele>
        <time>2019-12-25T13:06:20.000Z</time>
      </trkpt>
      <trkpt lat="45.836" lon="3.02117">
        <ele>718.4</ele>
        <time>2019-12-25T13:06:21.000Z</time>
      </trkpt>
      <trkpt lat="45.83594" lon="3.02123">
        <ele>718.9</ele>
        <time>2019-12-25T13:06:23.000Z</time>
      </trkpt>
      <trkpt lat="45.83591" lon="3.02125">
        <ele>719.2</ele>
        <time>2019-12-25T13:06:24.000Z</time>
      </trkpt>
      <trkpt lat="45.83587" lon="3.02127">
        <ele>719.6</ele>
        <time>2019-12-25T13:06:25.000Z</time>
      </trkpt>
      <trkpt lat="45.8358" lon="3.0213">
        <ele>720.3</ele>
        <time>2019-12-25T13:06:27.000Z</time>
      </trkpt>
      <trkpt lat="45.83576" lon="3.0213">
        <ele>720.8</ele>
        <time>2019-12-25T13:06:28.000Z</time>
      </trkpt>
      <trkpt lat="45.83572" lon="3.0213">
        <ele>721.2</ele>
        <time>2019-12-25T13:06:29.000Z</time>
      </trkpt>
      <trkpt lat="45.83564" lon="3.02128">
        <ele>722.2</ele>
        <time>2019-12-25T13:06:31.000Z</time>
      </trkpt>
      <trkpt lat="45.83561" lon="3.02126">
        <ele>722.7</ele>
        <time>2019-12-25T13:06:32.000Z</time>
      </trkpt>
      <trkpt lat="45.83556" lon="3.02125">
        <ele>723.4</ele>
        <time>2019-12-25T13:06:33.000Z</time>
      </trkpt>
      <trkpt lat="45.83552" lon="3.02124">
        <ele>724</ele>
        <time>2019-12-25T13:06:35.000Z</time>
      </trkpt>
      <trkpt lat="45.83548" lon="3.02124">
        <ele>724.6</ele>
        <time>2019-12-25T13:06:36.000Z</time>
      </trkpt>
      <trkpt lat="45.83544" lon="3.02123">
        <ele>725.2</ele>
        <time>2019-12-25T13:06:37.000Z</time>
      </trkpt>
      <trkpt lat="45.83538" lon="3.0212">
        <ele>726</ele>
        <time>2019-12-25T13:06:39.000Z</time>
      </trkpt>
      <trkpt lat="45.83532" lon="3.0212">
        <ele>726.6</ele>
        <time>2019-12-25T13:06:40.000Z</time>
      </trkpt>
      <trkpt lat="45.83526" lon="3.02118">
        <ele>727.1</ele>
        <time>2019-12-25T13:06:42.000Z</time>
      </trkpt>
      <trkpt lat="45.83517" lon="3.02115">
        <ele>728</ele>
        <time>2019-12-25T13:06:44.000Z</time>
      </trkpt>
      <trkpt lat="45.83513" lon="3.02114">
        <ele>728.4</ele>
        <time>2019-12-25T13:06:45.000Z</time>
      </trkpt>
      <trkpt lat="45.83509" lon="3.02113">
        <ele>728.7</ele>
        <time>2019-12-25T13:06:46.000Z</time>
      </trkpt>
      <trkpt lat="45.83501" lon="3.0211">
        <ele>729.4</ele>
        <time>2019-12-25T13:06:49.000Z</time>
      </trkpt>
      <trkpt lat="45.83497" lon="3.02109">
        <ele>729.9</ele>
        <time>2019-12-25T13:06:50.000Z</time>
      </trkpt>
      <trkpt lat="45.83491" lon="3.02108">
        <ele>730.7</ele>
        <time>2019-12-25T13:06:51.000Z</time>
      </trkpt>
      <trkpt lat="45.83487" lon="3.02106">
        <ele>731.2</ele>
        <time>2019-12-25T13:06:53.000Z</time>
      </trkpt>
      <trkpt lat="45.83481" lon="3.02104">
        <ele>732</ele>
        <time>2019-12-25T13:06:54.000Z</time>
      </trkpt>
      <trkpt lat="45.83478" lon="3.02103">
        <ele>732.4</ele>
        <time>2019-12-25T13:06:55.000Z</time>
      </trkpt>
      <trkpt lat="45.83471" lon="3.02101">
        <ele>733.1</ele>
        <time>2019-12-25T13:06:57.000Z</time>
      </trkpt>
      <trkpt lat="45.83467" lon="3.021">
        <ele>733.5</ele>
        <time>2019-12-25T13:06:58.000Z</time>
      </trkpt>
      <trkpt lat="45.83463" lon="3.02098">
        <ele>733.9</ele>
        <time>2019-12-25T13:06:59.000Z</time>
      </trkpt>
      <trkpt lat="45.83458" lon="3.02096">
        <ele>734.5</ele>
        <time>2019-12-25T13:07:01.000Z</time>
      </trkpt>
      <trkpt lat="45.83452" lon="3.02091">
        <ele>735.1</ele>
        <time>2019-12-25T13:07:02.000Z</time>
      </trkpt>
      <trkpt lat="45.8345" lon="3.02089">
        <ele>735.4</ele>
        <time>2019-12-25T13:07:03.000Z</time>
      </trkpt>
      <trkpt lat="45.83445" lon="3.02081">
        <ele>736.1</ele>
        <time>2019-12-25T13:07:05.000Z</time>
      </trkpt>
      <trkpt lat="45.83443" lon="3.02077">
        <ele>736.4</ele>
        <time>2019-12-25T13:07:06.000Z</time>
      </trkpt>
      <trkpt lat="45.8344" lon="3.02072">
        <ele>736.8</ele>
        <time>2019-12-25T13:07:07.000Z</time>
      </trkpt>
      <trkpt lat="45.83439" lon="3.02061">
        <ele>737.6</ele>
        <time>2019-12-25T13:07:09.000Z</time>
      </trkpt>
      <trkpt lat="45.8344" lon="3.02052">
        <ele>738.2</ele>
        <time>2019-12-25T13:07:10.000Z</time>
      </trkpt>
      <trkpt lat="45.83441" lon="3.02047">
        <ele>738.6</ele>
        <time>2019-12-25T13:07:11.000Z</time>
      </trkpt>
      <trkpt lat="45.83444" lon="3.02043">
        <ele>739</ele>
        <time>2019-12-25T13:07:13.000Z</time>
      </trkpt>
      <trkpt lat="45.83448" lon="3.02036">
        <ele>739.6</ele>
        <time>2019-12-25T13:07:14.000Z</time>
      </trkpt>
      <trkpt lat="45.83451" lon="3.02032">
        <ele>739.9</ele>
        <time>2019-12-25T13:07:15.000Z</time>
      </trkpt>
      <trkpt lat="45.83455" lon="3.02029">
        <ele>740.3</ele>
        <time>2019-12-25T13:07:16.000Z</time>
      </trkpt>
      <trkpt lat="45.83462" lon="3.02026">
        <ele>740.9</ele>
        <time>2019-12-25T13:07:18.000Z</time>
      </trkpt>
      <trkpt lat="45.83468" lon="3.02026">
        <ele>741.4</ele>
        <time>2019-12-25T13:07:20.000Z</time>
      </trkpt>
      <trkpt lat="45.83471" lon="3.02027">
        <ele>741.7</ele>
        <time>2019-12-25T13:07:21.000Z</time>
      </trkpt>
      <trkpt lat="45.83476" lon="3.02028">
        <ele>742</ele>
        <time>2019-12-25T13:07:22.000Z</time>
      </trkpt>
      <trkpt lat="45.8348" lon="3.02029">
        <ele>742.3</ele>
        <time>2019-12-25T13:07:23.000Z</time>
      </trkpt>
      <trkpt lat="45.83484" lon="3.0203">
        <ele>742.6</ele>
        <time>2019-12-25T13:07:24.000Z</time>
      </trkpt>
      <trkpt lat="45.83489" lon="3.02032">
        <ele>742.8</ele>
        <time>2019-12-25T13:07:25.000Z</time>
      </trkpt>
      <trkpt lat="45.83495" lon="3.02034">
        <ele>743.2</ele>
        <time>2019-12-25T13:07:27.000Z</time>
      </trkpt>
      <trkpt lat="45.83499" lon="3.02034">
        <ele>743.4</ele>
        <time>2019-12-25T13:07:28.000Z</time>
      </trkpt>
      <trkpt lat="45.83503" lon="3.02034">
        <ele>743.6</ele>
        <time>2019-12-25T13:07:29.000Z</time>
      </trkpt>
      <trkpt lat="45.83509" lon="3.02032">
        <ele>744</ele>
        <time>2019-12-25T13:07:30.000Z</time>
      </trkpt>
      <trkpt lat="45.83514" lon="3.02031">
        <ele>744.3</ele>
        <time>2019-12-25T13:07:32.000Z</time>
      </trkpt>
      <trkpt lat="45.83517" lon="3.02028">
        <ele>744.5</ele>
        <time>2019-12-25T13:07:33.000Z</time>
      </trkpt>
      <trkpt lat="45.8352" lon="3.02023">
        <ele>744.8</ele>
        <time>2019-12-25T13:07:34.000Z</time>
      </trkpt>
      <trkpt lat="45.83525" lon="3.02015">
        <ele>745.2</ele>
        <time>2019-12-25T13:07:35.000Z</time>
      </trkpt>
      <trkpt lat="45.83527" lon="3.0201">
        <ele>745.5</ele>
        <time>2019-12-25T13:07:37.000Z</time>
      </trkpt>
      <trkpt lat="45.83528" lon="3.02005">
        <ele>745.7</ele>
        <time>2019-12-25T13:07:38.000Z</time>
      </trkpt>
      <trkpt lat="45.83529" lon="3.01998">
        <ele>746</ele>
        <time>2019-12-25T13:07:39.000Z</time>
      </trkpt>
      <trkpt lat="45.83529" lon="3.01993">
        <ele>746.3</ele>
        <time>2019-12-25T13:07:40.000Z</time>
      </trkpt>
      <trkpt lat="45.83529" lon="3.01982">
        <ele>746.8</ele>
        <time>2019-12-25T13:07:42.000Z</time>
      </trkpt>
      <trkpt lat="45.8353" lon="3.01974">
        <ele>747.2</ele>
        <time>2019-12-25T13:07:44.000Z</time>
      </trkpt>
      <trkpt lat="45.83531" lon="3.01967">
        <ele>747.5</ele>
        <time>2019-12-25T13:07:45.000Z</time>
      </trkpt>
      <trkpt lat="45.83531" lon="3.01956">
        <ele>748.1</ele>
        <time>2019-12-25T13:07:47.000Z</time>
      </trkpt>
      <trkpt lat="45.83531" lon="3.0195">
        <ele>748.4</ele>
        <time>2019-12-25T13:07:48.000Z</time>
      </trkpt>
      <trkpt lat="45.83531" lon="3.01945">
        <ele>748.7</ele>
        <time>2019-12-25T13:07:49.000Z</time>
      </trkpt>
      <trkpt lat="45.83531" lon="3.01939">
        <ele>748.9</ele>
        <time>2019-12-25T13:07:50.000Z</time>
      </trkpt>
      <trkpt lat="45.8353" lon="3.01929">
        <ele>749.3</ele>
        <time>2019-12-25T13:07:52.000Z</time>
      </trkpt>
      <trkpt lat="45.83529" lon="3.01923">
        <ele>749.6</ele>
        <time>2019-12-25T13:07:53.000Z</time>
      </trkpt>
      <trkpt lat="45.83528" lon="3.01915">
        <ele>749.9</ele>
        <time>2019-12-25T13:07:55.000Z</time>
      </trkpt>
      <trkpt lat="45.83527" lon="3.01909">
        <ele>750.1</ele>
        <time>2019-12-25T13:07:56.000Z</time>
      </trkpt>
      <trkpt lat="45.83525" lon="3.01903">
        <ele>750.4</ele>
        <time>2019-12-25T13:07:57.000Z</time>
      </trkpt>
      <trkpt lat="45.83524" lon="3.01898">
        <ele>750.6</ele>
        <time>2019-12-25T13:07:58.000Z</time>
      </trkpt>
      <trkpt lat="45.83522" lon="3.01893">
        <ele>750.9</ele>
        <time>2019-12-25T13:07:59.000Z</time>
      </trkpt>
      <trkpt lat="45.83519" lon="3.01888">
        <ele>751.2</ele>
        <time>2019-12-25T13:08:00.000Z</time>
      </trkpt>
      <trkpt lat="45.83516" lon="3.01883">
        <ele>751.6</ele>
        <time>2019-12-25T13:08:01.000Z</time>
      </trkpt>
      <trkpt lat="45.83513" lon="3.01878">
        <ele>751.9</ele>
        <time>2019-12-25T13:08:02.000Z</time>
      </trkpt>
      <trkpt lat="45.83509" lon="3.01875">
        <ele>752.3</ele>
        <time>2019-12-25T13:08:04.000Z</time>
      </trkpt>
      <trkpt lat="45.83506" lon="3.01873">
        <ele>752.6</ele>
        <time>2019-12-25T13:08:05.000Z</time>
      </trkpt>
      <trkpt lat="45.83501" lon="3.01869">
        <ele>752.9</ele>
        <time>2019-12-25T13:08:06.000Z</time>
      </trkpt>
      <trkpt lat="45.83498" lon="3.01866">
        <ele>753.2</ele>
        <time>2019-12-25T13:08:07.000Z</time>
      </trkpt>
      <trkpt lat="45.83495" lon="3.01864">
        <ele>753.4</ele>
        <time>2019-12-25T13:08:08.000Z</time>
      </trkpt>
      <trkpt lat="45.83492" lon="3.01862">
        <ele>753.6</ele>
        <time>2019-12-25T13:08:09.000Z</time>
      </trkpt>
      <trkpt lat="45.83489" lon="3.01859">
        <ele>753.9</ele>
        <time>2019-12-25T13:08:10.000Z</time>
      </trkpt>
      <trkpt lat="45.83482" lon="3.01855">
        <ele>754.4</ele>
        <time>2019-12-25T13:08:12.000Z</time>
      </trkpt>
      <trkpt lat="45.83476" lon="3.01851">
        <ele>754.9</ele>
        <time>2019-12-25T13:08:14.000Z</time>
      </trkpt>
      <trkpt lat="45.83472" lon="3.01849">
        <ele>755.2</ele>
        <time>2019-12-25T13:08:15.000Z</time>
      </trkpt>
      <trkpt lat="45.83469" lon="3.01847">
        <ele>755.4</ele>
        <time>2019-12-25T13:08:16.000Z</time>
      </trkpt>
      <trkpt lat="45.83464" lon="3.01844">
        <ele>755.9</ele>
        <time>2019-12-25T13:08:17.000Z</time>
      </trkpt>
      <trkpt lat="45.8346" lon="3.0184">
        <ele>756.2</ele>
        <time>2019-12-25T13:08:18.000Z</time>
      </trkpt>
      <trkpt lat="45.83457" lon="3.01838">
        <ele>756.5</ele>
        <time>2019-12-25T13:08:20.000Z</time>
      </trkpt>
      <trkpt lat="45.83452" lon="3.01834">
        <ele>756.8</ele>
        <time>2019-12-25T13:08:21.000Z</time>
      </trkpt>
      <trkpt lat="45.83449" lon="3.01831">
        <ele>757</ele>
        <time>2019-12-25T13:08:22.000Z</time>
      </trkpt>
      <trkpt lat="45.83444" lon="3.01826">
        <ele>757.4</ele>
        <time>2019-12-25T13:08:24.000Z</time>
      </trkpt>
      <trkpt lat="45.83441" lon="3.01822">
        <ele>757.7</ele>
        <time>2019-12-25T13:08:25.000Z</time>
      </trkpt>
      <trkpt lat="45.83438" lon="3.01819">
        <ele>758</ele>
        <time>2019-12-25T13:08:26.000Z</time>
      </trkpt>
      <trkpt lat="45.83434" lon="3.01814">
        <ele>758.4</ele>
        <time>2019-12-25T13:08:27.000Z</time>
      </trkpt>
      <trkpt lat="45.83429" lon="3.01809">
        <ele>758.9</ele>
        <time>2019-12-25T13:08:29.000Z</time>
      </trkpt>
      <trkpt lat="45.83426" lon="3.01805">
        <ele>759.2</ele>
        <time>2019-12-25T13:08:30.000Z</time>
      </trkpt>
      <trkpt lat="45.83423" lon="3.01801">
        <ele>759.6</ele>
        <time>2019-12-25T13:08:31.000Z</time>
      </trkpt>
      <trkpt lat="45.83418" lon="3.01794">
        <ele>760.1</ele>
        <time>2019-12-25T13:08:33.000Z</time>
      </trkpt>
      <trkpt lat="45.83415" lon="3.0179">
        <ele>760.4</ele>
        <time>2019-12-25T13:08:34.000Z</time>
      </trkpt>
      <trkpt lat="45.83413" lon="3.01787">
        <ele>760.7</ele>
        <time>2019-12-25T13:08:35.000Z</time>
      </trkpt>
      <trkpt lat="45.83408" lon="3.01781">
        <ele>761.2</ele>
        <time>2019-12-25T13:08:37.000Z</time>
      </trkpt>
      <trkpt lat="45.83404" lon="3.01775">
        <ele>761.7</ele>
        <time>2019-12-25T13:08:38.000Z</time>
      </trkpt>
      <trkpt lat="45.834" lon="3.01771">
        <ele>762.1</ele>
        <time>2019-12-25T13:08:39.000Z</time>
      </trkpt>
      <trkpt lat="45.83397" lon="3.01768">
        <ele>762.4</ele>
        <time>2019-12-25T13:08:40.000Z</time>
      </trkpt>
      <trkpt lat="45.83394" lon="3.01765">
        <ele>762.7</ele>
        <time>2019-12-25T13:08:41.000Z</time>
      </trkpt>
      <trkpt lat="45.8339" lon="3.01764">
        <ele>763</ele>
        <time>2019-12-25T13:08:43.000Z</time>
      </trkpt>
      <trkpt lat="45.83385" lon="3.01763">
        <ele>763.2</ele>
        <time>2019-12-25T13:08:44.000Z</time>
      </trkpt>
      <trkpt lat="45.83381" lon="3.01762">
        <ele>763.5</ele>
        <time>2019-12-25T13:08:45.000Z</time>
      </trkpt>
      <trkpt lat="45.83376" lon="3.01763">
        <ele>763.7</ele>
        <time>2019-12-25T13:08:47.000Z</time>
      </trkpt>
      <trkpt lat="45.83371" lon="3.01764">
        <ele>763.9</ele>
        <time>2019-12-25T13:08:48.000Z</time>
      </trkpt>
      <trkpt lat="45.83365" lon="3.01767">
        <ele>764.1</ele>
        <time>2019-12-25T13:08:50.000Z</time>
      </trkpt>
      <trkpt lat="45.83361" lon="3.01769">
        <ele>764.2</ele>
        <time>2019-12-25T13:08:51.000Z</time>
      </trkpt>
      <trkpt lat="45.83356" lon="3.01772">
        <ele>764.5</ele>
        <time>2019-12-25T13:08:53.000Z</time>
      </trkpt>
      <trkpt lat="45.83351" lon="3.01776">
        <ele>764.9</ele>
        <time>2019-12-25T13:08:54.000Z</time>
      </trkpt>
      <trkpt lat="45.83347" lon="3.01778">
        <ele>765.2</ele>
        <time>2019-12-25T13:08:56.000Z</time>
      </trkpt>
      <trkpt lat="45.83342" lon="3.0178">
        <ele>765.6</ele>
        <time>2019-12-25T13:08:57.000Z</time>
      </trkpt>
      <trkpt lat="45.83339" lon="3.01782">
        <ele>765.9</ele>
        <time>2019-12-25T13:08:58.000Z</time>
      </trkpt>
      <trkpt lat="45.83335" lon="3.01785">
        <ele>766.2</ele>
        <time>2019-12-25T13:08:59.000Z</time>
      </trkpt>
      <trkpt lat="45.83328" lon="3.01789">
        <ele>766.8</ele>
        <time>2019-12-25T13:09:01.000Z</time>
      </trkpt>
      <trkpt lat="45.83322" lon="3.01792">
        <ele>767.4</ele>
        <time>2019-12-25T13:09:03.000Z</time>
      </trkpt>
      <trkpt lat="45.83319" lon="3.01793">
        <ele>767.7</ele>
        <time>2019-12-25T13:09:04.000Z</time>
      </trkpt>
      <trkpt lat="45.83315" lon="3.01795">
        <ele>768</ele>
        <time>2019-12-25T13:09:05.000Z</time>
      </trkpt>
      <trkpt lat="45.83309" lon="3.01797">
        <ele>768.5</ele>
        <time>2019-12-25T13:09:07.000Z</time>
      </trkpt>
      <trkpt lat="45.83305" lon="3.01798">
        <ele>768.8</ele>
        <time>2019-12-25T13:09:08.000Z</time>
      </trkpt>
      <trkpt lat="45.833" lon="3.018">
        <ele>769.2</ele>
        <time>2019-12-25T13:09:09.000Z</time>
      </trkpt>
      <trkpt lat="45.83295" lon="3.01802">
        <ele>769.5</ele>
        <time>2019-12-25T13:09:11.000Z</time>
      </trkpt>
      <trkpt lat="45.83291" lon="3.01803">
        <ele>769.8</ele>
        <time>2019-12-25T13:09:12.000Z</time>
      </trkpt>
      <trkpt lat="45.83285" lon="3.01805">
        <ele>770.1</ele>
        <time>2019-12-25T13:09:13.000Z</time>
      </trkpt>
      <trkpt lat="45.83281" lon="3.01807">
        <ele>770.3</ele>
        <time>2019-12-25T13:09:14.000Z</time>
      </trkpt>
      <trkpt lat="45.83277" lon="3.01807">
        <ele>770.5</ele>
        <time>2019-12-25T13:09:15.000Z</time>
      </trkpt>
      <trkpt lat="45.83273" lon="3.01809">
        <ele>770.8</ele>
        <time>2019-12-25T13:09:17.000Z</time>
      </trkpt>
      <trkpt lat="45.8327" lon="3.0181">
        <ele>770.9</ele>
        <time>2019-12-25T13:09:18.000Z</time>
      </trkpt>
      <trkpt lat="45.83265" lon="3.01811">
        <ele>771.3</ele>
        <time>2019-12-25T13:09:19.000Z</time>
      </trkpt>
      <trkpt lat="45.83258" lon="3.01813">
        <ele>771.7</ele>
        <time>2019-12-25T13:09:21.000Z</time>
      </trkpt>
      <trkpt lat="45.83252" lon="3.01815">
        <ele>772.1</ele>
        <time>2019-12-25T13:09:23.000Z</time>
      </trkpt>
      <trkpt lat="45.83247" lon="3.01817">
        <ele>772.5</ele>
        <time>2019-12-25T13:09:24.000Z</time>
      </trkpt>
      <trkpt lat="45.83242" lon="3.01818">
        <ele>772.7</ele>
        <time>2019-12-25T13:09:25.000Z</time>
      </trkpt>
      <trkpt lat="45.83238" lon="3.01818">
        <ele>773</ele>
        <time>2019-12-25T13:09:26.000Z</time>
      </trkpt>
      <trkpt lat="45.83235" lon="3.01819">
        <ele>773.2</ele>
        <time>2019-12-25T13:09:28.000Z</time>
      </trkpt>
      <trkpt lat="45.83231" lon="3.0182">
        <ele>773.4</ele>
        <time>2019-12-25T13:09:29.000Z</time>
      </trkpt>
      <trkpt lat="45.83225" lon="3.01821">
        <ele>773.7</ele>
        <time>2019-12-25T13:09:30.000Z</time>
      </trkpt>
      <trkpt lat="45.83219" lon="3.01823">
        <ele>774</ele>
        <time>2019-12-25T13:09:32.000Z</time>
      </trkpt>
      <trkpt lat="45.83213" lon="3.01825">
        <ele>774.4</ele>
        <time>2019-12-25T13:09:34.000Z</time>
      </trkpt>
      <trkpt lat="45.83209" lon="3.01825">
        <ele>774.7</ele>
        <time>2019-12-25T13:09:35.000Z</time>
      </trkpt>
      <trkpt lat="45.83204" lon="3.01824">
        <ele>774.9</ele>
        <time>2019-12-25T13:09:36.000Z</time>
      </trkpt>
      <trkpt lat="45.83198" lon="3.01821">
        <ele>775.5</ele>
        <time>2019-12-25T13:09:38.000Z</time>
      </trkpt>
      <trkpt lat="45.83194" lon="3.01818">
        <ele>775.8</ele>
        <time>2019-12-25T13:09:39.000Z</time>
      </trkpt>
      <trkpt lat="45.83189" lon="3.01814">
        <ele>776.4</ele>
        <time>2019-12-25T13:09:40.000Z</time>
      </trkpt>
      <trkpt lat="45.83182" lon="3.01807">
        <ele>777.2</ele>
        <time>2019-12-25T13:09:43.000Z</time>
      </trkpt>
      <trkpt lat="45.8318" lon="3.01803">
        <ele>777.5</ele>
        <time>2019-12-25T13:09:44.000Z</time>
      </trkpt>
      <trkpt lat="45.83176" lon="3.01797">
        <ele>778</ele>
        <time>2019-12-25T13:09:45.000Z</time>
      </trkpt>
      <trkpt lat="45.83174" lon="3.01792">
        <ele>778.4</ele>
        <time>2019-12-25T13:09:46.000Z</time>
      </trkpt>
      <trkpt lat="45.83171" lon="3.01787">
        <ele>778.8</ele>
        <time>2019-12-25T13:09:48.000Z</time>
      </trkpt>
      <trkpt lat="45.83169" lon="3.01783">
        <ele>779.2</ele>
        <time>2019-12-25T13:09:49.000Z</time>
      </trkpt>
      <trkpt lat="45.83165" lon="3.01776">
        <ele>779.7</ele>
        <time>2019-12-25T13:09:50.000Z</time>
      </trkpt>
      <trkpt lat="45.83163" lon="3.0177">
        <ele>780</ele>
        <time>2019-12-25T13:09:51.000Z</time>
      </trkpt>
      <trkpt lat="45.8316" lon="3.01765">
        <ele>780.3</ele>
        <time>2019-12-25T13:09:53.000Z</time>
      </trkpt>
      <trkpt lat="45.83156" lon="3.01758">
        <ele>780.7</ele>
        <time>2019-12-25T13:09:54.000Z</time>
      </trkpt>
      <trkpt lat="45.83153" lon="3.0175">
        <ele>781.1</ele>
        <time>2019-12-25T13:09:56.000Z</time>
      </trkpt>
      <trkpt lat="45.83151" lon="3.01745">
        <ele>781.4</ele>
        <time>2019-12-25T13:09:57.000Z</time>
      </trkpt>
      <trkpt lat="45.83148" lon="3.0174">
        <ele>781.6</ele>
        <time>2019-12-25T13:09:58.000Z</time>
      </trkpt>
      <trkpt lat="45.83146" lon="3.01736">
        <ele>781.9</ele>
        <time>2019-12-25T13:09:59.000Z</time>
      </trkpt>
      <trkpt lat="45.83143" lon="3.01731">
        <ele>782.2</ele>
        <time>2019-12-25T13:10:00.000Z</time>
      </trkpt>
      <trkpt lat="45.83139" lon="3.0172">
        <ele>782.7</ele>
        <time>2019-12-25T13:10:03.000Z</time>
      </trkpt>
      <trkpt lat="45.83136" lon="3.01713">
        <ele>783.1</ele>
        <time>2019-12-25T13:10:04.000Z</time>
      </trkpt>
      <trkpt lat="45.83133" lon="3.01709">
        <ele>783.4</ele>
        <time>2019-12-25T13:10:05.000Z</time>
      </trkpt>
      <trkpt lat="45.8313" lon="3.01703">
        <ele>783.6</ele>
        <time>2019-12-25T13:10:06.000Z</time>
      </trkpt>
      <trkpt lat="45.83129" lon="3.017">
        <ele>783.7</ele>
        <time>2019-12-25T13:10:07.000Z</time>
      </trkpt>
      <trkpt lat="45.83125" lon="3.01692">
        <ele>784</ele>
        <time>2019-12-25T13:10:09.000Z</time>
      </trkpt>
      <trkpt lat="45.83121" lon="3.01687">
        <ele>784.2</ele>
        <time>2019-12-25T13:10:10.000Z</time>
      </trkpt>
      <trkpt lat="45.83118" lon="3.01683">
        <ele>784.3</ele>
        <time>2019-12-25T13:10:11.000Z</time>
      </trkpt>
      <trkpt lat="45.83116" lon="3.01678">
        <ele>784.5</ele>
        <time>2019-12-25T13:10:12.000Z</time>
      </trkpt>
      <trkpt lat="45.83112" lon="3.0167">
        <ele>784.8</ele>
        <time>2019-12-25T13:10:14.000Z</time>
      </trkpt>
      <trkpt lat="45.83108" lon="3.01663">
        <ele>785.3</ele>
        <time>2019-12-25T13:10:16.000Z</time>
      </trkpt>
      <trkpt lat="45.83103" lon="3.01657">
        <ele>785.7</ele>
        <time>2019-12-25T13:10:17.000Z</time>
      </trkpt>
      <trkpt lat="45.83097" lon="3.01649">
        <ele>786.6</ele>
        <time>2019-12-25T13:10:20.000Z</time>
      </trkpt>
      <trkpt lat="45.83093" lon="3.01644">
        <ele>787.1</ele>
        <time>2019-12-25T13:10:21.000Z</time>
      </trkpt>
      <trkpt lat="45.83088" lon="3.01635">
        <ele>788</ele>
        <time>2019-12-25T13:10:22.000Z</time>
      </trkpt>
      <trkpt lat="45.83081" lon="3.01626">
        <ele>788.9</ele>
        <time>2019-12-25T13:10:24.000Z</time>
      </trkpt>
      <trkpt lat="45.83073" lon="3.01619">
        <ele>789.6</ele>
        <time>2019-12-25T13:10:26.000Z</time>
      </trkpt>
      <trkpt lat="45.83064" lon="3.01613">
        <ele>790.3</ele>
        <time>2019-12-25T13:10:28.000Z</time>
      </trkpt>
      <trkpt lat="45.83055" lon="3.01607">
        <ele>790.9</ele>
        <time>2019-12-25T13:10:30.000Z</time>
      </trkpt>
      <trkpt lat="45.83051" lon="3.01603">
        <ele>791.3</ele>
        <time>2019-12-25T13:10:31.000Z</time>
      </trkpt>
      <trkpt lat="45.83042" lon="3.01597">
        <ele>792.1</ele>
        <time>2019-12-25T13:10:33.000Z</time>
      </trkpt>
      <trkpt lat="45.83034" lon="3.0159">
        <ele>792.8</ele>
        <time>2019-12-25T13:10:35.000Z</time>
      </trkpt>
      <trkpt lat="45.83025" lon="3.01582">
        <ele>793.4</ele>
        <time>2019-12-25T13:10:37.000Z</time>
      </trkpt>
      <trkpt lat="45.83016" lon="3.01574">
        <ele>794</ele>
        <time>2019-12-25T13:10:39.000Z</time>
      </trkpt>
      <trkpt lat="45.83006" lon="3.01569">
        <ele>794.5</ele>
        <time>2019-12-25T13:10:41.000Z</time>
      </trkpt>
      <trkpt lat="45.83002" lon="3.01566">
        <ele>794.8</ele>
        <time>2019-12-25T13:10:42.000Z</time>
      </trkpt>
      <trkpt lat="45.82992" lon="3.01559">
        <ele>795.2</ele>
        <time>2019-12-25T13:10:44.000Z</time>
      </trkpt>
      <trkpt lat="45.82984" lon="3.01551">
        <ele>795.7</ele>
        <time>2019-12-25T13:10:46.000Z</time>
      </trkpt>
      <trkpt lat="45.82977" lon="3.01541">
        <ele>796.7</ele>
        <time>2019-12-25T13:10:48.000Z</time>
      </trkpt>
      <trkpt lat="45.82973" lon="3.01536">
        <ele>797.3</ele>
        <time>2019-12-25T13:10:49.000Z</time>
      </trkpt>
      <trkpt lat="45.82968" lon="3.01526">
        <ele>798.4</ele>
        <time>2019-12-25T13:10:51.000Z</time>
      </trkpt>
      <trkpt lat="45.82966" lon="3.0152">
        <ele>798.9</ele>
        <time>2019-12-25T13:10:52.000Z</time>
      </trkpt>
      <trkpt lat="45.82964" lon="3.01508">
        <ele>800.2</ele>
        <time>2019-12-25T13:10:54.000Z</time>
      </trkpt>
      <trkpt lat="45.82963" lon="3.01503">
        <ele>800.7</ele>
        <time>2019-12-25T13:10:55.000Z</time>
      </trkpt>
      <trkpt lat="45.82963" lon="3.01497">
        <ele>801.4</ele>
        <time>2019-12-25T13:10:56.000Z</time>
      </trkpt>
      <trkpt lat="45.82962" lon="3.01491">
        <ele>802</ele>
        <time>2019-12-25T13:10:57.000Z</time>
      </trkpt>
      <trkpt lat="45.82963" lon="3.01485">
        <ele>802.6</ele>
        <time>2019-12-25T13:10:59.000Z</time>
      </trkpt>
      <trkpt lat="45.82967" lon="3.01478">
        <ele>804</ele>
        <time>2019-12-25T13:11:01.000Z</time>
      </trkpt>
      <trkpt lat="45.82973" lon="3.01472">
        <ele>804.9</ele>
        <time>2019-12-25T13:11:03.000Z</time>
      </trkpt>
      <trkpt lat="45.82979" lon="3.01467">
        <ele>805.7</ele>
        <time>2019-12-25T13:11:04.000Z</time>
      </trkpt>
      <trkpt lat="45.82983" lon="3.01463">
        <ele>806.4</ele>
        <time>2019-12-25T13:11:05.000Z</time>
      </trkpt>
      <trkpt lat="45.82987" lon="3.01459">
        <ele>807.2</ele>
        <time>2019-12-25T13:11:06.000Z</time>
      </trkpt>
      <trkpt lat="45.82992" lon="3.01455">
        <ele>807.2</ele>
        <time>2019-12-25T13:11:08.000Z</time>
      </trkpt>
      <trkpt lat="45.82996" lon="3.0145">
        <ele>807.7</ele>
        <time>2019-12-25T13:11:09.000Z</time>
      </trkpt>
      <trkpt lat="45.83001" lon="3.01447">
        <ele>807.9</ele>
        <time>2019-12-25T13:11:11.000Z</time>
      </trkpt>
      <trkpt lat="45.83006" lon="3.01445">
        <ele>808.2</ele>
        <time>2019-12-25T13:11:13.000Z</time>
      </trkpt>
      <trkpt lat="45.8301" lon="3.01445">
        <ele>808.4</ele>
        <time>2019-12-25T13:11:14.000Z</time>
      </trkpt>
      <trkpt lat="45.83016" lon="3.01447">
        <ele>808.8</ele>
        <time>2019-12-25T13:11:15.000Z</time>
      </trkpt>
      <trkpt lat="45.83021" lon="3.01448">
        <ele>809.1</ele>
        <time>2019-12-25T13:11:17.000Z</time>
      </trkpt>
      <trkpt lat="45.83029" lon="3.01449">
        <ele>809.5</ele>
        <time>2019-12-25T13:11:18.000Z</time>
      </trkpt>
      <trkpt lat="45.83037" lon="3.01448">
        <ele>810.3</ele>
        <time>2019-12-25T13:11:20.000Z</time>
      </trkpt>
      <trkpt lat="45.83044" lon="3.01446">
        <ele>810.4</ele>
        <time>2019-12-25T13:11:22.000Z</time>
      </trkpt>
      <trkpt lat="45.83049" lon="3.0144">
        <ele>811.3</ele>
        <time>2019-12-25T13:11:23.000Z</time>
      </trkpt>
      <trkpt lat="45.83053" lon="3.01435">
        <ele>811.5</ele>
        <time>2019-12-25T13:11:24.000Z</time>
      </trkpt>
      <trkpt lat="45.83056" lon="3.01427">
        <ele>811.8</ele>
        <time>2019-12-25T13:11:26.000Z</time>
      </trkpt>
      <trkpt lat="45.83059" lon="3.01422">
        <ele>812.1</ele>
        <time>2019-12-25T13:11:27.000Z</time>
      </trkpt>
      <trkpt lat="45.83066" lon="3.01418">
        <ele>812.5</ele>
        <time>2019-12-25T13:11:28.000Z</time>
      </trkpt>
      <trkpt lat="45.83077" lon="3.01415">
        <ele>813.1</ele>
        <time>2019-12-25T13:11:30.000Z</time>
      </trkpt>
      <trkpt lat="45.83082" lon="3.01412">
        <ele>813.4</ele>
        <time>2019-12-25T13:11:31.000Z</time>
      </trkpt>
      <trkpt lat="45.83087" lon="3.0141">
        <ele>813.7</ele>
        <time>2019-12-25T13:11:33.000Z</time>
      </trkpt>
      <trkpt lat="45.83093" lon="3.01404">
        <ele>814.1</ele>
        <time>2019-12-25T13:11:35.000Z</time>
      </trkpt>
      <trkpt lat="45.83097" lon="3.014">
        <ele>814.4</ele>
        <time>2019-12-25T13:11:36.000Z</time>
      </trkpt>
      <trkpt lat="45.83101" lon="3.01396">
        <ele>814.7</ele>
        <time>2019-12-25T13:11:37.000Z</time>
      </trkpt>
      <trkpt lat="45.83105" lon="3.01392">
        <ele>814.9</ele>
        <time>2019-12-25T13:11:38.000Z</time>
      </trkpt>
      <trkpt lat="45.8311" lon="3.01388">
        <ele>815.3</ele>
        <time>2019-12-25T13:11:40.000Z</time>
      </trkpt>
      <trkpt lat="45.83118" lon="3.01387">
        <ele>815.6</ele>
        <time>2019-12-25T13:11:41.000Z</time>
      </trkpt>
      <trkpt lat="45.8313" lon="3.01388">
        <ele>814.6</ele>
        <time>2019-12-25T13:11:43.000Z</time>
      </trkpt>
      <trkpt lat="45.83136" lon="3.01387">
        <ele>814.1</ele>
        <time>2019-12-25T13:11:44.000Z</time>
      </trkpt>
      <trkpt lat="45.83149" lon="3.01385">
        <ele>812.9</ele>
        <time>2019-12-25T13:11:46.000Z</time>
      </trkpt>
      <trkpt lat="45.83163" lon="3.01381">
        <ele>811.8</ele>
        <time>2019-12-25T13:11:48.000Z</time>
      </trkpt>
      <trkpt lat="45.83178" lon="3.01378">
        <ele>810.8</ele>
        <time>2019-12-25T13:11:50.000Z</time>
      </trkpt>
      <trkpt lat="45.83195" lon="3.01375">
        <ele>810.1</ele>
        <time>2019-12-25T13:11:52.000Z</time>
      </trkpt>
      <trkpt lat="45.83213" lon="3.0137">
        <ele>809.8</ele>
        <time>2019-12-25T13:11:54.000Z</time>
      </trkpt>
      <trkpt lat="45.83232" lon="3.01362">
        <ele>809.8</ele>
        <time>2019-12-25T13:11:56.000Z</time>
      </trkpt>
      <trkpt lat="45.8325" lon="3.01351">
        <ele>809.8</ele>
        <time>2019-12-25T13:11:58.000Z</time>
      </trkpt>
      <trkpt lat="45.83268" lon="3.0134">
        <ele>809.8</ele>
        <time>2019-12-25T13:12:00.000Z</time>
      </trkpt>
      <trkpt lat="45.83285" lon="3.01329">
        <ele>809.9</ele>
        <time>2019-12-25T13:12:02.000Z</time>
      </trkpt>
      <trkpt lat="45.83302" lon="3.01319">
        <ele>809.9</ele>
        <time>2019-12-25T13:12:04.000Z</time>
      </trkpt>
      <trkpt lat="45.83319" lon="3.0131">
        <ele>810</ele>
        <time>2019-12-25T13:12:06.000Z</time>
      </trkpt>
      <trkpt lat="45.83336" lon="3.01304">
        <ele>810.3</ele>
        <time>2019-12-25T13:12:08.000Z</time>
      </trkpt>
      <trkpt lat="45.83353" lon="3.013">
        <ele>810.9</ele>
        <time>2019-12-25T13:12:10.000Z</time>
      </trkpt>
      <trkpt lat="45.83362" lon="3.01299">
        <ele>811.2</ele>
        <time>2019-12-25T13:12:11.000Z</time>
      </trkpt>
      <trkpt lat="45.83379" lon="3.01296">
        <ele>811.7</ele>
        <time>2019-12-25T13:12:13.000Z</time>
      </trkpt>
      <trkpt lat="45.83394" lon="3.01295">
        <ele>811.9</ele>
        <time>2019-12-25T13:12:15.000Z</time>
      </trkpt>
      <trkpt lat="45.83409" lon="3.01294">
        <ele>811.9</ele>
        <time>2019-12-25T13:12:17.000Z</time>
      </trkpt>
      <trkpt lat="45.83417" lon="3.01294">
        <ele>811.9</ele>
        <time>2019-12-25T13:12:18.000Z</time>
      </trkpt>
      <trkpt lat="45.83431" lon="3.01292">
        <ele>811.9</ele>
        <time>2019-12-25T13:12:20.000Z</time>
      </trkpt>
      <trkpt lat="45.83445" lon="3.01289">
        <ele>811.9</ele>
        <time>2019-12-25T13:12:22.000Z</time>
      </trkpt>
      <trkpt lat="45.83459" lon="3.01285">
        <ele>811.9</ele>
        <time>2019-12-25T13:12:24.000Z</time>
      </trkpt>
      <trkpt lat="45.83466" lon="3.01282">
        <ele>811.9</ele>
        <time>2019-12-25T13:12:25.000Z</time>
      </trkpt>
      <trkpt lat="45.83472" lon="3.01279">
        <ele>812</ele>
        <time>2019-12-25T13:12:26.000Z</time>
      </trkpt>
      <trkpt lat="45.83478" lon="3.01274">
        <ele>812</ele>
        <time>2019-12-25T13:12:27.000Z</time>
      </trkpt>
      <trkpt lat="45.83488" lon="3.01263">
        <ele>812.1</ele>
        <time>2019-12-25T13:12:29.000Z</time>
      </trkpt>
      <trkpt lat="45.83492" lon="3.01255">
        <ele>812.2</ele>
        <time>2019-12-25T13:12:30.000Z</time>
      </trkpt>
      <trkpt lat="45.83496" lon="3.01246">
        <ele>812.4</ele>
        <time>2019-12-25T13:12:31.000Z</time>
      </trkpt>
      <trkpt lat="45.83503" lon="3.01228">
        <ele>813</ele>
        <time>2019-12-25T13:12:33.000Z</time>
      </trkpt>
      <trkpt lat="45.8351" lon="3.01211">
        <ele>813.7</ele>
        <time>2019-12-25T13:12:35.000Z</time>
      </trkpt>
      <trkpt lat="45.83519" lon="3.01195">
        <ele>814.2</ele>
        <time>2019-12-25T13:12:37.000Z</time>
      </trkpt>
      <trkpt lat="45.8353" lon="3.01181">
        <ele>814.6</ele>
        <time>2019-12-25T13:12:39.000Z</time>
      </trkpt>
      <trkpt lat="45.8354" lon="3.01168">
        <ele>814.9</ele>
        <time>2019-12-25T13:12:41.000Z</time>
      </trkpt>
      <trkpt lat="45.83546" lon="3.01161">
        <ele>814.9</ele>
        <time>2019-12-25T13:12:42.000Z</time>
      </trkpt>
      <trkpt lat="45.83557" lon="3.01148">
        <ele>815</ele>
        <time>2019-12-25T13:12:44.000Z</time>
      </trkpt>
      <trkpt lat="45.83563" lon="3.01141">
        <ele>815</ele>
        <time>2019-12-25T13:12:45.000Z</time>
      </trkpt>
      <trkpt lat="45.83573" lon="3.01128">
        <ele>815</ele>
        <time>2019-12-25T13:12:47.000Z</time>
      </trkpt>
      <trkpt lat="45.83583" lon="3.01116">
        <ele>815</ele>
        <time>2019-12-25T13:12:49.000Z</time>
      </trkpt>
      <trkpt lat="45.83591" lon="3.01102">
        <ele>814.9</ele>
        <time>2019-12-25T13:12:51.000Z</time>
      </trkpt>
      <trkpt lat="45.83595" lon="3.01095">
        <ele>814.8</ele>
        <time>2019-12-25T13:12:52.000Z</time>
      </trkpt>
      <trkpt lat="45.83601" lon="3.0108">
        <ele>814.6</ele>
        <time>2019-12-25T13:12:54.000Z</time>
      </trkpt>
      <trkpt lat="45.83608" lon="3.01065">
        <ele>814.1</ele>
        <time>2019-12-25T13:12:56.000Z</time>
      </trkpt>
      <trkpt lat="45.83611" lon="3.01057">
        <ele>813.7</ele>
        <time>2019-12-25T13:12:57.000Z</time>
      </trkpt>
      <trkpt lat="45.83618" lon="3.0104">
        <ele>812.9</ele>
        <time>2019-12-25T13:12:59.000Z</time>
      </trkpt>
      <trkpt lat="45.83624" lon="3.01021">
        <ele>812.2</ele>
        <time>2019-12-25T13:13:01.000Z</time>
      </trkpt>
      <trkpt lat="45.83627" lon="3.01">
        <ele>811.5</ele>
        <time>2019-12-25T13:13:03.000Z</time>
      </trkpt>
      <trkpt lat="45.83628" lon="3.00987">
        <ele>811.1</ele>
        <time>2019-12-25T13:13:04.000Z</time>
      </trkpt>
      <trkpt lat="45.83625" lon="3.00962">
        <ele>810.1</ele>
        <time>2019-12-25T13:13:06.000Z</time>
      </trkpt>
      <trkpt lat="45.83618" lon="3.00937">
        <ele>809.2</ele>
        <time>2019-12-25T13:13:08.000Z</time>
      </trkpt>
      <trkpt lat="45.83613" lon="3.00924">
        <ele>809</ele>
        <time>2019-12-25T13:13:09.000Z</time>
      </trkpt>
      <trkpt lat="45.83605" lon="3.00899">
        <ele>808.5</ele>
        <time>2019-12-25T13:13:11.000Z</time>
      </trkpt>
      <trkpt lat="45.83601" lon="3.00886">
        <ele>808.2</ele>
        <time>2019-12-25T13:13:12.000Z</time>
      </trkpt>
      <trkpt lat="45.83593" lon="3.00859">
        <ele>807.6</ele>
        <time>2019-12-25T13:13:14.000Z</time>
      </trkpt>
      <trkpt lat="45.8359" lon="3.00829">
        <ele>807</ele>
        <time>2019-12-25T13:13:16.000Z</time>
      </trkpt>
      <trkpt lat="45.83592" lon="3.00798">
        <ele>806.9</ele>
        <time>2019-12-25T13:13:18.000Z</time>
      </trkpt>
      <trkpt lat="45.83592" lon="3.00767">
        <ele>806.7</ele>
        <time>2019-12-25T13:13:20.000Z</time>
      </trkpt>
      <trkpt lat="45.83593" lon="3.00752">
        <ele>806.5</ele>
        <time>2019-12-25T13:13:21.000Z</time>
      </trkpt>
      <trkpt lat="45.83595" lon="3.00722">
        <ele>806</ele>
        <time>2019-12-25T13:13:23.000Z</time>
      </trkpt>
      <trkpt lat="45.83595" lon="3.00707">
        <ele>805.9</ele>
        <time>2019-12-25T13:13:24.000Z</time>
      </trkpt>
      <trkpt lat="45.83596" lon="3.00692">
        <ele>805.9</ele>
        <time>2019-12-25T13:13:25.000Z</time>
      </trkpt>
      <trkpt lat="45.83597" lon="3.00677">
        <ele>805.9</ele>
        <time>2019-12-25T13:13:26.000Z</time>
      </trkpt>
      <trkpt lat="45.83597" lon="3.00646">
        <ele>805.9</ele>
        <time>2019-12-25T13:13:28.000Z</time>
      </trkpt>
      <trkpt lat="45.83598" lon="3.00618">
        <ele>806.1</ele>
        <time>2019-12-25T13:13:30.000Z</time>
      </trkpt>
      <trkpt lat="45.83601" lon="3.00603">
        <ele>806.6</ele>
        <time>2019-12-25T13:13:31.000Z</time>
      </trkpt>
      <trkpt lat="45.83612" lon="3.00579">
        <ele>808</ele>
        <time>2019-12-25T13:13:33.000Z</time>
      </trkpt>
      <trkpt lat="45.83619" lon="3.0057">
        <ele>808.6</ele>
        <time>2019-12-25T13:13:34.000Z</time>
      </trkpt>
      <trkpt lat="45.83635" lon="3.00553">
        <ele>809.4</ele>
        <time>2019-12-25T13:13:36.000Z</time>
      </trkpt>
      <trkpt lat="45.83643" lon="3.00545">
        <ele>809.6</ele>
        <time>2019-12-25T13:13:37.000Z</time>
      </trkpt>
      <trkpt lat="45.83651" lon="3.00538">
        <ele>809.7</ele>
        <time>2019-12-25T13:13:38.000Z</time>
      </trkpt>
      <trkpt lat="45.83664" lon="3.00524">
        <ele>809.7</ele>
        <time>2019-12-25T13:13:40.000Z</time>
      </trkpt>
      <trkpt lat="45.83676" lon="3.0051">
        <ele>809.4</ele>
        <time>2019-12-25T13:13:42.000Z</time>
      </trkpt>
      <trkpt lat="45.83687" lon="3.00495">
        <ele>809</ele>
        <time>2019-12-25T13:13:44.000Z</time>
      </trkpt>
      <trkpt lat="45.83696" lon="3.00479">
        <ele>809.1</ele>
        <time>2019-12-25T13:13:46.000Z</time>
      </trkpt>
      <trkpt lat="45.83705" lon="3.00464">
        <ele>809.3</ele>
        <time>2019-12-25T13:13:48.000Z</time>
      </trkpt>
      <trkpt lat="45.83712" lon="3.00459">
        <ele>809.4</ele>
        <time>2019-12-25T13:13:49.000Z</time>
      </trkpt>
      <trkpt lat="45.83718" lon="3.00455">
        <ele>809</ele>
        <time>2019-12-25T13:13:50.000Z</time>
      </trkpt>
      <trkpt lat="45.83734" lon="3.00452">
        <ele>808.5</ele>
        <time>2019-12-25T13:13:52.000Z</time>
      </trkpt>
      <trkpt lat="45.83752" lon="3.00454">
        <ele>808.1</ele>
        <time>2019-12-25T13:13:54.000Z</time>
      </trkpt>
      <trkpt lat="45.83771" lon="3.00455">
        <ele>807.6</ele>
        <time>2019-12-25T13:13:56.000Z</time>
      </trkpt>
      <trkpt lat="45.83788" lon="3.00459">
        <ele>807.1</ele>
        <time>2019-12-25T13:13:58.000Z</time>
      </trkpt>
      <trkpt lat="45.83806" lon="3.00461">
        <ele>806.6</ele>
        <time>2019-12-25T13:14:00.000Z</time>
      </trkpt>
      <trkpt lat="45.83816" lon="3.00462">
        <ele>806.2</ele>
        <time>2019-12-25T13:14:01.000Z</time>
      </trkpt>
      <trkpt lat="45.83835" lon="3.00465">
        <ele>805.3</ele>
        <time>2019-12-25T13:14:03.000Z</time>
      </trkpt>
      <trkpt lat="45.83844" lon="3.00466">
        <ele>804.9</ele>
        <time>2019-12-25T13:14:04.000Z</time>
      </trkpt>
      <trkpt lat="45.83864" lon="3.00468">
        <ele>804</ele>
        <time>2019-12-25T13:14:06.000Z</time>
      </trkpt>
      <trkpt lat="45.83873" lon="3.00467">
        <ele>803.6</ele>
        <time>2019-12-25T13:14:07.000Z</time>
      </trkpt>
      <trkpt lat="45.83892" lon="3.00463">
        <ele>803.2</ele>
        <time>2019-12-25T13:14:09.000Z</time>
      </trkpt>
      <trkpt lat="45.83901" lon="3.00459">
        <ele>802.9</ele>
        <time>2019-12-25T13:14:10.000Z</time>
      </trkpt>
      <trkpt lat="45.8391" lon="3.00454">
        <ele>802.5</ele>
        <time>2019-12-25T13:14:11.000Z</time>
      </trkpt>
      <trkpt lat="45.83918" lon="3.00448">
        <ele>802.1</ele>
        <time>2019-12-25T13:14:12.000Z</time>
      </trkpt>
      <trkpt lat="45.83926" lon="3.00441">
        <ele>801.8</ele>
        <time>2019-12-25T13:14:13.000Z</time>
      </trkpt>
      <trkpt lat="45.83942" lon="3.00426">
        <ele>801.2</ele>
        <time>2019-12-25T13:14:15.000Z</time>
      </trkpt>
      <trkpt lat="45.83956" lon="3.00409">
        <ele>800.8</ele>
        <time>2019-12-25T13:14:17.000Z</time>
      </trkpt>
      <trkpt lat="45.8397" lon="3.0039">
        <ele>800.5</ele>
        <time>2019-12-25T13:14:19.000Z</time>
      </trkpt>
      <trkpt lat="45.83985" lon="3.00373">
        <ele>799.9</ele>
        <time>2019-12-25T13:14:21.000Z</time>
      </trkpt>
      <trkpt lat="45.84004" lon="3.00361">
        <ele>798.1</ele>
        <time>2019-12-25T13:14:23.000Z</time>
      </trkpt>
      <trkpt lat="45.84025" lon="3.00359">
        <ele>796.4</ele>
        <time>2019-12-25T13:14:25.000Z</time>
      </trkpt>
      <trkpt lat="45.84036" lon="3.00361">
        <ele>795.7</ele>
        <time>2019-12-25T13:14:26.000Z</time>
      </trkpt>
      <trkpt lat="45.84047" lon="3.00366">
        <ele>794.7</ele>
        <time>2019-12-25T13:14:27.000Z</time>
      </trkpt>
      <trkpt lat="45.84068" lon="3.00377">
        <ele>792.9</ele>
        <time>2019-12-25T13:14:29.000Z</time>
      </trkpt>
      <trkpt lat="45.84079" lon="3.00382">
        <ele>792.2</ele>
        <time>2019-12-25T13:14:30.000Z</time>
      </trkpt>
      <trkpt lat="45.84101" lon="3.00392">
        <ele>791</ele>
        <time>2019-12-25T13:14:32.000Z</time>
      </trkpt>
      <trkpt lat="45.84112" lon="3.00397">
        <ele>790.4</ele>
        <time>2019-12-25T13:14:33.000Z</time>
      </trkpt>
      <trkpt lat="45.84135" lon="3.00408">
        <ele>789.4</ele>
        <time>2019-12-25T13:14:35.000Z</time>
      </trkpt>
      <trkpt lat="45.84158" lon="3.00418">
        <ele>788.7</ele>
        <time>2019-12-25T13:14:37.000Z</time>
      </trkpt>
      <trkpt lat="45.8418" lon="3.00428">
        <ele>788</ele>
        <time>2019-12-25T13:14:39.000Z</time>
      </trkpt>
      <trkpt lat="45.84202" lon="3.00438">
        <ele>787.1</ele>
        <time>2019-12-25T13:14:41.000Z</time>
      </trkpt>
      <trkpt lat="45.84214" lon="3.00443">
        <ele>786.6</ele>
        <time>2019-12-25T13:14:42.000Z</time>
      </trkpt>
      <trkpt lat="45.84236" lon="3.00453">
        <ele>785.4</ele>
        <time>2019-12-25T13:14:44.000Z</time>
      </trkpt>
      <trkpt lat="45.84247" lon="3.00458">
        <ele>784.7</ele>
        <time>2019-12-25T13:14:45.000Z</time>
      </trkpt>
      <trkpt lat="45.8427" lon="3.00468">
        <ele>783.5</ele>
        <time>2019-12-25T13:14:47.000Z</time>
      </trkpt>
      <trkpt lat="45.84282" lon="3.00474">
        <ele>782.9</ele>
        <time>2019-12-25T13:14:48.000Z</time>
      </trkpt>
      <trkpt lat="45.84306" lon="3.00484">
        <ele>781.8</ele>
        <time>2019-12-25T13:14:50.000Z</time>
      </trkpt>
      <trkpt lat="45.84318" lon="3.00489">
        <ele>781.2</ele>
        <time>2019-12-25T13:14:51.000Z</time>
      </trkpt>
      <trkpt lat="45.84342" lon="3.005">
        <ele>780.1</ele>
        <time>2019-12-25T13:14:53.000Z</time>
      </trkpt>
      <trkpt lat="45.84365" lon="3.00511">
        <ele>779.1</ele>
        <time>2019-12-25T13:14:55.000Z</time>
      </trkpt>
      <trkpt lat="45.84389" lon="3.00522">
        <ele>778</ele>
        <time>2019-12-25T13:14:57.000Z</time>
      </trkpt>
      <trkpt lat="45.84412" lon="3.00531">
        <ele>776.6</ele>
        <time>2019-12-25T13:14:59.000Z</time>
      </trkpt>
      <trkpt lat="45.84425" lon="3.00533">
        <ele>776</ele>
        <time>2019-12-25T13:15:00.000Z</time>
      </trkpt>
      <trkpt lat="45.84449" lon="3.00535">
        <ele>775.5</ele>
        <time>2019-12-25T13:15:02.000Z</time>
      </trkpt>
      <trkpt lat="45.84462" lon="3.00535">
        <ele>775.2</ele>
        <time>2019-12-25T13:15:03.000Z</time>
      </trkpt>
      <trkpt lat="45.84486" lon="3.00534">
        <ele>774.8</ele>
        <time>2019-12-25T13:15:05.000Z</time>
      </trkpt>
      <trkpt lat="45.84511" lon="3.00533">
        <ele>773.8</ele>
        <time>2019-12-25T13:15:07.000Z</time>
      </trkpt>
      <trkpt lat="45.84536" lon="3.00533">
        <ele>772.8</ele>
        <time>2019-12-25T13:15:09.000Z</time>
      </trkpt>
      <trkpt lat="45.84548" lon="3.00535">
        <ele>772.6</ele>
        <time>2019-12-25T13:15:10.000Z</time>
      </trkpt>
      <trkpt lat="45.84573" lon="3.00544">
        <ele>771.3</ele>
        <time>2019-12-25T13:15:12.000Z</time>
      </trkpt>
      <trkpt lat="45.84595" lon="3.0056">
        <ele>770.9</ele>
        <time>2019-12-25T13:15:14.000Z</time>
      </trkpt>
      <trkpt lat="45.84616" lon="3.00578">
        <ele>771.3</ele>
        <time>2019-12-25T13:15:16.000Z</time>
      </trkpt>
      <trkpt lat="45.84637" lon="3.00596">
        <ele>771.8</ele>
        <time>2019-12-25T13:15:18.000Z</time>
      </trkpt>
      <trkpt lat="45.84655" lon="3.00615">
        <ele>771.8</ele>
        <time>2019-12-25T13:15:20.000Z</time>
      </trkpt>
      <trkpt lat="45.84673" lon="3.00633">
        <ele>771.6</ele>
        <time>2019-12-25T13:15:22.000Z</time>
      </trkpt>
      <trkpt lat="45.84691" lon="3.00647">
        <ele>771.4</ele>
        <time>2019-12-25T13:15:24.000Z</time>
      </trkpt>
      <trkpt lat="45.84709" lon="3.00659">
        <ele>771.2</ele>
        <time>2019-12-25T13:15:26.000Z</time>
      </trkpt>
      <trkpt lat="45.84727" lon="3.00669">
        <ele>770.9</ele>
        <time>2019-12-25T13:15:28.000Z</time>
      </trkpt>
      <trkpt lat="45.84744" lon="3.00678">
        <ele>770.7</ele>
        <time>2019-12-25T13:15:30.000Z</time>
      </trkpt>
      <trkpt lat="45.84753" lon="3.00683">
        <ele>770.7</ele>
        <time>2019-12-25T13:15:31.000Z</time>
      </trkpt>
      <trkpt lat="45.84769" lon="3.00693">
        <ele>770.4</ele>
        <time>2019-12-25T13:15:33.000Z</time>
      </trkpt>
      <trkpt lat="45.84786" lon="3.00702">
        <ele>770</ele>
        <time>2019-12-25T13:15:35.000Z</time>
      </trkpt>
      <trkpt lat="45.84794" lon="3.00706">
        <ele>769.9</ele>
        <time>2019-12-25T13:15:36.000Z</time>
      </trkpt>
      <trkpt lat="45.8481" lon="3.00715">
        <ele>769.6</ele>
        <time>2019-12-25T13:15:38.000Z</time>
      </trkpt>
      <trkpt lat="45.84819" lon="3.0072">
        <ele>769.4</ele>
        <time>2019-12-25T13:15:39.000Z</time>
      </trkpt>
      <trkpt lat="45.84836" lon="3.0073">
        <ele>769</ele>
        <time>2019-12-25T13:15:41.000Z</time>
      </trkpt>
      <trkpt lat="45.84853" lon="3.0074">
        <ele>768.8</ele>
        <time>2019-12-25T13:15:43.000Z</time>
      </trkpt>
      <trkpt lat="45.84869" lon="3.00752">
        <ele>768.8</ele>
        <time>2019-12-25T13:15:45.000Z</time>
      </trkpt>
      <trkpt lat="45.84877" lon="3.00758">
        <ele>768.8</ele>
        <time>2019-12-25T13:15:46.000Z</time>
      </trkpt>
      <trkpt lat="45.84892" lon="3.00773">
        <ele>768.8</ele>
        <time>2019-12-25T13:15:48.000Z</time>
      </trkpt>
      <trkpt lat="45.84899" lon="3.00781">
        <ele>768.8</ele>
        <time>2019-12-25T13:15:49.000Z</time>
      </trkpt>
      <trkpt lat="45.84913" lon="3.00797">
        <ele>768.8</ele>
        <time>2019-12-25T13:15:51.000Z</time>
      </trkpt>
      <trkpt lat="45.8492" lon="3.00805">
        <ele>768.8</ele>
        <time>2019-12-25T13:15:52.000Z</time>
      </trkpt>
      <trkpt lat="45.84933" lon="3.00821">
        <ele>768.8</ele>
        <time>2019-12-25T13:15:54.000Z</time>
      </trkpt>
      <trkpt lat="45.8494" lon="3.00829">
        <ele>768.8</ele>
        <time>2019-12-25T13:15:55.000Z</time>
      </trkpt>
      <trkpt lat="45.84953" lon="3.00844">
        <ele>768.8</ele>
        <time>2019-12-25T13:15:57.000Z</time>
      </trkpt>
      <trkpt lat="45.8496" lon="3.00852">
        <ele>768.8</ele>
        <time>2019-12-25T13:15:58.000Z</time>
      </trkpt>
      <trkpt lat="45.84973" lon="3.00869">
        <ele>768.8</ele>
        <time>2019-12-25T13:16:00.000Z</time>
      </trkpt>
      <trkpt lat="45.8498" lon="3.00877">
        <ele>768.8</ele>
        <time>2019-12-25T13:16:01.000Z</time>
      </trkpt>
      <trkpt lat="45.84987" lon="3.00885">
        <ele>768.9</ele>
        <time>2019-12-25T13:16:02.000Z</time>
      </trkpt>
      <trkpt lat="45.85002" lon="3.009">
        <ele>768.9</ele>
        <time>2019-12-25T13:16:04.000Z</time>
      </trkpt>
      <trkpt lat="45.85009" lon="3.00907">
        <ele>768.9</ele>
        <time>2019-12-25T13:16:05.000Z</time>
      </trkpt>
      <trkpt lat="45.85025" lon="3.00919">
        <ele>768.9</ele>
        <time>2019-12-25T13:16:07.000Z</time>
      </trkpt>
      <trkpt lat="45.85041" lon="3.0093">
        <ele>769</ele>
        <time>2019-12-25T13:16:09.000Z</time>
      </trkpt>
      <trkpt lat="45.85056" lon="3.00941">
        <ele>769.4</ele>
        <time>2019-12-25T13:16:11.000Z</time>
      </trkpt>
      <trkpt lat="45.85071" lon="3.00952">
        <ele>770.1</ele>
        <time>2019-12-25T13:16:13.000Z</time>
      </trkpt>
      <trkpt lat="45.85079" lon="3.00958">
        <ele>770.4</ele>
        <time>2019-12-25T13:16:14.000Z</time>
      </trkpt>
      <trkpt lat="45.85087" lon="3.00964">
        <ele>770.6</ele>
        <time>2019-12-25T13:16:15.000Z</time>
      </trkpt>
      <trkpt lat="45.85102" lon="3.00974">
        <ele>770.9</ele>
        <time>2019-12-25T13:16:17.000Z</time>
      </trkpt>
      <trkpt lat="45.85117" lon="3.00985">
        <ele>770.9</ele>
        <time>2019-12-25T13:16:19.000Z</time>
      </trkpt>
      <trkpt lat="45.85131" lon="3.00993">
        <ele>771</ele>
        <time>2019-12-25T13:16:21.000Z</time>
      </trkpt>
      <trkpt lat="45.85145" lon="3.01">
        <ele>771</ele>
        <time>2019-12-25T13:16:23.000Z</time>
      </trkpt>
      <trkpt lat="45.85158" lon="3.01008">
        <ele>771</ele>
        <time>2019-12-25T13:16:25.000Z</time>
      </trkpt>
      <trkpt lat="45.85171" lon="3.01016">
        <ele>771</ele>
        <time>2019-12-25T13:16:27.000Z</time>
      </trkpt>
      <trkpt lat="45.85177" lon="3.0102">
        <ele>771</ele>
        <time>2019-12-25T13:16:28.000Z</time>
      </trkpt>
      <trkpt lat="45.85183" lon="3.01025">
        <ele>771</ele>
        <time>2019-12-25T13:16:29.000Z</time>
      </trkpt>
      <trkpt lat="45.85195" lon="3.01034">
        <ele>771</ele>
        <time>2019-12-25T13:16:31.000Z</time>
      </trkpt>
      <trkpt lat="45.85205" lon="3.01043">
        <ele>771</ele>
        <time>2019-12-25T13:16:33.000Z</time>
      </trkpt>
      <trkpt lat="45.85216" lon="3.01052">
        <ele>771</ele>
        <time>2019-12-25T13:16:35.000Z</time>
      </trkpt>
      <trkpt lat="45.85227" lon="3.01061">
        <ele>771</ele>
        <time>2019-12-25T13:16:37.000Z</time>
      </trkpt>
      <trkpt lat="45.85232" lon="3.01065">
        <ele>771</ele>
        <time>2019-12-25T13:16:38.000Z</time>
      </trkpt>
      <trkpt lat="45.85244" lon="3.0107">
        <ele>771</ele>
        <time>2019-12-25T13:16:40.000Z</time>
      </trkpt>
      <trkpt lat="45.8525" lon="3.01073">
        <ele>771</ele>
        <time>2019-12-25T13:16:41.000Z</time>
      </trkpt>
      <trkpt lat="45.85256" lon="3.01075">
        <ele>771</ele>
        <time>2019-12-25T13:16:42.000Z</time>
      </trkpt>
      <trkpt lat="45.85268" lon="3.01077">
        <ele>771</ele>
        <time>2019-12-25T13:16:44.000Z</time>
      </trkpt>
      <trkpt lat="45.8528" lon="3.01079">
        <ele>771</ele>
        <time>2019-12-25T13:16:46.000Z</time>
      </trkpt>
      <trkpt lat="45.85286" lon="3.0108">
        <ele>771.1</ele>
        <time>2019-12-25T13:16:47.000Z</time>
      </trkpt>
      <trkpt lat="45.85298" lon="3.01081">
        <ele>771.1</ele>
        <time>2019-12-25T13:16:49.000Z</time>
      </trkpt>
      <trkpt lat="45.85309" lon="3.01082">
        <ele>771.1</ele>
        <time>2019-12-25T13:16:51.000Z</time>
      </trkpt>
      <trkpt lat="45.8532" lon="3.01083">
        <ele>771.1</ele>
        <time>2019-12-25T13:16:53.000Z</time>
      </trkpt>
      <trkpt lat="45.85326" lon="3.01082">
        <ele>771.1</ele>
        <time>2019-12-25T13:16:54.000Z</time>
      </trkpt>
      <trkpt lat="45.85338" lon="3.01081">
        <ele>770.9</ele>
        <time>2019-12-25T13:16:56.000Z</time>
      </trkpt>
      <trkpt lat="45.85345" lon="3.0108">
        <ele>770.7</ele>
        <time>2019-12-25T13:16:57.000Z</time>
      </trkpt>
      <trkpt lat="45.85351" lon="3.01078">
        <ele>770.5</ele>
        <time>2019-12-25T13:16:58.000Z</time>
      </trkpt>
      <trkpt lat="45.85364" lon="3.01073">
        <ele>770.2</ele>
        <time>2019-12-25T13:17:00.000Z</time>
      </trkpt>
      <trkpt lat="45.85378" lon="3.01067">
        <ele>769.5</ele>
        <time>2019-12-25T13:17:02.000Z</time>
      </trkpt>
      <trkpt lat="45.85394" lon="3.01061">
        <ele>769</ele>
        <time>2019-12-25T13:17:04.000Z</time>
      </trkpt>
      <trkpt lat="45.8541" lon="3.01054">
        <ele>768.3</ele>
        <time>2019-12-25T13:17:06.000Z</time>
      </trkpt>
      <trkpt lat="45.85429" lon="3.01047">
        <ele>767.2</ele>
        <time>2019-12-25T13:17:08.000Z</time>
      </trkpt>
      <trkpt lat="45.85439" lon="3.01043">
        <ele>766.9</ele>
        <time>2019-12-25T13:17:09.000Z</time>
      </trkpt>
      <trkpt lat="45.85449" lon="3.01039">
        <ele>766.5</ele>
        <time>2019-12-25T13:17:10.000Z</time>
      </trkpt>
      <trkpt lat="45.8547" lon="3.0103">
        <ele>765.7</ele>
        <time>2019-12-25T13:17:12.000Z</time>
      </trkpt>
      <trkpt lat="45.85481" lon="3.01026">
        <ele>765.4</ele>
        <time>2019-12-25T13:17:13.000Z</time>
      </trkpt>
      <trkpt lat="45.85492" lon="3.01021">
        <ele>765.1</ele>
        <time>2019-12-25T13:17:14.000Z</time>
      </trkpt>
      <trkpt lat="45.85502" lon="3.01016">
        <ele>764.8</ele>
        <time>2019-12-25T13:17:15.000Z</time>
      </trkpt>
      <trkpt lat="45.85523" lon="3.01004">
        <ele>765.3</ele>
        <time>2019-12-25T13:17:17.000Z</time>
      </trkpt>
      <trkpt lat="45.85533" lon="3.00998">
        <ele>765.8</ele>
        <time>2019-12-25T13:17:18.000Z</time>
      </trkpt>
      <trkpt lat="45.85542" lon="3.00992">
        <ele>766</ele>
        <time>2019-12-25T13:17:19.000Z</time>
      </trkpt>
      <trkpt lat="45.85561" lon="3.00982">
        <ele>766.1</ele>
        <time>2019-12-25T13:17:21.000Z</time>
      </trkpt>
      <trkpt lat="45.85579" lon="3.00976">
        <ele>766.3</ele>
        <time>2019-12-25T13:17:23.000Z</time>
      </trkpt>
      <trkpt lat="45.85588" lon="3.00975">
        <ele>766.5</ele>
        <time>2019-12-25T13:17:24.000Z</time>
      </trkpt>
      <trkpt lat="45.85597" lon="3.00974">
        <ele>766.7</ele>
        <time>2019-12-25T13:17:25.000Z</time>
      </trkpt>
      <trkpt lat="45.85606" lon="3.00974">
        <ele>766.9</ele>
        <time>2019-12-25T13:17:26.000Z</time>
      </trkpt>
      <trkpt lat="45.85624" lon="3.00978">
        <ele>767.1</ele>
        <time>2019-12-25T13:17:28.000Z</time>
      </trkpt>
      <trkpt lat="45.85641" lon="3.00983">
        <ele>767.1</ele>
        <time>2019-12-25T13:17:30.000Z</time>
      </trkpt>
      <trkpt lat="45.8565" lon="3.00986">
        <ele>767.1</ele>
        <time>2019-12-25T13:17:31.000Z</time>
      </trkpt>
      <trkpt lat="45.85666" lon="3.0099">
        <ele>767.1</ele>
        <time>2019-12-25T13:17:33.000Z</time>
      </trkpt>
      <trkpt lat="45.85683" lon="3.00994">
        <ele>767.1</ele>
        <time>2019-12-25T13:17:35.000Z</time>
      </trkpt>
      <trkpt lat="45.85691" lon="3.00997">
        <ele>767.1</ele>
        <time>2019-12-25T13:17:36.000Z</time>
      </trkpt>
      <trkpt lat="45.85707" lon="3.01001">
        <ele>767.2</ele>
        <time>2019-12-25T13:17:38.000Z</time>
      </trkpt>
      <trkpt lat="45.85715" lon="3.01002">
        <ele>767.2</ele>
        <time>2019-12-25T13:17:39.000Z</time>
      </trkpt>
      <trkpt lat="45.85722" lon="3.01003">
        <ele>767.3</ele>
        <time>2019-12-25T13:17:40.000Z</time>
      </trkpt>
      <trkpt lat="45.85738" lon="3.00999">
        <ele>767.6</ele>
        <time>2019-12-25T13:17:42.000Z</time>
      </trkpt>
      <trkpt lat="45.85745" lon="3.00996">
        <ele>767.7</ele>
        <time>2019-12-25T13:17:43.000Z</time>
      </trkpt>
      <trkpt lat="45.8576" lon="3.00987">
        <ele>768.1</ele>
        <time>2019-12-25T13:17:45.000Z</time>
      </trkpt>
      <trkpt lat="45.85766" lon="3.00982">
        <ele>768.1</ele>
        <time>2019-12-25T13:17:46.000Z</time>
      </trkpt>
      <trkpt lat="45.85779" lon="3.00969">
        <ele>768.2</ele>
        <time>2019-12-25T13:17:48.000Z</time>
      </trkpt>
      <trkpt lat="45.85791" lon="3.00953">
        <ele>768.2</ele>
        <time>2019-12-25T13:17:50.000Z</time>
      </trkpt>
      <trkpt lat="45.85799" lon="3.00933">
        <ele>768.3</ele>
        <time>2019-12-25T13:17:52.000Z</time>
      </trkpt>
      <trkpt lat="45.85801" lon="3.00921">
        <ele>768.5</ele>
        <time>2019-12-25T13:17:53.000Z</time>
      </trkpt>
      <trkpt lat="45.85801" lon="3.00908">
        <ele>768.6</ele>
        <time>2019-12-25T13:17:54.000Z</time>
      </trkpt>
      <trkpt lat="45.85801" lon="3.00884">
        <ele>768.9</ele>
        <time>2019-12-25T13:17:56.000Z</time>
      </trkpt>
      <trkpt lat="45.858" lon="3.0086">
        <ele>768.7</ele>
        <time>2019-12-25T13:17:58.000Z</time>
      </trkpt>
      <trkpt lat="45.85798" lon="3.00836">
        <ele>768.4</ele>
        <time>2019-12-25T13:18:00.000Z</time>
      </trkpt>
      <trkpt lat="45.85793" lon="3.00814">
        <ele>768.3</ele>
        <time>2019-12-25T13:18:02.000Z</time>
      </trkpt>
      <trkpt lat="45.85789" lon="3.00791">
        <ele>768.3</ele>
        <time>2019-12-25T13:18:04.000Z</time>
      </trkpt>
      <trkpt lat="45.85784" lon="3.00768">
        <ele>768.3</ele>
        <time>2019-12-25T13:18:06.000Z</time>
      </trkpt>
      <trkpt lat="45.85782" lon="3.00757">
        <ele>768.3</ele>
        <time>2019-12-25T13:18:07.000Z</time>
      </trkpt>
      <trkpt lat="45.85779" lon="3.00734">
        <ele>768.4</ele>
        <time>2019-12-25T13:18:09.000Z</time>
      </trkpt>
      <trkpt lat="45.85778" lon="3.00723">
        <ele>768.6</ele>
        <time>2019-12-25T13:18:10.000Z</time>
      </trkpt>
      <trkpt lat="45.85778" lon="3.00711">
        <ele>768.8</ele>
        <time>2019-12-25T13:18:11.000Z</time>
      </trkpt>
      <trkpt lat="45.85783" lon="3.00688">
        <ele>769.2</ele>
        <time>2019-12-25T13:18:13.000Z</time>
      </trkpt>
      <trkpt lat="45.85793" lon="3.00669">
        <ele>768.9</ele>
        <time>2019-12-25T13:18:15.000Z</time>
      </trkpt>
      <trkpt lat="45.85802" lon="3.0065">
        <ele>768.5</ele>
        <time>2019-12-25T13:18:17.000Z</time>
      </trkpt>
      <trkpt lat="45.85811" lon="3.00631">
        <ele>768</ele>
        <time>2019-12-25T13:18:19.000Z</time>
      </trkpt>
      <trkpt lat="45.8582" lon="3.00612">
        <ele>767.4</ele>
        <time>2019-12-25T13:18:21.000Z</time>
      </trkpt>
      <trkpt lat="45.85825" lon="3.00603">
        <ele>767.2</ele>
        <time>2019-12-25T13:18:22.000Z</time>
      </trkpt>
      <trkpt lat="45.85835" lon="3.00586">
        <ele>766.6</ele>
        <time>2019-12-25T13:18:24.000Z</time>
      </trkpt>
      <trkpt lat="45.85847" lon="3.00575">
        <ele>765.9</ele>
        <time>2019-12-25T13:18:26.000Z</time>
      </trkpt>
      <trkpt lat="45.85864" lon="3.00577">
        <ele>765.2</ele>
        <time>2019-12-25T13:18:28.000Z</time>
      </trkpt>
      <trkpt lat="45.85871" lon="3.00583">
        <ele>764.7</ele>
        <time>2019-12-25T13:18:29.000Z</time>
      </trkpt>
      <trkpt lat="45.85881" lon="3.00608">
        <ele>763.3</ele>
        <time>2019-12-25T13:18:31.000Z</time>
      </trkpt>
      <trkpt lat="45.85885" lon="3.00621">
        <ele>762.7</ele>
        <time>2019-12-25T13:18:32.000Z</time>
      </trkpt>
      <trkpt lat="45.85889" lon="3.00633">
        <ele>762.2</ele>
        <time>2019-12-25T13:18:33.000Z</time>
      </trkpt>
      <trkpt lat="45.85897" lon="3.00658">
        <ele>761.2</ele>
        <time>2019-12-25T13:18:35.000Z</time>
      </trkpt>
      <trkpt lat="45.85902" lon="3.0067">
        <ele>760.8</ele>
        <time>2019-12-25T13:18:36.000Z</time>
      </trkpt>
      <trkpt lat="45.85909" lon="3.00688">
        <ele>760.3</ele>
        <time>2019-12-25T13:18:38.000Z</time>
      </trkpt>
      <trkpt lat="45.8592" lon="3.00695">
        <ele>759.1</ele>
        <time>2019-12-25T13:18:40.000Z</time>
      </trkpt>
      <trkpt lat="45.85927" lon="3.00693">
        <ele>758.3</ele>
        <time>2019-12-25T13:18:41.000Z</time>
      </trkpt>
      <trkpt lat="45.85938" lon="3.0068">
        <ele>756.9</ele>
        <time>2019-12-25T13:18:43.000Z</time>
      </trkpt>
      <trkpt lat="45.85948" lon="3.00665">
        <ele>756.1</ele>
        <time>2019-12-25T13:18:45.000Z</time>
      </trkpt>
      <trkpt lat="45.85959" lon="3.00653">
        <ele>755.6</ele>
        <time>2019-12-25T13:18:47.000Z</time>
      </trkpt>
      <trkpt lat="45.8597" lon="3.00641">
        <ele>755.5</ele>
        <time>2019-12-25T13:18:49.000Z</time>
      </trkpt>
      <trkpt lat="45.85982" lon="3.00631">
        <ele>755.7</ele>
        <time>2019-12-25T13:18:51.000Z</time>
      </trkpt>
      <trkpt lat="45.85988" lon="3.00626">
        <ele>755.9</ele>
        <time>2019-12-25T13:18:52.000Z</time>
      </trkpt>
      <trkpt lat="45.86" lon="3.00617">
        <ele>756.3</ele>
        <time>2019-12-25T13:18:54.000Z</time>
      </trkpt>
      <trkpt lat="45.86005" lon="3.00613">
        <ele>756.4</ele>
        <time>2019-12-25T13:18:55.000Z</time>
      </trkpt>
      <trkpt lat="45.86018" lon="3.00607">
        <ele>756.9</ele>
        <time>2019-12-25T13:18:57.000Z</time>
      </trkpt>
      <trkpt lat="45.8603" lon="3.00601">
        <ele>757.3</ele>
        <time>2019-12-25T13:18:59.000Z</time>
      </trkpt>
      <trkpt lat="45.86036" lon="3.00598">
        <ele>757.6</ele>
        <time>2019-12-25T13:19:00.000Z</time>
      </trkpt>
      <trkpt lat="45.86049" lon="3.00592">
        <ele>758.1</ele>
        <time>2019-12-25T13:19:02.000Z</time>
      </trkpt>
      <trkpt lat="45.86063" lon="3.00589">
        <ele>758.7</ele>
        <time>2019-12-25T13:19:04.000Z</time>
      </trkpt>
      <trkpt lat="45.86076" lon="3.00585">
        <ele>759.2</ele>
        <time>2019-12-25T13:19:06.000Z</time>
      </trkpt>
      <trkpt lat="45.8609" lon="3.00582">
        <ele>759.7</ele>
        <time>2019-12-25T13:19:08.000Z</time>
      </trkpt>
      <trkpt lat="45.86104" lon="3.00579">
        <ele>760.1</ele>
        <time>2019-12-25T13:19:10.000Z</time>
      </trkpt>
      <trkpt lat="45.86112" lon="3.00578">
        <ele>760.2</ele>
        <time>2019-12-25T13:19:11.000Z</time>
      </trkpt>
      <trkpt lat="45.86119" lon="3.00576">
        <ele>760.3</ele>
        <time>2019-12-25T13:19:12.000Z</time>
      </trkpt>
      <trkpt lat="45.86133" lon="3.00573">
        <ele>760.3</ele>
        <time>2019-12-25T13:19:14.000Z</time>
      </trkpt>
      <trkpt lat="45.8614" lon="3.00571">
        <ele>760.4</ele>
        <time>2019-12-25T13:19:15.000Z</time>
      </trkpt>
      <trkpt lat="45.86154" lon="3.00568">
        <ele>760.4</ele>
        <time>2019-12-25T13:19:17.000Z</time>
      </trkpt>
      <trkpt lat="45.86168" lon="3.00564">
        <ele>760.4</ele>
        <time>2019-12-25T13:19:19.000Z</time>
      </trkpt>
      <trkpt lat="45.86175" lon="3.00561">
        <ele>760.4</ele>
        <time>2019-12-25T13:19:20.000Z</time>
      </trkpt>
      <trkpt lat="45.86189" lon="3.00556">
        <ele>760.4</ele>
        <time>2019-12-25T13:19:22.000Z</time>
      </trkpt>
      <trkpt lat="45.86204" lon="3.00549">
        <ele>760.4</ele>
        <time>2019-12-25T13:19:24.000Z</time>
      </trkpt>
      <trkpt lat="45.86211" lon="3.00545">
        <ele>760.4</ele>
        <time>2019-12-25T13:19:25.000Z</time>
      </trkpt>
      <trkpt lat="45.86226" lon="3.00535">
        <ele>760.5</ele>
        <time>2019-12-25T13:19:27.000Z</time>
      </trkpt>
      <trkpt lat="45.8624" lon="3.00523">
        <ele>760.5</ele>
        <time>2019-12-25T13:19:29.000Z</time>
      </trkpt>
      <trkpt lat="45.86247" lon="3.00518">
        <ele>760.5</ele>
        <time>2019-12-25T13:19:30.000Z</time>
      </trkpt>
      <trkpt lat="45.86261" lon="3.00506">
        <ele>760.5</ele>
        <time>2019-12-25T13:19:32.000Z</time>
      </trkpt>
      <trkpt lat="45.86275" lon="3.00494">
        <ele>760.7</ele>
        <time>2019-12-25T13:19:34.000Z</time>
      </trkpt>
      <trkpt lat="45.86289" lon="3.00482">
        <ele>761.2</ele>
        <time>2019-12-25T13:19:36.000Z</time>
      </trkpt>
      <trkpt lat="45.86297" lon="3.00476">
        <ele>761.5</ele>
        <time>2019-12-25T13:19:37.000Z</time>
      </trkpt>
      <trkpt lat="45.86304" lon="3.0047">
        <ele>761.6</ele>
        <time>2019-12-25T13:19:38.000Z</time>
      </trkpt>
      <trkpt lat="45.86319" lon="3.00458">
        <ele>761.7</ele>
        <time>2019-12-25T13:19:40.000Z</time>
      </trkpt>
      <trkpt lat="45.86333" lon="3.00445">
        <ele>761.8</ele>
        <time>2019-12-25T13:19:42.000Z</time>
      </trkpt>
      <trkpt lat="45.86347" lon="3.00432">
        <ele>762</ele>
        <time>2019-12-25T13:19:44.000Z</time>
      </trkpt>
      <trkpt lat="45.86354" lon="3.00426">
        <ele>762.1</ele>
        <time>2019-12-25T13:19:45.000Z</time>
      </trkpt>
      <trkpt lat="45.86361" lon="3.0042">
        <ele>762.2</ele>
        <time>2019-12-25T13:19:46.000Z</time>
      </trkpt>
      <trkpt lat="45.86376" lon="3.00408">
        <ele>762.5</ele>
        <time>2019-12-25T13:19:48.000Z</time>
      </trkpt>
      <trkpt lat="45.86383" lon="3.00402">
        <ele>762.7</ele>
        <time>2019-12-25T13:19:49.000Z</time>
      </trkpt>
      <trkpt lat="45.86397" lon="3.0039">
        <ele>763</ele>
        <time>2019-12-25T13:19:51.000Z</time>
      </trkpt>
      <trkpt lat="45.86411" lon="3.00376">
        <ele>763.1</ele>
        <time>2019-12-25T13:19:53.000Z</time>
      </trkpt>
      <trkpt lat="45.86421" lon="3.00358">
        <ele>763</ele>
        <time>2019-12-25T13:19:55.000Z</time>
      </trkpt>
      <trkpt lat="45.8643" lon="3.00338">
        <ele>762.7</ele>
        <time>2019-12-25T13:19:57.000Z</time>
      </trkpt>
      <trkpt lat="45.86438" lon="3.00317">
        <ele>762.4</ele>
        <time>2019-12-25T13:19:59.000Z</time>
      </trkpt>
      <trkpt lat="45.86446" lon="3.00297">
        <ele>762</ele>
        <time>2019-12-25T13:20:01.000Z</time>
      </trkpt>
      <trkpt lat="45.86458" lon="3.0028">
        <ele>761.5</ele>
        <time>2019-12-25T13:20:03.000Z</time>
      </trkpt>
      <trkpt lat="45.8647" lon="3.00267">
        <ele>761.2</ele>
        <time>2019-12-25T13:20:05.000Z</time>
      </trkpt>
      <trkpt lat="45.86483" lon="3.00255">
        <ele>760.7</ele>
        <time>2019-12-25T13:20:07.000Z</time>
      </trkpt>
      <trkpt lat="45.86496" lon="3.00242">
        <ele>760.2</ele>
        <time>2019-12-25T13:20:09.000Z</time>
      </trkpt>
      <trkpt lat="45.86503" lon="3.00236">
        <ele>760.1</ele>
        <time>2019-12-25T13:20:10.000Z</time>
      </trkpt>
      <trkpt lat="45.8651" lon="3.00229">
        <ele>760.1</ele>
        <time>2019-12-25T13:20:11.000Z</time>
      </trkpt>
      <trkpt lat="45.86523" lon="3.00213">
        <ele>760</ele>
        <time>2019-12-25T13:20:13.000Z</time>
      </trkpt>
      <trkpt lat="45.86536" lon="3.00197">
        <ele>760.5</ele>
        <time>2019-12-25T13:20:15.000Z</time>
      </trkpt>
      <trkpt lat="45.86542" lon="3.00189">
        <ele>760.8</ele>
        <time>2019-12-25T13:20:16.000Z</time>
      </trkpt>
      <trkpt lat="45.86549" lon="3.0018">
        <ele>761.1</ele>
        <time>2019-12-25T13:20:17.000Z</time>
      </trkpt>
      <trkpt lat="45.86562" lon="3.00164">
        <ele>761.6</ele>
        <time>2019-12-25T13:20:19.000Z</time>
      </trkpt>
      <trkpt lat="45.86575" lon="3.00146">
        <ele>762.4</ele>
        <time>2019-12-25T13:20:21.000Z</time>
      </trkpt>
      <trkpt lat="45.86588" lon="3.00129">
        <ele>763.5</ele>
        <time>2019-12-25T13:20:23.000Z</time>
      </trkpt>
      <trkpt lat="45.86601" lon="3.00112">
        <ele>764</ele>
        <time>2019-12-25T13:20:25.000Z</time>
      </trkpt>
      <trkpt lat="45.86614" lon="3.00092">
        <ele>764.1</ele>
        <time>2019-12-25T13:20:27.000Z</time>
      </trkpt>
      <trkpt lat="45.86625" lon="3.00071">
        <ele>764.4</ele>
        <time>2019-12-25T13:20:29.000Z</time>
      </trkpt>
      <trkpt lat="45.86631" lon="3.0006">
        <ele>764.6</ele>
        <time>2019-12-25T13:20:30.000Z</time>
      </trkpt>
      <trkpt lat="45.86643" lon="3.0004">
        <ele>765</ele>
        <time>2019-12-25T13:20:32.000Z</time>
      </trkpt>
      <trkpt lat="45.86655" lon="3.0002">
        <ele>765.1</ele>
        <time>2019-12-25T13:20:34.000Z</time>
      </trkpt>
      <trkpt lat="45.8666" lon="3.00009">
        <ele>765.2</ele>
        <time>2019-12-25T13:20:35.000Z</time>
      </trkpt>
      <trkpt lat="45.86671" lon="2.99988">
        <ele>765.3</ele>
        <time>2019-12-25T13:20:37.000Z</time>
      </trkpt>
      <trkpt lat="45.86677" lon="2.99978">
        <ele>765.4</ele>
        <time>2019-12-25T13:20:38.000Z</time>
      </trkpt>
      <trkpt lat="45.86682" lon="2.99968">
        <ele>765.5</ele>
        <time>2019-12-25T13:20:39.000Z</time>
      </trkpt>
      <trkpt lat="45.86694" lon="2.99948">
        <ele>765.8</ele>
        <time>2019-12-25T13:20:41.000Z</time>
      </trkpt>
      <trkpt lat="45.86706" lon="2.9993">
        <ele>766.1</ele>
        <time>2019-12-25T13:20:43.000Z</time>
      </trkpt>
      <trkpt lat="45.86712" lon="2.9992">
        <ele>766.3</ele>
        <time>2019-12-25T13:20:44.000Z</time>
      </trkpt>
      <trkpt lat="45.86717" lon="2.99911">
        <ele>766.4</ele>
        <time>2019-12-25T13:20:45.000Z</time>
      </trkpt>
      <trkpt lat="45.86729" lon="2.99894">
        <ele>766.8</ele>
        <time>2019-12-25T13:20:47.000Z</time>
      </trkpt>
      <trkpt lat="45.8674" lon="2.99877">
        <ele>767.4</ele>
        <time>2019-12-25T13:20:49.000Z</time>
      </trkpt>
      <trkpt lat="45.86751" lon="2.99861">
        <ele>767.7</ele>
        <time>2019-12-25T13:20:51.000Z</time>
      </trkpt>
      <trkpt lat="45.86762" lon="2.99845">
        <ele>768</ele>
        <time>2019-12-25T13:20:53.000Z</time>
      </trkpt>
      <trkpt lat="45.86773" lon="2.9983">
        <ele>768.4</ele>
        <time>2019-12-25T13:20:55.000Z</time>
      </trkpt>
      <trkpt lat="45.86778" lon="2.99821">
        <ele>768.6</ele>
        <time>2019-12-25T13:20:56.000Z</time>
      </trkpt>
      <trkpt lat="45.86787" lon="2.99804">
        <ele>769</ele>
        <time>2019-12-25T13:20:58.000Z</time>
      </trkpt>
      <trkpt lat="45.86791" lon="2.99795">
        <ele>769.2</ele>
        <time>2019-12-25T13:20:59.000Z</time>
      </trkpt>
      <trkpt lat="45.86799" lon="2.99776">
        <ele>769.7</ele>
        <time>2019-12-25T13:21:01.000Z</time>
      </trkpt>
      <trkpt lat="45.86803" lon="2.99767">
        <ele>770</ele>
        <time>2019-12-25T13:21:02.000Z</time>
      </trkpt>
      <trkpt lat="45.86812" lon="2.99748">
        <ele>771</ele>
        <time>2019-12-25T13:21:04.000Z</time>
      </trkpt>
      <trkpt lat="45.8682" lon="2.9973">
        <ele>771.9</ele>
        <time>2019-12-25T13:21:06.000Z</time>
      </trkpt>
      <trkpt lat="45.86824" lon="2.99721">
        <ele>772.4</ele>
        <time>2019-12-25T13:21:07.000Z</time>
      </trkpt>
      <trkpt lat="45.86827" lon="2.99712">
        <ele>772.8</ele>
        <time>2019-12-25T13:21:08.000Z</time>
      </trkpt>
      <trkpt lat="45.86835" lon="2.99693">
        <ele>773.5</ele>
        <time>2019-12-25T13:21:10.000Z</time>
      </trkpt>
      <trkpt lat="45.86842" lon="2.99675">
        <ele>774.2</ele>
        <time>2019-12-25T13:21:12.000Z</time>
      </trkpt>
      <trkpt lat="45.86845" lon="2.99667">
        <ele>774.5</ele>
        <time>2019-12-25T13:21:13.000Z</time>
      </trkpt>
      <trkpt lat="45.86853" lon="2.99649">
        <ele>775.1</ele>
        <time>2019-12-25T13:21:15.000Z</time>
      </trkpt>
      <trkpt lat="45.8686" lon="2.99631">
        <ele>775.7</ele>
        <time>2019-12-25T13:21:17.000Z</time>
      </trkpt>
      <trkpt lat="45.86864" lon="2.99621">
        <ele>776.1</ele>
        <time>2019-12-25T13:21:18.000Z</time>
      </trkpt>
      <trkpt lat="45.86871" lon="2.99604">
        <ele>776</ele>
        <time>2019-12-25T13:21:20.000Z</time>
      </trkpt>
      <trkpt lat="45.86879" lon="2.99587">
        <ele>775.9</ele>
        <time>2019-12-25T13:21:22.000Z</time>
      </trkpt>
      <trkpt lat="45.86883" lon="2.99578">
        <ele>775.9</ele>
        <time>2019-12-25T13:21:23.000Z</time>
      </trkpt>
      <trkpt lat="45.86892" lon="2.99562">
        <ele>775.7</ele>
        <time>2019-12-25T13:21:25.000Z</time>
      </trkpt>
      <trkpt lat="45.86902" lon="2.99547">
        <ele>775.5</ele>
        <time>2019-12-25T13:21:27.000Z</time>
      </trkpt>
      <trkpt lat="45.86913" lon="2.99532">
        <ele>775.1</ele>
        <time>2019-12-25T13:21:29.000Z</time>
      </trkpt>
      <trkpt lat="45.86919" lon="2.99525">
        <ele>774.9</ele>
        <time>2019-12-25T13:21:30.000Z</time>
      </trkpt>
      <trkpt lat="45.86931" lon="2.99513">
        <ele>774.6</ele>
        <time>2019-12-25T13:21:32.000Z</time>
      </trkpt>
      <trkpt lat="45.86943" lon="2.995">
        <ele>774.3</ele>
        <time>2019-12-25T13:21:34.000Z</time>
      </trkpt>
      <trkpt lat="45.86949" lon="2.99495">
        <ele>774.2</ele>
        <time>2019-12-25T13:21:35.000Z</time>
      </trkpt>
      <trkpt lat="45.86962" lon="2.99485">
        <ele>773.9</ele>
        <time>2019-12-25T13:21:37.000Z</time>
      </trkpt>
      <trkpt lat="45.86969" lon="2.99481">
        <ele>773.8</ele>
        <time>2019-12-25T13:21:38.000Z</time>
      </trkpt>
      <trkpt lat="45.86975" lon="2.99476">
        <ele>773.7</ele>
        <time>2019-12-25T13:21:39.000Z</time>
      </trkpt>
      <trkpt lat="45.86988" lon="2.99468">
        <ele>773.5</ele>
        <time>2019-12-25T13:21:41.000Z</time>
      </trkpt>
      <trkpt lat="45.86995" lon="2.99465">
        <ele>773.4</ele>
        <time>2019-12-25T13:21:42.000Z</time>
      </trkpt>
      <trkpt lat="45.87009" lon="2.99457">
        <ele>773</ele>
        <time>2019-12-25T13:21:44.000Z</time>
      </trkpt>
      <trkpt lat="45.87023" lon="2.9945">
        <ele>772.6</ele>
        <time>2019-12-25T13:21:46.000Z</time>
      </trkpt>
      <trkpt lat="45.8703" lon="2.99446">
        <ele>772.5</ele>
        <time>2019-12-25T13:21:47.000Z</time>
      </trkpt>
      <trkpt lat="45.87043" lon="2.99438">
        <ele>772.3</ele>
        <time>2019-12-25T13:21:49.000Z</time>
      </trkpt>
      <trkpt lat="45.8705" lon="2.99434">
        <ele>772.2</ele>
        <time>2019-12-25T13:21:50.000Z</time>
      </trkpt>
      <trkpt lat="45.87063" lon="2.99429">
        <ele>772.1</ele>
        <time>2019-12-25T13:21:52.000Z</time>
      </trkpt>
      <trkpt lat="45.87069" lon="2.99426">
        <ele>772</ele>
        <time>2019-12-25T13:21:53.000Z</time>
      </trkpt>
      <trkpt lat="45.87081" lon="2.99426">
        <ele>771.8</ele>
        <time>2019-12-25T13:21:55.000Z</time>
      </trkpt>
      <trkpt lat="45.87089" lon="2.99438">
        <ele>771.3</ele>
        <time>2019-12-25T13:21:57.000Z</time>
      </trkpt>
      <trkpt lat="45.8709" lon="2.99449">
        <ele>771</ele>
        <time>2019-12-25T13:21:58.000Z</time>
      </trkpt>
      <trkpt lat="45.87089" lon="2.99473">
        <ele>770.2</ele>
        <time>2019-12-25T13:22:00.000Z</time>
      </trkpt>
      <trkpt lat="45.87087" lon="2.99486">
        <ele>769.6</ele>
        <time>2019-12-25T13:22:01.000Z</time>
      </trkpt>
      <trkpt lat="45.87085" lon="2.99514">
        <ele>767.9</ele>
        <time>2019-12-25T13:22:03.000Z</time>
      </trkpt>
      <trkpt lat="45.87092" lon="2.99541">
        <ele>766.8</ele>
        <time>2019-12-25T13:22:05.000Z</time>
      </trkpt>
      <trkpt lat="45.871" lon="2.99552">
        <ele>766.7</ele>
        <time>2019-12-25T13:22:06.000Z</time>
      </trkpt>
      <trkpt lat="45.8711" lon="2.99558">
        <ele>766.6</ele>
        <time>2019-12-25T13:22:07.000Z</time>
      </trkpt>
      <trkpt lat="45.87133" lon="2.9956">
        <ele>766.7</ele>
        <time>2019-12-25T13:22:09.000Z</time>
      </trkpt>
      <trkpt lat="45.87153" lon="2.99555">
        <ele>767</ele>
        <time>2019-12-25T13:22:11.000Z</time>
      </trkpt>
      <trkpt lat="45.87162" lon="2.99551">
        <ele>767.1</ele>
        <time>2019-12-25T13:22:12.000Z</time>
      </trkpt>
      <trkpt lat="45.87172" lon="2.99548">
        <ele>767.3</ele>
        <time>2019-12-25T13:22:13.000Z</time>
      </trkpt>
      <trkpt lat="45.87188" lon="2.99541">
        <ele>767.5</ele>
        <time>2019-12-25T13:22:15.000Z</time>
      </trkpt>
      <trkpt lat="45.87205" lon="2.99535">
        <ele>767.8</ele>
        <time>2019-12-25T13:22:17.000Z</time>
      </trkpt>
      <trkpt lat="45.87212" lon="2.99533">
        <ele>767.8</ele>
        <time>2019-12-25T13:22:18.000Z</time>
      </trkpt>
      <trkpt lat="45.87226" lon="2.99529">
        <ele>767.9</ele>
        <time>2019-12-25T13:22:20.000Z</time>
      </trkpt>
      <trkpt lat="45.87234" lon="2.99525">
        <ele>768</ele>
        <time>2019-12-25T13:22:21.000Z</time>
      </trkpt>
      <trkpt lat="45.87248" lon="2.99519">
        <ele>768.6</ele>
        <time>2019-12-25T13:22:23.000Z</time>
      </trkpt>
      <trkpt lat="45.87262" lon="2.99513">
        <ele>768.2</ele>
        <time>2019-12-25T13:22:25.000Z</time>
      </trkpt>
      <trkpt lat="45.87268" lon="2.99511">
        <ele>768</ele>
        <time>2019-12-25T13:22:26.000Z</time>
      </trkpt>
      <trkpt lat="45.87282" lon="2.99507">
        <ele>767.9</ele>
        <time>2019-12-25T13:22:28.000Z</time>
      </trkpt>
      <trkpt lat="45.8729" lon="2.99506">
        <ele>768</ele>
        <time>2019-12-25T13:22:29.000Z</time>
      </trkpt>
      <trkpt lat="45.87306" lon="2.99507">
        <ele>768.3</ele>
        <time>2019-12-25T13:22:31.000Z</time>
      </trkpt>
      <trkpt lat="45.87314" lon="2.9951">
        <ele>768.1</ele>
        <time>2019-12-25T13:22:32.000Z</time>
      </trkpt>
      <trkpt lat="45.87322" lon="2.99516">
        <ele>767.7</ele>
        <time>2019-12-25T13:22:33.000Z</time>
      </trkpt>
      <trkpt lat="45.87336" lon="2.99532">
        <ele>766.3</ele>
        <time>2019-12-25T13:22:35.000Z</time>
      </trkpt>
      <trkpt lat="45.8735" lon="2.99553">
        <ele>764.6</ele>
        <time>2019-12-25T13:22:37.000Z</time>
      </trkpt>
      <trkpt lat="45.87362" lon="2.99577">
        <ele>762.9</ele>
        <time>2019-12-25T13:22:39.000Z</time>
      </trkpt>
      <trkpt lat="45.87367" lon="2.9959">
        <ele>762.1</ele>
        <time>2019-12-25T13:22:40.000Z</time>
      </trkpt>
      <trkpt lat="45.87378" lon="2.99619">
        <ele>760.8</ele>
        <time>2019-12-25T13:22:42.000Z</time>
      </trkpt>
      <trkpt lat="45.87382" lon="2.99634">
        <ele>760.2</ele>
        <time>2019-12-25T13:22:43.000Z</time>
      </trkpt>
      <trkpt lat="45.87392" lon="2.99664">
        <ele>759.1</ele>
        <time>2019-12-25T13:22:45.000Z</time>
      </trkpt>
      <trkpt lat="45.87398" lon="2.99679">
        <ele>758.4</ele>
        <time>2019-12-25T13:22:46.000Z</time>
      </trkpt>
      <trkpt lat="45.87412" lon="2.99705">
        <ele>757.1</ele>
        <time>2019-12-25T13:22:48.000Z</time>
      </trkpt>
      <trkpt lat="45.8742" lon="2.99717">
        <ele>756.2</ele>
        <time>2019-12-25T13:22:49.000Z</time>
      </trkpt>
      <trkpt lat="45.87434" lon="2.99747">
        <ele>754.6</ele>
        <time>2019-12-25T13:22:51.000Z</time>
      </trkpt>
      <trkpt lat="45.87438" lon="2.99765">
        <ele>753.7</ele>
        <time>2019-12-25T13:22:52.000Z</time>
      </trkpt>
      <trkpt lat="45.87446" lon="2.99798">
        <ele>752.2</ele>
        <time>2019-12-25T13:22:54.000Z</time>
      </trkpt>
      <trkpt lat="45.8746" lon="2.99822">
        <ele>750.8</ele>
        <time>2019-12-25T13:22:56.000Z</time>
      </trkpt>
      <trkpt lat="45.87482" lon="2.99827">
        <ele>749.4</ele>
        <time>2019-12-25T13:22:58.000Z</time>
      </trkpt>
      <trkpt lat="45.87503" lon="2.9983">
        <ele>748</ele>
        <time>2019-12-25T13:23:00.000Z</time>
      </trkpt>
      <trkpt lat="45.87511" lon="2.99839">
        <ele>747.3</ele>
        <time>2019-12-25T13:23:01.000Z</time>
      </trkpt>
      <trkpt lat="45.87523" lon="2.99867">
        <ele>745.7</ele>
        <time>2019-12-25T13:23:03.000Z</time>
      </trkpt>
      <trkpt lat="45.87532" lon="2.99897">
        <ele>744</ele>
        <time>2019-12-25T13:23:05.000Z</time>
      </trkpt>
      <trkpt lat="45.87538" lon="2.99911">
        <ele>743.2</ele>
        <time>2019-12-25T13:23:06.000Z</time>
      </trkpt>
      <trkpt lat="45.87553" lon="2.99935">
        <ele>742.1</ele>
        <time>2019-12-25T13:23:08.000Z</time>
      </trkpt>
      <trkpt lat="45.87571" lon="2.99958">
        <ele>741.7</ele>
        <time>2019-12-25T13:23:10.000Z</time>
      </trkpt>
      <trkpt lat="45.87579" lon="2.9997">
        <ele>742</ele>
        <time>2019-12-25T13:23:11.000Z</time>
      </trkpt>
      <trkpt lat="45.87587" lon="2.99982">
        <ele>742.3</ele>
        <time>2019-12-25T13:23:12.000Z</time>
      </trkpt>
      <trkpt lat="45.87603" lon="3.00004">
        <ele>743.1</ele>
        <time>2019-12-25T13:23:14.000Z</time>
      </trkpt>
      <trkpt lat="45.87619" lon="3.00025">
        <ele>743.7</ele>
        <time>2019-12-25T13:23:16.000Z</time>
      </trkpt>
      <trkpt lat="45.87635" lon="3.00045">
        <ele>743.8</ele>
        <time>2019-12-25T13:23:18.000Z</time>
      </trkpt>
      <trkpt lat="45.87644" lon="3.00056">
        <ele>743.8</ele>
        <time>2019-12-25T13:23:19.000Z</time>
      </trkpt>
      <trkpt lat="45.87652" lon="3.00067">
        <ele>743.9</ele>
        <time>2019-12-25T13:23:20.000Z</time>
      </trkpt>
      <trkpt lat="45.87661" lon="3.00078">
        <ele>744</ele>
        <time>2019-12-25T13:23:21.000Z</time>
      </trkpt>
      <trkpt lat="45.87678" lon="3.00098">
        <ele>744.6</ele>
        <time>2019-12-25T13:23:23.000Z</time>
      </trkpt>
      <trkpt lat="45.87698" lon="3.0011">
        <ele>745.2</ele>
        <time>2019-12-25T13:23:25.000Z</time>
      </trkpt>
      <trkpt lat="45.87708" lon="3.00113">
        <ele>745.5</ele>
        <time>2019-12-25T13:23:26.000Z</time>
      </trkpt>
      <trkpt lat="45.87729" lon="3.00112">
        <ele>745.9</ele>
        <time>2019-12-25T13:23:28.000Z</time>
      </trkpt>
      <trkpt lat="45.87749" lon="3.00102">
        <ele>746</ele>
        <time>2019-12-25T13:23:30.000Z</time>
      </trkpt>
      <trkpt lat="45.87769" lon="3.00091">
        <ele>746</ele>
        <time>2019-12-25T13:23:32.000Z</time>
      </trkpt>
      <trkpt lat="45.87788" lon="3.00082">
        <ele>746.2</ele>
        <time>2019-12-25T13:23:34.000Z</time>
      </trkpt>
      <trkpt lat="45.87808" lon="3.00078">
        <ele>746.4</ele>
        <time>2019-12-25T13:23:36.000Z</time>
      </trkpt>
      <trkpt lat="45.87827" lon="3.00077">
        <ele>746.3</ele>
        <time>2019-12-25T13:23:38.000Z</time>
      </trkpt>
      <trkpt lat="45.87835" lon="3.00078">
        <ele>746.2</ele>
        <time>2019-12-25T13:23:39.000Z</time>
      </trkpt>
      <trkpt lat="45.87853" lon="3.0008">
        <ele>746</ele>
        <time>2019-12-25T13:23:41.000Z</time>
      </trkpt>
      <trkpt lat="45.87861" lon="3.00081">
        <ele>746</ele>
        <time>2019-12-25T13:23:42.000Z</time>
      </trkpt>
      <trkpt lat="45.87877" lon="3.00082">
        <ele>745.9</ele>
        <time>2019-12-25T13:23:44.000Z</time>
      </trkpt>
      <trkpt lat="45.87892" lon="3.00082">
        <ele>745.9</ele>
        <time>2019-12-25T13:23:46.000Z</time>
      </trkpt>
      <trkpt lat="45.87907" lon="3.00085">
        <ele>745.9</ele>
        <time>2019-12-25T13:23:48.000Z</time>
      </trkpt>
      <trkpt lat="45.87914" lon="3.00086">
        <ele>745.9</ele>
        <time>2019-12-25T13:23:49.000Z</time>
      </trkpt>
      <trkpt lat="45.87928" lon="3.00087">
        <ele>746.2</ele>
        <time>2019-12-25T13:23:51.000Z</time>
      </trkpt>
      <trkpt lat="45.87942" lon="3.00088">
        <ele>746.6</ele>
        <time>2019-12-25T13:23:53.000Z</time>
      </trkpt>
      <trkpt lat="45.87948" lon="3.00089">
        <ele>746.9</ele>
        <time>2019-12-25T13:23:54.000Z</time>
      </trkpt>
      <trkpt lat="45.87961" lon="3.00092">
        <ele>747.3</ele>
        <time>2019-12-25T13:23:56.000Z</time>
      </trkpt>
      <trkpt lat="45.87973" lon="3.00093">
        <ele>747.5</ele>
        <time>2019-12-25T13:23:58.000Z</time>
      </trkpt>
      <trkpt lat="45.87985" lon="3.00091">
        <ele>747.5</ele>
        <time>2019-12-25T13:24:00.000Z</time>
      </trkpt>
      <trkpt lat="45.87995" lon="3.0008">
        <ele>747.5</ele>
        <time>2019-12-25T13:24:02.000Z</time>
      </trkpt>
      <trkpt lat="45.88003" lon="3.00065">
        <ele>747.9</ele>
        <time>2019-12-25T13:24:04.000Z</time>
      </trkpt>
      <trkpt lat="45.8801" lon="3.0005">
        <ele>748.2</ele>
        <time>2019-12-25T13:24:06.000Z</time>
      </trkpt>
      <trkpt lat="45.88013" lon="3.00043">
        <ele>748.3</ele>
        <time>2019-12-25T13:24:07.000Z</time>
      </trkpt>
      <trkpt lat="45.88019" lon="3.00028">
        <ele>748.7</ele>
        <time>2019-12-25T13:24:09.000Z</time>
      </trkpt>
      <trkpt lat="45.88022" lon="3.00022">
        <ele>748.9</ele>
        <time>2019-12-25T13:24:10.000Z</time>
      </trkpt>
      <trkpt lat="45.88028" lon="3.00008">
        <ele>749.2</ele>
        <time>2019-12-25T13:24:12.000Z</time>
      </trkpt>
      <trkpt lat="45.88034" lon="2.99993">
        <ele>749.5</ele>
        <time>2019-12-25T13:24:14.000Z</time>
      </trkpt>
      <trkpt lat="45.8804" lon="2.99978">
        <ele>749.6</ele>
        <time>2019-12-25T13:24:16.000Z</time>
      </trkpt>
      <trkpt lat="45.88046" lon="2.99962">
        <ele>749.7</ele>
        <time>2019-12-25T13:24:18.000Z</time>
      </trkpt>
      <trkpt lat="45.88052" lon="2.99946">
        <ele>749.8</ele>
        <time>2019-12-25T13:24:20.000Z</time>
      </trkpt>
      <trkpt lat="45.88058" lon="2.99929">
        <ele>749.8</ele>
        <time>2019-12-25T13:24:22.000Z</time>
      </trkpt>
      <trkpt lat="45.88064" lon="2.99913">
        <ele>749.9</ele>
        <time>2019-12-25T13:24:24.000Z</time>
      </trkpt>
      <trkpt lat="45.88067" lon="2.99905">
        <ele>749.9</ele>
        <time>2019-12-25T13:24:25.000Z</time>
      </trkpt>
      <trkpt lat="45.88072" lon="2.99888">
        <ele>750.1</ele>
        <time>2019-12-25T13:24:27.000Z</time>
      </trkpt>
      <trkpt lat="45.88075" lon="2.99879">
        <ele>750.2</ele>
        <time>2019-12-25T13:24:28.000Z</time>
      </trkpt>
      <trkpt lat="45.88076" lon="2.9986">
        <ele>750.3</ele>
        <time>2019-12-25T13:24:30.000Z</time>
      </trkpt>
      <trkpt lat="45.88073" lon="2.99841">
        <ele>750.1</ele>
        <time>2019-12-25T13:24:32.000Z</time>
      </trkpt>
      <trkpt lat="45.88069" lon="2.99821">
        <ele>750.2</ele>
        <time>2019-12-25T13:24:34.000Z</time>
      </trkpt>
      <trkpt lat="45.88065" lon="2.99801">
        <ele>750.1</ele>
        <time>2019-12-25T13:24:36.000Z</time>
      </trkpt>
      <trkpt lat="45.88063" lon="2.99791">
        <ele>750.2</ele>
        <time>2019-12-25T13:24:37.000Z</time>
      </trkpt>
      <trkpt lat="45.8806" lon="2.99771">
        <ele>750.4</ele>
        <time>2019-12-25T13:24:39.000Z</time>
      </trkpt>
      <trkpt lat="45.88057" lon="2.99761">
        <ele>750.4</ele>
        <time>2019-12-25T13:24:40.000Z</time>
      </trkpt>
      <trkpt lat="45.8805" lon="2.99743">
        <ele>750.1</ele>
        <time>2019-12-25T13:24:42.000Z</time>
      </trkpt>
      <trkpt lat="45.88046" lon="2.99736">
        <ele>750.1</ele>
        <time>2019-12-25T13:24:43.000Z</time>
      </trkpt>
      <trkpt lat="45.88041" lon="2.99729">
        <ele>750.1</ele>
        <time>2019-12-25T13:24:44.000Z</time>
      </trkpt>
      <trkpt lat="45.8803" lon="2.99716">
        <ele>750</ele>
        <time>2019-12-25T13:24:46.000Z</time>
      </trkpt>
      <trkpt lat="45.88025" lon="2.9971">
        <ele>750.1</ele>
        <time>2019-12-25T13:24:47.000Z</time>
      </trkpt>
      <trkpt lat="45.88016" lon="2.99698">
        <ele>750.6</ele>
        <time>2019-12-25T13:24:49.000Z</time>
      </trkpt>
      <trkpt lat="45.88011" lon="2.99692">
        <ele>750.8</ele>
        <time>2019-12-25T13:24:50.000Z</time>
      </trkpt>
      <trkpt lat="45.88003" lon="2.99681">
        <ele>751.1</ele>
        <time>2019-12-25T13:24:52.000Z</time>
      </trkpt>
      <trkpt lat="45.87999" lon="2.99675">
        <ele>751.3</ele>
        <time>2019-12-25T13:24:53.000Z</time>
      </trkpt>
      <trkpt lat="45.87995" lon="2.99669">
        <ele>751.5</ele>
        <time>2019-12-25T13:24:54.000Z</time>
      </trkpt>
      <trkpt lat="45.8799" lon="2.99664">
        <ele>751.7</ele>
        <time>2019-12-25T13:24:55.000Z</time>
      </trkpt>
      <trkpt lat="45.8798" lon="2.99654">
        <ele>752.1</ele>
        <time>2019-12-25T13:24:57.000Z</time>
      </trkpt>
      <trkpt lat="45.87976" lon="2.99649">
        <ele>752.3</ele>
        <time>2019-12-25T13:24:58.000Z</time>
      </trkpt>
      <trkpt lat="45.87969" lon="2.99636">
        <ele>752.7</ele>
        <time>2019-12-25T13:25:00.000Z</time>
      </trkpt>
      <trkpt lat="45.87964" lon="2.99622">
        <ele>753.6</ele>
        <time>2019-12-25T13:25:02.000Z</time>
      </trkpt>
      <trkpt lat="45.87962" lon="2.99614">
        <ele>754</ele>
        <time>2019-12-25T13:25:03.000Z</time>
      </trkpt>
      <trkpt lat="45.87958" lon="2.99596">
        <ele>754.7</ele>
        <time>2019-12-25T13:25:05.000Z</time>
      </trkpt>
      <trkpt lat="45.87953" lon="2.9958">
        <ele>755.3</ele>
        <time>2019-12-25T13:25:07.000Z</time>
      </trkpt>
      <trkpt lat="45.87948" lon="2.99562">
        <ele>755.7</ele>
        <time>2019-12-25T13:25:09.000Z</time>
      </trkpt>
      <trkpt lat="45.87943" lon="2.99544">
        <ele>756</ele>
        <time>2019-12-25T13:25:11.000Z</time>
      </trkpt>
      <trkpt lat="45.8794" lon="2.99527">
        <ele>756.3</ele>
        <time>2019-12-25T13:25:13.000Z</time>
      </trkpt>
      <trkpt lat="45.87938" lon="2.99518">
        <ele>756.5</ele>
        <time>2019-12-25T13:25:14.000Z</time>
      </trkpt>
      <trkpt lat="45.87935" lon="2.995">
        <ele>756.9</ele>
        <time>2019-12-25T13:25:16.000Z</time>
      </trkpt>
      <trkpt lat="45.87933" lon="2.99491">
        <ele>757.1</ele>
        <time>2019-12-25T13:25:17.000Z</time>
      </trkpt>
      <trkpt lat="45.8793" lon="2.99473">
        <ele>757.5</ele>
        <time>2019-12-25T13:25:19.000Z</time>
      </trkpt>
      <trkpt lat="45.87927" lon="2.99455">
        <ele>757.9</ele>
        <time>2019-12-25T13:25:21.000Z</time>
      </trkpt>
      <trkpt lat="45.87926" lon="2.99437">
        <ele>758.3</ele>
        <time>2019-12-25T13:25:23.000Z</time>
      </trkpt>
      <trkpt lat="45.87925" lon="2.99428">
        <ele>758.5</ele>
        <time>2019-12-25T13:25:24.000Z</time>
      </trkpt>
      <trkpt lat="45.87925" lon="2.99419">
        <ele>758.7</ele>
        <time>2019-12-25T13:25:25.000Z</time>
      </trkpt>
      <trkpt lat="45.87925" lon="2.9941">
        <ele>758.9</ele>
        <time>2019-12-25T13:25:26.000Z</time>
      </trkpt>
      <trkpt lat="45.87926" lon="2.99401">
        <ele>759.1</ele>
        <time>2019-12-25T13:25:27.000Z</time>
      </trkpt>
      <trkpt lat="45.87928" lon="2.99383">
        <ele>759.5</ele>
        <time>2019-12-25T13:25:29.000Z</time>
      </trkpt>
      <trkpt lat="45.87931" lon="2.99366">
        <ele>760.1</ele>
        <time>2019-12-25T13:25:31.000Z</time>
      </trkpt>
      <trkpt lat="45.87932" lon="2.99358">
        <ele>760.3</ele>
        <time>2019-12-25T13:25:32.000Z</time>
      </trkpt>
      <trkpt lat="45.87934" lon="2.99349">
        <ele>760.5</ele>
        <time>2019-12-25T13:25:33.000Z</time>
      </trkpt>
      <trkpt lat="45.87938" lon="2.99332">
        <ele>761.2</ele>
        <time>2019-12-25T13:25:35.000Z</time>
      </trkpt>
      <trkpt lat="45.87941" lon="2.99324">
        <ele>761.6</ele>
        <time>2019-12-25T13:25:36.000Z</time>
      </trkpt>
      <trkpt lat="45.87945" lon="2.99308">
        <ele>762.2</ele>
        <time>2019-12-25T13:25:38.000Z</time>
      </trkpt>
      <trkpt lat="45.87949" lon="2.99292">
        <ele>762.8</ele>
        <time>2019-12-25T13:25:40.000Z</time>
      </trkpt>
      <trkpt lat="45.87951" lon="2.99284">
        <ele>763</ele>
        <time>2019-12-25T13:25:41.000Z</time>
      </trkpt>
      <trkpt lat="45.87956" lon="2.99268">
        <ele>763.6</ele>
        <time>2019-12-25T13:25:43.000Z</time>
      </trkpt>
      <trkpt lat="45.87959" lon="2.99252">
        <ele>763.9</ele>
        <time>2019-12-25T13:25:45.000Z</time>
      </trkpt>
      <trkpt lat="45.87961" lon="2.99243">
        <ele>764.1</ele>
        <time>2019-12-25T13:25:46.000Z</time>
      </trkpt>
      <trkpt lat="45.87965" lon="2.99227">
        <ele>764.6</ele>
        <time>2019-12-25T13:25:48.000Z</time>
      </trkpt>
      <trkpt lat="45.87969" lon="2.99209">
        <ele>765.2</ele>
        <time>2019-12-25T13:25:50.000Z</time>
      </trkpt>
      <trkpt lat="45.87971" lon="2.99201">
        <ele>765.5</ele>
        <time>2019-12-25T13:25:51.000Z</time>
      </trkpt>
      <trkpt lat="45.87975" lon="2.99184">
        <ele>765.8</ele>
        <time>2019-12-25T13:25:53.000Z</time>
      </trkpt>
      <trkpt lat="45.87976" lon="2.99175">
        <ele>766</ele>
        <time>2019-12-25T13:25:54.000Z</time>
      </trkpt>
      <trkpt lat="45.8798" lon="2.99157">
        <ele>766.4</ele>
        <time>2019-12-25T13:25:56.000Z</time>
      </trkpt>
      <trkpt lat="45.87983" lon="2.9914">
        <ele>766.9</ele>
        <time>2019-12-25T13:25:58.000Z</time>
      </trkpt>
      <trkpt lat="45.87986" lon="2.99123">
        <ele>767.4</ele>
        <time>2019-12-25T13:26:00.000Z</time>
      </trkpt>
      <trkpt lat="45.87987" lon="2.99114">
        <ele>767.6</ele>
        <time>2019-12-25T13:26:01.000Z</time>
      </trkpt>
      <trkpt lat="45.87989" lon="2.99106">
        <ele>767.8</ele>
        <time>2019-12-25T13:26:02.000Z</time>
      </trkpt>
      <trkpt lat="45.87993" lon="2.9909">
        <ele>768.2</ele>
        <time>2019-12-25T13:26:04.000Z</time>
      </trkpt>
      <trkpt lat="45.87995" lon="2.99081">
        <ele>768.4</ele>
        <time>2019-12-25T13:26:05.000Z</time>
      </trkpt>
      <trkpt lat="45.87999" lon="2.99065">
        <ele>768.6</ele>
        <time>2019-12-25T13:26:07.000Z</time>
      </trkpt>
      <trkpt lat="45.88003" lon="2.99049">
        <ele>768.8</ele>
        <time>2019-12-25T13:26:09.000Z</time>
      </trkpt>
      <trkpt lat="45.8801" lon="2.99034">
        <ele>769.1</ele>
        <time>2019-12-25T13:26:11.000Z</time>
      </trkpt>
      <trkpt lat="45.88016" lon="2.99018">
        <ele>769.3</ele>
        <time>2019-12-25T13:26:13.000Z</time>
      </trkpt>
      <trkpt lat="45.88023" lon="2.99002">
        <ele>769.5</ele>
        <time>2019-12-25T13:26:15.000Z</time>
      </trkpt>
      <trkpt lat="45.8803" lon="2.98987">
        <ele>769.8</ele>
        <time>2019-12-25T13:26:17.000Z</time>
      </trkpt>
      <trkpt lat="45.88033" lon="2.98979">
        <ele>769.9</ele>
        <time>2019-12-25T13:26:18.000Z</time>
      </trkpt>
      <trkpt lat="45.8804" lon="2.98962">
        <ele>770.2</ele>
        <time>2019-12-25T13:26:20.000Z</time>
      </trkpt>
      <trkpt lat="45.88047" lon="2.98946">
        <ele>770.4</ele>
        <time>2019-12-25T13:26:22.000Z</time>
      </trkpt>
      <trkpt lat="45.88051" lon="2.98938">
        <ele>770.5</ele>
        <time>2019-12-25T13:26:23.000Z</time>
      </trkpt>
      <trkpt lat="45.88055" lon="2.9893">
        <ele>770.6</ele>
        <time>2019-12-25T13:26:24.000Z</time>
      </trkpt>
      <trkpt lat="45.88062" lon="2.98913">
        <ele>770.7</ele>
        <time>2019-12-25T13:26:26.000Z</time>
      </trkpt>
      <trkpt lat="45.88066" lon="2.98904">
        <ele>770.7</ele>
        <time>2019-12-25T13:26:27.000Z</time>
      </trkpt>
      <trkpt lat="45.88072" lon="2.98888">
        <ele>770.7</ele>
        <time>2019-12-25T13:26:29.000Z</time>
      </trkpt>
      <trkpt lat="45.88076" lon="2.98879">
        <ele>770.7</ele>
        <time>2019-12-25T13:26:30.000Z</time>
      </trkpt>
      <trkpt lat="45.88079" lon="2.98871">
        <ele>770.7</ele>
        <time>2019-12-25T13:26:31.000Z</time>
      </trkpt>
      <trkpt lat="45.88086" lon="2.98855">
        <ele>770.6</ele>
        <time>2019-12-25T13:26:33.000Z</time>
      </trkpt>
      <trkpt lat="45.88093" lon="2.98838">
        <ele>770.5</ele>
        <time>2019-12-25T13:26:35.000Z</time>
      </trkpt>
      <trkpt lat="45.88099" lon="2.9882">
        <ele>770.4</ele>
        <time>2019-12-25T13:26:37.000Z</time>
      </trkpt>
      <trkpt lat="45.88104" lon="2.98803">
        <ele>770.4</ele>
        <time>2019-12-25T13:26:39.000Z</time>
      </trkpt>
      <trkpt lat="45.8811" lon="2.98785">
        <ele>770.4</ele>
        <time>2019-12-25T13:26:41.000Z</time>
      </trkpt>
      <trkpt lat="45.88115" lon="2.98767">
        <ele>770.4</ele>
        <time>2019-12-25T13:26:43.000Z</time>
      </trkpt>
      <trkpt lat="45.8812" lon="2.98749">
        <ele>770.4</ele>
        <time>2019-12-25T13:26:45.000Z</time>
      </trkpt>
      <trkpt lat="45.88126" lon="2.9873">
        <ele>770.5</ele>
        <time>2019-12-25T13:26:47.000Z</time>
      </trkpt>
      <trkpt lat="45.88132" lon="2.98713">
        <ele>770.6</ele>
        <time>2019-12-25T13:26:49.000Z</time>
      </trkpt>
      <trkpt lat="45.88138" lon="2.98695">
        <ele>770.8</ele>
        <time>2019-12-25T13:26:51.000Z</time>
      </trkpt>
      <trkpt lat="45.88144" lon="2.98677">
        <ele>771.1</ele>
        <time>2019-12-25T13:26:53.000Z</time>
      </trkpt>
      <trkpt lat="45.8815" lon="2.98658">
        <ele>771.4</ele>
        <time>2019-12-25T13:26:55.000Z</time>
      </trkpt>
      <trkpt lat="45.88153" lon="2.98649">
        <ele>771.5</ele>
        <time>2019-12-25T13:26:56.000Z</time>
      </trkpt>
      <trkpt lat="45.88157" lon="2.98639">
        <ele>771.5</ele>
        <time>2019-12-25T13:26:57.000Z</time>
      </trkpt>
      <trkpt lat="45.88164" lon="2.98622">
        <ele>771.6</ele>
        <time>2019-12-25T13:26:59.000Z</time>
      </trkpt>
      <trkpt lat="45.88172" lon="2.98605">
        <ele>771.8</ele>
        <time>2019-12-25T13:27:01.000Z</time>
      </trkpt>
      <trkpt lat="45.88181" lon="2.98589">
        <ele>772.1</ele>
        <time>2019-12-25T13:27:03.000Z</time>
      </trkpt>
      <trkpt lat="45.88185" lon="2.98581">
        <ele>772.2</ele>
        <time>2019-12-25T13:27:04.000Z</time>
      </trkpt>
      <trkpt lat="45.8819" lon="2.98573">
        <ele>772.4</ele>
        <time>2019-12-25T13:27:05.000Z</time>
      </trkpt>
      <trkpt lat="45.882" lon="2.98558">
        <ele>772.6</ele>
        <time>2019-12-25T13:27:07.000Z</time>
      </trkpt>
      <trkpt lat="45.88205" lon="2.9855">
        <ele>772.6</ele>
        <time>2019-12-25T13:27:08.000Z</time>
      </trkpt>
      <trkpt lat="45.8821" lon="2.98543">
        <ele>772.7</ele>
        <time>2019-12-25T13:27:09.000Z</time>
      </trkpt>
      <trkpt lat="45.8822" lon="2.98529">
        <ele>772.7</ele>
        <time>2019-12-25T13:27:11.000Z</time>
      </trkpt>
      <trkpt lat="45.88232" lon="2.98521">
        <ele>772.7</ele>
        <time>2019-12-25T13:27:13.000Z</time>
      </trkpt>
      <trkpt lat="45.88239" lon="2.98519">
        <ele>772.7</ele>
        <time>2019-12-25T13:27:14.000Z</time>
      </trkpt>
      <trkpt lat="45.88246" lon="2.98518">
        <ele>772.9</ele>
        <time>2019-12-25T13:27:15.000Z</time>
      </trkpt>
      <trkpt lat="45.88253" lon="2.98516">
        <ele>773</ele>
        <time>2019-12-25T13:27:16.000Z</time>
      </trkpt>
      <trkpt lat="45.88268" lon="2.98512">
        <ele>773.3</ele>
        <time>2019-12-25T13:27:18.000Z</time>
      </trkpt>
      <trkpt lat="45.88275" lon="2.9851">
        <ele>773.4</ele>
        <time>2019-12-25T13:27:19.000Z</time>
      </trkpt>
      <trkpt lat="45.88282" lon="2.98507">
        <ele>773.5</ele>
        <time>2019-12-25T13:27:20.000Z</time>
      </trkpt>
      <trkpt lat="45.88297" lon="2.985">
        <ele>773.8</ele>
        <time>2019-12-25T13:27:22.000Z</time>
      </trkpt>
      <trkpt lat="45.88311" lon="2.98494">
        <ele>774.1</ele>
        <time>2019-12-25T13:27:24.000Z</time>
      </trkpt>
      <trkpt lat="45.88324" lon="2.98487">
        <ele>774.3</ele>
        <time>2019-12-25T13:27:26.000Z</time>
      </trkpt>
      <trkpt lat="45.88337" lon="2.9848">
        <ele>774.4</ele>
        <time>2019-12-25T13:27:28.000Z</time>
      </trkpt>
      <trkpt lat="45.8835" lon="2.98473">
        <ele>774.7</ele>
        <time>2019-12-25T13:27:30.000Z</time>
      </trkpt>
      <trkpt lat="45.88363" lon="2.98466">
        <ele>775.2</ele>
        <time>2019-12-25T13:27:32.000Z</time>
      </trkpt>
      <trkpt lat="45.88369" lon="2.98462">
        <ele>775.5</ele>
        <time>2019-12-25T13:27:33.000Z</time>
      </trkpt>
      <trkpt lat="45.88383" lon="2.98455">
        <ele>776.2</ele>
        <time>2019-12-25T13:27:35.000Z</time>
      </trkpt>
      <trkpt lat="45.88396" lon="2.98448">
        <ele>776.9</ele>
        <time>2019-12-25T13:27:37.000Z</time>
      </trkpt>
      <trkpt lat="45.88409" lon="2.98441">
        <ele>777.3</ele>
        <time>2019-12-25T13:27:39.000Z</time>
      </trkpt>
      <trkpt lat="45.88421" lon="2.98435">
        <ele>777.6</ele>
        <time>2019-12-25T13:27:41.000Z</time>
      </trkpt>
      <trkpt lat="45.88435" lon="2.98428">
        <ele>778</ele>
        <time>2019-12-25T13:27:43.000Z</time>
      </trkpt>
      <trkpt lat="45.88447" lon="2.98422">
        <ele>778.4</ele>
        <time>2019-12-25T13:27:45.000Z</time>
      </trkpt>
      <trkpt lat="45.88454" lon="2.98419">
        <ele>778.6</ele>
        <time>2019-12-25T13:27:46.000Z</time>
      </trkpt>
      <trkpt lat="45.8846" lon="2.98415">
        <ele>778.8</ele>
        <time>2019-12-25T13:27:47.000Z</time>
      </trkpt>
      <trkpt lat="45.88474" lon="2.98409">
        <ele>779.1</ele>
        <time>2019-12-25T13:27:49.000Z</time>
      </trkpt>
      <trkpt lat="45.88486" lon="2.98402">
        <ele>779.2</ele>
        <time>2019-12-25T13:27:51.000Z</time>
      </trkpt>
      <trkpt lat="45.885" lon="2.98396">
        <ele>779.2</ele>
        <time>2019-12-25T13:27:53.000Z</time>
      </trkpt>
      <trkpt lat="45.88507" lon="2.98392">
        <ele>779.2</ele>
        <time>2019-12-25T13:27:54.000Z</time>
      </trkpt>
      <trkpt lat="45.88513" lon="2.98388">
        <ele>779.1</ele>
        <time>2019-12-25T13:27:55.000Z</time>
      </trkpt>
      <trkpt lat="45.88528" lon="2.9838">
        <ele>779.1</ele>
        <time>2019-12-25T13:27:57.000Z</time>
      </trkpt>
      <trkpt lat="45.88542" lon="2.98372">
        <ele>779.1</ele>
        <time>2019-12-25T13:27:59.000Z</time>
      </trkpt>
      <trkpt lat="45.88549" lon="2.98368">
        <ele>779.1</ele>
        <time>2019-12-25T13:28:00.000Z</time>
      </trkpt>
      <trkpt lat="45.88557" lon="2.98363">
        <ele>779.2</ele>
        <time>2019-12-25T13:28:01.000Z</time>
      </trkpt>
      <trkpt lat="45.88572" lon="2.98358">
        <ele>779.2</ele>
        <time>2019-12-25T13:28:03.000Z</time>
      </trkpt>
      <trkpt lat="45.88581" lon="2.98357">
        <ele>779.2</ele>
        <time>2019-12-25T13:28:04.000Z</time>
      </trkpt>
      <trkpt lat="45.88597" lon="2.98357">
        <ele>779.1</ele>
        <time>2019-12-25T13:28:06.000Z</time>
      </trkpt>
      <trkpt lat="45.88613" lon="2.98361">
        <ele>778.8</ele>
        <time>2019-12-25T13:28:08.000Z</time>
      </trkpt>
      <trkpt lat="45.88622" lon="2.98365">
        <ele>778.6</ele>
        <time>2019-12-25T13:28:09.000Z</time>
      </trkpt>
      <trkpt lat="45.88638" lon="2.98373">
        <ele>778.2</ele>
        <time>2019-12-25T13:28:11.000Z</time>
      </trkpt>
      <trkpt lat="45.88646" lon="2.98378">
        <ele>777.9</ele>
        <time>2019-12-25T13:28:12.000Z</time>
      </trkpt>
      <trkpt lat="45.88663" lon="2.98387">
        <ele>777</ele>
        <time>2019-12-25T13:28:14.000Z</time>
      </trkpt>
      <trkpt lat="45.88671" lon="2.98392">
        <ele>776.6</ele>
        <time>2019-12-25T13:28:15.000Z</time>
      </trkpt>
      <trkpt lat="45.8868" lon="2.98398">
        <ele>776.2</ele>
        <time>2019-12-25T13:28:16.000Z</time>
      </trkpt>
      <trkpt lat="45.88688" lon="2.98405">
        <ele>775.7</ele>
        <time>2019-12-25T13:28:17.000Z</time>
      </trkpt>
      <trkpt lat="45.88703" lon="2.9842">
        <ele>774.5</ele>
        <time>2019-12-25T13:28:19.000Z</time>
      </trkpt>
      <trkpt lat="45.88719" lon="2.98438">
        <ele>773.6</ele>
        <time>2019-12-25T13:28:21.000Z</time>
      </trkpt>
      <trkpt lat="45.8874" lon="2.98448">
        <ele>772.4</ele>
        <time>2019-12-25T13:28:23.000Z</time>
      </trkpt>
      <trkpt lat="45.88761" lon="2.98453">
        <ele>771.1</ele>
        <time>2019-12-25T13:28:25.000Z</time>
      </trkpt>
      <trkpt lat="45.88784" lon="2.98459">
        <ele>770.5</ele>
        <time>2019-12-25T13:28:27.000Z</time>
      </trkpt>
      <trkpt lat="45.88807" lon="2.98465">
        <ele>770.3</ele>
        <time>2019-12-25T13:28:29.000Z</time>
      </trkpt>
      <trkpt lat="45.88818" lon="2.98468">
        <ele>770.4</ele>
        <time>2019-12-25T13:28:30.000Z</time>
      </trkpt>
      <trkpt lat="45.88838" lon="2.98476">
        <ele>770.5</ele>
        <time>2019-12-25T13:28:32.000Z</time>
      </trkpt>
      <trkpt lat="45.88856" lon="2.98483">
        <ele>770.6</ele>
        <time>2019-12-25T13:28:34.000Z</time>
      </trkpt>
      <trkpt lat="45.88865" lon="2.98485">
        <ele>770.8</ele>
        <time>2019-12-25T13:28:35.000Z</time>
      </trkpt>
      <trkpt lat="45.88882" lon="2.9849">
        <ele>771.3</ele>
        <time>2019-12-25T13:28:37.000Z</time>
      </trkpt>
      <trkpt lat="45.8889" lon="2.98494">
        <ele>771.5</ele>
        <time>2019-12-25T13:28:38.000Z</time>
      </trkpt>
      <trkpt lat="45.88904" lon="2.98503">
        <ele>772.1</ele>
        <time>2019-12-25T13:28:40.000Z</time>
      </trkpt>
      <trkpt lat="45.88918" lon="2.98514">
        <ele>772.6</ele>
        <time>2019-12-25T13:28:42.000Z</time>
      </trkpt>
      <trkpt lat="45.88931" lon="2.98524">
        <ele>773.2</ele>
        <time>2019-12-25T13:28:44.000Z</time>
      </trkpt>
      <trkpt lat="45.88937" lon="2.9853">
        <ele>773.4</ele>
        <time>2019-12-25T13:28:45.000Z</time>
      </trkpt>
      <trkpt lat="45.88949" lon="2.98541">
        <ele>773.9</ele>
        <time>2019-12-25T13:28:47.000Z</time>
      </trkpt>
      <trkpt lat="45.88955" lon="2.98546">
        <ele>774.2</ele>
        <time>2019-12-25T13:28:48.000Z</time>
      </trkpt>
      <trkpt lat="45.88961" lon="2.98551">
        <ele>774.5</ele>
        <time>2019-12-25T13:28:49.000Z</time>
      </trkpt>
      <trkpt lat="45.88973" lon="2.9856">
        <ele>775</ele>
        <time>2019-12-25T13:28:51.000Z</time>
      </trkpt>
      <trkpt lat="45.88979" lon="2.98564">
        <ele>775.2</ele>
        <time>2019-12-25T13:28:52.000Z</time>
      </trkpt>
      <trkpt lat="45.8899" lon="2.98572">
        <ele>775.8</ele>
        <time>2019-12-25T13:28:54.000Z</time>
      </trkpt>
      <trkpt lat="45.89002" lon="2.98577">
        <ele>776.4</ele>
        <time>2019-12-25T13:28:56.000Z</time>
      </trkpt>
      <trkpt lat="45.89014" lon="2.98582">
        <ele>776.9</ele>
        <time>2019-12-25T13:28:58.000Z</time>
      </trkpt>
      <trkpt lat="45.89026" lon="2.98587">
        <ele>777.2</ele>
        <time>2019-12-25T13:29:00.000Z</time>
      </trkpt>
      <trkpt lat="45.89038" lon="2.98591">
        <ele>777.5</ele>
        <time>2019-12-25T13:29:02.000Z</time>
      </trkpt>
      <trkpt lat="45.89044" lon="2.98594">
        <ele>777.7</ele>
        <time>2019-12-25T13:29:03.000Z</time>
      </trkpt>
      <trkpt lat="45.89051" lon="2.98597">
        <ele>777.9</ele>
        <time>2019-12-25T13:29:04.000Z</time>
      </trkpt>
      <trkpt lat="45.89058" lon="2.98599">
        <ele>778.2</ele>
        <time>2019-12-25T13:29:05.000Z</time>
      </trkpt>
      <trkpt lat="45.89064" lon="2.98602">
        <ele>778.4</ele>
        <time>2019-12-25T13:29:06.000Z</time>
      </trkpt>
      <trkpt lat="45.89071" lon="2.98605">
        <ele>778.7</ele>
        <time>2019-12-25T13:29:07.000Z</time>
      </trkpt>
      <trkpt lat="45.89084" lon="2.9861">
        <ele>779</ele>
        <time>2019-12-25T13:29:09.000Z</time>
      </trkpt>
      <trkpt lat="45.89096" lon="2.98615">
        <ele>779.2</ele>
        <time>2019-12-25T13:29:11.000Z</time>
      </trkpt>
      <trkpt lat="45.89102" lon="2.98618">
        <ele>779.3</ele>
        <time>2019-12-25T13:29:12.000Z</time>
      </trkpt>
      <trkpt lat="45.89115" lon="2.98622">
        <ele>779.6</ele>
        <time>2019-12-25T13:29:14.000Z</time>
      </trkpt>
      <trkpt lat="45.89126" lon="2.98626">
        <ele>780</ele>
        <time>2019-12-25T13:29:16.000Z</time>
      </trkpt>
      <trkpt lat="45.89132" lon="2.98629">
        <ele>780.2</ele>
        <time>2019-12-25T13:29:17.000Z</time>
      </trkpt>
      <trkpt lat="45.89144" lon="2.98633">
        <ele>781.1</ele>
        <time>2019-12-25T13:29:19.000Z</time>
      </trkpt>
      <trkpt lat="45.89157" lon="2.98634">
        <ele>781.8</ele>
        <time>2019-12-25T13:29:21.000Z</time>
      </trkpt>
      <trkpt lat="45.89163" lon="2.98634">
        <ele>782.1</ele>
        <time>2019-12-25T13:29:22.000Z</time>
      </trkpt>
      <trkpt lat="45.89169" lon="2.98634">
        <ele>782.4</ele>
        <time>2019-12-25T13:29:23.000Z</time>
      </trkpt>
      <trkpt lat="45.89182" lon="2.98634">
        <ele>782.9</ele>
        <time>2019-12-25T13:29:25.000Z</time>
      </trkpt>
      <trkpt lat="45.89188" lon="2.98633">
        <ele>783.2</ele>
        <time>2019-12-25T13:29:26.000Z</time>
      </trkpt>
      <trkpt lat="45.89201" lon="2.98633">
        <ele>783.6</ele>
        <time>2019-12-25T13:29:28.000Z</time>
      </trkpt>
      <trkpt lat="45.89207" lon="2.98633">
        <ele>783.8</ele>
        <time>2019-12-25T13:29:29.000Z</time>
      </trkpt>
      <trkpt lat="45.8922" lon="2.98632">
        <ele>784.1</ele>
        <time>2019-12-25T13:29:31.000Z</time>
      </trkpt>
      <trkpt lat="45.89233" lon="2.98631">
        <ele>784.3</ele>
        <time>2019-12-25T13:29:33.000Z</time>
      </trkpt>
      <trkpt lat="45.89245" lon="2.98629">
        <ele>784.6</ele>
        <time>2019-12-25T13:29:35.000Z</time>
      </trkpt>
      <trkpt lat="45.89258" lon="2.98628">
        <ele>785</ele>
        <time>2019-12-25T13:29:37.000Z</time>
      </trkpt>
      <trkpt lat="45.89271" lon="2.98628">
        <ele>785.5</ele>
        <time>2019-12-25T13:29:39.000Z</time>
      </trkpt>
      <trkpt lat="45.89283" lon="2.98627">
        <ele>786</ele>
        <time>2019-12-25T13:29:41.000Z</time>
      </trkpt>
      <trkpt lat="45.89289" lon="2.98627">
        <ele>786.3</ele>
        <time>2019-12-25T13:29:42.000Z</time>
      </trkpt>
      <trkpt lat="45.89295" lon="2.98626">
        <ele>786.5</ele>
        <time>2019-12-25T13:29:43.000Z</time>
      </trkpt>
      <trkpt lat="45.89302" lon="2.98626">
        <ele>786.8</ele>
        <time>2019-12-25T13:29:44.000Z</time>
      </trkpt>
      <trkpt lat="45.89314" lon="2.98625">
        <ele>787</ele>
        <time>2019-12-25T13:29:46.000Z</time>
      </trkpt>
      <trkpt lat="45.8932" lon="2.98625">
        <ele>787.1</ele>
        <time>2019-12-25T13:29:47.000Z</time>
      </trkpt>
      <trkpt lat="45.89333" lon="2.98623">
        <ele>787.2</ele>
        <time>2019-12-25T13:29:49.000Z</time>
      </trkpt>
      <trkpt lat="45.89346" lon="2.98622">
        <ele>787.2</ele>
        <time>2019-12-25T13:29:51.000Z</time>
      </trkpt>
      <trkpt lat="45.89352" lon="2.98621">
        <ele>787.2</ele>
        <time>2019-12-25T13:29:52.000Z</time>
      </trkpt>
      <trkpt lat="45.89364" lon="2.98621">
        <ele>787.2</ele>
        <time>2019-12-25T13:29:54.000Z</time>
      </trkpt>
      <trkpt lat="45.8937" lon="2.98621">
        <ele>787.2</ele>
        <time>2019-12-25T13:29:55.000Z</time>
      </trkpt>
      <trkpt lat="45.89383" lon="2.9862">
        <ele>787.2</ele>
        <time>2019-12-25T13:29:57.000Z</time>
      </trkpt>
      <trkpt lat="45.89395" lon="2.98618">
        <ele>787.2</ele>
        <time>2019-12-25T13:29:59.000Z</time>
      </trkpt>
      <trkpt lat="45.89401" lon="2.98617">
        <ele>787.3</ele>
        <time>2019-12-25T13:30:00.000Z</time>
      </trkpt>
      <trkpt lat="45.89407" lon="2.98617">
        <ele>787.3</ele>
        <time>2019-12-25T13:30:01.000Z</time>
      </trkpt>
      <trkpt lat="45.8942" lon="2.98616">
        <ele>787.5</ele>
        <time>2019-12-25T13:30:03.000Z</time>
      </trkpt>
      <trkpt lat="45.89434" lon="2.98615">
        <ele>787.5</ele>
        <time>2019-12-25T13:30:05.000Z</time>
      </trkpt>
      <trkpt lat="45.89441" lon="2.98614">
        <ele>787.5</ele>
        <time>2019-12-25T13:30:06.000Z</time>
      </trkpt>
      <trkpt lat="45.89455" lon="2.98613">
        <ele>787.7</ele>
        <time>2019-12-25T13:30:08.000Z</time>
      </trkpt>
      <trkpt lat="45.89461" lon="2.98613">
        <ele>787.9</ele>
        <time>2019-12-25T13:30:09.000Z</time>
      </trkpt>
      <trkpt lat="45.89475" lon="2.98615">
        <ele>788.1</ele>
        <time>2019-12-25T13:30:11.000Z</time>
      </trkpt>
      <trkpt lat="45.89489" lon="2.98622">
        <ele>788.2</ele>
        <time>2019-12-25T13:30:13.000Z</time>
      </trkpt>
      <trkpt lat="45.89502" lon="2.98632">
        <ele>788.2</ele>
        <time>2019-12-25T13:30:15.000Z</time>
      </trkpt>
      <trkpt lat="45.89509" lon="2.98637">
        <ele>788.2</ele>
        <time>2019-12-25T13:30:16.000Z</time>
      </trkpt>
      <trkpt lat="45.89522" lon="2.98647">
        <ele>788.2</ele>
        <time>2019-12-25T13:30:18.000Z</time>
      </trkpt>
      <trkpt lat="45.89528" lon="2.98653">
        <ele>788.2</ele>
        <time>2019-12-25T13:30:19.000Z</time>
      </trkpt>
      <trkpt lat="45.89541" lon="2.98665">
        <ele>788.2</ele>
        <time>2019-12-25T13:30:21.000Z</time>
      </trkpt>
      <trkpt lat="45.89554" lon="2.98676">
        <ele>788.2</ele>
        <time>2019-12-25T13:30:23.000Z</time>
      </trkpt>
      <trkpt lat="45.89561" lon="2.98682">
        <ele>788.2</ele>
        <time>2019-12-25T13:30:24.000Z</time>
      </trkpt>
      <trkpt lat="45.89574" lon="2.98692">
        <ele>788.1</ele>
        <time>2019-12-25T13:30:26.000Z</time>
      </trkpt>
      <trkpt lat="45.89581" lon="2.98698">
        <ele>788.2</ele>
        <time>2019-12-25T13:30:27.000Z</time>
      </trkpt>
      <trkpt lat="45.89594" lon="2.9871">
        <ele>788.5</ele>
        <time>2019-12-25T13:30:29.000Z</time>
      </trkpt>
      <trkpt lat="45.89601" lon="2.98715">
        <ele>788.6</ele>
        <time>2019-12-25T13:30:30.000Z</time>
      </trkpt>
      <trkpt lat="45.89616" lon="2.98727">
        <ele>788.8</ele>
        <time>2019-12-25T13:30:32.000Z</time>
      </trkpt>
      <trkpt lat="45.89631" lon="2.98741">
        <ele>789</ele>
        <time>2019-12-25T13:30:34.000Z</time>
      </trkpt>
      <trkpt lat="45.89639" lon="2.98747">
        <ele>789.2</ele>
        <time>2019-12-25T13:30:35.000Z</time>
      </trkpt>
      <trkpt lat="45.89653" lon="2.98762">
        <ele>789.5</ele>
        <time>2019-12-25T13:30:37.000Z</time>
      </trkpt>
      <trkpt lat="45.8966" lon="2.98771">
        <ele>789.4</ele>
        <time>2019-12-25T13:30:38.000Z</time>
      </trkpt>
      <trkpt lat="45.89667" lon="2.98781">
        <ele>789.3</ele>
        <time>2019-12-25T13:30:39.000Z</time>
      </trkpt>
      <trkpt lat="45.8968" lon="2.98801">
        <ele>788.8</ele>
        <time>2019-12-25T13:30:41.000Z</time>
      </trkpt>
      <trkpt lat="45.89693" lon="2.98823">
        <ele>787.9</ele>
        <time>2019-12-25T13:30:43.000Z</time>
      </trkpt>
      <trkpt lat="45.89699" lon="2.98834">
        <ele>786.9</ele>
        <time>2019-12-25T13:30:44.000Z</time>
      </trkpt>
      <trkpt lat="45.89705" lon="2.98846">
        <ele>786</ele>
        <time>2019-12-25T13:30:45.000Z</time>
      </trkpt>
      <trkpt lat="45.89719" lon="2.9887">
        <ele>784.2</ele>
        <time>2019-12-25T13:30:47.000Z</time>
      </trkpt>
      <trkpt lat="45.89726" lon="2.98883">
        <ele>783.2</ele>
        <time>2019-12-25T13:30:48.000Z</time>
      </trkpt>
      <trkpt lat="45.89741" lon="2.9891">
        <ele>781.4</ele>
        <time>2019-12-25T13:30:50.000Z</time>
      </trkpt>
      <trkpt lat="45.89757" lon="2.98937">
        <ele>779.8</ele>
        <time>2019-12-25T13:30:52.000Z</time>
      </trkpt>
      <trkpt lat="45.89773" lon="2.98966">
        <ele>778.3</ele>
        <time>2019-12-25T13:30:54.000Z</time>
      </trkpt>
      <trkpt lat="45.89789" lon="2.98996">
        <ele>776.3</ele>
        <time>2019-12-25T13:30:56.000Z</time>
      </trkpt>
      <trkpt lat="45.89806" lon="2.99027">
        <ele>774.5</ele>
        <time>2019-12-25T13:30:58.000Z</time>
      </trkpt>
      <trkpt lat="45.89814" lon="2.99042">
        <ele>773.7</ele>
        <time>2019-12-25T13:30:59.000Z</time>
      </trkpt>
      <trkpt lat="45.89831" lon="2.99073">
        <ele>772</ele>
        <time>2019-12-25T13:31:01.000Z</time>
      </trkpt>
      <trkpt lat="45.8984" lon="2.99089">
        <ele>771.1</ele>
        <time>2019-12-25T13:31:02.000Z</time>
      </trkpt>
      <trkpt lat="45.8985" lon="2.99102">
        <ele>769.9</ele>
        <time>2019-12-25T13:31:03.000Z</time>
      </trkpt>
      <trkpt lat="45.89874" lon="2.99121">
        <ele>767.6</ele>
        <time>2019-12-25T13:31:05.000Z</time>
      </trkpt>
      <trkpt lat="45.89888" lon="2.99125">
        <ele>766.6</ele>
        <time>2019-12-25T13:31:06.000Z</time>
      </trkpt>
      <trkpt lat="45.89903" lon="2.99125">
        <ele>765.4</ele>
        <time>2019-12-25T13:31:07.000Z</time>
      </trkpt>
      <trkpt lat="45.89917" lon="2.99125">
        <ele>764.3</ele>
        <time>2019-12-25T13:31:08.000Z</time>
      </trkpt>
      <trkpt lat="45.89945" lon="2.99133">
        <ele>761.5</ele>
        <time>2019-12-25T13:31:10.000Z</time>
      </trkpt>
      <trkpt lat="45.89959" lon="2.99143">
        <ele>760.6</ele>
        <time>2019-12-25T13:31:11.000Z</time>
      </trkpt>
      <trkpt lat="45.89985" lon="2.99171">
        <ele>758.3</ele>
        <time>2019-12-25T13:31:13.000Z</time>
      </trkpt>
      <trkpt lat="45.90008" lon="2.99201">
        <ele>756.3</ele>
        <time>2019-12-25T13:31:15.000Z</time>
      </trkpt>
      <trkpt lat="45.90031" lon="2.99231">
        <ele>754.7</ele>
        <time>2019-12-25T13:31:17.000Z</time>
      </trkpt>
      <trkpt lat="45.90043" lon="2.99246">
        <ele>754.2</ele>
        <time>2019-12-25T13:31:18.000Z</time>
      </trkpt>
      <trkpt lat="45.90067" lon="2.99275">
        <ele>752.2</ele>
        <time>2019-12-25T13:31:20.000Z</time>
      </trkpt>
      <trkpt lat="45.90079" lon="2.9929">
        <ele>751.2</ele>
        <time>2019-12-25T13:31:21.000Z</time>
      </trkpt>
      <trkpt lat="45.90102" lon="2.99319">
        <ele>749.4</ele>
        <time>2019-12-25T13:31:23.000Z</time>
      </trkpt>
      <trkpt lat="45.90125" lon="2.99348">
        <ele>747.6</ele>
        <time>2019-12-25T13:31:25.000Z</time>
      </trkpt>
      <trkpt lat="45.90137" lon="2.99362">
        <ele>747</ele>
        <time>2019-12-25T13:31:26.000Z</time>
      </trkpt>
      <trkpt lat="45.90148" lon="2.99376">
        <ele>746.3</ele>
        <time>2019-12-25T13:31:27.000Z</time>
      </trkpt>
      <trkpt lat="45.9017" lon="2.99404">
        <ele>744.9</ele>
        <time>2019-12-25T13:31:29.000Z</time>
      </trkpt>
      <trkpt lat="45.9018" lon="2.99417">
        <ele>744.4</ele>
        <time>2019-12-25T13:31:30.000Z</time>
      </trkpt>
      <trkpt lat="45.90201" lon="2.99441">
        <ele>743.1</ele>
        <time>2019-12-25T13:31:32.000Z</time>
      </trkpt>
      <trkpt lat="45.90225" lon="2.9946">
        <ele>741.7</ele>
        <time>2019-12-25T13:31:34.000Z</time>
      </trkpt>
      <trkpt lat="45.90238" lon="2.99468">
        <ele>741.3</ele>
        <time>2019-12-25T13:31:35.000Z</time>
      </trkpt>
      <trkpt lat="45.90262" lon="2.99484">
        <ele>740.5</ele>
        <time>2019-12-25T13:31:37.000Z</time>
      </trkpt>
      <trkpt lat="45.90286" lon="2.99499">
        <ele>739.1</ele>
        <time>2019-12-25T13:31:39.000Z</time>
      </trkpt>
      <trkpt lat="45.90298" lon="2.99504">
        <ele>738.5</ele>
        <time>2019-12-25T13:31:40.000Z</time>
      </trkpt>
      <trkpt lat="45.90311" lon="2.99505">
        <ele>738.1</ele>
        <time>2019-12-25T13:31:41.000Z</time>
      </trkpt>
      <trkpt lat="45.90335" lon="2.99498">
        <ele>736.4</ele>
        <time>2019-12-25T13:31:43.000Z</time>
      </trkpt>
      <trkpt lat="45.90358" lon="2.99482">
        <ele>734.5</ele>
        <time>2019-12-25T13:31:45.000Z</time>
      </trkpt>
      <trkpt lat="45.9037" lon="2.99476">
        <ele>734</ele>
        <time>2019-12-25T13:31:46.000Z</time>
      </trkpt>
      <trkpt lat="45.90396" lon="2.99473">
        <ele>732.5</ele>
        <time>2019-12-25T13:31:48.000Z</time>
      </trkpt>
      <trkpt lat="45.90409" lon="2.99476">
        <ele>732.1</ele>
        <time>2019-12-25T13:31:49.000Z</time>
      </trkpt>
      <trkpt lat="45.90421" lon="2.99482">
        <ele>731.2</ele>
        <time>2019-12-25T13:31:50.000Z</time>
      </trkpt>
      <trkpt lat="45.90446" lon="2.99497">
        <ele>728.7</ele>
        <time>2019-12-25T13:31:52.000Z</time>
      </trkpt>
      <trkpt lat="45.90471" lon="2.99514">
        <ele>725.6</ele>
        <time>2019-12-25T13:31:54.000Z</time>
      </trkpt>
      <trkpt lat="45.90494" lon="2.99535">
        <ele>723.9</ele>
        <time>2019-12-25T13:31:56.000Z</time>
      </trkpt>
      <trkpt lat="45.90504" lon="2.99548">
        <ele>723.3</ele>
        <time>2019-12-25T13:31:57.000Z</time>
      </trkpt>
      <trkpt lat="45.90524" lon="2.99576">
        <ele>722.4</ele>
        <time>2019-12-25T13:31:59.000Z</time>
      </trkpt>
      <trkpt lat="45.90533" lon="2.99591">
        <ele>722</ele>
        <time>2019-12-25T13:32:00.000Z</time>
      </trkpt>
      <trkpt lat="45.90549" lon="2.99622">
        <ele>721.5</ele>
        <time>2019-12-25T13:32:02.000Z</time>
      </trkpt>
      <trkpt lat="45.90557" lon="2.99637">
        <ele>721.4</ele>
        <time>2019-12-25T13:32:03.000Z</time>
      </trkpt>
      <trkpt lat="45.90568" lon="2.99668">
        <ele>722.4</ele>
        <time>2019-12-25T13:32:05.000Z</time>
      </trkpt>
      <trkpt lat="45.90577" lon="2.99695">
        <ele>723.2</ele>
        <time>2019-12-25T13:32:07.000Z</time>
      </trkpt>
      <trkpt lat="45.90582" lon="2.99708">
        <ele>723.5</ele>
        <time>2019-12-25T13:32:08.000Z</time>
      </trkpt>
      <trkpt lat="45.90592" lon="2.99731">
        <ele>724.3</ele>
        <time>2019-12-25T13:32:10.000Z</time>
      </trkpt>
      <trkpt lat="45.90603" lon="2.99749">
        <ele>724.9</ele>
        <time>2019-12-25T13:32:12.000Z</time>
      </trkpt>
      <trkpt lat="45.9061" lon="2.99757">
        <ele>725.5</ele>
        <time>2019-12-25T13:32:13.000Z</time>
      </trkpt>
      <trkpt lat="45.90617" lon="2.99764">
        <ele>725.9</ele>
        <time>2019-12-25T13:32:14.000Z</time>
      </trkpt>
      <trkpt lat="45.90633" lon="2.99777">
        <ele>726.2</ele>
        <time>2019-12-25T13:32:16.000Z</time>
      </trkpt>
      <trkpt lat="45.9065" lon="2.99789">
        <ele>726.4</ele>
        <time>2019-12-25T13:32:18.000Z</time>
      </trkpt>
      <trkpt lat="45.90658" lon="2.99795">
        <ele>726.5</ele>
        <time>2019-12-25T13:32:19.000Z</time>
      </trkpt>
      <trkpt lat="45.90674" lon="2.99808">
        <ele>726.8</ele>
        <time>2019-12-25T13:32:21.000Z</time>
      </trkpt>
      <trkpt lat="45.90681" lon="2.99814">
        <ele>727</ele>
        <time>2019-12-25T13:32:22.000Z</time>
      </trkpt>
      <trkpt lat="45.90688" lon="2.9982">
        <ele>727.1</ele>
        <time>2019-12-25T13:32:23.000Z</time>
      </trkpt>
      <trkpt lat="45.90695" lon="2.99827">
        <ele>727.3</ele>
        <time>2019-12-25T13:32:24.000Z</time>
      </trkpt>
      <trkpt lat="45.9071" lon="2.99839">
        <ele>727.8</ele>
        <time>2019-12-25T13:32:26.000Z</time>
      </trkpt>
      <trkpt lat="45.90724" lon="2.9985">
        <ele>728.3</ele>
        <time>2019-12-25T13:32:28.000Z</time>
      </trkpt>
      <trkpt lat="45.90731" lon="2.99855">
        <ele>728.5</ele>
        <time>2019-12-25T13:32:29.000Z</time>
      </trkpt>
      <trkpt lat="45.90745" lon="2.9986">
        <ele>728.9</ele>
        <time>2019-12-25T13:32:31.000Z</time>
      </trkpt>
      <trkpt lat="45.9076" lon="2.99857">
        <ele>729.2</ele>
        <time>2019-12-25T13:32:33.000Z</time>
      </trkpt>
      <trkpt lat="45.90773" lon="2.9985">
        <ele>729.5</ele>
        <time>2019-12-25T13:32:35.000Z</time>
      </trkpt>
      <trkpt lat="45.90779" lon="2.99846">
        <ele>729.7</ele>
        <time>2019-12-25T13:32:36.000Z</time>
      </trkpt>
      <trkpt lat="45.90785" lon="2.99842">
        <ele>729.8</ele>
        <time>2019-12-25T13:32:37.000Z</time>
      </trkpt>
      <trkpt lat="45.90791" lon="2.99839">
        <ele>730</ele>
        <time>2019-12-25T13:32:38.000Z</time>
      </trkpt>
      <trkpt lat="45.90803" lon="2.99834">
        <ele>730.4</ele>
        <time>2019-12-25T13:32:40.000Z</time>
      </trkpt>
      <trkpt lat="45.90809" lon="2.99831">
        <ele>730.6</ele>
        <time>2019-12-25T13:32:41.000Z</time>
      </trkpt>
      <trkpt lat="45.90821" lon="2.99829">
        <ele>730.9</ele>
        <time>2019-12-25T13:32:43.000Z</time>
      </trkpt>
      <trkpt lat="45.90833" lon="2.99831">
        <ele>731</ele>
        <time>2019-12-25T13:32:45.000Z</time>
      </trkpt>
      <trkpt lat="45.90838" lon="2.99833">
        <ele>731</ele>
        <time>2019-12-25T13:32:46.000Z</time>
      </trkpt>
      <trkpt lat="45.90851" lon="2.99837">
        <ele>730.9</ele>
        <time>2019-12-25T13:32:48.000Z</time>
      </trkpt>
      <trkpt lat="45.90858" lon="2.99839">
        <ele>730.9</ele>
        <time>2019-12-25T13:32:49.000Z</time>
      </trkpt>
      <trkpt lat="45.9087" lon="2.99846">
        <ele>731.2</ele>
        <time>2019-12-25T13:32:51.000Z</time>
      </trkpt>
      <trkpt lat="45.90881" lon="2.99858">
        <ele>731.7</ele>
        <time>2019-12-25T13:32:53.000Z</time>
      </trkpt>
      <trkpt lat="45.90886" lon="2.99867">
        <ele>731.8</ele>
        <time>2019-12-25T13:32:54.000Z</time>
      </trkpt>
      <trkpt lat="45.90891" lon="2.99876">
        <ele>731.9</ele>
        <time>2019-12-25T13:32:55.000Z</time>
      </trkpt>
      <trkpt lat="45.909" lon="2.99894">
        <ele>732.2</ele>
        <time>2019-12-25T13:32:57.000Z</time>
      </trkpt>
      <trkpt lat="45.90904" lon="2.99903">
        <ele>732.3</ele>
        <time>2019-12-25T13:32:58.000Z</time>
      </trkpt>
      <trkpt lat="45.90912" lon="2.99924">
        <ele>732.5</ele>
        <time>2019-12-25T13:33:00.000Z</time>
      </trkpt>
      <trkpt lat="45.90917" lon="2.99934">
        <ele>732.5</ele>
        <time>2019-12-25T13:33:01.000Z</time>
      </trkpt>
      <trkpt lat="45.90922" lon="2.99945">
        <ele>732.4</ele>
        <time>2019-12-25T13:33:02.000Z</time>
      </trkpt>
      <trkpt lat="45.90931" lon="2.99966">
        <ele>732.2</ele>
        <time>2019-12-25T13:33:04.000Z</time>
      </trkpt>
      <trkpt lat="45.9094" lon="2.99987">
        <ele>732</ele>
        <time>2019-12-25T13:33:06.000Z</time>
      </trkpt>
      <trkpt lat="45.90944" lon="2.99997">
        <ele>731.9</ele>
        <time>2019-12-25T13:33:07.000Z</time>
      </trkpt>
      <trkpt lat="45.90952" lon="3.00015">
        <ele>731.5</ele>
        <time>2019-12-25T13:33:09.000Z</time>
      </trkpt>
      <trkpt lat="45.90956" lon="3.00024">
        <ele>731.2</ele>
        <time>2019-12-25T13:33:10.000Z</time>
      </trkpt>
      <trkpt lat="45.90963" lon="3.00041">
        <ele>731.7</ele>
        <time>2019-12-25T13:33:12.000Z</time>
      </trkpt>
      <trkpt lat="45.9097" lon="3.00058">
        <ele>732</ele>
        <time>2019-12-25T13:33:14.000Z</time>
      </trkpt>
      <trkpt lat="45.90977" lon="3.00073">
        <ele>732.3</ele>
        <time>2019-12-25T13:33:16.000Z</time>
      </trkpt>
      <trkpt lat="45.90984" lon="3.00088">
        <ele>732.7</ele>
        <time>2019-12-25T13:33:18.000Z</time>
      </trkpt>
      <trkpt lat="45.9099" lon="3.00103">
        <ele>733.1</ele>
        <time>2019-12-25T13:33:20.000Z</time>
      </trkpt>
      <trkpt lat="45.90993" lon="3.00111">
        <ele>733.3</ele>
        <time>2019-12-25T13:33:21.000Z</time>
      </trkpt>
      <trkpt lat="45.90997" lon="3.00118">
        <ele>733.5</ele>
        <time>2019-12-25T13:33:22.000Z</time>
      </trkpt>
      <trkpt lat="45.91004" lon="3.00132">
        <ele>733.9</ele>
        <time>2019-12-25T13:33:24.000Z</time>
      </trkpt>
      <trkpt lat="45.91012" lon="3.00144">
        <ele>734.2</ele>
        <time>2019-12-25T13:33:26.000Z</time>
      </trkpt>
      <trkpt lat="45.9102" lon="3.00155">
        <ele>734.8</ele>
        <time>2019-12-25T13:33:28.000Z</time>
      </trkpt>
      <trkpt lat="45.91028" lon="3.00167">
        <ele>735.5</ele>
        <time>2019-12-25T13:33:30.000Z</time>
      </trkpt>
      <trkpt lat="45.91037" lon="3.00179">
        <ele>736.1</ele>
        <time>2019-12-25T13:33:32.000Z</time>
      </trkpt>
      <trkpt lat="45.91046" lon="3.00191">
        <ele>736.3</ele>
        <time>2019-12-25T13:33:34.000Z</time>
      </trkpt>
      <trkpt lat="45.9105" lon="3.00196">
        <ele>736.3</ele>
        <time>2019-12-25T13:33:35.000Z</time>
      </trkpt>
      <trkpt lat="45.91059" lon="3.00208">
        <ele>736.4</ele>
        <time>2019-12-25T13:33:37.000Z</time>
      </trkpt>
      <trkpt lat="45.91063" lon="3.00213">
        <ele>736.4</ele>
        <time>2019-12-25T13:33:38.000Z</time>
      </trkpt>
      <trkpt lat="45.91067" lon="3.00218">
        <ele>736.4</ele>
        <time>2019-12-25T13:33:39.000Z</time>
      </trkpt>
      <trkpt lat="45.91076" lon="3.00229">
        <ele>736.7</ele>
        <time>2019-12-25T13:33:41.000Z</time>
      </trkpt>
      <trkpt lat="45.9108" lon="3.00234">
        <ele>736.9</ele>
        <time>2019-12-25T13:33:42.000Z</time>
      </trkpt>
      <trkpt lat="45.91089" lon="3.00245">
        <ele>737.5</ele>
        <time>2019-12-25T13:33:44.000Z</time>
      </trkpt>
      <trkpt lat="45.91098" lon="3.00257">
        <ele>738.2</ele>
        <time>2019-12-25T13:33:46.000Z</time>
      </trkpt>
      <trkpt lat="45.91102" lon="3.00263">
        <ele>738.5</ele>
        <time>2019-12-25T13:33:47.000Z</time>
      </trkpt>
      <trkpt lat="45.91111" lon="3.00274">
        <ele>739</ele>
        <time>2019-12-25T13:33:49.000Z</time>
      </trkpt>
      <trkpt lat="45.91116" lon="3.0028">
        <ele>739.2</ele>
        <time>2019-12-25T13:33:50.000Z</time>
      </trkpt>
      <trkpt lat="45.91125" lon="3.00291">
        <ele>739.4</ele>
        <time>2019-12-25T13:33:52.000Z</time>
      </trkpt>
      <trkpt lat="45.91134" lon="3.00302">
        <ele>739.4</ele>
        <time>2019-12-25T13:33:54.000Z</time>
      </trkpt>
      <trkpt lat="45.91138" lon="3.00307">
        <ele>739.4</ele>
        <time>2019-12-25T13:33:55.000Z</time>
      </trkpt>
      <trkpt lat="45.91148" lon="3.00317">
        <ele>739.4</ele>
        <time>2019-12-25T13:33:57.000Z</time>
      </trkpt>
      <trkpt lat="45.91153" lon="3.00321">
        <ele>739.5</ele>
        <time>2019-12-25T13:33:58.000Z</time>
      </trkpt>
      <trkpt lat="45.91159" lon="3.00325">
        <ele>739.5</ele>
        <time>2019-12-25T13:33:59.000Z</time>
      </trkpt>
      <trkpt lat="45.91169" lon="3.00333">
        <ele>739.5</ele>
        <time>2019-12-25T13:34:01.000Z</time>
      </trkpt>
      <trkpt lat="45.91175" lon="3.00336">
        <ele>739.5</ele>
        <time>2019-12-25T13:34:02.000Z</time>
      </trkpt>
      <trkpt lat="45.91186" lon="3.00343">
        <ele>739.5</ele>
        <time>2019-12-25T13:34:04.000Z</time>
      </trkpt>
      <trkpt lat="45.91191" lon="3.00346">
        <ele>739.5</ele>
        <time>2019-12-25T13:34:05.000Z</time>
      </trkpt>
      <trkpt lat="45.91203" lon="3.00352">
        <ele>739.5</ele>
        <time>2019-12-25T13:34:07.000Z</time>
      </trkpt>
      <trkpt lat="45.91209" lon="3.00355">
        <ele>739.5</ele>
        <time>2019-12-25T13:34:08.000Z</time>
      </trkpt>
      <trkpt lat="45.91221" lon="3.00362">
        <ele>739.5</ele>
        <time>2019-12-25T13:34:10.000Z</time>
      </trkpt>
      <trkpt lat="45.91228" lon="3.00365">
        <ele>739.5</ele>
        <time>2019-12-25T13:34:11.000Z</time>
      </trkpt>
      <trkpt lat="45.91241" lon="3.00372">
        <ele>739.5</ele>
        <time>2019-12-25T13:34:13.000Z</time>
      </trkpt>
      <trkpt lat="45.91255" lon="3.00378">
        <ele>739.4</ele>
        <time>2019-12-25T13:34:15.000Z</time>
      </trkpt>
      <trkpt lat="45.91269" lon="3.00386">
        <ele>739.2</ele>
        <time>2019-12-25T13:34:17.000Z</time>
      </trkpt>
      <trkpt lat="45.91284" lon="3.00394">
        <ele>738.9</ele>
        <time>2019-12-25T13:34:19.000Z</time>
      </trkpt>
      <trkpt lat="45.913" lon="3.00402">
        <ele>738.3</ele>
        <time>2019-12-25T13:34:21.000Z</time>
      </trkpt>
      <trkpt lat="45.91317" lon="3.00411">
        <ele>737.7</ele>
        <time>2019-12-25T13:34:23.000Z</time>
      </trkpt>
      <trkpt lat="45.91325" lon="3.00416">
        <ele>737.3</ele>
        <time>2019-12-25T13:34:24.000Z</time>
      </trkpt>
      <trkpt lat="45.91344" lon="3.00425">
        <ele>736.3</ele>
        <time>2019-12-25T13:34:26.000Z</time>
      </trkpt>
      <trkpt lat="45.91353" lon="3.0043">
        <ele>735.8</ele>
        <time>2019-12-25T13:34:27.000Z</time>
      </trkpt>
      <trkpt lat="45.91373" lon="3.0044">
        <ele>734.6</ele>
        <time>2019-12-25T13:34:29.000Z</time>
      </trkpt>
      <trkpt lat="45.91394" lon="3.00446">
        <ele>733.3</ele>
        <time>2019-12-25T13:34:31.000Z</time>
      </trkpt>
      <trkpt lat="45.91416" lon="3.00446">
        <ele>731.7</ele>
        <time>2019-12-25T13:34:33.000Z</time>
      </trkpt>
      <trkpt lat="45.91438" lon="3.00445">
        <ele>730.1</ele>
        <time>2019-12-25T13:34:35.000Z</time>
      </trkpt>
      <trkpt lat="45.91463" lon="3.00444">
        <ele>728.5</ele>
        <time>2019-12-25T13:34:37.000Z</time>
      </trkpt>
      <trkpt lat="45.91488" lon="3.00443">
        <ele>727.2</ele>
        <time>2019-12-25T13:34:39.000Z</time>
      </trkpt>
      <trkpt lat="45.915" lon="3.00443">
        <ele>726.6</ele>
        <time>2019-12-25T13:34:40.000Z</time>
      </trkpt>
      <trkpt lat="45.91525" lon="3.00443">
        <ele>725.5</ele>
        <time>2019-12-25T13:34:42.000Z</time>
      </trkpt>
      <trkpt lat="45.91537" lon="3.00444">
        <ele>724.9</ele>
        <time>2019-12-25T13:34:43.000Z</time>
      </trkpt>
      <trkpt lat="45.91562" lon="3.0045">
        <ele>723.7</ele>
        <time>2019-12-25T13:34:45.000Z</time>
      </trkpt>
      <trkpt lat="45.91586" lon="3.00462">
        <ele>722.2</ele>
        <time>2019-12-25T13:34:47.000Z</time>
      </trkpt>
      <trkpt lat="45.91598" lon="3.00471">
        <ele>721.6</ele>
        <time>2019-12-25T13:34:48.000Z</time>
      </trkpt>
      <trkpt lat="45.91608" lon="3.00482">
        <ele>720.9</ele>
        <time>2019-12-25T13:34:49.000Z</time>
      </trkpt>
      <trkpt lat="45.91623" lon="3.00513">
        <ele>719.7</ele>
        <time>2019-12-25T13:34:51.000Z</time>
      </trkpt>
      <trkpt lat="45.91632" lon="3.00548">
        <ele>718.5</ele>
        <time>2019-12-25T13:34:53.000Z</time>
      </trkpt>
      <trkpt lat="45.91635" lon="3.00566">
        <ele>717.8</ele>
        <time>2019-12-25T13:34:54.000Z</time>
      </trkpt>
      <trkpt lat="45.91638" lon="3.00584">
        <ele>717.2</ele>
        <time>2019-12-25T13:34:55.000Z</time>
      </trkpt>
      <trkpt lat="45.91645" lon="3.0062">
        <ele>716.1</ele>
        <time>2019-12-25T13:34:57.000Z</time>
      </trkpt>
      <trkpt lat="45.91649" lon="3.00638">
        <ele>715.5</ele>
        <time>2019-12-25T13:34:58.000Z</time>
      </trkpt>
      <trkpt lat="45.91657" lon="3.00674">
        <ele>714.3</ele>
        <time>2019-12-25T13:35:00.000Z</time>
      </trkpt>
      <trkpt lat="45.9166" lon="3.00692">
        <ele>713.6</ele>
        <time>2019-12-25T13:35:01.000Z</time>
      </trkpt>
      <trkpt lat="45.91669" lon="3.00727">
        <ele>712.2</ele>
        <time>2019-12-25T13:35:03.000Z</time>
      </trkpt>
      <trkpt lat="45.91675" lon="3.00744">
        <ele>711.5</ele>
        <time>2019-12-25T13:35:04.000Z</time>
      </trkpt>
      <trkpt lat="45.91693" lon="3.00773">
        <ele>710.3</ele>
        <time>2019-12-25T13:35:06.000Z</time>
      </trkpt>
      <trkpt lat="45.91704" lon="3.00785">
        <ele>709.8</ele>
        <time>2019-12-25T13:35:07.000Z</time>
      </trkpt>
      <trkpt lat="45.91716" lon="3.00794">
        <ele>709.2</ele>
        <time>2019-12-25T13:35:08.000Z</time>
      </trkpt>
      <trkpt lat="45.91728" lon="3.00802">
        <ele>708.5</ele>
        <time>2019-12-25T13:35:09.000Z</time>
      </trkpt>
      <trkpt lat="45.91753" lon="3.00805">
        <ele>706.9</ele>
        <time>2019-12-25T13:35:11.000Z</time>
      </trkpt>
      <trkpt lat="45.91775" lon="3.00789">
        <ele>705.3</ele>
        <time>2019-12-25T13:35:13.000Z</time>
      </trkpt>
      <trkpt lat="45.91784" lon="3.00774">
        <ele>704.4</ele>
        <time>2019-12-25T13:35:14.000Z</time>
      </trkpt>
      <trkpt lat="45.91799" lon="3.00743">
        <ele>702.9</ele>
        <time>2019-12-25T13:35:16.000Z</time>
      </trkpt>
      <trkpt lat="45.91816" lon="3.00713">
        <ele>701.5</ele>
        <time>2019-12-25T13:35:18.000Z</time>
      </trkpt>
      <trkpt lat="45.91836" lon="3.00688">
        <ele>700.1</ele>
        <time>2019-12-25T13:35:20.000Z</time>
      </trkpt>
      <trkpt lat="45.91859" lon="3.00668">
        <ele>698.4</ele>
        <time>2019-12-25T13:35:22.000Z</time>
      </trkpt>
      <trkpt lat="45.91881" lon="3.00646">
        <ele>696.7</ele>
        <time>2019-12-25T13:35:24.000Z</time>
      </trkpt>
      <trkpt lat="45.91895" lon="3.00614">
        <ele>695</ele>
        <time>2019-12-25T13:35:26.000Z</time>
      </trkpt>
      <trkpt lat="45.91905" lon="3.00578">
        <ele>693.4</ele>
        <time>2019-12-25T13:35:28.000Z</time>
      </trkpt>
      <trkpt lat="45.91909" lon="3.0056">
        <ele>692.6</ele>
        <time>2019-12-25T13:35:29.000Z</time>
      </trkpt>
      <trkpt lat="45.91914" lon="3.00541">
        <ele>691.9</ele>
        <time>2019-12-25T13:35:30.000Z</time>
      </trkpt>
      <trkpt lat="45.91918" lon="3.00523">
        <ele>691.2</ele>
        <time>2019-12-25T13:35:31.000Z</time>
      </trkpt>
      <trkpt lat="45.91925" lon="3.00487">
        <ele>689.6</ele>
        <time>2019-12-25T13:35:33.000Z</time>
      </trkpt>
      <trkpt lat="45.91933" lon="3.00451">
        <ele>687.9</ele>
        <time>2019-12-25T13:35:35.000Z</time>
      </trkpt>
      <trkpt lat="45.91945" lon="3.00417">
        <ele>686.3</ele>
        <time>2019-12-25T13:35:37.000Z</time>
      </trkpt>
      <trkpt lat="45.91968" lon="3.00395">
        <ele>684.7</ele>
        <time>2019-12-25T13:35:39.000Z</time>
      </trkpt>
      <trkpt lat="45.91982" lon="3.00393">
        <ele>683.7</ele>
        <time>2019-12-25T13:35:40.000Z</time>
      </trkpt>
      <trkpt lat="45.92009" lon="3.00394">
        <ele>681.7</ele>
        <time>2019-12-25T13:35:42.000Z</time>
      </trkpt>
      <trkpt lat="45.92021" lon="3.00388">
        <ele>680.8</ele>
        <time>2019-12-25T13:35:43.000Z</time>
      </trkpt>
      <trkpt lat="45.92041" lon="3.00363">
        <ele>679.1</ele>
        <time>2019-12-25T13:35:45.000Z</time>
      </trkpt>
      <trkpt lat="45.92059" lon="3.00334">
        <ele>677.5</ele>
        <time>2019-12-25T13:35:47.000Z</time>
      </trkpt>
      <trkpt lat="45.92079" lon="3.00308">
        <ele>676.1</ele>
        <time>2019-12-25T13:35:49.000Z</time>
      </trkpt>
      <trkpt lat="45.921" lon="3.00284">
        <ele>674.7</ele>
        <time>2019-12-25T13:35:51.000Z</time>
      </trkpt>
      <trkpt lat="45.92122" lon="3.00261">
        <ele>673.5</ele>
        <time>2019-12-25T13:35:53.000Z</time>
      </trkpt>
      <trkpt lat="45.92133" lon="3.00249">
        <ele>672.8</ele>
        <time>2019-12-25T13:35:54.000Z</time>
      </trkpt>
      <trkpt lat="45.92155" lon="3.00226">
        <ele>672.2</ele>
        <time>2019-12-25T13:35:56.000Z</time>
      </trkpt>
      <trkpt lat="45.92166" lon="3.00214">
        <ele>672.1</ele>
        <time>2019-12-25T13:35:57.000Z</time>
      </trkpt>
      <trkpt lat="45.92188" lon="3.00191">
        <ele>672</ele>
        <time>2019-12-25T13:35:59.000Z</time>
      </trkpt>
      <trkpt lat="45.92211" lon="3.00175">
        <ele>672.2</ele>
        <time>2019-12-25T13:36:01.000Z</time>
      </trkpt>
      <trkpt lat="45.92223" lon="3.00171">
        <ele>672.8</ele>
        <time>2019-12-25T13:36:02.000Z</time>
      </trkpt>
      <trkpt lat="45.92244" lon="3.00171">
        <ele>674.6</ele>
        <time>2019-12-25T13:36:04.000Z</time>
      </trkpt>
      <trkpt lat="45.92254" lon="3.00176">
        <ele>675.1</ele>
        <time>2019-12-25T13:36:05.000Z</time>
      </trkpt>
      <trkpt lat="45.92265" lon="3.00199">
        <ele>675.4</ele>
        <time>2019-12-25T13:36:07.000Z</time>
      </trkpt>
      <trkpt lat="45.92271" lon="3.00223">
        <ele>675.7</ele>
        <time>2019-12-25T13:36:09.000Z</time>
      </trkpt>
      <trkpt lat="45.9228" lon="3.00237">
        <ele>676.9</ele>
        <time>2019-12-25T13:36:11.000Z</time>
      </trkpt>
      <trkpt lat="45.92292" lon="3.00229">
        <ele>677.6</ele>
        <time>2019-12-25T13:36:13.000Z</time>
      </trkpt>
      <trkpt lat="45.92296" lon="3.00221">
        <ele>678</ele>
        <time>2019-12-25T13:36:14.000Z</time>
      </trkpt>
      <trkpt lat="45.92305" lon="3.00205">
        <ele>678.8</ele>
        <time>2019-12-25T13:36:16.000Z</time>
      </trkpt>
      <trkpt lat="45.92315" lon="3.00192">
        <ele>679.6</ele>
        <time>2019-12-25T13:36:18.000Z</time>
      </trkpt>
      <trkpt lat="45.92324" lon="3.00179">
        <ele>679.6</ele>
        <time>2019-12-25T13:36:20.000Z</time>
      </trkpt>
      <trkpt lat="45.92329" lon="3.00173">
        <ele>679.7</ele>
        <time>2019-12-25T13:36:21.000Z</time>
      </trkpt>
      <trkpt lat="45.92334" lon="3.00167">
        <ele>679.7</ele>
        <time>2019-12-25T13:36:22.000Z</time>
      </trkpt>
      <trkpt lat="45.92344" lon="3.00155">
        <ele>680</ele>
        <time>2019-12-25T13:36:24.000Z</time>
      </trkpt>
      <trkpt lat="45.92354" lon="3.00143">
        <ele>680.3</ele>
        <time>2019-12-25T13:36:26.000Z</time>
      </trkpt>
      <trkpt lat="45.92363" lon="3.0013">
        <ele>680.7</ele>
        <time>2019-12-25T13:36:28.000Z</time>
      </trkpt>
      <trkpt lat="45.92373" lon="3.00117">
        <ele>681</ele>
        <time>2019-12-25T13:36:30.000Z</time>
      </trkpt>
      <trkpt lat="45.92378" lon="3.00111">
        <ele>681.2</ele>
        <time>2019-12-25T13:36:31.000Z</time>
      </trkpt>
      <trkpt lat="45.92389" lon="3.00098">
        <ele>681.6</ele>
        <time>2019-12-25T13:36:33.000Z</time>
      </trkpt>
      <trkpt lat="45.92394" lon="3.00092">
        <ele>681.7</ele>
        <time>2019-12-25T13:36:34.000Z</time>
      </trkpt>
      <trkpt lat="45.92405" lon="3.00078">
        <ele>682</ele>
        <time>2019-12-25T13:36:36.000Z</time>
      </trkpt>
      <trkpt lat="45.92415" lon="3.00065">
        <ele>682.4</ele>
        <time>2019-12-25T13:36:38.000Z</time>
      </trkpt>
      <trkpt lat="45.92421" lon="3.00058">
        <ele>682.6</ele>
        <time>2019-12-25T13:36:39.000Z</time>
      </trkpt>
      <trkpt lat="45.92426" lon="3.00052">
        <ele>682.7</ele>
        <time>2019-12-25T13:36:40.000Z</time>
      </trkpt>
      <trkpt lat="45.92437" lon="3.00039">
        <ele>683.1</ele>
        <time>2019-12-25T13:36:42.000Z</time>
      </trkpt>
      <trkpt lat="45.92446" lon="3.00026">
        <ele>683.4</ele>
        <time>2019-12-25T13:36:44.000Z</time>
      </trkpt>
      <trkpt lat="45.92457" lon="3.00013">
        <ele>683.8</ele>
        <time>2019-12-25T13:36:46.000Z</time>
      </trkpt>
      <trkpt lat="45.92466" lon="3">
        <ele>684.1</ele>
        <time>2019-12-25T13:36:48.000Z</time>
      </trkpt>
      <trkpt lat="45.92475" lon="2.99988">
        <ele>684.5</ele>
        <time>2019-12-25T13:36:50.000Z</time>
      </trkpt>
      <trkpt lat="45.9248" lon="2.99983">
        <ele>684.6</ele>
        <time>2019-12-25T13:36:51.000Z</time>
      </trkpt>
      <trkpt lat="45.92484" lon="2.99977">
        <ele>684.8</ele>
        <time>2019-12-25T13:36:52.000Z</time>
      </trkpt>
      <trkpt lat="45.92493" lon="2.99965">
        <ele>685.1</ele>
        <time>2019-12-25T13:36:54.000Z</time>
      </trkpt>
      <trkpt lat="45.92502" lon="2.99951">
        <ele>685.4</ele>
        <time>2019-12-25T13:36:56.000Z</time>
      </trkpt>
      <trkpt lat="45.92509" lon="2.99938">
        <ele>685.8</ele>
        <time>2019-12-25T13:36:58.000Z</time>
      </trkpt>
      <trkpt lat="45.92513" lon="2.99931">
        <ele>686</ele>
        <time>2019-12-25T13:36:59.000Z</time>
      </trkpt>
      <trkpt lat="45.92521" lon="2.99918">
        <ele>686.3</ele>
        <time>2019-12-25T13:37:01.000Z</time>
      </trkpt>
      <trkpt lat="45.92524" lon="2.99911">
        <ele>686.5</ele>
        <time>2019-12-25T13:37:02.000Z</time>
      </trkpt>
      <trkpt lat="45.92531" lon="2.99898">
        <ele>686.8</ele>
        <time>2019-12-25T13:37:04.000Z</time>
      </trkpt>
      <trkpt lat="45.92534" lon="2.99892">
        <ele>686.9</ele>
        <time>2019-12-25T13:37:05.000Z</time>
      </trkpt>
      <trkpt lat="45.92538" lon="2.99885">
        <ele>687.1</ele>
        <time>2019-12-25T13:37:06.000Z</time>
      </trkpt>
      <trkpt lat="45.92547" lon="2.99873">
        <ele>687.4</ele>
        <time>2019-12-25T13:37:08.000Z</time>
      </trkpt>
      <trkpt lat="45.92551" lon="2.99867">
        <ele>687.6</ele>
        <time>2019-12-25T13:37:09.000Z</time>
      </trkpt>
      <trkpt lat="45.92561" lon="2.99856">
        <ele>687.9</ele>
        <time>2019-12-25T13:37:11.000Z</time>
      </trkpt>
      <trkpt lat="45.9257" lon="2.99846">
        <ele>688.2</ele>
        <time>2019-12-25T13:37:13.000Z</time>
      </trkpt>
      <trkpt lat="45.9258" lon="2.99837">
        <ele>688.5</ele>
        <time>2019-12-25T13:37:15.000Z</time>
      </trkpt>
      <trkpt lat="45.92584" lon="2.99833">
        <ele>688.7</ele>
        <time>2019-12-25T13:37:16.000Z</time>
      </trkpt>
      <trkpt lat="45.92594" lon="2.99824">
        <ele>689</ele>
        <time>2019-12-25T13:37:18.000Z</time>
      </trkpt>
      <trkpt lat="45.92604" lon="2.99815">
        <ele>689.3</ele>
        <time>2019-12-25T13:37:20.000Z</time>
      </trkpt>
      <trkpt lat="45.92609" lon="2.9981">
        <ele>689.4</ele>
        <time>2019-12-25T13:37:21.000Z</time>
      </trkpt>
      <trkpt lat="45.92614" lon="2.99806">
        <ele>689.6</ele>
        <time>2019-12-25T13:37:22.000Z</time>
      </trkpt>
      <trkpt lat="45.92623" lon="2.99796">
        <ele>689.8</ele>
        <time>2019-12-25T13:37:24.000Z</time>
      </trkpt>
      <trkpt lat="45.92628" lon="2.99792">
        <ele>689.9</ele>
        <time>2019-12-25T13:37:25.000Z</time>
      </trkpt>
      <trkpt lat="45.92632" lon="2.99787">
        <ele>689.9</ele>
        <time>2019-12-25T13:37:26.000Z</time>
      </trkpt>
      <trkpt lat="45.92642" lon="2.99779">
        <ele>690.1</ele>
        <time>2019-12-25T13:37:28.000Z</time>
      </trkpt>
      <trkpt lat="45.92652" lon="2.9977">
        <ele>690.3</ele>
        <time>2019-12-25T13:37:30.000Z</time>
      </trkpt>
      <trkpt lat="45.92661" lon="2.99762">
        <ele>690.5</ele>
        <time>2019-12-25T13:37:32.000Z</time>
      </trkpt>
      <trkpt lat="45.92671" lon="2.99752">
        <ele>690.7</ele>
        <time>2019-12-25T13:37:34.000Z</time>
      </trkpt>
      <trkpt lat="45.9268" lon="2.99742">
        <ele>690.9</ele>
        <time>2019-12-25T13:37:36.000Z</time>
      </trkpt>
      <trkpt lat="45.92689" lon="2.99732">
        <ele>691.1</ele>
        <time>2019-12-25T13:37:38.000Z</time>
      </trkpt>
      <trkpt lat="45.92693" lon="2.99726">
        <ele>691.2</ele>
        <time>2019-12-25T13:37:39.000Z</time>
      </trkpt>
      <trkpt lat="45.92696" lon="2.9972">
        <ele>691.3</ele>
        <time>2019-12-25T13:37:40.000Z</time>
      </trkpt>
      <trkpt lat="45.927" lon="2.99714">
        <ele>691.5</ele>
        <time>2019-12-25T13:37:41.000Z</time>
      </trkpt>
      <trkpt lat="45.92707" lon="2.997">
        <ele>691.9</ele>
        <time>2019-12-25T13:37:43.000Z</time>
      </trkpt>
      <trkpt lat="45.92713" lon="2.99686">
        <ele>692.3</ele>
        <time>2019-12-25T13:37:45.000Z</time>
      </trkpt>
      <trkpt lat="45.92716" lon="2.99679">
        <ele>692.5</ele>
        <time>2019-12-25T13:37:46.000Z</time>
      </trkpt>
      <trkpt lat="45.92722" lon="2.99664">
        <ele>692.9</ele>
        <time>2019-12-25T13:37:48.000Z</time>
      </trkpt>
      <trkpt lat="45.92725" lon="2.99656">
        <ele>693.1</ele>
        <time>2019-12-25T13:37:49.000Z</time>
      </trkpt>
      <trkpt lat="45.9273" lon="2.99641">
        <ele>693.6</ele>
        <time>2019-12-25T13:37:51.000Z</time>
      </trkpt>
      <trkpt lat="45.92735" lon="2.99626">
        <ele>694.1</ele>
        <time>2019-12-25T13:37:53.000Z</time>
      </trkpt>
      <trkpt lat="45.92737" lon="2.99618">
        <ele>694.5</ele>
        <time>2019-12-25T13:37:54.000Z</time>
      </trkpt>
      <trkpt lat="45.9274" lon="2.99611">
        <ele>694.7</ele>
        <time>2019-12-25T13:37:55.000Z</time>
      </trkpt>
      <trkpt lat="45.92744" lon="2.99597">
        <ele>695.3</ele>
        <time>2019-12-25T13:37:57.000Z</time>
      </trkpt>
      <trkpt lat="45.92746" lon="2.9959">
        <ele>695.6</ele>
        <time>2019-12-25T13:37:58.000Z</time>
      </trkpt>
      <trkpt lat="45.92751" lon="2.99575">
        <ele>696.2</ele>
        <time>2019-12-25T13:38:00.000Z</time>
      </trkpt>
      <trkpt lat="45.92753" lon="2.99567">
        <ele>696.5</ele>
        <time>2019-12-25T13:38:01.000Z</time>
      </trkpt>
      <trkpt lat="45.92755" lon="2.9956">
        <ele>696.8</ele>
        <time>2019-12-25T13:38:02.000Z</time>
      </trkpt>
      <trkpt lat="45.92757" lon="2.99552">
        <ele>697.2</ele>
        <time>2019-12-25T13:38:03.000Z</time>
      </trkpt>
      <trkpt lat="45.9276" lon="2.99545">
        <ele>697.6</ele>
        <time>2019-12-25T13:38:04.000Z</time>
      </trkpt>
      <trkpt lat="45.92765" lon="2.9953">
        <ele>698.3</ele>
        <time>2019-12-25T13:38:06.000Z</time>
      </trkpt>
      <trkpt lat="45.92767" lon="2.99522">
        <ele>698.7</ele>
        <time>2019-12-25T13:38:07.000Z</time>
      </trkpt>
      <trkpt lat="45.92771" lon="2.99507">
        <ele>699.4</ele>
        <time>2019-12-25T13:38:09.000Z</time>
      </trkpt>
      <trkpt lat="45.92774" lon="2.99499">
        <ele>699.7</ele>
        <time>2019-12-25T13:38:10.000Z</time>
      </trkpt>
      <trkpt lat="45.92779" lon="2.99484">
        <ele>700.5</ele>
        <time>2019-12-25T13:38:12.000Z</time>
      </trkpt>
      <trkpt lat="45.92784" lon="2.99469">
        <ele>701.2</ele>
        <time>2019-12-25T13:38:14.000Z</time>
      </trkpt>
      <trkpt lat="45.92789" lon="2.99453">
        <ele>701.5</ele>
        <time>2019-12-25T13:38:16.000Z</time>
      </trkpt>
      <trkpt lat="45.92795" lon="2.99438">
        <ele>701.7</ele>
        <time>2019-12-25T13:38:18.000Z</time>
      </trkpt>
      <trkpt lat="45.92798" lon="2.99432">
        <ele>701.7</ele>
        <time>2019-12-25T13:38:19.000Z</time>
      </trkpt>
      <trkpt lat="45.92806" lon="2.9942">
        <ele>701.8</ele>
        <time>2019-12-25T13:38:21.000Z</time>
      </trkpt>
      <trkpt lat="45.9281" lon="2.99414">
        <ele>701.9</ele>
        <time>2019-12-25T13:38:22.000Z</time>
      </trkpt>
      <trkpt lat="45.92819" lon="2.99404">
        <ele>702.1</ele>
        <time>2019-12-25T13:38:24.000Z</time>
      </trkpt>
      <trkpt lat="45.92824" lon="2.994">
        <ele>702.4</ele>
        <time>2019-12-25T13:38:25.000Z</time>
      </trkpt>
      <trkpt lat="45.92834" lon="2.99395">
        <ele>702.9</ele>
        <time>2019-12-25T13:38:27.000Z</time>
      </trkpt>
      <trkpt lat="45.92839" lon="2.99392">
        <ele>703.1</ele>
        <time>2019-12-25T13:38:28.000Z</time>
      </trkpt>
      <trkpt lat="45.92851" lon="2.99389">
        <ele>703.5</ele>
        <time>2019-12-25T13:38:30.000Z</time>
      </trkpt>
      <trkpt lat="45.92857" lon="2.99388">
        <ele>703.6</ele>
        <time>2019-12-25T13:38:31.000Z</time>
      </trkpt>
      <trkpt lat="45.92863" lon="2.99388">
        <ele>703.6</ele>
        <time>2019-12-25T13:38:32.000Z</time>
      </trkpt>
      <trkpt lat="45.92875" lon="2.99387">
        <ele>703.6</ele>
        <time>2019-12-25T13:38:34.000Z</time>
      </trkpt>
      <trkpt lat="45.9288" lon="2.99387">
        <ele>703.6</ele>
        <time>2019-12-25T13:38:35.000Z</time>
      </trkpt>
      <trkpt lat="45.92892" lon="2.99386">
        <ele>703.6</ele>
        <time>2019-12-25T13:38:37.000Z</time>
      </trkpt>
      <trkpt lat="45.92904" lon="2.99387">
        <ele>703.6</ele>
        <time>2019-12-25T13:38:39.000Z</time>
      </trkpt>
      <trkpt lat="45.9291" lon="2.99386">
        <ele>703.6</ele>
        <time>2019-12-25T13:38:40.000Z</time>
      </trkpt>
      <trkpt lat="45.92916" lon="2.99386">
        <ele>703.6</ele>
        <time>2019-12-25T13:38:41.000Z</time>
      </trkpt>
      <trkpt lat="45.92928" lon="2.99386">
        <ele>703.6</ele>
        <time>2019-12-25T13:38:43.000Z</time>
      </trkpt>
      <trkpt lat="45.9294" lon="2.99385">
        <ele>703.6</ele>
        <time>2019-12-25T13:38:45.000Z</time>
      </trkpt>
      <trkpt lat="45.92946" lon="2.99385">
        <ele>703.6</ele>
        <time>2019-12-25T13:38:46.000Z</time>
      </trkpt>
      <trkpt lat="45.92952" lon="2.99384">
        <ele>703.7</ele>
        <time>2019-12-25T13:38:47.000Z</time>
      </trkpt>
      <trkpt lat="45.92964" lon="2.99385">
        <ele>703.7</ele>
        <time>2019-12-25T13:38:49.000Z</time>
      </trkpt>
      <trkpt lat="45.92976" lon="2.99385">
        <ele>704</ele>
        <time>2019-12-25T13:38:51.000Z</time>
      </trkpt>
      <trkpt lat="45.92981" lon="2.99385">
        <ele>704.2</ele>
        <time>2019-12-25T13:38:52.000Z</time>
      </trkpt>
      <trkpt lat="45.92993" lon="2.99384">
        <ele>704.8</ele>
        <time>2019-12-25T13:38:54.000Z</time>
      </trkpt>
      <trkpt lat="45.93005" lon="2.99383">
        <ele>705.6</ele>
        <time>2019-12-25T13:38:56.000Z</time>
      </trkpt>
      <trkpt lat="45.93016" lon="2.99381">
        <ele>706.1</ele>
        <time>2019-12-25T13:38:58.000Z</time>
      </trkpt>
      <trkpt lat="45.93027" lon="2.99381">
        <ele>706.7</ele>
        <time>2019-12-25T13:39:00.000Z</time>
      </trkpt>
      <trkpt lat="45.93032" lon="2.9938">
        <ele>707</ele>
        <time>2019-12-25T13:39:01.000Z</time>
      </trkpt>
      <trkpt lat="45.93038" lon="2.99378">
        <ele>707.2</ele>
        <time>2019-12-25T13:39:02.000Z</time>
      </trkpt>
      <trkpt lat="45.93049" lon="2.99375">
        <ele>707.7</ele>
        <time>2019-12-25T13:39:04.000Z</time>
      </trkpt>
      <trkpt lat="45.93059" lon="2.9937">
        <ele>708.1</ele>
        <time>2019-12-25T13:39:06.000Z</time>
      </trkpt>
      <trkpt lat="45.93064" lon="2.99367">
        <ele>708.2</ele>
        <time>2019-12-25T13:39:07.000Z</time>
      </trkpt>
      <trkpt lat="45.9307" lon="2.99354">
        <ele>708.1</ele>
        <time>2019-12-25T13:39:09.000Z</time>
      </trkpt>
      <trkpt lat="45.93065" lon="2.99338">
        <ele>707.2</ele>
        <time>2019-12-25T13:39:11.000Z</time>
      </trkpt>
      <trkpt lat="45.9306" lon="2.9933">
        <ele>706.6</ele>
        <time>2019-12-25T13:39:12.000Z</time>
      </trkpt>
      <trkpt lat="45.93054" lon="2.99322">
        <ele>706.1</ele>
        <time>2019-12-25T13:39:13.000Z</time>
      </trkpt>
      <trkpt lat="45.9304" lon="2.99306">
        <ele>704.8</ele>
        <time>2019-12-25T13:39:15.000Z</time>
      </trkpt>
      <trkpt lat="45.93028" lon="2.99284">
        <ele>703.4</ele>
        <time>2019-12-25T13:39:17.000Z</time>
      </trkpt>
      <trkpt lat="45.93024" lon="2.99255">
        <ele>703.2</ele>
        <time>2019-12-25T13:39:19.000Z</time>
      </trkpt>
      <trkpt lat="45.93026" lon="2.9924">
        <ele>703.1</ele>
        <time>2019-12-25T13:39:20.000Z</time>
      </trkpt>
      <trkpt lat="45.93032" lon="2.9921">
        <ele>703.2</ele>
        <time>2019-12-25T13:39:22.000Z</time>
      </trkpt>
      <trkpt lat="45.93036" lon="2.99196">
        <ele>703.2</ele>
        <time>2019-12-25T13:39:23.000Z</time>
      </trkpt>
      <trkpt lat="45.93042" lon="2.99167">
        <ele>702.4</ele>
        <time>2019-12-25T13:39:25.000Z</time>
      </trkpt>
      <trkpt lat="45.93049" lon="2.99139">
        <ele>702.1</ele>
        <time>2019-12-25T13:39:27.000Z</time>
      </trkpt>
      <trkpt lat="45.93054" lon="2.99126">
        <ele>702.1</ele>
        <time>2019-12-25T13:39:28.000Z</time>
      </trkpt>
      <trkpt lat="45.93059" lon="2.99114">
        <ele>702</ele>
        <time>2019-12-25T13:39:29.000Z</time>
      </trkpt>
      <trkpt lat="45.93063" lon="2.99102">
        <ele>702</ele>
        <time>2019-12-25T13:39:30.000Z</time>
      </trkpt>
      <trkpt lat="45.93068" lon="2.9909">
        <ele>702</ele>
        <time>2019-12-25T13:39:31.000Z</time>
      </trkpt>
      <trkpt lat="45.93077" lon="2.99068">
        <ele>702.3</ele>
        <time>2019-12-25T13:39:33.000Z</time>
      </trkpt>
      <trkpt lat="45.93081" lon="2.99057">
        <ele>702.5</ele>
        <time>2019-12-25T13:39:34.000Z</time>
      </trkpt>
      <trkpt lat="45.93089" lon="2.99037">
        <ele>702.8</ele>
        <time>2019-12-25T13:39:36.000Z</time>
      </trkpt>
      <trkpt lat="45.93096" lon="2.99019">
        <ele>703.1</ele>
        <time>2019-12-25T13:39:38.000Z</time>
      </trkpt>
      <trkpt lat="45.93102" lon="2.99">
        <ele>703.6</ele>
        <time>2019-12-25T13:39:40.000Z</time>
      </trkpt>
      <trkpt lat="45.93107" lon="2.98982">
        <ele>704.2</ele>
        <time>2019-12-25T13:39:42.000Z</time>
      </trkpt>
      <trkpt lat="45.9311" lon="2.98964">
        <ele>704.9</ele>
        <time>2019-12-25T13:39:44.000Z</time>
      </trkpt>
      <trkpt lat="45.93111" lon="2.98947">
        <ele>705.6</ele>
        <time>2019-12-25T13:39:46.000Z</time>
      </trkpt>
      <trkpt lat="45.93111" lon="2.98939">
        <ele>705.9</ele>
        <time>2019-12-25T13:39:47.000Z</time>
      </trkpt>
      <trkpt lat="45.93111" lon="2.98922">
        <ele>706.4</ele>
        <time>2019-12-25T13:39:49.000Z</time>
      </trkpt>
      <trkpt lat="45.93109" lon="2.98904">
        <ele>707.1</ele>
        <time>2019-12-25T13:39:51.000Z</time>
      </trkpt>
      <trkpt lat="45.93108" lon="2.98887">
        <ele>707.8</ele>
        <time>2019-12-25T13:39:53.000Z</time>
      </trkpt>
      <trkpt lat="45.93105" lon="2.9887">
        <ele>708.5</ele>
        <time>2019-12-25T13:39:55.000Z</time>
      </trkpt>
      <trkpt lat="45.93102" lon="2.98853">
        <ele>709.2</ele>
        <time>2019-12-25T13:39:57.000Z</time>
      </trkpt>
      <trkpt lat="45.931" lon="2.98846">
        <ele>709.5</ele>
        <time>2019-12-25T13:39:58.000Z</time>
      </trkpt>
      <trkpt lat="45.93097" lon="2.98831">
        <ele>710.1</ele>
        <time>2019-12-25T13:40:00.000Z</time>
      </trkpt>
      <trkpt lat="45.93094" lon="2.98815">
        <ele>710.9</ele>
        <time>2019-12-25T13:40:02.000Z</time>
      </trkpt>
      <trkpt lat="45.93092" lon="2.98807">
        <ele>711.2</ele>
        <time>2019-12-25T13:40:03.000Z</time>
      </trkpt>
      <trkpt lat="45.93091" lon="2.98798">
        <ele>711.3</ele>
        <time>2019-12-25T13:40:04.000Z</time>
      </trkpt>
      <trkpt lat="45.93087" lon="2.9878">
        <ele>711.4</ele>
        <time>2019-12-25T13:40:06.000Z</time>
      </trkpt>
      <trkpt lat="45.93084" lon="2.98763">
        <ele>711.7</ele>
        <time>2019-12-25T13:40:08.000Z</time>
      </trkpt>
      <trkpt lat="45.93081" lon="2.98744">
        <ele>712.1</ele>
        <time>2019-12-25T13:40:10.000Z</time>
      </trkpt>
      <trkpt lat="45.93078" lon="2.98725">
        <ele>712.5</ele>
        <time>2019-12-25T13:40:12.000Z</time>
      </trkpt>
      <trkpt lat="45.93077" lon="2.98707">
        <ele>712.6</ele>
        <time>2019-12-25T13:40:14.000Z</time>
      </trkpt>
      <trkpt lat="45.93076" lon="2.98697">
        <ele>712.6</ele>
        <time>2019-12-25T13:40:15.000Z</time>
      </trkpt>
      <trkpt lat="45.93075" lon="2.98678">
        <ele>712.6</ele>
        <time>2019-12-25T13:40:17.000Z</time>
      </trkpt>
      <trkpt lat="45.93075" lon="2.98669">
        <ele>712.6</ele>
        <time>2019-12-25T13:40:18.000Z</time>
      </trkpt>
      <trkpt lat="45.93074" lon="2.98651">
        <ele>713.1</ele>
        <time>2019-12-25T13:40:20.000Z</time>
      </trkpt>
      <trkpt lat="45.93074" lon="2.98633">
        <ele>713.6</ele>
        <time>2019-12-25T13:40:22.000Z</time>
      </trkpt>
      <trkpt lat="45.93074" lon="2.98623">
        <ele>713.8</ele>
        <time>2019-12-25T13:40:23.000Z</time>
      </trkpt>
      <trkpt lat="45.93074" lon="2.98614">
        <ele>714</ele>
        <time>2019-12-25T13:40:24.000Z</time>
      </trkpt>
      <trkpt lat="45.93075" lon="2.98595">
        <ele>714.3</ele>
        <time>2019-12-25T13:40:26.000Z</time>
      </trkpt>
      <trkpt lat="45.93075" lon="2.98586">
        <ele>714.5</ele>
        <time>2019-12-25T13:40:27.000Z</time>
      </trkpt>
      <trkpt lat="45.93077" lon="2.98566">
        <ele>714.9</ele>
        <time>2019-12-25T13:40:29.000Z</time>
      </trkpt>
      <trkpt lat="45.93079" lon="2.98548">
        <ele>715.3</ele>
        <time>2019-12-25T13:40:31.000Z</time>
      </trkpt>
      <trkpt lat="45.93081" lon="2.98538">
        <ele>715.4</ele>
        <time>2019-12-25T13:40:32.000Z</time>
      </trkpt>
      <trkpt lat="45.93082" lon="2.98528">
        <ele>715.5</ele>
        <time>2019-12-25T13:40:33.000Z</time>
      </trkpt>
      <trkpt lat="45.93086" lon="2.98508">
        <ele>715.7</ele>
        <time>2019-12-25T13:40:35.000Z</time>
      </trkpt>
      <trkpt lat="45.93087" lon="2.98499">
        <ele>715.9</ele>
        <time>2019-12-25T13:40:36.000Z</time>
      </trkpt>
      <trkpt lat="45.93089" lon="2.98479">
        <ele>716.4</ele>
        <time>2019-12-25T13:40:38.000Z</time>
      </trkpt>
      <trkpt lat="45.93092" lon="2.98461">
        <ele>716.9</ele>
        <time>2019-12-25T13:40:40.000Z</time>
      </trkpt>
      <trkpt lat="45.93093" lon="2.98444">
        <ele>717.5</ele>
        <time>2019-12-25T13:40:42.000Z</time>
      </trkpt>
      <trkpt lat="45.93094" lon="2.98435">
        <ele>717.8</ele>
        <time>2019-12-25T13:40:43.000Z</time>
      </trkpt>
      <trkpt lat="45.93095" lon="2.98426">
        <ele>718.1</ele>
        <time>2019-12-25T13:40:44.000Z</time>
      </trkpt>
      <trkpt lat="45.93097" lon="2.98417">
        <ele>718.4</ele>
        <time>2019-12-25T13:40:45.000Z</time>
      </trkpt>
      <trkpt lat="45.93099" lon="2.98399">
        <ele>719.1</ele>
        <time>2019-12-25T13:40:47.000Z</time>
      </trkpt>
      <trkpt lat="45.931" lon="2.9839">
        <ele>719.4</ele>
        <time>2019-12-25T13:40:48.000Z</time>
      </trkpt>
      <trkpt lat="45.93102" lon="2.98373">
        <ele>720</ele>
        <time>2019-12-25T13:40:50.000Z</time>
      </trkpt>
      <trkpt lat="45.93104" lon="2.98365">
        <ele>720.3</ele>
        <time>2019-12-25T13:40:51.000Z</time>
      </trkpt>
      <trkpt lat="45.93105" lon="2.98349">
        <ele>720.8</ele>
        <time>2019-12-25T13:40:53.000Z</time>
      </trkpt>
      <trkpt lat="45.93106" lon="2.98333">
        <ele>721.4</ele>
        <time>2019-12-25T13:40:55.000Z</time>
      </trkpt>
      <trkpt lat="45.93108" lon="2.98317">
        <ele>722</ele>
        <time>2019-12-25T13:40:57.000Z</time>
      </trkpt>
      <trkpt lat="45.93108" lon="2.98309">
        <ele>722.3</ele>
        <time>2019-12-25T13:40:58.000Z</time>
      </trkpt>
      <trkpt lat="45.93108" lon="2.98301">
        <ele>722.5</ele>
        <time>2019-12-25T13:40:59.000Z</time>
      </trkpt>
      <trkpt lat="45.93109" lon="2.98294">
        <ele>722.7</ele>
        <time>2019-12-25T13:41:00.000Z</time>
      </trkpt>
      <trkpt lat="45.93109" lon="2.98287">
        <ele>722.9</ele>
        <time>2019-12-25T13:41:01.000Z</time>
      </trkpt>
      <trkpt lat="45.93108" lon="2.98272">
        <ele>723.4</ele>
        <time>2019-12-25T13:41:03.000Z</time>
      </trkpt>
      <trkpt lat="45.93107" lon="2.98265">
        <ele>723.7</ele>
        <time>2019-12-25T13:41:04.000Z</time>
      </trkpt>
      <trkpt lat="45.93106" lon="2.98252">
        <ele>724.3</ele>
        <time>2019-12-25T13:41:06.000Z</time>
      </trkpt>
      <trkpt lat="45.93105" lon="2.98239">
        <ele>724.9</ele>
        <time>2019-12-25T13:41:08.000Z</time>
      </trkpt>
      <trkpt lat="45.93104" lon="2.98227">
        <ele>725.4</ele>
        <time>2019-12-25T13:41:10.000Z</time>
      </trkpt>
      <trkpt lat="45.93104" lon="2.98221">
        <ele>725.7</ele>
        <time>2019-12-25T13:41:11.000Z</time>
      </trkpt>
      <trkpt lat="45.93104" lon="2.98216">
        <ele>725.9</ele>
        <time>2019-12-25T13:41:12.000Z</time>
      </trkpt>
      <trkpt lat="45.93104" lon="2.98203">
        <ele>726.5</ele>
        <time>2019-12-25T13:41:14.000Z</time>
      </trkpt>
      <trkpt lat="45.93104" lon="2.98196">
        <ele>726.8</ele>
        <time>2019-12-25T13:41:16.000Z</time>
      </trkpt>
      <trkpt lat="45.93103" lon="2.98187">
        <ele>727.2</ele>
        <time>2019-12-25T13:41:17.000Z</time>
      </trkpt>
      <trkpt lat="45.93102" lon="2.9817">
        <ele>727.8</ele>
        <time>2019-12-25T13:41:19.000Z</time>
      </trkpt>
      <trkpt lat="45.93098" lon="2.98151">
        <ele>728.6</ele>
        <time>2019-12-25T13:41:22.000Z</time>
      </trkpt>
      <trkpt lat="45.93097" lon="2.98142">
        <ele>729</ele>
        <time>2019-12-25T13:41:23.000Z</time>
      </trkpt>
      <trkpt lat="45.93094" lon="2.98125">
        <ele>729.7</ele>
        <time>2019-12-25T13:41:25.000Z</time>
      </trkpt>
      <trkpt lat="45.93092" lon="2.98111">
        <ele>730.5</ele>
        <time>2019-12-25T13:41:27.000Z</time>
      </trkpt>
      <trkpt lat="45.9309" lon="2.98096">
        <ele>731.4</ele>
        <time>2019-12-25T13:41:29.000Z</time>
      </trkpt>
      <trkpt lat="45.9309" lon="2.98089">
        <ele>732</ele>
        <time>2019-12-25T13:41:30.000Z</time>
      </trkpt>
      <trkpt lat="45.93088" lon="2.98075">
        <ele>732.9</ele>
        <time>2019-12-25T13:41:32.000Z</time>
      </trkpt>
      <trkpt lat="45.93089" lon="2.98067">
        <ele>733.4</ele>
        <time>2019-12-25T13:41:35.000Z</time>
      </trkpt>
      <trkpt lat="45.93089" lon="2.98057">
        <ele>734</ele>
        <time>2019-12-25T13:41:36.000Z</time>
      </trkpt>
      <trkpt lat="45.9309" lon="2.98049">
        <ele>734.4</ele>
        <time>2019-12-25T13:41:37.000Z</time>
      </trkpt>
      <trkpt lat="45.9309" lon="2.98039">
        <ele>735</ele>
        <time>2019-12-25T13:41:39.000Z</time>
      </trkpt>
      <trkpt lat="45.93091" lon="2.9803">
        <ele>735.5</ele>
        <time>2019-12-25T13:41:41.000Z</time>
      </trkpt>
      <trkpt lat="45.93092" lon="2.98021">
        <ele>736</ele>
        <time>2019-12-25T13:41:42.000Z</time>
      </trkpt>
      <trkpt lat="45.93094" lon="2.98012">
        <ele>736.6</ele>
        <time>2019-12-25T13:41:44.000Z</time>
      </trkpt>
      <trkpt lat="45.93095" lon="2.98003">
        <ele>737.2</ele>
        <time>2019-12-25T13:41:46.000Z</time>
      </trkpt>
      <trkpt lat="45.93096" lon="2.97996">
        <ele>737.6</ele>
        <time>2019-12-25T13:41:47.000Z</time>
      </trkpt>
      <trkpt lat="45.93097" lon="2.9799">
        <ele>737.9</ele>
        <time>2019-12-25T13:41:48.000Z</time>
      </trkpt>
      <trkpt lat="45.93098" lon="2.97981">
        <ele>738.3</ele>
        <time>2019-12-25T13:41:50.000Z</time>
      </trkpt>
      <trkpt lat="45.931" lon="2.9797">
        <ele>738.7</ele>
        <time>2019-12-25T13:41:51.000Z</time>
      </trkpt>
      <trkpt lat="45.93101" lon="2.97961">
        <ele>739.1</ele>
        <time>2019-12-25T13:41:53.000Z</time>
      </trkpt>
      <trkpt lat="45.93102" lon="2.97951">
        <ele>739.4</ele>
        <time>2019-12-25T13:41:55.000Z</time>
      </trkpt>
      <trkpt lat="45.93104" lon="2.97942">
        <ele>739.8</ele>
        <time>2019-12-25T13:41:56.000Z</time>
      </trkpt>
      <trkpt lat="45.93105" lon="2.97936">
        <ele>740.1</ele>
        <time>2019-12-25T13:41:57.000Z</time>
      </trkpt>
      <trkpt lat="45.93107" lon="2.97931">
        <ele>740.3</ele>
        <time>2019-12-25T13:41:58.000Z</time>
      </trkpt>
      <trkpt lat="45.93109" lon="2.97924">
        <ele>740.6</ele>
        <time>2019-12-25T13:41:59.000Z</time>
      </trkpt>
      <trkpt lat="45.93111" lon="2.97918">
        <ele>740.8</ele>
        <time>2019-12-25T13:42:01.000Z</time>
      </trkpt>
      <trkpt lat="45.93113" lon="2.97912">
        <ele>741.1</ele>
        <time>2019-12-25T13:42:02.000Z</time>
      </trkpt>
      <trkpt lat="45.93115" lon="2.97904">
        <ele>741.3</ele>
        <time>2019-12-25T13:42:03.000Z</time>
      </trkpt>
      <trkpt lat="45.93118" lon="2.97899">
        <ele>741.5</ele>
        <time>2019-12-25T13:42:04.000Z</time>
      </trkpt>
      <trkpt lat="45.93122" lon="2.97887">
        <ele>742</ele>
        <time>2019-12-25T13:42:06.000Z</time>
      </trkpt>
      <trkpt lat="45.93124" lon="2.97882">
        <ele>742.1</ele>
        <time>2019-12-25T13:42:08.000Z</time>
      </trkpt>
      <trkpt lat="45.93126" lon="2.97877">
        <ele>742.5</ele>
        <time>2019-12-25T13:42:09.000Z</time>
      </trkpt>
      <trkpt lat="45.93129" lon="2.9787">
        <ele>742.8</ele>
        <time>2019-12-25T13:42:10.000Z</time>
      </trkpt>
      <trkpt lat="45.93132" lon="2.97861">
        <ele>743.3</ele>
        <time>2019-12-25T13:42:12.000Z</time>
      </trkpt>
      <trkpt lat="45.93134" lon="2.97854">
        <ele>743.6</ele>
        <time>2019-12-25T13:42:13.000Z</time>
      </trkpt>
      <trkpt lat="45.93137" lon="2.97844">
        <ele>744.1</ele>
        <time>2019-12-25T13:42:15.000Z</time>
      </trkpt>
      <trkpt lat="45.9314" lon="2.97837">
        <ele>744.4</ele>
        <time>2019-12-25T13:42:16.000Z</time>
      </trkpt>
      <trkpt lat="45.93144" lon="2.97829">
        <ele>744.8</ele>
        <time>2019-12-25T13:42:18.000Z</time>
      </trkpt>
      <trkpt lat="45.93148" lon="2.9782">
        <ele>745.2</ele>
        <time>2019-12-25T13:42:19.000Z</time>
      </trkpt>
      <trkpt lat="45.93151" lon="2.97815">
        <ele>745.4</ele>
        <time>2019-12-25T13:42:20.000Z</time>
      </trkpt>
      <trkpt lat="45.93154" lon="2.9781">
        <ele>745.7</ele>
        <time>2019-12-25T13:42:22.000Z</time>
      </trkpt>
      <trkpt lat="45.93157" lon="2.97805">
        <ele>746</ele>
        <time>2019-12-25T13:42:23.000Z</time>
      </trkpt>
      <trkpt lat="45.9316" lon="2.97801">
        <ele>746.3</ele>
        <time>2019-12-25T13:42:24.000Z</time>
      </trkpt>
      <trkpt lat="45.93164" lon="2.97797">
        <ele>746.6</ele>
        <time>2019-12-25T13:42:25.000Z</time>
      </trkpt>
      <trkpt lat="45.93169" lon="2.97791">
        <ele>747.1</ele>
        <time>2019-12-25T13:42:26.000Z</time>
      </trkpt>
      <trkpt lat="45.93173" lon="2.97787">
        <ele>747.5</ele>
        <time>2019-12-25T13:42:28.000Z</time>
      </trkpt>
      <trkpt lat="45.93176" lon="2.97783">
        <ele>747.9</ele>
        <time>2019-12-25T13:42:29.000Z</time>
      </trkpt>
      <trkpt lat="45.93181" lon="2.97777">
        <ele>748.5</ele>
        <time>2019-12-25T13:42:30.000Z</time>
      </trkpt>
      <trkpt lat="45.93186" lon="2.97771">
        <ele>749</ele>
        <time>2019-12-25T13:42:32.000Z</time>
      </trkpt>
      <trkpt lat="45.9319" lon="2.97768">
        <ele>749.3</ele>
        <time>2019-12-25T13:42:33.000Z</time>
      </trkpt>
      <trkpt lat="45.93197" lon="2.9776">
        <ele>750</ele>
        <time>2019-12-25T13:42:35.000Z</time>
      </trkpt>
      <trkpt lat="45.93202" lon="2.97755">
        <ele>750.4</ele>
        <time>2019-12-25T13:42:37.000Z</time>
      </trkpt>
      <trkpt lat="45.93205" lon="2.97752">
        <ele>750.7</ele>
        <time>2019-12-25T13:42:38.000Z</time>
      </trkpt>
      <trkpt lat="45.93208" lon="2.97748">
        <ele>751</ele>
        <time>2019-12-25T13:42:39.000Z</time>
      </trkpt>
      <trkpt lat="45.93214" lon="2.97742">
        <ele>751.6</ele>
        <time>2019-12-25T13:42:41.000Z</time>
      </trkpt>
      <trkpt lat="45.93218" lon="2.97738">
        <ele>751.9</ele>
        <time>2019-12-25T13:42:42.000Z</time>
      </trkpt>
      <trkpt lat="45.93221" lon="2.97734">
        <ele>752.2</ele>
        <time>2019-12-25T13:42:43.000Z</time>
      </trkpt>
      <trkpt lat="45.93224" lon="2.9773">
        <ele>752.5</ele>
        <time>2019-12-25T13:42:44.000Z</time>
      </trkpt>
      <trkpt lat="45.9323" lon="2.97724">
        <ele>753</ele>
        <time>2019-12-25T13:42:46.000Z</time>
      </trkpt>
      <trkpt lat="45.93235" lon="2.97719">
        <ele>753.4</ele>
        <time>2019-12-25T13:42:48.000Z</time>
      </trkpt>
      <trkpt lat="45.93238" lon="2.97715">
        <ele>753.7</ele>
        <time>2019-12-25T13:42:49.000Z</time>
      </trkpt>
      <trkpt lat="45.9324" lon="2.97711">
        <ele>754</ele>
        <time>2019-12-25T13:42:50.000Z</time>
      </trkpt>
      <trkpt lat="45.93245" lon="2.97705">
        <ele>754.5</ele>
        <time>2019-12-25T13:42:52.000Z</time>
      </trkpt>
      <trkpt lat="45.93249" lon="2.97698">
        <ele>755</ele>
        <time>2019-12-25T13:42:53.000Z</time>
      </trkpt>
      <trkpt lat="45.93252" lon="2.97694">
        <ele>755.3</ele>
        <time>2019-12-25T13:42:54.000Z</time>
      </trkpt>
      <trkpt lat="45.93255" lon="2.97689">
        <ele>755.7</ele>
        <time>2019-12-25T13:42:55.000Z</time>
      </trkpt>
      <trkpt lat="45.93258" lon="2.97683">
        <ele>756.1</ele>
        <time>2019-12-25T13:42:56.000Z</time>
      </trkpt>
      <trkpt lat="45.9326" lon="2.97677">
        <ele>756.4</ele>
        <time>2019-12-25T13:42:57.000Z</time>
      </trkpt>
      <trkpt lat="45.93263" lon="2.97671">
        <ele>756.8</ele>
        <time>2019-12-25T13:42:59.000Z</time>
      </trkpt>
      <trkpt lat="45.93266" lon="2.97666">
        <ele>757.1</ele>
        <time>2019-12-25T13:43:00.000Z</time>
      </trkpt>
      <trkpt lat="45.93269" lon="2.97658">
        <ele>757.5</ele>
        <time>2019-12-25T13:43:02.000Z</time>
      </trkpt>
      <trkpt lat="45.93273" lon="2.9765">
        <ele>757.9</ele>
        <time>2019-12-25T13:43:04.000Z</time>
      </trkpt>
      <trkpt lat="45.93275" lon="2.97645">
        <ele>758.2</ele>
        <time>2019-12-25T13:43:05.000Z</time>
      </trkpt>
      <trkpt lat="45.93278" lon="2.97638">
        <ele>758.6</ele>
        <time>2019-12-25T13:43:06.000Z</time>
      </trkpt>
      <trkpt lat="45.93282" lon="2.9763">
        <ele>759.1</ele>
        <time>2019-12-25T13:43:08.000Z</time>
      </trkpt>
      <trkpt lat="45.93285" lon="2.97625">
        <ele>759.4</ele>
        <time>2019-12-25T13:43:09.000Z</time>
      </trkpt>
      <trkpt lat="45.93288" lon="2.9762">
        <ele>759.8</ele>
        <time>2019-12-25T13:43:10.000Z</time>
      </trkpt>
      <trkpt lat="45.93291" lon="2.97613">
        <ele>760.2</ele>
        <time>2019-12-25T13:43:12.000Z</time>
      </trkpt>
      <trkpt lat="45.93295" lon="2.97605">
        <ele>760.8</ele>
        <time>2019-12-25T13:43:13.000Z</time>
      </trkpt>
      <trkpt lat="45.93297" lon="2.97601">
        <ele>761.2</ele>
        <time>2019-12-25T13:43:14.000Z</time>
      </trkpt>
      <trkpt lat="45.933" lon="2.97595">
        <ele>761.5</ele>
        <time>2019-12-25T13:43:15.000Z</time>
      </trkpt>
      <trkpt lat="45.93302" lon="2.9759">
        <ele>761.9</ele>
        <time>2019-12-25T13:43:17.000Z</time>
      </trkpt>
      <trkpt lat="45.93305" lon="2.97584">
        <ele>762.3</ele>
        <time>2019-12-25T13:43:18.000Z</time>
      </trkpt>
      <trkpt lat="45.93307" lon="2.9758">
        <ele>762.6</ele>
        <time>2019-12-25T13:43:19.000Z</time>
      </trkpt>
      <trkpt lat="45.9331" lon="2.97576">
        <ele>762.9</ele>
        <time>2019-12-25T13:43:20.000Z</time>
      </trkpt>
      <trkpt lat="45.93313" lon="2.9757">
        <ele>763.3</ele>
        <time>2019-12-25T13:43:22.000Z</time>
      </trkpt>
      <trkpt lat="45.93317" lon="2.97564">
        <ele>763.8</ele>
        <time>2019-12-25T13:43:23.000Z</time>
      </trkpt>
      <trkpt lat="45.93319" lon="2.9756">
        <ele>764</ele>
        <time>2019-12-25T13:43:24.000Z</time>
      </trkpt>
      <trkpt lat="45.93324" lon="2.97556">
        <ele>764.5</ele>
        <time>2019-12-25T13:43:26.000Z</time>
      </trkpt>
      <trkpt lat="45.93328" lon="2.97553">
        <ele>764.9</ele>
        <time>2019-12-25T13:43:27.000Z</time>
      </trkpt>
      <trkpt lat="45.93333" lon="2.97549">
        <ele>765.4</ele>
        <time>2019-12-25T13:43:29.000Z</time>
      </trkpt>
      <trkpt lat="45.93338" lon="2.97547">
        <ele>765.8</ele>
        <time>2019-12-25T13:43:30.000Z</time>
      </trkpt>
      <trkpt lat="45.93345" lon="2.97546">
        <ele>766.4</ele>
        <time>2019-12-25T13:43:32.000Z</time>
      </trkpt>
      <trkpt lat="45.93349" lon="2.97545">
        <ele>766.8</ele>
        <time>2019-12-25T13:43:33.000Z</time>
      </trkpt>
      <trkpt lat="45.93355" lon="2.97544">
        <ele>767.2</ele>
        <time>2019-12-25T13:43:34.000Z</time>
      </trkpt>
      <trkpt lat="45.93359" lon="2.97544">
        <ele>767.6</ele>
        <time>2019-12-25T13:43:36.000Z</time>
      </trkpt>
      <trkpt lat="45.93366" lon="2.97545">
        <ele>768</ele>
        <time>2019-12-25T13:43:37.000Z</time>
      </trkpt>
      <trkpt lat="45.93372" lon="2.97547">
        <ele>768.5</ele>
        <time>2019-12-25T13:43:39.000Z</time>
      </trkpt>
      <trkpt lat="45.93377" lon="2.97549">
        <ele>768.9</ele>
        <time>2019-12-25T13:43:40.000Z</time>
      </trkpt>
      <trkpt lat="45.93381" lon="2.97552">
        <ele>769.2</ele>
        <time>2019-12-25T13:43:41.000Z</time>
      </trkpt>
      <trkpt lat="45.93389" lon="2.97559">
        <ele>769.8</ele>
        <time>2019-12-25T13:43:43.000Z</time>
      </trkpt>
      <trkpt lat="45.93392" lon="2.97562">
        <ele>770</ele>
        <time>2019-12-25T13:43:44.000Z</time>
      </trkpt>
      <trkpt lat="45.93399" lon="2.97572">
        <ele>770.7</ele>
        <time>2019-12-25T13:43:47.000Z</time>
      </trkpt>
      <trkpt lat="45.93403" lon="2.97576">
        <ele>770.9</ele>
        <time>2019-12-25T13:43:48.000Z</time>
      </trkpt>
      <trkpt lat="45.93407" lon="2.97582">
        <ele>771.2</ele>
        <time>2019-12-25T13:43:49.000Z</time>
      </trkpt>
      <trkpt lat="45.9341" lon="2.97586">
        <ele>771.4</ele>
        <time>2019-12-25T13:43:50.000Z</time>
      </trkpt>
      <trkpt lat="45.93414" lon="2.9759">
        <ele>771.6</ele>
        <time>2019-12-25T13:43:52.000Z</time>
      </trkpt>
      <trkpt lat="45.9342" lon="2.97596">
        <ele>771.9</ele>
        <time>2019-12-25T13:43:53.000Z</time>
      </trkpt>
      <trkpt lat="45.93423" lon="2.976">
        <ele>772.1</ele>
        <time>2019-12-25T13:43:54.000Z</time>
      </trkpt>
      <trkpt lat="45.93429" lon="2.97605">
        <ele>772.4</ele>
        <time>2019-12-25T13:43:55.000Z</time>
      </trkpt>
      <trkpt lat="45.93434" lon="2.97608">
        <ele>772.6</ele>
        <time>2019-12-25T13:43:56.000Z</time>
      </trkpt>
      <trkpt lat="45.93439" lon="2.97611">
        <ele>772.8</ele>
        <time>2019-12-25T13:43:57.000Z</time>
      </trkpt>
      <trkpt lat="45.93445" lon="2.97613">
        <ele>773</ele>
        <time>2019-12-25T13:43:59.000Z</time>
      </trkpt>
      <trkpt lat="45.93451" lon="2.97616">
        <ele>773.3</ele>
        <time>2019-12-25T13:44:00.000Z</time>
      </trkpt>
      <trkpt lat="45.93458" lon="2.97619">
        <ele>773.7</ele>
        <time>2019-12-25T13:44:02.000Z</time>
      </trkpt>
      <trkpt lat="45.93462" lon="2.97619">
        <ele>773.9</ele>
        <time>2019-12-25T13:44:03.000Z</time>
      </trkpt>
      <trkpt lat="45.93466" lon="2.97622">
        <ele>774.2</ele>
        <time>2019-12-25T13:44:04.000Z</time>
      </trkpt>
      <trkpt lat="45.93473" lon="2.97626">
        <ele>774.6</ele>
        <time>2019-12-25T13:44:06.000Z</time>
      </trkpt>
      <trkpt lat="45.93477" lon="2.97628">
        <ele>775</ele>
        <time>2019-12-25T13:44:07.000Z</time>
      </trkpt>
      <trkpt lat="45.93482" lon="2.97629">
        <ele>775.3</ele>
        <time>2019-12-25T13:44:08.000Z</time>
      </trkpt>
      <trkpt lat="45.9349" lon="2.97632">
        <ele>776</ele>
        <time>2019-12-25T13:44:10.000Z</time>
      </trkpt>
      <trkpt lat="45.93497" lon="2.97634">
        <ele>776.6</ele>
        <time>2019-12-25T13:44:12.000Z</time>
      </trkpt>
      <trkpt lat="45.93502" lon="2.97636">
        <ele>776.8</ele>
        <time>2019-12-25T13:44:13.000Z</time>
      </trkpt>
      <trkpt lat="45.93506" lon="2.97638">
        <ele>777.1</ele>
        <time>2019-12-25T13:44:14.000Z</time>
      </trkpt>
      <trkpt lat="45.93512" lon="2.97641">
        <ele>776.9</ele>
        <time>2019-12-25T13:44:16.000Z</time>
      </trkpt>
      <trkpt lat="45.93517" lon="2.97643">
        <ele>776.9</ele>
        <time>2019-12-25T13:44:17.000Z</time>
      </trkpt>
      <trkpt lat="45.93522" lon="2.97645">
        <ele>776.8</ele>
        <time>2019-12-25T13:44:18.000Z</time>
      </trkpt>
      <trkpt lat="45.93528" lon="2.97648">
        <ele>776.7</ele>
        <time>2019-12-25T13:44:20.000Z</time>
      </trkpt>
      <trkpt lat="45.93532" lon="2.97649">
        <ele>776.7</ele>
        <time>2019-12-25T13:44:21.000Z</time>
      </trkpt>
      <trkpt lat="45.93536" lon="2.9765">
        <ele>776.8</ele>
        <time>2019-12-25T13:44:22.000Z</time>
      </trkpt>
      <trkpt lat="45.9354" lon="2.97651">
        <ele>777</ele>
        <time>2019-12-25T13:44:23.000Z</time>
      </trkpt>
      <trkpt lat="45.93544" lon="2.97653">
        <ele>776.9</ele>
        <time>2019-12-25T13:44:24.000Z</time>
      </trkpt>
      <trkpt lat="45.93548" lon="2.97654">
        <ele>776.9</ele>
        <time>2019-12-25T13:44:25.000Z</time>
      </trkpt>
      <trkpt lat="45.93556" lon="2.97655">
        <ele>777.1</ele>
        <time>2019-12-25T13:44:27.000Z</time>
      </trkpt>
      <trkpt lat="45.9356" lon="2.97655">
        <ele>777.1</ele>
        <time>2019-12-25T13:44:28.000Z</time>
      </trkpt>
      <trkpt lat="45.93568" lon="2.97655">
        <ele>777.2</ele>
        <time>2019-12-25T13:44:31.000Z</time>
      </trkpt>
      <trkpt lat="45.93571" lon="2.97656">
        <ele>777.2</ele>
        <time>2019-12-25T13:44:32.000Z</time>
      </trkpt>
      <trkpt lat="45.93576" lon="2.9766">
        <ele>777.2</ele>
        <time>2019-12-25T13:44:33.000Z</time>
      </trkpt>
      <trkpt lat="45.93586" lon="2.97669">
        <ele>775.2</ele>
        <time>2019-12-25T13:44:35.000Z</time>
      </trkpt>
      <trkpt lat="45.9359" lon="2.97675">
        <ele>774.7</ele>
        <time>2019-12-25T13:44:36.000Z</time>
      </trkpt>
      <trkpt lat="45.93595" lon="2.97682">
        <ele>774.2</ele>
        <time>2019-12-25T13:44:37.000Z</time>
      </trkpt>
      <trkpt lat="45.93606" lon="2.97694">
        <ele>773.1</ele>
        <time>2019-12-25T13:44:39.000Z</time>
      </trkpt>
      <trkpt lat="45.93621" lon="2.97704">
        <ele>771.8</ele>
        <time>2019-12-25T13:44:41.000Z</time>
      </trkpt>
      <trkpt lat="45.93638" lon="2.97709">
        <ele>770</ele>
        <time>2019-12-25T13:44:43.000Z</time>
      </trkpt>
      <trkpt lat="45.93657" lon="2.97711">
        <ele>769.5</ele>
        <time>2019-12-25T13:44:45.000Z</time>
      </trkpt>
      <trkpt lat="45.93675" lon="2.97718">
        <ele>769</ele>
        <time>2019-12-25T13:44:47.000Z</time>
      </trkpt>
      <trkpt lat="45.93682" lon="2.97719">
        <ele>768.5</ele>
        <time>2019-12-25T13:44:48.000Z</time>
      </trkpt>
      <trkpt lat="45.93695" lon="2.97714">
        <ele>767.1</ele>
        <time>2019-12-25T13:44:50.000Z</time>
      </trkpt>
      <trkpt lat="45.93701" lon="2.97704">
        <ele>766</ele>
        <time>2019-12-25T13:44:52.000Z</time>
      </trkpt>
      <trkpt lat="45.9371" lon="2.97713">
        <ele>764.7</ele>
        <time>2019-12-25T13:44:54.000Z</time>
      </trkpt>
      <trkpt lat="45.93713" lon="2.97738">
        <ele>762.5</ele>
        <time>2019-12-25T13:44:56.000Z</time>
      </trkpt>
      <trkpt lat="45.93712" lon="2.97752">
        <ele>761.6</ele>
        <time>2019-12-25T13:44:57.000Z</time>
      </trkpt>
      <trkpt lat="45.9371" lon="2.97766">
        <ele>760.7</ele>
        <time>2019-12-25T13:44:58.000Z</time>
      </trkpt>
      <trkpt lat="45.937" lon="2.97792">
        <ele>758.8</ele>
        <time>2019-12-25T13:45:00.000Z</time>
      </trkpt>
      <trkpt lat="45.93687" lon="2.97813">
        <ele>756.6</ele>
        <time>2019-12-25T13:45:02.000Z</time>
      </trkpt>
      <trkpt lat="45.9368" lon="2.97821">
        <ele>755.4</ele>
        <time>2019-12-25T13:45:03.000Z</time>
      </trkpt>
      <trkpt lat="45.93669" lon="2.97834">
        <ele>753.9</ele>
        <time>2019-12-25T13:45:05.000Z</time>
      </trkpt>
      <trkpt lat="45.93668" lon="2.9784">
        <ele>753.2</ele>
        <time>2019-12-25T13:45:06.000Z</time>
      </trkpt>
      <trkpt lat="45.93668" lon="2.97846">
        <ele>752.4</ele>
        <time>2019-12-25T13:45:07.000Z</time>
      </trkpt>
      <trkpt lat="45.93676" lon="2.97857">
        <ele>750.7</ele>
        <time>2019-12-25T13:45:09.000Z</time>
      </trkpt>
      <trkpt lat="45.9369" lon="2.97862">
        <ele>749</ele>
        <time>2019-12-25T13:45:11.000Z</time>
      </trkpt>
      <trkpt lat="45.93705" lon="2.97858">
        <ele>747.2</ele>
        <time>2019-12-25T13:45:13.000Z</time>
      </trkpt>
      <trkpt lat="45.93719" lon="2.97849">
        <ele>746.3</ele>
        <time>2019-12-25T13:45:15.000Z</time>
      </trkpt>
      <trkpt lat="45.93727" lon="2.97843">
        <ele>745.9</ele>
        <time>2019-12-25T13:45:16.000Z</time>
      </trkpt>
      <trkpt lat="45.93736" lon="2.97837">
        <ele>745.3</ele>
        <time>2019-12-25T13:45:17.000Z</time>
      </trkpt>
      <trkpt lat="45.93755" lon="2.97827">
        <ele>744.2</ele>
        <time>2019-12-25T13:45:19.000Z</time>
      </trkpt>
      <trkpt lat="45.93775" lon="2.97823">
        <ele>743.1</ele>
        <time>2019-12-25T13:45:21.000Z</time>
      </trkpt>
      <trkpt lat="45.93796" lon="2.97825">
        <ele>741.8</ele>
        <time>2019-12-25T13:45:23.000Z</time>
      </trkpt>
      <trkpt lat="45.93806" lon="2.97825">
        <ele>741.3</ele>
        <time>2019-12-25T13:45:24.000Z</time>
      </trkpt>
      <trkpt lat="45.93814" lon="2.97825">
        <ele>740.9</ele>
        <time>2019-12-25T13:45:25.000Z</time>
      </trkpt>
      <trkpt lat="45.9383" lon="2.97824">
        <ele>739.8</ele>
        <time>2019-12-25T13:45:27.000Z</time>
      </trkpt>
      <trkpt lat="45.93839" lon="2.97825">
        <ele>739</ele>
        <time>2019-12-25T13:45:28.000Z</time>
      </trkpt>
      <trkpt lat="45.93859" lon="2.97836">
        <ele>736</ele>
        <time>2019-12-25T13:45:30.000Z</time>
      </trkpt>
      <trkpt lat="45.9388" lon="2.97851">
        <ele>735.4</ele>
        <time>2019-12-25T13:45:32.000Z</time>
      </trkpt>
      <trkpt lat="45.93898" lon="2.9787">
        <ele>735.2</ele>
        <time>2019-12-25T13:45:34.000Z</time>
      </trkpt>
      <trkpt lat="45.93915" lon="2.97888">
        <ele>735.2</ele>
        <time>2019-12-25T13:45:36.000Z</time>
      </trkpt>
      <trkpt lat="45.93925" lon="2.97895">
        <ele>735.3</ele>
        <time>2019-12-25T13:45:37.000Z</time>
      </trkpt>
      <trkpt lat="45.93943" lon="2.97909">
        <ele>735.3</ele>
        <time>2019-12-25T13:45:39.000Z</time>
      </trkpt>
      <trkpt lat="45.9395" lon="2.97919">
        <ele>735.2</ele>
        <time>2019-12-25T13:45:40.000Z</time>
      </trkpt>
      <trkpt lat="45.93964" lon="2.97944">
        <ele>734.7</ele>
        <time>2019-12-25T13:45:42.000Z</time>
      </trkpt>
      <trkpt lat="45.93969" lon="2.97958">
        <ele>734.3</ele>
        <time>2019-12-25T13:45:43.000Z</time>
      </trkpt>
      <trkpt lat="45.93978" lon="2.97986">
        <ele>733.6</ele>
        <time>2019-12-25T13:45:45.000Z</time>
      </trkpt>
      <trkpt lat="45.93984" lon="2.97999">
        <ele>733.3</ele>
        <time>2019-12-25T13:45:46.000Z</time>
      </trkpt>
      <trkpt lat="45.93995" lon="2.98023">
        <ele>732.9</ele>
        <time>2019-12-25T13:45:48.000Z</time>
      </trkpt>
      <trkpt lat="45.94002" lon="2.98034">
        <ele>732.7</ele>
        <time>2019-12-25T13:45:49.000Z</time>
      </trkpt>
      <trkpt lat="45.94009" lon="2.98045">
        <ele>732.6</ele>
        <time>2019-12-25T13:45:50.000Z</time>
      </trkpt>
      <trkpt lat="45.94025" lon="2.98064">
        <ele>732</ele>
        <time>2019-12-25T13:45:52.000Z</time>
      </trkpt>
      <trkpt lat="45.94034" lon="2.98074">
        <ele>731.6</ele>
        <time>2019-12-25T13:45:53.000Z</time>
      </trkpt>
      <trkpt lat="45.94051" lon="2.98092">
        <ele>730.8</ele>
        <time>2019-12-25T13:45:55.000Z</time>
      </trkpt>
      <trkpt lat="45.9406" lon="2.98102">
        <ele>730.5</ele>
        <time>2019-12-25T13:45:56.000Z</time>
      </trkpt>
      <trkpt lat="45.94077" lon="2.98121">
        <ele>729.8</ele>
        <time>2019-12-25T13:45:58.000Z</time>
      </trkpt>
      <trkpt lat="45.94094" lon="2.9814">
        <ele>729.3</ele>
        <time>2019-12-25T13:46:00.000Z</time>
      </trkpt>
      <trkpt lat="45.94114" lon="2.98157">
        <ele>728.9</ele>
        <time>2019-12-25T13:46:02.000Z</time>
      </trkpt>
      <trkpt lat="45.94125" lon="2.98162">
        <ele>728.5</ele>
        <time>2019-12-25T13:46:03.000Z</time>
      </trkpt>
      <trkpt lat="45.94137" lon="2.98166">
        <ele>728.2</ele>
        <time>2019-12-25T13:46:04.000Z</time>
      </trkpt>
      <trkpt lat="45.94159" lon="2.9817">
        <ele>727.4</ele>
        <time>2019-12-25T13:46:06.000Z</time>
      </trkpt>
      <trkpt lat="45.94169" lon="2.98172">
        <ele>726.9</ele>
        <time>2019-12-25T13:46:07.000Z</time>
      </trkpt>
      <trkpt lat="45.94179" lon="2.98175">
        <ele>726.5</ele>
        <time>2019-12-25T13:46:08.000Z</time>
      </trkpt>
      <trkpt lat="45.94197" lon="2.98186">
        <ele>725.7</ele>
        <time>2019-12-25T13:46:10.000Z</time>
      </trkpt>
      <trkpt lat="45.94206" lon="2.98193">
        <ele>725.6</ele>
        <time>2019-12-25T13:46:11.000Z</time>
      </trkpt>
      <trkpt lat="45.94221" lon="2.98208">
        <ele>725.7</ele>
        <time>2019-12-25T13:46:13.000Z</time>
      </trkpt>
      <trkpt lat="45.94234" lon="2.98221">
        <ele>726.1</ele>
        <time>2019-12-25T13:46:15.000Z</time>
      </trkpt>
      <trkpt lat="45.94246" lon="2.98234">
        <ele>726.7</ele>
        <time>2019-12-25T13:46:17.000Z</time>
      </trkpt>
      <trkpt lat="45.94257" lon="2.98245">
        <ele>727.3</ele>
        <time>2019-12-25T13:46:19.000Z</time>
      </trkpt>
      <trkpt lat="45.94262" lon="2.98251">
        <ele>727.5</ele>
        <time>2019-12-25T13:46:20.000Z</time>
      </trkpt>
      <trkpt lat="45.94273" lon="2.98259">
        <ele>728.1</ele>
        <time>2019-12-25T13:46:22.000Z</time>
      </trkpt>
      <trkpt lat="45.94278" lon="2.98263">
        <ele>728.3</ele>
        <time>2019-12-25T13:46:23.000Z</time>
      </trkpt>
      <trkpt lat="45.94289" lon="2.98268">
        <ele>728.9</ele>
        <time>2019-12-25T13:46:25.000Z</time>
      </trkpt>
      <trkpt lat="45.94299" lon="2.98272">
        <ele>729.4</ele>
        <time>2019-12-25T13:46:27.000Z</time>
      </trkpt>
      <trkpt lat="45.94309" lon="2.98276">
        <ele>729.9</ele>
        <time>2019-12-25T13:46:29.000Z</time>
      </trkpt>
      <trkpt lat="45.94314" lon="2.98278">
        <ele>730.2</ele>
        <time>2019-12-25T13:46:30.000Z</time>
      </trkpt>
      <trkpt lat="45.94322" lon="2.98283">
        <ele>730.7</ele>
        <time>2019-12-25T13:46:32.000Z</time>
      </trkpt>
      <trkpt lat="45.94331" lon="2.98291">
        <ele>731.3</ele>
        <time>2019-12-25T13:46:34.000Z</time>
      </trkpt>
      <trkpt lat="45.94335" lon="2.98295">
        <ele>731.7</ele>
        <time>2019-12-25T13:46:35.000Z</time>
      </trkpt>
      <trkpt lat="45.94342" lon="2.98303">
        <ele>732.3</ele>
        <time>2019-12-25T13:46:37.000Z</time>
      </trkpt>
      <trkpt lat="45.94348" lon="2.98312">
        <ele>733</ele>
        <time>2019-12-25T13:46:39.000Z</time>
      </trkpt>
      <trkpt lat="45.94351" lon="2.98317">
        <ele>733.4</ele>
        <time>2019-12-25T13:46:40.000Z</time>
      </trkpt>
      <trkpt lat="45.94358" lon="2.98326">
        <ele>734.2</ele>
        <time>2019-12-25T13:46:42.000Z</time>
      </trkpt>
      <trkpt lat="45.94364" lon="2.98336">
        <ele>735.1</ele>
        <time>2019-12-25T13:46:44.000Z</time>
      </trkpt>
      <trkpt lat="45.94371" lon="2.98347">
        <ele>735.9</ele>
        <time>2019-12-25T13:46:46.000Z</time>
      </trkpt>
      <trkpt lat="45.94374" lon="2.98351">
        <ele>736.3</ele>
        <time>2019-12-25T13:46:47.000Z</time>
      </trkpt>
      <trkpt lat="45.94381" lon="2.98362">
        <ele>737</ele>
        <time>2019-12-25T13:46:49.000Z</time>
      </trkpt>
      <trkpt lat="45.94387" lon="2.98372">
        <ele>737.7</ele>
        <time>2019-12-25T13:46:51.000Z</time>
      </trkpt>
      <trkpt lat="45.94394" lon="2.98381">
        <ele>738.4</ele>
        <time>2019-12-25T13:46:53.000Z</time>
      </trkpt>
      <trkpt lat="45.94401" lon="2.9839">
        <ele>739</ele>
        <time>2019-12-25T13:46:55.000Z</time>
      </trkpt>
      <trkpt lat="45.94405" lon="2.98395">
        <ele>739.3</ele>
        <time>2019-12-25T13:46:56.000Z</time>
      </trkpt>
      <trkpt lat="45.94412" lon="2.98404">
        <ele>739.9</ele>
        <time>2019-12-25T13:46:58.000Z</time>
      </trkpt>
      <trkpt lat="45.9442" lon="2.98413">
        <ele>740.4</ele>
        <time>2019-12-25T13:47:00.000Z</time>
      </trkpt>
      <trkpt lat="45.94425" lon="2.98417">
        <ele>740.6</ele>
        <time>2019-12-25T13:47:01.000Z</time>
      </trkpt>
      <trkpt lat="45.94433" lon="2.98425">
        <ele>740.9</ele>
        <time>2019-12-25T13:47:03.000Z</time>
      </trkpt>
      <trkpt lat="45.94441" lon="2.98434">
        <ele>741.2</ele>
        <time>2019-12-25T13:47:05.000Z</time>
      </trkpt>
      <trkpt lat="45.94445" lon="2.9844">
        <ele>741.4</ele>
        <time>2019-12-25T13:47:06.000Z</time>
      </trkpt>
      <trkpt lat="45.94453" lon="2.9845">
        <ele>741.7</ele>
        <time>2019-12-25T13:47:08.000Z</time>
      </trkpt>
      <trkpt lat="45.94461" lon="2.98459">
        <ele>742</ele>
        <time>2019-12-25T13:47:10.000Z</time>
      </trkpt>
      <trkpt lat="45.9447" lon="2.9847">
        <ele>742.4</ele>
        <time>2019-12-25T13:47:12.000Z</time>
      </trkpt>
      <trkpt lat="45.94478" lon="2.9848">
        <ele>742.7</ele>
        <time>2019-12-25T13:47:14.000Z</time>
      </trkpt>
      <trkpt lat="45.94481" lon="2.98485">
        <ele>742.8</ele>
        <time>2019-12-25T13:47:15.000Z</time>
      </trkpt>
      <trkpt lat="45.94489" lon="2.98494">
        <ele>743.1</ele>
        <time>2019-12-25T13:47:17.000Z</time>
      </trkpt>
      <trkpt lat="45.94496" lon="2.98503">
        <ele>743.3</ele>
        <time>2019-12-25T13:47:19.000Z</time>
      </trkpt>
      <trkpt lat="45.94499" lon="2.98507">
        <ele>743.4</ele>
        <time>2019-12-25T13:47:20.000Z</time>
      </trkpt>
      <trkpt lat="45.94506" lon="2.98515">
        <ele>743.5</ele>
        <time>2019-12-25T13:47:22.000Z</time>
      </trkpt>
      <trkpt lat="45.94513" lon="2.98524">
        <ele>743.7</ele>
        <time>2019-12-25T13:47:24.000Z</time>
      </trkpt>
      <trkpt lat="45.94518" lon="2.98527">
        <ele>743.8</ele>
        <time>2019-12-25T13:47:25.000Z</time>
      </trkpt>
      <trkpt lat="45.94523" lon="2.98531">
        <ele>743.8</ele>
        <time>2019-12-25T13:47:26.000Z</time>
      </trkpt>
      <trkpt lat="45.94532" lon="2.9854">
        <ele>743.8</ele>
        <time>2019-12-25T13:47:28.000Z</time>
      </trkpt>
      <trkpt lat="45.94534" lon="2.98548">
        <ele>743.8</ele>
        <time>2019-12-25T13:47:29.000Z</time>
      </trkpt>
      <trkpt lat="45.94534" lon="2.98557">
        <ele>744</ele>
        <time>2019-12-25T13:47:30.000Z</time>
      </trkpt>
      <trkpt lat="45.9453" lon="2.98575">
        <ele>744.1</ele>
        <time>2019-12-25T13:47:32.000Z</time>
      </trkpt>
      <trkpt lat="45.94527" lon="2.98584">
        <ele>744.2</ele>
        <time>2019-12-25T13:47:33.000Z</time>
      </trkpt>
      <trkpt lat="45.94523" lon="2.98604">
        <ele>744.4</ele>
        <time>2019-12-25T13:47:35.000Z</time>
      </trkpt>
      <trkpt lat="45.94521" lon="2.98615">
        <ele>744.5</ele>
        <time>2019-12-25T13:47:36.000Z</time>
      </trkpt>
      <trkpt lat="45.94519" lon="2.98625">
        <ele>744.6</ele>
        <time>2019-12-25T13:47:37.000Z</time>
      </trkpt>
      <trkpt lat="45.94517" lon="2.98636">
        <ele>744.7</ele>
        <time>2019-12-25T13:47:38.000Z</time>
      </trkpt>
      <trkpt lat="45.94514" lon="2.98656">
        <ele>744.8</ele>
        <time>2019-12-25T13:47:40.000Z</time>
      </trkpt>
      <trkpt lat="45.94511" lon="2.98677">
        <ele>744.9</ele>
        <time>2019-12-25T13:47:42.000Z</time>
      </trkpt>
      <trkpt lat="45.94507" lon="2.98696">
        <ele>744.9</ele>
        <time>2019-12-25T13:47:44.000Z</time>
      </trkpt>
      <trkpt lat="45.94505" lon="2.98706">
        <ele>744.8</ele>
        <time>2019-12-25T13:47:45.000Z</time>
      </trkpt>
      <trkpt lat="45.94501" lon="2.98726">
        <ele>744.8</ele>
        <time>2019-12-25T13:47:47.000Z</time>
      </trkpt>
      <trkpt lat="45.94497" lon="2.98747">
        <ele>744.2</ele>
        <time>2019-12-25T13:47:49.000Z</time>
      </trkpt>
      <trkpt lat="45.94495" lon="2.98759">
        <ele>744</ele>
        <time>2019-12-25T13:47:50.000Z</time>
      </trkpt>
      <trkpt lat="45.94491" lon="2.98782">
        <ele>743.8</ele>
        <time>2019-12-25T13:47:52.000Z</time>
      </trkpt>
      <trkpt lat="45.94487" lon="2.98806">
        <ele>743.6</ele>
        <time>2019-12-25T13:47:54.000Z</time>
      </trkpt>
      <trkpt lat="45.94484" lon="2.98819">
        <ele>743.3</ele>
        <time>2019-12-25T13:47:55.000Z</time>
      </trkpt>
      <trkpt lat="45.94479" lon="2.98845">
        <ele>742.5</ele>
        <time>2019-12-25T13:47:57.000Z</time>
      </trkpt>
      <trkpt lat="45.94476" lon="2.98859">
        <ele>742.1</ele>
        <time>2019-12-25T13:47:58.000Z</time>
      </trkpt>
      <trkpt lat="45.94469" lon="2.98888">
        <ele>741.1</ele>
        <time>2019-12-25T13:48:00.000Z</time>
      </trkpt>
      <trkpt lat="45.94461" lon="2.98918">
        <ele>740.1</ele>
        <time>2019-12-25T13:48:02.000Z</time>
      </trkpt>
      <trkpt lat="45.94453" lon="2.98946">
        <ele>739.4</ele>
        <time>2019-12-25T13:48:04.000Z</time>
      </trkpt>
      <trkpt lat="45.94448" lon="2.98961">
        <ele>739.2</ele>
        <time>2019-12-25T13:48:05.000Z</time>
      </trkpt>
      <trkpt lat="45.94439" lon="2.9899">
        <ele>738.7</ele>
        <time>2019-12-25T13:48:07.000Z</time>
      </trkpt>
      <trkpt lat="45.9443" lon="2.99019">
        <ele>737.5</ele>
        <time>2019-12-25T13:48:09.000Z</time>
      </trkpt>
      <trkpt lat="45.94426" lon="2.99034">
        <ele>736.9</ele>
        <time>2019-12-25T13:48:10.000Z</time>
      </trkpt>
      <trkpt lat="45.94417" lon="2.99063">
        <ele>736</ele>
        <time>2019-12-25T13:48:12.000Z</time>
      </trkpt>
      <trkpt lat="45.94407" lon="2.99093">
        <ele>735.3</ele>
        <time>2019-12-25T13:48:14.000Z</time>
      </trkpt>
      <trkpt lat="45.94403" lon="2.99108">
        <ele>735.1</ele>
        <time>2019-12-25T13:48:15.000Z</time>
      </trkpt>
      <trkpt lat="45.94395" lon="2.99138">
        <ele>734.6</ele>
        <time>2019-12-25T13:48:17.000Z</time>
      </trkpt>
      <trkpt lat="45.94387" lon="2.99169">
        <ele>734.1</ele>
        <time>2019-12-25T13:48:19.000Z</time>
      </trkpt>
      <trkpt lat="45.94384" lon="2.99186">
        <ele>733.9</ele>
        <time>2019-12-25T13:48:20.000Z</time>
      </trkpt>
      <trkpt lat="45.94379" lon="2.9922">
        <ele>733.3</ele>
        <time>2019-12-25T13:48:22.000Z</time>
      </trkpt>
      <trkpt lat="45.94377" lon="2.99255">
        <ele>732.6</ele>
        <time>2019-12-25T13:48:24.000Z</time>
      </trkpt>
      <trkpt lat="45.94377" lon="2.9929">
        <ele>731.5</ele>
        <time>2019-12-25T13:48:26.000Z</time>
      </trkpt>
      <trkpt lat="45.94378" lon="2.99326">
        <ele>730.3</ele>
        <time>2019-12-25T13:48:28.000Z</time>
      </trkpt>
      <trkpt lat="45.94378" lon="2.99344">
        <ele>729.7</ele>
        <time>2019-12-25T13:48:29.000Z</time>
      </trkpt>
      <trkpt lat="45.94377" lon="2.99379">
        <ele>728.5</ele>
        <time>2019-12-25T13:48:31.000Z</time>
      </trkpt>
      <trkpt lat="45.94375" lon="2.99413">
        <ele>727.5</ele>
        <time>2019-12-25T13:48:33.000Z</time>
      </trkpt>
      <trkpt lat="45.94372" lon="2.99446">
        <ele>726.2</ele>
        <time>2019-12-25T13:48:35.000Z</time>
      </trkpt>
      <trkpt lat="45.94366" lon="2.99479">
        <ele>725.4</ele>
        <time>2019-12-25T13:48:37.000Z</time>
      </trkpt>
      <trkpt lat="45.94363" lon="2.99496">
        <ele>725.2</ele>
        <time>2019-12-25T13:48:38.000Z</time>
      </trkpt>
      <trkpt lat="45.94357" lon="2.99529">
        <ele>724.5</ele>
        <time>2019-12-25T13:48:40.000Z</time>
      </trkpt>
      <trkpt lat="45.9435" lon="2.99563">
        <ele>723.4</ele>
        <time>2019-12-25T13:48:42.000Z</time>
      </trkpt>
      <trkpt lat="45.94343" lon="2.99598">
        <ele>722.2</ele>
        <time>2019-12-25T13:48:44.000Z</time>
      </trkpt>
      <trkpt lat="45.94338" lon="2.99616">
        <ele>721.5</ele>
        <time>2019-12-25T13:48:45.000Z</time>
      </trkpt>
      <trkpt lat="45.94326" lon="2.99651">
        <ele>720.1</ele>
        <time>2019-12-25T13:48:47.000Z</time>
      </trkpt>
      <trkpt lat="45.94318" lon="2.99667">
        <ele>719.3</ele>
        <time>2019-12-25T13:48:48.000Z</time>
      </trkpt>
      <trkpt lat="45.94309" lon="2.99683">
        <ele>718.5</ele>
        <time>2019-12-25T13:48:49.000Z</time>
      </trkpt>
      <trkpt lat="45.94291" lon="2.99716">
        <ele>716.1</ele>
        <time>2019-12-25T13:48:51.000Z</time>
      </trkpt>
      <trkpt lat="45.94275" lon="2.99752">
        <ele>713.4</ele>
        <time>2019-12-25T13:48:53.000Z</time>
      </trkpt>
      <trkpt lat="45.94262" lon="2.99791">
        <ele>710.7</ele>
        <time>2019-12-25T13:48:55.000Z</time>
      </trkpt>
      <trkpt lat="45.94253" lon="2.99833">
        <ele>708.6</ele>
        <time>2019-12-25T13:48:57.000Z</time>
      </trkpt>
      <trkpt lat="45.94249" lon="2.99854">
        <ele>707.7</ele>
        <time>2019-12-25T13:48:58.000Z</time>
      </trkpt>
      <trkpt lat="45.9424" lon="2.99897">
        <ele>705.6</ele>
        <time>2019-12-25T13:49:00.000Z</time>
      </trkpt>
      <trkpt lat="45.94235" lon="2.99919">
        <ele>704.5</ele>
        <time>2019-12-25T13:49:01.000Z</time>
      </trkpt>
      <trkpt lat="45.94231" lon="2.9994">
        <ele>703.4</ele>
        <time>2019-12-25T13:49:02.000Z</time>
      </trkpt>
      <trkpt lat="45.94222" lon="2.99985">
        <ele>701.1</ele>
        <time>2019-12-25T13:49:04.000Z</time>
      </trkpt>
      <trkpt lat="45.94218" lon="3.00006">
        <ele>699.9</ele>
        <time>2019-12-25T13:49:05.000Z</time>
      </trkpt>
      <trkpt lat="45.94206" lon="3.0005">
        <ele>696.8</ele>
        <time>2019-12-25T13:49:07.000Z</time>
      </trkpt>
      <trkpt lat="45.94197" lon="3.00072">
        <ele>694.3</ele>
        <time>2019-12-25T13:49:08.000Z</time>
      </trkpt>
      <trkpt lat="45.94177" lon="3.0011">
        <ele>692.3</ele>
        <time>2019-12-25T13:49:10.000Z</time>
      </trkpt>
      <trkpt lat="45.94155" lon="3.00145">
        <ele>690.3</ele>
        <time>2019-12-25T13:49:12.000Z</time>
      </trkpt>
      <trkpt lat="45.94134" lon="3.0018">
        <ele>689.1</ele>
        <time>2019-12-25T13:49:14.000Z</time>
      </trkpt>
      <trkpt lat="45.94123" lon="3.00197">
        <ele>688.5</ele>
        <time>2019-12-25T13:49:15.000Z</time>
      </trkpt>
      <trkpt lat="45.94112" lon="3.00213">
        <ele>688</ele>
        <time>2019-12-25T13:49:16.000Z</time>
      </trkpt>
      <trkpt lat="45.94089" lon="3.00241">
        <ele>687.2</ele>
        <time>2019-12-25T13:49:18.000Z</time>
      </trkpt>
      <trkpt lat="45.94077" lon="3.00254">
        <ele>686.9</ele>
        <time>2019-12-25T13:49:19.000Z</time>
      </trkpt>
      <trkpt lat="45.94052" lon="3.00278">
        <ele>686.1</ele>
        <time>2019-12-25T13:49:21.000Z</time>
      </trkpt>
      <trkpt lat="45.94029" lon="3.00303">
        <ele>685.6</ele>
        <time>2019-12-25T13:49:23.000Z</time>
      </trkpt>
      <trkpt lat="45.94019" lon="3.00317">
        <ele>685.4</ele>
        <time>2019-12-25T13:49:24.000Z</time>
      </trkpt>
      <trkpt lat="45.94002" lon="3.00348">
        <ele>685.3</ele>
        <time>2019-12-25T13:49:26.000Z</time>
      </trkpt>
      <trkpt lat="45.93995" lon="3.00364">
        <ele>685.4</ele>
        <time>2019-12-25T13:49:27.000Z</time>
      </trkpt>
      <trkpt lat="45.93984" lon="3.00396">
        <ele>686.1</ele>
        <time>2019-12-25T13:49:29.000Z</time>
      </trkpt>
      <trkpt lat="45.9398" lon="3.00412">
        <ele>686.7</ele>
        <time>2019-12-25T13:49:30.000Z</time>
      </trkpt>
      <trkpt lat="45.93971" lon="3.00441">
        <ele>687.7</ele>
        <time>2019-12-25T13:49:32.000Z</time>
      </trkpt>
      <trkpt lat="45.93966" lon="3.00454">
        <ele>688.1</ele>
        <time>2019-12-25T13:49:33.000Z</time>
      </trkpt>
      <trkpt lat="45.93961" lon="3.00467">
        <ele>688.6</ele>
        <time>2019-12-25T13:49:34.000Z</time>
      </trkpt>
      <trkpt lat="45.9395" lon="3.00492">
        <ele>689.8</ele>
        <time>2019-12-25T13:49:36.000Z</time>
      </trkpt>
      <trkpt lat="45.93938" lon="3.00513">
        <ele>690.7</ele>
        <time>2019-12-25T13:49:38.000Z</time>
      </trkpt>
      <trkpt lat="45.93925" lon="3.00532">
        <ele>691.6</ele>
        <time>2019-12-25T13:49:40.000Z</time>
      </trkpt>
      <trkpt lat="45.93911" lon="3.00548">
        <ele>692.6</ele>
        <time>2019-12-25T13:49:42.000Z</time>
      </trkpt>
      <trkpt lat="45.93897" lon="3.00562">
        <ele>693.7</ele>
        <time>2019-12-25T13:49:44.000Z</time>
      </trkpt>
      <trkpt lat="45.9389" lon="3.00568">
        <ele>694</ele>
        <time>2019-12-25T13:49:45.000Z</time>
      </trkpt>
      <trkpt lat="45.93877" lon="3.0058">
        <ele>694.6</ele>
        <time>2019-12-25T13:49:47.000Z</time>
      </trkpt>
      <trkpt lat="45.93865" lon="3.00591">
        <ele>695.1</ele>
        <time>2019-12-25T13:49:49.000Z</time>
      </trkpt>
      <trkpt lat="45.9386" lon="3.00598">
        <ele>695.4</ele>
        <time>2019-12-25T13:49:50.000Z</time>
      </trkpt>
      <trkpt lat="45.93854" lon="3.00605">
        <ele>695.8</ele>
        <time>2019-12-25T13:49:51.000Z</time>
      </trkpt>
      <trkpt lat="45.93843" lon="3.00617">
        <ele>696.2</ele>
        <time>2019-12-25T13:49:53.000Z</time>
      </trkpt>
      <trkpt lat="45.93832" lon="3.0063">
        <ele>696.6</ele>
        <time>2019-12-25T13:49:55.000Z</time>
      </trkpt>
      <trkpt lat="45.93827" lon="3.00637">
        <ele>696.8</ele>
        <time>2019-12-25T13:49:56.000Z</time>
      </trkpt>
      <trkpt lat="45.93816" lon="3.00651">
        <ele>697.1</ele>
        <time>2019-12-25T13:49:58.000Z</time>
      </trkpt>
      <trkpt lat="45.93806" lon="3.00665">
        <ele>697.4</ele>
        <time>2019-12-25T13:50:00.000Z</time>
      </trkpt>
      <trkpt lat="45.938" lon="3.00672">
        <ele>697.5</ele>
        <time>2019-12-25T13:50:01.000Z</time>
      </trkpt>
      <trkpt lat="45.93794" lon="3.00678">
        <ele>697.7</ele>
        <time>2019-12-25T13:50:02.000Z</time>
      </trkpt>
      <trkpt lat="45.93781" lon="3.00688">
        <ele>697.9</ele>
        <time>2019-12-25T13:50:04.000Z</time>
      </trkpt>
      <trkpt lat="45.93768" lon="3.00696">
        <ele>698</ele>
        <time>2019-12-25T13:50:06.000Z</time>
      </trkpt>
      <trkpt lat="45.93762" lon="3.007">
        <ele>698</ele>
        <time>2019-12-25T13:50:07.000Z</time>
      </trkpt>
      <trkpt lat="45.93755" lon="3.00703">
        <ele>698</ele>
        <time>2019-12-25T13:50:08.000Z</time>
      </trkpt>
      <trkpt lat="45.93742" lon="3.0071">
        <ele>698.1</ele>
        <time>2019-12-25T13:50:10.000Z</time>
      </trkpt>
      <trkpt lat="45.93736" lon="3.00714">
        <ele>698.2</ele>
        <time>2019-12-25T13:50:11.000Z</time>
      </trkpt>
      <trkpt lat="45.93723" lon="3.00721">
        <ele>698.5</ele>
        <time>2019-12-25T13:50:13.000Z</time>
      </trkpt>
      <trkpt lat="45.93717" lon="3.00725">
        <ele>698.6</ele>
        <time>2019-12-25T13:50:14.000Z</time>
      </trkpt>
      <trkpt lat="45.93705" lon="3.00735">
        <ele>698.7</ele>
        <time>2019-12-25T13:50:16.000Z</time>
      </trkpt>
      <trkpt lat="45.937" lon="3.0074">
        <ele>698.8</ele>
        <time>2019-12-25T13:50:17.000Z</time>
      </trkpt>
      <trkpt lat="45.93689" lon="3.00753">
        <ele>698.9</ele>
        <time>2019-12-25T13:50:19.000Z</time>
      </trkpt>
      <trkpt lat="45.93683" lon="3.0076">
        <ele>698.9</ele>
        <time>2019-12-25T13:50:20.000Z</time>
      </trkpt>
      <trkpt lat="45.93673" lon="3.00774">
        <ele>699</ele>
        <time>2019-12-25T13:50:22.000Z</time>
      </trkpt>
      <trkpt lat="45.93667" lon="3.00781">
        <ele>699</ele>
        <time>2019-12-25T13:50:23.000Z</time>
      </trkpt>
      <trkpt lat="45.93662" lon="3.00788">
        <ele>698.9</ele>
        <time>2019-12-25T13:50:24.000Z</time>
      </trkpt>
      <trkpt lat="45.93651" lon="3.00802">
        <ele>698.9</ele>
        <time>2019-12-25T13:50:26.000Z</time>
      </trkpt>
      <trkpt lat="45.93645" lon="3.0081">
        <ele>698.8</ele>
        <time>2019-12-25T13:50:27.000Z</time>
      </trkpt>
      <trkpt lat="45.93631" lon="3.00823">
        <ele>698.6</ele>
        <time>2019-12-25T13:50:29.000Z</time>
      </trkpt>
      <trkpt lat="45.93618" lon="3.00834">
        <ele>698.4</ele>
        <time>2019-12-25T13:50:31.000Z</time>
      </trkpt>
      <trkpt lat="45.93603" lon="3.00844">
        <ele>698.1</ele>
        <time>2019-12-25T13:50:33.000Z</time>
      </trkpt>
      <trkpt lat="45.93596" lon="3.00849">
        <ele>697.9</ele>
        <time>2019-12-25T13:50:34.000Z</time>
      </trkpt>
      <trkpt lat="45.93581" lon="3.00861">
        <ele>697.6</ele>
        <time>2019-12-25T13:50:36.000Z</time>
      </trkpt>
      <trkpt lat="45.93565" lon="3.00873">
        <ele>697.2</ele>
        <time>2019-12-25T13:50:38.000Z</time>
      </trkpt>
      <trkpt lat="45.93557" lon="3.0088">
        <ele>697</ele>
        <time>2019-12-25T13:50:39.000Z</time>
      </trkpt>
      <trkpt lat="45.93541" lon="3.00894">
        <ele>696.7</ele>
        <time>2019-12-25T13:50:41.000Z</time>
      </trkpt>
      <trkpt lat="45.93527" lon="3.00912">
        <ele>696.4</ele>
        <time>2019-12-25T13:50:43.000Z</time>
      </trkpt>
      <trkpt lat="45.93521" lon="3.00923">
        <ele>696.2</ele>
        <time>2019-12-25T13:50:44.000Z</time>
      </trkpt>
      <trkpt lat="45.93512" lon="3.00947">
        <ele>696.1</ele>
        <time>2019-12-25T13:50:46.000Z</time>
      </trkpt>
      <trkpt lat="45.93508" lon="3.00959">
        <ele>696.4</ele>
        <time>2019-12-25T13:50:47.000Z</time>
      </trkpt>
      <trkpt lat="45.93503" lon="3.00984">
        <ele>696.5</ele>
        <time>2019-12-25T13:50:49.000Z</time>
      </trkpt>
      <trkpt lat="45.93499" lon="3.01009">
        <ele>696</ele>
        <time>2019-12-25T13:50:51.000Z</time>
      </trkpt>
      <trkpt lat="45.93497" lon="3.01022">
        <ele>696</ele>
        <time>2019-12-25T13:50:52.000Z</time>
      </trkpt>
      <trkpt lat="45.93492" lon="3.01045">
        <ele>695.9</ele>
        <time>2019-12-25T13:50:54.000Z</time>
      </trkpt>
      <trkpt lat="45.93489" lon="3.01055">
        <ele>695.9</ele>
        <time>2019-12-25T13:50:55.000Z</time>
      </trkpt>
      <trkpt lat="45.93481" lon="3.01074">
        <ele>695.8</ele>
        <time>2019-12-25T13:50:57.000Z</time>
      </trkpt>
      <trkpt lat="45.93475" lon="3.01091">
        <ele>695.8</ele>
        <time>2019-12-25T13:50:59.000Z</time>
      </trkpt>
      <trkpt lat="45.93477" lon="3.01098">
        <ele>695.7</ele>
        <time>2019-12-25T13:51:00.000Z</time>
      </trkpt>
      <trkpt lat="45.9349" lon="3.01105">
        <ele>694.7</ele>
        <time>2019-12-25T13:51:02.000Z</time>
      </trkpt>
      <trkpt lat="45.93506" lon="3.01101">
        <ele>693.7</ele>
        <time>2019-12-25T13:51:04.000Z</time>
      </trkpt>
      <trkpt lat="45.93515" lon="3.01096">
        <ele>692.9</ele>
        <time>2019-12-25T13:51:05.000Z</time>
      </trkpt>
      <trkpt lat="45.93534" lon="3.01084">
        <ele>691.4</ele>
        <time>2019-12-25T13:51:07.000Z</time>
      </trkpt>
      <trkpt lat="45.93544" lon="3.01078">
        <ele>690.4</ele>
        <time>2019-12-25T13:51:08.000Z</time>
      </trkpt>
      <trkpt lat="45.93566" lon="3.01071">
        <ele>688.1</ele>
        <time>2019-12-25T13:51:10.000Z</time>
      </trkpt>
      <trkpt lat="45.93578" lon="3.0107">
        <ele>687</ele>
        <time>2019-12-25T13:51:11.000Z</time>
      </trkpt>
      <trkpt lat="45.93591" lon="3.01071">
        <ele>685.4</ele>
        <time>2019-12-25T13:51:12.000Z</time>
      </trkpt>
      <trkpt lat="45.93616" lon="3.01083">
        <ele>682.9</ele>
        <time>2019-12-25T13:51:14.000Z</time>
      </trkpt>
      <trkpt lat="45.93629" lon="3.01093">
        <ele>681.8</ele>
        <time>2019-12-25T13:51:15.000Z</time>
      </trkpt>
      <trkpt lat="45.93653" lon="3.01111">
        <ele>680</ele>
        <time>2019-12-25T13:51:17.000Z</time>
      </trkpt>
      <trkpt lat="45.93676" lon="3.01129">
        <ele>677.6</ele>
        <time>2019-12-25T13:51:19.000Z</time>
      </trkpt>
      <trkpt lat="45.93688" lon="3.01137">
        <ele>676.6</ele>
        <time>2019-12-25T13:51:20.000Z</time>
      </trkpt>
      <trkpt lat="45.93712" lon="3.01148">
        <ele>674.7</ele>
        <time>2019-12-25T13:51:22.000Z</time>
      </trkpt>
      <trkpt lat="45.93724" lon="3.01148">
        <ele>673.7</ele>
        <time>2019-12-25T13:51:23.000Z</time>
      </trkpt>
      <trkpt lat="45.93747" lon="3.01138">
        <ele>671.6</ele>
        <time>2019-12-25T13:51:25.000Z</time>
      </trkpt>
      <trkpt lat="45.93768" lon="3.01116">
        <ele>670.2</ele>
        <time>2019-12-25T13:51:27.000Z</time>
      </trkpt>
      <trkpt lat="45.93778" lon="3.01104">
        <ele>669.6</ele>
        <time>2019-12-25T13:51:28.000Z</time>
      </trkpt>
      <trkpt lat="45.93789" lon="3.01094">
        <ele>669.3</ele>
        <time>2019-12-25T13:51:29.000Z</time>
      </trkpt>
      <trkpt lat="45.93815" lon="3.01084">
        <ele>669.1</ele>
        <time>2019-12-25T13:51:31.000Z</time>
      </trkpt>
      <trkpt lat="45.93842" lon="3.01078">
        <ele>669.5</ele>
        <time>2019-12-25T13:51:33.000Z</time>
      </trkpt>
      <trkpt lat="45.93855" lon="3.01074">
        <ele>669.8</ele>
        <time>2019-12-25T13:51:34.000Z</time>
      </trkpt>
      <trkpt lat="45.9388" lon="3.01067">
        <ele>670.3</ele>
        <time>2019-12-25T13:51:36.000Z</time>
      </trkpt>
      <trkpt lat="45.93902" lon="3.01061">
        <ele>670.8</ele>
        <time>2019-12-25T13:51:38.000Z</time>
      </trkpt>
      <trkpt lat="45.93913" lon="3.01056">
        <ele>671</ele>
        <time>2019-12-25T13:51:39.000Z</time>
      </trkpt>
      <trkpt lat="45.93932" lon="3.01039">
        <ele>670</ele>
        <time>2019-12-25T13:51:41.000Z</time>
      </trkpt>
      <trkpt lat="45.93939" lon="3.01028">
        <ele>669.5</ele>
        <time>2019-12-25T13:51:42.000Z</time>
      </trkpt>
      <trkpt lat="45.93951" lon="3.01008">
        <ele>669.3</ele>
        <time>2019-12-25T13:51:44.000Z</time>
      </trkpt>
      <trkpt lat="45.93962" lon="3.00989">
        <ele>670</ele>
        <time>2019-12-25T13:51:46.000Z</time>
      </trkpt>
      <trkpt lat="45.93967" lon="3.00982">
        <ele>670.6</ele>
        <time>2019-12-25T13:51:47.000Z</time>
      </trkpt>
      <trkpt lat="45.93977" lon="3.00967">
        <ele>672.1</ele>
        <time>2019-12-25T13:51:49.000Z</time>
      </trkpt>
      <trkpt lat="45.93981" lon="3.0096">
        <ele>673</ele>
        <time>2019-12-25T13:51:50.000Z</time>
      </trkpt>
      <trkpt lat="45.9399" lon="3.00948">
        <ele>674.5</ele>
        <time>2019-12-25T13:51:52.000Z</time>
      </trkpt>
      <trkpt lat="45.93998" lon="3.00936">
        <ele>676.1</ele>
        <time>2019-12-25T13:51:54.000Z</time>
      </trkpt>
      <trkpt lat="45.94002" lon="3.00929">
        <ele>676.8</ele>
        <time>2019-12-25T13:51:55.000Z</time>
      </trkpt>
      <trkpt lat="45.9401" lon="3.00917">
        <ele>677.8</ele>
        <time>2019-12-25T13:51:57.000Z</time>
      </trkpt>
      <trkpt lat="45.94018" lon="3.00907">
        <ele>678.9</ele>
        <time>2019-12-25T13:51:59.000Z</time>
      </trkpt>
      <trkpt lat="45.94021" lon="3.00901">
        <ele>679.3</ele>
        <time>2019-12-25T13:52:00.000Z</time>
      </trkpt>
      <trkpt lat="45.94025" lon="3.00896">
        <ele>679.6</ele>
        <time>2019-12-25T13:52:01.000Z</time>
      </trkpt>
      <trkpt lat="45.94029" lon="3.00889">
        <ele>679.8</ele>
        <time>2019-12-25T13:52:02.000Z</time>
      </trkpt>
      <trkpt lat="45.94037" lon="3.00879">
        <ele>680.3</ele>
        <time>2019-12-25T13:52:04.000Z</time>
      </trkpt>
      <trkpt lat="45.94046" lon="3.00868">
        <ele>680.2</ele>
        <time>2019-12-25T13:52:06.000Z</time>
      </trkpt>
      <trkpt lat="45.94051" lon="3.00864">
        <ele>680</ele>
        <time>2019-12-25T13:52:07.000Z</time>
      </trkpt>
      <trkpt lat="45.94061" lon="3.00859">
        <ele>679.7</ele>
        <time>2019-12-25T13:52:09.000Z</time>
      </trkpt>
      <trkpt lat="45.94066" lon="3.00856">
        <ele>679.5</ele>
        <time>2019-12-25T13:52:10.000Z</time>
      </trkpt>
      <trkpt lat="45.94072" lon="3.00855">
        <ele>679.2</ele>
        <time>2019-12-25T13:52:11.000Z</time>
      </trkpt>
      <trkpt lat="45.94082" lon="3.00854">
        <ele>678.7</ele>
        <time>2019-12-25T13:52:13.000Z</time>
      </trkpt>
      <trkpt lat="45.94094" lon="3.00853">
        <ele>678.2</ele>
        <time>2019-12-25T13:52:15.000Z</time>
      </trkpt>
      <trkpt lat="45.94105" lon="3.00852">
        <ele>677.8</ele>
        <time>2019-12-25T13:52:17.000Z</time>
      </trkpt>
      <trkpt lat="45.94116" lon="3.00851">
        <ele>677.7</ele>
        <time>2019-12-25T13:52:19.000Z</time>
      </trkpt>
      <trkpt lat="45.94128" lon="3.0085">
        <ele>678.1</ele>
        <time>2019-12-25T13:52:21.000Z</time>
      </trkpt>
      <trkpt lat="45.94139" lon="3.00849">
        <ele>678.4</ele>
        <time>2019-12-25T13:52:23.000Z</time>
      </trkpt>
      <trkpt lat="45.9415" lon="3.00848">
        <ele>678.8</ele>
        <time>2019-12-25T13:52:25.000Z</time>
      </trkpt>
      <trkpt lat="45.94162" lon="3.00848">
        <ele>679.1</ele>
        <time>2019-12-25T13:52:27.000Z</time>
      </trkpt>
      <trkpt lat="45.94173" lon="3.00849">
        <ele>679.5</ele>
        <time>2019-12-25T13:52:29.000Z</time>
      </trkpt>
      <trkpt lat="45.94179" lon="3.00851">
        <ele>679.7</ele>
        <time>2019-12-25T13:52:30.000Z</time>
      </trkpt>
      <trkpt lat="45.94189" lon="3.00854">
        <ele>680.1</ele>
        <time>2019-12-25T13:52:32.000Z</time>
      </trkpt>
      <trkpt lat="45.94195" lon="3.00857">
        <ele>680.2</ele>
        <time>2019-12-25T13:52:33.000Z</time>
      </trkpt>
      <trkpt lat="45.942" lon="3.00861">
        <ele>680.4</ele>
        <time>2019-12-25T13:52:34.000Z</time>
      </trkpt>
      <trkpt lat="45.94204" lon="3.00865">
        <ele>680.6</ele>
        <time>2019-12-25T13:52:35.000Z</time>
      </trkpt>
      <trkpt lat="45.94213" lon="3.00874">
        <ele>681.2</ele>
        <time>2019-12-25T13:52:37.000Z</time>
      </trkpt>
      <trkpt lat="45.94217" lon="3.00879">
        <ele>681.4</ele>
        <time>2019-12-25T13:52:38.000Z</time>
      </trkpt>
      <trkpt lat="45.94225" lon="3.0089">
        <ele>681.9</ele>
        <time>2019-12-25T13:52:40.000Z</time>
      </trkpt>
      <trkpt lat="45.94228" lon="3.00896">
        <ele>682.1</ele>
        <time>2019-12-25T13:52:41.000Z</time>
      </trkpt>
      <trkpt lat="45.94232" lon="3.00902">
        <ele>682.3</ele>
        <time>2019-12-25T13:52:42.000Z</time>
      </trkpt>
      <trkpt lat="45.94238" lon="3.00913">
        <ele>682.7</ele>
        <time>2019-12-25T13:52:44.000Z</time>
      </trkpt>
      <trkpt lat="45.94245" lon="3.00924">
        <ele>683.3</ele>
        <time>2019-12-25T13:52:46.000Z</time>
      </trkpt>
      <trkpt lat="45.94252" lon="3.00935">
        <ele>684</ele>
        <time>2019-12-25T13:52:48.000Z</time>
      </trkpt>
      <trkpt lat="45.94256" lon="3.00942">
        <ele>684.4</ele>
        <time>2019-12-25T13:52:49.000Z</time>
      </trkpt>
      <trkpt lat="45.94264" lon="3.00953">
        <ele>685.1</ele>
        <time>2019-12-25T13:52:51.000Z</time>
      </trkpt>
      <trkpt lat="45.94267" lon="3.00959">
        <ele>685.4</ele>
        <time>2019-12-25T13:52:52.000Z</time>
      </trkpt>
      <trkpt lat="45.94274" lon="3.00971">
        <ele>686</ele>
        <time>2019-12-25T13:52:54.000Z</time>
      </trkpt>
      <trkpt lat="45.94282" lon="3.00982">
        <ele>686.7</ele>
        <time>2019-12-25T13:52:56.000Z</time>
      </trkpt>
      <trkpt lat="45.94285" lon="3.00988">
        <ele>687</ele>
        <time>2019-12-25T13:52:57.000Z</time>
      </trkpt>
      <trkpt lat="45.94293" lon="3.00999">
        <ele>687.7</ele>
        <time>2019-12-25T13:52:59.000Z</time>
      </trkpt>
      <trkpt lat="45.94297" lon="3.01004">
        <ele>687.9</ele>
        <time>2019-12-25T13:53:00.000Z</time>
      </trkpt>
      <trkpt lat="45.94305" lon="3.01014">
        <ele>688.3</ele>
        <time>2019-12-25T13:53:02.000Z</time>
      </trkpt>
      <trkpt lat="45.94309" lon="3.01019">
        <ele>688.4</ele>
        <time>2019-12-25T13:53:03.000Z</time>
      </trkpt>
      <trkpt lat="45.94317" lon="3.01029">
        <ele>688.5</ele>
        <time>2019-12-25T13:53:05.000Z</time>
      </trkpt>
      <trkpt lat="45.94327" lon="3.01036">
        <ele>688.6</ele>
        <time>2019-12-25T13:53:07.000Z</time>
      </trkpt>
      <trkpt lat="45.94336" lon="3.01045">
        <ele>688.8</ele>
        <time>2019-12-25T13:53:09.000Z</time>
      </trkpt>
      <trkpt lat="45.9434" lon="3.0105">
        <ele>688.9</ele>
        <time>2019-12-25T13:53:10.000Z</time>
      </trkpt>
      <trkpt lat="45.9435" lon="3.01059">
        <ele>689.4</ele>
        <time>2019-12-25T13:53:12.000Z</time>
      </trkpt>
      <trkpt lat="45.94354" lon="3.01063">
        <ele>689.8</ele>
        <time>2019-12-25T13:53:13.000Z</time>
      </trkpt>
      <trkpt lat="45.94363" lon="3.01073">
        <ele>690.5</ele>
        <time>2019-12-25T13:53:15.000Z</time>
      </trkpt>
      <trkpt lat="45.94372" lon="3.01082">
        <ele>691.3</ele>
        <time>2019-12-25T13:53:17.000Z</time>
      </trkpt>
      <trkpt lat="45.94381" lon="3.01091">
        <ele>691.9</ele>
        <time>2019-12-25T13:53:19.000Z</time>
      </trkpt>
      <trkpt lat="45.94386" lon="3.01096">
        <ele>692.2</ele>
        <time>2019-12-25T13:53:20.000Z</time>
      </trkpt>
      <trkpt lat="45.94391" lon="3.011">
        <ele>692.4</ele>
        <time>2019-12-25T13:53:21.000Z</time>
      </trkpt>
      <trkpt lat="45.94395" lon="3.01104">
        <ele>692.6</ele>
        <time>2019-12-25T13:53:22.000Z</time>
      </trkpt>
      <trkpt lat="45.94404" lon="3.01113">
        <ele>693.1</ele>
        <time>2019-12-25T13:53:24.000Z</time>
      </trkpt>
      <trkpt lat="45.94409" lon="3.01118">
        <ele>693.3</ele>
        <time>2019-12-25T13:53:25.000Z</time>
      </trkpt>
      <trkpt lat="45.94419" lon="3.01126">
        <ele>693.9</ele>
        <time>2019-12-25T13:53:27.000Z</time>
      </trkpt>
      <trkpt lat="45.94423" lon="3.01131">
        <ele>694.1</ele>
        <time>2019-12-25T13:53:28.000Z</time>
      </trkpt>
      <trkpt lat="45.94432" lon="3.01139">
        <ele>694.7</ele>
        <time>2019-12-25T13:53:30.000Z</time>
      </trkpt>
      <trkpt lat="45.94437" lon="3.01144">
        <ele>694.9</ele>
        <time>2019-12-25T13:53:31.000Z</time>
      </trkpt>
      <trkpt lat="45.94441" lon="3.01148">
        <ele>695.1</ele>
        <time>2019-12-25T13:53:32.000Z</time>
      </trkpt>
      <trkpt lat="45.9445" lon="3.01157">
        <ele>695.5</ele>
        <time>2019-12-25T13:53:34.000Z</time>
      </trkpt>
      <trkpt lat="45.94455" lon="3.01161">
        <ele>695.8</ele>
        <time>2019-12-25T13:53:35.000Z</time>
      </trkpt>
      <trkpt lat="45.94459" lon="3.01165">
        <ele>696</ele>
        <time>2019-12-25T13:53:36.000Z</time>
      </trkpt>
      <trkpt lat="45.94464" lon="3.01169">
        <ele>696.1</ele>
        <time>2019-12-25T13:53:37.000Z</time>
      </trkpt>
      <trkpt lat="45.94473" lon="3.01177">
        <ele>696.5</ele>
        <time>2019-12-25T13:53:39.000Z</time>
      </trkpt>
      <trkpt lat="45.94477" lon="3.01182">
        <ele>696.6</ele>
        <time>2019-12-25T13:53:40.000Z</time>
      </trkpt>
      <trkpt lat="45.94482" lon="3.01187">
        <ele>696.8</ele>
        <time>2019-12-25T13:53:41.000Z</time>
      </trkpt>
      <trkpt lat="45.94486" lon="3.01192">
        <ele>697.1</ele>
        <time>2019-12-25T13:53:42.000Z</time>
      </trkpt>
      <trkpt lat="45.9449" lon="3.01197">
        <ele>697.4</ele>
        <time>2019-12-25T13:53:43.000Z</time>
      </trkpt>
      <trkpt lat="45.94499" lon="3.01208">
        <ele>698</ele>
        <time>2019-12-25T13:53:45.000Z</time>
      </trkpt>
      <trkpt lat="45.94508" lon="3.0122">
        <ele>698.4</ele>
        <time>2019-12-25T13:53:47.000Z</time>
      </trkpt>
      <trkpt lat="45.94512" lon="3.01226">
        <ele>698.6</ele>
        <time>2019-12-25T13:53:48.000Z</time>
      </trkpt>
      <trkpt lat="45.94516" lon="3.01232">
        <ele>698.7</ele>
        <time>2019-12-25T13:53:49.000Z</time>
      </trkpt>
      <trkpt lat="45.94524" lon="3.01245">
        <ele>698.9</ele>
        <time>2019-12-25T13:53:51.000Z</time>
      </trkpt>
      <trkpt lat="45.94528" lon="3.01252">
        <ele>699</ele>
        <time>2019-12-25T13:53:52.000Z</time>
      </trkpt>
      <trkpt lat="45.94537" lon="3.01264">
        <ele>699.3</ele>
        <time>2019-12-25T13:53:54.000Z</time>
      </trkpt>
      <trkpt lat="45.94541" lon="3.01271">
        <ele>699.4</ele>
        <time>2019-12-25T13:53:55.000Z</time>
      </trkpt>
      <trkpt lat="45.94549" lon="3.01284">
        <ele>699.6</ele>
        <time>2019-12-25T13:53:57.000Z</time>
      </trkpt>
      <trkpt lat="45.94558" lon="3.01298">
        <ele>699.8</ele>
        <time>2019-12-25T13:53:59.000Z</time>
      </trkpt>
      <trkpt lat="45.94566" lon="3.0131">
        <ele>699.8</ele>
        <time>2019-12-25T13:54:01.000Z</time>
      </trkpt>
      <trkpt lat="45.94575" lon="3.01324">
        <ele>699.8</ele>
        <time>2019-12-25T13:54:03.000Z</time>
      </trkpt>
      <trkpt lat="45.94583" lon="3.01337">
        <ele>699.8</ele>
        <time>2019-12-25T13:54:05.000Z</time>
      </trkpt>
      <trkpt lat="45.94592" lon="3.01351">
        <ele>700</ele>
        <time>2019-12-25T13:54:07.000Z</time>
      </trkpt>
      <trkpt lat="45.94599" lon="3.01364">
        <ele>700.2</ele>
        <time>2019-12-25T13:54:09.000Z</time>
      </trkpt>
      <trkpt lat="45.94608" lon="3.01378">
        <ele>700.5</ele>
        <time>2019-12-25T13:54:11.000Z</time>
      </trkpt>
      <trkpt lat="45.94617" lon="3.01391">
        <ele>700.7</ele>
        <time>2019-12-25T13:54:13.000Z</time>
      </trkpt>
      <trkpt lat="45.94621" lon="3.01398">
        <ele>700.8</ele>
        <time>2019-12-25T13:54:14.000Z</time>
      </trkpt>
      <trkpt lat="45.9463" lon="3.01412">
        <ele>700.8</ele>
        <time>2019-12-25T13:54:16.000Z</time>
      </trkpt>
      <trkpt lat="45.94638" lon="3.01425">
        <ele>700.8</ele>
        <time>2019-12-25T13:54:18.000Z</time>
      </trkpt>
      <trkpt lat="45.94643" lon="3.01432">
        <ele>700.8</ele>
        <time>2019-12-25T13:54:19.000Z</time>
      </trkpt>
      <trkpt lat="45.94651" lon="3.01446">
        <ele>700.9</ele>
        <time>2019-12-25T13:54:21.000Z</time>
      </trkpt>
      <trkpt lat="45.94655" lon="3.01453">
        <ele>700.9</ele>
        <time>2019-12-25T13:54:22.000Z</time>
      </trkpt>
      <trkpt lat="45.94665" lon="3.01468">
        <ele>700.9</ele>
        <time>2019-12-25T13:54:24.000Z</time>
      </trkpt>
      <trkpt lat="45.94674" lon="3.01482">
        <ele>701.1</ele>
        <time>2019-12-25T13:54:26.000Z</time>
      </trkpt>
      <trkpt lat="45.94684" lon="3.01497">
        <ele>701.8</ele>
        <time>2019-12-25T13:54:28.000Z</time>
      </trkpt>
      <trkpt lat="45.94688" lon="3.01505">
        <ele>702.2</ele>
        <time>2019-12-25T13:54:29.000Z</time>
      </trkpt>
      <trkpt lat="45.94699" lon="3.01519">
        <ele>702.8</ele>
        <time>2019-12-25T13:54:31.000Z</time>
      </trkpt>
      <trkpt lat="45.94709" lon="3.01532">
        <ele>703</ele>
        <time>2019-12-25T13:54:33.000Z</time>
      </trkpt>
      <trkpt lat="45.94715" lon="3.01538">
        <ele>703.2</ele>
        <time>2019-12-25T13:54:34.000Z</time>
      </trkpt>
      <trkpt lat="45.94728" lon="3.01547">
        <ele>703.7</ele>
        <time>2019-12-25T13:54:36.000Z</time>
      </trkpt>
      <trkpt lat="45.94741" lon="3.01553">
        <ele>703.9</ele>
        <time>2019-12-25T13:54:38.000Z</time>
      </trkpt>
      <trkpt lat="45.94748" lon="3.01555">
        <ele>703.9</ele>
        <time>2019-12-25T13:54:39.000Z</time>
      </trkpt>
      <trkpt lat="45.94761" lon="3.01558">
        <ele>703.9</ele>
        <time>2019-12-25T13:54:41.000Z</time>
      </trkpt>
      <trkpt lat="45.94768" lon="3.0156">
        <ele>703.9</ele>
        <time>2019-12-25T13:54:42.000Z</time>
      </trkpt>
      <trkpt lat="45.94782" lon="3.01562">
        <ele>703.9</ele>
        <time>2019-12-25T13:54:44.000Z</time>
      </trkpt>
      <trkpt lat="45.94797" lon="3.01564">
        <ele>703.9</ele>
        <time>2019-12-25T13:54:46.000Z</time>
      </trkpt>
      <trkpt lat="45.94812" lon="3.01565">
        <ele>703.7</ele>
        <time>2019-12-25T13:54:48.000Z</time>
      </trkpt>
      <trkpt lat="45.9482" lon="3.01566">
        <ele>703.6</ele>
        <time>2019-12-25T13:54:49.000Z</time>
      </trkpt>
      <trkpt lat="45.94835" lon="3.01567">
        <ele>703</ele>
        <time>2019-12-25T13:54:51.000Z</time>
      </trkpt>
      <trkpt lat="45.94851" lon="3.01569">
        <ele>702.4</ele>
        <time>2019-12-25T13:54:53.000Z</time>
      </trkpt>
      <trkpt lat="45.94859" lon="3.01571">
        <ele>702.1</ele>
        <time>2019-12-25T13:54:54.000Z</time>
      </trkpt>
      <trkpt lat="45.94875" lon="3.01575">
        <ele>701.3</ele>
        <time>2019-12-25T13:54:56.000Z</time>
      </trkpt>
      <trkpt lat="45.94891" lon="3.01581">
        <ele>700.7</ele>
        <time>2019-12-25T13:54:58.000Z</time>
      </trkpt>
      <trkpt lat="45.94907" lon="3.01589">
        <ele>700</ele>
        <time>2019-12-25T13:55:00.000Z</time>
      </trkpt>
      <trkpt lat="45.94916" lon="3.01593">
        <ele>699.6</ele>
        <time>2019-12-25T13:55:01.000Z</time>
      </trkpt>
      <trkpt lat="45.94935" lon="3.01603">
        <ele>698.5</ele>
        <time>2019-12-25T13:55:03.000Z</time>
      </trkpt>
      <trkpt lat="45.94944" lon="3.01608">
        <ele>697.8</ele>
        <time>2019-12-25T13:55:04.000Z</time>
      </trkpt>
      <trkpt lat="45.94964" lon="3.01619">
        <ele>696.4</ele>
        <time>2019-12-25T13:55:06.000Z</time>
      </trkpt>
      <trkpt lat="45.94985" lon="3.01631">
        <ele>695.1</ele>
        <time>2019-12-25T13:55:08.000Z</time>
      </trkpt>
      <trkpt lat="45.95006" lon="3.01643">
        <ele>694.3</ele>
        <time>2019-12-25T13:55:10.000Z</time>
      </trkpt>
      <trkpt lat="45.95027" lon="3.01655">
        <ele>693.7</ele>
        <time>2019-12-25T13:55:12.000Z</time>
      </trkpt>
      <trkpt lat="45.95038" lon="3.01661">
        <ele>693.5</ele>
        <time>2019-12-25T13:55:13.000Z</time>
      </trkpt>
      <trkpt lat="45.95048" lon="3.01667">
        <ele>693.2</ele>
        <time>2019-12-25T13:55:14.000Z</time>
      </trkpt>
      <trkpt lat="45.95058" lon="3.01673">
        <ele>692.8</ele>
        <time>2019-12-25T13:55:15.000Z</time>
      </trkpt>
      <trkpt lat="45.95079" lon="3.01685">
        <ele>692</ele>
        <time>2019-12-25T13:55:17.000Z</time>
      </trkpt>
      <trkpt lat="45.9509" lon="3.0169">
        <ele>691.6</ele>
        <time>2019-12-25T13:55:18.000Z</time>
      </trkpt>
      <trkpt lat="45.95112" lon="3.01695">
        <ele>690.6</ele>
        <time>2019-12-25T13:55:20.000Z</time>
      </trkpt>
      <trkpt lat="45.95124" lon="3.01696">
        <ele>689.8</ele>
        <time>2019-12-25T13:55:21.000Z</time>
      </trkpt>
      <trkpt lat="45.95148" lon="3.01694">
        <ele>688.1</ele>
        <time>2019-12-25T13:55:23.000Z</time>
      </trkpt>
      <trkpt lat="45.95173" lon="3.01691">
        <ele>686.9</ele>
        <time>2019-12-25T13:55:25.000Z</time>
      </trkpt>
      <trkpt lat="45.95198" lon="3.01688">
        <ele>685.3</ele>
        <time>2019-12-25T13:55:27.000Z</time>
      </trkpt>
      <trkpt lat="45.95224" lon="3.01686">
        <ele>683.6</ele>
        <time>2019-12-25T13:55:29.000Z</time>
      </trkpt>
      <trkpt lat="45.95249" lon="3.01689">
        <ele>681.9</ele>
        <time>2019-12-25T13:55:31.000Z</time>
      </trkpt>
      <trkpt lat="45.95274" lon="3.01697">
        <ele>680.3</ele>
        <time>2019-12-25T13:55:33.000Z</time>
      </trkpt>
      <trkpt lat="45.95287" lon="3.01703">
        <ele>679.6</ele>
        <time>2019-12-25T13:55:34.000Z</time>
      </trkpt>
      <trkpt lat="45.95299" lon="3.0171">
        <ele>678.7</ele>
        <time>2019-12-25T13:55:35.000Z</time>
      </trkpt>
      <trkpt lat="45.95323" lon="3.01723">
        <ele>676.6</ele>
        <time>2019-12-25T13:55:37.000Z</time>
      </trkpt>
      <trkpt lat="45.95335" lon="3.01731">
        <ele>675.3</ele>
        <time>2019-12-25T13:55:38.000Z</time>
      </trkpt>
      <trkpt lat="45.95358" lon="3.01755">
        <ele>671.9</ele>
        <time>2019-12-25T13:55:40.000Z</time>
      </trkpt>
      <trkpt lat="45.95379" lon="3.01784">
        <ele>669.4</ele>
        <time>2019-12-25T13:55:42.000Z</time>
      </trkpt>
      <trkpt lat="45.95389" lon="3.018">
        <ele>668.7</ele>
        <time>2019-12-25T13:55:43.000Z</time>
      </trkpt>
      <trkpt lat="45.95408" lon="3.01832">
        <ele>668.1</ele>
        <time>2019-12-25T13:55:45.000Z</time>
      </trkpt>
      <trkpt lat="45.95417" lon="3.01847">
        <ele>668.4</ele>
        <time>2019-12-25T13:55:46.000Z</time>
      </trkpt>
      <trkpt lat="45.95426" lon="3.01862">
        <ele>668.7</ele>
        <time>2019-12-25T13:55:47.000Z</time>
      </trkpt>
      <trkpt lat="45.95445" lon="3.01888">
        <ele>669.6</ele>
        <time>2019-12-25T13:55:49.000Z</time>
      </trkpt>
      <trkpt lat="45.95465" lon="3.01908">
        <ele>670.7</ele>
        <time>2019-12-25T13:55:51.000Z</time>
      </trkpt>
      <trkpt lat="45.95474" lon="3.01916">
        <ele>671.2</ele>
        <time>2019-12-25T13:55:52.000Z</time>
      </trkpt>
      <trkpt lat="45.95484" lon="3.01923">
        <ele>671.8</ele>
        <time>2019-12-25T13:55:53.000Z</time>
      </trkpt>
      <trkpt lat="45.95501" lon="3.01933">
        <ele>673.3</ele>
        <time>2019-12-25T13:55:55.000Z</time>
      </trkpt>
      <trkpt lat="45.95517" lon="3.01942">
        <ele>674.5</ele>
        <time>2019-12-25T13:55:57.000Z</time>
      </trkpt>
      <trkpt lat="45.9553" lon="3.01951">
        <ele>675.4</ele>
        <time>2019-12-25T13:55:59.000Z</time>
      </trkpt>
      <trkpt lat="45.95541" lon="3.01963">
        <ele>675.9</ele>
        <time>2019-12-25T13:56:01.000Z</time>
      </trkpt>
      <trkpt lat="45.95545" lon="3.01971">
        <ele>676.2</ele>
        <time>2019-12-25T13:56:02.000Z</time>
      </trkpt>
      <trkpt lat="45.95553" lon="3.01986">
        <ele>676.6</ele>
        <time>2019-12-25T13:56:04.000Z</time>
      </trkpt>
      <trkpt lat="45.95558" lon="3.02004">
        <ele>676.9</ele>
        <time>2019-12-25T13:56:06.000Z</time>
      </trkpt>
      <trkpt lat="45.95561" lon="3.02013">
        <ele>677</ele>
        <time>2019-12-25T13:56:07.000Z</time>
      </trkpt>
      <trkpt lat="45.95563" lon="3.02022">
        <ele>677.2</ele>
        <time>2019-12-25T13:56:08.000Z</time>
      </trkpt>
      <trkpt lat="45.95567" lon="3.0204">
        <ele>677.5</ele>
        <time>2019-12-25T13:56:10.000Z</time>
      </trkpt>
      <trkpt lat="45.95573" lon="3.02058">
        <ele>677.9</ele>
        <time>2019-12-25T13:56:12.000Z</time>
      </trkpt>
      <trkpt lat="45.95579" lon="3.02076">
        <ele>678.2</ele>
        <time>2019-12-25T13:56:14.000Z</time>
      </trkpt>
      <trkpt lat="45.95583" lon="3.02085">
        <ele>678.4</ele>
        <time>2019-12-25T13:56:15.000Z</time>
      </trkpt>
      <trkpt lat="45.95591" lon="3.02103">
        <ele>678.7</ele>
        <time>2019-12-25T13:56:17.000Z</time>
      </trkpt>
      <trkpt lat="45.956" lon="3.0212">
        <ele>679</ele>
        <time>2019-12-25T13:56:19.000Z</time>
      </trkpt>
      <trkpt lat="45.95609" lon="3.02137">
        <ele>679.3</ele>
        <time>2019-12-25T13:56:21.000Z</time>
      </trkpt>
      <trkpt lat="45.95614" lon="3.02144">
        <ele>679.4</ele>
        <time>2019-12-25T13:56:22.000Z</time>
      </trkpt>
      <trkpt lat="45.95624" lon="3.0216">
        <ele>679.7</ele>
        <time>2019-12-25T13:56:24.000Z</time>
      </trkpt>
      <trkpt lat="45.95634" lon="3.02177">
        <ele>679.8</ele>
        <time>2019-12-25T13:56:26.000Z</time>
      </trkpt>
      <trkpt lat="45.95638" lon="3.02185">
        <ele>679.9</ele>
        <time>2019-12-25T13:56:27.000Z</time>
      </trkpt>
      <trkpt lat="45.95643" lon="3.02194">
        <ele>680</ele>
        <time>2019-12-25T13:56:28.000Z</time>
      </trkpt>
      <trkpt lat="45.95652" lon="3.02212">
        <ele>679.9</ele>
        <time>2019-12-25T13:56:30.000Z</time>
      </trkpt>
      <trkpt lat="45.95662" lon="3.0223">
        <ele>679.8</ele>
        <time>2019-12-25T13:56:32.000Z</time>
      </trkpt>
      <trkpt lat="45.95667" lon="3.02239">
        <ele>679.7</ele>
        <time>2019-12-25T13:56:33.000Z</time>
      </trkpt>
      <trkpt lat="45.95677" lon="3.02257">
        <ele>679.4</ele>
        <time>2019-12-25T13:56:35.000Z</time>
      </trkpt>
      <trkpt lat="45.95687" lon="3.02276">
        <ele>679</ele>
        <time>2019-12-25T13:56:37.000Z</time>
      </trkpt>
      <trkpt lat="45.95698" lon="3.02295">
        <ele>678.5</ele>
        <time>2019-12-25T13:56:39.000Z</time>
      </trkpt>
      <trkpt lat="45.95703" lon="3.02305">
        <ele>678.3</ele>
        <time>2019-12-25T13:56:40.000Z</time>
      </trkpt>
      <trkpt lat="45.95715" lon="3.02325">
        <ele>677.7</ele>
        <time>2019-12-25T13:56:42.000Z</time>
      </trkpt>
      <trkpt lat="45.95727" lon="3.02346">
        <ele>677.1</ele>
        <time>2019-12-25T13:56:44.000Z</time>
      </trkpt>
      <trkpt lat="45.95733" lon="3.02357">
        <ele>676.8</ele>
        <time>2019-12-25T13:56:45.000Z</time>
      </trkpt>
      <trkpt lat="45.95739" lon="3.02367">
        <ele>676.5</ele>
        <time>2019-12-25T13:56:46.000Z</time>
      </trkpt>
      <trkpt lat="45.95751" lon="3.02388">
        <ele>675.9</ele>
        <time>2019-12-25T13:56:48.000Z</time>
      </trkpt>
      <trkpt lat="45.95755" lon="3.024">
        <ele>675.4</ele>
        <time>2019-12-25T13:56:49.000Z</time>
      </trkpt>
      <trkpt lat="45.95757" lon="3.02413">
        <ele>675.1</ele>
        <time>2019-12-25T13:56:50.000Z</time>
      </trkpt>
      <trkpt lat="45.95752" lon="3.02441">
        <ele>674.4</ele>
        <time>2019-12-25T13:56:52.000Z</time>
      </trkpt>
      <trkpt lat="45.95747" lon="3.02454">
        <ele>674.1</ele>
        <time>2019-12-25T13:56:53.000Z</time>
      </trkpt>
      <trkpt lat="45.9574" lon="3.02481">
        <ele>673.6</ele>
        <time>2019-12-25T13:56:55.000Z</time>
      </trkpt>
      <trkpt lat="45.95736" lon="3.0251">
        <ele>673.4</ele>
        <time>2019-12-25T13:56:57.000Z</time>
      </trkpt>
      <trkpt lat="45.95734" lon="3.02539">
        <ele>673</ele>
        <time>2019-12-25T13:56:59.000Z</time>
      </trkpt>
      <trkpt lat="45.95733" lon="3.02554">
        <ele>672.8</ele>
        <time>2019-12-25T13:57:00.000Z</time>
      </trkpt>
      <trkpt lat="45.95731" lon="3.02585">
        <ele>672.5</ele>
        <time>2019-12-25T13:57:02.000Z</time>
      </trkpt>
      <trkpt lat="45.9573" lon="3.02601">
        <ele>672.3</ele>
        <time>2019-12-25T13:57:03.000Z</time>
      </trkpt>
      <trkpt lat="45.95728" lon="3.02633">
        <ele>671.7</ele>
        <time>2019-12-25T13:57:05.000Z</time>
      </trkpt>
      <trkpt lat="45.95726" lon="3.02664">
        <ele>671</ele>
        <time>2019-12-25T13:57:07.000Z</time>
      </trkpt>
      <trkpt lat="45.95725" lon="3.02696">
        <ele>670.4</ele>
        <time>2019-12-25T13:57:09.000Z</time>
      </trkpt>
      <trkpt lat="45.95722" lon="3.02729">
        <ele>669.8</ele>
        <time>2019-12-25T13:57:11.000Z</time>
      </trkpt>
      <trkpt lat="45.95719" lon="3.02762">
        <ele>669.2</ele>
        <time>2019-12-25T13:57:13.000Z</time>
      </trkpt>
      <trkpt lat="45.95715" lon="3.02795">
        <ele>668.3</ele>
        <time>2019-12-25T13:57:15.000Z</time>
      </trkpt>
      <trkpt lat="45.95712" lon="3.02827">
        <ele>667.8</ele>
        <time>2019-12-25T13:57:17.000Z</time>
      </trkpt>
      <trkpt lat="45.95708" lon="3.0286">
        <ele>667.6</ele>
        <time>2019-12-25T13:57:19.000Z</time>
      </trkpt>
      <trkpt lat="45.95704" lon="3.02893">
        <ele>667.3</ele>
        <time>2019-12-25T13:57:21.000Z</time>
      </trkpt>
      <trkpt lat="45.95702" lon="3.0291">
        <ele>667</ele>
        <time>2019-12-25T13:57:22.000Z</time>
      </trkpt>
      <trkpt lat="45.95699" lon="3.02927">
        <ele>666.7</ele>
        <time>2019-12-25T13:57:23.000Z</time>
      </trkpt>
      <trkpt lat="45.95696" lon="3.02963">
        <ele>665.8</ele>
        <time>2019-12-25T13:57:25.000Z</time>
      </trkpt>
      <trkpt lat="45.95692" lon="3.03">
        <ele>664.5</ele>
        <time>2019-12-25T13:57:27.000Z</time>
      </trkpt>
      <trkpt lat="45.9569" lon="3.03019">
        <ele>663.7</ele>
        <time>2019-12-25T13:57:28.000Z</time>
      </trkpt>
      <trkpt lat="45.95688" lon="3.03039">
        <ele>662.9</ele>
        <time>2019-12-25T13:57:29.000Z</time>
      </trkpt>
      <trkpt lat="45.95684" lon="3.03078">
        <ele>661.3</ele>
        <time>2019-12-25T13:57:31.000Z</time>
      </trkpt>
      <trkpt lat="45.95679" lon="3.03119">
        <ele>659.6</ele>
        <time>2019-12-25T13:57:33.000Z</time>
      </trkpt>
      <trkpt lat="45.95674" lon="3.03161">
        <ele>657.7</ele>
        <time>2019-12-25T13:57:35.000Z</time>
      </trkpt>
      <trkpt lat="45.95669" lon="3.03202">
        <ele>655.5</ele>
        <time>2019-12-25T13:57:37.000Z</time>
      </trkpt>
      <trkpt lat="45.95663" lon="3.03243">
        <ele>653.3</ele>
        <time>2019-12-25T13:57:39.000Z</time>
      </trkpt>
      <trkpt lat="45.95657" lon="3.03284">
        <ele>651.1</ele>
        <time>2019-12-25T13:57:41.000Z</time>
      </trkpt>
      <trkpt lat="45.95653" lon="3.03305">
        <ele>650</ele>
        <time>2019-12-25T13:57:42.000Z</time>
      </trkpt>
      <trkpt lat="45.95647" lon="3.03344">
        <ele>648.2</ele>
        <time>2019-12-25T13:57:44.000Z</time>
      </trkpt>
      <trkpt lat="45.95644" lon="3.03364">
        <ele>647.3</ele>
        <time>2019-12-25T13:57:45.000Z</time>
      </trkpt>
      <trkpt lat="45.95638" lon="3.03404">
        <ele>645.6</ele>
        <time>2019-12-25T13:57:47.000Z</time>
      </trkpt>
      <trkpt lat="45.95632" lon="3.03443">
        <ele>644</ele>
        <time>2019-12-25T13:57:49.000Z</time>
      </trkpt>
      <trkpt lat="45.95629" lon="3.03463">
        <ele>643.2</ele>
        <time>2019-12-25T13:57:50.000Z</time>
      </trkpt>
      <trkpt lat="45.95626" lon="3.03483">
        <ele>642.5</ele>
        <time>2019-12-25T13:57:51.000Z</time>
      </trkpt>
      <trkpt lat="45.95623" lon="3.03502">
        <ele>641.7</ele>
        <time>2019-12-25T13:57:52.000Z</time>
      </trkpt>
      <trkpt lat="45.9562" lon="3.03522">
        <ele>641</ele>
        <time>2019-12-25T13:57:53.000Z</time>
      </trkpt>
      <trkpt lat="45.95614" lon="3.03562">
        <ele>639.3</ele>
        <time>2019-12-25T13:57:55.000Z</time>
      </trkpt>
      <trkpt lat="45.95611" lon="3.03582">
        <ele>638.4</ele>
        <time>2019-12-25T13:57:56.000Z</time>
      </trkpt>
      <trkpt lat="45.95605" lon="3.03621">
        <ele>637</ele>
        <time>2019-12-25T13:57:58.000Z</time>
      </trkpt>
      <trkpt lat="45.956" lon="3.0366">
        <ele>636.1</ele>
        <time>2019-12-25T13:58:00.000Z</time>
      </trkpt>
      <trkpt lat="45.95594" lon="3.03698">
        <ele>634.7</ele>
        <time>2019-12-25T13:58:02.000Z</time>
      </trkpt>
      <trkpt lat="45.95591" lon="3.03717">
        <ele>633.9</ele>
        <time>2019-12-25T13:58:03.000Z</time>
      </trkpt>
      <trkpt lat="45.95588" lon="3.03736">
        <ele>633.2</ele>
        <time>2019-12-25T13:58:04.000Z</time>
      </trkpt>
      <trkpt lat="45.95582" lon="3.03774">
        <ele>631.4</ele>
        <time>2019-12-25T13:58:06.000Z</time>
      </trkpt>
      <trkpt lat="45.95576" lon="3.03814">
        <ele>629.6</ele>
        <time>2019-12-25T13:58:08.000Z</time>
      </trkpt>
      <trkpt lat="45.95574" lon="3.03834">
        <ele>628.7</ele>
        <time>2019-12-25T13:58:09.000Z</time>
      </trkpt>
      <trkpt lat="45.9557" lon="3.03874">
        <ele>626.5</ele>
        <time>2019-12-25T13:58:11.000Z</time>
      </trkpt>
      <trkpt lat="45.95569" lon="3.03895">
        <ele>625.4</ele>
        <time>2019-12-25T13:58:12.000Z</time>
      </trkpt>
      <trkpt lat="45.95569" lon="3.03915">
        <ele>624.4</ele>
        <time>2019-12-25T13:58:13.000Z</time>
      </trkpt>
      <trkpt lat="45.9557" lon="3.03936">
        <ele>623.3</ele>
        <time>2019-12-25T13:58:14.000Z</time>
      </trkpt>
      <trkpt lat="45.95574" lon="3.03977">
        <ele>621</ele>
        <time>2019-12-25T13:58:16.000Z</time>
      </trkpt>
      <trkpt lat="45.95578" lon="3.04018">
        <ele>619.4</ele>
        <time>2019-12-25T13:58:18.000Z</time>
      </trkpt>
      <trkpt lat="45.95583" lon="3.0406">
        <ele>617.6</ele>
        <time>2019-12-25T13:58:20.000Z</time>
      </trkpt>
      <trkpt lat="45.95588" lon="3.04101">
        <ele>615.6</ele>
        <time>2019-12-25T13:58:22.000Z</time>
      </trkpt>
      <trkpt lat="45.95593" lon="3.04143">
        <ele>613.5</ele>
        <time>2019-12-25T13:58:24.000Z</time>
      </trkpt>
      <trkpt lat="45.95598" lon="3.04185">
        <ele>611.5</ele>
        <time>2019-12-25T13:58:26.000Z</time>
      </trkpt>
      <trkpt lat="45.956" lon="3.04207">
        <ele>610.4</ele>
        <time>2019-12-25T13:58:27.000Z</time>
      </trkpt>
      <trkpt lat="45.95603" lon="3.04228">
        <ele>609.3</ele>
        <time>2019-12-25T13:58:28.000Z</time>
      </trkpt>
      <trkpt lat="45.95606" lon="3.0425">
        <ele>608.1</ele>
        <time>2019-12-25T13:58:29.000Z</time>
      </trkpt>
      <trkpt lat="45.95611" lon="3.04293">
        <ele>606.2</ele>
        <time>2019-12-25T13:58:31.000Z</time>
      </trkpt>
      <trkpt lat="45.95614" lon="3.04314">
        <ele>605.5</ele>
        <time>2019-12-25T13:58:32.000Z</time>
      </trkpt>
      <trkpt lat="45.95618" lon="3.04334">
        <ele>604.9</ele>
        <time>2019-12-25T13:58:33.000Z</time>
      </trkpt>
      <trkpt lat="45.95628" lon="3.04372">
        <ele>603.7</ele>
        <time>2019-12-25T13:58:35.000Z</time>
      </trkpt>
      <trkpt lat="45.95641" lon="3.04408">
        <ele>603</ele>
        <time>2019-12-25T13:58:37.000Z</time>
      </trkpt>
      <trkpt lat="45.95649" lon="3.04424">
        <ele>602.6</ele>
        <time>2019-12-25T13:58:38.000Z</time>
      </trkpt>
      <trkpt lat="45.95669" lon="3.04449">
        <ele>602</ele>
        <time>2019-12-25T13:58:40.000Z</time>
      </trkpt>
      <trkpt lat="45.95691" lon="3.0447">
        <ele>601.4</ele>
        <time>2019-12-25T13:58:42.000Z</time>
      </trkpt>
      <trkpt lat="45.95711" lon="3.04492">
        <ele>600.8</ele>
        <time>2019-12-25T13:58:44.000Z</time>
      </trkpt>
      <trkpt lat="45.95731" lon="3.04516">
        <ele>600.2</ele>
        <time>2019-12-25T13:58:46.000Z</time>
      </trkpt>
      <trkpt lat="45.95748" lon="3.04543">
        <ele>599.2</ele>
        <time>2019-12-25T13:58:48.000Z</time>
      </trkpt>
      <trkpt lat="45.95765" lon="3.04572">
        <ele>598.5</ele>
        <time>2019-12-25T13:58:50.000Z</time>
      </trkpt>
      <trkpt lat="45.95772" lon="3.04587">
        <ele>598</ele>
        <time>2019-12-25T13:58:51.000Z</time>
      </trkpt>
      <trkpt lat="45.95789" lon="3.04618">
        <ele>596.9</ele>
        <time>2019-12-25T13:58:53.000Z</time>
      </trkpt>
      <trkpt lat="45.95805" lon="3.04648">
        <ele>595.9</ele>
        <time>2019-12-25T13:58:55.000Z</time>
      </trkpt>
      <trkpt lat="45.9582" lon="3.04679">
        <ele>595.3</ele>
        <time>2019-12-25T13:58:57.000Z</time>
      </trkpt>
      <trkpt lat="45.95826" lon="3.04695">
        <ele>595.1</ele>
        <time>2019-12-25T13:58:58.000Z</time>
      </trkpt>
      <trkpt lat="45.95836" lon="3.04728">
        <ele>594.9</ele>
        <time>2019-12-25T13:59:00.000Z</time>
      </trkpt>
      <trkpt lat="45.95846" lon="3.04762">
        <ele>594.8</ele>
        <time>2019-12-25T13:59:02.000Z</time>
      </trkpt>
      <trkpt lat="45.95852" lon="3.04797">
        <ele>594.5</ele>
        <time>2019-12-25T13:59:04.000Z</time>
      </trkpt>
      <trkpt lat="45.95856" lon="3.04834">
        <ele>593.5</ele>
        <time>2019-12-25T13:59:06.000Z</time>
      </trkpt>
      <trkpt lat="45.95858" lon="3.04852">
        <ele>592.9</ele>
        <time>2019-12-25T13:59:07.000Z</time>
      </trkpt>
      <trkpt lat="45.95862" lon="3.0489">
        <ele>591.4</ele>
        <time>2019-12-25T13:59:09.000Z</time>
      </trkpt>
      <trkpt lat="45.95865" lon="3.04929">
        <ele>590.1</ele>
        <time>2019-12-25T13:59:11.000Z</time>
      </trkpt>
      <trkpt lat="45.95867" lon="3.04948">
        <ele>589.4</ele>
        <time>2019-12-25T13:59:12.000Z</time>
      </trkpt>
      <trkpt lat="45.95869" lon="3.04989">
        <ele>588</ele>
        <time>2019-12-25T13:59:14.000Z</time>
      </trkpt>
      <trkpt lat="45.9587" lon="3.05009">
        <ele>587.5</ele>
        <time>2019-12-25T13:59:15.000Z</time>
      </trkpt>
      <trkpt lat="45.95871" lon="3.05048">
        <ele>586.5</ele>
        <time>2019-12-25T13:59:17.000Z</time>
      </trkpt>
      <trkpt lat="45.95871" lon="3.05087">
        <ele>585.7</ele>
        <time>2019-12-25T13:59:19.000Z</time>
      </trkpt>
      <trkpt lat="45.9587" lon="3.05106">
        <ele>585.2</ele>
        <time>2019-12-25T13:59:20.000Z</time>
      </trkpt>
      <trkpt lat="45.95869" lon="3.05124">
        <ele>584.9</ele>
        <time>2019-12-25T13:59:21.000Z</time>
      </trkpt>
      <trkpt lat="45.95865" lon="3.0516">
        <ele>585.3</ele>
        <time>2019-12-25T13:59:23.000Z</time>
      </trkpt>
      <trkpt lat="45.95858" lon="3.05193">
        <ele>585.9</ele>
        <time>2019-12-25T13:59:25.000Z</time>
      </trkpt>
      <trkpt lat="45.95851" lon="3.05224">
        <ele>586.5</ele>
        <time>2019-12-25T13:59:27.000Z</time>
      </trkpt>
      <trkpt lat="45.95847" lon="3.05239">
        <ele>586.7</ele>
        <time>2019-12-25T13:59:28.000Z</time>
      </trkpt>
      <trkpt lat="45.95844" lon="3.05254">
        <ele>586.8</ele>
        <time>2019-12-25T13:59:29.000Z</time>
      </trkpt>
      <trkpt lat="45.9584" lon="3.05268">
        <ele>586.8</ele>
        <time>2019-12-25T13:59:30.000Z</time>
      </trkpt>
      <trkpt lat="45.95833" lon="3.05296">
        <ele>586.8</ele>
        <time>2019-12-25T13:59:32.000Z</time>
      </trkpt>
      <trkpt lat="45.95829" lon="3.0531">
        <ele>586.8</ele>
        <time>2019-12-25T13:59:33.000Z</time>
      </trkpt>
      <trkpt lat="45.95826" lon="3.05324">
        <ele>586.7</ele>
        <time>2019-12-25T13:59:34.000Z</time>
      </trkpt>
      <trkpt lat="45.95823" lon="3.05338">
        <ele>586.6</ele>
        <time>2019-12-25T13:59:35.000Z</time>
      </trkpt>
      <trkpt lat="45.9582" lon="3.05353">
        <ele>586.4</ele>
        <time>2019-12-25T13:59:36.000Z</time>
      </trkpt>
      <trkpt lat="45.95816" lon="3.05367">
        <ele>586.1</ele>
        <time>2019-12-25T13:59:37.000Z</time>
      </trkpt>
      <trkpt lat="45.95808" lon="3.05396">
        <ele>585.5</ele>
        <time>2019-12-25T13:59:39.000Z</time>
      </trkpt>
      <trkpt lat="45.95804" lon="3.05411">
        <ele>585.2</ele>
        <time>2019-12-25T13:59:40.000Z</time>
      </trkpt>
      <trkpt lat="45.95799" lon="3.05426">
        <ele>584.8</ele>
        <time>2019-12-25T13:59:41.000Z</time>
      </trkpt>
      <trkpt lat="45.95791" lon="3.05456">
        <ele>583.8</ele>
        <time>2019-12-25T13:59:43.000Z</time>
      </trkpt>
      <trkpt lat="45.95786" lon="3.05471">
        <ele>583.3</ele>
        <time>2019-12-25T13:59:44.000Z</time>
      </trkpt>
      <trkpt lat="45.95781" lon="3.05486">
        <ele>582.6</ele>
        <time>2019-12-25T13:59:45.000Z</time>
      </trkpt>
      <trkpt lat="45.95776" lon="3.05502">
        <ele>582</ele>
        <time>2019-12-25T13:59:46.000Z</time>
      </trkpt>
      <trkpt lat="45.95765" lon="3.05534">
        <ele>580.8</ele>
        <time>2019-12-25T13:59:48.000Z</time>
      </trkpt>
      <trkpt lat="45.95759" lon="3.05551">
        <ele>580.3</ele>
        <time>2019-12-25T13:59:49.000Z</time>
      </trkpt>
      <trkpt lat="45.95754" lon="3.05567">
        <ele>579.9</ele>
        <time>2019-12-25T13:59:50.000Z</time>
      </trkpt>
      <trkpt lat="45.95749" lon="3.05584">
        <ele>579.5</ele>
        <time>2019-12-25T13:59:51.000Z</time>
      </trkpt>
      <trkpt lat="45.95743" lon="3.056">
        <ele>579</ele>
        <time>2019-12-25T13:59:52.000Z</time>
      </trkpt>
      <trkpt lat="45.95728" lon="3.05628">
        <ele>578.2</ele>
        <time>2019-12-25T13:59:54.000Z</time>
      </trkpt>
      <trkpt lat="45.95718" lon="3.0564">
        <ele>577.8</ele>
        <time>2019-12-25T13:59:55.000Z</time>
      </trkpt>
      <trkpt lat="45.95694" lon="3.05657">
        <ele>576.7</ele>
        <time>2019-12-25T13:59:57.000Z</time>
      </trkpt>
      <trkpt lat="45.95682" lon="3.05661">
        <ele>575.7</ele>
        <time>2019-12-25T13:59:58.000Z</time>
      </trkpt>
      <trkpt lat="45.95656" lon="3.05669">
        <ele>574</ele>
        <time>2019-12-25T14:00:00.000Z</time>
      </trkpt>
      <trkpt lat="45.95644" lon="3.05677">
        <ele>573.3</ele>
        <time>2019-12-25T14:00:01.000Z</time>
      </trkpt>
      <trkpt lat="45.95624" lon="3.05701">
        <ele>571.8</ele>
        <time>2019-12-25T14:00:03.000Z</time>
      </trkpt>
      <trkpt lat="45.95611" lon="3.05736">
        <ele>570.4</ele>
        <time>2019-12-25T14:00:05.000Z</time>
      </trkpt>
      <trkpt lat="45.95599" lon="3.05773">
        <ele>568.4</ele>
        <time>2019-12-25T14:00:07.000Z</time>
      </trkpt>
      <trkpt lat="45.95583" lon="3.05806">
        <ele>566.5</ele>
        <time>2019-12-25T14:00:09.000Z</time>
      </trkpt>
      <trkpt lat="45.95564" lon="3.05837">
        <ele>565</ele>
        <time>2019-12-25T14:00:11.000Z</time>
      </trkpt>
      <trkpt lat="45.95557" lon="3.05855">
        <ele>563.9</ele>
        <time>2019-12-25T14:00:12.000Z</time>
      </trkpt>
      <trkpt lat="45.95552" lon="3.05896">
        <ele>562.2</ele>
        <time>2019-12-25T14:00:14.000Z</time>
      </trkpt>
      <trkpt lat="45.95551" lon="3.05916">
        <ele>561.8</ele>
        <time>2019-12-25T14:00:15.000Z</time>
      </trkpt>
      <trkpt lat="45.95549" lon="3.05956">
        <ele>560.5</ele>
        <time>2019-12-25T14:00:17.000Z</time>
      </trkpt>
      <trkpt lat="45.95546" lon="3.05976">
        <ele>559.4</ele>
        <time>2019-12-25T14:00:18.000Z</time>
      </trkpt>
      <trkpt lat="45.95537" lon="3.06017">
        <ele>557.4</ele>
        <time>2019-12-25T14:00:20.000Z</time>
      </trkpt>
      <trkpt lat="45.95533" lon="3.06037">
        <ele>556.6</ele>
        <time>2019-12-25T14:00:21.000Z</time>
      </trkpt>
      <trkpt lat="45.95529" lon="3.06057">
        <ele>555.8</ele>
        <time>2019-12-25T14:00:22.000Z</time>
      </trkpt>
      <trkpt lat="45.95522" lon="3.06098">
        <ele>554.1</ele>
        <time>2019-12-25T14:00:24.000Z</time>
      </trkpt>
      <trkpt lat="45.95521" lon="3.0614">
        <ele>552.4</ele>
        <time>2019-12-25T14:00:26.000Z</time>
      </trkpt>
      <trkpt lat="45.95525" lon="3.06182">
        <ele>550.6</ele>
        <time>2019-12-25T14:00:28.000Z</time>
      </trkpt>
      <trkpt lat="45.9553" lon="3.06224">
        <ele>548.8</ele>
        <time>2019-12-25T14:00:30.000Z</time>
      </trkpt>
      <trkpt lat="45.95535" lon="3.06266">
        <ele>547.2</ele>
        <time>2019-12-25T14:00:32.000Z</time>
      </trkpt>
      <trkpt lat="45.95537" lon="3.06288">
        <ele>546.3</ele>
        <time>2019-12-25T14:00:33.000Z</time>
      </trkpt>
      <trkpt lat="45.95541" lon="3.06329">
        <ele>544.8</ele>
        <time>2019-12-25T14:00:35.000Z</time>
      </trkpt>
      <trkpt lat="45.95546" lon="3.06369">
        <ele>543.6</ele>
        <time>2019-12-25T14:00:37.000Z</time>
      </trkpt>
      <trkpt lat="45.95549" lon="3.06387">
        <ele>543</ele>
        <time>2019-12-25T14:00:38.000Z</time>
      </trkpt>
      <trkpt lat="45.9555" lon="3.06406">
        <ele>542.5</ele>
        <time>2019-12-25T14:00:39.000Z</time>
      </trkpt>
      <trkpt lat="45.95548" lon="3.06424">
        <ele>542.1</ele>
        <time>2019-12-25T14:00:40.000Z</time>
      </trkpt>
      <trkpt lat="45.9554" lon="3.0646">
        <ele>541.1</ele>
        <time>2019-12-25T14:00:42.000Z</time>
      </trkpt>
      <trkpt lat="45.95532" lon="3.06475">
        <ele>540.6</ele>
        <time>2019-12-25T14:00:43.000Z</time>
      </trkpt>
      <trkpt lat="45.95522" lon="3.06489">
        <ele>540.1</ele>
        <time>2019-12-25T14:00:44.000Z</time>
      </trkpt>
      <trkpt lat="45.95498" lon="3.0651">
        <ele>538.7</ele>
        <time>2019-12-25T14:00:46.000Z</time>
      </trkpt>
      <trkpt lat="45.95485" lon="3.0652">
        <ele>537.8</ele>
        <time>2019-12-25T14:00:47.000Z</time>
      </trkpt>
      <trkpt lat="45.95459" lon="3.06539">
        <ele>535.9</ele>
        <time>2019-12-25T14:00:49.000Z</time>
      </trkpt>
      <trkpt lat="45.95434" lon="3.06558">
        <ele>534</ele>
        <time>2019-12-25T14:00:51.000Z</time>
      </trkpt>
      <trkpt lat="45.9542" lon="3.06565">
        <ele>533.1</ele>
        <time>2019-12-25T14:00:52.000Z</time>
      </trkpt>
      <trkpt lat="45.95392" lon="3.06575">
        <ele>530.8</ele>
        <time>2019-12-25T14:00:54.000Z</time>
      </trkpt>
      <trkpt lat="45.95363" lon="3.06577">
        <ele>528.6</ele>
        <time>2019-12-25T14:00:56.000Z</time>
      </trkpt>
      <trkpt lat="45.95334" lon="3.06577">
        <ele>527</ele>
        <time>2019-12-25T14:00:58.000Z</time>
      </trkpt>
      <trkpt lat="45.95319" lon="3.06577">
        <ele>526.2</ele>
        <time>2019-12-25T14:00:59.000Z</time>
      </trkpt>
      <trkpt lat="45.95291" lon="3.06578">
        <ele>524.5</ele>
        <time>2019-12-25T14:01:01.000Z</time>
      </trkpt>
      <trkpt lat="45.95263" lon="3.06578">
        <ele>522.9</ele>
        <time>2019-12-25T14:01:03.000Z</time>
      </trkpt>
      <trkpt lat="45.95249" lon="3.06577">
        <ele>522.2</ele>
        <time>2019-12-25T14:01:04.000Z</time>
      </trkpt>
      <trkpt lat="45.95236" lon="3.06578">
        <ele>521.6</ele>
        <time>2019-12-25T14:01:05.000Z</time>
      </trkpt>
      <trkpt lat="45.95212" lon="3.06582">
        <ele>520.3</ele>
        <time>2019-12-25T14:01:07.000Z</time>
      </trkpt>
      <trkpt lat="45.95196" lon="3.06597">
        <ele>519.2</ele>
        <time>2019-12-25T14:01:09.000Z</time>
      </trkpt>
      <trkpt lat="45.95193" lon="3.06611">
        <ele>518.6</ele>
        <time>2019-12-25T14:01:10.000Z</time>
      </trkpt>
      <trkpt lat="45.95197" lon="3.06638">
        <ele>517.4</ele>
        <time>2019-12-25T14:01:12.000Z</time>
      </trkpt>
      <trkpt lat="45.95215" lon="3.06651">
        <ele>516.1</ele>
        <time>2019-12-25T14:01:14.000Z</time>
      </trkpt>
      <trkpt lat="45.9524" lon="3.06649">
        <ele>514.7</ele>
        <time>2019-12-25T14:01:16.000Z</time>
      </trkpt>
      <trkpt lat="45.95264" lon="3.06656">
        <ele>513.1</ele>
        <time>2019-12-25T14:01:18.000Z</time>
      </trkpt>
      <trkpt lat="45.95275" lon="3.06666">
        <ele>512.2</ele>
        <time>2019-12-25T14:01:19.000Z</time>
      </trkpt>
      <trkpt lat="45.95296" lon="3.06691">
        <ele>510.5</ele>
        <time>2019-12-25T14:01:21.000Z</time>
      </trkpt>
      <trkpt lat="45.95307" lon="3.06699">
        <ele>509.7</ele>
        <time>2019-12-25T14:01:22.000Z</time>
      </trkpt>
      <trkpt lat="45.9532" lon="3.06703">
        <ele>508.9</ele>
        <time>2019-12-25T14:01:23.000Z</time>
      </trkpt>
      <trkpt lat="45.95347" lon="3.06708">
        <ele>507.4</ele>
        <time>2019-12-25T14:01:25.000Z</time>
      </trkpt>
      <trkpt lat="45.95373" lon="3.06721">
        <ele>505.3</ele>
        <time>2019-12-25T14:01:27.000Z</time>
      </trkpt>
      <trkpt lat="45.95396" lon="3.06732">
        <ele>503.9</ele>
        <time>2019-12-25T14:01:29.000Z</time>
      </trkpt>
      <trkpt lat="45.95407" lon="3.06729">
        <ele>503</ele>
        <time>2019-12-25T14:01:30.000Z</time>
      </trkpt>
      <trkpt lat="45.95429" lon="3.06715">
        <ele>501.3</ele>
        <time>2019-12-25T14:01:32.000Z</time>
      </trkpt>
      <trkpt lat="45.95439" lon="3.06715">
        <ele>500.7</ele>
        <time>2019-12-25T14:01:33.000Z</time>
      </trkpt>
      <trkpt lat="45.95455" lon="3.06736">
        <ele>499.6</ele>
        <time>2019-12-25T14:01:35.000Z</time>
      </trkpt>
      <trkpt lat="45.95464" lon="3.06769">
        <ele>498.4</ele>
        <time>2019-12-25T14:01:37.000Z</time>
      </trkpt>
      <trkpt lat="45.95469" lon="3.06807">
        <ele>496.7</ele>
        <time>2019-12-25T14:01:39.000Z</time>
      </trkpt>
      <trkpt lat="45.95466" lon="3.06845">
        <ele>495.1</ele>
        <time>2019-12-25T14:01:41.000Z</time>
      </trkpt>
      <trkpt lat="45.95464" lon="3.06884">
        <ele>493.2</ele>
        <time>2019-12-25T14:01:43.000Z</time>
      </trkpt>
      <trkpt lat="45.95474" lon="3.06922">
        <ele>490.9</ele>
        <time>2019-12-25T14:01:45.000Z</time>
      </trkpt>
      <trkpt lat="45.95485" lon="3.06958">
        <ele>489.1</ele>
        <time>2019-12-25T14:01:47.000Z</time>
      </trkpt>
      <trkpt lat="45.95497" lon="3.06995">
        <ele>487.3</ele>
        <time>2019-12-25T14:01:49.000Z</time>
      </trkpt>
      <trkpt lat="45.95507" lon="3.07031">
        <ele>485.8</ele>
        <time>2019-12-25T14:01:51.000Z</time>
      </trkpt>
      <trkpt lat="45.95522" lon="3.07063">
        <ele>484.2</ele>
        <time>2019-12-25T14:01:53.000Z</time>
      </trkpt>
      <trkpt lat="45.95538" lon="3.07092">
        <ele>483.5</ele>
        <time>2019-12-25T14:01:55.000Z</time>
      </trkpt>
      <trkpt lat="45.95547" lon="3.07104">
        <ele>483.7</ele>
        <time>2019-12-25T14:01:56.000Z</time>
      </trkpt>
      <trkpt lat="45.95566" lon="3.07124">
        <ele>484.2</ele>
        <time>2019-12-25T14:01:58.000Z</time>
      </trkpt>
      <trkpt lat="45.95576" lon="3.07133">
        <ele>484.6</ele>
        <time>2019-12-25T14:01:59.000Z</time>
      </trkpt>
      <trkpt lat="45.95596" lon="3.07147">
        <ele>485.5</ele>
        <time>2019-12-25T14:02:01.000Z</time>
      </trkpt>
      <trkpt lat="45.95605" lon="3.07155">
        <ele>485.9</ele>
        <time>2019-12-25T14:02:02.000Z</time>
      </trkpt>
      <trkpt lat="45.95619" lon="3.07176">
        <ele>485.2</ele>
        <time>2019-12-25T14:02:04.000Z</time>
      </trkpt>
      <trkpt lat="45.9562" lon="3.07206">
        <ele>484.4</ele>
        <time>2019-12-25T14:02:06.000Z</time>
      </trkpt>
      <trkpt lat="45.9561" lon="3.07236">
        <ele>483.2</ele>
        <time>2019-12-25T14:02:08.000Z</time>
      </trkpt>
      <trkpt lat="45.95603" lon="3.07251">
        <ele>482.2</ele>
        <time>2019-12-25T14:02:09.000Z</time>
      </trkpt>
      <trkpt lat="45.95589" lon="3.07278">
        <ele>480.4</ele>
        <time>2019-12-25T14:02:11.000Z</time>
      </trkpt>
      <trkpt lat="45.95581" lon="3.07288">
        <ele>479.3</ele>
        <time>2019-12-25T14:02:12.000Z</time>
      </trkpt>
      <trkpt lat="45.95571" lon="3.07295">
        <ele>478.5</ele>
        <time>2019-12-25T14:02:13.000Z</time>
      </trkpt>
      <trkpt lat="45.95559" lon="3.07298">
        <ele>477.8</ele>
        <time>2019-12-25T14:02:14.000Z</time>
      </trkpt>
      <trkpt lat="45.95536" lon="3.07296">
        <ele>476.4</ele>
        <time>2019-12-25T14:02:16.000Z</time>
      </trkpt>
      <trkpt lat="45.95524" lon="3.07293">
        <ele>475.4</ele>
        <time>2019-12-25T14:02:17.000Z</time>
      </trkpt>
      <trkpt lat="45.95502" lon="3.0728">
        <ele>473.5</ele>
        <time>2019-12-25T14:02:19.000Z</time>
      </trkpt>
      <trkpt lat="45.9548" lon="3.07267">
        <ele>471</ele>
        <time>2019-12-25T14:02:21.000Z</time>
      </trkpt>
      <trkpt lat="45.9546" lon="3.07267">
        <ele>469.8</ele>
        <time>2019-12-25T14:02:23.000Z</time>
      </trkpt>
      <trkpt lat="45.95453" lon="3.07275">
        <ele>469.1</ele>
        <time>2019-12-25T14:02:24.000Z</time>
      </trkpt>
      <trkpt lat="45.95445" lon="3.07306">
        <ele>467.4</ele>
        <time>2019-12-25T14:02:26.000Z</time>
      </trkpt>
      <trkpt lat="45.95444" lon="3.07323">
        <ele>466.4</ele>
        <time>2019-12-25T14:02:27.000Z</time>
      </trkpt>
      <trkpt lat="45.95444" lon="3.07339">
        <ele>465.4</ele>
        <time>2019-12-25T14:02:28.000Z</time>
      </trkpt>
      <trkpt lat="45.95446" lon="3.07373">
        <ele>463.5</ele>
        <time>2019-12-25T14:02:30.000Z</time>
      </trkpt>
      <trkpt lat="45.95447" lon="3.07409">
        <ele>461.5</ele>
        <time>2019-12-25T14:02:32.000Z</time>
      </trkpt>
      <trkpt lat="45.95447" lon="3.07429">
        <ele>460.7</ele>
        <time>2019-12-25T14:02:33.000Z</time>
      </trkpt>
      <trkpt lat="45.95444" lon="3.07467">
        <ele>459.4</ele>
        <time>2019-12-25T14:02:35.000Z</time>
      </trkpt>
      <trkpt lat="45.9544" lon="3.07505">
        <ele>458.5</ele>
        <time>2019-12-25T14:02:37.000Z</time>
      </trkpt>
      <trkpt lat="45.95438" lon="3.07524">
        <ele>458</ele>
        <time>2019-12-25T14:02:38.000Z</time>
      </trkpt>
      <trkpt lat="45.95437" lon="3.07544">
        <ele>457.5</ele>
        <time>2019-12-25T14:02:39.000Z</time>
      </trkpt>
      <trkpt lat="45.95434" lon="3.07582">
        <ele>456.8</ele>
        <time>2019-12-25T14:02:41.000Z</time>
      </trkpt>
      <trkpt lat="45.95432" lon="3.07601">
        <ele>456.6</ele>
        <time>2019-12-25T14:02:42.000Z</time>
      </trkpt>
      <trkpt lat="45.9543" lon="3.07637">
        <ele>456.4</ele>
        <time>2019-12-25T14:02:44.000Z</time>
      </trkpt>
      <trkpt lat="45.95429" lon="3.07656">
        <ele>456.3</ele>
        <time>2019-12-25T14:02:45.000Z</time>
      </trkpt>
      <trkpt lat="45.95429" lon="3.07675">
        <ele>456</ele>
        <time>2019-12-25T14:02:46.000Z</time>
      </trkpt>
      <trkpt lat="45.95431" lon="3.07711">
        <ele>454.7</ele>
        <time>2019-12-25T14:02:48.000Z</time>
      </trkpt>
      <trkpt lat="45.95432" lon="3.07729">
        <ele>454.4</ele>
        <time>2019-12-25T14:02:49.000Z</time>
      </trkpt>
      <trkpt lat="45.95433" lon="3.07747">
        <ele>454</ele>
        <time>2019-12-25T14:02:50.000Z</time>
      </trkpt>
      <trkpt lat="45.95435" lon="3.07783">
        <ele>453</ele>
        <time>2019-12-25T14:02:52.000Z</time>
      </trkpt>
      <trkpt lat="45.95434" lon="3.07802">
        <ele>452.6</ele>
        <time>2019-12-25T14:02:53.000Z</time>
      </trkpt>
      <trkpt lat="45.95429" lon="3.07838">
        <ele>452</ele>
        <time>2019-12-25T14:02:55.000Z</time>
      </trkpt>
      <trkpt lat="45.95422" lon="3.07873">
        <ele>451.1</ele>
        <time>2019-12-25T14:02:57.000Z</time>
      </trkpt>
      <trkpt lat="45.95419" lon="3.0789">
        <ele>450.6</ele>
        <time>2019-12-25T14:02:58.000Z</time>
      </trkpt>
      <trkpt lat="45.95409" lon="3.07921">
        <ele>450</ele>
        <time>2019-12-25T14:03:00.000Z</time>
      </trkpt>
      <trkpt lat="45.954" lon="3.07934">
        <ele>448.8</ele>
        <time>2019-12-25T14:03:01.000Z</time>
      </trkpt>
      <trkpt lat="45.9539" lon="3.07945">
        <ele>447.7</ele>
        <time>2019-12-25T14:03:02.000Z</time>
      </trkpt>
      <trkpt lat="45.95377" lon="3.07951">
        <ele>446.6</ele>
        <time>2019-12-25T14:03:03.000Z</time>
      </trkpt>
      <trkpt lat="45.95351" lon="3.07952">
        <ele>444.5</ele>
        <time>2019-12-25T14:03:05.000Z</time>
      </trkpt>
      <trkpt lat="45.95326" lon="3.07937">
        <ele>442.2</ele>
        <time>2019-12-25T14:03:07.000Z</time>
      </trkpt>
      <trkpt lat="45.95303" lon="3.07914">
        <ele>440.1</ele>
        <time>2019-12-25T14:03:09.000Z</time>
      </trkpt>
      <trkpt lat="45.95292" lon="3.07903">
        <ele>439.2</ele>
        <time>2019-12-25T14:03:10.000Z</time>
      </trkpt>
      <trkpt lat="45.95269" lon="3.07881">
        <ele>437.7</ele>
        <time>2019-12-25T14:03:12.000Z</time>
      </trkpt>
      <trkpt lat="45.95257" lon="3.07869">
        <ele>436.9</ele>
        <time>2019-12-25T14:03:13.000Z</time>
      </trkpt>
      <trkpt lat="45.95236" lon="3.07844">
        <ele>435.7</ele>
        <time>2019-12-25T14:03:15.000Z</time>
      </trkpt>
      <trkpt lat="45.95216" lon="3.07815">
        <ele>434.4</ele>
        <time>2019-12-25T14:03:17.000Z</time>
      </trkpt>
      <trkpt lat="45.95197" lon="3.07784">
        <ele>433.1</ele>
        <time>2019-12-25T14:03:19.000Z</time>
      </trkpt>
      <trkpt lat="45.95177" lon="3.07756">
        <ele>431.7</ele>
        <time>2019-12-25T14:03:21.000Z</time>
      </trkpt>
      <trkpt lat="45.95154" lon="3.07733">
        <ele>430.4</ele>
        <time>2019-12-25T14:03:23.000Z</time>
      </trkpt>
      <trkpt lat="45.95128" lon="3.07716">
        <ele>429</ele>
        <time>2019-12-25T14:03:25.000Z</time>
      </trkpt>
      <trkpt lat="45.95102" lon="3.07702">
        <ele>427.6</ele>
        <time>2019-12-25T14:03:27.000Z</time>
      </trkpt>
      <trkpt lat="45.95076" lon="3.07699">
        <ele>426.2</ele>
        <time>2019-12-25T14:03:29.000Z</time>
      </trkpt>
      <trkpt lat="45.95053" lon="3.07719">
        <ele>424.9</ele>
        <time>2019-12-25T14:03:31.000Z</time>
      </trkpt>
      <trkpt lat="45.95044" lon="3.07734">
        <ele>424.3</ele>
        <time>2019-12-25T14:03:32.000Z</time>
      </trkpt>
      <trkpt lat="45.95036" lon="3.0775">
        <ele>423.6</ele>
        <time>2019-12-25T14:03:33.000Z</time>
      </trkpt>
      <trkpt lat="45.95019" lon="3.07781">
        <ele>422.2</ele>
        <time>2019-12-25T14:03:35.000Z</time>
      </trkpt>
      <trkpt lat="45.9501" lon="3.07818">
        <ele>420.9</ele>
        <time>2019-12-25T14:03:37.000Z</time>
      </trkpt>
      <trkpt lat="45.95008" lon="3.07838">
        <ele>420.3</ele>
        <time>2019-12-25T14:03:38.000Z</time>
      </trkpt>
      <trkpt lat="45.95009" lon="3.07878">
        <ele>419</ele>
        <time>2019-12-25T14:03:40.000Z</time>
      </trkpt>
      <trkpt lat="45.9501" lon="3.07898">
        <ele>418.3</ele>
        <time>2019-12-25T14:03:41.000Z</time>
      </trkpt>
      <trkpt lat="45.95007" lon="3.0794">
        <ele>417.1</ele>
        <time>2019-12-25T14:03:43.000Z</time>
      </trkpt>
      <trkpt lat="45.95" lon="3.07981">
        <ele>415.7</ele>
        <time>2019-12-25T14:03:45.000Z</time>
      </trkpt>
      <trkpt lat="45.94997" lon="3.08002">
        <ele>415</ele>
        <time>2019-12-25T14:03:46.000Z</time>
      </trkpt>
      <trkpt lat="45.94991" lon="3.08044">
        <ele>413.6</ele>
        <time>2019-12-25T14:03:48.000Z</time>
      </trkpt>
      <trkpt lat="45.94988" lon="3.08064">
        <ele>412.9</ele>
        <time>2019-12-25T14:03:49.000Z</time>
      </trkpt>
      <trkpt lat="45.94985" lon="3.08085">
        <ele>412.2</ele>
        <time>2019-12-25T14:03:50.000Z</time>
      </trkpt>
      <trkpt lat="45.94981" lon="3.08127">
        <ele>410.9</ele>
        <time>2019-12-25T14:03:52.000Z</time>
      </trkpt>
      <trkpt lat="45.94976" lon="3.08169">
        <ele>409.4</ele>
        <time>2019-12-25T14:03:54.000Z</time>
      </trkpt>
      <trkpt lat="45.94974" lon="3.0819">
        <ele>408.7</ele>
        <time>2019-12-25T14:03:55.000Z</time>
      </trkpt>
      <trkpt lat="45.94969" lon="3.08231">
        <ele>405.7</ele>
        <time>2019-12-25T14:03:57.000Z</time>
      </trkpt>
      <trkpt lat="45.94963" lon="3.08272">
        <ele>403</ele>
        <time>2019-12-25T14:03:59.000Z</time>
      </trkpt>
      <trkpt lat="45.94958" lon="3.08291">
        <ele>402</ele>
        <time>2019-12-25T14:04:00.000Z</time>
      </trkpt>
      <trkpt lat="45.94951" lon="3.0831">
        <ele>401.1</ele>
        <time>2019-12-25T14:04:01.000Z</time>
      </trkpt>
      <trkpt lat="45.94932" lon="3.0834">
        <ele>398.9</ele>
        <time>2019-12-25T14:04:03.000Z</time>
      </trkpt>
      <trkpt lat="45.94914" lon="3.08367">
        <ele>397.6</ele>
        <time>2019-12-25T14:04:05.000Z</time>
      </trkpt>
      <trkpt lat="45.94901" lon="3.08399">
        <ele>396.2</ele>
        <time>2019-12-25T14:04:07.000Z</time>
      </trkpt>
      <trkpt lat="45.94897" lon="3.08416">
        <ele>395.7</ele>
        <time>2019-12-25T14:04:08.000Z</time>
      </trkpt>
      <trkpt lat="45.94892" lon="3.08434">
        <ele>395.2</ele>
        <time>2019-12-25T14:04:09.000Z</time>
      </trkpt>
      <trkpt lat="45.94889" lon="3.08451">
        <ele>394.7</ele>
        <time>2019-12-25T14:04:10.000Z</time>
      </trkpt>
      <trkpt lat="45.94884" lon="3.08486">
        <ele>393.2</ele>
        <time>2019-12-25T14:04:12.000Z</time>
      </trkpt>
      <trkpt lat="45.94883" lon="3.08503">
        <ele>392.7</ele>
        <time>2019-12-25T14:04:13.000Z</time>
      </trkpt>
      <trkpt lat="45.94883" lon="3.0852">
        <ele>392.3</ele>
        <time>2019-12-25T14:04:14.000Z</time>
      </trkpt>
      <trkpt lat="45.94886" lon="3.08554">
        <ele>391.6</ele>
        <time>2019-12-25T14:04:16.000Z</time>
      </trkpt>
      <trkpt lat="45.94889" lon="3.08587">
        <ele>390.8</ele>
        <time>2019-12-25T14:04:18.000Z</time>
      </trkpt>
      <trkpt lat="45.94891" lon="3.08603">
        <ele>390.4</ele>
        <time>2019-12-25T14:04:19.000Z</time>
      </trkpt>
      <trkpt lat="45.94893" lon="3.08618">
        <ele>390.1</ele>
        <time>2019-12-25T14:04:20.000Z</time>
      </trkpt>
      <trkpt lat="45.94897" lon="3.08649">
        <ele>389.3</ele>
        <time>2019-12-25T14:04:22.000Z</time>
      </trkpt>
      <trkpt lat="45.94898" lon="3.08664">
        <ele>389</ele>
        <time>2019-12-25T14:04:23.000Z</time>
      </trkpt>
      <trkpt lat="45.94901" lon="3.08693">
        <ele>388.3</ele>
        <time>2019-12-25T14:04:25.000Z</time>
      </trkpt>
      <trkpt lat="45.94903" lon="3.08708">
        <ele>388.1</ele>
        <time>2019-12-25T14:04:26.000Z</time>
      </trkpt>
      <trkpt lat="45.94906" lon="3.08736">
        <ele>388</ele>
        <time>2019-12-25T14:04:28.000Z</time>
      </trkpt>
      <trkpt lat="45.94909" lon="3.08764">
        <ele>388</ele>
        <time>2019-12-25T14:04:30.000Z</time>
      </trkpt>
      <trkpt lat="45.94912" lon="3.08777">
        <ele>388</ele>
        <time>2019-12-25T14:04:31.000Z</time>
      </trkpt>
      <trkpt lat="45.94916" lon="3.08804">
        <ele>388.3</ele>
        <time>2019-12-25T14:04:33.000Z</time>
      </trkpt>
      <trkpt lat="45.94919" lon="3.08817">
        <ele>388.5</ele>
        <time>2019-12-25T14:04:34.000Z</time>
      </trkpt>
      <trkpt lat="45.94923" lon="3.0883">
        <ele>388.5</ele>
        <time>2019-12-25T14:04:35.000Z</time>
      </trkpt>
      <trkpt lat="45.94931" lon="3.08855">
        <ele>388.1</ele>
        <time>2019-12-25T14:04:37.000Z</time>
      </trkpt>
      <trkpt lat="45.94937" lon="3.08881">
        <ele>387.6</ele>
        <time>2019-12-25T14:04:39.000Z</time>
      </trkpt>
      <trkpt lat="45.94945" lon="3.08906">
        <ele>387.2</ele>
        <time>2019-12-25T14:04:41.000Z</time>
      </trkpt>
      <trkpt lat="45.94948" lon="3.08919">
        <ele>387.1</ele>
        <time>2019-12-25T14:04:42.000Z</time>
      </trkpt>
      <trkpt lat="45.94955" lon="3.08946">
        <ele>386.9</ele>
        <time>2019-12-25T14:04:44.000Z</time>
      </trkpt>
      <trkpt lat="45.94958" lon="3.08959">
        <ele>386.8</ele>
        <time>2019-12-25T14:04:45.000Z</time>
      </trkpt>
      <trkpt lat="45.94962" lon="3.08988">
        <ele>385.8</ele>
        <time>2019-12-25T14:04:47.000Z</time>
      </trkpt>
      <trkpt lat="45.94962" lon="3.09002">
        <ele>385.7</ele>
        <time>2019-12-25T14:04:48.000Z</time>
      </trkpt>
      <trkpt lat="45.9496" lon="3.09016">
        <ele>385.6</ele>
        <time>2019-12-25T14:04:49.000Z</time>
      </trkpt>
      <trkpt lat="45.94957" lon="3.0903">
        <ele>385.5</ele>
        <time>2019-12-25T14:04:50.000Z</time>
      </trkpt>
      <trkpt lat="45.94948" lon="3.09056">
        <ele>385.3</ele>
        <time>2019-12-25T14:04:52.000Z</time>
      </trkpt>
      <trkpt lat="45.94942" lon="3.09069">
        <ele>385.2</ele>
        <time>2019-12-25T14:04:53.000Z</time>
      </trkpt>
      <trkpt lat="45.9493" lon="3.09094">
        <ele>384.6</ele>
        <time>2019-12-25T14:04:55.000Z</time>
      </trkpt>
      <trkpt lat="45.94918" lon="3.09119">
        <ele>383.7</ele>
        <time>2019-12-25T14:04:57.000Z</time>
      </trkpt>
      <trkpt lat="45.94913" lon="3.09132">
        <ele>383.3</ele>
        <time>2019-12-25T14:04:58.000Z</time>
      </trkpt>
      <trkpt lat="45.94902" lon="3.09158">
        <ele>382.6</ele>
        <time>2019-12-25T14:05:00.000Z</time>
      </trkpt>
      <trkpt lat="45.94896" lon="3.09171">
        <ele>382.1</ele>
        <time>2019-12-25T14:05:01.000Z</time>
      </trkpt>
      <trkpt lat="45.94892" lon="3.09184">
        <ele>381.7</ele>
        <time>2019-12-25T14:05:02.000Z</time>
      </trkpt>
      <trkpt lat="45.94887" lon="3.09197">
        <ele>381.3</ele>
        <time>2019-12-25T14:05:03.000Z</time>
      </trkpt>
      <trkpt lat="45.94878" lon="3.09224">
        <ele>381</ele>
        <time>2019-12-25T14:05:05.000Z</time>
      </trkpt>
      <trkpt lat="45.94868" lon="3.09251">
        <ele>380.9</ele>
        <time>2019-12-25T14:05:07.000Z</time>
      </trkpt>
      <trkpt lat="45.94862" lon="3.09265">
        <ele>380.9</ele>
        <time>2019-12-25T14:05:08.000Z</time>
      </trkpt>
      <trkpt lat="45.94857" lon="3.09279">
        <ele>380.7</ele>
        <time>2019-12-25T14:05:09.000Z</time>
      </trkpt>
      <trkpt lat="45.9485" lon="3.09309">
        <ele>379.1</ele>
        <time>2019-12-25T14:05:11.000Z</time>
      </trkpt>
      <trkpt lat="45.94848" lon="3.09342">
        <ele>377.8</ele>
        <time>2019-12-25T14:05:13.000Z</time>
      </trkpt>
      <trkpt lat="45.94848" lon="3.09359">
        <ele>376.9</ele>
        <time>2019-12-25T14:05:14.000Z</time>
      </trkpt>
      <trkpt lat="45.94848" lon="3.09393">
        <ele>375.4</ele>
        <time>2019-12-25T14:05:16.000Z</time>
      </trkpt>
      <trkpt lat="45.94847" lon="3.09411">
        <ele>374.6</ele>
        <time>2019-12-25T14:05:17.000Z</time>
      </trkpt>
      <trkpt lat="45.94845" lon="3.09449">
        <ele>373</ele>
        <time>2019-12-25T14:05:19.000Z</time>
      </trkpt>
      <trkpt lat="45.94844" lon="3.09467">
        <ele>372.3</ele>
        <time>2019-12-25T14:05:20.000Z</time>
      </trkpt>
      <trkpt lat="45.94838" lon="3.09499">
        <ele>370.9</ele>
        <time>2019-12-25T14:05:22.000Z</time>
      </trkpt>
      <trkpt lat="45.94833" lon="3.09529">
        <ele>369.3</ele>
        <time>2019-12-25T14:05:24.000Z</time>
      </trkpt>
      <trkpt lat="45.94828" lon="3.09558">
        <ele>368.5</ele>
        <time>2019-12-25T14:05:26.000Z</time>
      </trkpt>
      <trkpt lat="45.94825" lon="3.09574">
        <ele>367.9</ele>
        <time>2019-12-25T14:05:27.000Z</time>
      </trkpt>
      <trkpt lat="45.94819" lon="3.09605">
        <ele>366.5</ele>
        <time>2019-12-25T14:05:29.000Z</time>
      </trkpt>
      <trkpt lat="45.94816" lon="3.0962">
        <ele>365.9</ele>
        <time>2019-12-25T14:05:30.000Z</time>
      </trkpt>
      <trkpt lat="45.9481" lon="3.09651">
        <ele>364.4</ele>
        <time>2019-12-25T14:05:32.000Z</time>
      </trkpt>
      <trkpt lat="45.94803" lon="3.09683">
        <ele>363.8</ele>
        <time>2019-12-25T14:05:34.000Z</time>
      </trkpt>
      <trkpt lat="45.94799" lon="3.09699">
        <ele>363.4</ele>
        <time>2019-12-25T14:05:35.000Z</time>
      </trkpt>
      <trkpt lat="45.94792" lon="3.09732">
        <ele>362.5</ele>
        <time>2019-12-25T14:05:37.000Z</time>
      </trkpt>
      <trkpt lat="45.94785" lon="3.09764">
        <ele>361.8</ele>
        <time>2019-12-25T14:05:39.000Z</time>
      </trkpt>
      <trkpt lat="45.94779" lon="3.09794">
        <ele>360.9</ele>
        <time>2019-12-25T14:05:41.000Z</time>
      </trkpt>
      <trkpt lat="45.94774" lon="3.09824">
        <ele>360.2</ele>
        <time>2019-12-25T14:05:43.000Z</time>
      </trkpt>
      <trkpt lat="45.9477" lon="3.09856">
        <ele>360</ele>
        <time>2019-12-25T14:05:45.000Z</time>
      </trkpt>
      <trkpt lat="45.94767" lon="3.09887">
        <ele>360</ele>
        <time>2019-12-25T14:05:47.000Z</time>
      </trkpt>
      <trkpt lat="45.94766" lon="3.09902">
        <ele>360</ele>
        <time>2019-12-25T14:05:48.000Z</time>
      </trkpt>
      <trkpt lat="45.94765" lon="3.0993">
        <ele>359.8</ele>
        <time>2019-12-25T14:05:50.000Z</time>
      </trkpt>
      <trkpt lat="45.94764" lon="3.09944">
        <ele>359.6</ele>
        <time>2019-12-25T14:05:51.000Z</time>
      </trkpt>
      <trkpt lat="45.9476" lon="3.09971">
        <ele>358.9</ele>
        <time>2019-12-25T14:05:53.000Z</time>
      </trkpt>
      <trkpt lat="45.94753" lon="3.09997">
        <ele>358.2</ele>
        <time>2019-12-25T14:05:55.000Z</time>
      </trkpt>
      <trkpt lat="45.94749" lon="3.1001">
        <ele>358.1</ele>
        <time>2019-12-25T14:05:56.000Z</time>
      </trkpt>
      <trkpt lat="45.94741" lon="3.10035">
        <ele>358</ele>
        <time>2019-12-25T14:05:58.000Z</time>
      </trkpt>
      <trkpt lat="45.94735" lon="3.1006">
        <ele>358</ele>
        <time>2019-12-25T14:06:00.000Z</time>
      </trkpt>
      <trkpt lat="45.94732" lon="3.10074">
        <ele>358</ele>
        <time>2019-12-25T14:06:01.000Z</time>
      </trkpt>
      <trkpt lat="45.94729" lon="3.10101">
        <ele>357.9</ele>
        <time>2019-12-25T14:06:03.000Z</time>
      </trkpt>
      <trkpt lat="45.94727" lon="3.10115">
        <ele>357.9</ele>
        <time>2019-12-25T14:06:04.000Z</time>
      </trkpt>
      <trkpt lat="45.94724" lon="3.10141">
        <ele>357.9</ele>
        <time>2019-12-25T14:06:06.000Z</time>
      </trkpt>
      <trkpt lat="45.94722" lon="3.10154">
        <ele>357.9</ele>
        <time>2019-12-25T14:06:07.000Z</time>
      </trkpt>
      <trkpt lat="45.94719" lon="3.10181">
        <ele>357.9</ele>
        <time>2019-12-25T14:06:09.000Z</time>
      </trkpt>
      <trkpt lat="45.94718" lon="3.10194">
        <ele>357.8</ele>
        <time>2019-12-25T14:06:10.000Z</time>
      </trkpt>
      <trkpt lat="45.94717" lon="3.1022">
        <ele>357.4</ele>
        <time>2019-12-25T14:06:12.000Z</time>
      </trkpt>
      <trkpt lat="45.94718" lon="3.10248">
        <ele>356.4</ele>
        <time>2019-12-25T14:06:14.000Z</time>
      </trkpt>
      <trkpt lat="45.94719" lon="3.10262">
        <ele>355.9</ele>
        <time>2019-12-25T14:06:15.000Z</time>
      </trkpt>
      <trkpt lat="45.94722" lon="3.10288">
        <ele>355.1</ele>
        <time>2019-12-25T14:06:17.000Z</time>
      </trkpt>
      <trkpt lat="45.94726" lon="3.10315">
        <ele>354.9</ele>
        <time>2019-12-25T14:06:19.000Z</time>
      </trkpt>
      <trkpt lat="45.94728" lon="3.10341">
        <ele>355</ele>
        <time>2019-12-25T14:06:21.000Z</time>
      </trkpt>
      <trkpt lat="45.94728" lon="3.10355">
        <ele>355.1</ele>
        <time>2019-12-25T14:06:22.000Z</time>
      </trkpt>
      <trkpt lat="45.94728" lon="3.10381">
        <ele>355.4</ele>
        <time>2019-12-25T14:06:24.000Z</time>
      </trkpt>
      <trkpt lat="45.94728" lon="3.10408">
        <ele>355.6</ele>
        <time>2019-12-25T14:06:26.000Z</time>
      </trkpt>
      <trkpt lat="45.94727" lon="3.10434">
        <ele>355.4</ele>
        <time>2019-12-25T14:06:28.000Z</time>
      </trkpt>
      <trkpt lat="45.94727" lon="3.10447">
        <ele>355.3</ele>
        <time>2019-12-25T14:06:29.000Z</time>
      </trkpt>
      <trkpt lat="45.94728" lon="3.10473">
        <ele>355.3</ele>
        <time>2019-12-25T14:06:31.000Z</time>
      </trkpt>
      <trkpt lat="45.94728" lon="3.10487">
        <ele>355.2</ele>
        <time>2019-12-25T14:06:32.000Z</time>
      </trkpt>
      <trkpt lat="45.94728" lon="3.10501">
        <ele>355</ele>
        <time>2019-12-25T14:06:33.000Z</time>
      </trkpt>
      <trkpt lat="45.94727" lon="3.10514">
        <ele>354.9</ele>
        <time>2019-12-25T14:06:34.000Z</time>
      </trkpt>
      <trkpt lat="45.94724" lon="3.10542">
        <ele>354.6</ele>
        <time>2019-12-25T14:06:36.000Z</time>
      </trkpt>
      <trkpt lat="45.94722" lon="3.10569">
        <ele>354.5</ele>
        <time>2019-12-25T14:06:38.000Z</time>
      </trkpt>
      <trkpt lat="45.9472" lon="3.10583">
        <ele>354.4</ele>
        <time>2019-12-25T14:06:39.000Z</time>
      </trkpt>
      <trkpt lat="45.94719" lon="3.10597">
        <ele>354.3</ele>
        <time>2019-12-25T14:06:40.000Z</time>
      </trkpt>
      <trkpt lat="45.94718" lon="3.1061">
        <ele>354.2</ele>
        <time>2019-12-25T14:06:41.000Z</time>
      </trkpt>
      <trkpt lat="45.94716" lon="3.10638">
        <ele>354.1</ele>
        <time>2019-12-25T14:06:43.000Z</time>
      </trkpt>
      <trkpt lat="45.94713" lon="3.10665">
        <ele>353.8</ele>
        <time>2019-12-25T14:06:45.000Z</time>
      </trkpt>
      <trkpt lat="45.94712" lon="3.1068">
        <ele>353.7</ele>
        <time>2019-12-25T14:06:46.000Z</time>
      </trkpt>
      <trkpt lat="45.9471" lon="3.10707">
        <ele>353.5</ele>
        <time>2019-12-25T14:06:48.000Z</time>
      </trkpt>
      <trkpt lat="45.94709" lon="3.1072">
        <ele>353.4</ele>
        <time>2019-12-25T14:06:49.000Z</time>
      </trkpt>
      <trkpt lat="45.94704" lon="3.10747">
        <ele>353.1</ele>
        <time>2019-12-25T14:06:51.000Z</time>
      </trkpt>
      <trkpt lat="45.94698" lon="3.10772">
        <ele>352.5</ele>
        <time>2019-12-25T14:06:53.000Z</time>
      </trkpt>
      <trkpt lat="45.94694" lon="3.10784">
        <ele>352.4</ele>
        <time>2019-12-25T14:06:54.000Z</time>
      </trkpt>
      <trkpt lat="45.94687" lon="3.1081">
        <ele>352.4</ele>
        <time>2019-12-25T14:06:56.000Z</time>
      </trkpt>
      <trkpt lat="45.94683" lon="3.10823">
        <ele>352.4</ele>
        <time>2019-12-25T14:06:57.000Z</time>
      </trkpt>
      <trkpt lat="45.94677" lon="3.10848">
        <ele>352.6</ele>
        <time>2019-12-25T14:06:59.000Z</time>
      </trkpt>
      <trkpt lat="45.94672" lon="3.10874">
        <ele>352.4</ele>
        <time>2019-12-25T14:07:01.000Z</time>
      </trkpt>
      <trkpt lat="45.94669" lon="3.10886">
        <ele>352.2</ele>
        <time>2019-12-25T14:07:02.000Z</time>
      </trkpt>
      <trkpt lat="45.94664" lon="3.10909">
        <ele>351.9</ele>
        <time>2019-12-25T14:07:04.000Z</time>
      </trkpt>
      <trkpt lat="45.9466" lon="3.1092">
        <ele>351.8</ele>
        <time>2019-12-25T14:07:06.000Z</time>
      </trkpt>
      <trkpt lat="45.94662" lon="3.10924">
        <ele>351.7</ele>
        <time>2019-12-25T14:07:21.000Z</time>
      </trkpt>
      <trkpt lat="45.9466" lon="3.1092">
        <ele>351.7</ele>
        <time>2019-12-25T14:07:29.000Z</time>
      </trkpt>
      <trkpt lat="45.94659" lon="3.10926">
        <ele>351.7</ele>
        <time>2019-12-25T14:08:22.000Z</time>
      </trkpt>
      <trkpt lat="45.94659" lon="3.1093">
        <ele>351.6</ele>
        <time>2019-12-25T14:08:23.000Z</time>
      </trkpt>
      <trkpt lat="45.94659" lon="3.10936">
        <ele>351.5</ele>
        <time>2019-12-25T14:08:25.000Z</time>
      </trkpt>
      <trkpt lat="45.94658" lon="3.10942">
        <ele>351.4</ele>
        <time>2019-12-25T14:08:26.000Z</time>
      </trkpt>
      <trkpt lat="45.94664" lon="3.10955">
        <ele>351.2</ele>
        <time>2019-12-25T14:08:28.000Z</time>
      </trkpt>
      <trkpt lat="45.94669" lon="3.10959">
        <ele>351.3</ele>
        <time>2019-12-25T14:08:29.000Z</time>
      </trkpt>
      <trkpt lat="45.94676" lon="3.10961">
        <ele>351.4</ele>
        <time>2019-12-25T14:08:30.000Z</time>
      </trkpt>
      <trkpt lat="45.9469" lon="3.10959">
        <ele>351.6</ele>
        <time>2019-12-25T14:08:32.000Z</time>
      </trkpt>
      <trkpt lat="45.94703" lon="3.10966">
        <ele>351.8</ele>
        <time>2019-12-25T14:08:34.000Z</time>
      </trkpt>
      <trkpt lat="45.94706" lon="3.10976">
        <ele>351.7</ele>
        <time>2019-12-25T14:08:35.000Z</time>
      </trkpt>
      <trkpt lat="45.9471" lon="3.11">
        <ele>351.5</ele>
        <time>2019-12-25T14:08:37.000Z</time>
      </trkpt>
      <trkpt lat="45.94712" lon="3.11025">
        <ele>351.1</ele>
        <time>2019-12-25T14:08:39.000Z</time>
      </trkpt>
      <trkpt lat="45.94714" lon="3.11051">
        <ele>350.6</ele>
        <time>2019-12-25T14:08:41.000Z</time>
      </trkpt>
      <trkpt lat="45.94714" lon="3.11065">
        <ele>350.3</ele>
        <time>2019-12-25T14:08:42.000Z</time>
      </trkpt>
      <trkpt lat="45.94712" lon="3.11092">
        <ele>349.9</ele>
        <time>2019-12-25T14:08:44.000Z</time>
      </trkpt>
      <trkpt lat="45.94711" lon="3.11106">
        <ele>349.6</ele>
        <time>2019-12-25T14:08:45.000Z</time>
      </trkpt>
      <trkpt lat="45.9471" lon="3.11133">
        <ele>349.2</ele>
        <time>2019-12-25T14:08:47.000Z</time>
      </trkpt>
      <trkpt lat="45.94711" lon="3.1116">
        <ele>348.9</ele>
        <time>2019-12-25T14:08:49.000Z</time>
      </trkpt>
      <trkpt lat="45.94715" lon="3.11172">
        <ele>348.8</ele>
        <time>2019-12-25T14:08:50.000Z</time>
      </trkpt>
      <trkpt lat="45.9473" lon="3.11191">
        <ele>348.5</ele>
        <time>2019-12-25T14:08:52.000Z</time>
      </trkpt>
      <trkpt lat="45.94745" lon="3.11207">
        <ele>348.3</ele>
        <time>2019-12-25T14:08:54.000Z</time>
      </trkpt>
      <trkpt lat="45.94752" lon="3.11215">
        <ele>348.1</ele>
        <time>2019-12-25T14:08:55.000Z</time>
      </trkpt>
      <trkpt lat="45.94766" lon="3.11231">
        <ele>347.8</ele>
        <time>2019-12-25T14:08:57.000Z</time>
      </trkpt>
      <trkpt lat="45.94773" lon="3.11239">
        <ele>347.6</ele>
        <time>2019-12-25T14:08:58.000Z</time>
      </trkpt>
      <trkpt lat="45.94784" lon="3.11259">
        <ele>347.2</ele>
        <time>2019-12-25T14:09:00.000Z</time>
      </trkpt>
      <trkpt lat="45.94791" lon="3.11284">
        <ele>346.6</ele>
        <time>2019-12-25T14:09:02.000Z</time>
      </trkpt>
      <trkpt lat="45.94794" lon="3.11296">
        <ele>346.4</ele>
        <time>2019-12-25T14:09:03.000Z</time>
      </trkpt>
      <trkpt lat="45.94802" lon="3.11319">
        <ele>346</ele>
        <time>2019-12-25T14:09:05.000Z</time>
      </trkpt>
      <trkpt lat="45.94806" lon="3.1133">
        <ele>345.8</ele>
        <time>2019-12-25T14:09:06.000Z</time>
      </trkpt>
      <trkpt lat="45.94813" lon="3.11354">
        <ele>345.1</ele>
        <time>2019-12-25T14:09:08.000Z</time>
      </trkpt>
      <trkpt lat="45.94816" lon="3.11366">
        <ele>344.9</ele>
        <time>2019-12-25T14:09:09.000Z</time>
      </trkpt>
      <trkpt lat="45.9482" lon="3.11378">
        <ele>344.7</ele>
        <time>2019-12-25T14:09:10.000Z</time>
      </trkpt>
      <trkpt lat="45.94823" lon="3.1139">
        <ele>344.6</ele>
        <time>2019-12-25T14:09:11.000Z</time>
      </trkpt>
      <trkpt lat="45.94831" lon="3.11413">
        <ele>344.3</ele>
        <time>2019-12-25T14:09:13.000Z</time>
      </trkpt>
      <trkpt lat="45.94839" lon="3.11436">
        <ele>344</ele>
        <time>2019-12-25T14:09:15.000Z</time>
      </trkpt>
      <trkpt lat="45.94843" lon="3.11447">
        <ele>343.9</ele>
        <time>2019-12-25T14:09:16.000Z</time>
      </trkpt>
      <trkpt lat="45.9485" lon="3.11469">
        <ele>343.7</ele>
        <time>2019-12-25T14:09:18.000Z</time>
      </trkpt>
      <trkpt lat="45.94853" lon="3.1148">
        <ele>343.6</ele>
        <time>2019-12-25T14:09:19.000Z</time>
      </trkpt>
      <trkpt lat="45.9486" lon="3.11499">
        <ele>343.4</ele>
        <time>2019-12-25T14:09:21.000Z</time>
      </trkpt>
      <trkpt lat="45.94866" lon="3.11518">
        <ele>343.4</ele>
        <time>2019-12-25T14:09:23.000Z</time>
      </trkpt>
      <trkpt lat="45.94873" lon="3.11535">
        <ele>343.3</ele>
        <time>2019-12-25T14:09:25.000Z</time>
      </trkpt>
      <trkpt lat="45.9488" lon="3.11551">
        <ele>343.5</ele>
        <time>2019-12-25T14:09:27.000Z</time>
      </trkpt>
      <trkpt lat="45.94883" lon="3.11559">
        <ele>343.5</ele>
        <time>2019-12-25T14:09:28.000Z</time>
      </trkpt>
      <trkpt lat="45.94891" lon="3.11575">
        <ele>343.7</ele>
        <time>2019-12-25T14:09:30.000Z</time>
      </trkpt>
      <trkpt lat="45.94895" lon="3.11583">
        <ele>343.8</ele>
        <time>2019-12-25T14:09:31.000Z</time>
      </trkpt>
      <trkpt lat="45.94902" lon="3.11599">
        <ele>344</ele>
        <time>2019-12-25T14:09:33.000Z</time>
      </trkpt>
      <trkpt lat="45.9491" lon="3.11615">
        <ele>344.4</ele>
        <time>2019-12-25T14:09:35.000Z</time>
      </trkpt>
      <trkpt lat="45.94914" lon="3.11623">
        <ele>344.6</ele>
        <time>2019-12-25T14:09:36.000Z</time>
      </trkpt>
      <trkpt lat="45.94922" lon="3.11638">
        <ele>345.1</ele>
        <time>2019-12-25T14:09:38.000Z</time>
      </trkpt>
      <trkpt lat="45.9493" lon="3.11652">
        <ele>345.5</ele>
        <time>2019-12-25T14:09:40.000Z</time>
      </trkpt>
      <trkpt lat="45.94938" lon="3.11666">
        <ele>345.7</ele>
        <time>2019-12-25T14:09:42.000Z</time>
      </trkpt>
      <trkpt lat="45.94946" lon="3.11682">
        <ele>345.7</ele>
        <time>2019-12-25T14:09:44.000Z</time>
      </trkpt>
      <trkpt lat="45.94954" lon="3.11698">
        <ele>345.8</ele>
        <time>2019-12-25T14:09:46.000Z</time>
      </trkpt>
      <trkpt lat="45.94962" lon="3.11714">
        <ele>345.9</ele>
        <time>2019-12-25T14:09:48.000Z</time>
      </trkpt>
      <trkpt lat="45.94967" lon="3.11722">
        <ele>345.9</ele>
        <time>2019-12-25T14:09:49.000Z</time>
      </trkpt>
      <trkpt lat="45.94975" lon="3.11739">
        <ele>345.9</ele>
        <time>2019-12-25T14:09:51.000Z</time>
      </trkpt>
      <trkpt lat="45.94979" lon="3.11747">
        <ele>345.9</ele>
        <time>2019-12-25T14:09:52.000Z</time>
      </trkpt>
      <trkpt lat="45.94988" lon="3.11765">
        <ele>345.9</ele>
        <time>2019-12-25T14:09:54.000Z</time>
      </trkpt>
      <trkpt lat="45.94999" lon="3.11784">
        <ele>345.9</ele>
        <time>2019-12-25T14:09:56.000Z</time>
      </trkpt>
      <trkpt lat="45.9501" lon="3.11804">
        <ele>345.8</ele>
        <time>2019-12-25T14:09:58.000Z</time>
      </trkpt>
      <trkpt lat="45.95022" lon="3.11825">
        <ele>345.8</ele>
        <time>2019-12-25T14:10:00.000Z</time>
      </trkpt>
      <trkpt lat="45.95028" lon="3.11835">
        <ele>345.8</ele>
        <time>2019-12-25T14:10:01.000Z</time>
      </trkpt>
      <trkpt lat="45.95042" lon="3.11857">
        <ele>345.7</ele>
        <time>2019-12-25T14:10:03.000Z</time>
      </trkpt>
      <trkpt lat="45.95055" lon="3.11878">
        <ele>345.3</ele>
        <time>2019-12-25T14:10:05.000Z</time>
      </trkpt>
      <trkpt lat="45.95062" lon="3.1189">
        <ele>344.8</ele>
        <time>2019-12-25T14:10:06.000Z</time>
      </trkpt>
      <trkpt lat="45.95069" lon="3.11901">
        <ele>344.3</ele>
        <time>2019-12-25T14:10:07.000Z</time>
      </trkpt>
      <trkpt lat="45.95084" lon="3.11925">
        <ele>343.7</ele>
        <time>2019-12-25T14:10:09.000Z</time>
      </trkpt>
      <trkpt lat="45.95098" lon="3.11949">
        <ele>343.6</ele>
        <time>2019-12-25T14:10:11.000Z</time>
      </trkpt>
      <trkpt lat="45.95111" lon="3.11974">
        <ele>343.4</ele>
        <time>2019-12-25T14:10:13.000Z</time>
      </trkpt>
      <trkpt lat="45.95122" lon="3.11999">
        <ele>343.5</ele>
        <time>2019-12-25T14:10:15.000Z</time>
      </trkpt>
      <trkpt lat="45.95126" lon="3.12013">
        <ele>343.7</ele>
        <time>2019-12-25T14:10:16.000Z</time>
      </trkpt>
      <trkpt lat="45.95131" lon="3.1204">
        <ele>344</ele>
        <time>2019-12-25T14:10:18.000Z</time>
      </trkpt>
      <trkpt lat="45.95133" lon="3.12054">
        <ele>344.2</ele>
        <time>2019-12-25T14:10:19.000Z</time>
      </trkpt>
      <trkpt lat="45.95136" lon="3.12079">
        <ele>344.4</ele>
        <time>2019-12-25T14:10:21.000Z</time>
      </trkpt>
      <trkpt lat="45.95141" lon="3.12103">
        <ele>345</ele>
        <time>2019-12-25T14:10:23.000Z</time>
      </trkpt>
      <trkpt lat="45.95148" lon="3.12126">
        <ele>345.2</ele>
        <time>2019-12-25T14:10:25.000Z</time>
      </trkpt>
      <trkpt lat="45.95152" lon="3.12136">
        <ele>345.2</ele>
        <time>2019-12-25T14:10:26.000Z</time>
      </trkpt>
      <trkpt lat="45.95158" lon="3.12145">
        <ele>345.2</ele>
        <time>2019-12-25T14:10:27.000Z</time>
      </trkpt>
      <trkpt lat="45.9517" lon="3.12161">
        <ele>345.3</ele>
        <time>2019-12-25T14:10:29.000Z</time>
      </trkpt>
      <trkpt lat="45.95177" lon="3.12169">
        <ele>345.3</ele>
        <time>2019-12-25T14:10:30.000Z</time>
      </trkpt>
      <trkpt lat="45.9519" lon="3.12185">
        <ele>345</ele>
        <time>2019-12-25T14:10:32.000Z</time>
      </trkpt>
      <trkpt lat="45.95201" lon="3.12204">
        <ele>344.7</ele>
        <time>2019-12-25T14:10:34.000Z</time>
      </trkpt>
      <trkpt lat="45.95207" lon="3.12214">
        <ele>344.6</ele>
        <time>2019-12-25T14:10:35.000Z</time>
      </trkpt>
      <trkpt lat="45.95217" lon="3.12236">
        <ele>344.3</ele>
        <time>2019-12-25T14:10:37.000Z</time>
      </trkpt>
      <trkpt lat="45.95222" lon="3.12247">
        <ele>344.1</ele>
        <time>2019-12-25T14:10:38.000Z</time>
      </trkpt>
      <trkpt lat="45.95229" lon="3.12271">
        <ele>343.7</ele>
        <time>2019-12-25T14:10:40.000Z</time>
      </trkpt>
      <trkpt lat="45.95231" lon="3.12285">
        <ele>343.6</ele>
        <time>2019-12-25T14:10:41.000Z</time>
      </trkpt>
      <trkpt lat="45.95231" lon="3.12298">
        <ele>343.6</ele>
        <time>2019-12-25T14:10:42.000Z</time>
      </trkpt>
      <trkpt lat="45.95232" lon="3.12324">
        <ele>343.6</ele>
        <time>2019-12-25T14:10:44.000Z</time>
      </trkpt>
      <trkpt lat="45.95232" lon="3.1235">
        <ele>343.5</ele>
        <time>2019-12-25T14:10:46.000Z</time>
      </trkpt>
      <trkpt lat="45.95232" lon="3.12363">
        <ele>343.4</ele>
        <time>2019-12-25T14:10:47.000Z</time>
      </trkpt>
      <trkpt lat="45.95232" lon="3.12389">
        <ele>343.2</ele>
        <time>2019-12-25T14:10:49.000Z</time>
      </trkpt>
      <trkpt lat="45.95232" lon="3.12402">
        <ele>343</ele>
        <time>2019-12-25T14:10:50.000Z</time>
      </trkpt>
      <trkpt lat="45.95232" lon="3.12427">
        <ele>342.8</ele>
        <time>2019-12-25T14:10:52.000Z</time>
      </trkpt>
      <trkpt lat="45.95232" lon="3.12452">
        <ele>342.6</ele>
        <time>2019-12-25T14:10:54.000Z</time>
      </trkpt>
      <trkpt lat="45.95231" lon="3.12466">
        <ele>342.5</ele>
        <time>2019-12-25T14:10:55.000Z</time>
      </trkpt>
      <trkpt lat="45.95232" lon="3.12479">
        <ele>342.4</ele>
        <time>2019-12-25T14:10:56.000Z</time>
      </trkpt>
      <trkpt lat="45.95232" lon="3.12505">
        <ele>342.4</ele>
        <time>2019-12-25T14:10:58.000Z</time>
      </trkpt>
      <trkpt lat="45.95232" lon="3.12518">
        <ele>342.3</ele>
        <time>2019-12-25T14:10:59.000Z</time>
      </trkpt>
      <trkpt lat="45.95232" lon="3.12532">
        <ele>342.3</ele>
        <time>2019-12-25T14:11:00.000Z</time>
      </trkpt>
      <trkpt lat="45.95232" lon="3.12559">
        <ele>342.2</ele>
        <time>2019-12-25T14:11:02.000Z</time>
      </trkpt>
      <trkpt lat="45.95232" lon="3.12586">
        <ele>342.1</ele>
        <time>2019-12-25T14:11:04.000Z</time>
      </trkpt>
      <trkpt lat="45.95232" lon="3.12612">
        <ele>341.7</ele>
        <time>2019-12-25T14:11:06.000Z</time>
      </trkpt>
      <trkpt lat="45.95232" lon="3.12625">
        <ele>341.5</ele>
        <time>2019-12-25T14:11:07.000Z</time>
      </trkpt>
      <trkpt lat="45.95232" lon="3.12639">
        <ele>341.2</ele>
        <time>2019-12-25T14:11:08.000Z</time>
      </trkpt>
      <trkpt lat="45.95232" lon="3.12666">
        <ele>341</ele>
        <time>2019-12-25T14:11:10.000Z</time>
      </trkpt>
      <trkpt lat="45.95231" lon="3.12679">
        <ele>340.9</ele>
        <time>2019-12-25T14:11:11.000Z</time>
      </trkpt>
      <trkpt lat="45.95231" lon="3.12692">
        <ele>340.9</ele>
        <time>2019-12-25T14:11:12.000Z</time>
      </trkpt>
      <trkpt lat="45.95229" lon="3.12719">
        <ele>340.4</ele>
        <time>2019-12-25T14:11:14.000Z</time>
      </trkpt>
      <trkpt lat="45.95228" lon="3.12745">
        <ele>339.7</ele>
        <time>2019-12-25T14:11:16.000Z</time>
      </trkpt>
      <trkpt lat="45.95227" lon="3.12771">
        <ele>339</ele>
        <time>2019-12-25T14:11:18.000Z</time>
      </trkpt>
      <trkpt lat="45.95226" lon="3.12785">
        <ele>338.7</ele>
        <time>2019-12-25T14:11:19.000Z</time>
      </trkpt>
      <trkpt lat="45.95223" lon="3.12811">
        <ele>338.1</ele>
        <time>2019-12-25T14:11:21.000Z</time>
      </trkpt>
      <trkpt lat="45.95221" lon="3.12824">
        <ele>337.9</ele>
        <time>2019-12-25T14:11:22.000Z</time>
      </trkpt>
      <trkpt lat="45.95212" lon="3.12848">
        <ele>337.7</ele>
        <time>2019-12-25T14:11:24.000Z</time>
      </trkpt>
      <trkpt lat="45.952" lon="3.1287">
        <ele>337.5</ele>
        <time>2019-12-25T14:11:26.000Z</time>
      </trkpt>
      <trkpt lat="45.95193" lon="3.12879">
        <ele>337.5</ele>
        <time>2019-12-25T14:11:27.000Z</time>
      </trkpt>
      <trkpt lat="45.95179" lon="3.12898">
        <ele>337.3</ele>
        <time>2019-12-25T14:11:29.000Z</time>
      </trkpt>
      <trkpt lat="45.95172" lon="3.12908">
        <ele>337.1</ele>
        <time>2019-12-25T14:11:30.000Z</time>
      </trkpt>
      <trkpt lat="45.95157" lon="3.12928">
        <ele>336.9</ele>
        <time>2019-12-25T14:11:32.000Z</time>
      </trkpt>
      <trkpt lat="45.9515" lon="3.12937">
        <ele>336.7</ele>
        <time>2019-12-25T14:11:33.000Z</time>
      </trkpt>
      <trkpt lat="45.95135" lon="3.12957">
        <ele>336.5</ele>
        <time>2019-12-25T14:11:35.000Z</time>
      </trkpt>
      <trkpt lat="45.95128" lon="3.12968">
        <ele>336.4</ele>
        <time>2019-12-25T14:11:36.000Z</time>
      </trkpt>
      <trkpt lat="45.95115" lon="3.12989">
        <ele>336.2</ele>
        <time>2019-12-25T14:11:38.000Z</time>
      </trkpt>
      <trkpt lat="45.95103" lon="3.13013">
        <ele>336.1</ele>
        <time>2019-12-25T14:11:40.000Z</time>
      </trkpt>
      <trkpt lat="45.95097" lon="3.13024">
        <ele>336</ele>
        <time>2019-12-25T14:11:41.000Z</time>
      </trkpt>
      <trkpt lat="45.95092" lon="3.13036">
        <ele>336</ele>
        <time>2019-12-25T14:11:42.000Z</time>
      </trkpt>
      <trkpt lat="45.95086" lon="3.13048">
        <ele>335.9</ele>
        <time>2019-12-25T14:11:43.000Z</time>
      </trkpt>
      <trkpt lat="45.95075" lon="3.13071">
        <ele>335.8</ele>
        <time>2019-12-25T14:11:45.000Z</time>
      </trkpt>
      <trkpt lat="45.95064" lon="3.13095">
        <ele>335.6</ele>
        <time>2019-12-25T14:11:47.000Z</time>
      </trkpt>
      <trkpt lat="45.95053" lon="3.13117">
        <ele>335.4</ele>
        <time>2019-12-25T14:11:49.000Z</time>
      </trkpt>
      <trkpt lat="45.95042" lon="3.13141">
        <ele>335</ele>
        <time>2019-12-25T14:11:51.000Z</time>
      </trkpt>
      <trkpt lat="45.95031" lon="3.13164">
        <ele>334.7</ele>
        <time>2019-12-25T14:11:53.000Z</time>
      </trkpt>
      <trkpt lat="45.9502" lon="3.13187">
        <ele>334.4</ele>
        <time>2019-12-25T14:11:55.000Z</time>
      </trkpt>
      <trkpt lat="45.95009" lon="3.13209">
        <ele>334.3</ele>
        <time>2019-12-25T14:11:57.000Z</time>
      </trkpt>
      <trkpt lat="45.94999" lon="3.13231">
        <ele>334.1</ele>
        <time>2019-12-25T14:11:59.000Z</time>
      </trkpt>
      <trkpt lat="45.94989" lon="3.13254">
        <ele>334.1</ele>
        <time>2019-12-25T14:12:01.000Z</time>
      </trkpt>
      <trkpt lat="45.94978" lon="3.13276">
        <ele>334</ele>
        <time>2019-12-25T14:12:03.000Z</time>
      </trkpt>
      <trkpt lat="45.94968" lon="3.13298">
        <ele>334</ele>
        <time>2019-12-25T14:12:05.000Z</time>
      </trkpt>
      <trkpt lat="45.94957" lon="3.13319">
        <ele>334</ele>
        <time>2019-12-25T14:12:07.000Z</time>
      </trkpt>
      <trkpt lat="45.94951" lon="3.13329">
        <ele>334</ele>
        <time>2019-12-25T14:12:08.000Z</time>
      </trkpt>
      <trkpt lat="45.94941" lon="3.13349">
        <ele>334</ele>
        <time>2019-12-25T14:12:10.000Z</time>
      </trkpt>
      <trkpt lat="45.94935" lon="3.1336">
        <ele>334</ele>
        <time>2019-12-25T14:12:11.000Z</time>
      </trkpt>
      <trkpt lat="45.94924" lon="3.13381">
        <ele>334</ele>
        <time>2019-12-25T14:12:13.000Z</time>
      </trkpt>
      <trkpt lat="45.94913" lon="3.13402">
        <ele>334</ele>
        <time>2019-12-25T14:12:15.000Z</time>
      </trkpt>
      <trkpt lat="45.94907" lon="3.13413">
        <ele>334</ele>
        <time>2019-12-25T14:12:16.000Z</time>
      </trkpt>
      <trkpt lat="45.94897" lon="3.13433">
        <ele>334</ele>
        <time>2019-12-25T14:12:18.000Z</time>
      </trkpt>
      <trkpt lat="45.94886" lon="3.13454">
        <ele>333.9</ele>
        <time>2019-12-25T14:12:20.000Z</time>
      </trkpt>
      <trkpt lat="45.94881" lon="3.13464">
        <ele>333.8</ele>
        <time>2019-12-25T14:12:21.000Z</time>
      </trkpt>
      <trkpt lat="45.94876" lon="3.13475">
        <ele>333.7</ele>
        <time>2019-12-25T14:12:22.000Z</time>
      </trkpt>
      <trkpt lat="45.9487" lon="3.13485">
        <ele>333.7</ele>
        <time>2019-12-25T14:12:23.000Z</time>
      </trkpt>
      <trkpt lat="45.94859" lon="3.13505">
        <ele>333.8</ele>
        <time>2019-12-25T14:12:25.000Z</time>
      </trkpt>
      <trkpt lat="45.94847" lon="3.13522">
        <ele>334.1</ele>
        <time>2019-12-25T14:12:27.000Z</time>
      </trkpt>
      <trkpt lat="45.9484" lon="3.13531">
        <ele>334.3</ele>
        <time>2019-12-25T14:12:28.000Z</time>
      </trkpt>
      <trkpt lat="45.9483" lon="3.1355">
        <ele>334.4</ele>
        <time>2019-12-25T14:12:30.000Z</time>
      </trkpt>
      <trkpt lat="45.94828" lon="3.13562">
        <ele>334.5</ele>
        <time>2019-12-25T14:12:31.000Z</time>
      </trkpt>
      <trkpt lat="45.94827" lon="3.13575">
        <ele>334.6</ele>
        <time>2019-12-25T14:12:32.000Z</time>
      </trkpt>
      <trkpt lat="45.94828" lon="3.136">
        <ele>334.7</ele>
        <time>2019-12-25T14:12:34.000Z</time>
      </trkpt>
      <trkpt lat="45.94829" lon="3.13626">
        <ele>334.9</ele>
        <time>2019-12-25T14:12:36.000Z</time>
      </trkpt>
      <trkpt lat="45.94829" lon="3.13652">
        <ele>335.2</ele>
        <time>2019-12-25T14:12:38.000Z</time>
      </trkpt>
      <trkpt lat="45.94825" lon="3.13676">
        <ele>335.4</ele>
        <time>2019-12-25T14:12:40.000Z</time>
      </trkpt>
      <trkpt lat="45.94823" lon="3.13688">
        <ele>335.5</ele>
        <time>2019-12-25T14:12:41.000Z</time>
      </trkpt>
      <trkpt lat="45.94817" lon="3.13711">
        <ele>334.8</ele>
        <time>2019-12-25T14:12:43.000Z</time>
      </trkpt>
      <trkpt lat="45.9481" lon="3.13733">
        <ele>334.2</ele>
        <time>2019-12-25T14:12:45.000Z</time>
      </trkpt>
      <trkpt lat="45.94799" lon="3.13751">
        <ele>333.7</ele>
        <time>2019-12-25T14:12:47.000Z</time>
      </trkpt>
      <trkpt lat="45.94787" lon="3.13769">
        <ele>333.1</ele>
        <time>2019-12-25T14:12:49.000Z</time>
      </trkpt>
      <trkpt lat="45.94774" lon="3.13786">
        <ele>332.5</ele>
        <time>2019-12-25T14:12:51.000Z</time>
      </trkpt>
      <trkpt lat="45.94768" lon="3.13795">
        <ele>332.1</ele>
        <time>2019-12-25T14:12:52.000Z</time>
      </trkpt>
      <trkpt lat="45.94755" lon="3.13814">
        <ele>331.9</ele>
        <time>2019-12-25T14:12:54.000Z</time>
      </trkpt>
      <trkpt lat="45.94743" lon="3.13835">
        <ele>331.8</ele>
        <time>2019-12-25T14:12:56.000Z</time>
      </trkpt>
      <trkpt lat="45.94738" lon="3.13846">
        <ele>331.7</ele>
        <time>2019-12-25T14:12:57.000Z</time>
      </trkpt>
      <trkpt lat="45.94731" lon="3.13871">
        <ele>331.6</ele>
        <time>2019-12-25T14:12:59.000Z</time>
      </trkpt>
      <trkpt lat="45.94726" lon="3.13898">
        <ele>331.7</ele>
        <time>2019-12-25T14:13:01.000Z</time>
      </trkpt>
      <trkpt lat="45.94725" lon="3.13912">
        <ele>331.7</ele>
        <time>2019-12-25T14:13:02.000Z</time>
      </trkpt>
      <trkpt lat="45.94722" lon="3.13938">
        <ele>331.7</ele>
        <time>2019-12-25T14:13:04.000Z</time>
      </trkpt>
      <trkpt lat="45.94721" lon="3.13965">
        <ele>331.5</ele>
        <time>2019-12-25T14:13:06.000Z</time>
      </trkpt>
      <trkpt lat="45.94719" lon="3.13978">
        <ele>331.4</ele>
        <time>2019-12-25T14:13:07.000Z</time>
      </trkpt>
      <trkpt lat="45.94717" lon="3.14004">
        <ele>331.3</ele>
        <time>2019-12-25T14:13:09.000Z</time>
      </trkpt>
      <trkpt lat="45.94715" lon="3.1403">
        <ele>331.5</ele>
        <time>2019-12-25T14:13:11.000Z</time>
      </trkpt>
      <trkpt lat="45.94714" lon="3.14043">
        <ele>331.7</ele>
        <time>2019-12-25T14:13:12.000Z</time>
      </trkpt>
      <trkpt lat="45.94713" lon="3.14056">
        <ele>331.7</ele>
        <time>2019-12-25T14:13:13.000Z</time>
      </trkpt>
      <trkpt lat="45.94711" lon="3.14082">
        <ele>332.3</ele>
        <time>2019-12-25T14:13:15.000Z</time>
      </trkpt>
      <trkpt lat="45.94708" lon="3.14107">
        <ele>332.7</ele>
        <time>2019-12-25T14:13:17.000Z</time>
      </trkpt>
      <trkpt lat="45.94708" lon="3.1412">
        <ele>332.8</ele>
        <time>2019-12-25T14:13:18.000Z</time>
      </trkpt>
      <trkpt lat="45.94707" lon="3.14146">
        <ele>333</ele>
        <time>2019-12-25T14:13:20.000Z</time>
      </trkpt>
      <trkpt lat="45.94707" lon="3.14172">
        <ele>333</ele>
        <time>2019-12-25T14:13:22.000Z</time>
      </trkpt>
      <trkpt lat="45.94707" lon="3.14185">
        <ele>333</ele>
        <time>2019-12-25T14:13:23.000Z</time>
      </trkpt>
      <trkpt lat="45.94707" lon="3.1421">
        <ele>333</ele>
        <time>2019-12-25T14:13:25.000Z</time>
      </trkpt>
      <trkpt lat="45.94708" lon="3.14224">
        <ele>333</ele>
        <time>2019-12-25T14:13:26.000Z</time>
      </trkpt>
      <trkpt lat="45.94712" lon="3.14248">
        <ele>332.8</ele>
        <time>2019-12-25T14:13:28.000Z</time>
      </trkpt>
      <trkpt lat="45.94713" lon="3.14274">
        <ele>332.3</ele>
        <time>2019-12-25T14:13:30.000Z</time>
      </trkpt>
      <trkpt lat="45.94715" lon="3.14286">
        <ele>332.1</ele>
        <time>2019-12-25T14:13:31.000Z</time>
      </trkpt>
      <trkpt lat="45.94716" lon="3.14299">
        <ele>332</ele>
        <time>2019-12-25T14:13:32.000Z</time>
      </trkpt>
      <trkpt lat="45.94718" lon="3.14324">
        <ele>331.9</ele>
        <time>2019-12-25T14:13:34.000Z</time>
      </trkpt>
      <trkpt lat="45.94719" lon="3.14349">
        <ele>331.9</ele>
        <time>2019-12-25T14:13:36.000Z</time>
      </trkpt>
      <trkpt lat="45.9472" lon="3.14362">
        <ele>331.7</ele>
        <time>2019-12-25T14:13:37.000Z</time>
      </trkpt>
      <trkpt lat="45.94722" lon="3.14387">
        <ele>331.2</ele>
        <time>2019-12-25T14:13:39.000Z</time>
      </trkpt>
      <trkpt lat="45.94723" lon="3.144">
        <ele>331</ele>
        <time>2019-12-25T14:13:40.000Z</time>
      </trkpt>
      <trkpt lat="45.94724" lon="3.14413">
        <ele>330.8</ele>
        <time>2019-12-25T14:13:41.000Z</time>
      </trkpt>
      <trkpt lat="45.94727" lon="3.14439">
        <ele>330.2</ele>
        <time>2019-12-25T14:13:43.000Z</time>
      </trkpt>
      <trkpt lat="45.94728" lon="3.14451">
        <ele>329.9</ele>
        <time>2019-12-25T14:13:44.000Z</time>
      </trkpt>
      <trkpt lat="45.9473" lon="3.14464">
        <ele>329.6</ele>
        <time>2019-12-25T14:13:45.000Z</time>
      </trkpt>
      <trkpt lat="45.94732" lon="3.14489">
        <ele>328.9</ele>
        <time>2019-12-25T14:13:47.000Z</time>
      </trkpt>
      <trkpt lat="45.94734" lon="3.14514">
        <ele>328.9</ele>
        <time>2019-12-25T14:13:49.000Z</time>
      </trkpt>
      <trkpt lat="45.94736" lon="3.14539">
        <ele>328.9</ele>
        <time>2019-12-25T14:13:51.000Z</time>
      </trkpt>
      <trkpt lat="45.94737" lon="3.14564">
        <ele>328.7</ele>
        <time>2019-12-25T14:13:53.000Z</time>
      </trkpt>
      <trkpt lat="45.94737" lon="3.1459">
        <ele>328.6</ele>
        <time>2019-12-25T14:13:55.000Z</time>
      </trkpt>
      <trkpt lat="45.94737" lon="3.14615">
        <ele>328.4</ele>
        <time>2019-12-25T14:13:57.000Z</time>
      </trkpt>
      <trkpt lat="45.94737" lon="3.14628">
        <ele>328.3</ele>
        <time>2019-12-25T14:13:58.000Z</time>
      </trkpt>
      <trkpt lat="45.94737" lon="3.1464">
        <ele>328.2</ele>
        <time>2019-12-25T14:13:59.000Z</time>
      </trkpt>
      <trkpt lat="45.94737" lon="3.14666">
        <ele>328</ele>
        <time>2019-12-25T14:14:01.000Z</time>
      </trkpt>
      <trkpt lat="45.94737" lon="3.14692">
        <ele>327.9</ele>
        <time>2019-12-25T14:14:03.000Z</time>
      </trkpt>
      <trkpt lat="45.94737" lon="3.14719">
        <ele>327.9</ele>
        <time>2019-12-25T14:14:05.000Z</time>
      </trkpt>
      <trkpt lat="45.94736" lon="3.14732">
        <ele>327.8</ele>
        <time>2019-12-25T14:14:06.000Z</time>
      </trkpt>
      <trkpt lat="45.94736" lon="3.14745">
        <ele>327.8</ele>
        <time>2019-12-25T14:14:07.000Z</time>
      </trkpt>
      <trkpt lat="45.94736" lon="3.14771">
        <ele>327.7</ele>
        <time>2019-12-25T14:14:09.000Z</time>
      </trkpt>
      <trkpt lat="45.94735" lon="3.14797">
        <ele>327.5</ele>
        <time>2019-12-25T14:14:11.000Z</time>
      </trkpt>
      <trkpt lat="45.94734" lon="3.14823">
        <ele>327.3</ele>
        <time>2019-12-25T14:14:13.000Z</time>
      </trkpt>
      <trkpt lat="45.94734" lon="3.14836">
        <ele>327.1</ele>
        <time>2019-12-25T14:14:14.000Z</time>
      </trkpt>
      <trkpt lat="45.94733" lon="3.14861">
        <ele>326.8</ele>
        <time>2019-12-25T14:14:16.000Z</time>
      </trkpt>
      <trkpt lat="45.94733" lon="3.14888">
        <ele>326.5</ele>
        <time>2019-12-25T14:14:18.000Z</time>
      </trkpt>
      <trkpt lat="45.94732" lon="3.14914">
        <ele>326.2</ele>
        <time>2019-12-25T14:14:20.000Z</time>
      </trkpt>
      <trkpt lat="45.94732" lon="3.14926">
        <ele>326</ele>
        <time>2019-12-25T14:14:21.000Z</time>
      </trkpt>
      <trkpt lat="45.94731" lon="3.14952">
        <ele>325.6</ele>
        <time>2019-12-25T14:14:23.000Z</time>
      </trkpt>
      <trkpt lat="45.94731" lon="3.14978">
        <ele>325.2</ele>
        <time>2019-12-25T14:14:25.000Z</time>
      </trkpt>
      <trkpt lat="45.9473" lon="3.15004">
        <ele>324.7</ele>
        <time>2019-12-25T14:14:27.000Z</time>
      </trkpt>
      <trkpt lat="45.9473" lon="3.15017">
        <ele>324.6</ele>
        <time>2019-12-25T14:14:28.000Z</time>
      </trkpt>
      <trkpt lat="45.9473" lon="3.1503">
        <ele>324.6</ele>
        <time>2019-12-25T14:14:29.000Z</time>
      </trkpt>
      <trkpt lat="45.9473" lon="3.15055">
        <ele>325.1</ele>
        <time>2019-12-25T14:14:31.000Z</time>
      </trkpt>
      <trkpt lat="45.94729" lon="3.1508">
        <ele>325.4</ele>
        <time>2019-12-25T14:14:33.000Z</time>
      </trkpt>
      <trkpt lat="45.94729" lon="3.15106">
        <ele>325.5</ele>
        <time>2019-12-25T14:14:35.000Z</time>
      </trkpt>
      <trkpt lat="45.94728" lon="3.15119">
        <ele>325.5</ele>
        <time>2019-12-25T14:14:36.000Z</time>
      </trkpt>
      <trkpt lat="45.94728" lon="3.15131">
        <ele>325.5</ele>
        <time>2019-12-25T14:14:37.000Z</time>
      </trkpt>
      <trkpt lat="45.94728" lon="3.15157">
        <ele>325.5</ele>
        <time>2019-12-25T14:14:39.000Z</time>
      </trkpt>
      <trkpt lat="45.94728" lon="3.15183">
        <ele>325.5</ele>
        <time>2019-12-25T14:14:41.000Z</time>
      </trkpt>
      <trkpt lat="45.94727" lon="3.15209">
        <ele>325.5</ele>
        <time>2019-12-25T14:14:43.000Z</time>
      </trkpt>
      <trkpt lat="45.94727" lon="3.15222">
        <ele>325.5</ele>
        <time>2019-12-25T14:14:44.000Z</time>
      </trkpt>
      <trkpt lat="45.94727" lon="3.15235">
        <ele>325.5</ele>
        <time>2019-12-25T14:14:45.000Z</time>
      </trkpt>
      <trkpt lat="45.94726" lon="3.1526">
        <ele>325.5</ele>
        <time>2019-12-25T14:14:47.000Z</time>
      </trkpt>
      <trkpt lat="45.94725" lon="3.15273">
        <ele>325.5</ele>
        <time>2019-12-25T14:14:48.000Z</time>
      </trkpt>
      <trkpt lat="45.94723" lon="3.15298">
        <ele>325.5</ele>
        <time>2019-12-25T14:14:50.000Z</time>
      </trkpt>
      <trkpt lat="45.94721" lon="3.15323">
        <ele>325.5</ele>
        <time>2019-12-25T14:14:52.000Z</time>
      </trkpt>
      <trkpt lat="45.9472" lon="3.15336">
        <ele>325.5</ele>
        <time>2019-12-25T14:14:53.000Z</time>
      </trkpt>
      <trkpt lat="45.94718" lon="3.1536">
        <ele>325.5</ele>
        <time>2019-12-25T14:14:55.000Z</time>
      </trkpt>
      <trkpt lat="45.94716" lon="3.15385">
        <ele>325.6</ele>
        <time>2019-12-25T14:14:57.000Z</time>
      </trkpt>
      <trkpt lat="45.94714" lon="3.15411">
        <ele>325.7</ele>
        <time>2019-12-25T14:14:59.000Z</time>
      </trkpt>
      <trkpt lat="45.94713" lon="3.15424">
        <ele>325.8</ele>
        <time>2019-12-25T14:15:00.000Z</time>
      </trkpt>
      <trkpt lat="45.94712" lon="3.15437">
        <ele>325.9</ele>
        <time>2019-12-25T14:15:01.000Z</time>
      </trkpt>
      <trkpt lat="45.9471" lon="3.15463">
        <ele>326.1</ele>
        <time>2019-12-25T14:15:03.000Z</time>
      </trkpt>
      <trkpt lat="45.94708" lon="3.15489">
        <ele>326.2</ele>
        <time>2019-12-25T14:15:05.000Z</time>
      </trkpt>
      <trkpt lat="45.94707" lon="3.15502">
        <ele>326.3</ele>
        <time>2019-12-25T14:15:06.000Z</time>
      </trkpt>
      <trkpt lat="45.94705" lon="3.15515">
        <ele>326.3</ele>
        <time>2019-12-25T14:15:07.000Z</time>
      </trkpt>
      <trkpt lat="45.94703" lon="3.15541">
        <ele>326.4</ele>
        <time>2019-12-25T14:15:09.000Z</time>
      </trkpt>
      <trkpt lat="45.94702" lon="3.15554">
        <ele>326.4</ele>
        <time>2019-12-25T14:15:10.000Z</time>
      </trkpt>
      <trkpt lat="45.94697" lon="3.1558">
        <ele>326.4</ele>
        <time>2019-12-25T14:15:12.000Z</time>
      </trkpt>
      <trkpt lat="45.94694" lon="3.15592">
        <ele>326.4</ele>
        <time>2019-12-25T14:15:13.000Z</time>
      </trkpt>
      <trkpt lat="45.94688" lon="3.15616">
        <ele>326.4</ele>
        <time>2019-12-25T14:15:15.000Z</time>
      </trkpt>
      <trkpt lat="45.94682" lon="3.1564">
        <ele>326.4</ele>
        <time>2019-12-25T14:15:17.000Z</time>
      </trkpt>
      <trkpt lat="45.94675" lon="3.15664">
        <ele>326.4</ele>
        <time>2019-12-25T14:15:19.000Z</time>
      </trkpt>
      <trkpt lat="45.94671" lon="3.15676">
        <ele>326.4</ele>
        <time>2019-12-25T14:15:20.000Z</time>
      </trkpt>
      <trkpt lat="45.94661" lon="3.15696">
        <ele>326.4</ele>
        <time>2019-12-25T14:15:22.000Z</time>
      </trkpt>
      <trkpt lat="45.94647" lon="3.1571">
        <ele>326.4</ele>
        <time>2019-12-25T14:15:24.000Z</time>
      </trkpt>
      <trkpt lat="45.94638" lon="3.15712">
        <ele>326.4</ele>
        <time>2019-12-25T14:15:25.000Z</time>
      </trkpt>
      <trkpt lat="45.9462" lon="3.15712">
        <ele>326.3</ele>
        <time>2019-12-25T14:15:27.000Z</time>
      </trkpt>
      <trkpt lat="45.94611" lon="3.15711">
        <ele>326.3</ele>
        <time>2019-12-25T14:15:28.000Z</time>
      </trkpt>
      <trkpt lat="45.94595" lon="3.15713">
        <ele>326.3</ele>
        <time>2019-12-25T14:15:30.000Z</time>
      </trkpt>
      <trkpt lat="45.94588" lon="3.15717">
        <ele>326.3</ele>
        <time>2019-12-25T14:15:31.000Z</time>
      </trkpt>
      <trkpt lat="45.94577" lon="3.15733">
        <ele>326.3</ele>
        <time>2019-12-25T14:15:33.000Z</time>
      </trkpt>
      <trkpt lat="45.94569" lon="3.1575">
        <ele>326.5</ele>
        <time>2019-12-25T14:15:35.000Z</time>
      </trkpt>
      <trkpt lat="45.94559" lon="3.15763">
        <ele>327.1</ele>
        <time>2019-12-25T14:15:37.000Z</time>
      </trkpt>
      <trkpt lat="45.94547" lon="3.1576">
        <ele>327</ele>
        <time>2019-12-25T14:15:39.000Z</time>
      </trkpt>
      <trkpt lat="45.94536" lon="3.15748">
        <ele>326.7</ele>
        <time>2019-12-25T14:15:41.000Z</time>
      </trkpt>
      <trkpt lat="45.9453" lon="3.15741">
        <ele>326.6</ele>
        <time>2019-12-25T14:15:42.000Z</time>
      </trkpt>
      <trkpt lat="45.94518" lon="3.15729">
        <ele>326.2</ele>
        <time>2019-12-25T14:15:44.000Z</time>
      </trkpt>
      <trkpt lat="45.94506" lon="3.15717">
        <ele>325.9</ele>
        <time>2019-12-25T14:15:46.000Z</time>
      </trkpt>
      <trkpt lat="45.94495" lon="3.15706">
        <ele>325.9</ele>
        <time>2019-12-25T14:15:48.000Z</time>
      </trkpt>
      <trkpt lat="45.94489" lon="3.157">
        <ele>325.9</ele>
        <time>2019-12-25T14:15:49.000Z</time>
      </trkpt>
      <trkpt lat="45.94477" lon="3.15689">
        <ele>326</ele>
        <time>2019-12-25T14:15:51.000Z</time>
      </trkpt>
      <trkpt lat="45.94465" lon="3.15679">
        <ele>326.1</ele>
        <time>2019-12-25T14:15:53.000Z</time>
      </trkpt>
      <trkpt lat="45.94459" lon="3.15674">
        <ele>326.3</ele>
        <time>2019-12-25T14:15:54.000Z</time>
      </trkpt>
      <trkpt lat="45.94454" lon="3.15669">
        <ele>326.4</ele>
        <time>2019-12-25T14:15:55.000Z</time>
      </trkpt>
      <trkpt lat="45.94442" lon="3.15659">
        <ele>326.7</ele>
        <time>2019-12-25T14:15:57.000Z</time>
      </trkpt>
      <trkpt lat="45.9443" lon="3.15649">
        <ele>327</ele>
        <time>2019-12-25T14:15:59.000Z</time>
      </trkpt>
      <trkpt lat="45.94424" lon="3.15644">
        <ele>327.2</ele>
        <time>2019-12-25T14:16:00.000Z</time>
      </trkpt>
      <trkpt lat="45.94412" lon="3.15634">
        <ele>327.6</ele>
        <time>2019-12-25T14:16:02.000Z</time>
      </trkpt>
      <trkpt lat="45.94401" lon="3.15623">
        <ele>328.1</ele>
        <time>2019-12-25T14:16:04.000Z</time>
      </trkpt>
      <trkpt lat="45.94395" lon="3.15618">
        <ele>328.3</ele>
        <time>2019-12-25T14:16:05.000Z</time>
      </trkpt>
      <trkpt lat="45.94383" lon="3.15608">
        <ele>328.8</ele>
        <time>2019-12-25T14:16:07.000Z</time>
      </trkpt>
      <trkpt lat="45.94377" lon="3.15603">
        <ele>329.1</ele>
        <time>2019-12-25T14:16:08.000Z</time>
      </trkpt>
      <trkpt lat="45.94372" lon="3.15598">
        <ele>329.4</ele>
        <time>2019-12-25T14:16:09.000Z</time>
      </trkpt>
      <trkpt lat="45.9436" lon="3.15588">
        <ele>329.8</ele>
        <time>2019-12-25T14:16:11.000Z</time>
      </trkpt>
      <trkpt lat="45.94355" lon="3.15583">
        <ele>330</ele>
        <time>2019-12-25T14:16:12.000Z</time>
      </trkpt>
      <trkpt lat="45.9435" lon="3.15578">
        <ele>330.2</ele>
        <time>2019-12-25T14:16:13.000Z</time>
      </trkpt>
      <trkpt lat="45.94345" lon="3.15573">
        <ele>330.5</ele>
        <time>2019-12-25T14:16:14.000Z</time>
      </trkpt>
      <trkpt lat="45.94334" lon="3.15563">
        <ele>330.9</ele>
        <time>2019-12-25T14:16:16.000Z</time>
      </trkpt>
      <trkpt lat="45.94328" lon="3.15559">
        <ele>331.3</ele>
        <time>2019-12-25T14:16:17.000Z</time>
      </trkpt>
      <trkpt lat="45.94318" lon="3.1555">
        <ele>332.1</ele>
        <time>2019-12-25T14:16:19.000Z</time>
      </trkpt>
      <trkpt lat="45.94314" lon="3.15545">
        <ele>332.4</ele>
        <time>2019-12-25T14:16:20.000Z</time>
      </trkpt>
      <trkpt lat="45.94303" lon="3.15537">
        <ele>332.9</ele>
        <time>2019-12-25T14:16:22.000Z</time>
      </trkpt>
      <trkpt lat="45.94299" lon="3.15532">
        <ele>333.2</ele>
        <time>2019-12-25T14:16:23.000Z</time>
      </trkpt>
      <trkpt lat="45.94289" lon="3.15522">
        <ele>333.8</ele>
        <time>2019-12-25T14:16:25.000Z</time>
      </trkpt>
      <trkpt lat="45.94279" lon="3.15514">
        <ele>334.5</ele>
        <time>2019-12-25T14:16:27.000Z</time>
      </trkpt>
      <trkpt lat="45.9427" lon="3.15505">
        <ele>335.1</ele>
        <time>2019-12-25T14:16:29.000Z</time>
      </trkpt>
      <trkpt lat="45.94259" lon="3.15496">
        <ele>335.6</ele>
        <time>2019-12-25T14:16:31.000Z</time>
      </trkpt>
      <trkpt lat="45.94255" lon="3.15492">
        <ele>336</ele>
        <time>2019-12-25T14:16:32.000Z</time>
      </trkpt>
      <trkpt lat="45.94246" lon="3.15484">
        <ele>336.7</ele>
        <time>2019-12-25T14:16:34.000Z</time>
      </trkpt>
      <trkpt lat="45.94236" lon="3.15476">
        <ele>337.4</ele>
        <time>2019-12-25T14:16:36.000Z</time>
      </trkpt>
      <trkpt lat="45.94226" lon="3.15467">
        <ele>337.8</ele>
        <time>2019-12-25T14:16:38.000Z</time>
      </trkpt>
      <trkpt lat="45.94217" lon="3.15459">
        <ele>338.2</ele>
        <time>2019-12-25T14:16:40.000Z</time>
      </trkpt>
      <trkpt lat="45.94212" lon="3.15454">
        <ele>338.4</ele>
        <time>2019-12-25T14:16:41.000Z</time>
      </trkpt>
      <trkpt lat="45.94202" lon="3.15445">
        <ele>338.7</ele>
        <time>2019-12-25T14:16:43.000Z</time>
      </trkpt>
      <trkpt lat="45.94192" lon="3.15436">
        <ele>339.1</ele>
        <time>2019-12-25T14:16:45.000Z</time>
      </trkpt>
      <trkpt lat="45.94182" lon="3.15427">
        <ele>339.4</ele>
        <time>2019-12-25T14:16:47.000Z</time>
      </trkpt>
      <trkpt lat="45.94171" lon="3.15417">
        <ele>339.8</ele>
        <time>2019-12-25T14:16:49.000Z</time>
      </trkpt>
      <trkpt lat="45.94161" lon="3.15408">
        <ele>340.3</ele>
        <time>2019-12-25T14:16:51.000Z</time>
      </trkpt>
      <trkpt lat="45.94155" lon="3.15404">
        <ele>340.6</ele>
        <time>2019-12-25T14:16:52.000Z</time>
      </trkpt>
      <trkpt lat="45.9415" lon="3.15399">
        <ele>340.8</ele>
        <time>2019-12-25T14:16:53.000Z</time>
      </trkpt>
      <trkpt lat="45.94139" lon="3.15389">
        <ele>341.3</ele>
        <time>2019-12-25T14:16:55.000Z</time>
      </trkpt>
      <trkpt lat="45.94128" lon="3.15379">
        <ele>341.8</ele>
        <time>2019-12-25T14:16:57.000Z</time>
      </trkpt>
      <trkpt lat="45.94115" lon="3.15369">
        <ele>342.1</ele>
        <time>2019-12-25T14:16:59.000Z</time>
      </trkpt>
      <trkpt lat="45.94109" lon="3.15364">
        <ele>342.2</ele>
        <time>2019-12-25T14:17:00.000Z</time>
      </trkpt>
      <trkpt lat="45.94097" lon="3.15352">
        <ele>342.4</ele>
        <time>2019-12-25T14:17:02.000Z</time>
      </trkpt>
      <trkpt lat="45.94083" lon="3.1534">
        <ele>342.5</ele>
        <time>2019-12-25T14:17:04.000Z</time>
      </trkpt>
      <trkpt lat="45.94076" lon="3.15333">
        <ele>342.4</ele>
        <time>2019-12-25T14:17:05.000Z</time>
      </trkpt>
      <trkpt lat="45.94062" lon="3.15321">
        <ele>342.1</ele>
        <time>2019-12-25T14:17:07.000Z</time>
      </trkpt>
      <trkpt lat="45.94046" lon="3.15309">
        <ele>341.9</ele>
        <time>2019-12-25T14:17:09.000Z</time>
      </trkpt>
      <trkpt lat="45.94031" lon="3.15296">
        <ele>341.5</ele>
        <time>2019-12-25T14:17:11.000Z</time>
      </trkpt>
      <trkpt lat="45.94023" lon="3.1529">
        <ele>341.2</ele>
        <time>2019-12-25T14:17:12.000Z</time>
      </trkpt>
      <trkpt lat="45.94006" lon="3.15276">
        <ele>340.9</ele>
        <time>2019-12-25T14:17:14.000Z</time>
      </trkpt>
      <trkpt lat="45.9399" lon="3.15262">
        <ele>340.9</ele>
        <time>2019-12-25T14:17:16.000Z</time>
      </trkpt>
      <trkpt lat="45.93973" lon="3.15248">
        <ele>340.9</ele>
        <time>2019-12-25T14:17:18.000Z</time>
      </trkpt>
      <trkpt lat="45.93955" lon="3.15233">
        <ele>340.9</ele>
        <time>2019-12-25T14:17:20.000Z</time>
      </trkpt>
      <trkpt lat="45.93946" lon="3.15226">
        <ele>340.9</ele>
        <time>2019-12-25T14:17:21.000Z</time>
      </trkpt>
      <trkpt lat="45.93928" lon="3.1521">
        <ele>341</ele>
        <time>2019-12-25T14:17:23.000Z</time>
      </trkpt>
      <trkpt lat="45.9392" lon="3.15203">
        <ele>341</ele>
        <time>2019-12-25T14:17:24.000Z</time>
      </trkpt>
      <trkpt lat="45.93902" lon="3.15187">
        <ele>341</ele>
        <time>2019-12-25T14:17:26.000Z</time>
      </trkpt>
      <trkpt lat="45.93884" lon="3.15171">
        <ele>341</ele>
        <time>2019-12-25T14:17:28.000Z</time>
      </trkpt>
      <trkpt lat="45.93866" lon="3.15155">
        <ele>340.9</ele>
        <time>2019-12-25T14:17:30.000Z</time>
      </trkpt>
      <trkpt lat="45.93857" lon="3.15147">
        <ele>340.7</ele>
        <time>2019-12-25T14:17:31.000Z</time>
      </trkpt>
      <trkpt lat="45.93838" lon="3.15131">
        <ele>340.2</ele>
        <time>2019-12-25T14:17:33.000Z</time>
      </trkpt>
      <trkpt lat="45.93819" lon="3.15116">
        <ele>340.1</ele>
        <time>2019-12-25T14:17:35.000Z</time>
      </trkpt>
      <trkpt lat="45.9381" lon="3.15107">
        <ele>340.1</ele>
        <time>2019-12-25T14:17:36.000Z</time>
      </trkpt>
      <trkpt lat="45.93791" lon="3.1509">
        <ele>339.9</ele>
        <time>2019-12-25T14:17:38.000Z</time>
      </trkpt>
      <trkpt lat="45.93781" lon="3.15082">
        <ele>339.6</ele>
        <time>2019-12-25T14:17:39.000Z</time>
      </trkpt>
      <trkpt lat="45.93772" lon="3.15074">
        <ele>339.2</ele>
        <time>2019-12-25T14:17:40.000Z</time>
      </trkpt>
      <trkpt lat="45.93754" lon="3.15057">
        <ele>339.1</ele>
        <time>2019-12-25T14:17:42.000Z</time>
      </trkpt>
      <trkpt lat="45.93734" lon="3.1504">
        <ele>339</ele>
        <time>2019-12-25T14:17:44.000Z</time>
      </trkpt>
      <trkpt lat="45.93725" lon="3.15032">
        <ele>339</ele>
        <time>2019-12-25T14:17:45.000Z</time>
      </trkpt>
      <trkpt lat="45.93706" lon="3.15015">
        <ele>338.8</ele>
        <time>2019-12-25T14:17:47.000Z</time>
      </trkpt>
      <trkpt lat="45.93686" lon="3.14998">
        <ele>338.6</ele>
        <time>2019-12-25T14:17:49.000Z</time>
      </trkpt>
      <trkpt lat="45.93677" lon="3.1499">
        <ele>338.5</ele>
        <time>2019-12-25T14:17:50.000Z</time>
      </trkpt>
      <trkpt lat="45.93667" lon="3.14981">
        <ele>338.4</ele>
        <time>2019-12-25T14:17:51.000Z</time>
      </trkpt>
      <trkpt lat="45.93647" lon="3.14964">
        <ele>338.3</ele>
        <time>2019-12-25T14:17:53.000Z</time>
      </trkpt>
      <trkpt lat="45.93627" lon="3.14947">
        <ele>338.3</ele>
        <time>2019-12-25T14:17:55.000Z</time>
      </trkpt>
      <trkpt lat="45.93618" lon="3.14939">
        <ele>338.3</ele>
        <time>2019-12-25T14:17:56.000Z</time>
      </trkpt>
      <trkpt lat="45.93599" lon="3.14922">
        <ele>338.3</ele>
        <time>2019-12-25T14:17:58.000Z</time>
      </trkpt>
      <trkpt lat="45.9358" lon="3.14905">
        <ele>338.4</ele>
        <time>2019-12-25T14:18:00.000Z</time>
      </trkpt>
      <trkpt lat="45.93571" lon="3.14897">
        <ele>338.4</ele>
        <time>2019-12-25T14:18:01.000Z</time>
      </trkpt>
      <trkpt lat="45.93562" lon="3.14889">
        <ele>338.5</ele>
        <time>2019-12-25T14:18:02.000Z</time>
      </trkpt>
      <trkpt lat="45.93553" lon="3.14881">
        <ele>338.6</ele>
        <time>2019-12-25T14:18:03.000Z</time>
      </trkpt>
      <trkpt lat="45.93535" lon="3.14865">
        <ele>338.8</ele>
        <time>2019-12-25T14:18:05.000Z</time>
      </trkpt>
      <trkpt lat="45.93518" lon="3.1485">
        <ele>339</ele>
        <time>2019-12-25T14:18:07.000Z</time>
      </trkpt>
      <trkpt lat="45.93501" lon="3.14837">
        <ele>339.2</ele>
        <time>2019-12-25T14:18:09.000Z</time>
      </trkpt>
      <trkpt lat="45.93494" lon="3.1483">
        <ele>339.4</ele>
        <time>2019-12-25T14:18:10.000Z</time>
      </trkpt>
      <trkpt lat="45.93486" lon="3.14823">
        <ele>339.7</ele>
        <time>2019-12-25T14:18:11.000Z</time>
      </trkpt>
      <trkpt lat="45.93472" lon="3.14811">
        <ele>340.2</ele>
        <time>2019-12-25T14:18:13.000Z</time>
      </trkpt>
      <trkpt lat="45.93465" lon="3.14805">
        <ele>340.5</ele>
        <time>2019-12-25T14:18:14.000Z</time>
      </trkpt>
      <trkpt lat="45.93452" lon="3.14793">
        <ele>340.9</ele>
        <time>2019-12-25T14:18:16.000Z</time>
      </trkpt>
      <trkpt lat="45.9344" lon="3.14781">
        <ele>341.5</ele>
        <time>2019-12-25T14:18:18.000Z</time>
      </trkpt>
      <trkpt lat="45.93434" lon="3.14775">
        <ele>341.7</ele>
        <time>2019-12-25T14:18:19.000Z</time>
      </trkpt>
      <trkpt lat="45.93428" lon="3.14769">
        <ele>342</ele>
        <time>2019-12-25T14:18:20.000Z</time>
      </trkpt>
      <trkpt lat="45.93416" lon="3.14759">
        <ele>342.5</ele>
        <time>2019-12-25T14:18:22.000Z</time>
      </trkpt>
      <trkpt lat="45.9341" lon="3.14753">
        <ele>342.7</ele>
        <time>2019-12-25T14:18:23.000Z</time>
      </trkpt>
      <trkpt lat="45.93399" lon="3.14743">
        <ele>343.2</ele>
        <time>2019-12-25T14:18:25.000Z</time>
      </trkpt>
      <trkpt lat="45.93393" lon="3.14737">
        <ele>343.4</ele>
        <time>2019-12-25T14:18:26.000Z</time>
      </trkpt>
      <trkpt lat="45.93388" lon="3.14732">
        <ele>343.6</ele>
        <time>2019-12-25T14:18:27.000Z</time>
      </trkpt>
      <trkpt lat="45.93382" lon="3.14727">
        <ele>343.9</ele>
        <time>2019-12-25T14:18:28.000Z</time>
      </trkpt>
      <trkpt lat="45.9337" lon="3.14716">
        <ele>344.6</ele>
        <time>2019-12-25T14:18:30.000Z</time>
      </trkpt>
      <trkpt lat="45.93358" lon="3.14705">
        <ele>345.4</ele>
        <time>2019-12-25T14:18:32.000Z</time>
      </trkpt>
      <trkpt lat="45.93346" lon="3.14694">
        <ele>346.1</ele>
        <time>2019-12-25T14:18:34.000Z</time>
      </trkpt>
      <trkpt lat="45.93335" lon="3.14683">
        <ele>346.8</ele>
        <time>2019-12-25T14:18:36.000Z</time>
      </trkpt>
      <trkpt lat="45.93323" lon="3.14672">
        <ele>347.3</ele>
        <time>2019-12-25T14:18:38.000Z</time>
      </trkpt>
      <trkpt lat="45.9331" lon="3.14661">
        <ele>347.8</ele>
        <time>2019-12-25T14:18:40.000Z</time>
      </trkpt>
      <trkpt lat="45.93298" lon="3.1465">
        <ele>348</ele>
        <time>2019-12-25T14:18:42.000Z</time>
      </trkpt>
      <trkpt lat="45.93286" lon="3.14639">
        <ele>348</ele>
        <time>2019-12-25T14:18:44.000Z</time>
      </trkpt>
      <trkpt lat="45.93273" lon="3.14628">
        <ele>348</ele>
        <time>2019-12-25T14:18:46.000Z</time>
      </trkpt>
      <trkpt lat="45.9326" lon="3.14616">
        <ele>348.1</ele>
        <time>2019-12-25T14:18:48.000Z</time>
      </trkpt>
      <trkpt lat="45.93253" lon="3.14611">
        <ele>348.1</ele>
        <time>2019-12-25T14:18:49.000Z</time>
      </trkpt>
      <trkpt lat="45.93247" lon="3.14605">
        <ele>348.1</ele>
        <time>2019-12-25T14:18:50.000Z</time>
      </trkpt>
      <trkpt lat="45.93233" lon="3.14592">
        <ele>348</ele>
        <time>2019-12-25T14:18:52.000Z</time>
      </trkpt>
      <trkpt lat="45.93219" lon="3.1458">
        <ele>347.9</ele>
        <time>2019-12-25T14:18:54.000Z</time>
      </trkpt>
      <trkpt lat="45.93205" lon="3.14568">
        <ele>347.4</ele>
        <time>2019-12-25T14:18:56.000Z</time>
      </trkpt>
      <trkpt lat="45.93197" lon="3.14561">
        <ele>347</ele>
        <time>2019-12-25T14:18:57.000Z</time>
      </trkpt>
      <trkpt lat="45.93181" lon="3.14547">
        <ele>346.1</ele>
        <time>2019-12-25T14:18:59.000Z</time>
      </trkpt>
      <trkpt lat="45.93173" lon="3.1454">
        <ele>345.8</ele>
        <time>2019-12-25T14:19:00.000Z</time>
      </trkpt>
      <trkpt lat="45.93164" lon="3.14533">
        <ele>345.6</ele>
        <time>2019-12-25T14:19:01.000Z</time>
      </trkpt>
      <trkpt lat="45.93146" lon="3.14518">
        <ele>345.2</ele>
        <time>2019-12-25T14:19:03.000Z</time>
      </trkpt>
      <trkpt lat="45.93127" lon="3.14501">
        <ele>344.7</ele>
        <time>2019-12-25T14:19:05.000Z</time>
      </trkpt>
      <trkpt lat="45.93117" lon="3.14493">
        <ele>344.4</ele>
        <time>2019-12-25T14:19:06.000Z</time>
      </trkpt>
      <trkpt lat="45.93107" lon="3.14484">
        <ele>344.1</ele>
        <time>2019-12-25T14:19:07.000Z</time>
      </trkpt>
      <trkpt lat="45.93085" lon="3.14467">
        <ele>343.3</ele>
        <time>2019-12-25T14:19:09.000Z</time>
      </trkpt>
      <trkpt lat="45.93065" lon="3.14449">
        <ele>342.6</ele>
        <time>2019-12-25T14:19:11.000Z</time>
      </trkpt>
      <trkpt lat="45.93054" lon="3.14439">
        <ele>342.2</ele>
        <time>2019-12-25T14:19:12.000Z</time>
      </trkpt>
      <trkpt lat="45.93032" lon="3.1442">
        <ele>341.5</ele>
        <time>2019-12-25T14:19:14.000Z</time>
      </trkpt>
      <trkpt lat="45.93021" lon="3.1441">
        <ele>341.1</ele>
        <time>2019-12-25T14:19:15.000Z</time>
      </trkpt>
      <trkpt lat="45.92998" lon="3.14394">
        <ele>340.5</ele>
        <time>2019-12-25T14:19:17.000Z</time>
      </trkpt>
      <trkpt lat="45.92975" lon="3.14379">
        <ele>339.9</ele>
        <time>2019-12-25T14:19:19.000Z</time>
      </trkpt>
      <trkpt lat="45.92963" lon="3.14372">
        <ele>339.7</ele>
        <time>2019-12-25T14:19:20.000Z</time>
      </trkpt>
      <trkpt lat="45.92951" lon="3.14366">
        <ele>339.5</ele>
        <time>2019-12-25T14:19:21.000Z</time>
      </trkpt>
      <trkpt lat="45.92927" lon="3.14355">
        <ele>339.2</ele>
        <time>2019-12-25T14:19:23.000Z</time>
      </trkpt>
      <trkpt lat="45.92915" lon="3.1435">
        <ele>339</ele>
        <time>2019-12-25T14:19:24.000Z</time>
      </trkpt>
      <trkpt lat="45.92891" lon="3.14339">
        <ele>338.5</ele>
        <time>2019-12-25T14:19:26.000Z</time>
      </trkpt>
      <trkpt lat="45.92879" lon="3.14334">
        <ele>338.4</ele>
        <time>2019-12-25T14:19:27.000Z</time>
      </trkpt>
      <trkpt lat="45.92868" lon="3.14328">
        <ele>338.3</ele>
        <time>2019-12-25T14:19:28.000Z</time>
      </trkpt>
      <trkpt lat="45.92845" lon="3.14317">
        <ele>338.2</ele>
        <time>2019-12-25T14:19:30.000Z</time>
      </trkpt>
      <trkpt lat="45.92834" lon="3.14311">
        <ele>338.1</ele>
        <time>2019-12-25T14:19:31.000Z</time>
      </trkpt>
      <trkpt lat="45.92824" lon="3.14306">
        <ele>338</ele>
        <time>2019-12-25T14:19:32.000Z</time>
      </trkpt>
      <trkpt lat="45.92813" lon="3.14301">
        <ele>338</ele>
        <time>2019-12-25T14:19:33.000Z</time>
      </trkpt>
      <trkpt lat="45.92793" lon="3.14291">
        <ele>338</ele>
        <time>2019-12-25T14:19:35.000Z</time>
      </trkpt>
      <trkpt lat="45.92773" lon="3.14282">
        <ele>338.2</ele>
        <time>2019-12-25T14:19:37.000Z</time>
      </trkpt>
      <trkpt lat="45.92754" lon="3.14274">
        <ele>338.5</ele>
        <time>2019-12-25T14:19:39.000Z</time>
      </trkpt>
      <trkpt lat="45.92745" lon="3.1427">
        <ele>338.7</ele>
        <time>2019-12-25T14:19:40.000Z</time>
      </trkpt>
      <trkpt lat="45.92727" lon="3.14263">
        <ele>339.1</ele>
        <time>2019-12-25T14:19:42.000Z</time>
      </trkpt>
      <trkpt lat="45.92718" lon="3.14259">
        <ele>339.3</ele>
        <time>2019-12-25T14:19:43.000Z</time>
      </trkpt>
      <trkpt lat="45.9271" lon="3.14255">
        <ele>339.5</ele>
        <time>2019-12-25T14:19:44.000Z</time>
      </trkpt>
      <trkpt lat="45.92693" lon="3.14251">
        <ele>340</ele>
        <time>2019-12-25T14:19:46.000Z</time>
      </trkpt>
      <trkpt lat="45.92684" lon="3.14251">
        <ele>340.3</ele>
        <time>2019-12-25T14:19:47.000Z</time>
      </trkpt>
      <trkpt lat="45.92668" lon="3.1426">
        <ele>341</ele>
        <time>2019-12-25T14:19:49.000Z</time>
      </trkpt>
      <trkpt lat="45.92662" lon="3.14269">
        <ele>341.3</ele>
        <time>2019-12-25T14:19:50.000Z</time>
      </trkpt>
      <trkpt lat="45.92657" lon="3.1428">
        <ele>341.5</ele>
        <time>2019-12-25T14:19:51.000Z</time>
      </trkpt>
      <trkpt lat="45.92651" lon="3.14306">
        <ele>341.4</ele>
        <time>2019-12-25T14:19:53.000Z</time>
      </trkpt>
      <trkpt lat="45.92648" lon="3.1432">
        <ele>341.3</ele>
        <time>2019-12-25T14:19:54.000Z</time>
      </trkpt>
      <trkpt lat="45.92641" lon="3.14346">
        <ele>340.6</ele>
        <time>2019-12-25T14:19:56.000Z</time>
      </trkpt>
      <trkpt lat="45.92636" lon="3.14372">
        <ele>339.9</ele>
        <time>2019-12-25T14:19:58.000Z</time>
      </trkpt>
      <trkpt lat="45.92634" lon="3.144">
        <ele>339.4</ele>
        <time>2019-12-25T14:20:00.000Z</time>
      </trkpt>
      <trkpt lat="45.92635" lon="3.14427">
        <ele>339.3</ele>
        <time>2019-12-25T14:20:02.000Z</time>
      </trkpt>
      <trkpt lat="45.92637" lon="3.14456">
        <ele>339.2</ele>
        <time>2019-12-25T14:20:04.000Z</time>
      </trkpt>
      <trkpt lat="45.92638" lon="3.14485">
        <ele>339.2</ele>
        <time>2019-12-25T14:20:06.000Z</time>
      </trkpt>
      <trkpt lat="45.92641" lon="3.14513">
        <ele>339.2</ele>
        <time>2019-12-25T14:20:08.000Z</time>
      </trkpt>
      <trkpt lat="45.92646" lon="3.1454">
        <ele>339.3</ele>
        <time>2019-12-25T14:20:10.000Z</time>
      </trkpt>
      <trkpt lat="45.92651" lon="3.14567">
        <ele>339.6</ele>
        <time>2019-12-25T14:20:12.000Z</time>
      </trkpt>
      <trkpt lat="45.92655" lon="3.14595">
        <ele>340.2</ele>
        <time>2019-12-25T14:20:14.000Z</time>
      </trkpt>
      <trkpt lat="45.92659" lon="3.14622">
        <ele>340.9</ele>
        <time>2019-12-25T14:20:16.000Z</time>
      </trkpt>
      <trkpt lat="45.92661" lon="3.14635">
        <ele>341.3</ele>
        <time>2019-12-25T14:20:17.000Z</time>
      </trkpt>
      <trkpt lat="45.92664" lon="3.14647">
        <ele>341.7</ele>
        <time>2019-12-25T14:20:18.000Z</time>
      </trkpt>
      <trkpt lat="45.92667" lon="3.14671">
        <ele>342.3</ele>
        <time>2019-12-25T14:20:20.000Z</time>
      </trkpt>
      <trkpt lat="45.92671" lon="3.14694">
        <ele>343</ele>
        <time>2019-12-25T14:20:22.000Z</time>
      </trkpt>
      <trkpt lat="45.92675" lon="3.14715">
        <ele>343.7</ele>
        <time>2019-12-25T14:20:24.000Z</time>
      </trkpt>
      <trkpt lat="45.92678" lon="3.14735">
        <ele>344.2</ele>
        <time>2019-12-25T14:20:26.000Z</time>
      </trkpt>
      <trkpt lat="45.9268" lon="3.14744">
        <ele>344.5</ele>
        <time>2019-12-25T14:20:27.000Z</time>
      </trkpt>
      <trkpt lat="45.92682" lon="3.14753">
        <ele>344.7</ele>
        <time>2019-12-25T14:20:28.000Z</time>
      </trkpt>
      <trkpt lat="45.92687" lon="3.1477">
        <ele>345.1</ele>
        <time>2019-12-25T14:20:30.000Z</time>
      </trkpt>
      <trkpt lat="45.92691" lon="3.14788">
        <ele>345.5</ele>
        <time>2019-12-25T14:20:32.000Z</time>
      </trkpt>
      <trkpt lat="45.92694" lon="3.14797">
        <ele>345.7</ele>
        <time>2019-12-25T14:20:33.000Z</time>
      </trkpt>
      <trkpt lat="45.92699" lon="3.14813">
        <ele>345.9</ele>
        <time>2019-12-25T14:20:35.000Z</time>
      </trkpt>
      <trkpt lat="45.92704" lon="3.14828">
        <ele>346</ele>
        <time>2019-12-25T14:20:37.000Z</time>
      </trkpt>
      <trkpt lat="45.92707" lon="3.14844">
        <ele>346</ele>
        <time>2019-12-25T14:20:39.000Z</time>
      </trkpt>
      <trkpt lat="45.92709" lon="3.14853">
        <ele>346.1</ele>
        <time>2019-12-25T14:20:40.000Z</time>
      </trkpt>
      <trkpt lat="45.92712" lon="3.1487">
        <ele>346.1</ele>
        <time>2019-12-25T14:20:42.000Z</time>
      </trkpt>
      <trkpt lat="45.92714" lon="3.14878">
        <ele>346.1</ele>
        <time>2019-12-25T14:20:43.000Z</time>
      </trkpt>
      <trkpt lat="45.92716" lon="3.14894">
        <ele>346</ele>
        <time>2019-12-25T14:20:45.000Z</time>
      </trkpt>
      <trkpt lat="45.92716" lon="3.14911">
        <ele>346</ele>
        <time>2019-12-25T14:20:47.000Z</time>
      </trkpt>
      <trkpt lat="45.92716" lon="3.14919">
        <ele>346</ele>
        <time>2019-12-25T14:20:48.000Z</time>
      </trkpt>
      <trkpt lat="45.92716" lon="3.14937">
        <ele>346</ele>
        <time>2019-12-25T14:20:50.000Z</time>
      </trkpt>
      <trkpt lat="45.92717" lon="3.14955">
        <ele>346</ele>
        <time>2019-12-25T14:20:52.000Z</time>
      </trkpt>
      <trkpt lat="45.92717" lon="3.14964">
        <ele>346</ele>
        <time>2019-12-25T14:20:53.000Z</time>
      </trkpt>
      <trkpt lat="45.92715" lon="3.14983">
        <ele>346</ele>
        <time>2019-12-25T14:20:55.000Z</time>
      </trkpt>
      <trkpt lat="45.92714" lon="3.15003">
        <ele>346</ele>
        <time>2019-12-25T14:20:57.000Z</time>
      </trkpt>
      <trkpt lat="45.92713" lon="3.15013">
        <ele>346</ele>
        <time>2019-12-25T14:20:58.000Z</time>
      </trkpt>
      <trkpt lat="45.92711" lon="3.15023">
        <ele>346</ele>
        <time>2019-12-25T14:20:59.000Z</time>
      </trkpt>
      <trkpt lat="45.92709" lon="3.15043">
        <ele>346</ele>
        <time>2019-12-25T14:21:01.000Z</time>
      </trkpt>
      <trkpt lat="45.92708" lon="3.15054">
        <ele>346</ele>
        <time>2019-12-25T14:21:02.000Z</time>
      </trkpt>
      <trkpt lat="45.92707" lon="3.15074">
        <ele>346</ele>
        <time>2019-12-25T14:21:04.000Z</time>
      </trkpt>
      <trkpt lat="45.92707" lon="3.15096">
        <ele>346</ele>
        <time>2019-12-25T14:21:06.000Z</time>
      </trkpt>
      <trkpt lat="45.92708" lon="3.15108">
        <ele>346</ele>
        <time>2019-12-25T14:21:07.000Z</time>
      </trkpt>
      <trkpt lat="45.92711" lon="3.15131">
        <ele>346</ele>
        <time>2019-12-25T14:21:09.000Z</time>
      </trkpt>
      <trkpt lat="45.92713" lon="3.15143">
        <ele>346</ele>
        <time>2019-12-25T14:21:10.000Z</time>
      </trkpt>
      <trkpt lat="45.92715" lon="3.15167">
        <ele>346</ele>
        <time>2019-12-25T14:21:12.000Z</time>
      </trkpt>
      <trkpt lat="45.92718" lon="3.15191">
        <ele>345.9</ele>
        <time>2019-12-25T14:21:14.000Z</time>
      </trkpt>
      <trkpt lat="45.92719" lon="3.15203">
        <ele>345.9</ele>
        <time>2019-12-25T14:21:15.000Z</time>
      </trkpt>
      <trkpt lat="45.92721" lon="3.15215">
        <ele>345.9</ele>
        <time>2019-12-25T14:21:16.000Z</time>
      </trkpt>
      <trkpt lat="45.92724" lon="3.15239">
        <ele>345.9</ele>
        <time>2019-12-25T14:21:18.000Z</time>
      </trkpt>
      <trkpt lat="45.92726" lon="3.15263">
        <ele>346.1</ele>
        <time>2019-12-25T14:21:20.000Z</time>
      </trkpt>
      <trkpt lat="45.92728" lon="3.15275">
        <ele>346.4</ele>
        <time>2019-12-25T14:21:21.000Z</time>
      </trkpt>
      <trkpt lat="45.9273" lon="3.15299">
        <ele>346.5</ele>
        <time>2019-12-25T14:21:23.000Z</time>
      </trkpt>
      <trkpt lat="45.92732" lon="3.15311">
        <ele>346.5</ele>
        <time>2019-12-25T14:21:24.000Z</time>
      </trkpt>
      <trkpt lat="45.92735" lon="3.15336">
        <ele>346.5</ele>
        <time>2019-12-25T14:21:26.000Z</time>
      </trkpt>
      <trkpt lat="45.92736" lon="3.15348">
        <ele>346.6</ele>
        <time>2019-12-25T14:21:27.000Z</time>
      </trkpt>
      <trkpt lat="45.9274" lon="3.15373">
        <ele>346.7</ele>
        <time>2019-12-25T14:21:29.000Z</time>
      </trkpt>
      <trkpt lat="45.92742" lon="3.15386">
        <ele>346.7</ele>
        <time>2019-12-25T14:21:30.000Z</time>
      </trkpt>
      <trkpt lat="45.92744" lon="3.15399">
        <ele>347</ele>
        <time>2019-12-25T14:21:31.000Z</time>
      </trkpt>
      <trkpt lat="45.92746" lon="3.15412">
        <ele>347.2</ele>
        <time>2019-12-25T14:21:32.000Z</time>
      </trkpt>
      <trkpt lat="45.9275" lon="3.15438">
        <ele>347.7</ele>
        <time>2019-12-25T14:21:34.000Z</time>
      </trkpt>
      <trkpt lat="45.92751" lon="3.15451">
        <ele>347.7</ele>
        <time>2019-12-25T14:21:35.000Z</time>
      </trkpt>
      <trkpt lat="45.92754" lon="3.15477">
        <ele>347.1</ele>
        <time>2019-12-25T14:21:37.000Z</time>
      </trkpt>
      <trkpt lat="45.92755" lon="3.1549">
        <ele>346.7</ele>
        <time>2019-12-25T14:21:38.000Z</time>
      </trkpt>
      <trkpt lat="45.92759" lon="3.15516">
        <ele>345.8</ele>
        <time>2019-12-25T14:21:40.000Z</time>
      </trkpt>
      <trkpt lat="45.92761" lon="3.15529">
        <ele>345.4</ele>
        <time>2019-12-25T14:21:41.000Z</time>
      </trkpt>
      <trkpt lat="45.92762" lon="3.15556">
        <ele>344.7</ele>
        <time>2019-12-25T14:21:43.000Z</time>
      </trkpt>
      <trkpt lat="45.92761" lon="3.15571">
        <ele>344.4</ele>
        <time>2019-12-25T14:21:44.000Z</time>
      </trkpt>
      <trkpt lat="45.92758" lon="3.15599">
        <ele>344</ele>
        <time>2019-12-25T14:21:46.000Z</time>
      </trkpt>
      <trkpt lat="45.92756" lon="3.15613">
        <ele>343.5</ele>
        <time>2019-12-25T14:21:47.000Z</time>
      </trkpt>
      <trkpt lat="45.92755" lon="3.15642">
        <ele>342.7</ele>
        <time>2019-12-25T14:21:49.000Z</time>
      </trkpt>
      <trkpt lat="45.92756" lon="3.1567">
        <ele>341.5</ele>
        <time>2019-12-25T14:21:51.000Z</time>
      </trkpt>
      <trkpt lat="45.92756" lon="3.15684">
        <ele>341.2</ele>
        <time>2019-12-25T14:21:52.000Z</time>
      </trkpt>
      <trkpt lat="45.92755" lon="3.15711">
        <ele>341.2</ele>
        <time>2019-12-25T14:21:54.000Z</time>
      </trkpt>
      <trkpt lat="45.92751" lon="3.15737">
        <ele>341.1</ele>
        <time>2019-12-25T14:21:56.000Z</time>
      </trkpt>
      <trkpt lat="45.92748" lon="3.1575">
        <ele>341</ele>
        <time>2019-12-25T14:21:57.000Z</time>
      </trkpt>
      <trkpt lat="45.92742" lon="3.15776">
        <ele>340.8</ele>
        <time>2019-12-25T14:21:59.000Z</time>
      </trkpt>
      <trkpt lat="45.92738" lon="3.15801">
        <ele>340.6</ele>
        <time>2019-12-25T14:22:01.000Z</time>
      </trkpt>
      <trkpt lat="45.92736" lon="3.15813">
        <ele>340.4</ele>
        <time>2019-12-25T14:22:02.000Z</time>
      </trkpt>
      <trkpt lat="45.92731" lon="3.15823">
        <ele>340.4</ele>
        <time>2019-12-25T14:22:03.000Z</time>
      </trkpt>
      <trkpt lat="45.92723" lon="3.15828">
        <ele>340.8</ele>
        <time>2019-12-25T14:22:04.000Z</time>
      </trkpt>
      <trkpt lat="45.92703" lon="3.15829">
        <ele>341.4</ele>
        <time>2019-12-25T14:22:06.000Z</time>
      </trkpt>
      <trkpt lat="45.92694" lon="3.15826">
        <ele>341.5</ele>
        <time>2019-12-25T14:22:07.000Z</time>
      </trkpt>
      <trkpt lat="45.92684" lon="3.1582">
        <ele>341.7</ele>
        <time>2019-12-25T14:22:08.000Z</time>
      </trkpt>
      <trkpt lat="45.92664" lon="3.1581">
        <ele>342</ele>
        <time>2019-12-25T14:22:10.000Z</time>
      </trkpt>
      <trkpt lat="45.92654" lon="3.15806">
        <ele>341.7</ele>
        <time>2019-12-25T14:22:11.000Z</time>
      </trkpt>
      <trkpt lat="45.92633" lon="3.15798">
        <ele>341.1</ele>
        <time>2019-12-25T14:22:13.000Z</time>
      </trkpt>
      <trkpt lat="45.92622" lon="3.15794">
        <ele>340.7</ele>
        <time>2019-12-25T14:22:14.000Z</time>
      </trkpt>
      <trkpt lat="45.9261" lon="3.15792">
        <ele>340.3</ele>
        <time>2019-12-25T14:22:15.000Z</time>
      </trkpt>
      <trkpt lat="45.92587" lon="3.15793">
        <ele>339.5</ele>
        <time>2019-12-25T14:22:17.000Z</time>
      </trkpt>
      <trkpt lat="45.92575" lon="3.15796">
        <ele>339</ele>
        <time>2019-12-25T14:22:18.000Z</time>
      </trkpt>
      <trkpt lat="45.92551" lon="3.15805">
        <ele>337.8</ele>
        <time>2019-12-25T14:22:20.000Z</time>
      </trkpt>
      <trkpt lat="45.92527" lon="3.15815">
        <ele>336.3</ele>
        <time>2019-12-25T14:22:22.000Z</time>
      </trkpt>
      <trkpt lat="45.92515" lon="3.15821">
        <ele>335.4</ele>
        <time>2019-12-25T14:22:23.000Z</time>
      </trkpt>
      <trkpt lat="45.92503" lon="3.15827">
        <ele>334.6</ele>
        <time>2019-12-25T14:22:24.000Z</time>
      </trkpt>
      <trkpt lat="45.92479" lon="3.15838">
        <ele>332.9</ele>
        <time>2019-12-25T14:22:26.000Z</time>
      </trkpt>
      <trkpt lat="45.92469" lon="3.15842">
        <ele>332.1</ele>
        <time>2019-12-25T14:22:27.000Z</time>
      </trkpt>
      <trkpt lat="45.92452" lon="3.15849">
        <ele>330.8</ele>
        <time>2019-12-25T14:22:29.000Z</time>
      </trkpt>
      <trkpt lat="45.92446" lon="3.15852">
        <ele>330.2</ele>
        <time>2019-12-25T14:22:30.000Z</time>
      </trkpt>
      <trkpt lat="45.92438" lon="3.15855">
        <ele>329.4</ele>
        <time>2019-12-25T14:22:32.000Z</time>
      </trkpt>
      <trkpt lat="45.92434" lon="3.15855">
        <ele>329</ele>
        <time>2019-12-25T14:22:33.000Z</time>
      </trkpt>
      <trkpt lat="45.92427" lon="3.15849">
        <ele>327.7</ele>
        <time>2019-12-25T14:22:35.000Z</time>
      </trkpt>
      <trkpt lat="45.92421" lon="3.15833">
        <ele>325.3</ele>
        <time>2019-12-25T14:22:37.000Z</time>
      </trkpt>
      <trkpt lat="45.92414" lon="3.15812">
        <ele>325.3</ele>
        <time>2019-12-25T14:22:39.000Z</time>
      </trkpt>
      <trkpt lat="45.92406" lon="3.15788">
        <ele>325.3</ele>
        <time>2019-12-25T14:22:41.000Z</time>
      </trkpt>
      <trkpt lat="45.92397" lon="3.15761">
        <ele>324.9</ele>
        <time>2019-12-25T14:22:43.000Z</time>
      </trkpt>
      <trkpt lat="45.9239" lon="3.15733">
        <ele>324.5</ele>
        <time>2019-12-25T14:22:45.000Z</time>
      </trkpt>
      <trkpt lat="45.92383" lon="3.15705">
        <ele>324.5</ele>
        <time>2019-12-25T14:22:47.000Z</time>
      </trkpt>
      <trkpt lat="45.92381" lon="3.1569">
        <ele>324.5</ele>
        <time>2019-12-25T14:22:48.000Z</time>
      </trkpt>
      <trkpt lat="45.92376" lon="3.15661">
        <ele>324.6</ele>
        <time>2019-12-25T14:22:50.000Z</time>
      </trkpt>
      <trkpt lat="45.92371" lon="3.15631">
        <ele>324.7</ele>
        <time>2019-12-25T14:22:52.000Z</time>
      </trkpt>
      <trkpt lat="45.92367" lon="3.15617">
        <ele>324.7</ele>
        <time>2019-12-25T14:22:53.000Z</time>
      </trkpt>
      <trkpt lat="45.92363" lon="3.15603">
        <ele>324.7</ele>
        <time>2019-12-25T14:22:54.000Z</time>
      </trkpt>
      <trkpt lat="45.92355" lon="3.15576">
        <ele>324.6</ele>
        <time>2019-12-25T14:22:56.000Z</time>
      </trkpt>
      <trkpt lat="45.92345" lon="3.15549">
        <ele>324.3</ele>
        <time>2019-12-25T14:22:58.000Z</time>
      </trkpt>
      <trkpt lat="45.92335" lon="3.15524">
        <ele>323.9</ele>
        <time>2019-12-25T14:23:00.000Z</time>
      </trkpt>
      <trkpt lat="45.92329" lon="3.15512">
        <ele>323.7</ele>
        <time>2019-12-25T14:23:01.000Z</time>
      </trkpt>
      <trkpt lat="45.92316" lon="3.15489">
        <ele>323.5</ele>
        <time>2019-12-25T14:23:03.000Z</time>
      </trkpt>
      <trkpt lat="45.92309" lon="3.15478">
        <ele>323.5</ele>
        <time>2019-12-25T14:23:04.000Z</time>
      </trkpt>
      <trkpt lat="45.92294" lon="3.15457">
        <ele>323.4</ele>
        <time>2019-12-25T14:23:06.000Z</time>
      </trkpt>
      <trkpt lat="45.92279" lon="3.15436">
        <ele>323.3</ele>
        <time>2019-12-25T14:23:08.000Z</time>
      </trkpt>
      <trkpt lat="45.92271" lon="3.15426">
        <ele>322.9</ele>
        <time>2019-12-25T14:23:09.000Z</time>
      </trkpt>
      <trkpt lat="45.92263" lon="3.15416">
        <ele>322.5</ele>
        <time>2019-12-25T14:23:10.000Z</time>
      </trkpt>
      <trkpt lat="45.92247" lon="3.15398">
        <ele>321.8</ele>
        <time>2019-12-25T14:23:12.000Z</time>
      </trkpt>
      <trkpt lat="45.92231" lon="3.15381">
        <ele>321.5</ele>
        <time>2019-12-25T14:23:14.000Z</time>
      </trkpt>
      <trkpt lat="45.92223" lon="3.15372">
        <ele>321.3</ele>
        <time>2019-12-25T14:23:15.000Z</time>
      </trkpt>
      <trkpt lat="45.92215" lon="3.15363">
        <ele>321.2</ele>
        <time>2019-12-25T14:23:16.000Z</time>
      </trkpt>
      <trkpt lat="45.92207" lon="3.15355">
        <ele>321.1</ele>
        <time>2019-12-25T14:23:17.000Z</time>
      </trkpt>
      <trkpt lat="45.9219" lon="3.15338">
        <ele>320.8</ele>
        <time>2019-12-25T14:23:19.000Z</time>
      </trkpt>
      <trkpt lat="45.92174" lon="3.15321">
        <ele>320.5</ele>
        <time>2019-12-25T14:23:21.000Z</time>
      </trkpt>
      <trkpt lat="45.92166" lon="3.15313">
        <ele>320.5</ele>
        <time>2019-12-25T14:23:22.000Z</time>
      </trkpt>
      <trkpt lat="45.92149" lon="3.15296">
        <ele>320.6</ele>
        <time>2019-12-25T14:23:24.000Z</time>
      </trkpt>
      <trkpt lat="45.92142" lon="3.15287">
        <ele>320.6</ele>
        <time>2019-12-25T14:23:25.000Z</time>
      </trkpt>
      <trkpt lat="45.92126" lon="3.15271">
        <ele>320.6</ele>
        <time>2019-12-25T14:23:27.000Z</time>
      </trkpt>
      <trkpt lat="45.92111" lon="3.15254">
        <ele>320.7</ele>
        <time>2019-12-25T14:23:29.000Z</time>
      </trkpt>
      <trkpt lat="45.92103" lon="3.15246">
        <ele>320.8</ele>
        <time>2019-12-25T14:23:30.000Z</time>
      </trkpt>
      <trkpt lat="45.92096" lon="3.15237">
        <ele>320.9</ele>
        <time>2019-12-25T14:23:31.000Z</time>
      </trkpt>
      <trkpt lat="45.92082" lon="3.15218">
        <ele>321.3</ele>
        <time>2019-12-25T14:23:33.000Z</time>
      </trkpt>
      <trkpt lat="45.92068" lon="3.15198">
        <ele>321.1</ele>
        <time>2019-12-25T14:23:35.000Z</time>
      </trkpt>
      <trkpt lat="45.92062" lon="3.15188">
        <ele>320.9</ele>
        <time>2019-12-25T14:23:36.000Z</time>
      </trkpt>
      <trkpt lat="45.9205" lon="3.15167">
        <ele>320.6</ele>
        <time>2019-12-25T14:23:38.000Z</time>
      </trkpt>
      <trkpt lat="45.92044" lon="3.15157">
        <ele>320.4</ele>
        <time>2019-12-25T14:23:39.000Z</time>
      </trkpt>
      <trkpt lat="45.92031" lon="3.15137">
        <ele>320.3</ele>
        <time>2019-12-25T14:23:41.000Z</time>
      </trkpt>
      <trkpt lat="45.92025" lon="3.15127">
        <ele>320.3</ele>
        <time>2019-12-25T14:23:42.000Z</time>
      </trkpt>
      <trkpt lat="45.92013" lon="3.15107">
        <ele>320.3</ele>
        <time>2019-12-25T14:23:44.000Z</time>
      </trkpt>
      <trkpt lat="45.92001" lon="3.15088">
        <ele>320.4</ele>
        <time>2019-12-25T14:23:46.000Z</time>
      </trkpt>
      <trkpt lat="45.91995" lon="3.15079">
        <ele>320.6</ele>
        <time>2019-12-25T14:23:47.000Z</time>
      </trkpt>
      <trkpt lat="45.91982" lon="3.15061">
        <ele>320.8</ele>
        <time>2019-12-25T14:23:49.000Z</time>
      </trkpt>
      <trkpt lat="45.91976" lon="3.15051">
        <ele>320.9</ele>
        <time>2019-12-25T14:23:50.000Z</time>
      </trkpt>
      <trkpt lat="45.91964" lon="3.15034">
        <ele>320.9</ele>
        <time>2019-12-25T14:23:52.000Z</time>
      </trkpt>
      <trkpt lat="45.91957" lon="3.15026">
        <ele>320.9</ele>
        <time>2019-12-25T14:23:53.000Z</time>
      </trkpt>
      <trkpt lat="45.91944" lon="3.15011">
        <ele>321</ele>
        <time>2019-12-25T14:23:55.000Z</time>
      </trkpt>
      <trkpt lat="45.91929" lon="3.14997">
        <ele>321.2</ele>
        <time>2019-12-25T14:23:57.000Z</time>
      </trkpt>
      <trkpt lat="45.91915" lon="3.14984">
        <ele>321.6</ele>
        <time>2019-12-25T14:23:59.000Z</time>
      </trkpt>
      <trkpt lat="45.91901" lon="3.14971">
        <ele>321.8</ele>
        <time>2019-12-25T14:24:01.000Z</time>
      </trkpt>
      <trkpt lat="45.91887" lon="3.14958">
        <ele>321.9</ele>
        <time>2019-12-25T14:24:03.000Z</time>
      </trkpt>
      <trkpt lat="45.91879" lon="3.14951">
        <ele>322</ele>
        <time>2019-12-25T14:24:04.000Z</time>
      </trkpt>
      <trkpt lat="45.91865" lon="3.14937">
        <ele>322.3</ele>
        <time>2019-12-25T14:24:06.000Z</time>
      </trkpt>
      <trkpt lat="45.9185" lon="3.14924">
        <ele>322.7</ele>
        <time>2019-12-25T14:24:08.000Z</time>
      </trkpt>
      <trkpt lat="45.91837" lon="3.14911">
        <ele>322.8</ele>
        <time>2019-12-25T14:24:10.000Z</time>
      </trkpt>
      <trkpt lat="45.91795" lon="3.14883">
        <ele>322.8</ele>
        <time>2019-12-25T14:24:15.000Z</time>
      </trkpt>
      <trkpt lat="45.91791" lon="3.14871">
        <ele>322.7</ele>
        <time>2019-12-25T14:24:16.000Z</time>
      </trkpt>
      <trkpt lat="45.91785" lon="3.14865">
        <ele>322.6</ele>
        <time>2019-12-25T14:24:17.000Z</time>
      </trkpt>
      <trkpt lat="45.91771" lon="3.14852">
        <ele>322.6</ele>
        <time>2019-12-25T14:24:19.000Z</time>
      </trkpt>
      <trkpt lat="45.91757" lon="3.14839">
        <ele>322.6</ele>
        <time>2019-12-25T14:24:21.000Z</time>
      </trkpt>
      <trkpt lat="45.9175" lon="3.14832">
        <ele>322.6</ele>
        <time>2019-12-25T14:24:22.000Z</time>
      </trkpt>
      <trkpt lat="45.91743" lon="3.14825">
        <ele>322.6</ele>
        <time>2019-12-25T14:24:23.000Z</time>
      </trkpt>
      <trkpt lat="45.91728" lon="3.14812">
        <ele>322.6</ele>
        <time>2019-12-25T14:24:25.000Z</time>
      </trkpt>
      <trkpt lat="45.91721" lon="3.14805">
        <ele>322.6</ele>
        <time>2019-12-25T14:24:26.000Z</time>
      </trkpt>
      <trkpt lat="45.91714" lon="3.14798">
        <ele>322.6</ele>
        <time>2019-12-25T14:24:27.000Z</time>
      </trkpt>
      <trkpt lat="45.91707" lon="3.14792">
        <ele>322.7</ele>
        <time>2019-12-25T14:24:28.000Z</time>
      </trkpt>
      <trkpt lat="45.91692" lon="3.14779">
        <ele>323</ele>
        <time>2019-12-25T14:24:30.000Z</time>
      </trkpt>
      <trkpt lat="45.91685" lon="3.14773">
        <ele>323.2</ele>
        <time>2019-12-25T14:24:31.000Z</time>
      </trkpt>
      <trkpt lat="45.91671" lon="3.14759">
        <ele>323.4</ele>
        <time>2019-12-25T14:24:33.000Z</time>
      </trkpt>
      <trkpt lat="45.91657" lon="3.14746">
        <ele>323.5</ele>
        <time>2019-12-25T14:24:35.000Z</time>
      </trkpt>
      <trkpt lat="45.91649" lon="3.1474">
        <ele>323.5</ele>
        <time>2019-12-25T14:24:36.000Z</time>
      </trkpt>
      <trkpt lat="45.91635" lon="3.14727">
        <ele>323.5</ele>
        <time>2019-12-25T14:24:38.000Z</time>
      </trkpt>
      <trkpt lat="45.91622" lon="3.14714">
        <ele>323.5</ele>
        <time>2019-12-25T14:24:40.000Z</time>
      </trkpt>
      <trkpt lat="45.91608" lon="3.147">
        <ele>323.5</ele>
        <time>2019-12-25T14:24:42.000Z</time>
      </trkpt>
      <trkpt lat="45.91601" lon="3.14693">
        <ele>323.5</ele>
        <time>2019-12-25T14:24:43.000Z</time>
      </trkpt>
      <trkpt lat="45.91589" lon="3.14679">
        <ele>323.5</ele>
        <time>2019-12-25T14:24:45.000Z</time>
      </trkpt>
      <trkpt lat="45.91582" lon="3.14672">
        <ele>323.5</ele>
        <time>2019-12-25T14:24:46.000Z</time>
      </trkpt>
      <trkpt lat="45.9157" lon="3.14658">
        <ele>323.7</ele>
        <time>2019-12-25T14:24:48.000Z</time>
      </trkpt>
      <trkpt lat="45.91559" lon="3.14643">
        <ele>324</ele>
        <time>2019-12-25T14:24:50.000Z</time>
      </trkpt>
      <trkpt lat="45.91553" lon="3.14636">
        <ele>324.1</ele>
        <time>2019-12-25T14:24:51.000Z</time>
      </trkpt>
      <trkpt lat="45.91543" lon="3.1462">
        <ele>324.4</ele>
        <time>2019-12-25T14:24:53.000Z</time>
      </trkpt>
      <trkpt lat="45.91533" lon="3.14604">
        <ele>324.5</ele>
        <time>2019-12-25T14:24:55.000Z</time>
      </trkpt>
      <trkpt lat="45.91523" lon="3.14589">
        <ele>324.7</ele>
        <time>2019-12-25T14:24:57.000Z</time>
      </trkpt>
      <trkpt lat="45.91518" lon="3.14581">
        <ele>324.8</ele>
        <time>2019-12-25T14:24:58.000Z</time>
      </trkpt>
      <trkpt lat="45.91508" lon="3.14567">
        <ele>325</ele>
        <time>2019-12-25T14:25:00.000Z</time>
      </trkpt>
      <trkpt lat="45.91498" lon="3.14552">
        <ele>325.3</ele>
        <time>2019-12-25T14:25:02.000Z</time>
      </trkpt>
      <trkpt lat="45.91488" lon="3.14537">
        <ele>325.4</ele>
        <time>2019-12-25T14:25:04.000Z</time>
      </trkpt>
      <trkpt lat="45.91483" lon="3.1453">
        <ele>325.5</ele>
        <time>2019-12-25T14:25:05.000Z</time>
      </trkpt>
      <trkpt lat="45.91473" lon="3.14514">
        <ele>325.8</ele>
        <time>2019-12-25T14:25:07.000Z</time>
      </trkpt>
      <trkpt lat="45.91463" lon="3.14498">
        <ele>326.2</ele>
        <time>2019-12-25T14:25:09.000Z</time>
      </trkpt>
      <trkpt lat="45.91458" lon="3.14491">
        <ele>326.4</ele>
        <time>2019-12-25T14:25:10.000Z</time>
      </trkpt>
      <trkpt lat="45.91448" lon="3.14476">
        <ele>326.9</ele>
        <time>2019-12-25T14:25:12.000Z</time>
      </trkpt>
      <trkpt lat="45.91443" lon="3.14468">
        <ele>327.1</ele>
        <time>2019-12-25T14:25:13.000Z</time>
      </trkpt>
      <trkpt lat="45.91433" lon="3.14453">
        <ele>327.6</ele>
        <time>2019-12-25T14:25:15.000Z</time>
      </trkpt>
      <trkpt lat="45.91423" lon="3.14437">
        <ele>328.3</ele>
        <time>2019-12-25T14:25:17.000Z</time>
      </trkpt>
      <trkpt lat="45.91413" lon="3.14422">
        <ele>329</ele>
        <time>2019-12-25T14:25:19.000Z</time>
      </trkpt>
      <trkpt lat="45.91403" lon="3.14406">
        <ele>329.5</ele>
        <time>2019-12-25T14:25:21.000Z</time>
      </trkpt>
      <trkpt lat="45.91393" lon="3.1439">
        <ele>330</ele>
        <time>2019-12-25T14:25:23.000Z</time>
      </trkpt>
      <trkpt lat="45.91383" lon="3.14376">
        <ele>330.3</ele>
        <time>2019-12-25T14:25:25.000Z</time>
      </trkpt>
      <trkpt lat="45.91374" lon="3.14361">
        <ele>330.6</ele>
        <time>2019-12-25T14:25:27.000Z</time>
      </trkpt>
      <trkpt lat="45.91365" lon="3.14345">
        <ele>330.9</ele>
        <time>2019-12-25T14:25:29.000Z</time>
      </trkpt>
      <trkpt lat="45.91361" lon="3.14337">
        <ele>331.1</ele>
        <time>2019-12-25T14:25:30.000Z</time>
      </trkpt>
      <trkpt lat="45.91357" lon="3.14328">
        <ele>331.3</ele>
        <time>2019-12-25T14:25:31.000Z</time>
      </trkpt>
      <trkpt lat="45.9135" lon="3.14311">
        <ele>331.6</ele>
        <time>2019-12-25T14:25:33.000Z</time>
      </trkpt>
      <trkpt lat="45.9134" lon="3.14297">
        <ele>331.4</ele>
        <time>2019-12-25T14:25:35.000Z</time>
      </trkpt>
      <trkpt lat="45.91329" lon="3.14283">
        <ele>331.4</ele>
        <time>2019-12-25T14:25:37.000Z</time>
      </trkpt>
      <trkpt lat="45.9132" lon="3.14265">
        <ele>331.4</ele>
        <time>2019-12-25T14:25:39.000Z</time>
      </trkpt>
      <trkpt lat="45.9131" lon="3.14246">
        <ele>331.4</ele>
        <time>2019-12-25T14:25:41.000Z</time>
      </trkpt>
      <trkpt lat="45.91306" lon="3.14236">
        <ele>331.4</ele>
        <time>2019-12-25T14:25:42.000Z</time>
      </trkpt>
      <trkpt lat="45.91298" lon="3.14215">
        <ele>331.4</ele>
        <time>2019-12-25T14:25:44.000Z</time>
      </trkpt>
      <trkpt lat="45.91294" lon="3.14205">
        <ele>331.4</ele>
        <time>2019-12-25T14:25:45.000Z</time>
      </trkpt>
      <trkpt lat="45.91287" lon="3.14183">
        <ele>331.2</ele>
        <time>2019-12-25T14:25:47.000Z</time>
      </trkpt>
      <trkpt lat="45.91284" lon="3.14171">
        <ele>331</ele>
        <time>2019-12-25T14:25:48.000Z</time>
      </trkpt>
      <trkpt lat="45.91281" lon="3.1416">
        <ele>330.8</ele>
        <time>2019-12-25T14:25:49.000Z</time>
      </trkpt>
      <trkpt lat="45.91274" lon="3.14137">
        <ele>330.5</ele>
        <time>2019-12-25T14:25:51.000Z</time>
      </trkpt>
      <trkpt lat="45.9127" lon="3.14124">
        <ele>330.4</ele>
        <time>2019-12-25T14:25:52.000Z</time>
      </trkpt>
      <trkpt lat="45.91263" lon="3.14099">
        <ele>330.2</ele>
        <time>2019-12-25T14:25:54.000Z</time>
      </trkpt>
      <trkpt lat="45.91259" lon="3.14086">
        <ele>330.1</ele>
        <time>2019-12-25T14:25:55.000Z</time>
      </trkpt>
      <trkpt lat="45.91252" lon="3.1406">
        <ele>329.7</ele>
        <time>2019-12-25T14:25:57.000Z</time>
      </trkpt>
      <trkpt lat="45.91244" lon="3.14033">
        <ele>329.9</ele>
        <time>2019-12-25T14:25:59.000Z</time>
      </trkpt>
      <trkpt lat="45.91241" lon="3.1402">
        <ele>330.1</ele>
        <time>2019-12-25T14:26:00.000Z</time>
      </trkpt>
      <trkpt lat="45.91233" lon="3.13993">
        <ele>330.6</ele>
        <time>2019-12-25T14:26:02.000Z</time>
      </trkpt>
      <trkpt lat="45.91224" lon="3.13966">
        <ele>330.6</ele>
        <time>2019-12-25T14:26:04.000Z</time>
      </trkpt>
      <trkpt lat="45.91216" lon="3.13938">
        <ele>330.4</ele>
        <time>2019-12-25T14:26:06.000Z</time>
      </trkpt>
      <trkpt lat="45.91213" lon="3.13924">
        <ele>330</ele>
        <time>2019-12-25T14:26:07.000Z</time>
      </trkpt>
      <trkpt lat="45.91205" lon="3.13896">
        <ele>329.1</ele>
        <time>2019-12-25T14:26:09.000Z</time>
      </trkpt>
      <trkpt lat="45.91196" lon="3.13868">
        <ele>328.7</ele>
        <time>2019-12-25T14:26:11.000Z</time>
      </trkpt>
      <trkpt lat="45.91188" lon="3.1384">
        <ele>328.5</ele>
        <time>2019-12-25T14:26:13.000Z</time>
      </trkpt>
      <trkpt lat="45.9118" lon="3.13812">
        <ele>327.8</ele>
        <time>2019-12-25T14:26:15.000Z</time>
      </trkpt>
      <trkpt lat="45.91175" lon="3.13799">
        <ele>327.9</ele>
        <time>2019-12-25T14:26:16.000Z</time>
      </trkpt>
      <trkpt lat="45.91171" lon="3.13786">
        <ele>327.9</ele>
        <time>2019-12-25T14:26:17.000Z</time>
      </trkpt>
      <trkpt lat="45.91162" lon="3.13758">
        <ele>328</ele>
        <time>2019-12-25T14:26:19.000Z</time>
      </trkpt>
      <trkpt lat="45.91157" lon="3.13745">
        <ele>328</ele>
        <time>2019-12-25T14:26:20.000Z</time>
      </trkpt>
      <trkpt lat="45.91147" lon="3.13719">
        <ele>327.7</ele>
        <time>2019-12-25T14:26:22.000Z</time>
      </trkpt>
      <trkpt lat="45.91137" lon="3.13693">
        <ele>327.6</ele>
        <time>2019-12-25T14:26:24.000Z</time>
      </trkpt>
      <trkpt lat="45.91125" lon="3.13668">
        <ele>327.3</ele>
        <time>2019-12-25T14:26:26.000Z</time>
      </trkpt>
      <trkpt lat="45.91113" lon="3.13642">
        <ele>327</ele>
        <time>2019-12-25T14:26:28.000Z</time>
      </trkpt>
      <trkpt lat="45.91102" lon="3.13617">
        <ele>326.8</ele>
        <time>2019-12-25T14:26:30.000Z</time>
      </trkpt>
      <trkpt lat="45.91096" lon="3.13603">
        <ele>326.8</ele>
        <time>2019-12-25T14:26:31.000Z</time>
      </trkpt>
      <trkpt lat="45.91084" lon="3.13577">
        <ele>326.8</ele>
        <time>2019-12-25T14:26:33.000Z</time>
      </trkpt>
      <trkpt lat="45.91079" lon="3.13564">
        <ele>326.7</ele>
        <time>2019-12-25T14:26:34.000Z</time>
      </trkpt>
      <trkpt lat="45.91067" lon="3.13538">
        <ele>326.6</ele>
        <time>2019-12-25T14:26:36.000Z</time>
      </trkpt>
      <trkpt lat="45.91062" lon="3.13526">
        <ele>326.4</ele>
        <time>2019-12-25T14:26:37.000Z</time>
      </trkpt>
      <trkpt lat="45.9105" lon="3.13499">
        <ele>326</ele>
        <time>2019-12-25T14:26:39.000Z</time>
      </trkpt>
      <trkpt lat="45.91039" lon="3.13473">
        <ele>325.9</ele>
        <time>2019-12-25T14:26:41.000Z</time>
      </trkpt>
      <trkpt lat="45.91033" lon="3.1346">
        <ele>325.9</ele>
        <time>2019-12-25T14:26:42.000Z</time>
      </trkpt>
      <trkpt lat="45.91021" lon="3.13434">
        <ele>325.9</ele>
        <time>2019-12-25T14:26:44.000Z</time>
      </trkpt>
      <trkpt lat="45.91015" lon="3.1342">
        <ele>325.9</ele>
        <time>2019-12-25T14:26:45.000Z</time>
      </trkpt>
      <trkpt lat="45.91004" lon="3.13394">
        <ele>325.8</ele>
        <time>2019-12-25T14:26:47.000Z</time>
      </trkpt>
      <trkpt lat="45.90999" lon="3.1338">
        <ele>325.7</ele>
        <time>2019-12-25T14:26:48.000Z</time>
      </trkpt>
      <trkpt lat="45.9099" lon="3.13351">
        <ele>325.3</ele>
        <time>2019-12-25T14:26:50.000Z</time>
      </trkpt>
      <trkpt lat="45.90982" lon="3.13322">
        <ele>325</ele>
        <time>2019-12-25T14:26:52.000Z</time>
      </trkpt>
      <trkpt lat="45.90979" lon="3.13307">
        <ele>325</ele>
        <time>2019-12-25T14:26:53.000Z</time>
      </trkpt>
      <trkpt lat="45.90976" lon="3.13292">
        <ele>325</ele>
        <time>2019-12-25T14:26:54.000Z</time>
      </trkpt>
      <trkpt lat="45.90972" lon="3.13262">
        <ele>325</ele>
        <time>2019-12-25T14:26:56.000Z</time>
      </trkpt>
      <trkpt lat="45.9097" lon="3.13248">
        <ele>325</ele>
        <time>2019-12-25T14:26:57.000Z</time>
      </trkpt>
      <trkpt lat="45.90966" lon="3.13218">
        <ele>325</ele>
        <time>2019-12-25T14:26:59.000Z</time>
      </trkpt>
      <trkpt lat="45.90962" lon="3.1319">
        <ele>325</ele>
        <time>2019-12-25T14:27:01.000Z</time>
      </trkpt>
      <trkpt lat="45.9096" lon="3.13176">
        <ele>325</ele>
        <time>2019-12-25T14:27:02.000Z</time>
      </trkpt>
      <trkpt lat="45.90958" lon="3.13161">
        <ele>325</ele>
        <time>2019-12-25T14:27:03.000Z</time>
      </trkpt>
      <trkpt lat="45.90954" lon="3.13133">
        <ele>325</ele>
        <time>2019-12-25T14:27:05.000Z</time>
      </trkpt>
      <trkpt lat="45.90952" lon="3.13118">
        <ele>325</ele>
        <time>2019-12-25T14:27:06.000Z</time>
      </trkpt>
      <trkpt lat="45.9095" lon="3.13103">
        <ele>325</ele>
        <time>2019-12-25T14:27:07.000Z</time>
      </trkpt>
      <trkpt lat="45.90946" lon="3.13075">
        <ele>325</ele>
        <time>2019-12-25T14:27:09.000Z</time>
      </trkpt>
      <trkpt lat="45.90939" lon="3.13049">
        <ele>324.8</ele>
        <time>2019-12-25T14:27:11.000Z</time>
      </trkpt>
      <trkpt lat="45.9093" lon="3.13022">
        <ele>324.4</ele>
        <time>2019-12-25T14:27:13.000Z</time>
      </trkpt>
      <trkpt lat="45.90925" lon="3.12995">
        <ele>324.3</ele>
        <time>2019-12-25T14:27:15.000Z</time>
      </trkpt>
      <trkpt lat="45.90921" lon="3.12969">
        <ele>324.7</ele>
        <time>2019-12-25T14:27:17.000Z</time>
      </trkpt>
      <trkpt lat="45.90916" lon="3.12958">
        <ele>324.9</ele>
        <time>2019-12-25T14:27:18.000Z</time>
      </trkpt>
      <trkpt lat="45.90899" lon="3.12947">
        <ele>324.1</ele>
        <time>2019-12-25T14:27:20.000Z</time>
      </trkpt>
      <trkpt lat="45.90889" lon="3.12945">
        <ele>323.9</ele>
        <time>2019-12-25T14:27:21.000Z</time>
      </trkpt>
      <trkpt lat="45.9088" lon="3.12943">
        <ele>323.5</ele>
        <time>2019-12-25T14:27:22.000Z</time>
      </trkpt>
      <trkpt lat="45.90872" lon="3.12937">
        <ele>323.5</ele>
        <time>2019-12-25T14:27:23.000Z</time>
      </trkpt>
      <trkpt lat="45.90857" lon="3.1292">
        <ele>323.5</ele>
        <time>2019-12-25T14:27:25.000Z</time>
      </trkpt>
      <trkpt lat="45.90842" lon="3.129">
        <ele>323.5</ele>
        <time>2019-12-25T14:27:27.000Z</time>
      </trkpt>
      <trkpt lat="45.90835" lon="3.12891">
        <ele>323.5</ele>
        <time>2019-12-25T14:27:28.000Z</time>
      </trkpt>
      <trkpt lat="45.90827" lon="3.12882">
        <ele>323.5</ele>
        <time>2019-12-25T14:27:29.000Z</time>
      </trkpt>
      <trkpt lat="45.90813" lon="3.12863">
        <ele>323.8</ele>
        <time>2019-12-25T14:27:31.000Z</time>
      </trkpt>
      <trkpt lat="45.90799" lon="3.12846">
        <ele>323.9</ele>
        <time>2019-12-25T14:27:33.000Z</time>
      </trkpt>
      <trkpt lat="45.90785" lon="3.12829">
        <ele>323.7</ele>
        <time>2019-12-25T14:27:35.000Z</time>
      </trkpt>
      <trkpt lat="45.90778" lon="3.1282">
        <ele>323.8</ele>
        <time>2019-12-25T14:27:36.000Z</time>
      </trkpt>
      <trkpt lat="45.90771" lon="3.12811">
        <ele>323.9</ele>
        <time>2019-12-25T14:27:37.000Z</time>
      </trkpt>
      <trkpt lat="45.90758" lon="3.12795">
        <ele>324.3</ele>
        <time>2019-12-25T14:27:39.000Z</time>
      </trkpt>
      <trkpt lat="45.90745" lon="3.12776">
        <ele>324.3</ele>
        <time>2019-12-25T14:27:41.000Z</time>
      </trkpt>
      <trkpt lat="45.90734" lon="3.12756">
        <ele>324.6</ele>
        <time>2019-12-25T14:27:43.000Z</time>
      </trkpt>
      <trkpt lat="45.90724" lon="3.12734">
        <ele>325.1</ele>
        <time>2019-12-25T14:27:45.000Z</time>
      </trkpt>
      <trkpt lat="45.9072" lon="3.12723">
        <ele>325.1</ele>
        <time>2019-12-25T14:27:46.000Z</time>
      </trkpt>
      <trkpt lat="45.90715" lon="3.127">
        <ele>325.1</ele>
        <time>2019-12-25T14:27:48.000Z</time>
      </trkpt>
      <trkpt lat="45.90714" lon="3.12687">
        <ele>325.1</ele>
        <time>2019-12-25T14:27:49.000Z</time>
      </trkpt>
      <trkpt lat="45.90712" lon="3.12675">
        <ele>325.2</ele>
        <time>2019-12-25T14:27:50.000Z</time>
      </trkpt>
      <trkpt lat="45.90711" lon="3.12651">
        <ele>325.3</ele>
        <time>2019-12-25T14:27:52.000Z</time>
      </trkpt>
      <trkpt lat="45.90712" lon="3.12627">
        <ele>325.3</ele>
        <time>2019-12-25T14:27:54.000Z</time>
      </trkpt>
      <trkpt lat="45.90713" lon="3.12615">
        <ele>325.3</ele>
        <time>2019-12-25T14:27:55.000Z</time>
      </trkpt>
      <trkpt lat="45.90714" lon="3.12592">
        <ele>325.1</ele>
        <time>2019-12-25T14:27:57.000Z</time>
      </trkpt>
      <trkpt lat="45.90717" lon="3.12569">
        <ele>324.8</ele>
        <time>2019-12-25T14:27:59.000Z</time>
      </trkpt>
      <trkpt lat="45.9072" lon="3.12558">
        <ele>324.6</ele>
        <time>2019-12-25T14:28:00.000Z</time>
      </trkpt>
      <trkpt lat="45.90734" lon="3.12544">
        <ele>324.3</ele>
        <time>2019-12-25T14:28:02.000Z</time>
      </trkpt>
      <trkpt lat="45.90748" lon="3.12532">
        <ele>324</ele>
        <time>2019-12-25T14:28:04.000Z</time>
      </trkpt>
      <trkpt lat="45.90753" lon="3.12523">
        <ele>323.8</ele>
        <time>2019-12-25T14:28:05.000Z</time>
      </trkpt>
      <trkpt lat="45.90761" lon="3.12502">
        <ele>323.5</ele>
        <time>2019-12-25T14:28:07.000Z</time>
      </trkpt>
      <trkpt lat="45.90763" lon="3.12479">
        <ele>323.3</ele>
        <time>2019-12-25T14:28:09.000Z</time>
      </trkpt>
      <trkpt lat="45.90763" lon="3.12467">
        <ele>323.1</ele>
        <time>2019-12-25T14:28:10.000Z</time>
      </trkpt>
      <trkpt lat="45.90761" lon="3.12456">
        <ele>323.1</ele>
        <time>2019-12-25T14:28:11.000Z</time>
      </trkpt>
      <trkpt lat="45.90754" lon="3.12435">
        <ele>323</ele>
        <time>2019-12-25T14:28:13.000Z</time>
      </trkpt>
      <trkpt lat="45.90749" lon="3.12426">
        <ele>322.9</ele>
        <time>2019-12-25T14:28:14.000Z</time>
      </trkpt>
      <trkpt lat="45.90736" lon="3.1241">
        <ele>323</ele>
        <time>2019-12-25T14:28:16.000Z</time>
      </trkpt>
      <trkpt lat="45.90729" lon="3.12405">
        <ele>323</ele>
        <time>2019-12-25T14:28:17.000Z</time>
      </trkpt>
      <trkpt lat="45.90721" lon="3.124">
        <ele>323.1</ele>
        <time>2019-12-25T14:28:18.000Z</time>
      </trkpt>
      <trkpt lat="45.90704" lon="3.12397">
        <ele>323.3</ele>
        <time>2019-12-25T14:28:20.000Z</time>
      </trkpt>
      <trkpt lat="45.90687" lon="3.12403">
        <ele>323.4</ele>
        <time>2019-12-25T14:28:22.000Z</time>
      </trkpt>
      <trkpt lat="45.90679" lon="3.12408">
        <ele>323.4</ele>
        <time>2019-12-25T14:28:23.000Z</time>
      </trkpt>
      <trkpt lat="45.90662" lon="3.12415">
        <ele>323.6</ele>
        <time>2019-12-25T14:28:25.000Z</time>
      </trkpt>
      <trkpt lat="45.90654" lon="3.12414">
        <ele>323.6</ele>
        <time>2019-12-25T14:28:26.000Z</time>
      </trkpt>
      <trkpt lat="45.90636" lon="3.12404">
        <ele>323.7</ele>
        <time>2019-12-25T14:28:28.000Z</time>
      </trkpt>
      <trkpt lat="45.90629" lon="3.12395">
        <ele>323.8</ele>
        <time>2019-12-25T14:28:29.000Z</time>
      </trkpt>
      <trkpt lat="45.90616" lon="3.12377">
        <ele>324</ele>
        <time>2019-12-25T14:28:31.000Z</time>
      </trkpt>
      <trkpt lat="45.90609" lon="3.12368">
        <ele>324</ele>
        <time>2019-12-25T14:28:32.000Z</time>
      </trkpt>
      <trkpt lat="45.90595" lon="3.1235">
        <ele>324.3</ele>
        <time>2019-12-25T14:28:34.000Z</time>
      </trkpt>
      <trkpt lat="45.90581" lon="3.12333">
        <ele>324.6</ele>
        <time>2019-12-25T14:28:36.000Z</time>
      </trkpt>
      <trkpt lat="45.90566" lon="3.12316">
        <ele>324.7</ele>
        <time>2019-12-25T14:28:38.000Z</time>
      </trkpt>
      <trkpt lat="45.90559" lon="3.12308">
        <ele>324.8</ele>
        <time>2019-12-25T14:28:39.000Z</time>
      </trkpt>
      <trkpt lat="45.90544" lon="3.12292">
        <ele>325</ele>
        <time>2019-12-25T14:28:41.000Z</time>
      </trkpt>
      <trkpt lat="45.90537" lon="3.12284">
        <ele>325.1</ele>
        <time>2019-12-25T14:28:42.000Z</time>
      </trkpt>
      <trkpt lat="45.90529" lon="3.12275">
        <ele>325.2</ele>
        <time>2019-12-25T14:28:43.000Z</time>
      </trkpt>
      <trkpt lat="45.90521" lon="3.12267">
        <ele>325.3</ele>
        <time>2019-12-25T14:28:44.000Z</time>
      </trkpt>
      <trkpt lat="45.90506" lon="3.1225">
        <ele>325.4</ele>
        <time>2019-12-25T14:28:46.000Z</time>
      </trkpt>
      <trkpt lat="45.90498" lon="3.12241">
        <ele>325.3</ele>
        <time>2019-12-25T14:28:47.000Z</time>
      </trkpt>
      <trkpt lat="45.9049" lon="3.12233">
        <ele>325.3</ele>
        <time>2019-12-25T14:28:48.000Z</time>
      </trkpt>
      <trkpt lat="45.90473" lon="3.12216">
        <ele>325.2</ele>
        <time>2019-12-25T14:28:50.000Z</time>
      </trkpt>
      <trkpt lat="45.90465" lon="3.12207">
        <ele>325.1</ele>
        <time>2019-12-25T14:28:51.000Z</time>
      </trkpt>
      <trkpt lat="45.90449" lon="3.1219">
        <ele>324.8</ele>
        <time>2019-12-25T14:28:53.000Z</time>
      </trkpt>
      <trkpt lat="45.90432" lon="3.12174">
        <ele>324.8</ele>
        <time>2019-12-25T14:28:55.000Z</time>
      </trkpt>
      <trkpt lat="45.90424" lon="3.12165">
        <ele>324.8</ele>
        <time>2019-12-25T14:28:56.000Z</time>
      </trkpt>
      <trkpt lat="45.90407" lon="3.12149">
        <ele>324.9</ele>
        <time>2019-12-25T14:28:58.000Z</time>
      </trkpt>
      <trkpt lat="45.90399" lon="3.1214">
        <ele>324.9</ele>
        <time>2019-12-25T14:28:59.000Z</time>
      </trkpt>
      <trkpt lat="45.90383" lon="3.12122">
        <ele>325.1</ele>
        <time>2019-12-25T14:29:01.000Z</time>
      </trkpt>
      <trkpt lat="45.90374" lon="3.12114">
        <ele>325.1</ele>
        <time>2019-12-25T14:29:02.000Z</time>
      </trkpt>
      <trkpt lat="45.90357" lon="3.12097">
        <ele>325</ele>
        <time>2019-12-25T14:29:04.000Z</time>
      </trkpt>
      <trkpt lat="45.9034" lon="3.12079">
        <ele>324.7</ele>
        <time>2019-12-25T14:29:06.000Z</time>
      </trkpt>
      <trkpt lat="45.90332" lon="3.1207">
        <ele>324.6</ele>
        <time>2019-12-25T14:29:07.000Z</time>
      </trkpt>
      <trkpt lat="45.90324" lon="3.12061">
        <ele>324.5</ele>
        <time>2019-12-25T14:29:08.000Z</time>
      </trkpt>
      <trkpt lat="45.90309" lon="3.12043">
        <ele>324.3</ele>
        <time>2019-12-25T14:29:10.000Z</time>
      </trkpt>
      <trkpt lat="45.90294" lon="3.12025">
        <ele>324.2</ele>
        <time>2019-12-25T14:29:12.000Z</time>
      </trkpt>
      <trkpt lat="45.90286" lon="3.12016">
        <ele>324.3</ele>
        <time>2019-12-25T14:29:13.000Z</time>
      </trkpt>
      <trkpt lat="45.9027" lon="3.11999">
        <ele>324.5</ele>
        <time>2019-12-25T14:29:15.000Z</time>
      </trkpt>
      <trkpt lat="45.90255" lon="3.11982">
        <ele>324.7</ele>
        <time>2019-12-25T14:29:17.000Z</time>
      </trkpt>
      <trkpt lat="45.90239" lon="3.11965">
        <ele>324.9</ele>
        <time>2019-12-25T14:29:19.000Z</time>
      </trkpt>
      <trkpt lat="45.90224" lon="3.11949">
        <ele>325</ele>
        <time>2019-12-25T14:29:21.000Z</time>
      </trkpt>
      <trkpt lat="45.90208" lon="3.11932">
        <ele>324.9</ele>
        <time>2019-12-25T14:29:23.000Z</time>
      </trkpt>
      <trkpt lat="45.90192" lon="3.11915">
        <ele>324.5</ele>
        <time>2019-12-25T14:29:25.000Z</time>
      </trkpt>
      <trkpt lat="45.90176" lon="3.11898">
        <ele>324.2</ele>
        <time>2019-12-25T14:29:27.000Z</time>
      </trkpt>
      <trkpt lat="45.90169" lon="3.11889">
        <ele>324.1</ele>
        <time>2019-12-25T14:29:28.000Z</time>
      </trkpt>
      <trkpt lat="45.90153" lon="3.11871">
        <ele>323.9</ele>
        <time>2019-12-25T14:29:30.000Z</time>
      </trkpt>
      <trkpt lat="45.90145" lon="3.11862">
        <ele>323.9</ele>
        <time>2019-12-25T14:29:31.000Z</time>
      </trkpt>
      <trkpt lat="45.90129" lon="3.11845">
        <ele>324</ele>
        <time>2019-12-25T14:29:33.000Z</time>
      </trkpt>
      <trkpt lat="45.90121" lon="3.11837">
        <ele>324.1</ele>
        <time>2019-12-25T14:29:34.000Z</time>
      </trkpt>
      <trkpt lat="45.90113" lon="3.11829">
        <ele>324.2</ele>
        <time>2019-12-25T14:29:35.000Z</time>
      </trkpt>
      <trkpt lat="45.90097" lon="3.11812">
        <ele>324.4</ele>
        <time>2019-12-25T14:29:37.000Z</time>
      </trkpt>
      <trkpt lat="45.90089" lon="3.11803">
        <ele>324.5</ele>
        <time>2019-12-25T14:29:38.000Z</time>
      </trkpt>
      <trkpt lat="45.90073" lon="3.11786">
        <ele>324.6</ele>
        <time>2019-12-25T14:29:40.000Z</time>
      </trkpt>
      <trkpt lat="45.90065" lon="3.11778">
        <ele>324.6</ele>
        <time>2019-12-25T14:29:41.000Z</time>
      </trkpt>
      <trkpt lat="45.90057" lon="3.11769">
        <ele>324.7</ele>
        <time>2019-12-25T14:29:42.000Z</time>
      </trkpt>
      <trkpt lat="45.90041" lon="3.11752">
        <ele>324.8</ele>
        <time>2019-12-25T14:29:44.000Z</time>
      </trkpt>
      <trkpt lat="45.90033" lon="3.11744">
        <ele>324.8</ele>
        <time>2019-12-25T14:29:45.000Z</time>
      </trkpt>
      <trkpt lat="45.90025" lon="3.11735">
        <ele>324.8</ele>
        <time>2019-12-25T14:29:46.000Z</time>
      </trkpt>
      <trkpt lat="45.9001" lon="3.11718">
        <ele>324.8</ele>
        <time>2019-12-25T14:29:48.000Z</time>
      </trkpt>
      <trkpt lat="45.89994" lon="3.11701">
        <ele>324.8</ele>
        <time>2019-12-25T14:29:50.000Z</time>
      </trkpt>
      <trkpt lat="45.89979" lon="3.11685">
        <ele>324.7</ele>
        <time>2019-12-25T14:29:52.000Z</time>
      </trkpt>
      <trkpt lat="45.89971" lon="3.11677">
        <ele>324.7</ele>
        <time>2019-12-25T14:29:53.000Z</time>
      </trkpt>
      <trkpt lat="45.89956" lon="3.11661">
        <ele>324.7</ele>
        <time>2019-12-25T14:29:55.000Z</time>
      </trkpt>
      <trkpt lat="45.89948" lon="3.11653">
        <ele>324.7</ele>
        <time>2019-12-25T14:29:56.000Z</time>
      </trkpt>
      <trkpt lat="45.89941" lon="3.11645">
        <ele>324.7</ele>
        <time>2019-12-25T14:29:57.000Z</time>
      </trkpt>
      <trkpt lat="45.89927" lon="3.1163">
        <ele>324.7</ele>
        <time>2019-12-25T14:29:59.000Z</time>
      </trkpt>
      <trkpt lat="45.89914" lon="3.11613">
        <ele>324.7</ele>
        <time>2019-12-25T14:30:01.000Z</time>
      </trkpt>
      <trkpt lat="45.899" lon="3.11597">
        <ele>324.8</ele>
        <time>2019-12-25T14:30:03.000Z</time>
      </trkpt>
      <trkpt lat="45.89886" lon="3.11582">
        <ele>325.1</ele>
        <time>2019-12-25T14:30:05.000Z</time>
      </trkpt>
      <trkpt lat="45.89872" lon="3.11568">
        <ele>325.3</ele>
        <time>2019-12-25T14:30:07.000Z</time>
      </trkpt>
      <trkpt lat="45.89865" lon="3.1156">
        <ele>325.5</ele>
        <time>2019-12-25T14:30:08.000Z</time>
      </trkpt>
      <trkpt lat="45.89852" lon="3.11546">
        <ele>325.8</ele>
        <time>2019-12-25T14:30:10.000Z</time>
      </trkpt>
      <trkpt lat="45.89846" lon="3.1154">
        <ele>326</ele>
        <time>2019-12-25T14:30:11.000Z</time>
      </trkpt>
      <trkpt lat="45.8984" lon="3.11534">
        <ele>326.1</ele>
        <time>2019-12-25T14:30:12.000Z</time>
      </trkpt>
      <trkpt lat="45.89828" lon="3.11522">
        <ele>326.3</ele>
        <time>2019-12-25T14:30:14.000Z</time>
      </trkpt>
      <trkpt lat="45.89817" lon="3.11511">
        <ele>326.4</ele>
        <time>2019-12-25T14:30:16.000Z</time>
      </trkpt>
      <trkpt lat="45.89807" lon="3.11502">
        <ele>326.6</ele>
        <time>2019-12-25T14:30:18.000Z</time>
      </trkpt>
      <trkpt lat="45.89802" lon="3.11497">
        <ele>326.6</ele>
        <time>2019-12-25T14:30:19.000Z</time>
      </trkpt>
      <trkpt lat="45.89797" lon="3.11492">
        <ele>326.6</ele>
        <time>2019-12-25T14:30:20.000Z</time>
      </trkpt>
      <trkpt lat="45.89785" lon="3.11483">
        <ele>326.6</ele>
        <time>2019-12-25T14:30:22.000Z</time>
      </trkpt>
      <trkpt lat="45.89779" lon="3.11477">
        <ele>326.6</ele>
        <time>2019-12-25T14:30:23.000Z</time>
      </trkpt>
      <trkpt lat="45.89774" lon="3.11471">
        <ele>326.7</ele>
        <time>2019-12-25T14:30:24.000Z</time>
      </trkpt>
      <trkpt lat="45.89763" lon="3.11459">
        <ele>326.7</ele>
        <time>2019-12-25T14:30:26.000Z</time>
      </trkpt>
      <trkpt lat="45.89753" lon="3.11445">
        <ele>327</ele>
        <time>2019-12-25T14:30:28.000Z</time>
      </trkpt>
      <trkpt lat="45.89743" lon="3.1143">
        <ele>327.4</ele>
        <time>2019-12-25T14:30:30.000Z</time>
      </trkpt>
      <trkpt lat="45.89733" lon="3.11416">
        <ele>327.7</ele>
        <time>2019-12-25T14:30:32.000Z</time>
      </trkpt>
      <trkpt lat="45.89728" lon="3.1141">
        <ele>327.9</ele>
        <time>2019-12-25T14:30:33.000Z</time>
      </trkpt>
      <trkpt lat="45.89723" lon="3.11403">
        <ele>328.1</ele>
        <time>2019-12-25T14:30:34.000Z</time>
      </trkpt>
      <trkpt lat="45.89714" lon="3.11389">
        <ele>328.5</ele>
        <time>2019-12-25T14:30:36.000Z</time>
      </trkpt>
      <trkpt lat="45.8971" lon="3.11383">
        <ele>328.7</ele>
        <time>2019-12-25T14:30:37.000Z</time>
      </trkpt>
      <trkpt lat="45.89701" lon="3.11372">
        <ele>329.2</ele>
        <time>2019-12-25T14:30:39.000Z</time>
      </trkpt>
      <trkpt lat="45.89697" lon="3.11366">
        <ele>329.4</ele>
        <time>2019-12-25T14:30:40.000Z</time>
      </trkpt>
      <trkpt lat="45.89689" lon="3.11354">
        <ele>330</ele>
        <time>2019-12-25T14:30:42.000Z</time>
      </trkpt>
      <trkpt lat="45.8968" lon="3.11342">
        <ele>330.4</ele>
        <time>2019-12-25T14:30:44.000Z</time>
      </trkpt>
      <trkpt lat="45.89676" lon="3.11336">
        <ele>330.7</ele>
        <time>2019-12-25T14:30:45.000Z</time>
      </trkpt>
      <trkpt lat="45.89673" lon="3.1133">
        <ele>330.9</ele>
        <time>2019-12-25T14:30:46.000Z</time>
      </trkpt>
      <trkpt lat="45.89665" lon="3.11318">
        <ele>331.4</ele>
        <time>2019-12-25T14:30:48.000Z</time>
      </trkpt>
      <trkpt lat="45.89657" lon="3.11306">
        <ele>331.8</ele>
        <time>2019-12-25T14:30:50.000Z</time>
      </trkpt>
      <trkpt lat="45.89653" lon="3.113">
        <ele>332.1</ele>
        <time>2019-12-25T14:30:51.000Z</time>
      </trkpt>
      <trkpt lat="45.8965" lon="3.11295">
        <ele>332.3</ele>
        <time>2019-12-25T14:30:52.000Z</time>
      </trkpt>
      <trkpt lat="45.89642" lon="3.11284">
        <ele>332.9</ele>
        <time>2019-12-25T14:30:54.000Z</time>
      </trkpt>
      <trkpt lat="45.89634" lon="3.11274">
        <ele>333.5</ele>
        <time>2019-12-25T14:30:56.000Z</time>
      </trkpt>
      <trkpt lat="45.8963" lon="3.11268">
        <ele>333.9</ele>
        <time>2019-12-25T14:30:57.000Z</time>
      </trkpt>
      <trkpt lat="45.89621" lon="3.11256">
        <ele>334.8</ele>
        <time>2019-12-25T14:30:59.000Z</time>
      </trkpt>
      <trkpt lat="45.89617" lon="3.11251">
        <ele>335.2</ele>
        <time>2019-12-25T14:31:00.000Z</time>
      </trkpt>
      <trkpt lat="45.89609" lon="3.1124">
        <ele>335.9</ele>
        <time>2019-12-25T14:31:02.000Z</time>
      </trkpt>
      <trkpt lat="45.89606" lon="3.11234">
        <ele>336.3</ele>
        <time>2019-12-25T14:31:03.000Z</time>
      </trkpt>
      <trkpt lat="45.89598" lon="3.11224">
        <ele>337.2</ele>
        <time>2019-12-25T14:31:05.000Z</time>
      </trkpt>
      <trkpt lat="45.8959" lon="3.11215">
        <ele>338.1</ele>
        <time>2019-12-25T14:31:07.000Z</time>
      </trkpt>
      <trkpt lat="45.89587" lon="3.11211">
        <ele>338.4</ele>
        <time>2019-12-25T14:31:08.000Z</time>
      </trkpt>
      <trkpt lat="45.89583" lon="3.11205">
        <ele>339</ele>
        <time>2019-12-25T14:31:10.000Z</time>
      </trkpt>
      <trkpt lat="45.8958" lon="3.112">
        <ele>339.5</ele>
        <time>2019-12-25T14:31:13.000Z</time>
      </trkpt>
      <trkpt lat="45.8958" lon="3.11196">
        <ele>339.5</ele>
        <time>2019-12-25T14:31:20.000Z</time>
      </trkpt>
      <trkpt lat="45.89578" lon="3.1119">
        <ele>339.7</ele>
        <time>2019-12-25T14:31:22.000Z</time>
      </trkpt>
      <trkpt lat="45.89578" lon="3.11194">
        <ele>339.8</ele>
        <time>2019-12-25T14:31:25.000Z</time>
      </trkpt>
      <trkpt lat="45.89574" lon="3.11192">
        <ele>339.9</ele>
        <time>2019-12-25T14:31:29.000Z</time>
      </trkpt>
      <trkpt lat="45.89573" lon="3.11187">
        <ele>340</ele>
        <time>2019-12-25T14:31:30.000Z</time>
      </trkpt>
      <trkpt lat="45.89565" lon="3.11178">
        <ele>341.4</ele>
        <time>2019-12-25T14:31:32.000Z</time>
      </trkpt>
      <trkpt lat="45.89555" lon="3.11174">
        <ele>343.3</ele>
        <time>2019-12-25T14:31:34.000Z</time>
      </trkpt>
      <trkpt lat="45.89548" lon="3.11184">
        <ele>344.3</ele>
        <time>2019-12-25T14:31:36.000Z</time>
      </trkpt>
      <trkpt lat="45.89549" lon="3.11203">
        <ele>344.3</ele>
        <time>2019-12-25T14:31:38.000Z</time>
      </trkpt>
      <trkpt lat="45.89555" lon="3.1122">
        <ele>343.4</ele>
        <time>2019-12-25T14:31:40.000Z</time>
      </trkpt>
      <trkpt lat="45.89559" lon="3.11228">
        <ele>343.1</ele>
        <time>2019-12-25T14:31:41.000Z</time>
      </trkpt>
      <trkpt lat="45.89562" lon="3.11238">
        <ele>342.4</ele>
        <time>2019-12-25T14:31:42.000Z</time>
      </trkpt>
      <trkpt lat="45.89568" lon="3.11259">
        <ele>341.4</ele>
        <time>2019-12-25T14:31:44.000Z</time>
      </trkpt>
      <trkpt lat="45.89571" lon="3.11271">
        <ele>341</ele>
        <time>2019-12-25T14:31:45.000Z</time>
      </trkpt>
      <trkpt lat="45.89573" lon="3.11283">
        <ele>340.9</ele>
        <time>2019-12-25T14:31:46.000Z</time>
      </trkpt>
      <trkpt lat="45.89577" lon="3.11311">
        <ele>340.6</ele>
        <time>2019-12-25T14:31:48.000Z</time>
      </trkpt>
      <trkpt lat="45.89579" lon="3.11325">
        <ele>340.4</ele>
        <time>2019-12-25T14:31:49.000Z</time>
      </trkpt>
      <trkpt lat="45.89581" lon="3.11354">
        <ele>339.9</ele>
        <time>2019-12-25T14:31:51.000Z</time>
      </trkpt>
      <trkpt lat="45.89583" lon="3.11386">
        <ele>339.9</ele>
        <time>2019-12-25T14:31:53.000Z</time>
      </trkpt>
      <trkpt lat="45.89585" lon="3.1142">
        <ele>339.9</ele>
        <time>2019-12-25T14:31:55.000Z</time>
      </trkpt>
      <trkpt lat="45.89587" lon="3.11452">
        <ele>340</ele>
        <time>2019-12-25T14:31:57.000Z</time>
      </trkpt>
      <trkpt lat="45.89587" lon="3.11468">
        <ele>340.9</ele>
        <time>2019-12-25T14:31:58.000Z</time>
      </trkpt>
      <trkpt lat="45.89587" lon="3.11484">
        <ele>341.4</ele>
        <time>2019-12-25T14:31:59.000Z</time>
      </trkpt>
      <trkpt lat="45.89587" lon="3.11512">
        <ele>342.2</ele>
        <time>2019-12-25T14:32:01.000Z</time>
      </trkpt>
      <trkpt lat="45.89588" lon="3.11537">
        <ele>342.3</ele>
        <time>2019-12-25T14:32:03.000Z</time>
      </trkpt>
      <trkpt lat="45.89589" lon="3.11561">
        <ele>342.9</ele>
        <time>2019-12-25T14:32:05.000Z</time>
      </trkpt>
      <trkpt lat="45.89589" lon="3.11582">
        <ele>343.3</ele>
        <time>2019-12-25T14:32:07.000Z</time>
      </trkpt>
      <trkpt lat="45.89589" lon="3.11601">
        <ele>343.6</ele>
        <time>2019-12-25T14:32:09.000Z</time>
      </trkpt>
      <trkpt lat="45.8959" lon="3.11621">
        <ele>343.8</ele>
        <time>2019-12-25T14:32:11.000Z</time>
      </trkpt>
      <trkpt lat="45.89591" lon="3.1163">
        <ele>343.9</ele>
        <time>2019-12-25T14:32:12.000Z</time>
      </trkpt>
      <trkpt lat="45.89591" lon="3.11639">
        <ele>343.9</ele>
        <time>2019-12-25T14:32:13.000Z</time>
      </trkpt>
      <trkpt lat="45.89591" lon="3.11648">
        <ele>344</ele>
        <time>2019-12-25T14:32:14.000Z</time>
      </trkpt>
      <trkpt lat="45.89592" lon="3.11667">
        <ele>344.1</ele>
        <time>2019-12-25T14:32:16.000Z</time>
      </trkpt>
      <trkpt lat="45.89593" lon="3.11676">
        <ele>344.1</ele>
        <time>2019-12-25T14:32:17.000Z</time>
      </trkpt>
      <trkpt lat="45.89594" lon="3.11686">
        <ele>344.2</ele>
        <time>2019-12-25T14:32:18.000Z</time>
      </trkpt>
      <trkpt lat="45.89594" lon="3.11704">
        <ele>344.2</ele>
        <time>2019-12-25T14:32:20.000Z</time>
      </trkpt>
      <trkpt lat="45.89595" lon="3.11721">
        <ele>344.3</ele>
        <time>2019-12-25T14:32:22.000Z</time>
      </trkpt>
      <trkpt lat="45.89594" lon="3.1173">
        <ele>344.3</ele>
        <time>2019-12-25T14:32:23.000Z</time>
      </trkpt>
      <trkpt lat="45.89591" lon="3.11746">
        <ele>344.3</ele>
        <time>2019-12-25T14:32:25.000Z</time>
      </trkpt>
      <trkpt lat="45.89585" lon="3.1176">
        <ele>344.3</ele>
        <time>2019-12-25T14:32:27.000Z</time>
      </trkpt>
      <trkpt lat="45.89576" lon="3.1177">
        <ele>345.3</ele>
        <time>2019-12-25T14:32:29.000Z</time>
      </trkpt>
      <trkpt lat="45.89565" lon="3.11776">
        <ele>346.6</ele>
        <time>2019-12-25T14:32:31.000Z</time>
      </trkpt>
      <trkpt lat="45.89559" lon="3.11777">
        <ele>346.7</ele>
        <time>2019-12-25T14:32:32.000Z</time>
      </trkpt>
      <trkpt lat="45.89547" lon="3.11778">
        <ele>348.5</ele>
        <time>2019-12-25T14:32:34.000Z</time>
      </trkpt>
      <trkpt lat="45.89536" lon="3.11778">
        <ele>349.6</ele>
        <time>2019-12-25T14:32:36.000Z</time>
      </trkpt>
      <trkpt lat="45.89523" lon="3.11778">
        <ele>350.3</ele>
        <time>2019-12-25T14:32:38.000Z</time>
      </trkpt>
      <trkpt lat="45.89511" lon="3.11779">
        <ele>350.8</ele>
        <time>2019-12-25T14:32:40.000Z</time>
      </trkpt>
      <trkpt lat="45.89498" lon="3.11779">
        <ele>351.1</ele>
        <time>2019-12-25T14:32:42.000Z</time>
      </trkpt>
      <trkpt lat="45.89486" lon="3.11781">
        <ele>351.3</ele>
        <time>2019-12-25T14:32:44.000Z</time>
      </trkpt>
      <trkpt lat="45.89475" lon="3.11782">
        <ele>351.6</ele>
        <time>2019-12-25T14:32:46.000Z</time>
      </trkpt>
      <trkpt lat="45.89469" lon="3.11783">
        <ele>351.8</ele>
        <time>2019-12-25T14:32:47.000Z</time>
      </trkpt>
      <trkpt lat="45.89459" lon="3.11784">
        <ele>352.1</ele>
        <time>2019-12-25T14:32:49.000Z</time>
      </trkpt>
      <trkpt lat="45.89449" lon="3.11784">
        <ele>352.5</ele>
        <time>2019-12-25T14:32:51.000Z</time>
      </trkpt>
      <trkpt lat="45.89445" lon="3.11785">
        <ele>352.6</ele>
        <time>2019-12-25T14:32:52.000Z</time>
      </trkpt>
      <trkpt lat="45.8944" lon="3.11785">
        <ele>353</ele>
        <time>2019-12-25T14:32:54.000Z</time>
      </trkpt>
      <trkpt lat="45.89434" lon="3.11786">
        <ele>353</ele>
        <time>2019-12-25T14:33:17.000Z</time>
      </trkpt>
      <trkpt lat="45.89431" lon="3.11787">
        <ele>353</ele>
        <time>2019-12-25T14:33:19.000Z</time>
      </trkpt>
      <trkpt lat="45.89428" lon="3.11787">
        <ele>353</ele>
        <time>2019-12-25T14:33:20.000Z</time>
      </trkpt>
      <trkpt lat="45.89423" lon="3.11787">
        <ele>353</ele>
        <time>2019-12-25T14:33:21.000Z</time>
      </trkpt>
      <trkpt lat="45.89415" lon="3.11788">
        <ele>353</ele>
        <time>2019-12-25T14:33:22.000Z</time>
      </trkpt>
      <trkpt lat="45.89407" lon="3.11789">
        <ele>353</ele>
        <time>2019-12-25T14:33:23.000Z</time>
      </trkpt>
      <trkpt lat="45.89392" lon="3.1179">
        <ele>353.1</ele>
        <time>2019-12-25T14:33:25.000Z</time>
      </trkpt>
      <trkpt lat="45.89383" lon="3.1179">
        <ele>353.1</ele>
        <time>2019-12-25T14:33:26.000Z</time>
      </trkpt>
      <trkpt lat="45.89367" lon="3.11788">
        <ele>353.1</ele>
        <time>2019-12-25T14:33:28.000Z</time>
      </trkpt>
      <trkpt lat="45.89358" lon="3.11788">
        <ele>353.1</ele>
        <time>2019-12-25T14:33:29.000Z</time>
      </trkpt>
      <trkpt lat="45.89341" lon="3.11784">
        <ele>352.8</ele>
        <time>2019-12-25T14:33:31.000Z</time>
      </trkpt>
      <trkpt lat="45.89332" lon="3.11782">
        <ele>352.5</ele>
        <time>2019-12-25T14:33:32.000Z</time>
      </trkpt>
      <trkpt lat="45.89314" lon="3.11775">
        <ele>352.3</ele>
        <time>2019-12-25T14:33:34.000Z</time>
      </trkpt>
      <trkpt lat="45.89305" lon="3.11771">
        <ele>352.2</ele>
        <time>2019-12-25T14:33:35.000Z</time>
      </trkpt>
      <trkpt lat="45.89295" lon="3.11766">
        <ele>352.2</ele>
        <time>2019-12-25T14:33:36.000Z</time>
      </trkpt>
      <trkpt lat="45.89278" lon="3.11754">
        <ele>352.3</ele>
        <time>2019-12-25T14:33:38.000Z</time>
      </trkpt>
      <trkpt lat="45.89269" lon="3.11746">
        <ele>352.4</ele>
        <time>2019-12-25T14:33:39.000Z</time>
      </trkpt>
      <trkpt lat="45.89261" lon="3.11737">
        <ele>352.3</ele>
        <time>2019-12-25T14:33:40.000Z</time>
      </trkpt>
      <trkpt lat="45.89247" lon="3.11717">
        <ele>352</ele>
        <time>2019-12-25T14:33:42.000Z</time>
      </trkpt>
      <trkpt lat="45.89239" lon="3.11707">
        <ele>351.6</ele>
        <time>2019-12-25T14:33:43.000Z</time>
      </trkpt>
      <trkpt lat="45.89222" lon="3.1169">
        <ele>350.7</ele>
        <time>2019-12-25T14:33:45.000Z</time>
      </trkpt>
      <trkpt lat="45.89213" lon="3.11681">
        <ele>350.3</ele>
        <time>2019-12-25T14:33:46.000Z</time>
      </trkpt>
      <trkpt lat="45.89197" lon="3.11664">
        <ele>349.7</ele>
        <time>2019-12-25T14:33:48.000Z</time>
      </trkpt>
      <trkpt lat="45.89189" lon="3.11655">
        <ele>349.6</ele>
        <time>2019-12-25T14:33:49.000Z</time>
      </trkpt>
      <trkpt lat="45.89173" lon="3.11636">
        <ele>349.4</ele>
        <time>2019-12-25T14:33:51.000Z</time>
      </trkpt>
      <trkpt lat="45.89159" lon="3.11615">
        <ele>349.2</ele>
        <time>2019-12-25T14:33:53.000Z</time>
      </trkpt>
      <trkpt lat="45.89152" lon="3.11605">
        <ele>349.1</ele>
        <time>2019-12-25T14:33:54.000Z</time>
      </trkpt>
      <trkpt lat="45.89146" lon="3.11595">
        <ele>349.1</ele>
        <time>2019-12-25T14:33:55.000Z</time>
      </trkpt>
      <trkpt lat="45.89136" lon="3.11574">
        <ele>349.1</ele>
        <time>2019-12-25T14:33:57.000Z</time>
      </trkpt>
      <trkpt lat="45.89126" lon="3.11554">
        <ele>348.9</ele>
        <time>2019-12-25T14:33:59.000Z</time>
      </trkpt>
      <trkpt lat="45.8912" lon="3.11547">
        <ele>348.8</ele>
        <time>2019-12-25T14:34:00.000Z</time>
      </trkpt>
      <trkpt lat="45.89105" lon="3.1155">
        <ele>348</ele>
        <time>2019-12-25T14:34:02.000Z</time>
      </trkpt>
      <trkpt lat="45.89096" lon="3.11572">
        <ele>347.3</ele>
        <time>2019-12-25T14:34:04.000Z</time>
      </trkpt>
      <trkpt lat="45.8909" lon="3.11596">
        <ele>346.6</ele>
        <time>2019-12-25T14:34:06.000Z</time>
      </trkpt>
      <trkpt lat="45.89086" lon="3.11608">
        <ele>346.1</ele>
        <time>2019-12-25T14:34:07.000Z</time>
      </trkpt>
      <trkpt lat="45.89082" lon="3.1162">
        <ele>345.9</ele>
        <time>2019-12-25T14:34:08.000Z</time>
      </trkpt>
      <trkpt lat="45.89074" lon="3.11642">
        <ele>345.5</ele>
        <time>2019-12-25T14:34:10.000Z</time>
      </trkpt>
      <trkpt lat="45.8907" lon="3.11653">
        <ele>345.3</ele>
        <time>2019-12-25T14:34:11.000Z</time>
      </trkpt>
      <trkpt lat="45.89066" lon="3.11664">
        <ele>345.2</ele>
        <time>2019-12-25T14:34:12.000Z</time>
      </trkpt>
      <trkpt lat="45.8906" lon="3.11687">
        <ele>344.9</ele>
        <time>2019-12-25T14:34:14.000Z</time>
      </trkpt>
      <trkpt lat="45.89058" lon="3.1171">
        <ele>344.5</ele>
        <time>2019-12-25T14:34:16.000Z</time>
      </trkpt>
      <trkpt lat="45.89058" lon="3.11731">
        <ele>344</ele>
        <time>2019-12-25T14:34:18.000Z</time>
      </trkpt>
      <trkpt lat="45.8905" lon="3.11748">
        <ele>343.5</ele>
        <time>2019-12-25T14:34:20.000Z</time>
      </trkpt>
      <trkpt lat="45.89046" lon="3.11757">
        <ele>343.3</ele>
        <time>2019-12-25T14:34:21.000Z</time>
      </trkpt>
      <trkpt lat="45.8904" lon="3.11775">
        <ele>342.9</ele>
        <time>2019-12-25T14:34:23.000Z</time>
      </trkpt>
      <trkpt lat="45.8904" lon="3.11783">
        <ele>342.8</ele>
        <time>2019-12-25T14:34:24.000Z</time>
      </trkpt>
      <trkpt lat="45.89041" lon="3.11788">
        <ele>342.8</ele>
        <time>2019-12-25T14:34:25.000Z</time>
      </trkpt>
      <trkpt lat="45.89049" lon="3.1179">
        <ele>342.6</ele>
        <time>2019-12-25T14:34:27.000Z</time>
      </trkpt>
      <trkpt lat="45.89046" lon="3.11792">
        <ele>342.6</ele>
        <time>2019-12-25T14:34:34.000Z</time>
      </trkpt>
      <trkpt lat="45.89047" lon="3.118">
        <ele>342.4</ele>
        <time>2019-12-25T12:02:00.000Z</time>
      </trkpt>
      <trkpt lat="45.89047" lon="3.118">
        <ele>342.4</ele>
        <time>2019-12-25T12:02:00.000Z</time>
      </trkpt>
      <trkpt lat="45.89053" lon="3.11783">
        <ele>342.4</ele>
        <time>2019-12-25T12:02:11.000Z</time>
      </trkpt>
      <trkpt lat="45.89048" lon="3.11781">
        <ele>342.4</ele>
        <time>2019-12-25T12:02:13.000Z</time>
      </trkpt>
      <trkpt lat="45.89039" lon="3.11789">
        <ele>342.3</ele>
        <time>2019-12-25T12:02:15.000Z</time>
      </trkpt>
      <trkpt lat="45.89038" lon="3.11797">
        <ele>342.3</ele>
        <time>2019-12-25T12:02:16.000Z</time>
      </trkpt>
      <trkpt lat="45.89037" lon="3.11806">
        <ele>342.3</ele>
        <time>2019-12-25T12:02:18.000Z</time>
      </trkpt>
      <trkpt lat="45.89033" lon="3.11816">
        <ele>342.1</ele>
        <time>2019-12-25T12:02:21.000Z</time>
      </trkpt>
      <trkpt lat="45.8903" lon="3.11825">
        <ele>341.9</ele>
        <time>2019-12-25T12:02:22.000Z</time>
      </trkpt>
      <trkpt lat="45.89025" lon="3.11843">
        <ele>341.7</ele>
        <time>2019-12-25T12:02:24.000Z</time>
      </trkpt>
      <trkpt lat="45.89022" lon="3.11866">
        <ele>341.1</ele>
        <time>2019-12-25T12:02:26.000Z</time>
      </trkpt>
      <trkpt lat="45.89019" lon="3.11891">
        <ele>340.6</ele>
        <time>2019-12-25T12:02:28.000Z</time>
      </trkpt>
      <trkpt lat="45.89017" lon="3.11916">
        <ele>339.9</ele>
        <time>2019-12-25T12:02:30.000Z</time>
      </trkpt>
      <trkpt lat="45.89015" lon="3.11929">
        <ele>339.6</ele>
        <time>2019-12-25T12:02:31.000Z</time>
      </trkpt>
      <trkpt lat="45.89012" lon="3.11956">
        <ele>339</ele>
        <time>2019-12-25T12:02:33.000Z</time>
      </trkpt>
      <trkpt lat="45.89009" lon="3.11978">
        <ele>338.5</ele>
        <time>2019-12-25T12:02:35.000Z</time>
      </trkpt>
      <trkpt lat="45.89005" lon="3.11984">
        <ele>338.5</ele>
        <time>2019-12-25T12:02:36.000Z</time>
      </trkpt>
      <trkpt lat="45.8899" lon="3.11983">
        <ele>338.2</ele>
        <time>2019-12-25T12:02:38.000Z</time>
      </trkpt>
      <trkpt lat="45.88982" lon="3.11981">
        <ele>337.9</ele>
        <time>2019-12-25T12:02:39.000Z</time>
      </trkpt>
      <trkpt lat="45.88974" lon="3.11979">
        <ele>337.9</ele>
        <time>2019-12-25T12:02:40.000Z</time>
      </trkpt>
      <trkpt lat="45.88951" lon="3.1198">
        <ele>337.4</ele>
        <time>2019-12-25T12:02:43.000Z</time>
      </trkpt>
      <trkpt lat="45.88936" lon="3.11991">
        <ele>337.2</ele>
        <time>2019-12-25T12:02:45.000Z</time>
      </trkpt>
      <trkpt lat="45.88928" lon="3.11999">
        <ele>337.1</ele>
        <time>2019-12-25T12:02:46.000Z</time>
      </trkpt>
      <trkpt lat="45.88914" lon="3.12017">
        <ele>336.9</ele>
        <time>2019-12-25T12:02:48.000Z</time>
      </trkpt>
      <trkpt lat="45.889" lon="3.12035">
        <ele>336.8</ele>
        <time>2019-12-25T12:02:50.000Z</time>
      </trkpt>
      <trkpt lat="45.88885" lon="3.12039">
        <ele>336.4</ele>
        <time>2019-12-25T12:02:52.000Z</time>
      </trkpt>
      <trkpt lat="45.88868" lon="3.12039">
        <ele>336.4</ele>
        <time>2019-12-25T12:02:54.000Z</time>
      </trkpt>
      <trkpt lat="45.88852" lon="3.12041">
        <ele>336.5</ele>
        <time>2019-12-25T12:02:56.000Z</time>
      </trkpt>
      <trkpt lat="45.88836" lon="3.1204">
        <ele>336.8</ele>
        <time>2019-12-25T12:02:58.000Z</time>
      </trkpt>
      <trkpt lat="45.88829" lon="3.12038">
        <ele>337</ele>
        <time>2019-12-25T12:02:59.000Z</time>
      </trkpt>
      <trkpt lat="45.88816" lon="3.12031">
        <ele>337.3</ele>
        <time>2019-12-25T12:03:01.000Z</time>
      </trkpt>
      <trkpt lat="45.88809" lon="3.12028">
        <ele>337.5</ele>
        <time>2019-12-25T12:03:02.000Z</time>
      </trkpt>
      <trkpt lat="45.88801" lon="3.12026">
        <ele>337.9</ele>
        <time>2019-12-25T12:03:03.000Z</time>
      </trkpt>
      <trkpt lat="45.88787" lon="3.12026">
        <ele>338.9</ele>
        <time>2019-12-25T12:03:05.000Z</time>
      </trkpt>
      <trkpt lat="45.88779" lon="3.12026">
        <ele>339.4</ele>
        <time>2019-12-25T12:03:06.000Z</time>
      </trkpt>
      <trkpt lat="45.88771" lon="3.12026">
        <ele>339.9</ele>
        <time>2019-12-25T12:03:07.000Z</time>
      </trkpt>
      <trkpt lat="45.88756" lon="3.12026">
        <ele>340.5</ele>
        <time>2019-12-25T12:03:09.000Z</time>
      </trkpt>
      <trkpt lat="45.88747" lon="3.12026">
        <ele>340.8</ele>
        <time>2019-12-25T12:03:10.000Z</time>
      </trkpt>
      <trkpt lat="45.88731" lon="3.12025">
        <ele>341.4</ele>
        <time>2019-12-25T12:03:12.000Z</time>
      </trkpt>
      <trkpt lat="45.88722" lon="3.12024">
        <ele>341.6</ele>
        <time>2019-12-25T12:03:13.000Z</time>
      </trkpt>
      <trkpt lat="45.88707" lon="3.12022">
        <ele>342.1</ele>
        <time>2019-12-25T12:03:15.000Z</time>
      </trkpt>
      <trkpt lat="45.8869" lon="3.12021">
        <ele>342.2</ele>
        <time>2019-12-25T12:03:17.000Z</time>
      </trkpt>
      <trkpt lat="45.88682" lon="3.12021">
        <ele>342.1</ele>
        <time>2019-12-25T12:03:18.000Z</time>
      </trkpt>
      <trkpt lat="45.88674" lon="3.12021">
        <ele>342</ele>
        <time>2019-12-25T12:03:19.000Z</time>
      </trkpt>
      <trkpt lat="45.88658" lon="3.12021">
        <ele>341.8</ele>
        <time>2019-12-25T12:03:21.000Z</time>
      </trkpt>
      <trkpt lat="45.8864" lon="3.1202">
        <ele>341.6</ele>
        <time>2019-12-25T12:03:23.000Z</time>
      </trkpt>
      <trkpt lat="45.88626" lon="3.12018">
        <ele>341.4</ele>
        <time>2019-12-25T12:03:25.000Z</time>
      </trkpt>
      <trkpt lat="45.88619" lon="3.12017">
        <ele>341.4</ele>
        <time>2019-12-25T12:03:26.000Z</time>
      </trkpt>
      <trkpt lat="45.88611" lon="3.12015">
        <ele>341.3</ele>
        <time>2019-12-25T12:03:28.000Z</time>
      </trkpt>
      <trkpt lat="45.88608" lon="3.12014">
        <ele>341.2</ele>
        <time>2019-12-25T12:03:30.000Z</time>
      </trkpt>
      <trkpt lat="45.88605" lon="3.12014">
        <ele>341.1</ele>
        <time>2019-12-25T12:03:35.000Z</time>
      </trkpt>
      <trkpt lat="45.88601" lon="3.12018">
        <ele>341</ele>
        <time>2019-12-25T12:03:37.000Z</time>
      </trkpt>
      <trkpt lat="45.88601" lon="3.12024">
        <ele>340.9</ele>
        <time>2019-12-25T12:03:38.000Z</time>
      </trkpt>
      <trkpt lat="45.88601" lon="3.12036">
        <ele>340.7</ele>
        <time>2019-12-25T12:03:39.000Z</time>
      </trkpt>
      <trkpt lat="45.88602" lon="3.12045">
        <ele>340.6</ele>
        <time>2019-12-25T12:03:40.000Z</time>
      </trkpt>
      <trkpt lat="45.88601" lon="3.12062">
        <ele>340.1</ele>
        <time>2019-12-25T12:03:42.000Z</time>
      </trkpt>
      <trkpt lat="45.886" lon="3.12071">
        <ele>339.8</ele>
        <time>2019-12-25T12:03:43.000Z</time>
      </trkpt>
      <trkpt lat="45.88599" lon="3.1209">
        <ele>339.3</ele>
        <time>2019-12-25T12:03:45.000Z</time>
      </trkpt>
      <trkpt lat="45.88598" lon="3.1211">
        <ele>338.9</ele>
        <time>2019-12-25T12:03:47.000Z</time>
      </trkpt>
      <trkpt lat="45.88598" lon="3.12121">
        <ele>338.6</ele>
        <time>2019-12-25T12:03:48.000Z</time>
      </trkpt>
      <trkpt lat="45.88597" lon="3.12132">
        <ele>338.4</ele>
        <time>2019-12-25T12:03:49.000Z</time>
      </trkpt>
      <trkpt lat="45.88594" lon="3.12154">
        <ele>338.3</ele>
        <time>2019-12-25T12:03:51.000Z</time>
      </trkpt>
      <trkpt lat="45.88584" lon="3.12171">
        <ele>338.2</ele>
        <time>2019-12-25T12:03:53.000Z</time>
      </trkpt>
      <trkpt lat="45.88575" lon="3.12177">
        <ele>338.2</ele>
        <time>2019-12-25T12:03:54.000Z</time>
      </trkpt>
      <trkpt lat="45.88556" lon="3.12185">
        <ele>338.1</ele>
        <time>2019-12-25T12:03:56.000Z</time>
      </trkpt>
      <trkpt lat="45.88547" lon="3.1219">
        <ele>337.9</ele>
        <time>2019-12-25T12:03:57.000Z</time>
      </trkpt>
      <trkpt lat="45.88528" lon="3.122">
        <ele>337.5</ele>
        <time>2019-12-25T12:03:59.000Z</time>
      </trkpt>
      <trkpt lat="45.88518" lon="3.12206">
        <ele>337.3</ele>
        <time>2019-12-25T12:04:00.000Z</time>
      </trkpt>
      <trkpt lat="45.885" lon="3.12223">
        <ele>336.9</ele>
        <time>2019-12-25T12:04:02.000Z</time>
      </trkpt>
      <trkpt lat="45.88484" lon="3.12245">
        <ele>336.6</ele>
        <time>2019-12-25T12:04:04.000Z</time>
      </trkpt>
      <trkpt lat="45.88477" lon="3.12257">
        <ele>336.5</ele>
        <time>2019-12-25T12:04:05.000Z</time>
      </trkpt>
      <trkpt lat="45.88463" lon="3.12283">
        <ele>336.3</ele>
        <time>2019-12-25T12:04:07.000Z</time>
      </trkpt>
      <trkpt lat="45.88455" lon="3.12296">
        <ele>336.3</ele>
        <time>2019-12-25T12:04:08.000Z</time>
      </trkpt>
      <trkpt lat="45.8844" lon="3.1232">
        <ele>336.2</ele>
        <time>2019-12-25T12:04:10.000Z</time>
      </trkpt>
      <trkpt lat="45.88431" lon="3.12332">
        <ele>336.3</ele>
        <time>2019-12-25T12:04:11.000Z</time>
      </trkpt>
      <trkpt lat="45.88414" lon="3.12355">
        <ele>336.3</ele>
        <time>2019-12-25T12:04:13.000Z</time>
      </trkpt>
      <trkpt lat="45.88406" lon="3.12366">
        <ele>336.4</ele>
        <time>2019-12-25T12:04:14.000Z</time>
      </trkpt>
      <trkpt lat="45.88389" lon="3.12388">
        <ele>336</ele>
        <time>2019-12-25T12:04:16.000Z</time>
      </trkpt>
      <trkpt lat="45.88373" lon="3.1241">
        <ele>335.6</ele>
        <time>2019-12-25T12:04:18.000Z</time>
      </trkpt>
      <trkpt lat="45.88356" lon="3.12431">
        <ele>335.2</ele>
        <time>2019-12-25T12:04:20.000Z</time>
      </trkpt>
      <trkpt lat="45.88348" lon="3.12442">
        <ele>335.2</ele>
        <time>2019-12-25T12:04:21.000Z</time>
      </trkpt>
      <trkpt lat="45.88341" lon="3.12453">
        <ele>335.2</ele>
        <time>2019-12-25T12:04:22.000Z</time>
      </trkpt>
      <trkpt lat="45.88325" lon="3.12475">
        <ele>335.1</ele>
        <time>2019-12-25T12:04:24.000Z</time>
      </trkpt>
      <trkpt lat="45.88308" lon="3.12497">
        <ele>334.9</ele>
        <time>2019-12-25T12:04:26.000Z</time>
      </trkpt>
      <trkpt lat="45.88292" lon="3.12519">
        <ele>335</ele>
        <time>2019-12-25T12:04:28.000Z</time>
      </trkpt>
      <trkpt lat="45.88284" lon="3.1253">
        <ele>335.1</ele>
        <time>2019-12-25T12:04:29.000Z</time>
      </trkpt>
      <trkpt lat="45.88268" lon="3.12551">
        <ele>335</ele>
        <time>2019-12-25T12:04:31.000Z</time>
      </trkpt>
      <trkpt lat="45.8826" lon="3.12562">
        <ele>335</ele>
        <time>2019-12-25T12:04:32.000Z</time>
      </trkpt>
      <trkpt lat="45.88244" lon="3.12583">
        <ele>334.7</ele>
        <time>2019-12-25T12:04:34.000Z</time>
      </trkpt>
      <trkpt lat="45.88236" lon="3.12594">
        <ele>334.4</ele>
        <time>2019-12-25T12:04:35.000Z</time>
      </trkpt>
      <trkpt lat="45.88221" lon="3.12615">
        <ele>333.9</ele>
        <time>2019-12-25T12:04:37.000Z</time>
      </trkpt>
      <trkpt lat="45.88213" lon="3.12627">
        <ele>333.9</ele>
        <time>2019-12-25T12:04:38.000Z</time>
      </trkpt>
      <trkpt lat="45.88197" lon="3.12648">
        <ele>334</ele>
        <time>2019-12-25T12:04:40.000Z</time>
      </trkpt>
      <trkpt lat="45.88189" lon="3.12659">
        <ele>334.1</ele>
        <time>2019-12-25T12:04:41.000Z</time>
      </trkpt>
      <trkpt lat="45.88182" lon="3.1267">
        <ele>334.2</ele>
        <time>2019-12-25T12:04:42.000Z</time>
      </trkpt>
      <trkpt lat="45.88166" lon="3.12691">
        <ele>334.6</ele>
        <time>2019-12-25T12:04:44.000Z</time>
      </trkpt>
      <trkpt lat="45.88158" lon="3.12702">
        <ele>334.5</ele>
        <time>2019-12-25T12:04:45.000Z</time>
      </trkpt>
      <trkpt lat="45.88142" lon="3.12724">
        <ele>334.3</ele>
        <time>2019-12-25T12:04:47.000Z</time>
      </trkpt>
      <trkpt lat="45.88134" lon="3.12735">
        <ele>334.3</ele>
        <time>2019-12-25T12:04:48.000Z</time>
      </trkpt>
      <trkpt lat="45.88118" lon="3.12757">
        <ele>334.2</ele>
        <time>2019-12-25T12:04:50.000Z</time>
      </trkpt>
      <trkpt lat="45.88102" lon="3.12779">
        <ele>334.1</ele>
        <time>2019-12-25T12:04:52.000Z</time>
      </trkpt>
      <trkpt lat="45.88094" lon="3.1279">
        <ele>333.9</ele>
        <time>2019-12-25T12:04:53.000Z</time>
      </trkpt>
      <trkpt lat="45.88085" lon="3.12801">
        <ele>333.7</ele>
        <time>2019-12-25T12:04:54.000Z</time>
      </trkpt>
      <trkpt lat="45.88069" lon="3.12824">
        <ele>333.3</ele>
        <time>2019-12-25T12:04:56.000Z</time>
      </trkpt>
      <trkpt lat="45.88062" lon="3.12836">
        <ele>333</ele>
        <time>2019-12-25T12:04:57.000Z</time>
      </trkpt>
      <trkpt lat="45.88055" lon="3.12848">
        <ele>332.7</ele>
        <time>2019-12-25T12:04:58.000Z</time>
      </trkpt>
      <trkpt lat="45.88042" lon="3.12875">
        <ele>332.4</ele>
        <time>2019-12-25T12:05:00.000Z</time>
      </trkpt>
      <trkpt lat="45.88036" lon="3.12888">
        <ele>332.6</ele>
        <time>2019-12-25T12:05:01.000Z</time>
      </trkpt>
      <trkpt lat="45.88024" lon="3.12914">
        <ele>332.9</ele>
        <time>2019-12-25T12:05:03.000Z</time>
      </trkpt>
      <trkpt lat="45.88018" lon="3.12928">
        <ele>333.1</ele>
        <time>2019-12-25T12:05:04.000Z</time>
      </trkpt>
      <trkpt lat="45.88006" lon="3.12954">
        <ele>333.2</ele>
        <time>2019-12-25T12:05:06.000Z</time>
      </trkpt>
      <trkpt lat="45.88001" lon="3.12967">
        <ele>333.1</ele>
        <time>2019-12-25T12:05:07.000Z</time>
      </trkpt>
      <trkpt lat="45.8799" lon="3.12994">
        <ele>332.8</ele>
        <time>2019-12-25T12:05:09.000Z</time>
      </trkpt>
      <trkpt lat="45.8798" lon="3.13023">
        <ele>332.3</ele>
        <time>2019-12-25T12:05:11.000Z</time>
      </trkpt>
      <trkpt lat="45.87975" lon="3.13037">
        <ele>332.1</ele>
        <time>2019-12-25T12:05:12.000Z</time>
      </trkpt>
      <trkpt lat="45.87966" lon="3.13066">
        <ele>331.8</ele>
        <time>2019-12-25T12:05:14.000Z</time>
      </trkpt>
      <trkpt lat="45.87957" lon="3.13095">
        <ele>331.8</ele>
        <time>2019-12-25T12:05:16.000Z</time>
      </trkpt>
      <trkpt lat="45.87948" lon="3.13124">
        <ele>331.9</ele>
        <time>2019-12-25T12:05:18.000Z</time>
      </trkpt>
      <trkpt lat="45.87943" lon="3.13138">
        <ele>332</ele>
        <time>2019-12-25T12:05:19.000Z</time>
      </trkpt>
      <trkpt lat="45.87934" lon="3.13167">
        <ele>332.1</ele>
        <time>2019-12-25T12:05:21.000Z</time>
      </trkpt>
      <trkpt lat="45.87925" lon="3.13196">
        <ele>331.8</ele>
        <time>2019-12-25T12:05:23.000Z</time>
      </trkpt>
      <trkpt lat="45.87921" lon="3.1321">
        <ele>331.6</ele>
        <time>2019-12-25T12:05:24.000Z</time>
      </trkpt>
      <trkpt lat="45.87912" lon="3.1324">
        <ele>331.3</ele>
        <time>2019-12-25T12:05:26.000Z</time>
      </trkpt>
      <trkpt lat="45.87907" lon="3.13255">
        <ele>331.2</ele>
        <time>2019-12-25T12:05:27.000Z</time>
      </trkpt>
      <trkpt lat="45.87898" lon="3.13283">
        <ele>331.1</ele>
        <time>2019-12-25T12:05:29.000Z</time>
      </trkpt>
      <trkpt lat="45.87888" lon="3.13312">
        <ele>330.7</ele>
        <time>2019-12-25T12:05:31.000Z</time>
      </trkpt>
      <trkpt lat="45.87879" lon="3.13341">
        <ele>330.1</ele>
        <time>2019-12-25T12:05:33.000Z</time>
      </trkpt>
      <trkpt lat="45.87868" lon="3.13369">
        <ele>329.7</ele>
        <time>2019-12-25T12:05:35.000Z</time>
      </trkpt>
      <trkpt lat="45.87858" lon="3.13395">
        <ele>329.2</ele>
        <time>2019-12-25T12:05:37.000Z</time>
      </trkpt>
      <trkpt lat="45.87852" lon="3.13408">
        <ele>329</ele>
        <time>2019-12-25T12:05:38.000Z</time>
      </trkpt>
      <trkpt lat="45.87842" lon="3.13435">
        <ele>328.7</ele>
        <time>2019-12-25T12:05:40.000Z</time>
      </trkpt>
      <trkpt lat="45.87836" lon="3.13448">
        <ele>328.7</ele>
        <time>2019-12-25T12:05:41.000Z</time>
      </trkpt>
      <trkpt lat="45.87831" lon="3.13462">
        <ele>328.7</ele>
        <time>2019-12-25T12:05:42.000Z</time>
      </trkpt>
      <trkpt lat="45.8782" lon="3.13489">
        <ele>328.7</ele>
        <time>2019-12-25T12:05:44.000Z</time>
      </trkpt>
      <trkpt lat="45.87815" lon="3.13503">
        <ele>328.6</ele>
        <time>2019-12-25T12:05:45.000Z</time>
      </trkpt>
      <trkpt lat="45.87805" lon="3.13529">
        <ele>328.5</ele>
        <time>2019-12-25T12:05:47.000Z</time>
      </trkpt>
      <trkpt lat="45.87799" lon="3.13542">
        <ele>328.4</ele>
        <time>2019-12-25T12:05:48.000Z</time>
      </trkpt>
      <trkpt lat="45.87789" lon="3.13568">
        <ele>328.1</ele>
        <time>2019-12-25T12:05:50.000Z</time>
      </trkpt>
      <trkpt lat="45.87784" lon="3.13581">
        <ele>327.9</ele>
        <time>2019-12-25T12:05:51.000Z</time>
      </trkpt>
      <trkpt lat="45.87779" lon="3.13594">
        <ele>327.8</ele>
        <time>2019-12-25T12:05:52.000Z</time>
      </trkpt>
      <trkpt lat="45.87768" lon="3.13621">
        <ele>327.8</ele>
        <time>2019-12-25T12:05:54.000Z</time>
      </trkpt>
      <trkpt lat="45.87757" lon="3.13647">
        <ele>327.9</ele>
        <time>2019-12-25T12:05:56.000Z</time>
      </trkpt>
      <trkpt lat="45.87752" lon="3.1366">
        <ele>327.8</ele>
        <time>2019-12-25T12:05:57.000Z</time>
      </trkpt>
      <trkpt lat="45.87742" lon="3.13686">
        <ele>327.7</ele>
        <time>2019-12-25T12:05:59.000Z</time>
      </trkpt>
      <trkpt lat="45.87732" lon="3.13712">
        <ele>327.7</ele>
        <time>2019-12-25T12:06:01.000Z</time>
      </trkpt>
      <trkpt lat="45.87721" lon="3.13738">
        <ele>327.6</ele>
        <time>2019-12-25T12:06:03.000Z</time>
      </trkpt>
      <trkpt lat="45.87716" lon="3.13751">
        <ele>327.6</ele>
        <time>2019-12-25T12:06:04.000Z</time>
      </trkpt>
      <trkpt lat="45.87706" lon="3.13777">
        <ele>327.4</ele>
        <time>2019-12-25T12:06:06.000Z</time>
      </trkpt>
      <trkpt lat="45.87701" lon="3.1379">
        <ele>327.2</ele>
        <time>2019-12-25T12:06:07.000Z</time>
      </trkpt>
      <trkpt lat="45.8769" lon="3.13816">
        <ele>327</ele>
        <time>2019-12-25T12:06:09.000Z</time>
      </trkpt>
      <trkpt lat="45.8768" lon="3.13841">
        <ele>326.8</ele>
        <time>2019-12-25T12:06:11.000Z</time>
      </trkpt>
      <trkpt lat="45.87671" lon="3.13867">
        <ele>326.6</ele>
        <time>2019-12-25T12:06:13.000Z</time>
      </trkpt>
      <trkpt lat="45.8766" lon="3.13892">
        <ele>326.6</ele>
        <time>2019-12-25T12:06:15.000Z</time>
      </trkpt>
      <trkpt lat="45.87655" lon="3.13904">
        <ele>326.6</ele>
        <time>2019-12-25T12:06:16.000Z</time>
      </trkpt>
      <trkpt lat="45.8765" lon="3.13917">
        <ele>326.6</ele>
        <time>2019-12-25T12:06:17.000Z</time>
      </trkpt>
      <trkpt lat="45.87639" lon="3.13943">
        <ele>326.6</ele>
        <time>2019-12-25T12:06:19.000Z</time>
      </trkpt>
      <trkpt lat="45.87634" lon="3.13956">
        <ele>326.5</ele>
        <time>2019-12-25T12:06:20.000Z</time>
      </trkpt>
      <trkpt lat="45.87624" lon="3.13982">
        <ele>326</ele>
        <time>2019-12-25T12:06:22.000Z</time>
      </trkpt>
      <trkpt lat="45.87614" lon="3.14009">
        <ele>325.5</ele>
        <time>2019-12-25T12:06:24.000Z</time>
      </trkpt>
      <trkpt lat="45.87609" lon="3.14022">
        <ele>325.4</ele>
        <time>2019-12-25T12:06:25.000Z</time>
      </trkpt>
      <trkpt lat="45.87603" lon="3.14034">
        <ele>325.3</ele>
        <time>2019-12-25T12:06:26.000Z</time>
      </trkpt>
      <trkpt lat="45.87592" lon="3.14061">
        <ele>325</ele>
        <time>2019-12-25T12:06:28.000Z</time>
      </trkpt>
      <trkpt lat="45.87582" lon="3.14088">
        <ele>324.9</ele>
        <time>2019-12-25T12:06:30.000Z</time>
      </trkpt>
      <trkpt lat="45.87571" lon="3.14115">
        <ele>324.8</ele>
        <time>2019-12-25T12:06:32.000Z</time>
      </trkpt>
      <trkpt lat="45.87561" lon="3.14141">
        <ele>324.7</ele>
        <time>2019-12-25T12:06:34.000Z</time>
      </trkpt>
      <trkpt lat="45.8755" lon="3.14168">
        <ele>324.6</ele>
        <time>2019-12-25T12:06:36.000Z</time>
      </trkpt>
      <trkpt lat="45.8754" lon="3.14194">
        <ele>324.4</ele>
        <time>2019-12-25T12:06:38.000Z</time>
      </trkpt>
      <trkpt lat="45.87529" lon="3.14221">
        <ele>324.2</ele>
        <time>2019-12-25T12:06:40.000Z</time>
      </trkpt>
      <trkpt lat="45.87518" lon="3.14247">
        <ele>324.1</ele>
        <time>2019-12-25T12:06:42.000Z</time>
      </trkpt>
      <trkpt lat="45.87508" lon="3.14273">
        <ele>324</ele>
        <time>2019-12-25T12:06:44.000Z</time>
      </trkpt>
      <trkpt lat="45.87498" lon="3.143">
        <ele>323.9</ele>
        <time>2019-12-25T12:06:46.000Z</time>
      </trkpt>
      <trkpt lat="45.87489" lon="3.14327">
        <ele>323.9</ele>
        <time>2019-12-25T12:06:48.000Z</time>
      </trkpt>
      <trkpt lat="45.87484" lon="3.14341">
        <ele>323.9</ele>
        <time>2019-12-25T12:06:49.000Z</time>
      </trkpt>
      <trkpt lat="45.87475" lon="3.14368">
        <ele>323.7</ele>
        <time>2019-12-25T12:06:51.000Z</time>
      </trkpt>
      <trkpt lat="45.87467" lon="3.14396">
        <ele>323.2</ele>
        <time>2019-12-25T12:06:53.000Z</time>
      </trkpt>
      <trkpt lat="45.87463" lon="3.1441">
        <ele>322.9</ele>
        <time>2019-12-25T12:06:54.000Z</time>
      </trkpt>
      <trkpt lat="45.87456" lon="3.14438">
        <ele>322.8</ele>
        <time>2019-12-25T12:06:56.000Z</time>
      </trkpt>
      <trkpt lat="45.87449" lon="3.14466">
        <ele>322.8</ele>
        <time>2019-12-25T12:06:58.000Z</time>
      </trkpt>
      <trkpt lat="45.87446" lon="3.14481">
        <ele>322.8</ele>
        <time>2019-12-25T12:06:59.000Z</time>
      </trkpt>
      <trkpt lat="45.87439" lon="3.1451">
        <ele>323.1</ele>
        <time>2019-12-25T12:07:01.000Z</time>
      </trkpt>
      <trkpt lat="45.87433" lon="3.14539">
        <ele>323.2</ele>
        <time>2019-12-25T12:07:03.000Z</time>
      </trkpt>
      <trkpt lat="45.8743" lon="3.14554">
        <ele>323</ele>
        <time>2019-12-25T12:07:04.000Z</time>
      </trkpt>
      <trkpt lat="45.87427" lon="3.14569">
        <ele>322.8</ele>
        <time>2019-12-25T12:07:05.000Z</time>
      </trkpt>
      <trkpt lat="45.87421" lon="3.14599">
        <ele>322.7</ele>
        <time>2019-12-25T12:07:07.000Z</time>
      </trkpt>
      <trkpt lat="45.87415" lon="3.14629">
        <ele>322.9</ele>
        <time>2019-12-25T12:07:09.000Z</time>
      </trkpt>
      <trkpt lat="45.87412" lon="3.14644">
        <ele>323</ele>
        <time>2019-12-25T12:07:10.000Z</time>
      </trkpt>
      <trkpt lat="45.87409" lon="3.1466">
        <ele>322.8</ele>
        <time>2019-12-25T12:07:11.000Z</time>
      </trkpt>
      <trkpt lat="45.87403" lon="3.1469">
        <ele>322.3</ele>
        <time>2019-12-25T12:07:13.000Z</time>
      </trkpt>
      <trkpt lat="45.87399" lon="3.14705">
        <ele>322</ele>
        <time>2019-12-25T12:07:14.000Z</time>
      </trkpt>
      <trkpt lat="45.87393" lon="3.14735">
        <ele>321.6</ele>
        <time>2019-12-25T12:07:16.000Z</time>
      </trkpt>
      <trkpt lat="45.8739" lon="3.1475">
        <ele>321.5</ele>
        <time>2019-12-25T12:07:17.000Z</time>
      </trkpt>
      <trkpt lat="45.87384" lon="3.14781">
        <ele>321.5</ele>
        <time>2019-12-25T12:07:19.000Z</time>
      </trkpt>
      <trkpt lat="45.87378" lon="3.14811">
        <ele>321.5</ele>
        <time>2019-12-25T12:07:21.000Z</time>
      </trkpt>
      <trkpt lat="45.87375" lon="3.14826">
        <ele>321.4</ele>
        <time>2019-12-25T12:07:22.000Z</time>
      </trkpt>
      <trkpt lat="45.87372" lon="3.14841">
        <ele>321.4</ele>
        <time>2019-12-25T12:07:23.000Z</time>
      </trkpt>
      <trkpt lat="45.87366" lon="3.14871">
        <ele>321.4</ele>
        <time>2019-12-25T12:07:25.000Z</time>
      </trkpt>
      <trkpt lat="45.87362" lon="3.14886">
        <ele>321.4</ele>
        <time>2019-12-25T12:07:26.000Z</time>
      </trkpt>
      <trkpt lat="45.8736" lon="3.14902">
        <ele>321.4</ele>
        <time>2019-12-25T12:07:27.000Z</time>
      </trkpt>
      <trkpt lat="45.87353" lon="3.14932">
        <ele>321.4</ele>
        <time>2019-12-25T12:07:29.000Z</time>
      </trkpt>
      <trkpt lat="45.87351" lon="3.14947">
        <ele>321.7</ele>
        <time>2019-12-25T12:07:30.000Z</time>
      </trkpt>
      <trkpt lat="45.87348" lon="3.14963">
        <ele>321.9</ele>
        <time>2019-12-25T12:07:31.000Z</time>
      </trkpt>
      <trkpt lat="45.87345" lon="3.14978">
        <ele>321.9</ele>
        <time>2019-12-25T12:07:32.000Z</time>
      </trkpt>
      <trkpt lat="45.87338" lon="3.15008">
        <ele>321.8</ele>
        <time>2019-12-25T12:07:34.000Z</time>
      </trkpt>
      <trkpt lat="45.87335" lon="3.15023">
        <ele>321.6</ele>
        <time>2019-12-25T12:07:35.000Z</time>
      </trkpt>
      <trkpt lat="45.87329" lon="3.15053">
        <ele>321.2</ele>
        <time>2019-12-25T12:07:37.000Z</time>
      </trkpt>
      <trkpt lat="45.87326" lon="3.15068">
        <ele>321</ele>
        <time>2019-12-25T12:07:38.000Z</time>
      </trkpt>
      <trkpt lat="45.8732" lon="3.15098">
        <ele>320.9</ele>
        <time>2019-12-25T12:07:40.000Z</time>
      </trkpt>
      <trkpt lat="45.87314" lon="3.15128">
        <ele>320.9</ele>
        <time>2019-12-25T12:07:42.000Z</time>
      </trkpt>
      <trkpt lat="45.87311" lon="3.15143">
        <ele>320.8</ele>
        <time>2019-12-25T12:07:43.000Z</time>
      </trkpt>
      <trkpt lat="45.87305" lon="3.15172">
        <ele>320.5</ele>
        <time>2019-12-25T12:07:45.000Z</time>
      </trkpt>
      <trkpt lat="45.87298" lon="3.15202">
        <ele>320.1</ele>
        <time>2019-12-25T12:07:47.000Z</time>
      </trkpt>
      <trkpt lat="45.87295" lon="3.15217">
        <ele>320</ele>
        <time>2019-12-25T12:07:48.000Z</time>
      </trkpt>
      <trkpt lat="45.87289" lon="3.15247">
        <ele>319.8</ele>
        <time>2019-12-25T12:07:50.000Z</time>
      </trkpt>
      <trkpt lat="45.87286" lon="3.15261">
        <ele>319.7</ele>
        <time>2019-12-25T12:07:51.000Z</time>
      </trkpt>
      <trkpt lat="45.87284" lon="3.15276">
        <ele>319.5</ele>
        <time>2019-12-25T12:07:52.000Z</time>
      </trkpt>
      <trkpt lat="45.87277" lon="3.15305">
        <ele>319.1</ele>
        <time>2019-12-25T12:07:54.000Z</time>
      </trkpt>
      <trkpt lat="45.87274" lon="3.15319">
        <ele>319</ele>
        <time>2019-12-25T12:07:55.000Z</time>
      </trkpt>
      <trkpt lat="45.87266" lon="3.15346">
        <ele>318.9</ele>
        <time>2019-12-25T12:07:57.000Z</time>
      </trkpt>
      <trkpt lat="45.87258" lon="3.15374">
        <ele>318.9</ele>
        <time>2019-12-25T12:07:59.000Z</time>
      </trkpt>
      <trkpt lat="45.8725" lon="3.154">
        <ele>318.9</ele>
        <time>2019-12-25T12:08:01.000Z</time>
      </trkpt>
      <trkpt lat="45.87246" lon="3.15413">
        <ele>318.9</ele>
        <time>2019-12-25T12:08:02.000Z</time>
      </trkpt>
      <trkpt lat="45.87236" lon="3.15436">
        <ele>318.9</ele>
        <time>2019-12-25T12:08:04.000Z</time>
      </trkpt>
      <trkpt lat="45.87232" lon="3.15448">
        <ele>318.9</ele>
        <time>2019-12-25T12:08:05.000Z</time>
      </trkpt>
      <trkpt lat="45.87224" lon="3.1547">
        <ele>318.9</ele>
        <time>2019-12-25T12:08:07.000Z</time>
      </trkpt>
      <trkpt lat="45.8722" lon="3.15481">
        <ele>318.9</ele>
        <time>2019-12-25T12:08:08.000Z</time>
      </trkpt>
      <trkpt lat="45.87213" lon="3.15502">
        <ele>319.1</ele>
        <time>2019-12-25T12:08:10.000Z</time>
      </trkpt>
      <trkpt lat="45.8721" lon="3.15512">
        <ele>319.3</ele>
        <time>2019-12-25T12:08:11.000Z</time>
      </trkpt>
      <trkpt lat="45.87206" lon="3.15522">
        <ele>319.5</ele>
        <time>2019-12-25T12:08:12.000Z</time>
      </trkpt>
      <trkpt lat="45.87201" lon="3.15543">
        <ele>319.8</ele>
        <time>2019-12-25T12:08:14.000Z</time>
      </trkpt>
      <trkpt lat="45.87196" lon="3.15564">
        <ele>319.8</ele>
        <time>2019-12-25T12:08:16.000Z</time>
      </trkpt>
      <trkpt lat="45.87191" lon="3.15583">
        <ele>319.8</ele>
        <time>2019-12-25T12:08:18.000Z</time>
      </trkpt>
      <trkpt lat="45.87189" lon="3.15593">
        <ele>319.8</ele>
        <time>2019-12-25T12:08:19.000Z</time>
      </trkpt>
      <trkpt lat="45.87187" lon="3.15603">
        <ele>319.8</ele>
        <time>2019-12-25T12:08:20.000Z</time>
      </trkpt>
      <trkpt lat="45.87184" lon="3.15614">
        <ele>319.8</ele>
        <time>2019-12-25T12:08:21.000Z</time>
      </trkpt>
      <trkpt lat="45.87179" lon="3.15635">
        <ele>320</ele>
        <time>2019-12-25T12:08:23.000Z</time>
      </trkpt>
      <trkpt lat="45.87176" lon="3.15645">
        <ele>320</ele>
        <time>2019-12-25T12:08:24.000Z</time>
      </trkpt>
      <trkpt lat="45.87171" lon="3.15668">
        <ele>320.1</ele>
        <time>2019-12-25T12:08:26.000Z</time>
      </trkpt>
      <trkpt lat="45.87168" lon="3.1568">
        <ele>320.2</ele>
        <time>2019-12-25T12:08:27.000Z</time>
      </trkpt>
      <trkpt lat="45.87162" lon="3.15704">
        <ele>320.4</ele>
        <time>2019-12-25T12:08:29.000Z</time>
      </trkpt>
      <trkpt lat="45.87156" lon="3.1573">
        <ele>320.5</ele>
        <time>2019-12-25T12:08:31.000Z</time>
      </trkpt>
      <trkpt lat="45.87153" lon="3.15744">
        <ele>320.5</ele>
        <time>2019-12-25T12:08:32.000Z</time>
      </trkpt>
      <trkpt lat="45.87148" lon="3.15772">
        <ele>320.5</ele>
        <time>2019-12-25T12:08:34.000Z</time>
      </trkpt>
      <trkpt lat="45.87145" lon="3.15786">
        <ele>320.3</ele>
        <time>2019-12-25T12:08:35.000Z</time>
      </trkpt>
      <trkpt lat="45.87142" lon="3.15817">
        <ele>319.7</ele>
        <time>2019-12-25T12:08:37.000Z</time>
      </trkpt>
      <trkpt lat="45.87139" lon="3.15848">
        <ele>319.4</ele>
        <time>2019-12-25T12:08:39.000Z</time>
      </trkpt>
      <trkpt lat="45.87136" lon="3.1588">
        <ele>319.3</ele>
        <time>2019-12-25T12:08:41.000Z</time>
      </trkpt>
      <trkpt lat="45.87135" lon="3.15897">
        <ele>319.2</ele>
        <time>2019-12-25T12:08:42.000Z</time>
      </trkpt>
      <trkpt lat="45.87134" lon="3.1593">
        <ele>318.7</ele>
        <time>2019-12-25T12:08:44.000Z</time>
      </trkpt>
      <trkpt lat="45.87133" lon="3.15947">
        <ele>318.6</ele>
        <time>2019-12-25T12:08:45.000Z</time>
      </trkpt>
      <trkpt lat="45.87131" lon="3.15981">
        <ele>318.4</ele>
        <time>2019-12-25T12:08:47.000Z</time>
      </trkpt>
      <trkpt lat="45.8713" lon="3.15997">
        <ele>318.4</ele>
        <time>2019-12-25T12:08:48.000Z</time>
      </trkpt>
      <trkpt lat="45.87128" lon="3.16013">
        <ele>318.3</ele>
        <time>2019-12-25T12:08:49.000Z</time>
      </trkpt>
      <trkpt lat="45.87124" lon="3.16044">
        <ele>317.9</ele>
        <time>2019-12-25T12:08:51.000Z</time>
      </trkpt>
      <trkpt lat="45.87122" lon="3.1606">
        <ele>317.7</ele>
        <time>2019-12-25T12:08:52.000Z</time>
      </trkpt>
      <trkpt lat="45.87116" lon="3.1609">
        <ele>317.4</ele>
        <time>2019-12-25T12:08:54.000Z</time>
      </trkpt>
      <trkpt lat="45.87111" lon="3.1612">
        <ele>317.2</ele>
        <time>2019-12-25T12:08:56.000Z</time>
      </trkpt>
      <trkpt lat="45.87108" lon="3.16135">
        <ele>317.2</ele>
        <time>2019-12-25T12:08:57.000Z</time>
      </trkpt>
      <trkpt lat="45.87102" lon="3.16163">
        <ele>317.3</ele>
        <time>2019-12-25T12:08:59.000Z</time>
      </trkpt>
      <trkpt lat="45.87099" lon="3.16178">
        <ele>317.4</ele>
        <time>2019-12-25T12:09:00.000Z</time>
      </trkpt>
      <trkpt lat="45.87096" lon="3.16192">
        <ele>317.6</ele>
        <time>2019-12-25T12:09:01.000Z</time>
      </trkpt>
      <trkpt lat="45.8709" lon="3.1622">
        <ele>317.9</ele>
        <time>2019-12-25T12:09:03.000Z</time>
      </trkpt>
      <trkpt lat="45.87087" lon="3.16235">
        <ele>318.2</ele>
        <time>2019-12-25T12:09:04.000Z</time>
      </trkpt>
      <trkpt lat="45.87082" lon="3.16262">
        <ele>318.4</ele>
        <time>2019-12-25T12:09:06.000Z</time>
      </trkpt>
      <trkpt lat="45.87079" lon="3.16277">
        <ele>318.4</ele>
        <time>2019-12-25T12:09:07.000Z</time>
      </trkpt>
      <trkpt lat="45.87076" lon="3.16291">
        <ele>318.4</ele>
        <time>2019-12-25T12:09:08.000Z</time>
      </trkpt>
      <trkpt lat="45.8707" lon="3.1632">
        <ele>318.4</ele>
        <time>2019-12-25T12:09:10.000Z</time>
      </trkpt>
      <trkpt lat="45.87064" lon="3.16348">
        <ele>318.4</ele>
        <time>2019-12-25T12:09:12.000Z</time>
      </trkpt>
      <trkpt lat="45.87058" lon="3.16376">
        <ele>318.4</ele>
        <time>2019-12-25T12:09:14.000Z</time>
      </trkpt>
      <trkpt lat="45.87053" lon="3.16404">
        <ele>318.3</ele>
        <time>2019-12-25T12:09:16.000Z</time>
      </trkpt>
      <trkpt lat="45.87049" lon="3.16418">
        <ele>318.3</ele>
        <time>2019-12-25T12:09:17.000Z</time>
      </trkpt>
      <trkpt lat="45.87043" lon="3.16446">
        <ele>318.3</ele>
        <time>2019-12-25T12:09:19.000Z</time>
      </trkpt>
      <trkpt lat="45.87037" lon="3.16473">
        <ele>318.3</ele>
        <time>2019-12-25T12:09:21.000Z</time>
      </trkpt>
      <trkpt lat="45.87034" lon="3.16487">
        <ele>318.3</ele>
        <time>2019-12-25T12:09:22.000Z</time>
      </trkpt>
      <trkpt lat="45.8703" lon="3.16501">
        <ele>318.3</ele>
        <time>2019-12-25T12:09:23.000Z</time>
      </trkpt>
      <trkpt lat="45.87026" lon="3.16515">
        <ele>318.3</ele>
        <time>2019-12-25T12:09:24.000Z</time>
      </trkpt>
      <trkpt lat="45.87023" lon="3.16528">
        <ele>318.3</ele>
        <time>2019-12-25T12:09:25.000Z</time>
      </trkpt>
      <trkpt lat="45.87016" lon="3.16556">
        <ele>318.2</ele>
        <time>2019-12-25T12:09:27.000Z</time>
      </trkpt>
      <trkpt lat="45.87012" lon="3.1657">
        <ele>318.2</ele>
        <time>2019-12-25T12:09:28.000Z</time>
      </trkpt>
      <trkpt lat="45.87005" lon="3.16597">
        <ele>318</ele>
        <time>2019-12-25T12:09:30.000Z</time>
      </trkpt>
      <trkpt lat="45.87001" lon="3.1661">
        <ele>318</ele>
        <time>2019-12-25T12:09:31.000Z</time>
      </trkpt>
      <trkpt lat="45.86994" lon="3.16637">
        <ele>317.7</ele>
        <time>2019-12-25T12:09:33.000Z</time>
      </trkpt>
      <trkpt lat="45.86986" lon="3.16665">
        <ele>317.4</ele>
        <time>2019-12-25T12:09:35.000Z</time>
      </trkpt>
      <trkpt lat="45.86979" lon="3.16692">
        <ele>317.4</ele>
        <time>2019-12-25T12:09:37.000Z</time>
      </trkpt>
      <trkpt lat="45.86976" lon="3.16705">
        <ele>317.6</ele>
        <time>2019-12-25T12:09:38.000Z</time>
      </trkpt>
      <trkpt lat="45.86969" lon="3.16731">
        <ele>318</ele>
        <time>2019-12-25T12:09:40.000Z</time>
      </trkpt>
      <trkpt lat="45.86962" lon="3.16758">
        <ele>318.1</ele>
        <time>2019-12-25T12:09:42.000Z</time>
      </trkpt>
      <trkpt lat="45.86959" lon="3.16771">
        <ele>318.1</ele>
        <time>2019-12-25T12:09:43.000Z</time>
      </trkpt>
      <trkpt lat="45.86952" lon="3.16797">
        <ele>317.6</ele>
        <time>2019-12-25T12:09:45.000Z</time>
      </trkpt>
      <trkpt lat="45.86949" lon="3.1681">
        <ele>317.4</ele>
        <time>2019-12-25T12:09:46.000Z</time>
      </trkpt>
      <trkpt lat="45.86943" lon="3.16837">
        <ele>317.2</ele>
        <time>2019-12-25T12:09:48.000Z</time>
      </trkpt>
      <trkpt lat="45.86941" lon="3.1685">
        <ele>317.2</ele>
        <time>2019-12-25T12:09:49.000Z</time>
      </trkpt>
      <trkpt lat="45.86938" lon="3.16864">
        <ele>317.2</ele>
        <time>2019-12-25T12:09:50.000Z</time>
      </trkpt>
      <trkpt lat="45.86934" lon="3.16891">
        <ele>317.1</ele>
        <time>2019-12-25T12:09:52.000Z</time>
      </trkpt>
      <trkpt lat="45.86932" lon="3.16906">
        <ele>317.1</ele>
        <time>2019-12-25T12:09:53.000Z</time>
      </trkpt>
      <trkpt lat="45.86929" lon="3.16932">
        <ele>317.2</ele>
        <time>2019-12-25T12:09:55.000Z</time>
      </trkpt>
      <trkpt lat="45.86928" lon="3.16946">
        <ele>317.4</ele>
        <time>2019-12-25T12:09:56.000Z</time>
      </trkpt>
      <trkpt lat="45.86928" lon="3.1696">
        <ele>317.7</ele>
        <time>2019-12-25T12:09:57.000Z</time>
      </trkpt>
      <trkpt lat="45.86927" lon="3.16988">
        <ele>318.1</ele>
        <time>2019-12-25T12:09:59.000Z</time>
      </trkpt>
      <trkpt lat="45.86926" lon="3.17016">
        <ele>318</ele>
        <time>2019-12-25T12:10:01.000Z</time>
      </trkpt>
      <trkpt lat="45.86925" lon="3.17031">
        <ele>318</ele>
        <time>2019-12-25T12:10:02.000Z</time>
      </trkpt>
      <trkpt lat="45.86924" lon="3.17059">
        <ele>317.4</ele>
        <time>2019-12-25T12:10:04.000Z</time>
      </trkpt>
      <trkpt lat="45.86924" lon="3.17074">
        <ele>317.2</ele>
        <time>2019-12-25T12:10:05.000Z</time>
      </trkpt>
      <trkpt lat="45.86922" lon="3.17102">
        <ele>316.6</ele>
        <time>2019-12-25T12:10:07.000Z</time>
      </trkpt>
      <trkpt lat="45.86922" lon="3.17117">
        <ele>316.3</ele>
        <time>2019-12-25T12:10:08.000Z</time>
      </trkpt>
      <trkpt lat="45.86921" lon="3.17146">
        <ele>315.5</ele>
        <time>2019-12-25T12:10:10.000Z</time>
      </trkpt>
      <trkpt lat="45.86921" lon="3.1716">
        <ele>315.3</ele>
        <time>2019-12-25T12:10:11.000Z</time>
      </trkpt>
      <trkpt lat="45.8692" lon="3.17175">
        <ele>315.1</ele>
        <time>2019-12-25T12:10:12.000Z</time>
      </trkpt>
      <trkpt lat="45.86919" lon="3.17204">
        <ele>315.1</ele>
        <time>2019-12-25T12:10:14.000Z</time>
      </trkpt>
      <trkpt lat="45.86917" lon="3.17233">
        <ele>315.1</ele>
        <time>2019-12-25T12:10:16.000Z</time>
      </trkpt>
      <trkpt lat="45.86917" lon="3.17249">
        <ele>315.1</ele>
        <time>2019-12-25T12:10:17.000Z</time>
      </trkpt>
      <trkpt lat="45.86916" lon="3.17278">
        <ele>315.1</ele>
        <time>2019-12-25T12:10:19.000Z</time>
      </trkpt>
      <trkpt lat="45.86915" lon="3.17293">
        <ele>315.1</ele>
        <time>2019-12-25T12:10:20.000Z</time>
      </trkpt>
      <trkpt lat="45.86914" lon="3.17322">
        <ele>315.1</ele>
        <time>2019-12-25T12:10:22.000Z</time>
      </trkpt>
      <trkpt lat="45.86914" lon="3.17337">
        <ele>315.1</ele>
        <time>2019-12-25T12:10:23.000Z</time>
      </trkpt>
      <trkpt lat="45.86913" lon="3.17367">
        <ele>315.1</ele>
        <time>2019-12-25T12:10:25.000Z</time>
      </trkpt>
      <trkpt lat="45.86913" lon="3.17381">
        <ele>315.1</ele>
        <time>2019-12-25T12:10:26.000Z</time>
      </trkpt>
      <trkpt lat="45.86912" lon="3.17396">
        <ele>315.1</ele>
        <time>2019-12-25T12:10:27.000Z</time>
      </trkpt>
      <trkpt lat="45.86911" lon="3.17426">
        <ele>315.1</ele>
        <time>2019-12-25T12:10:29.000Z</time>
      </trkpt>
      <trkpt lat="45.86911" lon="3.1744">
        <ele>315.1</ele>
        <time>2019-12-25T12:10:30.000Z</time>
      </trkpt>
      <trkpt lat="45.8691" lon="3.1747">
        <ele>315.1</ele>
        <time>2019-12-25T12:10:32.000Z</time>
      </trkpt>
      <trkpt lat="45.86909" lon="3.175">
        <ele>315.1</ele>
        <time>2019-12-25T12:10:34.000Z</time>
      </trkpt>
      <trkpt lat="45.86909" lon="3.17516">
        <ele>315.1</ele>
        <time>2019-12-25T12:10:35.000Z</time>
      </trkpt>
      <trkpt lat="45.86908" lon="3.17531">
        <ele>315.1</ele>
        <time>2019-12-25T12:10:36.000Z</time>
      </trkpt>
      <trkpt lat="45.86907" lon="3.17546">
        <ele>315.1</ele>
        <time>2019-12-25T12:10:37.000Z</time>
      </trkpt>
      <trkpt lat="45.86906" lon="3.17576">
        <ele>315.1</ele>
        <time>2019-12-25T12:10:39.000Z</time>
      </trkpt>
      <trkpt lat="45.86905" lon="3.17606">
        <ele>315.1</ele>
        <time>2019-12-25T12:10:41.000Z</time>
      </trkpt>
      <trkpt lat="45.86904" lon="3.17637">
        <ele>315.1</ele>
        <time>2019-12-25T12:10:43.000Z</time>
      </trkpt>
      <trkpt lat="45.86904" lon="3.17651">
        <ele>315.1</ele>
        <time>2019-12-25T12:10:44.000Z</time>
      </trkpt>
      <trkpt lat="45.86903" lon="3.1768">
        <ele>315.1</ele>
        <time>2019-12-25T12:10:46.000Z</time>
      </trkpt>
      <trkpt lat="45.86903" lon="3.17696">
        <ele>315.1</ele>
        <time>2019-12-25T12:10:47.000Z</time>
      </trkpt>
      <trkpt lat="45.86902" lon="3.17725">
        <ele>315</ele>
        <time>2019-12-25T12:10:49.000Z</time>
      </trkpt>
      <trkpt lat="45.86901" lon="3.17739">
        <ele>314.9</ele>
        <time>2019-12-25T12:10:50.000Z</time>
      </trkpt>
      <trkpt lat="45.869" lon="3.17768">
        <ele>314.7</ele>
        <time>2019-12-25T12:10:52.000Z</time>
      </trkpt>
      <trkpt lat="45.869" lon="3.17783">
        <ele>314.7</ele>
        <time>2019-12-25T12:10:53.000Z</time>
      </trkpt>
      <trkpt lat="45.86898" lon="3.17812">
        <ele>314.9</ele>
        <time>2019-12-25T12:10:55.000Z</time>
      </trkpt>
      <trkpt lat="45.86897" lon="3.17827">
        <ele>315</ele>
        <time>2019-12-25T12:10:56.000Z</time>
      </trkpt>
      <trkpt lat="45.86896" lon="3.17857">
        <ele>315.1</ele>
        <time>2019-12-25T12:10:58.000Z</time>
      </trkpt>
      <trkpt lat="45.86895" lon="3.17886">
        <ele>315.1</ele>
        <time>2019-12-25T12:11:00.000Z</time>
      </trkpt>
      <trkpt lat="45.86895" lon="3.17901">
        <ele>315.2</ele>
        <time>2019-12-25T12:11:01.000Z</time>
      </trkpt>
      <trkpt lat="45.86894" lon="3.17931">
        <ele>315.2</ele>
        <time>2019-12-25T12:11:03.000Z</time>
      </trkpt>
      <trkpt lat="45.86893" lon="3.1796">
        <ele>315.2</ele>
        <time>2019-12-25T12:11:05.000Z</time>
      </trkpt>
      <trkpt lat="45.86892" lon="3.1799">
        <ele>315.2</ele>
        <time>2019-12-25T12:11:07.000Z</time>
      </trkpt>
      <trkpt lat="45.86891" lon="3.18005">
        <ele>315.2</ele>
        <time>2019-12-25T12:11:08.000Z</time>
      </trkpt>
      <trkpt lat="45.8689" lon="3.18035">
        <ele>315.2</ele>
        <time>2019-12-25T12:11:10.000Z</time>
      </trkpt>
      <trkpt lat="45.8689" lon="3.1805">
        <ele>315.1</ele>
        <time>2019-12-25T12:11:11.000Z</time>
      </trkpt>
      <trkpt lat="45.86889" lon="3.18079">
        <ele>315</ele>
        <time>2019-12-25T12:11:13.000Z</time>
      </trkpt>
      <trkpt lat="45.86888" lon="3.18109">
        <ele>314.8</ele>
        <time>2019-12-25T12:11:15.000Z</time>
      </trkpt>
      <trkpt lat="45.86887" lon="3.18138">
        <ele>314.7</ele>
        <time>2019-12-25T12:11:17.000Z</time>
      </trkpt>
      <trkpt lat="45.86886" lon="3.18168">
        <ele>314.7</ele>
        <time>2019-12-25T12:11:19.000Z</time>
      </trkpt>
      <trkpt lat="45.86885" lon="3.18198">
        <ele>314.7</ele>
        <time>2019-12-25T12:11:21.000Z</time>
      </trkpt>
      <trkpt lat="45.86884" lon="3.18213">
        <ele>314.7</ele>
        <time>2019-12-25T12:11:22.000Z</time>
      </trkpt>
      <trkpt lat="45.86884" lon="3.18243">
        <ele>314.8</ele>
        <time>2019-12-25T12:11:24.000Z</time>
      </trkpt>
      <trkpt lat="45.86883" lon="3.18258">
        <ele>314.9</ele>
        <time>2019-12-25T12:11:25.000Z</time>
      </trkpt>
      <trkpt lat="45.86882" lon="3.18287">
        <ele>315</ele>
        <time>2019-12-25T12:11:27.000Z</time>
      </trkpt>
      <trkpt lat="45.86882" lon="3.18302">
        <ele>315.1</ele>
        <time>2019-12-25T12:11:28.000Z</time>
      </trkpt>
      <trkpt lat="45.86881" lon="3.18317">
        <ele>315.2</ele>
        <time>2019-12-25T12:11:29.000Z</time>
      </trkpt>
      <trkpt lat="45.8688" lon="3.18346">
        <ele>315.2</ele>
        <time>2019-12-25T12:11:31.000Z</time>
      </trkpt>
      <trkpt lat="45.8688" lon="3.1836">
        <ele>315.3</ele>
        <time>2019-12-25T12:11:32.000Z</time>
      </trkpt>
      <trkpt lat="45.86879" lon="3.18375">
        <ele>315.3</ele>
        <time>2019-12-25T12:11:33.000Z</time>
      </trkpt>
      <trkpt lat="45.86879" lon="3.18389">
        <ele>315.3</ele>
        <time>2019-12-25T12:11:34.000Z</time>
      </trkpt>
      <trkpt lat="45.86878" lon="3.18418">
        <ele>315.3</ele>
        <time>2019-12-25T12:11:36.000Z</time>
      </trkpt>
      <trkpt lat="45.86878" lon="3.18433">
        <ele>315.3</ele>
        <time>2019-12-25T12:11:37.000Z</time>
      </trkpt>
      <trkpt lat="45.86877" lon="3.18463">
        <ele>315.3</ele>
        <time>2019-12-25T12:11:39.000Z</time>
      </trkpt>
      <trkpt lat="45.86876" lon="3.18478">
        <ele>315.3</ele>
        <time>2019-12-25T12:11:40.000Z</time>
      </trkpt>
      <trkpt lat="45.86875" lon="3.18508">
        <ele>315.2</ele>
        <time>2019-12-25T12:11:42.000Z</time>
      </trkpt>
      <trkpt lat="45.86875" lon="3.18523">
        <ele>315.2</ele>
        <time>2019-12-25T12:11:43.000Z</time>
      </trkpt>
      <trkpt lat="45.86874" lon="3.18538">
        <ele>315.1</ele>
        <time>2019-12-25T12:11:44.000Z</time>
      </trkpt>
      <trkpt lat="45.86873" lon="3.18569">
        <ele>314.9</ele>
        <time>2019-12-25T12:11:46.000Z</time>
      </trkpt>
      <trkpt lat="45.86871" lon="3.186">
        <ele>314.7</ele>
        <time>2019-12-25T12:11:48.000Z</time>
      </trkpt>
      <trkpt lat="45.8687" lon="3.1863">
        <ele>314.6</ele>
        <time>2019-12-25T12:11:50.000Z</time>
      </trkpt>
      <trkpt lat="45.8687" lon="3.18661">
        <ele>314.6</ele>
        <time>2019-12-25T12:11:52.000Z</time>
      </trkpt>
      <trkpt lat="45.86869" lon="3.18692">
        <ele>314.5</ele>
        <time>2019-12-25T12:11:54.000Z</time>
      </trkpt>
      <trkpt lat="45.86867" lon="3.18722">
        <ele>314.5</ele>
        <time>2019-12-25T12:11:56.000Z</time>
      </trkpt>
      <trkpt lat="45.86867" lon="3.18752">
        <ele>314.6</ele>
        <time>2019-12-25T12:11:58.000Z</time>
      </trkpt>
      <trkpt lat="45.86865" lon="3.18783">
        <ele>314.6</ele>
        <time>2019-12-25T12:12:00.000Z</time>
      </trkpt>
      <trkpt lat="45.86863" lon="3.18813">
        <ele>314.8</ele>
        <time>2019-12-25T12:12:02.000Z</time>
      </trkpt>
      <trkpt lat="45.86862" lon="3.18829">
        <ele>314.8</ele>
        <time>2019-12-25T12:12:03.000Z</time>
      </trkpt>
      <trkpt lat="45.86858" lon="3.18858">
        <ele>315</ele>
        <time>2019-12-25T12:12:05.000Z</time>
      </trkpt>
      <trkpt lat="45.86855" lon="3.18873">
        <ele>315.2</ele>
        <time>2019-12-25T12:12:06.000Z</time>
      </trkpt>
      <trkpt lat="45.86853" lon="3.18887">
        <ele>315.3</ele>
        <time>2019-12-25T12:12:07.000Z</time>
      </trkpt>
      <trkpt lat="45.86845" lon="3.18915">
        <ele>315.4</ele>
        <time>2019-12-25T12:12:09.000Z</time>
      </trkpt>
      <trkpt lat="45.86842" lon="3.18929">
        <ele>315.5</ele>
        <time>2019-12-25T12:12:10.000Z</time>
      </trkpt>
      <trkpt lat="45.86835" lon="3.18957">
        <ele>315.6</ele>
        <time>2019-12-25T12:12:12.000Z</time>
      </trkpt>
      <trkpt lat="45.86831" lon="3.1897">
        <ele>315.7</ele>
        <time>2019-12-25T12:12:13.000Z</time>
      </trkpt>
      <trkpt lat="45.86822" lon="3.18997">
        <ele>315.7</ele>
        <time>2019-12-25T12:12:15.000Z</time>
      </trkpt>
      <trkpt lat="45.86817" lon="3.19009">
        <ele>315.6</ele>
        <time>2019-12-25T12:12:16.000Z</time>
      </trkpt>
      <trkpt lat="45.86806" lon="3.19034">
        <ele>315.2</ele>
        <time>2019-12-25T12:12:18.000Z</time>
      </trkpt>
      <trkpt lat="45.86795" lon="3.19059">
        <ele>314.9</ele>
        <time>2019-12-25T12:12:20.000Z</time>
      </trkpt>
      <trkpt lat="45.86788" lon="3.19071">
        <ele>314.8</ele>
        <time>2019-12-25T12:12:21.000Z</time>
      </trkpt>
      <trkpt lat="45.86775" lon="3.19094">
        <ele>314.6</ele>
        <time>2019-12-25T12:12:23.000Z</time>
      </trkpt>
      <trkpt lat="45.86762" lon="3.19116">
        <ele>314.4</ele>
        <time>2019-12-25T12:12:25.000Z</time>
      </trkpt>
      <trkpt lat="45.86755" lon="3.19128">
        <ele>314.2</ele>
        <time>2019-12-25T12:12:26.000Z</time>
      </trkpt>
      <trkpt lat="45.86742" lon="3.1915">
        <ele>314.1</ele>
        <time>2019-12-25T12:12:28.000Z</time>
      </trkpt>
      <trkpt lat="45.86736" lon="3.19162">
        <ele>314</ele>
        <time>2019-12-25T12:12:29.000Z</time>
      </trkpt>
      <trkpt lat="45.86723" lon="3.19184">
        <ele>313.9</ele>
        <time>2019-12-25T12:12:31.000Z</time>
      </trkpt>
      <trkpt lat="45.86717" lon="3.19195">
        <ele>313.9</ele>
        <time>2019-12-25T12:12:32.000Z</time>
      </trkpt>
      <trkpt lat="45.8671" lon="3.19205">
        <ele>313.9</ele>
        <time>2019-12-25T12:12:33.000Z</time>
      </trkpt>
      <trkpt lat="45.86697" lon="3.19227">
        <ele>313.9</ele>
        <time>2019-12-25T12:12:35.000Z</time>
      </trkpt>
      <trkpt lat="45.86683" lon="3.19248">
        <ele>314.1</ele>
        <time>2019-12-25T12:12:37.000Z</time>
      </trkpt>
      <trkpt lat="45.86669" lon="3.19268">
        <ele>314.6</ele>
        <time>2019-12-25T12:12:39.000Z</time>
      </trkpt>
      <trkpt lat="45.86655" lon="3.19289">
        <ele>314.7</ele>
        <time>2019-12-25T12:12:41.000Z</time>
      </trkpt>
      <trkpt lat="45.86647" lon="3.19299">
        <ele>314.7</ele>
        <time>2019-12-25T12:12:42.000Z</time>
      </trkpt>
      <trkpt lat="45.86632" lon="3.19317">
        <ele>314.7</ele>
        <time>2019-12-25T12:12:44.000Z</time>
      </trkpt>
      <trkpt lat="45.86617" lon="3.19336">
        <ele>314.7</ele>
        <time>2019-12-25T12:12:46.000Z</time>
      </trkpt>
      <trkpt lat="45.86601" lon="3.19354">
        <ele>314.7</ele>
        <time>2019-12-25T12:12:48.000Z</time>
      </trkpt>
      <trkpt lat="45.86593" lon="3.19362">
        <ele>314.7</ele>
        <time>2019-12-25T12:12:49.000Z</time>
      </trkpt>
      <trkpt lat="45.86577" lon="3.19379">
        <ele>314.7</ele>
        <time>2019-12-25T12:12:51.000Z</time>
      </trkpt>
      <trkpt lat="45.8656" lon="3.19396">
        <ele>314.6</ele>
        <time>2019-12-25T12:12:53.000Z</time>
      </trkpt>
      <trkpt lat="45.86543" lon="3.19412">
        <ele>314.6</ele>
        <time>2019-12-25T12:12:55.000Z</time>
      </trkpt>
      <trkpt lat="45.86535" lon="3.19419">
        <ele>314.6</ele>
        <time>2019-12-25T12:12:56.000Z</time>
      </trkpt>
      <trkpt lat="45.86518" lon="3.19434">
        <ele>314.6</ele>
        <time>2019-12-25T12:12:58.000Z</time>
      </trkpt>
      <trkpt lat="45.86509" lon="3.19441">
        <ele>314.6</ele>
        <time>2019-12-25T12:12:59.000Z</time>
      </trkpt>
      <trkpt lat="45.86492" lon="3.19455">
        <ele>314.6</ele>
        <time>2019-12-25T12:13:01.000Z</time>
      </trkpt>
      <trkpt lat="45.86483" lon="3.19462">
        <ele>314.5</ele>
        <time>2019-12-25T12:13:02.000Z</time>
      </trkpt>
      <trkpt lat="45.86466" lon="3.19476">
        <ele>314.5</ele>
        <time>2019-12-25T12:13:04.000Z</time>
      </trkpt>
      <trkpt lat="45.86449" lon="3.19491">
        <ele>314.5</ele>
        <time>2019-12-25T12:13:06.000Z</time>
      </trkpt>
      <trkpt lat="45.86441" lon="3.19498">
        <ele>314.5</ele>
        <time>2019-12-25T12:13:07.000Z</time>
      </trkpt>
      <trkpt lat="45.86424" lon="3.19512">
        <ele>314.6</ele>
        <time>2019-12-25T12:13:09.000Z</time>
      </trkpt>
      <trkpt lat="45.86416" lon="3.1952">
        <ele>314.7</ele>
        <time>2019-12-25T12:13:10.000Z</time>
      </trkpt>
      <trkpt lat="45.86407" lon="3.19527">
        <ele>314.8</ele>
        <time>2019-12-25T12:13:11.000Z</time>
      </trkpt>
      <trkpt lat="45.8639" lon="3.19538">
        <ele>315</ele>
        <time>2019-12-25T12:13:13.000Z</time>
      </trkpt>
      <trkpt lat="45.86381" lon="3.1954">
        <ele>315.2</ele>
        <time>2019-12-25T12:13:14.000Z</time>
      </trkpt>
      <trkpt lat="45.86365" lon="3.19528">
        <ele>315.1</ele>
        <time>2019-12-25T12:13:16.000Z</time>
      </trkpt>
      <trkpt lat="45.86355" lon="3.19506">
        <ele>315.1</ele>
        <time>2019-12-25T12:13:18.000Z</time>
      </trkpt>
      <trkpt lat="45.86345" lon="3.19484">
        <ele>315</ele>
        <time>2019-12-25T12:13:20.000Z</time>
      </trkpt>
      <trkpt lat="45.86335" lon="3.19463">
        <ele>315.1</ele>
        <time>2019-12-25T12:13:22.000Z</time>
      </trkpt>
      <trkpt lat="45.86324" lon="3.19443">
        <ele>315.2</ele>
        <time>2019-12-25T12:13:24.000Z</time>
      </trkpt>
      <trkpt lat="45.86312" lon="3.19424">
        <ele>315.2</ele>
        <time>2019-12-25T12:13:26.000Z</time>
      </trkpt>
      <trkpt lat="45.863" lon="3.19406">
        <ele>315.3</ele>
        <time>2019-12-25T12:13:28.000Z</time>
      </trkpt>
      <trkpt lat="45.86287" lon="3.19389">
        <ele>315.4</ele>
        <time>2019-12-25T12:13:30.000Z</time>
      </trkpt>
      <trkpt lat="45.86281" lon="3.1938">
        <ele>315.4</ele>
        <time>2019-12-25T12:13:31.000Z</time>
      </trkpt>
      <trkpt lat="45.86269" lon="3.19362">
        <ele>315.5</ele>
        <time>2019-12-25T12:13:33.000Z</time>
      </trkpt>
      <trkpt lat="45.86263" lon="3.19352">
        <ele>315.5</ele>
        <time>2019-12-25T12:13:34.000Z</time>
      </trkpt>
      <trkpt lat="45.86252" lon="3.19334">
        <ele>315.5</ele>
        <time>2019-12-25T12:13:36.000Z</time>
      </trkpt>
      <trkpt lat="45.86239" lon="3.19316">
        <ele>315.5</ele>
        <time>2019-12-25T12:13:38.000Z</time>
      </trkpt>
      <trkpt lat="45.86227" lon="3.19297">
        <ele>315.4</ele>
        <time>2019-12-25T12:13:40.000Z</time>
      </trkpt>
      <trkpt lat="45.86221" lon="3.19288">
        <ele>315.4</ele>
        <time>2019-12-25T12:13:41.000Z</time>
      </trkpt>
      <trkpt lat="45.86209" lon="3.19269">
        <ele>315.4</ele>
        <time>2019-12-25T12:13:43.000Z</time>
      </trkpt>
      <trkpt lat="45.86204" lon="3.1926">
        <ele>315.4</ele>
        <time>2019-12-25T12:13:44.000Z</time>
      </trkpt>
      <trkpt lat="45.86193" lon="3.19241">
        <ele>315.4</ele>
        <time>2019-12-25T12:13:46.000Z</time>
      </trkpt>
      <trkpt lat="45.86181" lon="3.19221">
        <ele>315.4</ele>
        <time>2019-12-25T12:13:48.000Z</time>
      </trkpt>
      <trkpt lat="45.86175" lon="3.19212">
        <ele>315.4</ele>
        <time>2019-12-25T12:13:49.000Z</time>
      </trkpt>
      <trkpt lat="45.86162" lon="3.19193">
        <ele>315.3</ele>
        <time>2019-12-25T12:13:51.000Z</time>
      </trkpt>
      <trkpt lat="45.86156" lon="3.19184">
        <ele>315.3</ele>
        <time>2019-12-25T12:13:52.000Z</time>
      </trkpt>
      <trkpt lat="45.86144" lon="3.19165">
        <ele>315.1</ele>
        <time>2019-12-25T12:13:54.000Z</time>
      </trkpt>
      <trkpt lat="45.86138" lon="3.19156">
        <ele>314.9</ele>
        <time>2019-12-25T12:13:55.000Z</time>
      </trkpt>
      <trkpt lat="45.86126" lon="3.19137">
        <ele>314.5</ele>
        <time>2019-12-25T12:13:57.000Z</time>
      </trkpt>
      <trkpt lat="45.86119" lon="3.19128">
        <ele>314.4</ele>
        <time>2019-12-25T12:13:58.000Z</time>
      </trkpt>
      <trkpt lat="45.86108" lon="3.1911">
        <ele>314.6</ele>
        <time>2019-12-25T12:14:00.000Z</time>
      </trkpt>
      <trkpt lat="45.86101" lon="3.19103">
        <ele>314.5</ele>
        <time>2019-12-25T12:14:01.000Z</time>
      </trkpt>
      <trkpt lat="45.86093" lon="3.19098">
        <ele>314.4</ele>
        <time>2019-12-25T12:14:02.000Z</time>
      </trkpt>
      <trkpt lat="45.86076" lon="3.19094">
        <ele>314.1</ele>
        <time>2019-12-25T12:14:04.000Z</time>
      </trkpt>
      <trkpt lat="45.8606" lon="3.19091">
        <ele>314</ele>
        <time>2019-12-25T12:14:06.000Z</time>
      </trkpt>
      <trkpt lat="45.86053" lon="3.19087">
        <ele>314.1</ele>
        <time>2019-12-25T12:14:07.000Z</time>
      </trkpt>
      <trkpt lat="45.86042" lon="3.1907">
        <ele>314</ele>
        <time>2019-12-25T12:14:09.000Z</time>
      </trkpt>
      <trkpt lat="45.86038" lon="3.1906">
        <ele>313.8</ele>
        <time>2019-12-25T12:14:10.000Z</time>
      </trkpt>
      <trkpt lat="45.86033" lon="3.19037">
        <ele>313.6</ele>
        <time>2019-12-25T12:14:12.000Z</time>
      </trkpt>
      <trkpt lat="45.8603" lon="3.19014">
        <ele>313.4</ele>
        <time>2019-12-25T12:14:14.000Z</time>
      </trkpt>
      <trkpt lat="45.86026" lon="3.18991">
        <ele>314.3</ele>
        <time>2019-12-25T12:14:16.000Z</time>
      </trkpt>
      <trkpt lat="45.86022" lon="3.18966">
        <ele>314.9</ele>
        <time>2019-12-25T12:14:18.000Z</time>
      </trkpt>
      <trkpt lat="45.86018" lon="3.18942">
        <ele>315.3</ele>
        <time>2019-12-25T12:14:20.000Z</time>
      </trkpt>
      <trkpt lat="45.86012" lon="3.18917">
        <ele>315.3</ele>
        <time>2019-12-25T12:14:22.000Z</time>
      </trkpt>
      <trkpt lat="45.86008" lon="3.18905">
        <ele>315.3</ele>
        <time>2019-12-25T12:14:23.000Z</time>
      </trkpt>
      <trkpt lat="45.86005" lon="3.18893">
        <ele>315.3</ele>
        <time>2019-12-25T12:14:24.000Z</time>
      </trkpt>
      <trkpt lat="45.85997" lon="3.18868">
        <ele>315.3</ele>
        <time>2019-12-25T12:14:26.000Z</time>
      </trkpt>
      <trkpt lat="45.85993" lon="3.18856">
        <ele>315.3</ele>
        <time>2019-12-25T12:14:27.000Z</time>
      </trkpt>
      <trkpt lat="45.85984" lon="3.18831">
        <ele>315.3</ele>
        <time>2019-12-25T12:14:29.000Z</time>
      </trkpt>
      <trkpt lat="45.8598" lon="3.18819">
        <ele>315.3</ele>
        <time>2019-12-25T12:14:30.000Z</time>
      </trkpt>
      <trkpt lat="45.85976" lon="3.18806">
        <ele>315.3</ele>
        <time>2019-12-25T12:14:31.000Z</time>
      </trkpt>
      <trkpt lat="45.85972" lon="3.18794">
        <ele>315.3</ele>
        <time>2019-12-25T12:14:32.000Z</time>
      </trkpt>
      <trkpt lat="45.85964" lon="3.18769">
        <ele>315.7</ele>
        <time>2019-12-25T12:14:34.000Z</time>
      </trkpt>
      <trkpt lat="45.8596" lon="3.18757">
        <ele>315.9</ele>
        <time>2019-12-25T12:14:35.000Z</time>
      </trkpt>
      <trkpt lat="45.85952" lon="3.18733">
        <ele>316.1</ele>
        <time>2019-12-25T12:14:37.000Z</time>
      </trkpt>
      <trkpt lat="45.85948" lon="3.18721">
        <ele>316.2</ele>
        <time>2019-12-25T12:14:38.000Z</time>
      </trkpt>
      <trkpt lat="45.8594" lon="3.18698">
        <ele>316.2</ele>
        <time>2019-12-25T12:14:40.000Z</time>
      </trkpt>
      <trkpt lat="45.85936" lon="3.18686">
        <ele>316.1</ele>
        <time>2019-12-25T12:14:41.000Z</time>
      </trkpt>
      <trkpt lat="45.85932" lon="3.18674">
        <ele>316</ele>
        <time>2019-12-25T12:14:42.000Z</time>
      </trkpt>
      <trkpt lat="45.85924" lon="3.18651">
        <ele>315.9</ele>
        <time>2019-12-25T12:14:44.000Z</time>
      </trkpt>
      <trkpt lat="45.85917" lon="3.18629">
        <ele>315.9</ele>
        <time>2019-12-25T12:14:46.000Z</time>
      </trkpt>
      <trkpt lat="45.85909" lon="3.18607">
        <ele>315.9</ele>
        <time>2019-12-25T12:14:48.000Z</time>
      </trkpt>
      <trkpt lat="45.85902" lon="3.18585">
        <ele>315.9</ele>
        <time>2019-12-25T12:14:50.000Z</time>
      </trkpt>
      <trkpt lat="45.85893" lon="3.18563">
        <ele>316</ele>
        <time>2019-12-25T12:14:52.000Z</time>
      </trkpt>
      <trkpt lat="45.85884" lon="3.18541">
        <ele>316</ele>
        <time>2019-12-25T12:14:54.000Z</time>
      </trkpt>
      <trkpt lat="45.85876" lon="3.1852">
        <ele>316</ele>
        <time>2019-12-25T12:14:56.000Z</time>
      </trkpt>
      <trkpt lat="45.85867" lon="3.18498">
        <ele>316</ele>
        <time>2019-12-25T12:14:58.000Z</time>
      </trkpt>
      <trkpt lat="45.85858" lon="3.18478">
        <ele>316</ele>
        <time>2019-12-25T12:15:00.000Z</time>
      </trkpt>
      <trkpt lat="45.85853" lon="3.18468">
        <ele>316</ele>
        <time>2019-12-25T12:15:01.000Z</time>
      </trkpt>
      <trkpt lat="45.85842" lon="3.18448">
        <ele>316</ele>
        <time>2019-12-25T12:15:03.000Z</time>
      </trkpt>
      <trkpt lat="45.85837" lon="3.18438">
        <ele>316</ele>
        <time>2019-12-25T12:15:04.000Z</time>
      </trkpt>
      <trkpt lat="45.85827" lon="3.18419">
        <ele>316.1</ele>
        <time>2019-12-25T12:15:06.000Z</time>
      </trkpt>
      <trkpt lat="45.85817" lon="3.184">
        <ele>316.1</ele>
        <time>2019-12-25T12:15:08.000Z</time>
      </trkpt>
      <trkpt lat="45.85807" lon="3.18381">
        <ele>315.9</ele>
        <time>2019-12-25T12:15:10.000Z</time>
      </trkpt>
      <trkpt lat="45.85796" lon="3.18361">
        <ele>315.6</ele>
        <time>2019-12-25T12:15:12.000Z</time>
      </trkpt>
      <trkpt lat="45.85785" lon="3.18341">
        <ele>315.3</ele>
        <time>2019-12-25T12:15:14.000Z</time>
      </trkpt>
      <trkpt lat="45.85774" lon="3.18322">
        <ele>315.2</ele>
        <time>2019-12-25T12:15:16.000Z</time>
      </trkpt>
      <trkpt lat="45.85769" lon="3.18312">
        <ele>315.1</ele>
        <time>2019-12-25T12:15:17.000Z</time>
      </trkpt>
      <trkpt lat="45.85758" lon="3.18294">
        <ele>315.1</ele>
        <time>2019-12-25T12:15:19.000Z</time>
      </trkpt>
      <trkpt lat="45.85752" lon="3.18284">
        <ele>315.1</ele>
        <time>2019-12-25T12:15:20.000Z</time>
      </trkpt>
      <trkpt lat="45.85741" lon="3.18265">
        <ele>315.2</ele>
        <time>2019-12-25T12:15:22.000Z</time>
      </trkpt>
      <trkpt lat="45.85731" lon="3.18245">
        <ele>315.2</ele>
        <time>2019-12-25T12:15:24.000Z</time>
      </trkpt>
      <trkpt lat="45.85725" lon="3.18236">
        <ele>315.2</ele>
        <time>2019-12-25T12:15:25.000Z</time>
      </trkpt>
      <trkpt lat="45.85715" lon="3.18217">
        <ele>315.2</ele>
        <time>2019-12-25T12:15:27.000Z</time>
      </trkpt>
      <trkpt lat="45.85704" lon="3.18198">
        <ele>315.2</ele>
        <time>2019-12-25T12:15:29.000Z</time>
      </trkpt>
      <trkpt lat="45.85693" lon="3.18179">
        <ele>315.2</ele>
        <time>2019-12-25T12:15:31.000Z</time>
      </trkpt>
      <trkpt lat="45.85688" lon="3.1817">
        <ele>315.2</ele>
        <time>2019-12-25T12:15:32.000Z</time>
      </trkpt>
      <trkpt lat="45.85682" lon="3.1816">
        <ele>315.2</ele>
        <time>2019-12-25T12:15:33.000Z</time>
      </trkpt>
      <trkpt lat="45.85672" lon="3.18141">
        <ele>315.2</ele>
        <time>2019-12-25T12:15:35.000Z</time>
      </trkpt>
      <trkpt lat="45.85666" lon="3.18131">
        <ele>315.2</ele>
        <time>2019-12-25T12:15:36.000Z</time>
      </trkpt>
      <trkpt lat="45.85661" lon="3.18122">
        <ele>315.3</ele>
        <time>2019-12-25T12:15:37.000Z</time>
      </trkpt>
      <trkpt lat="45.85651" lon="3.18103">
        <ele>315.3</ele>
        <time>2019-12-25T12:15:39.000Z</time>
      </trkpt>
      <trkpt lat="45.8564" lon="3.18084">
        <ele>315.3</ele>
        <time>2019-12-25T12:15:41.000Z</time>
      </trkpt>
      <trkpt lat="45.85629" lon="3.18066">
        <ele>315.3</ele>
        <time>2019-12-25T12:15:43.000Z</time>
      </trkpt>
      <trkpt lat="45.85618" lon="3.18047">
        <ele>315.3</ele>
        <time>2019-12-25T12:15:45.000Z</time>
      </trkpt>
      <trkpt lat="45.85607" lon="3.18028">
        <ele>315.5</ele>
        <time>2019-12-25T12:15:47.000Z</time>
      </trkpt>
      <trkpt lat="45.85597" lon="3.1801">
        <ele>315.9</ele>
        <time>2019-12-25T12:15:49.000Z</time>
      </trkpt>
      <trkpt lat="45.85586" lon="3.17992">
        <ele>316.1</ele>
        <time>2019-12-25T12:15:51.000Z</time>
      </trkpt>
      <trkpt lat="45.85575" lon="3.17974">
        <ele>316.2</ele>
        <time>2019-12-25T12:15:53.000Z</time>
      </trkpt>
      <trkpt lat="45.85564" lon="3.17955">
        <ele>316.2</ele>
        <time>2019-12-25T12:15:55.000Z</time>
      </trkpt>
      <trkpt lat="45.85558" lon="3.17946">
        <ele>316.2</ele>
        <time>2019-12-25T12:15:56.000Z</time>
      </trkpt>
      <trkpt lat="45.85553" lon="3.17937">
        <ele>316.2</ele>
        <time>2019-12-25T12:15:57.000Z</time>
      </trkpt>
      <trkpt lat="45.85542" lon="3.17918">
        <ele>316.2</ele>
        <time>2019-12-25T12:15:59.000Z</time>
      </trkpt>
      <trkpt lat="45.8553" lon="3.179">
        <ele>316.3</ele>
        <time>2019-12-25T12:16:01.000Z</time>
      </trkpt>
      <trkpt lat="45.85518" lon="3.17883">
        <ele>316.7</ele>
        <time>2019-12-25T12:16:03.000Z</time>
      </trkpt>
      <trkpt lat="45.85505" lon="3.17866">
        <ele>317.2</ele>
        <time>2019-12-25T12:16:05.000Z</time>
      </trkpt>
      <trkpt lat="45.85492" lon="3.17849">
        <ele>317.7</ele>
        <time>2019-12-25T12:16:07.000Z</time>
      </trkpt>
      <trkpt lat="45.85479" lon="3.17834">
        <ele>318</ele>
        <time>2019-12-25T12:16:09.000Z</time>
      </trkpt>
      <trkpt lat="45.85465" lon="3.17819">
        <ele>318</ele>
        <time>2019-12-25T12:16:11.000Z</time>
      </trkpt>
      <trkpt lat="45.85451" lon="3.17806">
        <ele>317.7</ele>
        <time>2019-12-25T12:16:13.000Z</time>
      </trkpt>
      <trkpt lat="45.85443" lon="3.17799">
        <ele>317.6</ele>
        <time>2019-12-25T12:16:14.000Z</time>
      </trkpt>
      <trkpt lat="45.85429" lon="3.17784">
        <ele>317.2</ele>
        <time>2019-12-25T12:16:16.000Z</time>
      </trkpt>
      <trkpt lat="45.85415" lon="3.17768">
        <ele>316.8</ele>
        <time>2019-12-25T12:16:18.000Z</time>
      </trkpt>
      <trkpt lat="45.85402" lon="3.17752">
        <ele>316.5</ele>
        <time>2019-12-25T12:16:20.000Z</time>
      </trkpt>
      <trkpt lat="45.85391" lon="3.17734">
        <ele>316.4</ele>
        <time>2019-12-25T12:16:22.000Z</time>
      </trkpt>
      <trkpt lat="45.85385" lon="3.17724">
        <ele>316.4</ele>
        <time>2019-12-25T12:16:23.000Z</time>
      </trkpt>
      <trkpt lat="45.85375" lon="3.17706">
        <ele>316.4</ele>
        <time>2019-12-25T12:16:25.000Z</time>
      </trkpt>
      <trkpt lat="45.85371" lon="3.17696">
        <ele>316.4</ele>
        <time>2019-12-25T12:16:26.000Z</time>
      </trkpt>
      <trkpt lat="45.85363" lon="3.17677">
        <ele>316.4</ele>
        <time>2019-12-25T12:16:28.000Z</time>
      </trkpt>
      <trkpt lat="45.85359" lon="3.17656">
        <ele>316.3</ele>
        <time>2019-12-25T12:16:30.000Z</time>
      </trkpt>
      <trkpt lat="45.85356" lon="3.17636">
        <ele>315.7</ele>
        <time>2019-12-25T12:16:32.000Z</time>
      </trkpt>
      <trkpt lat="45.85343" lon="3.17622">
        <ele>315.4</ele>
        <time>2019-12-25T12:16:34.000Z</time>
      </trkpt>
      <trkpt lat="45.85328" lon="3.17621">
        <ele>315.5</ele>
        <time>2019-12-25T12:16:36.000Z</time>
      </trkpt>
      <trkpt lat="45.85312" lon="3.17626">
        <ele>315.4</ele>
        <time>2019-12-25T12:16:38.000Z</time>
      </trkpt>
      <trkpt lat="45.85295" lon="3.17623">
        <ele>315.3</ele>
        <time>2019-12-25T12:16:40.000Z</time>
      </trkpt>
      <trkpt lat="45.8528" lon="3.17608">
        <ele>315.4</ele>
        <time>2019-12-25T12:16:42.000Z</time>
      </trkpt>
      <trkpt lat="45.85266" lon="3.17593">
        <ele>315.5</ele>
        <time>2019-12-25T12:16:44.000Z</time>
      </trkpt>
      <trkpt lat="45.85259" lon="3.17586">
        <ele>315.6</ele>
        <time>2019-12-25T12:16:45.000Z</time>
      </trkpt>
      <trkpt lat="45.85252" lon="3.17578">
        <ele>315.7</ele>
        <time>2019-12-25T12:16:46.000Z</time>
      </trkpt>
      <trkpt lat="45.85245" lon="3.1757">
        <ele>315.8</ele>
        <time>2019-12-25T12:16:47.000Z</time>
      </trkpt>
      <trkpt lat="45.85233" lon="3.17552">
        <ele>315.8</ele>
        <time>2019-12-25T12:16:49.000Z</time>
      </trkpt>
      <trkpt lat="45.85227" lon="3.17542">
        <ele>315.8</ele>
        <time>2019-12-25T12:16:50.000Z</time>
      </trkpt>
      <trkpt lat="45.85217" lon="3.17523">
        <ele>315.8</ele>
        <time>2019-12-25T12:16:52.000Z</time>
      </trkpt>
      <trkpt lat="45.85207" lon="3.17503">
        <ele>315.8</ele>
        <time>2019-12-25T12:16:54.000Z</time>
      </trkpt>
      <trkpt lat="45.85196" lon="3.17482">
        <ele>315.8</ele>
        <time>2019-12-25T12:16:56.000Z</time>
      </trkpt>
      <trkpt lat="45.85191" lon="3.17472">
        <ele>315.8</ele>
        <time>2019-12-25T12:16:57.000Z</time>
      </trkpt>
      <trkpt lat="45.8518" lon="3.17452">
        <ele>315.8</ele>
        <time>2019-12-25T12:16:59.000Z</time>
      </trkpt>
      <trkpt lat="45.85169" lon="3.17432">
        <ele>315.8</ele>
        <time>2019-12-25T12:17:01.000Z</time>
      </trkpt>
      <trkpt lat="45.85158" lon="3.17413">
        <ele>315.9</ele>
        <time>2019-12-25T12:17:03.000Z</time>
      </trkpt>
      <trkpt lat="45.85146" lon="3.17392">
        <ele>316.2</ele>
        <time>2019-12-25T12:17:05.000Z</time>
      </trkpt>
      <trkpt lat="45.85141" lon="3.17382">
        <ele>316.4</ele>
        <time>2019-12-25T12:17:06.000Z</time>
      </trkpt>
      <trkpt lat="45.8513" lon="3.17362">
        <ele>316.7</ele>
        <time>2019-12-25T12:17:08.000Z</time>
      </trkpt>
      <trkpt lat="45.85125" lon="3.17352">
        <ele>316.7</ele>
        <time>2019-12-25T12:17:09.000Z</time>
      </trkpt>
      <trkpt lat="45.85113" lon="3.17332">
        <ele>316.8</ele>
        <time>2019-12-25T12:17:11.000Z</time>
      </trkpt>
      <trkpt lat="45.85108" lon="3.17322">
        <ele>316.9</ele>
        <time>2019-12-25T12:17:12.000Z</time>
      </trkpt>
      <trkpt lat="45.85096" lon="3.17303">
        <ele>317.1</ele>
        <time>2019-12-25T12:17:14.000Z</time>
      </trkpt>
      <trkpt lat="45.85084" lon="3.17284">
        <ele>317</ele>
        <time>2019-12-25T12:17:16.000Z</time>
      </trkpt>
      <trkpt lat="45.85071" lon="3.17267">
        <ele>316.8</ele>
        <time>2019-12-25T12:17:18.000Z</time>
      </trkpt>
      <trkpt lat="45.85057" lon="3.17251">
        <ele>316.8</ele>
        <time>2019-12-25T12:17:20.000Z</time>
      </trkpt>
      <trkpt lat="45.85042" lon="3.17233">
        <ele>317</ele>
        <time>2019-12-25T12:17:22.000Z</time>
      </trkpt>
      <trkpt lat="45.85028" lon="3.17217">
        <ele>317.5</ele>
        <time>2019-12-25T12:17:24.000Z</time>
      </trkpt>
      <trkpt lat="45.85014" lon="3.17199">
        <ele>318</ele>
        <time>2019-12-25T12:17:26.000Z</time>
      </trkpt>
      <trkpt lat="45.84999" lon="3.17182">
        <ele>318.4</ele>
        <time>2019-12-25T12:17:28.000Z</time>
      </trkpt>
      <trkpt lat="45.84992" lon="3.17173">
        <ele>318.6</ele>
        <time>2019-12-25T12:17:29.000Z</time>
      </trkpt>
      <trkpt lat="45.84985" lon="3.17165">
        <ele>318.6</ele>
        <time>2019-12-25T12:17:30.000Z</time>
      </trkpt>
      <trkpt lat="45.8497" lon="3.17147">
        <ele>318.6</ele>
        <time>2019-12-25T12:17:32.000Z</time>
      </trkpt>
      <trkpt lat="45.84956" lon="3.17131">
        <ele>318.6</ele>
        <time>2019-12-25T12:17:34.000Z</time>
      </trkpt>
      <trkpt lat="45.84949" lon="3.17123">
        <ele>318.6</ele>
        <time>2019-12-25T12:17:35.000Z</time>
      </trkpt>
      <trkpt lat="45.84934" lon="3.17106">
        <ele>318.6</ele>
        <time>2019-12-25T12:17:37.000Z</time>
      </trkpt>
      <trkpt lat="45.84927" lon="3.17098">
        <ele>318.6</ele>
        <time>2019-12-25T12:17:38.000Z</time>
      </trkpt>
      <trkpt lat="45.84913" lon="3.1708">
        <ele>318.8</ele>
        <time>2019-12-25T12:17:40.000Z</time>
      </trkpt>
      <trkpt lat="45.84906" lon="3.17071">
        <ele>319</ele>
        <time>2019-12-25T12:17:41.000Z</time>
      </trkpt>
      <trkpt lat="45.84891" lon="3.17054">
        <ele>319.3</ele>
        <time>2019-12-25T12:17:43.000Z</time>
      </trkpt>
      <trkpt lat="45.84877" lon="3.17037">
        <ele>319.4</ele>
        <time>2019-12-25T12:17:45.000Z</time>
      </trkpt>
      <trkpt lat="45.8487" lon="3.17029">
        <ele>319.3</ele>
        <time>2019-12-25T12:17:46.000Z</time>
      </trkpt>
      <trkpt lat="45.84856" lon="3.17011">
        <ele>318.9</ele>
        <time>2019-12-25T12:17:48.000Z</time>
      </trkpt>
      <trkpt lat="45.84842" lon="3.16994">
        <ele>318.6</ele>
        <time>2019-12-25T12:17:50.000Z</time>
      </trkpt>
      <trkpt lat="45.84829" lon="3.16977">
        <ele>318.6</ele>
        <time>2019-12-25T12:17:52.000Z</time>
      </trkpt>
      <trkpt lat="45.84822" lon="3.16968">
        <ele>318.6</ele>
        <time>2019-12-25T12:17:53.000Z</time>
      </trkpt>
      <trkpt lat="45.8481" lon="3.1695">
        <ele>318.9</ele>
        <time>2019-12-25T12:17:55.000Z</time>
      </trkpt>
      <trkpt lat="45.84803" lon="3.1694">
        <ele>319.1</ele>
        <time>2019-12-25T12:17:56.000Z</time>
      </trkpt>
      <trkpt lat="45.84797" lon="3.16932">
        <ele>319.3</ele>
        <time>2019-12-25T12:17:57.000Z</time>
      </trkpt>
      <trkpt lat="45.84784" lon="3.16914">
        <ele>319.5</ele>
        <time>2019-12-25T12:17:59.000Z</time>
      </trkpt>
      <trkpt lat="45.84778" lon="3.16906">
        <ele>319.5</ele>
        <time>2019-12-25T12:18:00.000Z</time>
      </trkpt>
      <trkpt lat="45.84766" lon="3.1689">
        <ele>319.5</ele>
        <time>2019-12-25T12:18:02.000Z</time>
      </trkpt>
      <trkpt lat="45.84754" lon="3.16873">
        <ele>319.5</ele>
        <time>2019-12-25T12:18:04.000Z</time>
      </trkpt>
      <trkpt lat="45.84742" lon="3.16857">
        <ele>319.5</ele>
        <time>2019-12-25T12:18:06.000Z</time>
      </trkpt>
      <trkpt lat="45.84736" lon="3.16848">
        <ele>319.5</ele>
        <time>2019-12-25T12:18:07.000Z</time>
      </trkpt>
      <trkpt lat="45.84724" lon="3.16832">
        <ele>319.5</ele>
        <time>2019-12-25T12:18:09.000Z</time>
      </trkpt>
      <trkpt lat="45.84713" lon="3.16815">
        <ele>319.5</ele>
        <time>2019-12-25T12:18:11.000Z</time>
      </trkpt>
      <trkpt lat="45.847" lon="3.16797">
        <ele>319.4</ele>
        <time>2019-12-25T12:18:13.000Z</time>
      </trkpt>
      <trkpt lat="45.84694" lon="3.16789">
        <ele>319.4</ele>
        <time>2019-12-25T12:18:14.000Z</time>
      </trkpt>
      <trkpt lat="45.84684" lon="3.16771">
        <ele>319.4</ele>
        <time>2019-12-25T12:18:16.000Z</time>
      </trkpt>
      <trkpt lat="45.84679" lon="3.16761">
        <ele>319.5</ele>
        <time>2019-12-25T12:18:17.000Z</time>
      </trkpt>
      <trkpt lat="45.84671" lon="3.16742">
        <ele>319.6</ele>
        <time>2019-12-25T12:18:19.000Z</time>
      </trkpt>
      <trkpt lat="45.84667" lon="3.16733">
        <ele>319.6</ele>
        <time>2019-12-25T12:18:20.000Z</time>
      </trkpt>
      <trkpt lat="45.84661" lon="3.16713">
        <ele>319.8</ele>
        <time>2019-12-25T12:18:22.000Z</time>
      </trkpt>
      <trkpt lat="45.84661" lon="3.16691">
        <ele>319.9</ele>
        <time>2019-12-25T12:18:24.000Z</time>
      </trkpt>
      <trkpt lat="45.84663" lon="3.16681">
        <ele>319.8</ele>
        <time>2019-12-25T12:18:25.000Z</time>
      </trkpt>
      <trkpt lat="45.84669" lon="3.1666">
        <ele>319.7</ele>
        <time>2019-12-25T12:18:27.000Z</time>
      </trkpt>
      <trkpt lat="45.84669" lon="3.16638">
        <ele>319.6</ele>
        <time>2019-12-25T12:18:29.000Z</time>
      </trkpt>
      <trkpt lat="45.84664" lon="3.16616">
        <ele>319.6</ele>
        <time>2019-12-25T12:18:31.000Z</time>
      </trkpt>
      <trkpt lat="45.84655" lon="3.16598">
        <ele>319.6</ele>
        <time>2019-12-25T12:18:33.000Z</time>
      </trkpt>
      <trkpt lat="45.84649" lon="3.16589">
        <ele>319.6</ele>
        <time>2019-12-25T12:18:34.000Z</time>
      </trkpt>
      <trkpt lat="45.84644" lon="3.1658">
        <ele>319.6</ele>
        <time>2019-12-25T12:18:35.000Z</time>
      </trkpt>
      <trkpt lat="45.84642" lon="3.16568">
        <ele>319.5</ele>
        <time>2019-12-25T12:18:36.000Z</time>
      </trkpt>
      <trkpt lat="45.84638" lon="3.16545">
        <ele>319.3</ele>
        <time>2019-12-25T12:18:38.000Z</time>
      </trkpt>
      <trkpt lat="45.84632" lon="3.16524">
        <ele>319.1</ele>
        <time>2019-12-25T12:18:40.000Z</time>
      </trkpt>
      <trkpt lat="45.84627" lon="3.16515">
        <ele>319</ele>
        <time>2019-12-25T12:18:41.000Z</time>
      </trkpt>
      <trkpt lat="45.84622" lon="3.16507">
        <ele>318.9</ele>
        <time>2019-12-25T12:18:42.000Z</time>
      </trkpt>
      <trkpt lat="45.84608" lon="3.16496">
        <ele>318.6</ele>
        <time>2019-12-25T12:18:44.000Z</time>
      </trkpt>
      <trkpt lat="45.84593" lon="3.1649">
        <ele>318.4</ele>
        <time>2019-12-25T12:18:46.000Z</time>
      </trkpt>
      <trkpt lat="45.84577" lon="3.16487">
        <ele>318.2</ele>
        <time>2019-12-25T12:18:48.000Z</time>
      </trkpt>
      <trkpt lat="45.84561" lon="3.16483">
        <ele>317.9</ele>
        <time>2019-12-25T12:18:50.000Z</time>
      </trkpt>
      <trkpt lat="45.84544" lon="3.16477">
        <ele>317.6</ele>
        <time>2019-12-25T12:18:52.000Z</time>
      </trkpt>
      <trkpt lat="45.84528" lon="3.16469">
        <ele>317.4</ele>
        <time>2019-12-25T12:18:54.000Z</time>
      </trkpt>
      <trkpt lat="45.84521" lon="3.16464">
        <ele>317.3</ele>
        <time>2019-12-25T12:18:55.000Z</time>
      </trkpt>
      <trkpt lat="45.84506" lon="3.16452">
        <ele>317</ele>
        <time>2019-12-25T12:18:57.000Z</time>
      </trkpt>
      <trkpt lat="45.84493" lon="3.16436">
        <ele>316.8</ele>
        <time>2019-12-25T12:18:59.000Z</time>
      </trkpt>
      <trkpt lat="45.84481" lon="3.16419">
        <ele>316.7</ele>
        <time>2019-12-25T12:19:01.000Z</time>
      </trkpt>
      <trkpt lat="45.84476" lon="3.16409">
        <ele>316.7</ele>
        <time>2019-12-25T12:19:02.000Z</time>
      </trkpt>
      <trkpt lat="45.84467" lon="3.1639">
        <ele>316.6</ele>
        <time>2019-12-25T12:19:04.000Z</time>
      </trkpt>
      <trkpt lat="45.84458" lon="3.16371">
        <ele>316.7</ele>
        <time>2019-12-25T12:19:06.000Z</time>
      </trkpt>
      <trkpt lat="45.84448" lon="3.16354">
        <ele>316.9</ele>
        <time>2019-12-25T12:19:08.000Z</time>
      </trkpt>
      <trkpt lat="45.84444" lon="3.16345">
        <ele>317</ele>
        <time>2019-12-25T12:19:09.000Z</time>
      </trkpt>
      <trkpt lat="45.84435" lon="3.16327">
        <ele>317.4</ele>
        <time>2019-12-25T12:19:11.000Z</time>
      </trkpt>
      <trkpt lat="45.84431" lon="3.16318">
        <ele>317.6</ele>
        <time>2019-12-25T12:19:12.000Z</time>
      </trkpt>
      <trkpt lat="45.84427" lon="3.1631">
        <ele>317.8</ele>
        <time>2019-12-25T12:19:13.000Z</time>
      </trkpt>
      <trkpt lat="45.8442" lon="3.16292">
        <ele>318.2</ele>
        <time>2019-12-25T12:19:15.000Z</time>
      </trkpt>
      <trkpt lat="45.84413" lon="3.16275">
        <ele>318.6</ele>
        <time>2019-12-25T12:19:17.000Z</time>
      </trkpt>
      <trkpt lat="45.8441" lon="3.16267">
        <ele>318.8</ele>
        <time>2019-12-25T12:19:18.000Z</time>
      </trkpt>
      <trkpt lat="45.84403" lon="3.16251">
        <ele>319.1</ele>
        <time>2019-12-25T12:19:20.000Z</time>
      </trkpt>
      <trkpt lat="45.84399" lon="3.16243">
        <ele>319.3</ele>
        <time>2019-12-25T12:19:21.000Z</time>
      </trkpt>
      <trkpt lat="45.84393" lon="3.16227">
        <ele>319.6</ele>
        <time>2019-12-25T12:19:23.000Z</time>
      </trkpt>
      <trkpt lat="45.84387" lon="3.16211">
        <ele>319.9</ele>
        <time>2019-12-25T12:19:25.000Z</time>
      </trkpt>
      <trkpt lat="45.84383" lon="3.16203">
        <ele>320.1</ele>
        <time>2019-12-25T12:19:26.000Z</time>
      </trkpt>
      <trkpt lat="45.84381" lon="3.16195">
        <ele>320.2</ele>
        <time>2019-12-25T12:19:27.000Z</time>
      </trkpt>
      <trkpt lat="45.84374" lon="3.16177">
        <ele>320.5</ele>
        <time>2019-12-25T12:19:29.000Z</time>
      </trkpt>
      <trkpt lat="45.84371" lon="3.16169">
        <ele>320.7</ele>
        <time>2019-12-25T12:19:30.000Z</time>
      </trkpt>
      <trkpt lat="45.84366" lon="3.16152">
        <ele>321</ele>
        <time>2019-12-25T12:19:32.000Z</time>
      </trkpt>
      <trkpt lat="45.84363" lon="3.16144">
        <ele>321.2</ele>
        <time>2019-12-25T12:19:33.000Z</time>
      </trkpt>
      <trkpt lat="45.84357" lon="3.16126">
        <ele>321.5</ele>
        <time>2019-12-25T12:19:35.000Z</time>
      </trkpt>
      <trkpt lat="45.84352" lon="3.16108">
        <ele>322.1</ele>
        <time>2019-12-25T12:19:37.000Z</time>
      </trkpt>
      <trkpt lat="45.84347" lon="3.16088">
        <ele>323</ele>
        <time>2019-12-25T12:19:39.000Z</time>
      </trkpt>
      <trkpt lat="45.84341" lon="3.16069">
        <ele>323.6</ele>
        <time>2019-12-25T12:19:41.000Z</time>
      </trkpt>
      <trkpt lat="45.84336" lon="3.16049">
        <ele>323.9</ele>
        <time>2019-12-25T12:19:43.000Z</time>
      </trkpt>
      <trkpt lat="45.84331" lon="3.16028">
        <ele>323.4</ele>
        <time>2019-12-25T12:19:45.000Z</time>
      </trkpt>
      <trkpt lat="45.84325" lon="3.16007">
        <ele>322.6</ele>
        <time>2019-12-25T12:19:47.000Z</time>
      </trkpt>
      <trkpt lat="45.84322" lon="3.15997">
        <ele>322.4</ele>
        <time>2019-12-25T12:19:48.000Z</time>
      </trkpt>
      <trkpt lat="45.84316" lon="3.15976">
        <ele>322.2</ele>
        <time>2019-12-25T12:19:50.000Z</time>
      </trkpt>
      <trkpt lat="45.84313" lon="3.15964">
        <ele>322.1</ele>
        <time>2019-12-25T12:19:51.000Z</time>
      </trkpt>
      <trkpt lat="45.84306" lon="3.15942">
        <ele>322</ele>
        <time>2019-12-25T12:19:53.000Z</time>
      </trkpt>
      <trkpt lat="45.84302" lon="3.15931">
        <ele>322.2</ele>
        <time>2019-12-25T12:19:54.000Z</time>
      </trkpt>
      <trkpt lat="45.84294" lon="3.15909">
        <ele>323.3</ele>
        <time>2019-12-25T12:19:56.000Z</time>
      </trkpt>
      <trkpt lat="45.84282" lon="3.15887">
        <ele>324.6</ele>
        <time>2019-12-25T12:19:58.000Z</time>
      </trkpt>
      <trkpt lat="45.84268" lon="3.15869">
        <ele>325</ele>
        <time>2019-12-25T12:20:00.000Z</time>
      </trkpt>
      <trkpt lat="45.8426" lon="3.1586">
        <ele>325.2</ele>
        <time>2019-12-25T12:20:01.000Z</time>
      </trkpt>
      <trkpt lat="45.84244" lon="3.15844">
        <ele>325.5</ele>
        <time>2019-12-25T12:20:03.000Z</time>
      </trkpt>
      <trkpt lat="45.84235" lon="3.15835">
        <ele>325.7</ele>
        <time>2019-12-25T12:20:04.000Z</time>
      </trkpt>
      <trkpt lat="45.84226" lon="3.15828">
        <ele>326</ele>
        <time>2019-12-25T12:20:05.000Z</time>
      </trkpt>
      <trkpt lat="45.8421" lon="3.1581">
        <ele>326.8</ele>
        <time>2019-12-25T12:20:07.000Z</time>
      </trkpt>
      <trkpt lat="45.84195" lon="3.15789">
        <ele>327.4</ele>
        <time>2019-12-25T12:20:09.000Z</time>
      </trkpt>
      <trkpt lat="45.84186" lon="3.15783">
        <ele>327.3</ele>
        <time>2019-12-25T12:20:10.000Z</time>
      </trkpt>
      <trkpt lat="45.84166" lon="3.15783">
        <ele>326.3</ele>
        <time>2019-12-25T12:20:12.000Z</time>
      </trkpt>
      <trkpt lat="45.84157" lon="3.15789">
        <ele>325.9</ele>
        <time>2019-12-25T12:20:13.000Z</time>
      </trkpt>
      <trkpt lat="45.84141" lon="3.15807">
        <ele>325.5</ele>
        <time>2019-12-25T12:20:15.000Z</time>
      </trkpt>
      <trkpt lat="45.84132" lon="3.15814">
        <ele>325.2</ele>
        <time>2019-12-25T12:20:16.000Z</time>
      </trkpt>
      <trkpt lat="45.84122" lon="3.15817">
        <ele>324.9</ele>
        <time>2019-12-25T12:20:17.000Z</time>
      </trkpt>
      <trkpt lat="45.84101" lon="3.15818">
        <ele>324.4</ele>
        <time>2019-12-25T12:20:19.000Z</time>
      </trkpt>
      <trkpt lat="45.8408" lon="3.15819">
        <ele>324.1</ele>
        <time>2019-12-25T12:20:21.000Z</time>
      </trkpt>
      <trkpt lat="45.84059" lon="3.1582">
        <ele>323.4</ele>
        <time>2019-12-25T12:20:23.000Z</time>
      </trkpt>
      <trkpt lat="45.84038" lon="3.15821">
        <ele>323.2</ele>
        <time>2019-12-25T12:20:25.000Z</time>
      </trkpt>
      <trkpt lat="45.84018" lon="3.15822">
        <ele>323</ele>
        <time>2019-12-25T12:20:27.000Z</time>
      </trkpt>
      <trkpt lat="45.84007" lon="3.15822">
        <ele>322.8</ele>
        <time>2019-12-25T12:20:28.000Z</time>
      </trkpt>
      <trkpt lat="45.83986" lon="3.15823">
        <ele>322.4</ele>
        <time>2019-12-25T12:20:30.000Z</time>
      </trkpt>
      <trkpt lat="45.83976" lon="3.15824">
        <ele>322.2</ele>
        <time>2019-12-25T12:20:31.000Z</time>
      </trkpt>
      <trkpt lat="45.83965" lon="3.15824">
        <ele>322.2</ele>
        <time>2019-12-25T12:20:32.000Z</time>
      </trkpt>
      <trkpt lat="45.83954" lon="3.15825">
        <ele>322.1</ele>
        <time>2019-12-25T12:20:33.000Z</time>
      </trkpt>
      <trkpt lat="45.83933" lon="3.15825">
        <ele>322.1</ele>
        <time>2019-12-25T12:20:35.000Z</time>
      </trkpt>
      <trkpt lat="45.83911" lon="3.15826">
        <ele>321.8</ele>
        <time>2019-12-25T12:20:37.000Z</time>
      </trkpt>
      <trkpt lat="45.83889" lon="3.15826">
        <ele>321.3</ele>
        <time>2019-12-25T12:20:39.000Z</time>
      </trkpt>
      <trkpt lat="45.83868" lon="3.15827">
        <ele>321.1</ele>
        <time>2019-12-25T12:20:41.000Z</time>
      </trkpt>
      <trkpt lat="45.83847" lon="3.15827">
        <ele>321.1</ele>
        <time>2019-12-25T12:20:43.000Z</time>
      </trkpt>
      <trkpt lat="45.83826" lon="3.15827">
        <ele>321.1</ele>
        <time>2019-12-25T12:20:45.000Z</time>
      </trkpt>
      <trkpt lat="45.83804" lon="3.15828">
        <ele>321.4</ele>
        <time>2019-12-25T12:20:47.000Z</time>
      </trkpt>
      <trkpt lat="45.83794" lon="3.15829">
        <ele>321.6</ele>
        <time>2019-12-25T12:20:48.000Z</time>
      </trkpt>
      <trkpt lat="45.83783" lon="3.15829">
        <ele>321.8</ele>
        <time>2019-12-25T12:20:49.000Z</time>
      </trkpt>
      <trkpt lat="45.83772" lon="3.1583">
        <ele>321.9</ele>
        <time>2019-12-25T12:20:50.000Z</time>
      </trkpt>
      <trkpt lat="45.83751" lon="3.1583">
        <ele>321.9</ele>
        <time>2019-12-25T12:20:52.000Z</time>
      </trkpt>
      <trkpt lat="45.8373" lon="3.15831">
        <ele>321.9</ele>
        <time>2019-12-25T12:20:54.000Z</time>
      </trkpt>
      <trkpt lat="45.83719" lon="3.15831">
        <ele>321.9</ele>
        <time>2019-12-25T12:20:55.000Z</time>
      </trkpt>
      <trkpt lat="45.83709" lon="3.15832">
        <ele>321.9</ele>
        <time>2019-12-25T12:20:56.000Z</time>
      </trkpt>
      <trkpt lat="45.83688" lon="3.15832">
        <ele>321.9</ele>
        <time>2019-12-25T12:20:58.000Z</time>
      </trkpt>
      <trkpt lat="45.83678" lon="3.15833">
        <ele>321.9</ele>
        <time>2019-12-25T12:20:59.000Z</time>
      </trkpt>
      <trkpt lat="45.83657" lon="3.15834">
        <ele>321.9</ele>
        <time>2019-12-25T12:21:01.000Z</time>
      </trkpt>
      <trkpt lat="45.83636" lon="3.15834">
        <ele>321.8</ele>
        <time>2019-12-25T12:21:03.000Z</time>
      </trkpt>
      <trkpt lat="45.83626" lon="3.15835">
        <ele>321.8</ele>
        <time>2019-12-25T12:21:04.000Z</time>
      </trkpt>
      <trkpt lat="45.83605" lon="3.15835">
        <ele>321.8</ele>
        <time>2019-12-25T12:21:06.000Z</time>
      </trkpt>
      <trkpt lat="45.83595" lon="3.15835">
        <ele>321.8</ele>
        <time>2019-12-25T12:21:07.000Z</time>
      </trkpt>
      <trkpt lat="45.83585" lon="3.15836">
        <ele>321.8</ele>
        <time>2019-12-25T12:21:08.000Z</time>
      </trkpt>
      <trkpt lat="45.83575" lon="3.15836">
        <ele>321.8</ele>
        <time>2019-12-25T12:21:09.000Z</time>
      </trkpt>
      <trkpt lat="45.83565" lon="3.15836">
        <ele>321.8</ele>
        <time>2019-12-25T12:21:10.000Z</time>
      </trkpt>
      <trkpt lat="45.83545" lon="3.15837">
        <ele>321.8</ele>
        <time>2019-12-25T12:21:12.000Z</time>
      </trkpt>
      <trkpt lat="45.83526" lon="3.15837">
        <ele>321.8</ele>
        <time>2019-12-25T12:21:14.000Z</time>
      </trkpt>
      <trkpt lat="45.83516" lon="3.15837">
        <ele>321.8</ele>
        <time>2019-12-25T12:21:15.000Z</time>
      </trkpt>
      <trkpt lat="45.83497" lon="3.15838">
        <ele>321.8</ele>
        <time>2019-12-25T12:21:17.000Z</time>
      </trkpt>
      <trkpt lat="45.83478" lon="3.15839">
        <ele>321.7</ele>
        <time>2019-12-25T12:21:19.000Z</time>
      </trkpt>
      <trkpt lat="45.83468" lon="3.15839">
        <ele>321.7</ele>
        <time>2019-12-25T12:21:20.000Z</time>
      </trkpt>
      <trkpt lat="45.83449" lon="3.1584">
        <ele>321.7</ele>
        <time>2019-12-25T12:21:22.000Z</time>
      </trkpt>
      <trkpt lat="45.8343" lon="3.1584">
        <ele>321.7</ele>
        <time>2019-12-25T12:21:24.000Z</time>
      </trkpt>
      <trkpt lat="45.83412" lon="3.15841">
        <ele>321.7</ele>
        <time>2019-12-25T12:21:26.000Z</time>
      </trkpt>
      <trkpt lat="45.83393" lon="3.15842">
        <ele>321.7</ele>
        <time>2019-12-25T12:21:28.000Z</time>
      </trkpt>
      <trkpt lat="45.83375" lon="3.15842">
        <ele>321.7</ele>
        <time>2019-12-25T12:21:30.000Z</time>
      </trkpt>
      <trkpt lat="45.83366" lon="3.15843">
        <ele>321.7</ele>
        <time>2019-12-25T12:21:31.000Z</time>
      </trkpt>
      <trkpt lat="45.83357" lon="3.15843">
        <ele>321.7</ele>
        <time>2019-12-25T12:21:32.000Z</time>
      </trkpt>
      <trkpt lat="45.83338" lon="3.15844">
        <ele>321.6</ele>
        <time>2019-12-25T12:21:34.000Z</time>
      </trkpt>
      <trkpt lat="45.83319" lon="3.15844">
        <ele>321.6</ele>
        <time>2019-12-25T12:21:36.000Z</time>
      </trkpt>
      <trkpt lat="45.8331" lon="3.15844">
        <ele>321.6</ele>
        <time>2019-12-25T12:21:37.000Z</time>
      </trkpt>
      <trkpt lat="45.83291" lon="3.15845">
        <ele>321.6</ele>
        <time>2019-12-25T12:21:39.000Z</time>
      </trkpt>
      <trkpt lat="45.83272" lon="3.15845">
        <ele>321.6</ele>
        <time>2019-12-25T12:21:41.000Z</time>
      </trkpt>
      <trkpt lat="45.83252" lon="3.15846">
        <ele>321.6</ele>
        <time>2019-12-25T12:21:43.000Z</time>
      </trkpt>
      <trkpt lat="45.83243" lon="3.15846">
        <ele>321.6</ele>
        <time>2019-12-25T12:21:44.000Z</time>
      </trkpt>
      <trkpt lat="45.83224" lon="3.15846">
        <ele>321.6</ele>
        <time>2019-12-25T12:21:46.000Z</time>
      </trkpt>
      <trkpt lat="45.83215" lon="3.15846">
        <ele>321.6</ele>
        <time>2019-12-25T12:21:47.000Z</time>
      </trkpt>
      <trkpt lat="45.83196" lon="3.15847">
        <ele>321.6</ele>
        <time>2019-12-25T12:21:49.000Z</time>
      </trkpt>
      <trkpt lat="45.83177" lon="3.15848">
        <ele>321.6</ele>
        <time>2019-12-25T12:21:51.000Z</time>
      </trkpt>
      <trkpt lat="45.8316" lon="3.15848">
        <ele>321.6</ele>
        <time>2019-12-25T12:21:53.000Z</time>
      </trkpt>
      <trkpt lat="45.8315" lon="3.15848">
        <ele>321.6</ele>
        <time>2019-12-25T12:21:54.000Z</time>
      </trkpt>
      <trkpt lat="45.83132" lon="3.15848">
        <ele>321.6</ele>
        <time>2019-12-25T12:21:56.000Z</time>
      </trkpt>
      <trkpt lat="45.83123" lon="3.15848">
        <ele>321.7</ele>
        <time>2019-12-25T12:21:57.000Z</time>
      </trkpt>
      <trkpt lat="45.83105" lon="3.15847">
        <ele>321.8</ele>
        <time>2019-12-25T12:21:59.000Z</time>
      </trkpt>
      <trkpt lat="45.83088" lon="3.15846">
        <ele>321.9</ele>
        <time>2019-12-25T12:22:01.000Z</time>
      </trkpt>
      <trkpt lat="45.83079" lon="3.15845">
        <ele>321.9</ele>
        <time>2019-12-25T12:22:02.000Z</time>
      </trkpt>
      <trkpt lat="45.83061" lon="3.15843">
        <ele>322.1</ele>
        <time>2019-12-25T12:22:04.000Z</time>
      </trkpt>
      <trkpt lat="45.83052" lon="3.15842">
        <ele>322.1</ele>
        <time>2019-12-25T12:22:05.000Z</time>
      </trkpt>
      <trkpt lat="45.83043" lon="3.15841">
        <ele>322.2</ele>
        <time>2019-12-25T12:22:06.000Z</time>
      </trkpt>
      <trkpt lat="45.83026" lon="3.1584">
        <ele>322.3</ele>
        <time>2019-12-25T12:22:08.000Z</time>
      </trkpt>
      <trkpt lat="45.83018" lon="3.15839">
        <ele>322.3</ele>
        <time>2019-12-25T12:22:09.000Z</time>
      </trkpt>
      <trkpt lat="45.83001" lon="3.15837">
        <ele>322.3</ele>
        <time>2019-12-25T12:22:11.000Z</time>
      </trkpt>
      <trkpt lat="45.82992" lon="3.15836">
        <ele>322.4</ele>
        <time>2019-12-25T12:22:12.000Z</time>
      </trkpt>
      <trkpt lat="45.82975" lon="3.15833">
        <ele>322.4</ele>
        <time>2019-12-25T12:22:14.000Z</time>
      </trkpt>
      <trkpt lat="45.82958" lon="3.15831">
        <ele>322.4</ele>
        <time>2019-12-25T12:22:16.000Z</time>
      </trkpt>
      <trkpt lat="45.82941" lon="3.15827">
        <ele>322.5</ele>
        <time>2019-12-25T12:22:18.000Z</time>
      </trkpt>
      <trkpt lat="45.82924" lon="3.15822">
        <ele>322.7</ele>
        <time>2019-12-25T12:22:20.000Z</time>
      </trkpt>
      <trkpt lat="45.82916" lon="3.1582">
        <ele>322.8</ele>
        <time>2019-12-25T12:22:21.000Z</time>
      </trkpt>
      <trkpt lat="45.82907" lon="3.15818">
        <ele>323</ele>
        <time>2019-12-25T12:22:22.000Z</time>
      </trkpt>
      <trkpt lat="45.82898" lon="3.15816">
        <ele>323.2</ele>
        <time>2019-12-25T12:22:23.000Z</time>
      </trkpt>
      <trkpt lat="45.82881" lon="3.15813">
        <ele>323.6</ele>
        <time>2019-12-25T12:22:25.000Z</time>
      </trkpt>
      <trkpt lat="45.82864" lon="3.15809">
        <ele>323.7</ele>
        <time>2019-12-25T12:22:27.000Z</time>
      </trkpt>
      <trkpt lat="45.82849" lon="3.158">
        <ele>323.8</ele>
        <time>2019-12-25T12:22:29.000Z</time>
      </trkpt>
      <trkpt lat="45.8284" lon="3.1578">
        <ele>323.7</ele>
        <time>2019-12-25T12:22:31.000Z</time>
      </trkpt>
      <trkpt lat="45.82839" lon="3.15755">
        <ele>323.4</ele>
        <time>2019-12-25T12:22:33.000Z</time>
      </trkpt>
      <trkpt lat="45.82841" lon="3.1573">
        <ele>323.1</ele>
        <time>2019-12-25T12:22:35.000Z</time>
      </trkpt>
      <trkpt lat="45.82842" lon="3.15706">
        <ele>322.9</ele>
        <time>2019-12-25T12:22:37.000Z</time>
      </trkpt>
      <trkpt lat="45.82841" lon="3.15694">
        <ele>322.8</ele>
        <time>2019-12-25T12:22:38.000Z</time>
      </trkpt>
      <trkpt lat="45.82838" lon="3.1567">
        <ele>322.8</ele>
        <time>2019-12-25T12:22:40.000Z</time>
      </trkpt>
      <trkpt lat="45.82836" lon="3.15659">
        <ele>322.8</ele>
        <time>2019-12-25T12:22:41.000Z</time>
      </trkpt>
      <trkpt lat="45.82835" lon="3.15647">
        <ele>322.8</ele>
        <time>2019-12-25T12:22:42.000Z</time>
      </trkpt>
      <trkpt lat="45.82834" lon="3.15634">
        <ele>322.8</ele>
        <time>2019-12-25T12:22:43.000Z</time>
      </trkpt>
      <trkpt lat="45.82831" lon="3.1561">
        <ele>322.8</ele>
        <time>2019-12-25T12:22:45.000Z</time>
      </trkpt>
      <trkpt lat="45.82828" lon="3.15587">
        <ele>323</ele>
        <time>2019-12-25T12:22:47.000Z</time>
      </trkpt>
      <trkpt lat="45.82824" lon="3.15563">
        <ele>323.1</ele>
        <time>2019-12-25T12:22:49.000Z</time>
      </trkpt>
      <trkpt lat="45.82821" lon="3.15539">
        <ele>323.4</ele>
        <time>2019-12-25T12:22:51.000Z</time>
      </trkpt>
      <trkpt lat="45.82821" lon="3.15527">
        <ele>323.5</ele>
        <time>2019-12-25T12:22:52.000Z</time>
      </trkpt>
      <trkpt lat="45.82821" lon="3.15515">
        <ele>323.7</ele>
        <time>2019-12-25T12:22:53.000Z</time>
      </trkpt>
      <trkpt lat="45.82823" lon="3.15491">
        <ele>323.9</ele>
        <time>2019-12-25T12:22:55.000Z</time>
      </trkpt>
      <trkpt lat="45.82821" lon="3.1548">
        <ele>324</ele>
        <time>2019-12-25T12:22:56.000Z</time>
      </trkpt>
      <trkpt lat="45.82813" lon="3.15457">
        <ele>324.2</ele>
        <time>2019-12-25T12:22:58.000Z</time>
      </trkpt>
      <trkpt lat="45.82811" lon="3.15446">
        <ele>324.2</ele>
        <time>2019-12-25T12:22:59.000Z</time>
      </trkpt>
      <trkpt lat="45.82809" lon="3.15434">
        <ele>324.3</ele>
        <time>2019-12-25T12:23:00.000Z</time>
      </trkpt>
      <trkpt lat="45.82807" lon="3.15422">
        <ele>324.3</ele>
        <time>2019-12-25T12:23:01.000Z</time>
      </trkpt>
      <trkpt lat="45.82804" lon="3.15397">
        <ele>324.3</ele>
        <time>2019-12-25T12:23:03.000Z</time>
      </trkpt>
      <trkpt lat="45.82802" lon="3.15385">
        <ele>324.4</ele>
        <time>2019-12-25T12:23:04.000Z</time>
      </trkpt>
      <trkpt lat="45.82798" lon="3.1536">
        <ele>324.4</ele>
        <time>2019-12-25T12:23:06.000Z</time>
      </trkpt>
      <trkpt lat="45.82792" lon="3.15336">
        <ele>324.5</ele>
        <time>2019-12-25T12:23:08.000Z</time>
      </trkpt>
      <trkpt lat="45.82786" lon="3.15313">
        <ele>324.8</ele>
        <time>2019-12-25T12:23:10.000Z</time>
      </trkpt>
      <trkpt lat="45.8278" lon="3.15289">
        <ele>325.2</ele>
        <time>2019-12-25T12:23:12.000Z</time>
      </trkpt>
      <trkpt lat="45.82777" lon="3.15278">
        <ele>325.4</ele>
        <time>2019-12-25T12:23:13.000Z</time>
      </trkpt>
      <trkpt lat="45.82774" lon="3.15266">
        <ele>325.6</ele>
        <time>2019-12-25T12:23:14.000Z</time>
      </trkpt>
      <trkpt lat="45.82767" lon="3.15242">
        <ele>325.9</ele>
        <time>2019-12-25T12:23:16.000Z</time>
      </trkpt>
      <trkpt lat="45.82761" lon="3.15219">
        <ele>326.2</ele>
        <time>2019-12-25T12:23:18.000Z</time>
      </trkpt>
      <trkpt lat="45.82754" lon="3.15196">
        <ele>326.4</ele>
        <time>2019-12-25T12:23:20.000Z</time>
      </trkpt>
      <trkpt lat="45.82751" lon="3.15185">
        <ele>326.4</ele>
        <time>2019-12-25T12:23:21.000Z</time>
      </trkpt>
      <trkpt lat="45.82743" lon="3.15163">
        <ele>326.4</ele>
        <time>2019-12-25T12:23:23.000Z</time>
      </trkpt>
      <trkpt lat="45.82736" lon="3.15141">
        <ele>326.2</ele>
        <time>2019-12-25T12:23:25.000Z</time>
      </trkpt>
      <trkpt lat="45.82732" lon="3.15129">
        <ele>326.1</ele>
        <time>2019-12-25T12:23:26.000Z</time>
      </trkpt>
      <trkpt lat="45.82727" lon="3.15108">
        <ele>325.7</ele>
        <time>2019-12-25T12:23:28.000Z</time>
      </trkpt>
      <trkpt lat="45.82728" lon="3.15089">
        <ele>325.6</ele>
        <time>2019-12-25T12:23:30.000Z</time>
      </trkpt>
      <trkpt lat="45.82728" lon="3.15079">
        <ele>325.6</ele>
        <time>2019-12-25T12:23:31.000Z</time>
      </trkpt>
      <trkpt lat="45.82723" lon="3.15061">
        <ele>325.6</ele>
        <time>2019-12-25T12:23:33.000Z</time>
      </trkpt>
      <trkpt lat="45.82717" lon="3.15055">
        <ele>325.6</ele>
        <time>2019-12-25T12:23:34.000Z</time>
      </trkpt>
      <trkpt lat="45.82703" lon="3.15045">
        <ele>325.5</ele>
        <time>2019-12-25T12:23:36.000Z</time>
      </trkpt>
      <trkpt lat="45.82692" lon="3.1503">
        <ele>325.6</ele>
        <time>2019-12-25T12:23:38.000Z</time>
      </trkpt>
      <trkpt lat="45.82688" lon="3.15021">
        <ele>325.6</ele>
        <time>2019-12-25T12:23:39.000Z</time>
      </trkpt>
      <trkpt lat="45.82679" lon="3.15002">
        <ele>325.6</ele>
        <time>2019-12-25T12:23:41.000Z</time>
      </trkpt>
      <trkpt lat="45.82675" lon="3.14992">
        <ele>325.6</ele>
        <time>2019-12-25T12:23:42.000Z</time>
      </trkpt>
      <trkpt lat="45.82672" lon="3.14981">
        <ele>325.6</ele>
        <time>2019-12-25T12:23:43.000Z</time>
      </trkpt>
      <trkpt lat="45.82669" lon="3.14957">
        <ele>325.6</ele>
        <time>2019-12-25T12:23:45.000Z</time>
      </trkpt>
      <trkpt lat="45.82665" lon="3.14932">
        <ele>325.5</ele>
        <time>2019-12-25T12:23:47.000Z</time>
      </trkpt>
      <trkpt lat="45.82663" lon="3.1492">
        <ele>325.5</ele>
        <time>2019-12-25T12:23:48.000Z</time>
      </trkpt>
      <trkpt lat="45.82661" lon="3.14908">
        <ele>325.4</ele>
        <time>2019-12-25T12:23:49.000Z</time>
      </trkpt>
      <trkpt lat="45.82657" lon="3.14886">
        <ele>325.2</ele>
        <time>2019-12-25T12:23:51.000Z</time>
      </trkpt>
      <trkpt lat="45.82654" lon="3.14874">
        <ele>325.1</ele>
        <time>2019-12-25T12:23:52.000Z</time>
      </trkpt>
      <trkpt lat="45.82651" lon="3.14863">
        <ele>325</ele>
        <time>2019-12-25T12:23:53.000Z</time>
      </trkpt>
      <trkpt lat="45.82649" lon="3.14851">
        <ele>325</ele>
        <time>2019-12-25T12:23:54.000Z</time>
      </trkpt>
      <trkpt lat="45.82643" lon="3.14828">
        <ele>325.1</ele>
        <time>2019-12-25T12:23:56.000Z</time>
      </trkpt>
      <trkpt lat="45.82639" lon="3.14803">
        <ele>325.3</ele>
        <time>2019-12-25T12:23:58.000Z</time>
      </trkpt>
      <trkpt lat="45.82636" lon="3.14791">
        <ele>325.5</ele>
        <time>2019-12-25T12:23:59.000Z</time>
      </trkpt>
      <trkpt lat="45.82631" lon="3.14767">
        <ele>325.7</ele>
        <time>2019-12-25T12:24:01.000Z</time>
      </trkpt>
      <trkpt lat="45.82627" lon="3.14743">
        <ele>325.9</ele>
        <time>2019-12-25T12:24:03.000Z</time>
      </trkpt>
      <trkpt lat="45.82623" lon="3.14719">
        <ele>325.9</ele>
        <time>2019-12-25T12:24:05.000Z</time>
      </trkpt>
      <trkpt lat="45.82618" lon="3.14695">
        <ele>325.9</ele>
        <time>2019-12-25T12:24:07.000Z</time>
      </trkpt>
      <trkpt lat="45.82614" lon="3.14671">
        <ele>326</ele>
        <time>2019-12-25T12:24:09.000Z</time>
      </trkpt>
      <trkpt lat="45.8261" lon="3.14648">
        <ele>326</ele>
        <time>2019-12-25T12:24:11.000Z</time>
      </trkpt>
      <trkpt lat="45.82606" lon="3.14625">
        <ele>326.1</ele>
        <time>2019-12-25T12:24:13.000Z</time>
      </trkpt>
      <trkpt lat="45.82601" lon="3.14601">
        <ele>326.5</ele>
        <time>2019-12-25T12:24:15.000Z</time>
      </trkpt>
      <trkpt lat="45.82598" lon="3.1458">
        <ele>326.9</ele>
        <time>2019-12-25T12:24:17.000Z</time>
      </trkpt>
      <trkpt lat="45.82596" lon="3.14563">
        <ele>327</ele>
        <time>2019-12-25T12:24:19.000Z</time>
      </trkpt>
      <trkpt lat="45.82588" lon="3.14549">
        <ele>327.3</ele>
        <time>2019-12-25T12:24:21.000Z</time>
      </trkpt>
      <trkpt lat="45.82576" lon="3.1454">
        <ele>327.6</ele>
        <time>2019-12-25T12:24:23.000Z</time>
      </trkpt>
      <trkpt lat="45.82565" lon="3.14531">
        <ele>327.8</ele>
        <time>2019-12-25T12:24:25.000Z</time>
      </trkpt>
      <trkpt lat="45.82562" lon="3.14526">
        <ele>327.9</ele>
        <time>2019-12-25T12:24:26.000Z</time>
      </trkpt>
      <trkpt lat="45.8256" lon="3.14518">
        <ele>328</ele>
        <time>2019-12-25T12:24:27.000Z</time>
      </trkpt>
      <trkpt lat="45.8256" lon="3.14509">
        <ele>328</ele>
        <time>2019-12-25T12:24:28.000Z</time>
      </trkpt>
      <trkpt lat="45.82561" lon="3.14492">
        <ele>328</ele>
        <time>2019-12-25T12:24:30.000Z</time>
      </trkpt>
      <trkpt lat="45.82561" lon="3.14483">
        <ele>328</ele>
        <time>2019-12-25T12:24:31.000Z</time>
      </trkpt>
      <trkpt lat="45.82563" lon="3.14465">
        <ele>328.2</ele>
        <time>2019-12-25T12:24:33.000Z</time>
      </trkpt>
      <trkpt lat="45.82563" lon="3.14442">
        <ele>328.7</ele>
        <time>2019-12-25T12:24:35.000Z</time>
      </trkpt>
      <trkpt lat="45.82561" lon="3.14419">
        <ele>328.8</ele>
        <time>2019-12-25T12:24:37.000Z</time>
      </trkpt>
      <trkpt lat="45.8256" lon="3.14407">
        <ele>328.8</ele>
        <time>2019-12-25T12:24:38.000Z</time>
      </trkpt>
      <trkpt lat="45.82559" lon="3.14385">
        <ele>328.5</ele>
        <time>2019-12-25T12:24:40.000Z</time>
      </trkpt>
      <trkpt lat="45.8256" lon="3.14373">
        <ele>328.4</ele>
        <time>2019-12-25T12:24:41.000Z</time>
      </trkpt>
      <trkpt lat="45.82562" lon="3.1435">
        <ele>328.2</ele>
        <time>2019-12-25T12:24:43.000Z</time>
      </trkpt>
      <trkpt lat="45.82563" lon="3.14338">
        <ele>328.1</ele>
        <time>2019-12-25T12:24:44.000Z</time>
      </trkpt>
      <trkpt lat="45.82563" lon="3.14325">
        <ele>328.1</ele>
        <time>2019-12-25T12:24:45.000Z</time>
      </trkpt>
      <trkpt lat="45.82558" lon="3.14302">
        <ele>328.1</ele>
        <time>2019-12-25T12:24:47.000Z</time>
      </trkpt>
      <trkpt lat="45.82549" lon="3.14281">
        <ele>328.1</ele>
        <time>2019-12-25T12:24:49.000Z</time>
      </trkpt>
      <trkpt lat="45.8254" lon="3.14262">
        <ele>328.2</ele>
        <time>2019-12-25T12:24:51.000Z</time>
      </trkpt>
      <trkpt lat="45.82535" lon="3.14252">
        <ele>328.3</ele>
        <time>2019-12-25T12:24:52.000Z</time>
      </trkpt>
      <trkpt lat="45.8253" lon="3.1423">
        <ele>328.5</ele>
        <time>2019-12-25T12:24:54.000Z</time>
      </trkpt>
      <trkpt lat="45.82527" lon="3.14206">
        <ele>328.8</ele>
        <time>2019-12-25T12:24:56.000Z</time>
      </trkpt>
      <trkpt lat="45.82524" lon="3.14184">
        <ele>329.2</ele>
        <time>2019-12-25T12:24:58.000Z</time>
      </trkpt>
      <trkpt lat="45.82523" lon="3.14161">
        <ele>329.3</ele>
        <time>2019-12-25T12:25:00.000Z</time>
      </trkpt>
      <trkpt lat="45.82518" lon="3.14144">
        <ele>329.3</ele>
        <time>2019-12-25T12:25:02.000Z</time>
      </trkpt>
      <trkpt lat="45.82512" lon="3.14142">
        <ele>329.4</ele>
        <time>2019-12-25T12:25:03.000Z</time>
      </trkpt>
      <trkpt lat="45.82498" lon="3.14146">
        <ele>329.5</ele>
        <time>2019-12-25T12:25:05.000Z</time>
      </trkpt>
      <trkpt lat="45.82491" lon="3.14151">
        <ele>329.5</ele>
        <time>2019-12-25T12:25:06.000Z</time>
      </trkpt>
      <trkpt lat="45.82478" lon="3.14161">
        <ele>329.6</ele>
        <time>2019-12-25T12:25:08.000Z</time>
      </trkpt>
      <trkpt lat="45.82466" lon="3.1417">
        <ele>329.6</ele>
        <time>2019-12-25T12:25:10.000Z</time>
      </trkpt>
      <trkpt lat="45.82452" lon="3.14176">
        <ele>329.7</ele>
        <time>2019-12-25T12:25:12.000Z</time>
      </trkpt>
      <trkpt lat="45.82437" lon="3.1418">
        <ele>329.7</ele>
        <time>2019-12-25T12:25:14.000Z</time>
      </trkpt>
      <trkpt lat="45.82422" lon="3.14186">
        <ele>329.9</ele>
        <time>2019-12-25T12:25:16.000Z</time>
      </trkpt>
      <trkpt lat="45.82406" lon="3.14191">
        <ele>330</ele>
        <time>2019-12-25T12:25:18.000Z</time>
      </trkpt>
      <trkpt lat="45.82398" lon="3.14194">
        <ele>330</ele>
        <time>2019-12-25T12:25:19.000Z</time>
      </trkpt>
      <trkpt lat="45.82382" lon="3.142">
        <ele>330.1</ele>
        <time>2019-12-25T12:25:21.000Z</time>
      </trkpt>
      <trkpt lat="45.82365" lon="3.14205">
        <ele>330</ele>
        <time>2019-12-25T12:25:23.000Z</time>
      </trkpt>
      <trkpt lat="45.82349" lon="3.14211">
        <ele>330</ele>
        <time>2019-12-25T12:25:25.000Z</time>
      </trkpt>
      <trkpt lat="45.82332" lon="3.14214">
        <ele>329.9</ele>
        <time>2019-12-25T12:25:27.000Z</time>
      </trkpt>
      <trkpt lat="45.82315" lon="3.14215">
        <ele>329.8</ele>
        <time>2019-12-25T12:25:29.000Z</time>
      </trkpt>
      <trkpt lat="45.82297" lon="3.14213">
        <ele>329.7</ele>
        <time>2019-12-25T12:25:31.000Z</time>
      </trkpt>
      <trkpt lat="45.8228" lon="3.14209">
        <ele>329.7</ele>
        <time>2019-12-25T12:25:33.000Z</time>
      </trkpt>
      <trkpt lat="45.82263" lon="3.14203">
        <ele>329.7</ele>
        <time>2019-12-25T12:25:35.000Z</time>
      </trkpt>
      <trkpt lat="45.82254" lon="3.142">
        <ele>329.7</ele>
        <time>2019-12-25T12:25:36.000Z</time>
      </trkpt>
      <trkpt lat="45.82238" lon="3.14191">
        <ele>329.3</ele>
        <time>2019-12-25T12:25:38.000Z</time>
      </trkpt>
      <trkpt lat="45.82222" lon="3.14182">
        <ele>329.1</ele>
        <time>2019-12-25T12:25:40.000Z</time>
      </trkpt>
      <trkpt lat="45.82207" lon="3.14172">
        <ele>328.9</ele>
        <time>2019-12-25T12:25:42.000Z</time>
      </trkpt>
      <trkpt lat="45.82195" lon="3.14159">
        <ele>328.8</ele>
        <time>2019-12-25T12:25:44.000Z</time>
      </trkpt>
      <trkpt lat="45.82193" lon="3.14136">
        <ele>328.9</ele>
        <time>2019-12-25T12:25:46.000Z</time>
      </trkpt>
      <trkpt lat="45.82195" lon="3.14126">
        <ele>328.9</ele>
        <time>2019-12-25T12:25:47.000Z</time>
      </trkpt>
      <trkpt lat="45.82202" lon="3.14105">
        <ele>329.4</ele>
        <time>2019-12-25T12:25:49.000Z</time>
      </trkpt>
      <trkpt lat="45.82204" lon="3.14094">
        <ele>329.6</ele>
        <time>2019-12-25T12:25:50.000Z</time>
      </trkpt>
      <trkpt lat="45.82208" lon="3.14072">
        <ele>330</ele>
        <time>2019-12-25T12:25:52.000Z</time>
      </trkpt>
      <trkpt lat="45.82212" lon="3.14053">
        <ele>330.4</ele>
        <time>2019-12-25T12:25:54.000Z</time>
      </trkpt>
      <trkpt lat="45.82216" lon="3.14034">
        <ele>330.7</ele>
        <time>2019-12-25T12:25:56.000Z</time>
      </trkpt>
      <trkpt lat="45.82219" lon="3.14025">
        <ele>330.7</ele>
        <time>2019-12-25T12:25:57.000Z</time>
      </trkpt>
      <trkpt lat="45.82221" lon="3.14016">
        <ele>330.7</ele>
        <time>2019-12-25T12:25:58.000Z</time>
      </trkpt>
      <trkpt lat="45.82226" lon="3.14">
        <ele>330.7</ele>
        <time>2019-12-25T12:26:00.000Z</time>
      </trkpt>
      <trkpt lat="45.82231" lon="3.13983">
        <ele>330.8</ele>
        <time>2019-12-25T12:26:02.000Z</time>
      </trkpt>
      <trkpt lat="45.82234" lon="3.13975">
        <ele>330.9</ele>
        <time>2019-12-25T12:26:03.000Z</time>
      </trkpt>
      <trkpt lat="45.82238" lon="3.13957">
        <ele>331.1</ele>
        <time>2019-12-25T12:26:05.000Z</time>
      </trkpt>
      <trkpt lat="45.82243" lon="3.1394">
        <ele>331.4</ele>
        <time>2019-12-25T12:26:07.000Z</time>
      </trkpt>
      <trkpt lat="45.82245" lon="3.13931">
        <ele>331.5</ele>
        <time>2019-12-25T12:26:08.000Z</time>
      </trkpt>
      <trkpt lat="45.82248" lon="3.13922">
        <ele>331.6</ele>
        <time>2019-12-25T12:26:09.000Z</time>
      </trkpt>
      <trkpt lat="45.8225" lon="3.13914">
        <ele>331.7</ele>
        <time>2019-12-25T12:26:10.000Z</time>
      </trkpt>
      <trkpt lat="45.82255" lon="3.13896">
        <ele>331.9</ele>
        <time>2019-12-25T12:26:12.000Z</time>
      </trkpt>
      <trkpt lat="45.82259" lon="3.13878">
        <ele>331.7</ele>
        <time>2019-12-25T12:26:14.000Z</time>
      </trkpt>
      <trkpt lat="45.82261" lon="3.13869">
        <ele>331.7</ele>
        <time>2019-12-25T12:26:15.000Z</time>
      </trkpt>
      <trkpt lat="45.82266" lon="3.13852">
        <ele>331.6</ele>
        <time>2019-12-25T12:26:17.000Z</time>
      </trkpt>
      <trkpt lat="45.82271" lon="3.13835">
        <ele>331.6</ele>
        <time>2019-12-25T12:26:19.000Z</time>
      </trkpt>
      <trkpt lat="45.82275" lon="3.13816">
        <ele>331.5</ele>
        <time>2019-12-25T12:26:21.000Z</time>
      </trkpt>
      <trkpt lat="45.82278" lon="3.13807">
        <ele>331.4</ele>
        <time>2019-12-25T12:26:22.000Z</time>
      </trkpt>
      <trkpt lat="45.82283" lon="3.13788">
        <ele>331.2</ele>
        <time>2019-12-25T12:26:24.000Z</time>
      </trkpt>
      <trkpt lat="45.82287" lon="3.13768">
        <ele>331.1</ele>
        <time>2019-12-25T12:26:26.000Z</time>
      </trkpt>
      <trkpt lat="45.82291" lon="3.13747">
        <ele>330.8</ele>
        <time>2019-12-25T12:26:28.000Z</time>
      </trkpt>
      <trkpt lat="45.82297" lon="3.13727">
        <ele>330.5</ele>
        <time>2019-12-25T12:26:30.000Z</time>
      </trkpt>
      <trkpt lat="45.82304" lon="3.13704">
        <ele>330</ele>
        <time>2019-12-25T12:26:32.000Z</time>
      </trkpt>
      <trkpt lat="45.82306" lon="3.13692">
        <ele>329.7</ele>
        <time>2019-12-25T12:26:33.000Z</time>
      </trkpt>
      <trkpt lat="45.82312" lon="3.13667">
        <ele>330.1</ele>
        <time>2019-12-25T12:26:35.000Z</time>
      </trkpt>
      <trkpt lat="45.82319" lon="3.1364">
        <ele>330.3</ele>
        <time>2019-12-25T12:26:37.000Z</time>
      </trkpt>
      <trkpt lat="45.82326" lon="3.13612">
        <ele>330.4</ele>
        <time>2019-12-25T12:26:39.000Z</time>
      </trkpt>
      <trkpt lat="45.82334" lon="3.13584">
        <ele>330.4</ele>
        <time>2019-12-25T12:26:41.000Z</time>
      </trkpt>
      <trkpt lat="45.82338" lon="3.13569">
        <ele>330.3</ele>
        <time>2019-12-25T12:26:42.000Z</time>
      </trkpt>
      <trkpt lat="45.82342" lon="3.13554">
        <ele>330.3</ele>
        <time>2019-12-25T12:26:43.000Z</time>
      </trkpt>
      <trkpt lat="45.82346" lon="3.13539">
        <ele>330.3</ele>
        <time>2019-12-25T12:26:44.000Z</time>
      </trkpt>
      <trkpt lat="45.82356" lon="3.13508">
        <ele>330.3</ele>
        <time>2019-12-25T12:26:46.000Z</time>
      </trkpt>
      <trkpt lat="45.82365" lon="3.13477">
        <ele>330.6</ele>
        <time>2019-12-25T12:26:48.000Z</time>
      </trkpt>
      <trkpt lat="45.82376" lon="3.13446">
        <ele>331</ele>
        <time>2019-12-25T12:26:50.000Z</time>
      </trkpt>
      <trkpt lat="45.82387" lon="3.13417">
        <ele>331.5</ele>
        <time>2019-12-25T12:26:52.000Z</time>
      </trkpt>
      <trkpt lat="45.82399" lon="3.13388">
        <ele>332</ele>
        <time>2019-12-25T12:26:54.000Z</time>
      </trkpt>
      <trkpt lat="45.82405" lon="3.13375">
        <ele>332.2</ele>
        <time>2019-12-25T12:26:55.000Z</time>
      </trkpt>
      <trkpt lat="45.82417" lon="3.13348">
        <ele>332.4</ele>
        <time>2019-12-25T12:26:57.000Z</time>
      </trkpt>
      <trkpt lat="45.82429" lon="3.13321">
        <ele>332.5</ele>
        <time>2019-12-25T12:26:59.000Z</time>
      </trkpt>
      <trkpt lat="45.8244" lon="3.13295">
        <ele>332.5</ele>
        <time>2019-12-25T12:27:01.000Z</time>
      </trkpt>
      <trkpt lat="45.82446" lon="3.13281">
        <ele>332.4</ele>
        <time>2019-12-25T12:27:02.000Z</time>
      </trkpt>
      <trkpt lat="45.82457" lon="3.13255">
        <ele>332.3</ele>
        <time>2019-12-25T12:27:04.000Z</time>
      </trkpt>
      <trkpt lat="45.82463" lon="3.13242">
        <ele>332.3</ele>
        <time>2019-12-25T12:27:05.000Z</time>
      </trkpt>
      <trkpt lat="45.82475" lon="3.13215">
        <ele>332.3</ele>
        <time>2019-12-25T12:27:07.000Z</time>
      </trkpt>
      <trkpt lat="45.82486" lon="3.13189">
        <ele>332.4</ele>
        <time>2019-12-25T12:27:09.000Z</time>
      </trkpt>
      <trkpt lat="45.82498" lon="3.13163">
        <ele>332.5</ele>
        <time>2019-12-25T12:27:11.000Z</time>
      </trkpt>
      <trkpt lat="45.82503" lon="3.1315">
        <ele>332.5</ele>
        <time>2019-12-25T12:27:12.000Z</time>
      </trkpt>
      <trkpt lat="45.82515" lon="3.13125">
        <ele>332.6</ele>
        <time>2019-12-25T12:27:14.000Z</time>
      </trkpt>
      <trkpt lat="45.82521" lon="3.13112">
        <ele>332.6</ele>
        <time>2019-12-25T12:27:15.000Z</time>
      </trkpt>
      <trkpt lat="45.82532" lon="3.13086">
        <ele>332.8</ele>
        <time>2019-12-25T12:27:17.000Z</time>
      </trkpt>
      <trkpt lat="45.82538" lon="3.13073">
        <ele>333</ele>
        <time>2019-12-25T12:27:18.000Z</time>
      </trkpt>
      <trkpt lat="45.82548" lon="3.13048">
        <ele>333.3</ele>
        <time>2019-12-25T12:27:20.000Z</time>
      </trkpt>
      <trkpt lat="45.82559" lon="3.13023">
        <ele>333.5</ele>
        <time>2019-12-25T12:27:22.000Z</time>
      </trkpt>
      <trkpt lat="45.82565" lon="3.1301">
        <ele>333.7</ele>
        <time>2019-12-25T12:27:23.000Z</time>
      </trkpt>
      <trkpt lat="45.82571" lon="3.12997">
        <ele>333.8</ele>
        <time>2019-12-25T12:27:24.000Z</time>
      </trkpt>
      <trkpt lat="45.82582" lon="3.12972">
        <ele>334</ele>
        <time>2019-12-25T12:27:26.000Z</time>
      </trkpt>
      <trkpt lat="45.82592" lon="3.12947">
        <ele>334.1</ele>
        <time>2019-12-25T12:27:28.000Z</time>
      </trkpt>
      <trkpt lat="45.82601" lon="3.12922">
        <ele>334.1</ele>
        <time>2019-12-25T12:27:30.000Z</time>
      </trkpt>
      <trkpt lat="45.82611" lon="3.12897">
        <ele>334.1</ele>
        <time>2019-12-25T12:27:32.000Z</time>
      </trkpt>
      <trkpt lat="45.8262" lon="3.12873">
        <ele>334.2</ele>
        <time>2019-12-25T12:27:34.000Z</time>
      </trkpt>
      <trkpt lat="45.82628" lon="3.12847">
        <ele>334.3</ele>
        <time>2019-12-25T12:27:36.000Z</time>
      </trkpt>
      <trkpt lat="45.82632" lon="3.12835">
        <ele>334.5</ele>
        <time>2019-12-25T12:27:37.000Z</time>
      </trkpt>
      <trkpt lat="45.8264" lon="3.12811">
        <ele>335</ele>
        <time>2019-12-25T12:27:39.000Z</time>
      </trkpt>
      <trkpt lat="45.82643" lon="3.12798">
        <ele>335</ele>
        <time>2019-12-25T12:27:40.000Z</time>
      </trkpt>
      <trkpt lat="45.82649" lon="3.12773">
        <ele>334.7</ele>
        <time>2019-12-25T12:27:42.000Z</time>
      </trkpt>
      <trkpt lat="45.82652" lon="3.12761">
        <ele>334.6</ele>
        <time>2019-12-25T12:27:43.000Z</time>
      </trkpt>
      <trkpt lat="45.82657" lon="3.12735">
        <ele>334.4</ele>
        <time>2019-12-25T12:27:45.000Z</time>
      </trkpt>
      <trkpt lat="45.8266" lon="3.12722">
        <ele>334.3</ele>
        <time>2019-12-25T12:27:46.000Z</time>
      </trkpt>
      <trkpt lat="45.82665" lon="3.12698">
        <ele>334.3</ele>
        <time>2019-12-25T12:27:48.000Z</time>
      </trkpt>
      <trkpt lat="45.82667" lon="3.12685">
        <ele>334.2</ele>
        <time>2019-12-25T12:27:49.000Z</time>
      </trkpt>
      <trkpt lat="45.82671" lon="3.12659">
        <ele>334.3</ele>
        <time>2019-12-25T12:27:51.000Z</time>
      </trkpt>
      <trkpt lat="45.82673" lon="3.12646">
        <ele>334.4</ele>
        <time>2019-12-25T12:27:52.000Z</time>
      </trkpt>
      <trkpt lat="45.82676" lon="3.12621">
        <ele>334.6</ele>
        <time>2019-12-25T12:27:54.000Z</time>
      </trkpt>
      <trkpt lat="45.82679" lon="3.12595">
        <ele>334.8</ele>
        <time>2019-12-25T12:27:56.000Z</time>
      </trkpt>
      <trkpt lat="45.82681" lon="3.1257">
        <ele>335.1</ele>
        <time>2019-12-25T12:27:58.000Z</time>
      </trkpt>
      <trkpt lat="45.82684" lon="3.12544">
        <ele>335.5</ele>
        <time>2019-12-25T12:28:00.000Z</time>
      </trkpt>
      <trkpt lat="45.82687" lon="3.12519">
        <ele>335.9</ele>
        <time>2019-12-25T12:28:02.000Z</time>
      </trkpt>
      <trkpt lat="45.82688" lon="3.12507">
        <ele>336.2</ele>
        <time>2019-12-25T12:28:03.000Z</time>
      </trkpt>
      <trkpt lat="45.8269" lon="3.12481">
        <ele>336.6</ele>
        <time>2019-12-25T12:28:05.000Z</time>
      </trkpt>
      <trkpt lat="45.82691" lon="3.12469">
        <ele>336.8</ele>
        <time>2019-12-25T12:28:06.000Z</time>
      </trkpt>
      <trkpt lat="45.82694" lon="3.12444">
        <ele>337.2</ele>
        <time>2019-12-25T12:28:08.000Z</time>
      </trkpt>
      <trkpt lat="45.82695" lon="3.12419">
        <ele>337.5</ele>
        <time>2019-12-25T12:28:10.000Z</time>
      </trkpt>
      <trkpt lat="45.82696" lon="3.12407">
        <ele>337.6</ele>
        <time>2019-12-25T12:28:11.000Z</time>
      </trkpt>
      <trkpt lat="45.82698" lon="3.12382">
        <ele>337.7</ele>
        <time>2019-12-25T12:28:13.000Z</time>
      </trkpt>
      <trkpt lat="45.827" lon="3.12359">
        <ele>337.8</ele>
        <time>2019-12-25T12:28:15.000Z</time>
      </trkpt>
      <trkpt lat="45.82702" lon="3.12335">
        <ele>337.9</ele>
        <time>2019-12-25T12:28:17.000Z</time>
      </trkpt>
      <trkpt lat="45.82704" lon="3.12311">
        <ele>337.9</ele>
        <time>2019-12-25T12:28:19.000Z</time>
      </trkpt>
      <trkpt lat="45.82706" lon="3.12287">
        <ele>337.9</ele>
        <time>2019-12-25T12:28:21.000Z</time>
      </trkpt>
      <trkpt lat="45.82708" lon="3.12263">
        <ele>337.9</ele>
        <time>2019-12-25T12:28:23.000Z</time>
      </trkpt>
      <trkpt lat="45.82711" lon="3.12239">
        <ele>337.9</ele>
        <time>2019-12-25T12:28:25.000Z</time>
      </trkpt>
      <trkpt lat="45.82713" lon="3.12216">
        <ele>337.9</ele>
        <time>2019-12-25T12:28:27.000Z</time>
      </trkpt>
      <trkpt lat="45.82716" lon="3.12192">
        <ele>337.9</ele>
        <time>2019-12-25T12:28:29.000Z</time>
      </trkpt>
      <trkpt lat="45.82718" lon="3.1218">
        <ele>337.9</ele>
        <time>2019-12-25T12:28:30.000Z</time>
      </trkpt>
      <trkpt lat="45.82722" lon="3.12156">
        <ele>337.9</ele>
        <time>2019-12-25T12:28:32.000Z</time>
      </trkpt>
      <trkpt lat="45.82724" lon="3.12144">
        <ele>337.9</ele>
        <time>2019-12-25T12:28:33.000Z</time>
      </trkpt>
      <trkpt lat="45.82728" lon="3.1212">
        <ele>337.9</ele>
        <time>2019-12-25T12:28:35.000Z</time>
      </trkpt>
      <trkpt lat="45.82732" lon="3.12097">
        <ele>337.9</ele>
        <time>2019-12-25T12:28:37.000Z</time>
      </trkpt>
      <trkpt lat="45.82735" lon="3.12085">
        <ele>337.9</ele>
        <time>2019-12-25T12:28:38.000Z</time>
      </trkpt>
      <trkpt lat="45.82737" lon="3.12074">
        <ele>337.9</ele>
        <time>2019-12-25T12:28:39.000Z</time>
      </trkpt>
      <trkpt lat="45.82741" lon="3.1205">
        <ele>337.9</ele>
        <time>2019-12-25T12:28:41.000Z</time>
      </trkpt>
      <trkpt lat="45.82747" lon="3.12027">
        <ele>337.9</ele>
        <time>2019-12-25T12:28:43.000Z</time>
      </trkpt>
      <trkpt lat="45.82749" lon="3.12016">
        <ele>337.9</ele>
        <time>2019-12-25T12:28:44.000Z</time>
      </trkpt>
      <trkpt lat="45.82754" lon="3.11992">
        <ele>337.9</ele>
        <time>2019-12-25T12:28:46.000Z</time>
      </trkpt>
      <trkpt lat="45.8276" lon="3.11969">
        <ele>337.9</ele>
        <time>2019-12-25T12:28:48.000Z</time>
      </trkpt>
      <trkpt lat="45.82765" lon="3.11946">
        <ele>337.9</ele>
        <time>2019-12-25T12:28:50.000Z</time>
      </trkpt>
      <trkpt lat="45.82768" lon="3.11934">
        <ele>337.9</ele>
        <time>2019-12-25T12:28:51.000Z</time>
      </trkpt>
      <trkpt lat="45.82773" lon="3.11911">
        <ele>338</ele>
        <time>2019-12-25T12:28:53.000Z</time>
      </trkpt>
      <trkpt lat="45.82776" lon="3.11899">
        <ele>338</ele>
        <time>2019-12-25T12:28:54.000Z</time>
      </trkpt>
      <trkpt lat="45.82781" lon="3.11876">
        <ele>338.2</ele>
        <time>2019-12-25T12:28:56.000Z</time>
      </trkpt>
      <trkpt lat="45.82784" lon="3.11864">
        <ele>338.3</ele>
        <time>2019-12-25T12:28:57.000Z</time>
      </trkpt>
      <trkpt lat="45.82786" lon="3.11853">
        <ele>338.4</ele>
        <time>2019-12-25T12:28:58.000Z</time>
      </trkpt>
      <trkpt lat="45.82792" lon="3.11829">
        <ele>338.7</ele>
        <time>2019-12-25T12:29:00.000Z</time>
      </trkpt>
      <trkpt lat="45.82796" lon="3.11805">
        <ele>339</ele>
        <time>2019-12-25T12:29:02.000Z</time>
      </trkpt>
      <trkpt lat="45.82801" lon="3.11781">
        <ele>339.3</ele>
        <time>2019-12-25T12:29:04.000Z</time>
      </trkpt>
      <trkpt lat="45.82805" lon="3.11756">
        <ele>339.5</ele>
        <time>2019-12-25T12:29:06.000Z</time>
      </trkpt>
      <trkpt lat="45.82809" lon="3.11731">
        <ele>339.7</ele>
        <time>2019-12-25T12:29:08.000Z</time>
      </trkpt>
      <trkpt lat="45.82811" lon="3.11719">
        <ele>339.7</ele>
        <time>2019-12-25T12:29:09.000Z</time>
      </trkpt>
      <trkpt lat="45.82815" lon="3.11694">
        <ele>339.8</ele>
        <time>2019-12-25T12:29:11.000Z</time>
      </trkpt>
      <trkpt lat="45.82819" lon="3.11671">
        <ele>339.9</ele>
        <time>2019-12-25T12:29:13.000Z</time>
      </trkpt>
      <trkpt lat="45.82821" lon="3.11659">
        <ele>339.9</ele>
        <time>2019-12-25T12:29:14.000Z</time>
      </trkpt>
      <trkpt lat="45.82825" lon="3.11636">
        <ele>340.1</ele>
        <time>2019-12-25T12:29:16.000Z</time>
      </trkpt>
      <trkpt lat="45.8283" lon="3.11613">
        <ele>340.2</ele>
        <time>2019-12-25T12:29:18.000Z</time>
      </trkpt>
      <trkpt lat="45.82832" lon="3.11602">
        <ele>340.3</ele>
        <time>2019-12-25T12:29:19.000Z</time>
      </trkpt>
      <trkpt lat="45.82838" lon="3.11581">
        <ele>340.5</ele>
        <time>2019-12-25T12:29:21.000Z</time>
      </trkpt>
      <trkpt lat="45.82844" lon="3.11562">
        <ele>340.6</ele>
        <time>2019-12-25T12:29:23.000Z</time>
      </trkpt>
      <trkpt lat="45.82847" lon="3.11553">
        <ele>340.7</ele>
        <time>2019-12-25T12:29:24.000Z</time>
      </trkpt>
      <trkpt lat="45.82853" lon="3.11535">
        <ele>340.7</ele>
        <time>2019-12-25T12:29:26.000Z</time>
      </trkpt>
      <trkpt lat="45.8286" lon="3.11517">
        <ele>340.8</ele>
        <time>2019-12-25T12:29:28.000Z</time>
      </trkpt>
      <trkpt lat="45.82864" lon="3.11508">
        <ele>340.8</ele>
        <time>2019-12-25T12:29:29.000Z</time>
      </trkpt>
      <trkpt lat="45.82871" lon="3.11492">
        <ele>341.1</ele>
        <time>2019-12-25T12:29:31.000Z</time>
      </trkpt>
      <trkpt lat="45.82875" lon="3.11483">
        <ele>341.3</ele>
        <time>2019-12-25T12:29:32.000Z</time>
      </trkpt>
      <trkpt lat="45.82878" lon="3.11475">
        <ele>341.4</ele>
        <time>2019-12-25T12:29:33.000Z</time>
      </trkpt>
      <trkpt lat="45.82887" lon="3.1146">
        <ele>341.8</ele>
        <time>2019-12-25T12:29:35.000Z</time>
      </trkpt>
      <trkpt lat="45.82892" lon="3.11454">
        <ele>342</ele>
        <time>2019-12-25T12:29:36.000Z</time>
      </trkpt>
      <trkpt lat="45.82898" lon="3.11449">
        <ele>342</ele>
        <time>2019-12-25T12:29:37.000Z</time>
      </trkpt>
      <trkpt lat="45.82908" lon="3.11436">
        <ele>342.3</ele>
        <time>2019-12-25T12:29:39.000Z</time>
      </trkpt>
      <trkpt lat="45.82909" lon="3.11415">
        <ele>342.6</ele>
        <time>2019-12-25T12:29:41.000Z</time>
      </trkpt>
      <trkpt lat="45.82901" lon="3.11398">
        <ele>342.7</ele>
        <time>2019-12-25T12:29:43.000Z</time>
      </trkpt>
      <trkpt lat="45.82894" lon="3.11392">
        <ele>342.9</ele>
        <time>2019-12-25T12:29:44.000Z</time>
      </trkpt>
      <trkpt lat="45.82889" lon="3.11384">
        <ele>343</ele>
        <time>2019-12-25T12:29:45.000Z</time>
      </trkpt>
      <trkpt lat="45.82881" lon="3.11363">
        <ele>343.2</ele>
        <time>2019-12-25T12:29:47.000Z</time>
      </trkpt>
      <trkpt lat="45.8288" lon="3.11352">
        <ele>343.2</ele>
        <time>2019-12-25T12:29:48.000Z</time>
      </trkpt>
      <trkpt lat="45.82881" lon="3.1133">
        <ele>343.5</ele>
        <time>2019-12-25T12:29:50.000Z</time>
      </trkpt>
      <trkpt lat="45.82882" lon="3.11319">
        <ele>343.6</ele>
        <time>2019-12-25T12:29:51.000Z</time>
      </trkpt>
      <trkpt lat="45.82885" lon="3.11296">
        <ele>343.6</ele>
        <time>2019-12-25T12:29:53.000Z</time>
      </trkpt>
      <trkpt lat="45.82887" lon="3.11273">
        <ele>343.5</ele>
        <time>2019-12-25T12:29:55.000Z</time>
      </trkpt>
      <trkpt lat="45.82892" lon="3.11251">
        <ele>343.3</ele>
        <time>2019-12-25T12:29:57.000Z</time>
      </trkpt>
      <trkpt lat="45.82901" lon="3.11231">
        <ele>343</ele>
        <time>2019-12-25T12:29:59.000Z</time>
      </trkpt>
      <trkpt lat="45.82905" lon="3.11221">
        <ele>342.9</ele>
        <time>2019-12-25T12:30:00.000Z</time>
      </trkpt>
      <trkpt lat="45.82906" lon="3.11209">
        <ele>342.7</ele>
        <time>2019-12-25T12:30:01.000Z</time>
      </trkpt>
      <trkpt lat="45.82902" lon="3.11183">
        <ele>342.4</ele>
        <time>2019-12-25T12:30:03.000Z</time>
      </trkpt>
      <trkpt lat="45.82891" lon="3.11161">
        <ele>342</ele>
        <time>2019-12-25T12:30:05.000Z</time>
      </trkpt>
      <trkpt lat="45.82885" lon="3.11134">
        <ele>341.9</ele>
        <time>2019-12-25T12:30:07.000Z</time>
      </trkpt>
      <trkpt lat="45.82884" lon="3.1112">
        <ele>341.8</ele>
        <time>2019-12-25T12:30:08.000Z</time>
      </trkpt>
      <trkpt lat="45.82881" lon="3.11092">
        <ele>342</ele>
        <time>2019-12-25T12:30:10.000Z</time>
      </trkpt>
      <trkpt lat="45.82874" lon="3.11063">
        <ele>342.3</ele>
        <time>2019-12-25T12:30:12.000Z</time>
      </trkpt>
      <trkpt lat="45.82869" lon="3.11033">
        <ele>343.5</ele>
        <time>2019-12-25T12:30:14.000Z</time>
      </trkpt>
      <trkpt lat="45.82866" lon="3.11018">
        <ele>343.9</ele>
        <time>2019-12-25T12:30:15.000Z</time>
      </trkpt>
      <trkpt lat="45.82864" lon="3.11003">
        <ele>344.1</ele>
        <time>2019-12-25T12:30:16.000Z</time>
      </trkpt>
      <trkpt lat="45.8286" lon="3.10973">
        <ele>344.2</ele>
        <time>2019-12-25T12:30:18.000Z</time>
      </trkpt>
      <trkpt lat="45.82859" lon="3.10943">
        <ele>344.2</ele>
        <time>2019-12-25T12:30:20.000Z</time>
      </trkpt>
      <trkpt lat="45.82857" lon="3.10915">
        <ele>344.2</ele>
        <time>2019-12-25T12:30:22.000Z</time>
      </trkpt>
      <trkpt lat="45.82857" lon="3.10887">
        <ele>344.3</ele>
        <time>2019-12-25T12:30:24.000Z</time>
      </trkpt>
      <trkpt lat="45.82857" lon="3.10874">
        <ele>344.4</ele>
        <time>2019-12-25T12:30:25.000Z</time>
      </trkpt>
      <trkpt lat="45.82857" lon="3.10861">
        <ele>344.6</ele>
        <time>2019-12-25T12:30:26.000Z</time>
      </trkpt>
      <trkpt lat="45.82856" lon="3.10833">
        <ele>344.7</ele>
        <time>2019-12-25T12:30:28.000Z</time>
      </trkpt>
      <trkpt lat="45.82856" lon="3.10807">
        <ele>344.7</ele>
        <time>2019-12-25T12:30:30.000Z</time>
      </trkpt>
      <trkpt lat="45.82857" lon="3.10781">
        <ele>344.8</ele>
        <time>2019-12-25T12:30:32.000Z</time>
      </trkpt>
      <trkpt lat="45.82859" lon="3.10757">
        <ele>344.8</ele>
        <time>2019-12-25T12:30:34.000Z</time>
      </trkpt>
      <trkpt lat="45.82862" lon="3.10732">
        <ele>344.9</ele>
        <time>2019-12-25T12:30:36.000Z</time>
      </trkpt>
      <trkpt lat="45.82863" lon="3.10719">
        <ele>345</ele>
        <time>2019-12-25T12:30:37.000Z</time>
      </trkpt>
      <trkpt lat="45.82862" lon="3.10696">
        <ele>345.3</ele>
        <time>2019-12-25T12:30:39.000Z</time>
      </trkpt>
      <trkpt lat="45.82861" lon="3.10684">
        <ele>345.4</ele>
        <time>2019-12-25T12:30:40.000Z</time>
      </trkpt>
      <trkpt lat="45.82866" lon="3.10662">
        <ele>345.9</ele>
        <time>2019-12-25T12:30:42.000Z</time>
      </trkpt>
      <trkpt lat="45.82871" lon="3.10652">
        <ele>346.4</ele>
        <time>2019-12-25T12:30:43.000Z</time>
      </trkpt>
      <trkpt lat="45.82882" lon="3.10632">
        <ele>346.6</ele>
        <time>2019-12-25T12:30:45.000Z</time>
      </trkpt>
      <trkpt lat="45.82891" lon="3.10613">
        <ele>346.6</ele>
        <time>2019-12-25T12:30:47.000Z</time>
      </trkpt>
      <trkpt lat="45.82903" lon="3.10596">
        <ele>346.7</ele>
        <time>2019-12-25T12:30:49.000Z</time>
      </trkpt>
      <trkpt lat="45.8291" lon="3.10589">
        <ele>346.9</ele>
        <time>2019-12-25T12:30:50.000Z</time>
      </trkpt>
      <trkpt lat="45.82924" lon="3.10576">
        <ele>347.3</ele>
        <time>2019-12-25T12:30:52.000Z</time>
      </trkpt>
      <trkpt lat="45.82932" lon="3.1057">
        <ele>347.5</ele>
        <time>2019-12-25T12:30:53.000Z</time>
      </trkpt>
      <trkpt lat="45.8294" lon="3.10565">
        <ele>347.7</ele>
        <time>2019-12-25T12:30:54.000Z</time>
      </trkpt>
      <trkpt lat="45.82956" lon="3.10557">
        <ele>347.8</ele>
        <time>2019-12-25T12:30:56.000Z</time>
      </trkpt>
      <trkpt lat="45.82972" lon="3.10553">
        <ele>347.9</ele>
        <time>2019-12-25T12:30:58.000Z</time>
      </trkpt>
      <trkpt lat="45.82989" lon="3.10551">
        <ele>347.8</ele>
        <time>2019-12-25T12:31:00.000Z</time>
      </trkpt>
      <trkpt lat="45.82997" lon="3.10551">
        <ele>347.8</ele>
        <time>2019-12-25T12:31:01.000Z</time>
      </trkpt>
      <trkpt lat="45.83006" lon="3.1055">
        <ele>347.8</ele>
        <time>2019-12-25T12:31:02.000Z</time>
      </trkpt>
      <trkpt lat="45.83024" lon="3.10549">
        <ele>347.7</ele>
        <time>2019-12-25T12:31:04.000Z</time>
      </trkpt>
      <trkpt lat="45.83032" lon="3.10549">
        <ele>347.7</ele>
        <time>2019-12-25T12:31:05.000Z</time>
      </trkpt>
      <trkpt lat="45.8305" lon="3.10549">
        <ele>347.6</ele>
        <time>2019-12-25T12:31:07.000Z</time>
      </trkpt>
      <trkpt lat="45.83068" lon="3.10548">
        <ele>347.5</ele>
        <time>2019-12-25T12:31:09.000Z</time>
      </trkpt>
      <trkpt lat="45.83076" lon="3.10548">
        <ele>347.4</ele>
        <time>2019-12-25T12:31:10.000Z</time>
      </trkpt>
      <trkpt lat="45.83093" lon="3.10547">
        <ele>347.1</ele>
        <time>2019-12-25T12:31:12.000Z</time>
      </trkpt>
      <trkpt lat="45.83102" lon="3.10546">
        <ele>347.1</ele>
        <time>2019-12-25T12:31:13.000Z</time>
      </trkpt>
      <trkpt lat="45.83111" lon="3.10546">
        <ele>347</ele>
        <time>2019-12-25T12:31:14.000Z</time>
      </trkpt>
      <trkpt lat="45.83129" lon="3.10544">
        <ele>346.9</ele>
        <time>2019-12-25T12:31:16.000Z</time>
      </trkpt>
      <trkpt lat="45.83147" lon="3.10543">
        <ele>346.8</ele>
        <time>2019-12-25T12:31:18.000Z</time>
      </trkpt>
      <trkpt lat="45.83156" lon="3.10542">
        <ele>346.8</ele>
        <time>2019-12-25T12:31:19.000Z</time>
      </trkpt>
      <trkpt lat="45.83173" lon="3.1054">
        <ele>346.7</ele>
        <time>2019-12-25T12:31:21.000Z</time>
      </trkpt>
      <trkpt lat="45.83182" lon="3.1054">
        <ele>346.7</ele>
        <time>2019-12-25T12:31:22.000Z</time>
      </trkpt>
      <trkpt lat="45.832" lon="3.10539">
        <ele>346.7</ele>
        <time>2019-12-25T12:31:24.000Z</time>
      </trkpt>
      <trkpt lat="45.83218" lon="3.10538">
        <ele>346.7</ele>
        <time>2019-12-25T12:31:26.000Z</time>
      </trkpt>
      <trkpt lat="45.83226" lon="3.10538">
        <ele>346.7</ele>
        <time>2019-12-25T12:31:27.000Z</time>
      </trkpt>
      <trkpt lat="45.83244" lon="3.10536">
        <ele>347.4</ele>
        <time>2019-12-25T12:31:29.000Z</time>
      </trkpt>
      <trkpt lat="45.83261" lon="3.10535">
        <ele>347.6</ele>
        <time>2019-12-25T12:31:31.000Z</time>
      </trkpt>
      <trkpt lat="45.8327" lon="3.10535">
        <ele>347.6</ele>
        <time>2019-12-25T12:31:32.000Z</time>
      </trkpt>
      <trkpt lat="45.83279" lon="3.10535">
        <ele>347.6</ele>
        <time>2019-12-25T12:31:33.000Z</time>
      </trkpt>
      <trkpt lat="45.83297" lon="3.10535">
        <ele>347.7</ele>
        <time>2019-12-25T12:31:35.000Z</time>
      </trkpt>
      <trkpt lat="45.83306" lon="3.10535">
        <ele>347.8</ele>
        <time>2019-12-25T12:31:36.000Z</time>
      </trkpt>
      <trkpt lat="45.83315" lon="3.10535">
        <ele>348</ele>
        <time>2019-12-25T12:31:37.000Z</time>
      </trkpt>
      <trkpt lat="45.83332" lon="3.10535">
        <ele>348.4</ele>
        <time>2019-12-25T12:31:39.000Z</time>
      </trkpt>
      <trkpt lat="45.83341" lon="3.10535">
        <ele>348.5</ele>
        <time>2019-12-25T12:31:40.000Z</time>
      </trkpt>
      <trkpt lat="45.83359" lon="3.10535">
        <ele>348.7</ele>
        <time>2019-12-25T12:31:42.000Z</time>
      </trkpt>
      <trkpt lat="45.83377" lon="3.10534">
        <ele>349.1</ele>
        <time>2019-12-25T12:31:44.000Z</time>
      </trkpt>
      <trkpt lat="45.83394" lon="3.10532">
        <ele>349.3</ele>
        <time>2019-12-25T12:31:46.000Z</time>
      </trkpt>
      <trkpt lat="45.83403" lon="3.1053">
        <ele>349.4</ele>
        <time>2019-12-25T12:31:47.000Z</time>
      </trkpt>
      <trkpt lat="45.83419" lon="3.10526">
        <ele>349.5</ele>
        <time>2019-12-25T12:31:49.000Z</time>
      </trkpt>
      <trkpt lat="45.83435" lon="3.1052">
        <ele>349.7</ele>
        <time>2019-12-25T12:31:51.000Z</time>
      </trkpt>
      <trkpt lat="45.83443" lon="3.10515">
        <ele>349.7</ele>
        <time>2019-12-25T12:31:52.000Z</time>
      </trkpt>
      <trkpt lat="45.8345" lon="3.1051">
        <ele>349.9</ele>
        <time>2019-12-25T12:31:53.000Z</time>
      </trkpt>
      <trkpt lat="45.83464" lon="3.10499">
        <ele>350.1</ele>
        <time>2019-12-25T12:31:55.000Z</time>
      </trkpt>
      <trkpt lat="45.83471" lon="3.10493">
        <ele>350.3</ele>
        <time>2019-12-25T12:31:56.000Z</time>
      </trkpt>
      <trkpt lat="45.83478" lon="3.10487">
        <ele>350.6</ele>
        <time>2019-12-25T12:31:57.000Z</time>
      </trkpt>
      <trkpt lat="45.8349" lon="3.10474">
        <ele>351.1</ele>
        <time>2019-12-25T12:31:59.000Z</time>
      </trkpt>
      <trkpt lat="45.83496" lon="3.10467">
        <ele>351.3</ele>
        <time>2019-12-25T12:32:00.000Z</time>
      </trkpt>
      <trkpt lat="45.83507" lon="3.1045">
        <ele>351.7</ele>
        <time>2019-12-25T12:32:02.000Z</time>
      </trkpt>
      <trkpt lat="45.83516" lon="3.10433">
        <ele>352</ele>
        <time>2019-12-25T12:32:04.000Z</time>
      </trkpt>
      <trkpt lat="45.83524" lon="3.10415">
        <ele>352.1</ele>
        <time>2019-12-25T12:32:06.000Z</time>
      </trkpt>
      <trkpt lat="45.83527" lon="3.10406">
        <ele>352.1</ele>
        <time>2019-12-25T12:32:07.000Z</time>
      </trkpt>
      <trkpt lat="45.83533" lon="3.10387">
        <ele>352.1</ele>
        <time>2019-12-25T12:32:09.000Z</time>
      </trkpt>
      <trkpt lat="45.83538" lon="3.10369">
        <ele>352.1</ele>
        <time>2019-12-25T12:32:11.000Z</time>
      </trkpt>
      <trkpt lat="45.83541" lon="3.10349">
        <ele>352.2</ele>
        <time>2019-12-25T12:32:13.000Z</time>
      </trkpt>
      <trkpt lat="45.83543" lon="3.10328">
        <ele>352.6</ele>
        <time>2019-12-25T12:32:15.000Z</time>
      </trkpt>
      <trkpt lat="45.83544" lon="3.10318">
        <ele>352.8</ele>
        <time>2019-12-25T12:32:16.000Z</time>
      </trkpt>
      <trkpt lat="45.83544" lon="3.10299">
        <ele>353</ele>
        <time>2019-12-25T12:32:18.000Z</time>
      </trkpt>
      <trkpt lat="45.83545" lon="3.10279">
        <ele>353.1</ele>
        <time>2019-12-25T12:32:20.000Z</time>
      </trkpt>
      <trkpt lat="45.83545" lon="3.10269">
        <ele>353.1</ele>
        <time>2019-12-25T12:32:21.000Z</time>
      </trkpt>
      <trkpt lat="45.83545" lon="3.10259">
        <ele>353.2</ele>
        <time>2019-12-25T12:32:22.000Z</time>
      </trkpt>
      <trkpt lat="45.83546" lon="3.10238">
        <ele>353.4</ele>
        <time>2019-12-25T12:32:24.000Z</time>
      </trkpt>
      <trkpt lat="45.83546" lon="3.10217">
        <ele>354</ele>
        <time>2019-12-25T12:32:26.000Z</time>
      </trkpt>
      <trkpt lat="45.83546" lon="3.10207">
        <ele>354.3</ele>
        <time>2019-12-25T12:32:27.000Z</time>
      </trkpt>
      <trkpt lat="45.83545" lon="3.10185">
        <ele>354.9</ele>
        <time>2019-12-25T12:32:29.000Z</time>
      </trkpt>
      <trkpt lat="45.83545" lon="3.10175">
        <ele>355.3</ele>
        <time>2019-12-25T12:32:30.000Z</time>
      </trkpt>
      <trkpt lat="45.83546" lon="3.10165">
        <ele>355.5</ele>
        <time>2019-12-25T12:32:31.000Z</time>
      </trkpt>
      <trkpt lat="45.83546" lon="3.10144">
        <ele>355.9</ele>
        <time>2019-12-25T12:32:33.000Z</time>
      </trkpt>
      <trkpt lat="45.83545" lon="3.10125">
        <ele>356.2</ele>
        <time>2019-12-25T12:32:35.000Z</time>
      </trkpt>
      <trkpt lat="45.83545" lon="3.10115">
        <ele>356.4</ele>
        <time>2019-12-25T12:32:36.000Z</time>
      </trkpt>
      <trkpt lat="45.83545" lon="3.10095">
        <ele>356.7</ele>
        <time>2019-12-25T12:32:38.000Z</time>
      </trkpt>
      <trkpt lat="45.83545" lon="3.10085">
        <ele>356.9</ele>
        <time>2019-12-25T12:32:39.000Z</time>
      </trkpt>
      <trkpt lat="45.83544" lon="3.10066">
        <ele>357.2</ele>
        <time>2019-12-25T12:32:41.000Z</time>
      </trkpt>
      <trkpt lat="45.83543" lon="3.10045">
        <ele>357.6</ele>
        <time>2019-12-25T12:32:43.000Z</time>
      </trkpt>
      <trkpt lat="45.83543" lon="3.10035">
        <ele>357.7</ele>
        <time>2019-12-25T12:32:44.000Z</time>
      </trkpt>
      <trkpt lat="45.83542" lon="3.10025">
        <ele>357.9</ele>
        <time>2019-12-25T12:32:45.000Z</time>
      </trkpt>
      <trkpt lat="45.8354" lon="3.10005">
        <ele>358.3</ele>
        <time>2019-12-25T12:32:47.000Z</time>
      </trkpt>
      <trkpt lat="45.83539" lon="3.09984">
        <ele>358.6</ele>
        <time>2019-12-25T12:32:49.000Z</time>
      </trkpt>
      <trkpt lat="45.83538" lon="3.09964">
        <ele>359</ele>
        <time>2019-12-25T12:32:51.000Z</time>
      </trkpt>
      <trkpt lat="45.83537" lon="3.09953">
        <ele>359.2</ele>
        <time>2019-12-25T12:32:52.000Z</time>
      </trkpt>
      <trkpt lat="45.83536" lon="3.09932">
        <ele>359.6</ele>
        <time>2019-12-25T12:32:54.000Z</time>
      </trkpt>
      <trkpt lat="45.83536" lon="3.09921">
        <ele>359.8</ele>
        <time>2019-12-25T12:32:55.000Z</time>
      </trkpt>
      <trkpt lat="45.83535" lon="3.099">
        <ele>360.1</ele>
        <time>2019-12-25T12:32:57.000Z</time>
      </trkpt>
      <trkpt lat="45.83535" lon="3.09889">
        <ele>360.3</ele>
        <time>2019-12-25T12:32:58.000Z</time>
      </trkpt>
      <trkpt lat="45.83535" lon="3.09868">
        <ele>360.5</ele>
        <time>2019-12-25T12:33:00.000Z</time>
      </trkpt>
      <trkpt lat="45.83536" lon="3.09846">
        <ele>360.7</ele>
        <time>2019-12-25T12:33:02.000Z</time>
      </trkpt>
      <trkpt lat="45.83537" lon="3.09824">
        <ele>360.8</ele>
        <time>2019-12-25T12:33:04.000Z</time>
      </trkpt>
      <trkpt lat="45.83538" lon="3.09802">
        <ele>360.8</ele>
        <time>2019-12-25T12:33:06.000Z</time>
      </trkpt>
      <trkpt lat="45.83538" lon="3.09791">
        <ele>360.8</ele>
        <time>2019-12-25T12:33:07.000Z</time>
      </trkpt>
      <trkpt lat="45.8354" lon="3.09767">
        <ele>360.7</ele>
        <time>2019-12-25T12:33:09.000Z</time>
      </trkpt>
      <trkpt lat="45.83541" lon="3.09756">
        <ele>360.6</ele>
        <time>2019-12-25T12:33:10.000Z</time>
      </trkpt>
      <trkpt lat="45.83542" lon="3.09732">
        <ele>360.4</ele>
        <time>2019-12-25T12:33:12.000Z</time>
      </trkpt>
      <trkpt lat="45.83544" lon="3.09706">
        <ele>360</ele>
        <time>2019-12-25T12:33:14.000Z</time>
      </trkpt>
      <trkpt lat="45.83546" lon="3.0968">
        <ele>359.5</ele>
        <time>2019-12-25T12:33:16.000Z</time>
      </trkpt>
      <trkpt lat="45.83546" lon="3.09666">
        <ele>359.2</ele>
        <time>2019-12-25T12:33:17.000Z</time>
      </trkpt>
      <trkpt lat="45.83546" lon="3.09652">
        <ele>359.2</ele>
        <time>2019-12-25T12:33:18.000Z</time>
      </trkpt>
      <trkpt lat="45.83544" lon="3.09625">
        <ele>359.2</ele>
        <time>2019-12-25T12:33:20.000Z</time>
      </trkpt>
      <trkpt lat="45.83543" lon="3.09611">
        <ele>359</ele>
        <time>2019-12-25T12:33:21.000Z</time>
      </trkpt>
      <trkpt lat="45.83542" lon="3.09583">
        <ele>358.9</ele>
        <time>2019-12-25T12:33:23.000Z</time>
      </trkpt>
      <trkpt lat="45.83547" lon="3.09557">
        <ele>359.5</ele>
        <time>2019-12-25T12:33:25.000Z</time>
      </trkpt>
      <trkpt lat="45.83559" lon="3.09538">
        <ele>359.9</ele>
        <time>2019-12-25T12:33:27.000Z</time>
      </trkpt>
      <trkpt lat="45.83574" lon="3.09523">
        <ele>360.5</ele>
        <time>2019-12-25T12:33:29.000Z</time>
      </trkpt>
      <trkpt lat="45.8359" lon="3.09511">
        <ele>361</ele>
        <time>2019-12-25T12:33:31.000Z</time>
      </trkpt>
      <trkpt lat="45.83605" lon="3.09501">
        <ele>361.3</ele>
        <time>2019-12-25T12:33:33.000Z</time>
      </trkpt>
      <trkpt lat="45.83621" lon="3.09496">
        <ele>361.5</ele>
        <time>2019-12-25T12:33:35.000Z</time>
      </trkpt>
      <trkpt lat="45.83628" lon="3.09495">
        <ele>361.7</ele>
        <time>2019-12-25T12:33:36.000Z</time>
      </trkpt>
      <trkpt lat="45.83644" lon="3.09495">
        <ele>362.1</ele>
        <time>2019-12-25T12:33:38.000Z</time>
      </trkpt>
      <trkpt lat="45.83659" lon="3.09494">
        <ele>362.5</ele>
        <time>2019-12-25T12:33:40.000Z</time>
      </trkpt>
      <trkpt lat="45.83666" lon="3.09494">
        <ele>362.6</ele>
        <time>2019-12-25T12:33:41.000Z</time>
      </trkpt>
      <trkpt lat="45.83682" lon="3.09493">
        <ele>362.7</ele>
        <time>2019-12-25T12:33:43.000Z</time>
      </trkpt>
      <trkpt lat="45.83697" lon="3.09491">
        <ele>362.8</ele>
        <time>2019-12-25T12:33:45.000Z</time>
      </trkpt>
      <trkpt lat="45.83704" lon="3.09489">
        <ele>362.9</ele>
        <time>2019-12-25T12:33:46.000Z</time>
      </trkpt>
    </trkseg>
  </trk>
</gpx>